JPL-Sats

  Home –  History –  Credit –  Support –  Last_Sats –  Future_Sats –  C95_Ephs –  M58_Ephs –  I98_Ephs(T18) –  Q62_Ephs(T33) –  U94_Ephs(T68) –  Q20_Ephs –  Legal –  Privacy
Home   
History   
Credit   
Support   
Last_Sats   
Future_Sats   
C95_Ephs   
M58_Ephs   
I98_Ephs(T18)   
Q62_Ephs(T33)   
U94_Ephs(T68)   
Q20_Ephs   
Legal   
Privacy   

Index of all used observable objects

Wind (-8) TESS (-95) Chandra Observatory (-151) James Webb Space Telescope (-170) INTEGRAL (-198) Spektr-R Observatory (-557) Euclid (-680) CAPSTONE (-1176) Titan-3C RB (-102770) Gaia (-139479) MMS-1 (-140482) MMS-2 (-140483) MMS-3 (-140484) MMS-4 (-140485)

Missions with actual ephemerides

The ephemeris are downloaded by JPL Horizont:

  • Start of interval: 2024-04-14 00:00:00.
  • End of interval: 2024-04-28 00:00:00.
  • Time of interval: 10 min.
  • Station: M58.
  • Created: 2024-Apr-14 03:08:08 UTC.

Wind (JPL-ID: -8)

   Date (UTC) HH:MM   RA              Dec         delta   r     elong SM  mag  '/hr    PA   alt  az moo ill
   ---- -- -- -----  -------------   -----------  ------ ------ ----- --  --- ------ ------ --- --- --- ---
   2024 04 15 16:50  02 25 52.63    +11 50 13.7   0.0087 0.9949  12.3 Cm  20?   3.67  76.2    7 286  77  49
   2024 04 15 17:00  02 25 55.11    +11 50 22.5   0.0087 0.9949  12.3 Cm  20?   3.83  76.9    5 285  77  49
   2024 04 15 17:10  02 25 57.72    +11 50 31.2   0.0087 0.9949  12.4 Nm  20?   4.00  77.6    3 284  77  49
   2024 04 15 17:20  02 26 00.43    +11 50 39.9   0.0087 0.9950  12.4 Nm  20?   4.17  78.2    0 283  77  49
   ................
   2024 04 16 16:50  02 33 12.05    +12 30 18.7   0.0087 0.9952  13.2 Cm  20?   3.52  77.2    7 287  87  58
   2024 04 16 17:00  02 33 14.45    +12 30 26.5   0.0087 0.9952  13.2 Cm  20?   3.68  77.9    5 286  87  59
   2024 04 16 17:10  02 33 16.97    +12 30 34.2   0.0087 0.9952  13.3 Nm  20?   3.85  78.6    3 285  87  59
   2024 04 16 17:20  02 33 19.60    +12 30 41.9   0.0087 0.9952  13.3 Nm  20?   4.02  79.1    1 284  87  59
   ................
   2024 04 17 16:50  02 40 24.84    +13 09 00.5   0.0088 0.9955  14.1 Cm  20?   3.37  78.2    8 288  97  68
   2024 04 17 17:00  02 40 27.16    +13 09 07.4   0.0088 0.9955  14.1 Cm  20?   3.53  79.0    6 287  97  68
   2024 04 17 17:10  02 40 29.59    +13 09 14.1   0.0088 0.9955  14.1 Nm  20?   3.70  79.6    3 286  97  68
   2024 04 17 17:20  02 40 32.14    +13 09 20.9   0.0088 0.9955  14.1 Nm  20?   3.87  80.1    1 285  97  68
   2024 04 17 17:30  02 40 34.81    +13 09 27.5   0.0088 0.9955  14.1 Am  20?   4.04  80.6    0 284  97  68
   ................
   2024 04 18 16:50  02 47 30.70    +13 46 18.4   0.0088 0.9957  15.0 Cm  20?   3.22  79.3    8 289 107  76
   2024 04 18 17:00  02 47 32.94    +13 46 24.4   0.0088 0.9957  15.0 Cm  20?   3.39  80.1    6 288 107  76
   2024 04 18 17:10  02 47 35.28    +13 46 30.2   0.0088 0.9957  15.0 Nm  20?   3.55  80.7    4 287 107  76
   2024 04 18 17:20  02 47 37.75    +13 46 36.0   0.0088 0.9957  15.0 Nm  20?   3.72  81.2    2 286 107  76
   2024 04 18 17:30  02 47 40.33    +13 46 41.7   0.0088 0.9958  15.0 Am  20?   3.89  81.7    0 285 107  77
   ................
   2024 04 19 16:50  02 54 29.39    +14 22 12.5   0.0089 0.9960  15.7 Cm  20?   3.08  80.5    9 290 117  84
   2024 04 19 17:00  02 54 31.54    +14 22 17.5   0.0089 0.9960  15.8 Cm  20?   3.24  81.2    6 289 117  84
   2024 04 19 17:10  02 54 33.80    +14 22 22.5   0.0089 0.9960  15.8 Nm  20?   3.41  81.8    4 287 117  84
   2024 04 19 17:20  02 54 36.18    +14 22 27.4   0.0089 0.9960  15.8 Nm  20?   3.58  82.3    2 286 118  84
   2024 04 19 17:30  02 54 38.68    +14 22 32.2   0.0089 0.9960  15.8 Am  20?   3.74  82.8    0 285 118  84
   ................
   2024 04 20 16:50  03 01 20.72    +14 56 43.3   0.0089 0.9963  16.5 Cm  20?   2.94  81.7    9 290 127  90
   2024 04 20 17:00  03 01 22.78    +14 56 47.5   0.0089 0.9963  16.5 Nm  20?   3.10  82.4    7 289 128  90
   2024 04 20 17:10  03 01 24.96    +14 56 51.6   0.0089 0.9963  16.5 Nm  20?   3.27  83.0    5 288 128  90
   2024 04 20 17:20  03 01 27.26    +14 56 55.6   0.0089 0.9963  16.5 Nm  20?   3.43  83.5    3 287 128  90
   2024 04 20 17:30  03 01 29.67    +14 56 59.5   0.0089 0.9963  16.5 Am  20?   3.60  83.9    0 286 128  90
   ................
   2024 04 21 16:50  03 08 04.57    +15 29 52.1   0.0090 0.9965  17.2 Cm  20?   2.81  83.0    9 291 138  95
   2024 04 21 17:00  03 08 06.56    +15 29 55.5   0.0090 0.9965  17.2 Nm  20?   2.97  83.7    7 290 138  95
   2024 04 21 17:10  03 08 08.65    +15 29 58.8   0.0090 0.9965  17.2 Nm  20?   3.13  84.2    5 289 138  95
   2024 04 21 17:20  03 08 10.87    +15 30 01.9   0.0090 0.9965  17.2 Nm  20?   3.30  84.7    3 288 138  95
   2024 04 21 17:30  03 08 13.19    +15 30 05.0   0.0090 0.9965  17.2 Am  20?   3.46  85.1    1 287 138  95
   ................
   2024 04 22 16:50  03 14 40.91    +16 01 40.8   0.0090 0.9968  17.9 Cm  20?   2.68  84.4   10 292 148  98
   2024 04 22 17:00  03 14 42.81    +16 01 43.4   0.0090 0.9968  17.9 Nm  20?   2.84  85.0    8 291 148  98
   2024 04 22 17:10  03 14 44.83    +16 01 45.8   0.0090 0.9968  17.9 Nm  20?   3.00  85.5    5 290 148  98
   2024 04 22 17:20  03 14 46.96    +16 01 48.2   0.0090 0.9968  17.9 Nm  20?   3.16  85.9    3 289 148  98
   2024 04 22 17:30  03 14 49.21    +16 01 50.5   0.0090 0.9968  17.9 Am  20?   3.33  86.3    1 288 148  98
   ................
   2024 04 23 16:50  03 21 09.74    +16 32 11.5   0.0091 0.9970  18.6 Cm  20?   2.55  85.8   10 293 158  99
   2024 04 23 17:00  03 21 11.57    +16 32 13.3   0.0091 0.9970  18.6 Nm  20?   2.71  86.3    8 292 158  99
   2024 04 23 17:10  03 21 13.51    +16 32 15.0   0.0091 0.9970  18.6 Nm  20?   2.87  86.8    6 291 158  99
   2024 04 23 17:20  03 21 15.56    +16 32 16.6   0.0091 0.9970  18.6 Nm  20?   3.04  87.2    4 290 158  99
   2024 04 23 17:30  03 21 17.73    +16 32 18.1   0.0091 0.9970  18.6 Am  20?   3.20  87.5    1 289 159  99
   2024 04 23 17:40  03 21 20.01    +16 32 19.5   0.0091 0.9970  18.6 Am  20?   3.37  87.8    0 288 159  99
   ................
   2024 04 24 16:40  03 27 29.53    +17 01 25.4   0.0091 0.9973  19.2 C   20?   2.28  86.6   12 295 168  99
   2024 04 24 16:50  03 27 31.17    +17 01 26.7   0.0091 0.9973  19.2 Cm  20?   2.43  87.2   10 294 168  99
   2024 04 24 17:00  03 27 32.92    +17 01 27.8   0.0091 0.9973  19.2 Nm  20?   2.59  87.8    8 292 169  99
   2024 04 24 17:10  03 27 34.78    +17 01 28.8   0.0091 0.9973  19.2 Nm  20?   2.75  88.2    6 291 169  99
   2024 04 24 17:20  03 27 36.76    +17 01 29.7   0.0091 0.9973  19.2 Nm  20?   2.92  88.5    4 290 169  99
   2024 04 24 17:30  03 27 38.85    +17 01 30.5   0.0091 0.9973  19.2 Am  20?   3.08  88.8    2 289 169  99
   2024 04 24 17:40  03 27 41.05    +17 01 31.1   0.0091 0.9973  19.2 Am  20?   3.25  89.0    0 288 169  99
   ................
   2024 04 25 16:40  03 33 43.77    +17 29 28.6   0.0092 0.9975  19.8 C   20?   2.17  88.1   13 295 175  96
   2024 04 25 16:50  03 33 45.34    +17 29 29.3   0.0092 0.9975  19.8 C   20?   2.32  88.7   11 294 175  96
   2024 04 25 17:00  03 33 47.02    +17 29 29.7   0.0092 0.9975  19.8 N   20?   2.48  89.2    8 293 175  96
   2024 04 25 17:10  03 33 48.81    +17 29 30.1   0.0092 0.9975  19.8 N   20?   2.64  89.6    6 292 175  96
   2024 04 25 17:20  03 33 50.71    +17 29 30.2   0.0092 0.9975  19.8 N   20?   2.80  89.9    4 291 175  96
   2024 04 25 17:30  03 33 52.73    +17 29 30.3   0.0092 0.9975  19.8 Am  20?   2.97  90.1    2 290 175  96
   2024 04 25 17:40  03 33 54.86    +17 29 30.3   0.0092 0.9975  19.8 Am  20?   3.13  90.2    0 289 175  96
   ................
   2024 04 26 16:40  03 39 50.97    +17 56 22.0   0.0092 0.9978  20.3 C   20?   2.07  89.8   13 296 167  92
   2024 04 26 16:50  03 39 52.47    +17 56 22.1   0.0092 0.9978  20.3 C   20?   2.22  90.3   11 295 167  92
   2024 04 26 17:00  03 39 54.08    +17 56 21.9   0.0092 0.9978  20.3 N   20?   2.38  90.7    9 294 167  92
   2024 04 26 17:10  03 39 55.80    +17 56 21.6   0.0092 0.9978  20.3 N   20?   2.54  91.0    7 293 167  92
   2024 04 26 17:20  03 39 57.63    +17 56 21.1   0.0092 0.9978  20.3 N   20?   2.70  91.2    4 292 167  92
   2024 04 26 17:30  03 39 59.58    +17 56 20.5   0.0092 0.9978  20.3 A   20?   2.86  91.4    2 290 167  92
   2024 04 26 17:40  03 40 01.64    +17 56 19.8   0.0092 0.9978  20.3 A   20?   3.02  91.5    0 289 167  92
   ................
   2024 04 27 16:40  03 45 51.37    +18 22 08.5   0.0093 0.9980  20.8 C   20?   1.97  91.5   13 297 156  86
   2024 04 27 16:50  03 45 52.81    +18 22 07.9   0.0093 0.9980  20.8 C   20?   2.12  91.9   11 295 156  86
   2024 04 27 17:00  03 45 54.36    +18 22 07.2   0.0093 0.9980  20.8 N   20?   2.28  92.2    9 294 156  86
   2024 04 27 17:10  03 45 56.01    +18 22 06.2   0.0093 0.9980  20.8 N   20?   2.44  92.5    7 293 156  86
   2024 04 27 17:20  03 45 57.78    +18 22 05.2   0.0093 0.9980  20.8 N   20?   2.60  92.6    5 292 156  86
   2024 04 27 17:30  03 45 59.66    +18 22 04.0   0.0093 0.9980  20.8 A   20?   2.76  92.7    3 291 156  85
   2024 04 27 17:40  03 46 01.65    +18 22 02.6   0.0093 0.9980  20.8 A   20?   2.92  92.8    0 290 156  85
   ................
   

TESS (JPL-ID: -95)

   Date (UTC) HH:MM   RA              Dec         delta   r     elong SM  mag  '/hr    PA   alt  az moo ill
   ---- -- -- -----  -------------   -----------  ------ ------ ----- --  --- ------ ------ --- --- --- ---
   2024 04 14 02:30  00 31 19.65    -41 45 05.3   322453 1.0017  52.9     14?  37.92  84.6    0 135 106  32
   2024 04 14 02:40  00 31 53.09    -41 44 30.3   322433 1.0017  52.8     14?  37.24  84.7    2 135 106  33
   2024 04 14 02:50  00 32 25.91    -41 43 56.2   322411 1.0017  52.8     14?  36.55  84.7    3 134 106  33
   2024 04 14 03:00  00 32 58.12    -41 43 23.0   322386 1.0017  52.8     14?  35.86  84.8    5 133 106  33
   2024 04 14 03:10  00 33 29.70    -41 42 50.3   322358 1.0017  52.7     14?  35.16  84.7    6 132 106  33
   2024 04 14 03:20  00 34 00.64    -41 42 18.1   322329 1.0017  52.7     14?  34.45  84.7    8 131 106  33
   2024 04 14 03:30  00 34 30.95    -41 41 46.2   322297 1.0017  52.7     14?  33.74  84.6   10 131 106  33
   2024 04 14 03:40  00 35 00.63    -41 41 14.4   322264 1.0017  52.6     14?  33.03  84.5   11 130 106  33
   2024 04 14 03:50  00 35 29.66    -41 40 42.6   322229 1.0017  52.6     14?  32.32  84.3   13 129 106  33
   2024 04 14 04:00  00 35 58.05    -41 40 10.4   322194 1.0017  52.6 A   14?  31.61  84.2   15 129 106  33
   2024 04 14 04:10  00 36 25.79    -41 39 37.9   322157 1.0017  52.5 A   14?  30.91  83.9   16 128 106  33
   2024 04 14 04:20  00 36 52.89    -41 39 04.7   322121 1.0017  52.5 N   14?  30.20  83.7   18 128 106  34
   2024 04 14 04:30  00 37 19.35    -41 38 30.7   322084 1.0017  52.5 N   14?  29.50  83.3   20 127 106  34
   2024 04 14 04:40  00 37 45.17    -41 37 55.8   322048 1.0017  52.4 N   14?  28.81  83.0   22 127 106  34
   2024 04 14 04:50  00 38 10.35    -41 37 19.8   322013 1.0017  52.4 C   14?  28.13  82.5   23 126 106  34
   2024 04 14 05:00  00 38 34.91    -41 36 42.3   321978 1.0017  52.4 C   14?  27.45  82.0   25 126 106  34
   ................
   2024 04 14 16:50  00 58 56.22    -38 26 40.0   332745 1.0017  48.7 Cm  14?  39.72  51.0    8 231 106  38
   2024 04 14 17:00  00 59 22.70    -38 22 30.0   333048 1.0017  48.6 Cm  14?  40.14  51.6    7 231 106  39
   2024 04 14 17:10  00 59 49.67    -38 18 20.7   333350 1.0017  48.5 Nm  14?  40.56  52.2    5 230 106  39
   2024 04 14 17:20  01 00 17.12    -38 14 12.3   333650 1.0017  48.4 Nm  14?  40.96  52.8    3 229 106  39
   2024 04 14 17:30  01 00 45.04    -38 10 05.1   333948 1.0017  48.3 Nm  14?  41.36  53.4    1 228 106  39
   2024 04 14 17:40  01 01 13.41    -38 05 59.0   334243 1.0017  48.3 Am  14?  41.74  54.0    0 228 106  39
   ................
   2024 04 15 03:50  01 33 59.90    -35 22 11.2   339840 1.0017  45.1     14?  31.53  74.4    1 128 102  43
   2024 04 15 04:00  01 34 24.45    -35 20 46.6   339725 1.0017  45.1 A   14?  30.89  74.2    2 127 102  43
   2024 04 15 04:10  01 34 48.47    -35 19 22.5   339607 1.0017  45.1 A   14?  30.24  74.0    4 126 102  43
   2024 04 15 04:20  01 35 11.94    -35 17 58.9   339488 1.0017  45.1 N   14?  29.60  73.7    6 125 102  43
   2024 04 15 04:30  01 35 34.86    -35 16 35.6   339366 1.0017  45.0 N   14?  28.96  73.4    8 124 102  43
   2024 04 15 04:40  01 35 57.23    -35 15 12.4   339242 1.0017  45.0 N   14?  28.32  73.0   10 124 102  44
   2024 04 15 04:50  01 36 19.05    -35 13 49.2   339118 1.0017  45.0 C   14?  27.68  72.6   11 123 102  44
   2024 04 15 05:00  01 36 40.32    -35 12 25.7   338992 1.0017  45.0 C   14?  27.05  72.1   13 122 103  44
   ................
   2024 04 15 16:50  01 51 10.41    -31 46 39.2   342944 1.0017  41.9 Cm  14?  35.00  42.2   15 241 103  49
   2024 04 15 17:00  01 51 29.05    -31 42 19.6   343200 1.0017  41.8 Cm  14?  35.42  42.9   13 241 103  49
   2024 04 15 17:10  01 51 48.16    -31 38 00.0   343455 1.0017  41.8 Nm  14?  35.83  43.7   11 240 103  49
   2024 04 15 17:20  01 52 07.74    -31 33 40.6   343711 1.0017  41.7 Nm  14?  36.24  44.4    9 239 103  49
   2024 04 15 17:30  01 52 27.79    -31 29 21.6   343966 1.0017  41.6 Am  14?  36.65  45.1    7 239 103  49
   2024 04 15 17:40  01 52 48.30    -31 25 03.0   344220 1.0017  41.6 Am  14?  37.04  45.9    6 238 103  49
   2024 04 15 17:50  01 53 09.27    -31 20 45.0   344472 1.0017  41.5 Am  14?  37.43  46.6    4 237 103  49
   2024 04 15 18:00  01 53 30.69    -31 16 27.7   344723 1.0017  41.4  m  14?  37.82  47.3    2 236 103  49
   2024 04 15 18:10  01 53 52.56    -31 12 11.3   344972 1.0018  41.4  m  14?  38.19  48.0    0 236 103  49
   ................
   2024 04 16 04:50  02 22 08.41    -27 54 55.4   346438 1.0018  39.5 C   14?  29.01  65.1    0 120 100  53
   2024 04 16 05:00  02 22 28.00    -27 52 53.0   346232 1.0018  39.5 C   14?  28.42  64.6    2 119 100  54
   ................
   2024 04 16 16:50  02 34 05.44    -24 11 51.2   343558 1.0019  37.0 Cm  15?  32.21  36.0   21 252 101  58
   2024 04 16 17:00  02 34 19.46    -24 07 30.1   343756 1.0019  36.9 Cm  15?  32.61  36.8   19 251 101  59
   2024 04 16 17:10  02 34 33.93    -24 03 08.5   343957 1.0019  36.9 Nm  15?  33.02  37.7   17 250 101  59
   2024 04 16 17:20  02 34 48.86    -23 58 46.8   344159 1.0019  36.8 Nm  15?  33.42  38.5   15 250 101  59
   2024 04 16 17:30  02 35 04.23    -23 54 24.8   344362 1.0019  36.8 Am  15?  33.82  39.3   13 249 101  59
   2024 04 16 17:40  02 35 20.06    -23 50 02.8   344565 1.0019  36.7 Am  15?  34.23  40.2   11 248 101  59
   2024 04 16 17:50  02 35 36.34    -23 45 40.9   344769 1.0019  36.7 Am  15?  34.63  41.0    9 248 101  59
   2024 04 16 18:00  02 35 53.07    -23 41 19.2   344972 1.0019  36.7  m  15?  35.03  41.8    6 247 101  59
   2024 04 16 18:10  02 36 10.25    -23 36 57.8   345175 1.0019  36.6  m  15?  35.42  42.6    4 246 101  59
   2024 04 16 18:20  02 36 27.88    -23 32 36.8   345377 1.0019  36.6  m  15?  35.81  43.4    2 245 101  59
   2024 04 16 18:30  02 36 45.95    -23 28 16.2   345577 1.0019  36.5  m  15?  36.20  44.1    0 244 101  59
   ................
   2024 04 17 16:50  03 12 26.85    -15 42 50.0   334555 1.0022  34.4 Cm  15?  31.03  31.7   27 263 100  68
   2024 04 17 17:00  03 12 38.31    -15 38 25.4   334687 1.0022  34.3 Cm  15?  31.41  32.6   24 262 100  68
   2024 04 17 17:10  03 12 50.21    -15 34 00.3   334823 1.0022  34.3 Nm  15?  31.79  33.5   22 262 100  68
   2024 04 17 17:20  03 13 02.54    -15 29 34.8   334962 1.0022  34.3 Nm  15?  32.18  34.4   20 261 100  68
   2024 04 17 17:30  03 13 15.31    -15 25 08.9   335104 1.0022  34.3 Am  15?  32.57  35.3   18 260 100  68
   2024 04 17 17:40  03 13 28.53    -15 20 42.7   335248 1.0022  34.2 Am  15?  32.97  36.2   15 259  99  68
   2024 04 17 17:50  03 13 42.20    -15 16 16.4   335393 1.0022  34.2 Am  15?  33.37  37.1   13 259  99  68
   2024 04 17 18:00  03 13 56.31    -15 11 49.9   335539 1.0022  34.2  m  15?  33.78  38.0   11 258  99  68
   2024 04 17 18:10  03 14 10.88    -15 07 23.5   335687 1.0022  34.2  m  15?  34.19  38.9    9 257  99  68
   2024 04 17 18:20  03 14 25.89    -15 02 57.0   335834 1.0022  34.2  m  15?  34.60  39.8    6 256  99  68
   2024 04 17 18:30  03 14 41.36    -14 58 30.7   335982 1.0022  34.1  m  15?  35.02  40.6    4 255  99  68
   2024 04 17 18:40  03 14 57.28    -14 54 04.6   336129 1.0022  34.1  m  15?  35.43  41.4    2 254  99  68
   2024 04 17 18:50  03 15 13.65    -14 49 38.7   336275 1.0022  34.1  m  15?  35.85  42.3    0 254  99  68
   ................
   2024 04 18 16:50  03 50 10.87    -06 01 37.4   315802 1.0025  35.0 Cm  14?  31.58  29.1   31 277  98  76
   2024 04 18 17:00  03 50 21.35    -05 57 01.1   315857 1.0025  35.0 Cm  14?  31.92  30.1   29 276  98  76
   2024 04 18 17:10  03 50 32.25    -05 52 24.4   315917 1.0025  35.0 Nm  14?  32.27  31.0   26 275  98  76
   2024 04 18 17:20  03 50 43.58    -05 47 47.5   315982 1.0025  35.0 Nm  14?  32.63  32.0   24 274  98  76
   2024 04 18 17:30  03 50 55.35    -05 43 10.4   316050 1.0026  35.0 Am  14?  33.00  33.0   22 273  98  77
   2024 04 18 17:40  03 51 07.57    -05 38 33.1   316122 1.0026  35.0 Am  14?  33.38  33.9   19 272  98  77
   2024 04 18 17:50  03 51 20.24    -05 33 55.6   316197 1.0026  35.0 Am  14?  33.78  34.9   17 271  98  77
   2024 04 18 18:00  03 51 33.36    -05 29 18.0   316275 1.0026  35.0  m  14?  34.19  35.8   15 270  98  77
   2024 04 18 18:10  03 51 46.96    -05 24 40.4   316355 1.0026  35.0  m  14?  34.60  36.7   13 269  98  77
   2024 04 18 18:20  03 52 01.02    -05 20 02.7   316437 1.0026  35.0  m  14?  35.03  37.7   10 268  98  77
   2024 04 18 18:30  03 52 15.55    -05 15 25.0   316520 1.0026  35.1  m  14?  35.47  38.6    8 268  98  77
   2024 04 18 18:40  03 52 30.56    -05 10 47.3   316604 1.0026  35.1  m  14?  35.91  39.5    6 267  98  77
   2024 04 18 18:50  03 52 46.04    -05 06 09.7   316689 1.0026  35.1  m  14?  36.36  40.4    4 266  98  77
   2024 04 18 19:00  03 53 02.00    -05 01 32.2   316773 1.0026  35.1  m  14?  36.82  41.2    1 265  98  77
   2024 04 18 19:10  03 53 18.44    -04 56 54.7   316857 1.0026  35.1  m  14?  37.29  42.0    0 264  98  77
   ................
   2024 04 19 16:50  04 32 01.41    +05 28 46.4   287163 1.0031  40.2 Cm  14?  34.69  28.8   34 294  96  84
   2024 04 19 17:00  04 32 12.76    +05 33 50.7   287125 1.0031  40.2 Cm  14?  34.96  29.7   32 293  96  84
   2024 04 19 17:10  04 32 24.53    +05 38 54.5   287094 1.0031  40.3 Nm  14?  35.25  30.6   30 291  96  84
   2024 04 19 17:20  04 32 36.74    +05 43 58.0   287068 1.0031  40.3 Nm  14?  35.56  31.6   27 290  96  84
   2024 04 19 17:30  04 32 49.41    +05 49 01.0   287047 1.0031  40.3 Am  14?  35.88  32.6   25 289  96  84
   2024 04 19 17:40  04 33 02.54    +05 54 03.7   287032 1.0031  40.4 Am  14?  36.23  33.5   23 288  96  84
   2024 04 19 17:50  04 33 16.15    +05 59 06.0   287021 1.0031  40.4 Am  14?  36.60  34.5   21 286  96  84
   2024 04 19 18:00  04 33 30.25    +06 04 07.9   287014 1.0031  40.4  m  14?  37.00  35.5   19 285  96  84
   2024 04 19 18:10  04 33 44.85    +06 09 09.5   287011 1.0031  40.5  m  14?  37.41  36.4   17 284  96  84
   2024 04 19 18:20  04 33 59.96    +06 14 10.8   287012 1.0031  40.5  m  14?  37.84  37.4   14 283  96  84
   2024 04 19 18:30  04 34 15.58    +06 19 11.8   287015 1.0031  40.5  m  14?  38.28  38.3   12 282  96  84
   2024 04 19 18:40  04 34 31.72    +06 24 12.5   287021 1.0031  40.6  m  14?  38.75  39.3   10 281  96  84
   2024 04 19 18:50  04 34 48.39    +06 29 13.0   287028 1.0031  40.6  m  14?  39.24  40.2    8 280  96  84
   2024 04 19 19:00  04 35 05.60    +06 34 13.3   287038 1.0031  40.7  m  14?  39.74  41.1    5 279  96  84
   2024 04 19 19:10  04 35 23.34    +06 39 13.4   287048 1.0031  40.7  m  14?  40.25  41.9    3 278  96  84
   2024 04 19 19:20  04 35 41.62    +06 44 13.3   287059 1.0031  40.8  m  14?  40.78  42.8    1 278  96  84
   ................
   2024 04 20 16:50  05 27 11.59    +19 50 31.4   248937 1.0038  51.5 Cm  13?  42.83  32.3   34 317  93  90
   2024 04 20 17:00  05 27 27.95    +19 56 33.0   248787 1.0038  51.6 Nm  13?  42.98  33.1   32 315  92  90
   2024 04 20 17:10  05 27 44.77    +20 02 32.6   248644 1.0038  51.7 Nm  13?  43.15  34.0   31 314  92  90
   2024 04 20 17:20  05 28 02.06    +20 08 30.0   248507 1.0038  51.7 Nm  13?  43.36  34.8   29 312  92  90
   2024 04 20 17:30  05 28 19.84    +20 14 25.4   248378 1.0038  51.8 Am  13?  43.59  35.7   27 310  92  90
   2024 04 20 17:40  05 28 38.13    +20 20 18.9   248254 1.0038  51.9 Am  13?  43.86  36.7   25 309  92  90
   2024 04 20 17:50  05 28 56.96    +20 26 10.4   248136 1.0038  51.9 Am  13?  44.16  37.6   24 307  92  90
   2024 04 20 18:00  05 29 16.34    +20 32 00.2   248024 1.0038  52.0  m  13?  44.50  38.5   22 306  92  90
   2024 04 20 18:10  05 29 36.30    +20 37 48.1   247917 1.0038  52.1  m  13?  44.86  39.5   20 304  92  90
   2024 04 20 18:20  05 29 56.84    +20 43 34.4   247815 1.0038  52.1  m  13?  45.26  40.4   18 303  92  90
   2024 04 20 18:30  05 30 17.99    +20 49 19.0   247717 1.0038  52.2  m  13?  45.69  41.3   16 302  92  90
   2024 04 20 18:40  05 30 39.76    +20 55 02.2   247624 1.0038  52.3  m  13?  46.15  42.2   14 300  92  90
   2024 04 20 18:50  05 31 02.16    +21 00 43.9   247534 1.0038  52.4  m  13?  46.65  43.2   12 299  92  90
   2024 04 20 19:00  05 31 25.22    +21 06 24.4   247448 1.0038  52.5  m  13?  47.17  44.1   10 298  92  90
   2024 04 20 19:10  05 31 48.94    +21 12 03.6   247364 1.0039  52.6  m  13?  47.73  44.9    8 297  92  90
   2024 04 20 19:20  05 32 13.33    +21 17 41.7   247283 1.0039  52.6  m  13?  48.31  45.8    6 296  92  91
   2024 04 20 19:30  05 32 38.40    +21 23 18.8   247204 1.0039  52.7  m  13?  48.93  46.7    4 295  92  91
   2024 04 20 19:40  05 33 04.17    +21 28 55.0   247127 1.0039  52.8  m  13?  49.56  47.5    2 294  92  91
   2024 04 20 19:50  05 33 30.64    +21 34 30.4   247052 1.0039  52.9  m  13?  50.23  48.3    0 293  92  91
   ................
   2024 04 21 16:50  07 04 31.05    +37 55 27.1   203572 1.0047  72.0 Cm  12?  63.34  45.8   27 348  83  95
   2024 04 21 17:00  07 05 09.52    +38 02 47.2   203296 1.0047  72.1 Nm  12?  63.24  46.5   27 346  83  95
   2024 04 21 17:10  07 05 48.47    +38 10 00.9   203027 1.0047  72.3 Nm  12?  63.18  47.2   26 344  83  95
   2024 04 21 17:20  07 06 27.94    +38 17 08.3   202765 1.0047  72.4 Nm  12?  63.16  48.0   25 342  83  95
   2024 04 21 17:30  07 07 07.96    +38 24 09.4   202510 1.0047  72.5 Am  12?  63.18  48.8   25 341  83  95
   2024 04 21 17:40  07 07 48.58    +38 31 04.1   202261 1.0047  72.6 Am  12?  63.25  49.6   24 339  83  95
   2024 04 21 17:50  07 08 29.82    +38 37 52.6   202019 1.0047  72.7 Am  12?  63.37  50.4   23 337  83  95
   2024 04 21 18:00  07 09 11.73    +38 44 34.8   201783 1.0047  72.9  m  12?  63.53  51.3   22 335  83  95
   2024 04 21 18:10  07 09 54.34    +38 51 10.7   201554 1.0047  73.0  m  12?  63.75  52.1   21 334  83  95
   2024 04 21 18:20  07 10 37.69    +38 57 40.5   201330 1.0047  73.1  m  12?  64.01  53.0   20 332  83  95
   2024 04 21 18:30  07 11 21.82    +39 04 04.2   201112 1.0047  73.3  m  12?  64.32  53.9   19 331  83  95
   2024 04 21 18:40  07 12 06.74    +39 10 21.9   200900 1.0047  73.4  m  12?  64.68  54.8   18 329  83  95
   2024 04 21 18:50  07 12 52.51    +39 16 33.7   200692 1.0047  73.5  m  12?  65.10  55.7   16 328  83  95
   2024 04 21 19:00  07 13 39.15    +39 22 39.6   200490 1.0047  73.7  m  12?  65.56  56.5   15 326  83  95
   2024 04 21 19:10  07 14 26.69    +39 28 39.7   200293 1.0048  73.8  m  12?  66.08  57.4   14 325  82  95
   2024 04 21 19:20  07 15 15.17    +39 34 34.2   200101 1.0048  74.0  m  12?  66.64  58.3   13 324  82  95
   2024 04 21 19:30  07 16 04.62    +39 40 23.3   199913 1.0048  74.1  m  12?  67.26  59.2   11 323  82  95
   2024 04 21 19:40  07 16 55.06    +39 46 07.0   199728 1.0048  74.3  m  12?  67.92  60.0   10 321  82  95
   2024 04 21 19:50  07 17 46.52    +39 51 45.4   199548 1.0048  74.4  m  12?  68.63  60.9    9 320  82  95
   2024 04 21 20:00  07 18 39.03    +39 57 18.7   199372 1.0048  74.6  m  12?  69.38  61.7    7 319  82  95
   2024 04 21 20:10  07 19 32.61    +40 02 47.2   199199 1.0048  74.7  m  12?  70.19  62.5    6 318  82  95
   2024 04 21 20:20  07 20 27.29    +40 08 10.8   199029 1.0048  74.9  m  12?  71.03  63.3    4 317  82  95
   2024 04 21 20:30  07 21 23.10    +40 13 29.8   198862 1.0048  75.1  m  12?  71.92  64.0    3 316  82  95
   2024 04 21 20:40  07 22 20.05    +40 18 44.4   198697 1.0048  75.2  m  12?  72.84  64.8    1 315  82  95
   2024 04 21 20:50  07 23 18.16    +40 23 54.7   198535 1.0048  75.4  m  12?  73.80  65.5    0 315  82  95
   ................
   2024 04 22 16:50  11 04 19.02    +48 59 41.0   161976 1.0057 107.1 Cm  12? 112.22  90.9    6  28  62  98
   2024 04 22 17:00  11 06 12.74    +48 59 17.6   161638 1.0057 107.4 Nm  12? 111.71  91.6    7  27  62  98
   2024 04 22 17:10  11 08 05.90    +48 58 39.5   161306 1.0057 107.6 Nm  12? 111.22  92.4    8  26  62  98
   2024 04 22 17:20  11 09 58.50    +48 57 46.6   160978 1.0057 107.8 Nm  12? 110.78  93.2    9  25  62  98
   2024 04 22 17:30  11 11 50.55    +48 56 38.5   160655 1.0057 108.0 Am  12? 110.38  94.0   10  24  62  98
   2024 04 22 17:40  11 13 42.06    +48 55 15.0   160337 1.0057 108.2 Am  12? 110.03  94.8   11  23  61  98
   2024 04 22 17:50  11 15 33.05    +48 53 35.9   160024 1.0057 108.5 Am  12? 109.72  95.6   11  22  61  98
   2024 04 22 18:00  11 17 23.53    +48 51 41.0   159716 1.0057 108.7  m  12? 109.47  96.5   12  21  61  98
   2024 04 22 18:10  11 19 13.51    +48 49 30.0   159413 1.0057 108.9  m  12? 109.26  97.3   13  19  61  98
   2024 04 22 18:20  11 21 03.01    +48 47 02.7   159115 1.0057 109.2  m  12? 109.11  98.2   13  18  61  98
   2024 04 22 18:30  11 22 52.05    +48 44 18.9   158823 1.0057 109.4  m  12? 109.01  99.1   14  17  61  98
   2024 04 22 18:40  11 24 40.65    +48 41 18.5   158537 1.0057 109.6  m  12? 108.97 100.0   15  16  61  98
   2024 04 22 18:50  11 26 28.82    +48 38 01.2   158256 1.0057 109.8  m  12? 108.99 100.9   15  14  61  98
   2024 04 22 19:00  11 28 16.60    +48 34 27.0   157980 1.0057 110.1  m  12? 109.07 101.8   16  13  60  98
   2024 04 22 19:10  11 30 03.98    +48 30 35.6   157711 1.0058 110.3  m  12? 109.20 102.7   16  12  60  98
   2024 04 22 19:20  11 31 51.01    +48 26 27.0   157447 1.0058 110.5  m  12? 109.40 103.6   17  10  60  98
   2024 04 22 19:30  11 33 37.71    +48 22 01.0   157190 1.0058 110.8  m  12? 109.66 104.5   17   9  60  98
   2024 04 22 19:40  11 35 24.09    +48 17 17.6   156938 1.0058 111.0  m  12? 109.98 105.4   17   8  60  98
   2024 04 22 19:50  11 37 10.18    +48 12 16.5   156693 1.0058 111.3  m  12? 110.36 106.3   18   6  60  98
   2024 04 22 20:00  11 38 56.00    +48 06 57.8   156453 1.0058 111.5  m  12? 110.80 107.2   18   5  59  98
   2024 04 22 20:10  11 40 41.59    +48 01 21.4   156220 1.0058 111.8  m  12? 111.31 108.0   18   3  59  98
   2024 04 22 20:20  11 42 26.96    +47 55 27.3   155994 1.0058 112.0  m  12? 111.87 108.9   18   2  59  98
   2024 04 22 20:30  11 44 12.14    +47 49 15.4   155773 1.0058 112.3  m  12? 112.49 109.8   19   0  59  98
   2024 04 22 20:40  11 45 57.16    +47 42 45.7   155559 1.0058 112.5  t  12? 113.17 110.6   19 359  59  98
   2024 04 22 20:50  11 47 42.04    +47 35 58.2   155352 1.0058 112.8  m  12? 113.91 111.4   19 357  59  98
   2024 04 22 21:00  11 49 26.81    +47 28 52.9   155151 1.0058 113.1  e  12? 114.70 112.2   19 356  58  98
   2024 04 22 21:10  11 51 11.50    +47 21 29.9   154956 1.0058 113.3  m  12? 115.54 113.0   19 354  58  98
   2024 04 22 21:20  11 52 56.12    +47 13 49.2   154768 1.0058 113.6  m  12? 116.44 113.7   19 353  58  98
   2024 04 22 21:30  11 54 40.72    +47 05 50.8   154587 1.0058 113.9  m  12? 117.38 114.5   19 351  58  98
   2024 04 22 21:40  11 56 25.30    +46 57 34.9   154412 1.0059 114.1  m  12? 118.37 115.2   18 350  58  98
   2024 04 22 21:50  11 58 09.91    +46 49 01.6   154245 1.0059 114.4  m  12? 119.41 115.9   18 348  57  98
   2024 04 22 22:00  11 59 54.55    +46 40 10.9   154083 1.0059 114.7  m  12? 120.49 116.5   18 347  57  98
   2024 04 22 22:10  12 01 39.26    +46 31 03.0   153929 1.0059 115.0  m  12? 121.61 117.2   18 345  57  98
   2024 04 22 22:20  12 03 24.07    +46 21 38.0   153781 1.0059 115.3  m  12? 122.76 117.8   17 344  57  98
   2024 04 22 22:30  12 05 08.98    +46 11 56.1   153640 1.0059 115.6  m  12? 123.95 118.4   17 342  57  98
   2024 04 22 22:40  12 06 54.04    +46 01 57.4   153506 1.0059 115.9  m  12? 125.18 119.0   17 341  56  98
   2024 04 22 22:50  12 08 39.25    +45 51 42.2   153378 1.0059 116.2  m  12? 126.43 119.5   16 340  56  98
   2024 04 22 23:00  12 10 24.63    +45 41 10.6   153257 1.0059 116.5  m  12? 127.71 120.0   16 338  56  98
   2024 04 22 23:10  12 12 10.22    +45 30 22.9   153143 1.0059 116.8  m  12? 129.02 120.5   15 337  56  98
   2024 04 22 23:20  12 13 56.03    +45 19 19.2   153036 1.0059 117.1  m  12? 130.34 121.0   14 335  55  98
   2024 04 22 23:30  12 15 42.07    +45 07 59.9   152935 1.0059 117.4  m  12? 131.69 121.4   14 334  55  98
   2024 04 22 23:40  12 17 28.37    +44 56 25.1   152841 1.0059 117.7  m  12? 133.05 121.8   13 333  55  98
   2024 04 22 23:50  12 19 14.93    +44 44 35.2   152753 1.0059 118.1  m  12? 134.43 122.2   12 331  55  98
   2024 04 23 00:00  12 21 01.78    +44 32 30.3   152672 1.0059 118.4  m  12? 135.82 122.6   12 330  55  98
   2024 04 23 00:10  12 22 48.94    +44 20 10.9   152597 1.0059 118.7  m  12? 137.22 122.9   11 329  54  99
   2024 04 23 00:20  12 24 36.40    +44 07 37.1   152529 1.0060 119.0  m  12? 138.63 123.2   10 327  54  99
   2024 04 23 00:30  12 26 24.19    +43 54 49.3   152467 1.0060 119.4  m  12? 140.04 123.5    9 326  54  99
   2024 04 23 00:40  12 28 12.32    +43 41 47.8   152412 1.0060 119.7  m  12? 141.45 123.8    8 325  54  99
   2024 04 23 00:50  12 30 00.79    +43 28 32.9   152362 1.0060 120.0  m  12? 142.86 124.1    7 324  53  99
   2024 04 23 01:00  12 31 49.62    +43 15 05.0   152319 1.0060 120.4  m  12? 144.27 124.3    6 323  53  99
   2024 04 23 01:10  12 33 38.81    +43 01 24.3   152282 1.0060 120.7  m  12? 145.68 124.5    5 321  53  99
   2024 04 23 01:20  12 35 28.37    +42 47 31.3   152251 1.0060 121.1  m  12? 147.08 124.7    4 320  52  99
   2024 04 23 01:30  12 37 18.30    +42 33 26.3   152225 1.0060 121.4  m  12? 148.48 124.9    3 319  52  99
   2024 04 23 01:40  12 39 08.61    +42 19 09.6   152206 1.0060 121.8  m  12? 149.86 125.1    2 318  52  99
   2024 04 23 01:50  12 40 59.30    +42 04 41.5   152192 1.0060 122.1  m  12? 151.23 125.2    1 317  52  99
   2024 04 23 02:00  12 42 50.38    +41 50 02.6   152183 1.0060 122.5  m  12? 152.59 125.3    0 316  51  99
   ................
   2024 04 23 18:50  15 41 10.78    +13 12 08.3   151372 1.0065 144.9  r  13? 147.78 136.0    0  75  36  99
   2024 04 23 19:00  15 42 20.32    +12 54 20.8   151260 1.0065 144.9  m  13? 146.99 136.5    1  75  36  99
   2024 04 23 19:10  15 43 28.78    +12 36 30.2   151150 1.0065 144.9  m  13? 146.21 137.0    4  74  36  99
   2024 04 23 19:20  15 44 36.16    +12 18 36.6   151044 1.0065 144.9  m  13? 145.45 137.5    6  73  36  99
   2024 04 23 19:30  15 45 42.48    +12 00 40.0   150941 1.0065 145.0  m  13? 144.71 138.0    8  73  36  99
   2024 04 23 19:40  15 46 47.75    +11 42 40.4   150842 1.0065 145.0  m  13? 143.99 138.5   10  72  36  99
   2024 04 23 19:50  15 47 51.98    +11 24 37.7   150747 1.0065 145.0  m  13? 143.28 139.0   12  71  36  99
   2024 04 23 20:00  15 48 55.18    +11 06 32.1   150657 1.0065 145.0  m  13? 142.60 139.5   14  70  36  99
   2024 04 23 20:10  15 49 57.37    +10 48 23.5   150572 1.0065 145.0  m  13? 141.93 140.0   16  70  36  99
   2024 04 23 20:20  15 50 58.56    +10 30 11.9   150492 1.0065 145.1  m  13? 141.28 140.5   18  69  36  99
   2024 04 23 20:30  15 51 58.77    +10 11 57.5   150418 1.0065 145.1  m  13? 140.65 141.0   20  68  36  99
   2024 04 23 20:40  15 52 58.01    +09 53 40.3   150350 1.0065 145.1  m  13? 140.04 141.5   22  67  36  99
   2024 04 23 20:50  15 53 56.32    +09 35 20.4   150289 1.0065 145.1  m  13? 139.45 142.0   24  66  36  99
   2024 04 23 21:00  15 54 53.69    +09 16 57.8   150233 1.0065 145.1  m  13? 138.88 142.5   26  65  36  99
   2024 04 23 21:10  15 55 50.17    +08 58 32.7   150185 1.0065 145.1  m  13? 138.32 143.0   29  64  36  99
   2024 04 23 21:20  15 56 45.77    +08 40 05.1   150145 1.0065 145.1  m  13? 137.79 143.4   31  63  36  99
   2024 04 23 21:30  15 57 40.51    +08 21 35.2   150112 1.0065 145.2  m  13? 137.27 143.9   33  62  36  99
   2024 04 23 21:40  15 58 34.42    +08 03 03.1   150086 1.0065 145.2  m  13? 136.77 144.3   35  60  36  99
   2024 04 23 21:50  15 59 27.53    +07 44 28.9   150069 1.0065 145.2  m  13? 136.29 144.7   37  59  36  99
   2024 04 23 22:00  16 00 19.87    +07 25 52.9   150061 1.0065 145.2  m  13? 135.82 145.2   39  58  36  99
   2024 04 23 22:10  16 01 11.45    +07 07 15.1   150061 1.0065 145.2  m  13? 135.37 145.6   41  56  36  99
   2024 04 23 22:20  16 02 02.32    +06 48 35.7   150071 1.0065 145.2  m  13? 134.94 145.9   43  54  36  99
   2024 04 23 22:30  16 02 52.49    +06 29 54.9   150089 1.0065 145.2  m  13? 134.51 146.3   44  53  36  99
   2024 04 23 22:40  16 03 42.01    +06 11 12.9   150118 1.0065 145.2  m  13? 134.10 146.7   46  51  36  99
   2024 04 23 22:50  16 04 30.91    +05 52 29.9   150156 1.0065 145.2  m  13? 133.71 147.0   48  49  36  99
   2024 04 23 23:00  16 05 19.21    +05 33 46.1   150203 1.0065 145.2  m  13? 133.32 147.3   50  46  36  99
   2024 04 23 23:10  16 06 06.95    +05 15 01.7   150262 1.0065 145.2  m  13? 132.95 147.6   52  44  36  99
   2024 04 23 23:20  16 06 54.17    +04 56 17.0   150330 1.0065 145.2  m  13? 132.59 147.9   53  41  36  99
   2024 04 23 23:30  16 07 40.89    +04 37 32.1   150409 1.0065 145.2  m  13? 132.24 148.1   55  38  36  99
   2024 04 23 23:40  16 08 27.17    +04 18 47.2   150499 1.0065 145.2  m  13? 131.89 148.3   57  35  36  99
   2024 04 23 23:50  16 09 13.02    +04 00 02.7   150600 1.0066 145.2  m  13? 131.56 148.5   58  32  36  99
   2024 04 24 00:00  16 09 58.49    +03 41 18.7   150711 1.0066 145.2  m  13? 131.23 148.7   59  28  36  99
   2024 04 24 00:10  16 10 43.61    +03 22 35.6   150834 1.0066 145.2  m  13? 130.91 148.9   61  24  36  99
   2024 04 24 00:20  16 11 28.42    +03 03 53.5   150968 1.0066 145.2  m  13? 130.59 149.0   62  20  36  99
   2024 04 24 00:30  16 12 12.97    +02 45 12.7   151113 1.0066 145.2  m  13? 130.29 149.1   63  15  36  99
   2024 04 24 00:40  16 12 57.27    +02 26 33.5   151270 1.0066 145.1  m  13? 129.98 149.2   63  10  36  99
   2024 04 24 00:50  16 13 41.38    +02 07 56.0   151437 1.0066 145.1  m  13? 129.69 149.2   64   5  36  99
   2024 04 24 01:00  16 14 25.33    +01 49 20.7   151617 1.0066 145.1  t  13? 129.40 149.3   65 359  36  99
   2024 04 24 01:10  16 15 09.15    +01 30 47.6   151807 1.0066 145.1  m  13? 129.11 149.3   65 354  36  99
   2024 04 24 01:20  16 15 52.89    +01 12 17.1   152009 1.0066 145.0  e  13? 128.84 149.2   65 348  36  99
   2024 04 24 01:30  16 16 36.58    +00 53 49.4   152223 1.0066 145.0  m  13? 128.56 149.2   64 343  35  99
   2024 04 24 01:40  16 17 20.26    +00 35 24.7   152447 1.0066 145.0  m  13? 128.30 149.1   64 337  35  99
   2024 04 24 01:50  16 18 03.96    +00 17 03.3   152683 1.0066 144.9  m  13? 128.04 149.0   63 332  35  99
   2024 04 24 02:00  16 18 47.71    -00 01 14.5   152930 1.0066 144.9  m  13? 127.78 148.9   63 327  35  99
   2024 04 24 02:10  16 19 31.56    -00 19 28.6   153188 1.0066 144.8  m  13? 127.54 148.7   62 323  35  99
   2024 04 24 02:20  16 20 15.54    -00 37 38.8   153457 1.0066 144.8  m  13? 127.30 148.6   61 318  35  99
   2024 04 24 02:30  16 20 59.68    -00 55 44.7   153737 1.0066 144.7  m  13? 127.07 148.4   59 314  35  99
   2024 04 24 02:40  16 21 44.02    -01 13 46.3   154028 1.0066 144.7  m  13? 126.85 148.1   58 310  35  99
   2024 04 24 02:50  16 22 28.58    -01 31 43.2   154329 1.0066 144.6  m  13? 126.64 147.9   57 307  35  99
   2024 04 24 03:00  16 23 13.40    -01 49 35.4   154640 1.0066 144.6  m  13? 126.44 147.6   55 304  35  99
   2024 04 24 03:10  16 23 58.51    -02 07 22.6   154961 1.0066 144.5  m  13? 126.25 147.3   53 301  35  99
   2024 04 24 03:20  16 24 43.94    -02 25 04.7   155293 1.0066 144.4  m  13? 126.07 147.0   52 298  35  99
   2024 04 24 03:30  16 25 29.72    -02 42 41.4   155634 1.0066 144.3  m  13? 125.91 146.7   50 296  36  99
   2024 04 24 03:40  16 26 15.87    -03 00 12.7   155984 1.0066 144.2  m  13? 125.75 146.3   48 293  36  99
   2024 04 24 03:50  16 27 02.43    -03 17 38.3   156344 1.0066 144.2  m  13? 125.61 145.9   47 291  36  99
   2024 04 24 04:00  16 27 49.41    -03 34 58.3   156712 1.0066 144.1 Am  13? 125.49 145.6   45 289  36  99
   2024 04 24 04:10  16 28 36.84    -03 52 12.4   157089 1.0066 144.0 Am  13? 125.38 145.1   43 287  36  99
   2024 04 24 04:20  16 29 24.75    -04 09 20.5   157475 1.0066 143.9 Am  13? 125.29 144.7   41 285  36  99
   2024 04 24 04:30  16 30 13.15    -04 26 22.5   157868 1.0066 143.7 Nm  13? 125.21 144.3   39 284  36  99
   2024 04 24 04:40  16 31 02.07    -04 43 18.4   158269 1.0066 143.6 Nm  13? 125.15 143.8   37 282  36  99
   2024 04 24 04:50  16 31 51.53    -05 00 08.0   158678 1.0066 143.5 Cm  13? 125.11 143.4   35 280  36  99
   2024 04 24 05:00  16 32 41.54    -05 16 51.3   159094 1.0066 143.4 Cm  13? 125.09 142.9   33 279  36  99
   ................
   2024 04 24 20:10  18 15 18.88    -26 10 29.7   189028 1.0066 121.3  m  13? 112.00 133.4    0 118  48  99
   2024 04 24 20:20  18 16 18.72    -26 23 22.0   189138 1.0066 121.0  m  13? 111.07 133.8    2 117  48  99
   2024 04 24 20:30  18 17 17.82    -26 36 12.6   189247 1.0066 120.8  m  13? 110.13 134.1    3 117  48  99
   2024 04 24 20:40  18 18 16.17    -26 49 01.4   189357 1.0066 120.6  m  13? 109.18 134.5    5 116  48  99
   2024 04 24 20:50  18 19 13.77    -27 01 48.4   189467 1.0066 120.4  m  13? 108.22 134.8    7 116  49  99
   2024 04 24 21:00  18 20 10.61    -27 14 33.1   189578 1.0066 120.2  m  13? 107.24 135.2    9 115  49  99
   2024 04 24 21:10  18 21 06.70    -27 27 15.6   189689 1.0066 120.0  m  13? 106.26 135.6   11 115  49  99
   2024 04 24 21:20  18 22 02.01    -27 39 55.5   189802 1.0066 119.8  m  13? 105.27 135.9   13 114  49  99
   2024 04 24 21:30  18 22 56.57    -27 52 32.7   189917 1.0066 119.6  m  13? 104.27 136.3   15 114  49  99
   2024 04 24 21:40  18 23 50.36    -28 05 06.9   190034 1.0066 119.4  m  13? 103.26 136.6   17 113  49  99
   2024 04 24 21:50  18 24 43.39    -28 17 38.0   190153 1.0066 119.2  m  13? 102.24 136.9   19 113  49  99
   2024 04 24 22:00  18 25 35.66    -28 30 05.8   190274 1.0066 119.0  m  13? 101.21 137.3   21 112  50  99
   2024 04 24 22:10  18 26 27.17    -28 42 30.0   190399 1.0066 118.9  m  13? 100.18 137.6   23 112  50  99
   2024 04 24 22:20  18 27 17.93    -28 54 50.4   190527 1.0066 118.7  m  13?  99.14 137.9   25 112  50  99
   2024 04 24 22:30  18 28 07.94    -29 07 06.8   190658 1.0066 118.5  m  13?  98.10 138.3   27 111  50  99
   2024 04 24 22:40  18 28 57.22    -29 19 18.9   190793 1.0066 118.3  m  13?  97.06 138.6   29 111  50  99
   2024 04 24 22:50  18 29 45.77    -29 31 26.6   190932 1.0066 118.1  m  13?  96.01 138.9   31 111  50  99
   2024 04 24 23:00  18 30 33.59    -29 43 29.6   191076 1.0066 118.0  m  13?  94.95 139.2   33 111  50  99
   2024 04 24 23:10  18 31 20.71    -29 55 27.7   191224 1.0066 117.8  m  13?  93.90 139.4   35 111  50  99
   2024 04 24 23:20  18 32 07.14    -30 07 20.6   191377 1.0066 117.7  m  13?  92.84 139.7   37 110  51  99
   2024 04 24 23:30  18 32 52.88    -30 19 08.2   191535 1.0066 117.5  m  13?  91.78 140.0   39 110  51  99
   2024 04 24 23:40  18 33 37.96    -30 30 50.1   191699 1.0066 117.3  m  13?  90.73 140.2   41 110  51  99
   2024 04 24 23:50  18 34 22.39    -30 42 26.3   191868 1.0066 117.2  m  13?  89.67 140.4   43 110  51  98
   2024 04 25 00:00  18 35 06.18    -30 53 56.3   192043 1.0066 117.0  m  13?  88.61 140.6   45 111  51  98
   2024 04 25 00:10  18 35 49.37    -31 05 20.2   192224 1.0066 116.9  m  13?  87.56 140.8   47 111  51  98
   2024 04 25 00:20  18 36 31.96    -31 16 37.5   192412 1.0066 116.7  m  13?  86.51 141.0   49 111  51  98
   2024 04 25 00:30  18 37 13.98    -31 27 48.2   192606 1.0066 116.6  m  13?  85.47 141.1   51 111  51  98
   2024 04 25 00:40  18 37 55.45    -31 38 52.0   192807 1.0066 116.5  m  13?  84.43 141.2   53 112  51  98
   2024 04 25 00:50  18 38 36.40    -31 49 48.7   193014 1.0066 116.3  m  13?  83.40 141.3   55 112  51  98
   2024 04 25 01:00  18 39 16.84    -32 00 38.2   193229 1.0066 116.2  m  13?  82.37 141.4   57 113  51  98
   2024 04 25 01:10  18 39 56.82    -32 11 20.2   193451 1.0066 116.0  m  13?  81.35 141.5   59 114  52  98
   2024 04 25 01:20  18 40 36.34    -32 21 54.5   193680 1.0066 115.9  m  13?  80.35 141.5   61 115  52  98
   2024 04 25 01:30  18 41 15.45    -32 32 21.1   193917 1.0066 115.8  m  13?  79.35 141.5   63 116  52  98
   2024 04 25 01:40  18 41 54.16    -32 42 39.7   194161 1.0066 115.6  m  13?  78.37 141.4   65 118  52  98
   2024 04 25 01:50  18 42 32.51    -32 52 50.1   194413 1.0066 115.5  m  13?  77.40 141.4   67 120  52  98
   2024 04 25 02:00  18 43 10.54    -33 02 52.3   194673 1.0066 115.4  m  13?  76.44 141.3   68 122  52  98
   2024 04 25 02:10  18 43 48.26    -33 12 46.2   194941 1.0066 115.3  m  13?  75.50 141.1   70 125  52  98
   2024 04 25 02:20  18 44 25.71    -33 22 31.5   195216 1.0066 115.1  m  13?  74.58 141.0   72 128  52  98
   2024 04 25 02:30  18 45 02.93    -33 32 08.2   195500 1.0066 115.0  m  13?  73.68 140.8   73 132  52  98
   2024 04 25 02:40  18 45 39.94    -33 41 36.2   195791 1.0066 114.9  m  13?  72.80 140.5   75 137  52  98
   2024 04 25 02:50  18 46 16.79    -33 50 55.3   196091 1.0066 114.8  m  13?  71.94 140.2   76 143  52  98
   2024 04 25 03:00  18 46 53.50    -34 00 05.6   196399 1.0066 114.6  m  13?  71.11 139.9   77 151  52  98
   2024 04 25 03:10  18 47 30.10    -34 09 06.9   196715 1.0066 114.5  m  13?  70.30 139.6   78 160  52  98
   2024 04 25 03:20  18 48 06.64    -34 17 59.3   197039 1.0066 114.4  m  13?  69.52 139.2   78 169  53  98
   2024 04 25 03:30  18 48 43.15    -34 26 42.6   197370 1.0066 114.3  e  13?  68.77 138.8   78 179  53  98
   2024 04 25 03:40  18 49 19.65    -34 35 16.8   197710 1.0066 114.2  t  13?  68.05 138.3   78 189  53  98
   2024 04 25 03:50  18 49 56.19    -34 43 41.9   198058 1.0066 114.0  m  13?  67.37 137.8   77 198  53  98
   2024 04 25 04:00  18 50 32.81    -34 51 57.9   198414 1.0066 113.9 Am  13?  66.72 137.2   76 206  53  98
   2024 04 25 04:10  18 51 09.52    -35 00 04.9   198777 1.0065 113.8 Am  13?  66.10 136.7   75 212  53  98
   2024 04 25 04:20  18 51 46.37    -35 08 02.8   199149 1.0065 113.7 Am  13?  65.53 136.0   74 217  53  98
   2024 04 25 04:30  18 52 23.40    -35 15 51.7   199527 1.0065 113.6 Nm  13?  64.99 135.4   72 222  53  98
   2024 04 25 04:40  18 53 00.63    -35 23 31.6   199914 1.0065 113.4 Nm  13?  64.49 134.7   71 225  53  98
   2024 04 25 04:50  18 53 38.09    -35 31 02.6   200307 1.0065 113.3 Cm  13?  64.04 134.0   69 228  53  98
   2024 04 25 05:00  18 54 15.83    -35 38 24.8   200708 1.0065 113.2 Cm  13?  63.63 133.3   67 231  53  98
   ................
   2024 04 25 21:40  20 37 37.24    -43 48 16.7   239193 1.0064  95.1  m  12?  75.71 116.5    0 138  63  96
   2024 04 25 21:50  20 38 39.35    -43 53 57.2   239348 1.0064  94.9  m  12?  74.93 116.8    1 137  63  96
   2024 04 25 22:00  20 39 40.75    -43 59 37.6   239500 1.0064  94.8  m  12?  74.14 117.1    2 137  63  96
   2024 04 25 22:10  20 40 41.42    -44 05 17.7   239650 1.0064  94.6  m  12?  73.33 117.4    4 136  63  96
   2024 04 25 22:20  20 41 41.36    -44 10 57.4   239798 1.0064  94.5  m  12?  72.51 117.7    5 135  63  96
   2024 04 25 22:30  20 42 40.55    -44 16 36.4   239944 1.0064  94.3  m  12?  71.67 118.0    7 135  63  96
   2024 04 25 22:40  20 43 38.98    -44 22 14.6   240089 1.0064  94.2  m  12?  70.81 118.3    8 134  63  96
   2024 04 25 22:50  20 44 36.65    -44 27 51.7   240233 1.0064  94.1  m  12?  69.95 118.6   10 134  64  96
   2024 04 25 23:00  20 45 33.54    -44 33 27.6   240375 1.0064  93.9  m  12?  69.07 118.8   11 133  64  96
   2024 04 25 23:10  20 46 29.65    -44 39 02.0   240518 1.0064  93.8  m  12?  68.18 119.1   13 132  64  96
   2024 04 25 23:20  20 47 24.97    -44 44 34.7   240660 1.0064  93.7  m  12?  67.27 119.4   15 132  64  96
   2024 04 25 23:30  20 48 19.50    -44 50 05.5   240801 1.0064  93.5  m  12?  66.36 119.6   16 132  64  96
   2024 04 25 23:40  20 49 13.24    -44 55 34.2   240943 1.0064  93.4  m  12?  65.44 119.8   18 131  64  95
   2024 04 25 23:50  20 50 06.19    -45 01 00.5   241086 1.0064  93.3  m  12?  64.51 120.1   19 131  64  95
   2024 04 26 00:00  20 50 58.34    -45 06 24.3   241229 1.0064  93.2  m  12?  63.57 120.3   21 131  64  95
   2024 04 26 00:10  20 51 49.69    -45 11 45.2   241373 1.0064  93.1  m  12?  62.62 120.5   23 130  64  95
   2024 04 26 00:20  20 52 40.25    -45 17 03.2   241518 1.0064  93.0  m  12?  61.67 120.7   24 130  64  95
   2024 04 26 00:30  20 53 30.02    -45 22 17.9   241664 1.0063  92.8  m  12?  60.72 120.8   26 130  64  95
   2024 04 26 00:40  20 54 19.00    -45 27 29.2   241812 1.0063  92.7  m  12?  59.76 121.0   27 130  65  95
   2024 04 26 00:50  20 55 07.20    -45 32 36.8   241962 1.0063  92.6  m  12?  58.80 121.1   29 130  65  95
   2024 04 26 01:00  20 55 54.63    -45 37 40.5   242114 1.0063  92.5  m  12?  57.84 121.2   31 130  65  95
   2024 04 26 01:10  20 56 41.29    -45 42 40.0   242269 1.0063  92.4  m  12?  56.88 121.3   32 130  65  95
   2024 04 26 01:20  20 57 27.20    -45 47 35.3   242426 1.0063  92.3  m  12?  55.91 121.4   34 130  65  95
   2024 04 26 01:30  20 58 12.37    -45 52 25.9   242586 1.0063  92.2  m  12?  54.95 121.5   36 130  65  95
   2024 04 26 01:40  20 58 56.80    -45 57 11.8   242749 1.0063  92.1  m  12?  54.00 121.5   37 130  65  95
   2024 04 26 01:50  20 59 40.51    -46 01 52.8   242916 1.0063  92.1  m  12?  53.05 121.5   39 131  65  95
   2024 04 26 02:00  21 00 23.52    -46 06 28.6   243085 1.0063  92.0  m  12?  52.10 121.4   40 131  65  95
   2024 04 26 02:10  21 01 05.85    -46 10 59.0   243259 1.0063  91.9  m  12?  51.16 121.4   42 132  65  95
   2024 04 26 02:20  21 01 47.50    -46 15 23.8   243437 1.0063  91.8  m  12?  50.23 121.2   43 132  65  95
   2024 04 26 02:30  21 02 28.51    -46 19 42.9   243618 1.0063  91.7  m  12?  49.31 121.1   45 133  65  95
   2024 04 26 02:40  21 03 08.88    -46 23 56.0   243804 1.0063  91.6  m  12?  48.41 120.9   47 133  65  95
   2024 04 26 02:50  21 03 48.64    -46 28 03.0   243994 1.0063  91.5  m  12?  47.51 120.7   48 134  65  95
   2024 04 26 03:00  21 04 27.82    -46 32 03.7   244189 1.0063  91.5  m  12?  46.63 120.4   50 135  65  95
   2024 04 26 03:10  21 05 06.44    -46 35 58.0   244389 1.0063  91.4  m  12?  45.77 120.1   51 136  65  95
   2024 04 26 03:20  21 05 44.51    -46 39 45.7   244594 1.0063  91.3  m  12?  44.93 119.8   52 138  65  95
   2024 04 26 03:30  21 06 22.07    -46 43 26.7   244804 1.0063  91.2  m  12?  44.11 119.4   54 139  66  95
   2024 04 26 03:40  21 06 59.15    -46 47 00.7   245019 1.0063  91.2  m  12?  43.30 118.9   55 140  66  95
   2024 04 26 03:50  21 07 35.76    -46 50 27.8   245239 1.0063  91.1  m  12?  42.53 118.4   57 142  66  95
   2024 04 26 04:00  21 08 11.95    -46 53 47.7   245465 1.0063  91.0 Am  12?  41.78 117.8   58 144  66  95
   2024 04 26 04:10  21 08 47.73    -46 57 00.4   245697 1.0063  90.9 Am  12?  41.06 117.2   59 146  66  95
   2024 04 26 04:20  21 09 23.14    -47 00 05.8   245934 1.0063  90.9 Am  12?  40.36 116.6   60 148  66  95
   2024 04 26 04:30  21 09 58.21    -47 03 03.7   246177 1.0063  90.8 Nm  12?  39.70 115.8   61 151  66  95
   2024 04 26 04:40  21 10 32.97    -47 05 54.1   246426 1.0063  90.7 Nm  12?  39.08 115.1   62 154  66  95
   2024 04 26 04:50  21 11 07.45    -47 08 37.0   246681 1.0063  90.6 Cm  12?  38.49 114.2   63 157  66  95
   2024 04 26 05:00  21 11 41.69    -47 11 12.2   246941 1.0063  90.6 Cm  12?  37.94 113.3   64 160  66  95
   ................
   2024 04 26 23:30  22 46 44.17    -47 00 35.8   282777 1.0061  76.9  m  13?  53.47  98.8    0 142  72  91
   2024 04 26 23:40  22 47 35.47    -47 01 58.6   282876 1.0061  76.8  m  13?  52.75  99.0    1 141  72  90
   2024 04 26 23:50  22 48 26.06    -47 03 22.5   282972 1.0061  76.7  m  13?  52.02  99.3    2 141  72  90
   2024 04 27 00:00  22 49 15.93    -47 04 47.3   283065 1.0061  76.6  m  13?  51.28  99.5    3 140  72  90
   2024 04 27 00:10  22 50 05.06    -47 06 12.8   283155 1.0061  76.6  m  13?  50.52  99.7    5 139  72  90
   2024 04 27 00:20  22 50 53.44    -47 07 38.9   283242 1.0061  76.5  m  13?  49.75  99.9    6 138  72  90
   2024 04 27 00:30  22 51 41.07    -47 09 05.3   283328 1.0061  76.4  m  13?  48.97 100.1    7 138  72  90
   2024 04 27 00:40  22 52 27.94    -47 10 31.9   283411 1.0061  76.3  m  13?  48.18 100.2    9 137  72  90
   2024 04 27 00:50  22 53 14.04    -47 11 58.4   283492 1.0061  76.2  m  13?  47.38 100.4   10 136  73  90
   2024 04 27 01:00  22 53 59.36    -47 13 24.6   283572 1.0061  76.1  m  13?  46.58 100.5   12 136  73  90
   2024 04 27 01:10  22 54 43.90    -47 14 50.5   283651 1.0061  76.1  m  13?  45.76 100.7   13 135  73  90
   2024 04 27 01:20  22 55 27.67    -47 16 15.7   283728 1.0061  76.0  m  13?  44.95 100.8   15 135  73  90
   2024 04 27 01:30  22 56 10.64    -47 17 40.0   283805 1.0061  75.9  m  13?  44.12 100.9   16 134  73  90
   2024 04 27 01:40  22 56 52.83    -47 19 03.3   283881 1.0061  75.8  m  13?  43.30 100.9   18 134  73  90
   2024 04 27 01:50  22 57 34.23    -47 20 25.4   283957 1.0061  75.8  m  13?  42.47 100.9   19 133  73  90
   2024 04 27 02:00  22 58 14.84    -47 21 46.0   284034 1.0061  75.7  m  13?  41.64 100.9   21 133  73  90
   2024 04 27 02:10  22 58 54.68    -47 23 04.9   284110 1.0061  75.6  m  13?  40.81 100.9   23 133  73  90
   2024 04 27 02:20  22 59 33.73    -47 24 22.0   284187 1.0061  75.6  m  13?  39.98 100.9   24 133  73  90
   2024 04 27 02:30  23 00 12.00    -47 25 36.9   284265 1.0061  75.5  m  13?  39.15 100.8   26 132  73  90
   2024 04 27 02:40  23 00 49.51    -47 26 49.6   284344 1.0061  75.4  m  13?  38.33 100.6   27 132  73  90
   2024 04 27 02:50  23 01 26.25    -47 27 59.8   284425 1.0061  75.4  m  13?  37.51 100.5   29 132  73  90
   2024 04 27 03:00  23 02 02.25    -47 29 07.3   284507 1.0061  75.3  m  13?  36.70 100.3   30 132  73  90
   2024 04 27 03:10  23 02 37.49    -47 30 11.9   284590 1.0061  75.3  m  13?  35.90 100.0   32 132  73  90
   2024 04 27 03:20  23 03 12.01    -47 31 13.3   284677 1.0061  75.2  m  13?  35.11  99.8   34 132  73  90
   2024 04 27 03:30  23 03 45.80    -47 32 11.5   284765 1.0061  75.1  m  13?  34.33  99.4   35 132  73  90
   2024 04 27 03:40  23 04 18.88    -47 33 06.3   284856 1.0061  75.1  m  13?  33.56  99.0   37 132  73  90
   2024 04 27 03:50  23 04 51.27    -47 33 57.3   284950 1.0061  75.0  m  13?  32.81  98.6   38 133  73  90
   2024 04 27 04:00  23 05 22.99    -47 34 44.5   285047 1.0061  75.0 Am  13?  32.07  98.1   40 133  73  90
   2024 04 27 04:10  23 05 54.04    -47 35 27.6   285148 1.0061  74.9 Am  13?  31.35  97.5   42 133  73  90
   2024 04 27 04:20  23 06 24.45    -47 36 06.6   285252 1.0061  74.9 Am  13?  30.66  96.8   43 134  73  90
   2024 04 27 04:30  23 06 54.23    -47 36 41.1   285359 1.0061  74.8 Nm  13?  29.99  96.1   45 134  74  90
   2024 04 27 04:40  23 07 23.41    -47 37 11.1   285471 1.0061  74.8 Nm  13?  29.34  95.4   46 135  74  90
   2024 04 27 04:50  23 07 52.01    -47 37 36.4   285587 1.0060  74.7 Cm  13?  28.72  94.5   48 136  74  90
   2024 04 27 05:00  23 08 20.05    -47 37 56.8   285708 1.0060  74.7 Cm  13?  28.12  93.6   49 137  74  90
   ................
   

Chandra Observatory (JPL-ID: -151)

   Date (UTC) HH:MM   RA              Dec         delta   r     elong SM  mag  '/hr    PA   alt  az moo ill
   ---- -- -- -----  -------------   -----------  ------ ------ ----- --  --- ------ ------ --- --- --- ---
   2024 04 14 00:00  17 28 06.04    +41 33 42.0   120183 1.0032 105.3     14?  32.80  77.8   13  31 109  31
   2024 04 14 00:10  17 28 33.95    +41 34 45.5   120715 1.0032 105.2     14?  31.13  79.0   14  30 109  31
   2024 04 14 00:20  17 29 00.56    +41 35 39.1   121243 1.0032 105.2     14?  29.54  80.3   16  28 109  31
   2024 04 14 00:30  17 29 25.93    +41 36 22.6   121769 1.0032 105.1     14?  28.05  81.9   17  27 109  31
   2024 04 14 00:40  17 29 50.14    +41 36 56.0   122292 1.0032 105.0     14?  26.66  83.8   18  25 109  31
   2024 04 14 00:50  17 30 13.24    +41 37 18.9   122813 1.0032 105.0     14?  25.38  85.8   19  24 109  32
   2024 04 14 01:00  17 30 35.31    +41 37 31.4   123333 1.0032 104.9     14?  24.21  88.1   19  22 109  32
   2024 04 14 01:10  17 30 56.43    +41 37 33.2   123850 1.0032 104.8     14?  23.16  90.7   20  20 109  32
   2024 04 14 01:20  17 31 16.65    +41 37 24.4   124367 1.0032 104.8     14?  22.25  93.5   21  19 109  32
   2024 04 14 01:30  17 31 36.05    +41 37 04.8   124882 1.0032 104.7     14?  21.47  96.5   22  17 109  32
   2024 04 14 01:40  17 31 54.70    +41 36 34.3   125396 1.0032 104.7     14?  20.84  99.7   22  15 109  32
   2024 04 14 01:50  17 32 12.68    +41 35 53.1   125910 1.0032 104.7     14?  20.35 103.0   23  13 109  32
   2024 04 14 02:00  17 32 30.04    +41 35 00.9   126423 1.0032 104.6     14?  20.01 106.5   23  11 109  32
   2024 04 14 02:10  17 32 46.87    +41 33 57.8   126936 1.0032 104.6     14?  19.83 110.0   24   9 109  32
   2024 04 14 02:20  17 33 03.23    +41 32 43.9   127448 1.0032 104.6     14?  19.79 113.4   24   7 109  32
   2024 04 14 02:30  17 33 19.19    +41 31 19.2   127961 1.0032 104.5     14?  19.88 116.7   24   5 109  32
   2024 04 14 02:40  17 33 34.82    +41 29 43.8   128473 1.0032 104.5     14?  20.11 119.9   25   3 109  33
   2024 04 14 02:50  17 33 50.18    +41 27 57.6   128985 1.0032 104.5     14?  20.46 122.8   25   1 109  33
   2024 04 14 03:00  17 34 05.36    +41 26 00.9   129498 1.0032 104.4  t  14?  20.91 125.5   25 359 109  33
   2024 04 14 03:10  17 34 20.41    +41 23 53.7   130011 1.0032 104.4  e  14?  21.45 127.9   25 357 109  33
   2024 04 14 03:20  17 34 35.39    +41 21 36.3   130525 1.0032 104.4     14?  22.08 130.0   25 355 109  33
   2024 04 14 03:30  17 34 50.38    +41 19 08.6   131039 1.0032 104.4     14?  22.78 131.8   25 353 109  33
   2024 04 14 03:40  17 35 05.44    +41 16 31.0   131553 1.0033 104.4     14?  23.54 133.4   24 351 109  33
   2024 04 14 03:50  17 35 20.62    +41 13 43.6   132068 1.0033 104.3     14?  24.35 134.8   24 349 109  33
   2024 04 14 04:00  17 35 35.98    +41 10 46.6   132584 1.0033 104.3 A   14?  25.21 135.9   24 347 109  33
   2024 04 14 04:10  17 35 51.59    +41 07 40.3   133100 1.0033 104.3 A   14?  26.10 136.8   23 345 109  33
   2024 04 14 04:20  17 36 07.50    +41 04 24.9   133616 1.0033 104.3 N   14?  27.02 137.5   23 343 109  34
   2024 04 14 04:30  17 36 23.77    +41 01 00.5   134133 1.0033 104.3 N   14?  27.97 138.0   22 341 109  34
   2024 04 14 04:40  17 36 40.44    +40 57 27.6   134650 1.0033 104.2 N   14?  28.94 138.4   21 340 109  34
   2024 04 14 04:50  17 36 57.57    +40 53 46.4   135167 1.0033 104.2 C   14?  29.93 138.6   21 338 109  34
   2024 04 14 05:00  17 37 15.21    +40 49 57.2   135685 1.0033 104.2 C   14?  30.92 138.7   20 336 109  34
   ................
   2024 04 14 23:40  19 01 28.13    +36 13 51.4   149017 1.0033  90.5     14?  31.52  82.8    0  49 115  41
   2024 04 14 23:50  19 01 53.47    +36 14 28.3   148613 1.0033  90.4     14?  30.23  83.1    2  48 115  41
   2024 04 15 00:00  19 02 17.77    +36 15 01.9   148207 1.0033  90.4     14?  28.96  83.5    4  47 115  41
   2024 04 15 00:10  19 02 41.06    +36 15 31.8   147798 1.0033  90.3     14?  27.70  84.0    5  46 115  41
   2024 04 15 00:20  19 03 03.34    +36 15 57.7   147387 1.0033  90.2     14?  26.45  84.7    7  45 115  41
   2024 04 15 00:30  19 03 24.64    +36 16 19.2   146974 1.0033  90.2     14?  25.24  85.5    8  44 115  41
   2024 04 15 00:40  19 03 44.96    +36 16 36.0   146559 1.0033  90.1     14?  24.04  86.4   10  42 115  41
   2024 04 15 00:50  19 04 04.34    +36 16 47.6   146143 1.0033  90.0     14?  22.88  87.6   11  41 115  41
   2024 04 15 01:00  19 04 22.79    +36 16 53.9   145726 1.0033  90.0     14?  21.76  88.9   13  40 116  41
   2024 04 15 01:10  19 04 40.34    +36 16 54.4   145308 1.0033  89.9     14?  20.69  90.5   14  38 116  42
   2024 04 15 01:20  19 04 57.01    +36 16 48.9   144890 1.0033  89.9     14?  19.67  92.4   16  37 116  42
   2024 04 15 01:30  19 05 12.84    +36 16 36.9   144471 1.0033  89.8     14?  18.71  94.5   17  35 116  42
   2024 04 15 01:40  19 05 27.86    +36 16 18.1   144052 1.0033  89.8     14?  17.82  97.0   18  34 116  42
   2024 04 15 01:50  19 05 42.09    +36 15 52.3   143633 1.0033  89.7     14?  17.01  99.8   19  32 116  42
   2024 04 15 02:00  19 05 55.58    +36 15 19.2   143215 1.0033  89.7     14?  16.30 102.9   21  31 116  42
   2024 04 15 02:10  19 06 08.36    +36 14 38.3   142797 1.0033  89.7     14?  15.70 106.4   22  29 116  42
   2024 04 15 02:20  19 06 20.48    +36 13 49.6   142380 1.0033  89.6     14?  15.21 110.1   23  27 116  42
   2024 04 15 02:30  19 06 31.96    +36 12 52.6   141964 1.0033  89.6     14?  14.86 114.1   24  25 116  42
   2024 04 15 02:40  19 06 42.86    +36 11 47.1   141549 1.0033  89.6     14?  14.63 118.3   25  23 116  42
   2024 04 15 02:50  19 06 53.22    +36 10 32.8   141135 1.0033  89.5     14?  14.55 122.5   26  21 116  42
   2024 04 15 03:00  19 07 03.09    +36 09 09.6   140723 1.0033  89.5     14?  14.60 126.8   27  19 116  43
   2024 04 15 03:10  19 07 12.50    +36 07 37.1   140312 1.0033  89.5     14?  14.80 130.8   27  17 116  43
   2024 04 15 03:20  19 07 21.53    +36 05 55.2   139902 1.0033  89.5     14?  15.12 134.7   28  15 116  43
   2024 04 15 03:30  19 07 30.21    +36 04 03.7   139495 1.0033  89.5     14?  15.57 138.2   29  13 116  43
   2024 04 15 03:40  19 07 38.59    +36 02 02.4   139089 1.0033  89.4     14?  16.12 141.4   29  11 116  43
   2024 04 15 03:50  19 07 46.74    +35 59 51.0   138685 1.0033  89.4     14?  16.77 144.2   30   8 116  43
   2024 04 15 04:00  19 07 54.70    +35 57 29.6   138283 1.0033  89.4 A   14?  17.51 146.6   30   6 116  43
   2024 04 15 04:10  19 08 02.53    +35 54 57.9   137883 1.0033  89.4 A   14?  18.32 148.7   30   4 116  43
   2024 04 15 04:20  19 08 10.29    +35 52 15.8   137485 1.0033  89.4 N   14?  19.20 150.4   30   1 116  43
   2024 04 15 04:30  19 08 18.04    +35 49 23.2   137088 1.0033  89.4 Nt  14?  20.13 151.8   30 359 116  43
   2024 04 15 04:40  19 08 25.83    +35 46 20.1   136694 1.0033  89.4 Ne  14?  21.11 153.0   30 357 116  44
   2024 04 15 04:50  19 08 33.71    +35 43 06.4   136302 1.0033  89.3 C   14?  22.14 153.8   30 354 116  44
   2024 04 15 05:00  19 08 41.76    +35 39 42.0   135911 1.0033  89.3 C   14?  23.20 154.5   30 352 116  44
   ................
   2024 04 16 02:10  12 04 47.96    +34 14 29.5    23535 1.0037 130.4     11? 1903.5  68.2    0 308  51  52
   2024 04 16 02:20  12 26 37.15    +35 56 07.0    25900 1.0037 131.0     11? 1552.4  70.3    1 310  55  52
   2024 04 16 02:30  12 45 11.44    +37 12 00.5    28221 1.0037 131.1     12? 1295.1  72.2    2 312  58  52
   2024 04 16 02:40  13 01 13.92    +38 09 43.0    30492 1.0037 130.9     12? 1101.3  74.0    3 314  61  52
   2024 04 16 02:50  13 15 15.92    +38 54 14.2    32712 1.0037 130.6     12? 951.69  75.7    3 315  64  52
   2024 04 16 03:00  13 27 40.71    +39 28 57.6    34879 1.0037 130.3  e  12? 833.80  77.2    3 315  66  52
   2024 04 16 03:10  13 38 45.89    +39 56 15.3    36998 1.0037 129.9     12? 739.18  78.6    3 316  68  52
   2024 04 16 03:20  13 48 45.05    +40 17 48.5    39068 1.0037 129.4     12? 662.02  79.9    3 316  69  53
   2024 04 16 03:30  13 57 48.81    +40 34 51.3    41093 1.0038 129.0     12? 598.23  81.2    2 316  71  53
   2024 04 16 03:40  14 06 05.63    +40 48 18.6    43075 1.0038 128.6     12? 544.86  82.4    2 316  72  53
   2024 04 16 03:50  14 13 42.32    +40 58 51.9    45016 1.0038 128.1     12? 499.74  83.5    2 316  73  53
   2024 04 16 04:00  14 20 44.40    +41 07 03.4    46919 1.0038 127.7 A   13? 461.23  84.6    1 316  75  53
   2024 04 16 04:10  14 27 16.44    +41 13 17.9    48785 1.0038 127.3 A   13? 428.09  85.6    0 316  76  53
   2024 04 16 04:20  14 33 22.23    +41 17 55.3    50617 1.0038 126.9 N   13? 399.36  86.5    0 315  77  53
   2024 04 16 04:30  14 39 04.94    +41 21 11.2    52416 1.0038 126.5 N   13? 374.29  87.4    0 315  77  53
   ................
   2024 04 16 22:40  18 03 59.14    +39 39 01.6   142967 1.0040 101.1  m  14?  34.21  73.3    0  46 106  60
   2024 04 16 22:50  18 04 26.87    +39 40 36.8   143137 1.0040 101.1  m  14?  32.62  73.2    1  45 106  60
   2024 04 16 23:00  18 04 53.30    +39 42 07.6   143303 1.0040 101.0  m  14?  31.05  73.3    3  44 106  60
   2024 04 16 23:10  18 05 18.45    +39 43 33.7   143466 1.0040 100.9  m  14?  29.50  73.4    4  42 106  60
   2024 04 16 23:20  18 05 42.36    +39 44 54.7   143627 1.0040 100.8  m  14?  27.98  73.6    5  41 106  60
   2024 04 16 23:30  18 06 05.05    +39 46 10.4   143786 1.0040 100.7  m  14?  26.49  73.9    7  40 106  60
   2024 04 16 23:40  18 06 26.55    +39 47 20.3   143943 1.0040 100.7     14?  25.03  74.3    8  39 106  60
   2024 04 16 23:50  18 06 46.90    +39 48 24.3   144097 1.0040 100.6     14?  23.60  74.9   10  38 106  60
   2024 04 17 00:00  18 07 06.13    +39 49 21.9   144251 1.0040 100.5     14?  22.21  75.7   11  36 106  60
   2024 04 17 00:10  18 07 24.29    +39 50 12.9   144403 1.0040 100.5     14?  20.86  76.6   12  35 106  61
   2024 04 17 00:20  18 07 41.41    +39 50 57.0   144555 1.0040 100.4     14?  19.56  77.8   14  34 106  61
   2024 04 17 00:30  18 07 57.54    +39 51 33.9   144706 1.0040 100.4     14?  18.32  79.3   15  32 106  61
   2024 04 17 00:40  18 08 12.71    +39 52 03.5   144857 1.0040 100.3     14?  17.13  81.2   16  31 106  61
   2024 04 17 00:50  18 08 26.98    +39 52 25.3   145008 1.0040 100.3     14?  16.02  83.4   17  29 106  61
   2024 04 17 01:00  18 08 40.38    +39 52 39.3   145159 1.0040 100.3     14?  14.99  86.0   18  27 106  61
   2024 04 17 01:10  18 08 52.97    +39 52 45.1   145310 1.0040 100.2     14?  14.05  89.1   19  26 106  61
   2024 04 17 01:20  18 09 04.80    +39 52 42.6   145463 1.0040 100.2     14?  13.21  92.8   20  24 106  61
   2024 04 17 01:30  18 09 15.92    +39 52 31.5   145616 1.0040 100.2     14?  12.50  96.9   21  22 106  61
   2024 04 17 01:40  18 09 26.37    +39 52 11.8   145770 1.0040 100.1     14?  11.92 101.5   22  20 106  61
   2024 04 17 01:50  18 09 36.22    +39 51 43.1   145925 1.0040 100.1     14?  11.50 106.5   23  19 106  61
   2024 04 17 02:00  18 09 45.51    +39 51 05.5   146082 1.0040 100.1     14?  11.23 111.9   24  17 106  61
   2024 04 17 02:10  18 09 54.30    +39 50 18.7   146241 1.0040 100.1     14?  11.12 117.3   24  15 106  61
   2024 04 17 02:20  18 10 02.65    +39 49 22.7   146401 1.0040 100.1     14?  11.18 122.7   25  13 106  62
   2024 04 17 02:30  18 10 10.62    +39 48 17.3   146563 1.0040 100.1     14?  11.39 127.7   25  11 106  62
   2024 04 17 02:40  18 10 18.25    +39 47 02.6   146727 1.0040 100.0     14?  11.73 132.4   26   9 106  62
   2024 04 17 02:50  18 10 25.61    +39 45 38.4   146894 1.0040 100.0     14?  12.20 136.6   26   7 106  62
   2024 04 17 03:00  18 10 32.76    +39 44 04.7   147062 1.0040 100.0     14?  12.77 140.2   26   4 106  62
   2024 04 17 03:10  18 10 39.74    +39 42 21.4   147233 1.0040 100.0     14?  13.43 143.3   26   2 106  62
   2024 04 17 03:20  18 10 46.63    +39 40 28.7   147406 1.0040 100.0     14?  14.16 145.8   27   0 106  62
   2024 04 17 03:30  18 10 53.47    +39 38 26.6   147581 1.0040 100.0  t  14?  14.95 147.9   27 358 106  62
   2024 04 17 03:40  18 11 00.33    +39 36 15.0   147759 1.0040 100.0     14?  15.78 149.5   27 356 106  62
   2024 04 17 03:50  18 11 07.26    +39 33 54.0   147939 1.0040 100.0     14?  16.65 150.8   26 354 106  62
   2024 04 17 04:00  18 11 14.31    +39 31 23.8   148121 1.0040 100.0 A   14?  17.55 151.7   26 352 106  62
   2024 04 17 04:10  18 11 21.55    +39 28 44.4   148306 1.0040 100.0 A   14?  18.47 152.4   26 350 106  63
   2024 04 17 04:20  18 11 29.02    +39 25 55.9   148493 1.0040 100.0 N   14?  19.41 152.8   25 347 106  63
   2024 04 17 04:30  18 11 36.78    +39 22 58.5   148682 1.0040 100.0 N   14?  20.37 153.0   25 345 106  63
   2024 04 17 04:40  18 11 44.88    +39 19 52.4   148874 1.0040 100.0 N   14?  21.34 153.0   24 343 106  63
   2024 04 17 04:50  18 11 53.37    +39 16 37.6   149067 1.0040 100.0 C   14?  22.32 152.8   24 341 106  63
   2024 04 17 05:00  18 12 02.31    +39 13 14.5   149263 1.0040 100.0 C   14?  23.31 152.6   23 339 106  63
   ................
   2024 04 17 23:50  19 35 37.68    +33 28 06.3   129421 1.0040  85.8  m  14?  46.17  93.6    0  53 120  70
   2024 04 18 00:00  19 36 14.04    +33 27 34.6   128671 1.0040  85.7  m  14?  45.07  94.1    1  52 120  70
   2024 04 18 00:10  19 36 49.50    +33 26 59.1   127916 1.0040  85.6  m  14?  43.98  94.8    3  51 120  70
   2024 04 18 00:20  19 37 24.06    +33 26 19.4   127157 1.0040  85.5  m  14?  42.91  95.5    4  50 120  70
   2024 04 18 00:30  19 37 57.73    +33 25 34.9   126393 1.0040  85.4  m  14?  41.86  96.3    6  49 120  70
   2024 04 18 00:40  19 38 30.52    +33 24 45.4   125624 1.0040  85.3     14?  40.84  97.2    8  48 120  70
   2024 04 18 00:50  19 39 02.44    +33 23 50.3   124852 1.0040  85.2     14?  39.86  98.2    9  46 120  70
   2024 04 18 01:00  19 39 33.51    +33 22 49.3   124075 1.0040  85.1     14?  38.92  99.3   11  45 120  70
   2024 04 18 01:10  19 40 03.74    +33 21 42.0   123295 1.0040  85.0     14?  38.02 100.5   13  44 120  70
   2024 04 18 01:20  19 40 33.16    +33 20 27.8   122512 1.0040  84.9     14?  37.18 101.9   14  43 120  70
   2024 04 18 01:30  19 41 01.78    +33 19 06.4   121726 1.0040  84.8     14?  36.40 103.3   16  41 120  70
   2024 04 18 01:40  19 41 29.63    +33 17 37.3   120936 1.0040  84.7     14?  35.69 104.9   17  40 120  70
   2024 04 18 01:50  19 41 56.74    +33 16 00.1   120144 1.0040  84.6     14?  35.05 106.6   18  38 120  70
   2024 04 18 02:00  19 42 23.14    +33 14 14.3   119348 1.0040  84.5     14?  34.49 108.4   20  37 121  70
   2024 04 18 02:10  19 42 48.86    +33 12 19.6   118551 1.0040  84.5     14?  34.03 110.3   21  35 121  70
   2024 04 18 02:20  19 43 13.93    +33 10 15.4   117751 1.0040  84.4     14?  33.66 112.4   22  33 121  71
   2024 04 18 02:30  19 43 38.39    +33 08 01.3   116949 1.0040  84.3     14?  33.40 114.4   24  32 121  71
   2024 04 18 02:40  19 44 02.29    +33 05 36.8   116144 1.0040  84.2     14?  33.25 116.6   25  30 121  71
   2024 04 18 02:50  19 44 25.65    +33 03 01.7   115338 1.0040  84.2     14?  33.21 118.7   26  28 121  71
   2024 04 18 03:00  19 44 48.54    +33 00 15.3   114530 1.0040  84.1     14?  33.29 120.9   27  26 121  71
   2024 04 18 03:10  19 45 10.98    +32 57 17.4   113720 1.0040  84.0     14?  33.50 123.1   28  24 121  71
   2024 04 18 03:20  19 45 33.05    +32 54 07.3   112908 1.0040  84.0     14?  33.83 125.2   29  22 121  71
   2024 04 18 03:30  19 45 54.77    +32 50 44.9   112094 1.0040  83.9     14?  34.29 127.3   30  20 121  71
   2024 04 18 03:40  19 46 16.22    +32 47 09.5   111279 1.0040  83.8     13?  34.87 129.3   31  18 121  71
   2024 04 18 03:50  19 46 37.45    +32 43 20.9   110462 1.0040  83.8     13?  35.57 131.2   31  16 121  71
   2024 04 18 04:00  19 46 58.52    +32 39 18.6   109643 1.0040  83.7 A   13?  36.40 133.0   32  13 121  71
   2024 04 18 04:10  19 47 19.48    +32 35 02.2   108823 1.0040  83.7 A   13?  37.35 134.7   33  11 122  71
   2024 04 18 04:20  19 47 40.41    +32 30 31.4   108000 1.0040  83.6 A   13?  38.41 136.2   33   9 122  71
   2024 04 18 04:30  19 48 01.37    +32 25 45.7   107176 1.0040  83.6 N   13?  39.58 137.6   33   6 122  72
   2024 04 18 04:40  19 48 22.43    +32 20 44.8   106350 1.0040  83.5 N   13?  40.86 138.9   34   4 122  72
   2024 04 18 04:50  19 48 43.65    +32 15 28.3   105522 1.0040  83.4 C   13?  42.25 140.0   34   1 122  72
   2024 04 18 05:00  19 49 05.12    +32 09 55.9   104692 1.0040  83.4 Ct  13?  43.73 140.9   34 359 122  72
   ................
   2024 04 18 16:50  12 19 13.92    +13 54 54.3     8814 1.0043 146.8 Cm   9? 5269.7  43.6   13  68  29  76
   2024 04 18 17:00  12 53 05.26    +21 37 31.4    12561 1.0043 144.7 Cm  10? 3111.6  49.0    4  64  36  76
   2024 04 18 17:10  13 17 33.46    +26 09 05.6    15989 1.0044 142.1 Nm  11? 2172.0  52.9    0  61  42  76
   ................
   2024 04 18 20:20  15 46 49.38    +41 37 49.6    55946 1.0045 120.5  m  13? 232.21  72.8    0  43  73  77
   2024 04 18 20:30  15 50 01.77    +41 48 42.1    57444 1.0045 120.0  m  13? 218.14  73.2    0  43  74  77
   2024 04 18 20:40  15 53 03.51    +41 58 41.8    58908 1.0045 119.6  m  13? 205.25  73.6    1  42  74  77
   2024 04 18 20:50  15 55 55.40    +42 07 53.6    60341 1.0045 119.1  m  13? 193.38  74.0    2  41  75  77
   2024 04 18 21:00  15 58 38.14    +42 16 21.5    61744 1.0045 118.7  m  13? 182.43  74.3    3  40  75  77
   2024 04 18 21:10  16 01 12.39    +42 24 09.2    63120 1.0045 118.3  m  13? 172.30  74.8    4  39  76  77
   2024 04 18 21:20  16 03 38.71    +42 31 19.6    64468 1.0045 118.0  m  13? 162.90  75.2    5  38  76  77
   2024 04 18 21:30  16 05 57.64    +42 37 55.4    65792 1.0046 117.6  m  13? 154.16  75.6    6  37  77  77
   2024 04 18 21:40  16 08 09.66    +42 43 58.7    67092 1.0046 117.3  m  13? 146.02  76.1    7  36  77  77
   2024 04 18 21:50  16 10 15.20    +42 49 31.7    68369 1.0046 117.0  m  13? 138.42  76.5    8  35  77  77
   2024 04 18 22:00  16 12 14.69    +42 54 35.9    69625 1.0046 116.7  m  13? 131.33  77.1    9  34  78  77
   2024 04 18 22:10  16 14 08.48    +42 59 13.0    70861 1.0046 116.4  m  13? 124.70  77.6   10  33  78  77
   2024 04 18 22:20  16 15 56.93    +43 03 24.2    72077 1.0046 116.1  m  13? 118.49  78.2   11  32  78  77
   2024 04 18 22:30  16 17 40.37    +43 07 10.7    73274 1.0046 115.8  m  13? 112.68  78.9   12  30  79  78
   2024 04 18 22:40  16 19 19.09    +43 10 33.5    74455 1.0046 115.6  m  13? 107.24  79.6   13  29  79  78
   2024 04 18 22:50  16 20 53.38    +43 13 33.7    75618 1.0046 115.4  m  13? 102.15  80.3   14  28  79  78
   2024 04 18 23:00  16 22 23.52    +43 16 12.0    76766 1.0046 115.2  m  13?  97.39  81.1   15  26  80  78
   2024 04 18 23:10  16 23 49.74    +43 18 29.2    77899 1.0046 115.0  m  13?  92.94  82.0   16  25  80  78
   2024 04 18 23:20  16 25 12.29    +43 20 25.9    79017 1.0046 114.8  m  13?  88.78  82.9   17  24  80  78
   2024 04 18 23:30  16 26 31.40    +43 22 02.8    80122 1.0046 114.6  m  13?  84.91  83.9   17  22  80  78
   2024 04 18 23:40  16 27 47.28    +43 23 20.5    81214 1.0046 114.4  m  13?  81.31  85.0   18  21  80  78
   2024 04 18 23:50  16 29 00.13    +43 24 19.5    82294 1.0046 114.2  m  13?  77.98  86.2   19  19  81  78
   2024 04 19 00:00  16 30 10.15    +43 25 00.3    83362 1.0046 114.1  m  13?  74.89  87.4   19  18  81  78
   2024 04 19 00:10  16 31 17.53    +43 25 23.4    84420 1.0046 113.9  m  13?  72.05  88.7   20  16  81  78
   2024 04 19 00:20  16 32 22.45    +43 25 29.1    85466 1.0046 113.8  m  13?  69.44  90.1   21  14  81  78
   2024 04 19 00:30  16 33 25.07    +43 25 18.1    86503 1.0046 113.7  m  13?  67.06  91.5   21  13  81  78
   2024 04 19 00:40  16 34 25.56    +43 24 50.6    87530 1.0046 113.6  m  14?  64.91  93.0   22  11  81  78
   2024 04 19 00:50  16 35 24.07    +43 24 07.1    88549 1.0046 113.4  m  14?  62.96  94.5   22   9  82  78
   2024 04 19 01:00  16 36 20.77    +43 23 08.0    89559 1.0046 113.3  m  14?  61.23  96.1   22   8  82  78
   2024 04 19 01:10  16 37 15.79    +43 21 53.6    90560 1.0046 113.2  m  14?  59.70  97.7   23   6  82  78
   2024 04 19 01:20  16 38 09.27    +43 20 24.4    91554 1.0046 113.1  m  14?  58.36  99.3   23   4  82  78
   2024 04 19 01:30  16 39 01.34    +43 18 40.7    92541 1.0046 113.0     14?  57.20 100.9   23   2  82  78
   2024 04 19 01:40  16 39 52.15    +43 16 43.0    93520 1.0046 112.9     14?  56.23 102.6   23   0  82  78
   2024 04 19 01:50  16 40 41.79    +43 14 31.6    94493 1.0046 112.9  t  14?  55.42 104.2   23 359  82  78
   2024 04 19 02:00  16 41 30.41    +43 12 06.9    95460 1.0046 112.8  e  14?  54.77 105.8   23 357  83  79
   2024 04 19 02:10  16 42 18.11    +43 09 29.3    96420 1.0046 112.7     14?  54.26 107.4   23 355  83  79
   2024 04 19 02:20  16 43 05.00    +43 06 39.2    97375 1.0046 112.6     14?  53.90 108.9   23 353  83  79
   2024 04 19 02:30  16 43 51.18    +43 03 37.0    98323 1.0046 112.6     14?  53.67 110.3   23 351  83  79
   2024 04 19 02:40  16 44 36.76    +43 00 23.1    99267 1.0046 112.5     14?  53.56 111.7   22 349  83  79
   2024 04 19 02:50  16 45 21.82    +42 56 58.0   100205 1.0046 112.4     14?  53.55 112.9   22 348  83  79
   2024 04 19 03:00  16 46 06.48    +42 53 22.0   101139 1.0047 112.4     14?  53.65 114.1   22 346  83  79
   2024 04 19 03:10  16 46 50.79    +42 49 35.6   102067 1.0047 112.3     14?  53.84 115.2   21 344  83  79
   2024 04 19 03:20  16 47 34.87    +42 45 39.2   102991 1.0047 112.3     14?  54.11 116.3   21 342  84  79
   2024 04 19 03:30  16 48 18.77    +42 41 33.2   103910 1.0047 112.2     14?  54.45 117.2   20 341  84  79
   2024 04 19 03:40  16 49 02.58    +42 37 18.1   104824 1.0047 112.2     14?  54.86 118.0   19 339  84  79
   2024 04 19 03:50  16 49 46.37    +42 32 54.2   105735 1.0047 112.1     14?  55.33 118.8   19 337  84  79
   2024 04 19 04:00  16 50 30.20    +42 28 22.1   106640 1.0047 112.1 A   14?  55.84 119.4   18 336  84  79
   2024 04 19 04:10  16 51 14.14    +42 23 42.2   107542 1.0047 112.0 A   14?  56.41 120.0   17 334  84  79
   2024 04 19 04:20  16 51 58.24    +42 18 54.9   108439 1.0047 112.0 A   14?  57.01 120.5   16 333  84  79
   2024 04 19 04:30  16 52 42.57    +42 14 00.7   109332 1.0047 111.9 N   14?  57.65 120.9   15 331  84  79
   2024 04 19 04:40  16 53 27.18    +42 09 00.0   110221 1.0047 111.9 N   14?  58.31 121.2   14 330  84  80
   2024 04 19 04:50  16 54 12.11    +42 03 53.3   111105 1.0047 111.8 C   14?  59.00 121.4   13 328  84  80
   2024 04 19 05:00  16 54 57.40    +41 58 41.0   111985 1.0047 111.8 C   14?  59.71 121.6   12 327  85  80
   ................
   2024 04 19 23:00  18 35 30.04    +37 56 02.1   152905 1.0048  97.4  m  14?  29.11  77.1    0  47 101  85
   2024 04 19 23:10  18 35 53.48    +37 57 04.8   152762 1.0048  97.3  m  14?  27.74  77.2    2  46 101  85
   2024 04 19 23:20  18 36 15.81    +37 58 03.8   152617 1.0048  97.3  m  14?  26.39  77.3    4  45 101  85
   2024 04 19 23:30  18 36 37.06    +37 58 58.8   152470 1.0048  97.2  m  14?  25.06  77.6    5  44 101  85
   2024 04 19 23:40  18 36 57.25    +37 59 49.6   152321 1.0048  97.1  m  14?  23.74  78.0    7  43 101  85
   2024 04 19 23:50  18 37 16.39    +38 00 35.7   152170 1.0048  97.1  m  14?  22.45  78.6    8  41 101  85
   2024 04 20 00:00  18 37 34.51    +38 01 16.9   152018 1.0048  97.0  m  14?  21.18  79.3   10  40 101  85
   2024 04 20 00:10  18 37 51.64    +38 01 52.8   151866 1.0048  97.0  m  14?  19.94  80.3   11  39 101  85
   2024 04 20 00:20  18 38 07.80    +38 02 23.1   151712 1.0048  96.9  m  14?  18.74  81.4   12  38 101  85
   2024 04 20 00:30  18 38 23.03    +38 02 47.5   151559 1.0048  96.9  m  14?  17.58  82.8   14  36 101  85
   2024 04 20 00:40  18 38 37.36    +38 03 05.7   151405 1.0048  96.8  m  14?  16.47  84.6   15  35 101  85
   2024 04 20 00:50  18 38 50.82    +38 03 17.5   151252 1.0048  96.8  m  14?  15.42  86.7   16  33 101  85
   2024 04 20 01:00  18 39 03.45    +38 03 22.4   151099 1.0048  96.8  m  14?  14.44  89.2   18  32 101  85
   2024 04 20 01:10  18 39 15.28    +38 03 20.3   150947 1.0048  96.7  m  14?  13.53  92.3   19  30 101  85
   2024 04 20 01:20  18 39 26.35    +38 03 10.9   150796 1.0048  96.7  m  14?  12.72  95.8   20  28 101  85
   2024 04 20 01:30  18 39 36.71    +38 02 53.9   150645 1.0048  96.7  m  14?  12.01  99.8   21  27 101  86
   2024 04 20 01:40  18 39 46.40    +38 02 29.2   150497 1.0048  96.7  m  14?  11.43 104.3   22  25 101  86
   2024 04 20 01:50  18 39 55.46    +38 01 56.4   150349 1.0048  96.6  m  14?  10.99 109.4   23  23 101  86
   2024 04 20 02:00  18 40 03.94    +38 01 15.3   150204 1.0048  96.6  m  14?  10.70 114.8   24  21 101  86
   2024 04 20 02:10  18 40 11.88    +38 00 25.9   150060 1.0048  96.6  m  14?  10.56 120.4   25  19 101  86
   2024 04 20 02:20  18 40 19.34    +37 59 27.8   149919 1.0048  96.6     14?  10.59 125.9   25  17 101  86
   2024 04 20 02:30  18 40 26.36    +37 58 20.9   149779 1.0048  96.6     14?  10.77 131.3   26  15 101  86
   2024 04 20 02:40  18 40 33.00    +37 57 05.2   149642 1.0048  96.6     14?  11.09 136.2   27  13 101  86
   2024 04 20 02:50  18 40 39.31    +37 55 40.3   149507 1.0048  96.6     14?  11.53 140.6   27  11 101  86
   2024 04 20 03:00  18 40 45.33    +37 54 06.3   149375 1.0048  96.5     14?  12.09 144.5   28   9 101  86
   2024 04 20 03:10  18 40 51.13    +37 52 23.0   149245 1.0048  96.5     14?  12.73 147.8   28   7 101  86
   2024 04 20 03:20  18 40 56.76    +37 50 30.4   149118 1.0048  96.5     14?  13.45 150.5   28   4 101  86
   2024 04 20 03:30  18 41 02.26    +37 48 28.4   148994 1.0048  96.5     14?  14.24 152.7   28   2 101  86
   2024 04 20 03:40  18 41 07.71    +37 46 16.9   148872 1.0048  96.5     14?  15.07 154.5   28   0 101  86
   2024 04 20 03:50  18 41 13.15    +37 43 55.9   148753 1.0048  96.5  t  14?  15.94 155.8   28 358 101  86
   2024 04 20 04:00  18 41 18.63    +37 41 25.4   148637 1.0048  96.5 A   14?  16.85 156.9   28 355 101  86
   2024 04 20 04:10  18 41 24.22    +37 38 45.5   148524 1.0048  96.5 A   14?  17.78 157.6   28 353 101  86
   2024 04 20 04:20  18 41 29.96    +37 35 56.2   148413 1.0048  96.5 A   14?  18.74 158.0   28 351 101  86
   2024 04 20 04:30  18 41 35.92    +37 32 57.4   148304 1.0048  96.5 N   14?  19.71 158.3   28 349 101  86
   2024 04 20 04:40  18 41 42.14    +37 29 49.4   148199 1.0048  96.5 N   14?  20.71 158.3   27 347 101  86
   2024 04 20 04:50  18 41 48.69    +37 26 32.1   148096 1.0048  96.5 C   14?  21.71 158.2   27 344 101  87
   2024 04 20 05:00  18 41 55.60    +37 23 05.7   147995 1.0048  96.5 C   14?  22.73 157.9   26 342 101  87
   ................
   2024 04 21 00:30  20 34 45.33    +27 44 07.2    84604 1.0048  75.9  m  13? 126.22 108.1    1  58 123  91
   2024 04 21 00:40  20 36 16.08    +27 37 22.8    83267 1.0048  75.6  m  13? 128.12 108.7    2  58 123  91
   2024 04 21 00:50  20 37 47.84    +27 30 19.5    81914 1.0048  75.3  m  13? 130.22 109.3    4  57 124  91
   2024 04 21 01:00  20 39 20.72    +27 22 55.9    80548 1.0048  75.0  m  13? 132.53 109.9    6  56 124  91
   2024 04 21 01:10  20 40 54.83    +27 15 10.3    79166 1.0048  74.6  m  13? 135.08 110.5    7  55 124  91
   2024 04 21 01:20  20 42 30.32    +27 07 01.2    77769 1.0048  74.3  m  13? 137.90 111.2    9  54 125  91
   2024 04 21 01:30  20 44 07.32    +26 58 26.8    76357 1.0048  74.0  m  13? 141.01 111.8   11  53 125  91
   2024 04 21 01:40  20 45 46.01    +26 49 25.0    74930 1.0048  73.6  m  13? 144.44 112.5   12  52 125  91
   2024 04 21 01:50  20 47 26.57    +26 39 53.9    73486 1.0048  73.3  m  13? 148.23 113.1   14  51 126  91
   2024 04 21 02:00  20 49 09.19    +26 29 51.1    72026 1.0048  72.9  m  13? 152.40 113.8   16  50 126  91
   2024 04 21 02:10  20 50 54.10    +26 19 14.3    70549 1.0048  72.5  m  13? 157.01 114.5   17  49 127  92
   2024 04 21 02:20  20 52 41.56    +26 08 00.6    69055 1.0048  72.2  m  13? 162.09 115.2   19  48 127  92
   2024 04 21 02:30  20 54 31.82    +25 56 07.2    67543 1.0048  71.8  m  13? 167.70 115.8   20  47 127  92
   2024 04 21 02:40  20 56 25.20    +25 43 30.7    66013 1.0048  71.4  m  13? 173.90 116.5   22  46 128  92
   2024 04 21 02:50  20 58 22.04    +25 30 07.6    64463 1.0048  70.9  m  13? 180.76 117.1   23  45 128  92
   2024 04 21 03:00  21 00 22.72    +25 15 53.8    62894 1.0048  70.5  m  13? 188.36 117.7   25  44 129  92
   2024 04 21 03:10  21 02 27.68    +25 00 44.8    61304 1.0048  70.1     13? 196.78 118.3   26  42 129  92
   2024 04 21 03:20  21 04 37.41    +24 44 35.7    59692 1.0048  69.6     13? 206.15 118.9   28  41 130  92
   2024 04 21 03:30  21 06 52.45    +24 27 20.8    58058 1.0048  69.1     13? 216.57 119.5   29  40 130  92
   2024 04 21 03:40  21 09 13.44    +24 08 53.5    56400 1.0048  68.6     12? 228.21 120.0   30  39 131  92
   2024 04 21 03:50  21 11 41.11    +23 49 06.7    54717 1.0048  68.1     12? 241.24 120.5   32  37 132  92
   2024 04 21 04:00  21 14 16.27    +23 27 51.9    53008 1.0048  67.5 A   12? 255.88 121.0   33  36 132  92
   2024 04 21 04:10  21 16 59.90    +23 04 59.4    51271 1.0048  66.9 A   12? 272.38 121.4   34  35 133  92
   2024 04 21 04:20  21 19 53.13    +22 40 17.7    49504 1.0048  66.3 A   12? 291.08 121.8   35  33 134  92
   2024 04 21 04:30  21 22 57.27    +22 13 33.7    47706 1.0048  65.6 N   12? 312.36 122.2   37  32 134  92
   2024 04 21 04:40  21 26 13.90    +21 44 31.6    45875 1.0048  64.9 N   12? 336.74 122.5   38  30 135  92
   2024 04 21 04:50  21 29 44.90    +21 12 52.3    44008 1.0048  64.1 C   12? 364.84 122.8   39  29 136  92
   2024 04 21 05:00  21 33 32.57    +20 38 13.1    42103 1.0048  63.3 C   12? 397.49 123.1   40  28 137  92
   ................
   2024 04 21 21:50  17 27 55.95    +41 05 49.2   119274 1.0054 108.2  m  14?  49.97  73.5    0  44  79  95
   2024 04 21 22:00  17 28 37.45    +41 08 06.6   119791 1.0054 108.1  m  14?  47.78  73.5    1  43  79  95
   2024 04 21 22:10  17 29 17.15    +41 10 17.3   120303 1.0054 107.9  m  14?  45.64  73.7    3  42  79  95
   2024 04 21 22:20  17 29 55.11    +41 12 20.8   120810 1.0054 107.8  m  14?  43.55  73.8    4  41  79  96
   2024 04 21 22:30  17 30 31.36    +41 14 17.0   121311 1.0054 107.7  m  14?  41.51  74.1    5  40  80  96
   2024 04 21 22:40  17 31 05.97    +41 16 05.6   121807 1.0054 107.6  m  14?  39.52  74.5    7  38  80  96
   2024 04 21 22:50  17 31 38.99    +41 17 46.3   122300 1.0054 107.5  m  14?  37.60  74.9    8  37  80  96
   2024 04 21 23:00  17 32 10.47    +41 19 18.9   122788 1.0054 107.4  m  14?  35.73  75.5    9  36  80  96
   2024 04 21 23:10  17 32 40.46    +41 20 43.0   123272 1.0054 107.3  m  14?  33.92  76.2   11  35  80  96
   2024 04 21 23:20  17 33 09.04    +41 21 58.5   123753 1.0054 107.3  m  14?  32.18  77.1   12  33  80  96
   2024 04 21 23:30  17 33 36.24    +41 23 05.1   124230 1.0054 107.2  m  14?  30.51  78.1   13  32  80  96
   2024 04 21 23:40  17 34 02.14    +41 24 02.6   124705 1.0054 107.1  m  14?  28.92  79.3   14  31  80  96
   2024 04 21 23:50  17 34 26.80    +41 24 50.7   125178 1.0054 107.0  m  14?  27.40  80.7   15  29  80  96
   2024 04 22 00:00  17 34 50.27    +41 25 29.4   125648 1.0054 107.0  m  14?  25.98  82.3   16  28  80  96
   2024 04 22 00:10  17 35 12.62    +41 25 58.3   126116 1.0054 106.9  m  14?  24.65  84.2   17  26  80  96
   2024 04 22 00:20  17 35 33.92    +41 26 17.4   126583 1.0054 106.9  m  14?  23.42  86.4   18  24  81  96
   2024 04 22 00:30  17 35 54.22    +41 26 26.5   127048 1.0054 106.8  m  14?  22.30  88.8   19  23  81  96
   2024 04 22 00:40  17 36 13.60    +41 26 25.4   127512 1.0054 106.8  m  14?  21.30  91.5   20  21  81  96
   2024 04 22 00:50  17 36 32.12    +41 26 14.1   127976 1.0054 106.7  m  14?  20.43  94.5   21  19  81  96
   2024 04 22 01:00  17 36 49.85    +41 25 52.4   128438 1.0054 106.7  m  14?  19.70  97.7   22  18  81  96
   2024 04 22 01:10  17 37 06.85    +41 25 20.3   128900 1.0054 106.6  m  14?  19.11 101.0   22  16  81  96
   2024 04 22 01:20  17 37 23.19    +41 24 37.7   129362 1.0054 106.6  m  14?  18.67 104.6   23  14  81  96
   2024 04 22 01:30  17 37 38.94    +41 23 44.5   129823 1.0054 106.6  m  14?  18.37 108.3   23  12  81  96
   2024 04 22 01:40  17 37 54.17    +41 22 40.8   130285 1.0054 106.5  m  14?  18.23 112.0   24  10  81  96
   2024 04 22 01:50  17 38 08.95    +41 21 26.6   130746 1.0054 106.5  m  14?  18.23 115.6   24   8  81  96
   2024 04 22 02:00  17 38 23.33    +41 20 01.8   131208 1.0055 106.5  m  14?  18.37 119.1   25   6  81  96
   2024 04 22 02:10  17 38 37.40    +41 18 26.4   131671 1.0055 106.5  m  14?  18.64 122.4   25   4  81  96
   2024 04 22 02:20  17 38 51.21    +41 16 40.7   132134 1.0055 106.5  m  14?  19.02 125.5   25   2  81  96
   2024 04 22 02:30  17 39 04.83    +41 14 44.6   132597 1.0055 106.4  m  14?  19.51 128.2   25   0  81  96
   2024 04 22 02:40  17 39 18.33    +41 12 38.2   133062 1.0055 106.4  t  14?  20.09 130.7   25 358  81  96
   2024 04 22 02:50  17 39 31.77    +41 10 21.6   133527 1.0055 106.4  m  14?  20.74 132.8   25 356  81  96
   2024 04 22 03:00  17 39 45.21    +41 07 55.1   133993 1.0055 106.4  m  14?  21.47 134.7   25 354  81  96
   2024 04 22 03:10  17 39 58.71    +41 05 18.6   134459 1.0055 106.4  m  14?  22.25 136.2   25 352  81  96
   2024 04 22 03:20  17 40 12.34    +41 02 32.5   134927 1.0055 106.4  m  14?  23.08 137.5   24 350  81  96
   2024 04 22 03:30  17 40 26.16    +40 59 36.9   135395 1.0055 106.4  m  14?  23.95 138.6   24 348  81  96
   2024 04 22 03:40  17 40 40.21    +40 56 32.0   135865 1.0055 106.4  m  14?  24.86 139.5   23 346  81  96
   2024 04 22 03:50  17 40 54.57    +40 53 18.0   136335 1.0055 106.4  m  14?  25.79 140.1   23 344  81  96
   2024 04 22 04:00  17 41 09.27    +40 49 55.1   136806 1.0055 106.4 A   14?  26.74 140.6   22 342  81  96
   2024 04 22 04:10  17 41 24.38    +40 46 23.7   137277 1.0055 106.4 A   14?  27.71 140.9   22 340  81  96
   2024 04 22 04:20  17 41 39.94    +40 42 43.9   137750 1.0055 106.4 A   14?  28.70 141.0   21 338  81  96
   2024 04 22 04:30  17 41 56.00    +40 38 56.1   138222 1.0055 106.3 N   14?  29.70 141.0   20 336  81  96
   2024 04 22 04:40  17 42 12.61    +40 35 00.6   138696 1.0055 106.3 N   14?  30.71 141.0   19 335  81  96
   2024 04 22 04:50  17 42 29.81    +40 30 57.6   139169 1.0055 106.3 C   14?  31.73 140.8   18 333  81  96
   2024 04 22 05:00  17 42 47.65    +40 26 47.5   139643 1.0055 106.3 C   14?  32.76 140.5   17 331  81  96
   ................
   2024 04 22 23:10  19 05 14.64    +35 51 35.8   147398 1.0055  94.0  m  14?  32.71  84.6    0  50  92  98
   2024 04 22 23:20  19 05 40.92    +35 52 04.4   146954 1.0055  93.9  m  14?  31.44  84.9    2  49  92  98
   2024 04 22 23:30  19 06 06.18    +35 52 29.6   146508 1.0055  93.8  m  14?  30.17  85.4    3  48  92  98
   2024 04 22 23:40  19 06 30.42    +35 52 51.3   146058 1.0055  93.8  m  14?  28.92  85.9    5  46  92  98
   2024 04 22 23:50  19 06 53.67    +35 53 08.9   145607 1.0055  93.7  m  14?  27.69  86.6    7  45  92  98
   2024 04 23 00:00  19 07 15.93    +35 53 22.1   145153 1.0055  93.6  m  14?  26.49  87.5    8  44  92  98
   2024 04 23 00:10  19 07 37.23    +35 53 30.7   144697 1.0055  93.6  m  14?  25.31  88.5   10  43  93  99
   2024 04 23 00:20  19 07 57.58    +35 53 34.2   144240 1.0055  93.5  m  14?  24.17  89.6   11  42  93  99
   2024 04 23 00:30  19 08 17.01    +35 53 32.3   143781 1.0055  93.4  m  14?  23.06  91.0   13  40  93  99
   2024 04 23 00:40  19 08 35.54    +35 53 24.7   143321 1.0055  93.4  m  14?  22.01  92.6   14  39  93  99
   2024 04 23 00:50  19 08 53.20    +35 53 10.9   142861 1.0055  93.3  m  14?  21.00  94.5   16  38  93  99
   2024 04 23 01:00  19 09 10.00    +35 52 50.8   142400 1.0055  93.3  m  14?  20.06  96.6   17  36  93  99
   2024 04 23 01:10  19 09 26.00    +35 52 23.8   141939 1.0055  93.2  m  14?  19.20  99.0   18  35  93  99
   2024 04 23 01:20  19 09 41.21    +35 51 49.8   141477 1.0055  93.2  m  14?  18.42 101.6   19  33  93  99
   2024 04 23 01:30  19 09 55.67    +35 51 08.4   141016 1.0055  93.1  m  14?  17.73 104.6   21  31  93  99
   2024 04 23 01:40  19 10 09.41    +35 50 19.3   140555 1.0055  93.1  m  14?  17.14 107.8   22  30  93  99
   2024 04 23 01:50  19 10 22.49    +35 49 22.1   140095 1.0055  93.1  m  14?  16.67 111.3   23  28  93  99
   2024 04 23 02:00  19 10 34.93    +35 48 16.7   139635 1.0055  93.0  m  14?  16.33 115.1   24  26  93  99
   2024 04 23 02:10  19 10 46.78    +35 47 02.6   139176 1.0055  93.0  m  14?  16.11 118.9   25  24  93  99
   2024 04 23 02:20  19 10 58.08    +35 45 39.8   138718 1.0055  93.0  m  14?  16.03 122.8   26  22  93  99
   2024 04 23 02:30  19 11 08.88    +35 44 07.8   138262 1.0055  93.0  m  14?  16.09 126.7   27  20  93  99
   2024 04 23 02:40  19 11 19.23    +35 42 26.5   137806 1.0055  92.9  m  14?  16.28 130.5   28  18  93  99
   2024 04 23 02:50  19 11 29.18    +35 40 35.6   137352 1.0055  92.9  m  14?  16.60 134.0   28  16  93  99
   2024 04 23 03:00  19 11 38.77    +35 38 34.9   136900 1.0055  92.9  m  14?  17.03 137.3   29  14  93  99
   2024 04 23 03:10  19 11 48.06    +35 36 24.2   136449 1.0055  92.9  m  14?  17.58 140.3   29  11  93  99
   2024 04 23 03:20  19 11 57.10    +35 34 03.3   136000 1.0055  92.9  m  14?  18.22 143.0   30   9  93  99
   2024 04 23 03:30  19 12 05.95    +35 31 32.1   135552 1.0055  92.9  m  14?  18.96 145.4   30   7  93  99
   2024 04 23 03:40  19 12 14.67    +35 28 50.4   135106 1.0055  92.9  m  14?  19.77 147.4   31   4  93  99
   2024 04 23 03:50  19 12 23.31    +35 25 58.1   134662 1.0055  92.9  m  14?  20.65 149.1   31   2  93  99
   2024 04 23 04:00  19 12 31.92    +35 22 55.1   134219 1.0055  92.8 Am  14?  21.59 150.6   31   0  93  99
   2024 04 23 04:10  19 12 40.57    +35 19 41.2   133779 1.0055  92.8 At  14?  22.59 151.7   31 357  93  99
   2024 04 23 04:20  19 12 49.31    +35 16 16.4   133339 1.0055  92.8 Am  14?  23.64 152.6   31 355  93  99
   2024 04 23 04:30  19 12 58.22    +35 12 40.6   132902 1.0055  92.8 Nm  14?  24.73 153.3   31 353  93  99
   2024 04 23 04:40  19 13 07.33    +35 08 53.8   132466 1.0055  92.8 Nm  14?  25.85 153.8   30 350  93  99
   2024 04 23 04:50  19 13 16.72    +35 04 55.9   132031 1.0055  92.8 C   14?  27.01 154.1   30 348  93  99
   2024 04 23 05:00  19 13 26.45    +35 00 47.0   131598 1.0055  92.8 C   14?  28.21 154.2   30 346  93  99
   ................
   2024 04 24 00:00  10 12 07.68    +24 16 19.6    14204 1.0058 111.7  r  10? 4949.8  61.4    2 297  68  99
   2024 04 24 00:10  10 58 29.21    +29 38 58.9    16564 1.0058 117.8  m  10? 3533.7  63.9    7 306  62  99
   2024 04 24 00:20  11 34 29.31    +33 12 34.6    19026 1.0058 121.3  m  10? 2624.1  66.5    9 312  59  99
   2024 04 24 00:30  12 03 13.33    +35 38 31.6    21495 1.0058 123.3  m  11? 2026.0  68.9   11 316  57  99
   2024 04 24 00:40  12 26 43.81    +37 21 38.2    23927 1.0058 124.5  m  11? 1617.2  71.1   12 320  56  99
   2024 04 24 00:50  12 46 22.62    +38 36 36.9    26306 1.0058 125.1  m  11? 1326.9  73.1   12 322  56  99
   2024 04 24 01:00  13 03 05.76    +39 32 25.7    28626 1.0058 125.5  m  11? 1113.6  74.9   13 323  55  99
   2024 04 24 01:10  13 17 32.57    +40 14 44.0    30885 1.0059 125.6  m  12? 952.14  76.5   13 325  55  99
   2024 04 24 01:20  13 30 11.40    +40 47 13.8    33085 1.0059 125.6  e  12? 826.86  78.0   13 325  56  99
   2024 04 24 01:30  13 41 23.19    +41 12 25.2    35228 1.0059 125.6  m  12? 727.59  79.4   12 326  56  99
   2024 04 24 01:40  13 51 23.72    +41 32 02.3    37318 1.0059 125.4  m  12? 647.48  80.7   12 326  56  99
   2024 04 24 01:50  14 00 25.13    +41 47 19.8    39358 1.0059 125.3  m  12? 581.83  81.9   12 326  56  99
   2024 04 24 02:00  14 08 36.90    +41 59 12.1    41351 1.0059 125.1  m  12? 527.30  83.1   11 326  56  99
   2024 04 24 02:10  14 16 06.58    +42 08 19.7    43300 1.0059 124.9  m  12? 481.48  84.2   11 326  56  99
   2024 04 24 02:20  14 23 00.22    +42 15 13.5    45207 1.0059 124.7  m  12? 442.60  85.3   11 325  57  99
   2024 04 24 02:30  14 29 22.77    +42 20 17.2    47076 1.0059 124.5  m  12? 409.29  86.3   10 325  57  99
   2024 04 24 02:40  14 35 18.29    +42 23 49.5    48907 1.0059 124.3  m  13? 380.55  87.3    9 324  57  99
   2024 04 24 02:50  14 40 50.17    +42 26 05.2    50705 1.0059 124.1  m  13? 355.57  88.3    9 324  57  99
   2024 04 24 03:00  14 46 01.26    +42 27 16.2    52470 1.0059 123.9  m  13? 333.73  89.2    8 323  58  99
   2024 04 24 03:10  14 50 53.95    +42 27 32.2    54204 1.0059 123.7  m  13? 314.52  90.0    7 323  58  99
   2024 04 24 03:20  14 55 30.30    +42 27 01.1    55909 1.0059 123.5  m  13? 297.54  90.9    7 322  58  99
   2024 04 24 03:30  14 59 52.07    +42 25 49.6    57586 1.0060 123.3  m  13? 282.47  91.7    6 321  58  99
   2024 04 24 03:40  15 04 00.78    +42 24 03.1    59236 1.0060 123.2  m  13? 269.04  92.5    5 321  58  99
   2024 04 24 03:50  15 07 57.75    +42 21 46.4    60862 1.0060 123.0  m  13? 257.02  93.2    4 320  58  99
   2024 04 24 04:00  15 11 44.13    +42 19 03.5    62463 1.0060 122.8 Am  13? 246.23  93.9    3 319  59  99
   2024 04 24 04:10  15 15 20.94    +42 15 57.7    64042 1.0060 122.6 Am  13? 236.52  94.6    2 318  59  99
   2024 04 24 04:20  15 18 49.08    +42 12 32.0    65598 1.0060 122.5 Am  13? 227.74  95.3    1 318  59  99
   2024 04 24 04:30  15 22 09.31    +42 08 49.0    67133 1.0060 122.3 Nm  13? 219.79  95.9    0 317  59  99
   2024 04 24 04:40  15 25 22.36    +42 04 51.0    68648 1.0060 122.1 Nm  13? 212.57  96.5    0 316  59  99
   ................
   2024 04 24 22:10  18 07 51.85    +39 24 01.3   145114 1.0062 103.8  m  14?  33.46  74.0    0  46  74  99
   2024 04 24 22:20  18 08 18.98    +39 25 30.8   145241 1.0062 103.7  m  14?  31.91  73.9    1  45  74  99
   2024 04 24 22:30  18 08 44.84    +39 26 56.2   145365 1.0062 103.6  m  14?  30.38  73.9    2  44  74  99
   2024 04 24 22:40  18 09 09.45    +39 28 17.1   145486 1.0062 103.5  m  14?  28.87  74.0    4  43  74  99
   2024 04 24 22:50  18 09 32.84    +39 29 33.1   145604 1.0062 103.5  m  14?  27.38  74.2    5  42  74  99
   2024 04 24 23:00  18 09 55.03    +39 30 44.1   145720 1.0062 103.4  m  14?  25.92  74.6    7  41  74  99
   2024 04 24 23:10  18 10 16.07    +39 31 49.5   145835 1.0062 103.3  m  14?  24.49  75.0    8  39  74  99
   2024 04 24 23:20  18 10 35.97    +39 32 49.2   145948 1.0062 103.3  m  14?  23.09  75.6   10  38  74  99
   2024 04 24 23:30  18 10 54.78    +39 33 42.8   146059 1.0062 103.2  m  14?  21.73  76.4   11  37  74  99
   2024 04 24 23:40  18 11 12.53    +39 34 30.1   146170 1.0062 103.2  m  14?  20.40  77.4   12  36  75  99
   2024 04 24 23:50  18 11 29.26    +39 35 10.6   146280 1.0062 103.1  m  14?  19.13  78.6   14  34  75  98
   2024 04 25 00:00  18 11 45.00    +39 35 44.3   146389 1.0062 103.1  m  14?  17.90  80.2   15  33  75  98
   2024 04 25 00:10  18 11 59.81    +39 36 10.7   146499 1.0062 103.0  m  14?  16.74  82.0   16  31  75  98
   2024 04 25 00:20  18 12 13.72    +39 36 29.7   146608 1.0062 103.0  m  14?  15.65  84.3   17  30  75  98
   2024 04 25 00:30  18 12 26.77    +39 36 40.9   146718 1.0062 102.9  m  14?  14.63  87.0   18  28  75  98
   2024 04 25 00:40  18 12 39.03    +39 36 44.2   146828 1.0062 102.9  m  14?  13.71  90.1   19  26  75  98
   2024 04 25 00:50  18 12 50.52    +39 36 39.4   146939 1.0062 102.9  m  14?  12.89  93.8   20  25  75  98
   2024 04 25 01:00  18 13 01.30    +39 36 26.2   147052 1.0062 102.9  m  14?  12.20  98.0   21  23  75  98
   2024 04 25 01:10  18 13 11.43    +39 36 04.5   147165 1.0062 102.8  m  14?  11.64 102.7   22  21  75  98
   2024 04 25 01:20  18 13 20.95    +39 35 34.1   147280 1.0062 102.8  m  14?  11.23 107.9   23  19  75  98
   2024 04 25 01:30  18 13 29.91    +39 34 54.8   147396 1.0062 102.8  m  14?  10.98 113.3   24  17  75  98
   2024 04 25 01:40  18 13 38.38    +39 34 06.5   147514 1.0062 102.8  m  14?  10.89 118.8   24  15  75  98
   2024 04 25 01:50  18 13 46.40    +39 33 09.1   147634 1.0062 102.8  m  14?  10.96 124.2   25  13  75  98
   2024 04 25 02:00  18 13 54.03    +39 32 02.5   147756 1.0062 102.8  m  14?  11.18 129.3   25  11  75  98
   2024 04 25 02:10  18 14 01.32    +39 30 46.6   147880 1.0062 102.8  m  14?  11.54 134.0   26   9  75  98
   2024 04 25 02:20  18 14 08.34    +39 29 21.4   148006 1.0062 102.8  m  14?  12.02 138.2   26   7  75  98
   2024 04 25 02:30  18 14 15.13    +39 27 46.8   148134 1.0062 102.7  m  14?  12.61 141.8   27   5  75  98
   2024 04 25 02:40  18 14 21.76    +39 26 02.7   148265 1.0062 102.7  m  14?  13.27 144.8   27   3  75  98
   2024 04 25 02:50  18 14 28.28    +39 24 09.2   148398 1.0062 102.7  m  14?  14.01 147.3   27   1  75  98
   2024 04 25 03:00  18 14 34.75    +39 22 06.3   148534 1.0062 102.7  t  14?  14.80 149.4   27 359  75  98
   2024 04 25 03:10  18 14 41.22    +39 19 54.1   148672 1.0062 102.8  m  14?  15.63 151.0   27 356  75  98
   2024 04 25 03:20  18 14 47.76    +39 17 32.5   148813 1.0062 102.8  m  14?  16.50 152.2   27 354  75  98
   2024 04 25 03:30  18 14 54.41    +39 15 01.6   148956 1.0062 102.8  m  14?  17.40 153.1   26 352  75  98
   2024 04 25 03:40  18 15 01.23    +39 12 21.6   149102 1.0062 102.8  m  14?  18.32 153.7   26 350  75  98
   2024 04 25 03:50  18 15 08.28    +39 09 32.6   149250 1.0062 102.8  m  14?  19.26 154.1   26 348  75  98
   2024 04 25 04:00  18 15 15.61    +39 06 34.6   149400 1.0062 102.8 Am  14?  20.22 154.2   25 346  75  98
   2024 04 25 04:10  18 15 23.27    +39 03 27.8   149553 1.0062 102.8 Am  14?  21.18 154.2   25 344  74  98
   2024 04 25 04:20  18 15 31.31    +39 00 12.4   149708 1.0062 102.8 Am  14?  22.16 154.1   24 342  74  98
   2024 04 25 04:30  18 15 39.79    +38 56 48.5   149865 1.0062 102.8 Nm  14?  23.15 153.7   24 340  74  98
   2024 04 25 04:40  18 15 48.75    +38 53 16.4   150024 1.0062 102.8 Nm  14?  24.15 153.3   23 338  74  98
   2024 04 25 04:50  18 15 58.24    +38 49 36.2   150185 1.0062 102.8 Cm  14?  25.15 152.8   22 336  74  98
   2024 04 25 05:00  18 16 08.30    +38 45 48.2   150347 1.0062 102.8 Cm  14?  26.16 152.2   21 334  74  98
   ................
   2024 04 25 23:20  19 40 29.32    +32 53 37.4   125503 1.0063  89.6  r  14?  50.25  95.3    0  53  79  96
   2024 04 25 23:30  19 41 08.60    +32 52 47.3   124699 1.0063  89.5  m  14?  49.22  95.9    1  53  79  96
   2024 04 25 23:40  19 41 47.02    +32 51 53.1   123889 1.0063  89.3  m  14?  48.19  96.6    2  52  80  95
   2024 04 25 23:50  19 42 24.58    +32 50 54.4   123074 1.0063  89.2  m  14?  47.19  97.3    4  51  80  95
   2024 04 26 00:00  19 43 01.29    +32 49 50.7   122254 1.0063  89.1  m  14?  46.22  98.1    6  50  80  95
   2024 04 26 00:10  19 43 37.17    +32 48 41.7   121429 1.0063  89.0  m  14?  45.27  99.0    7  48  80  95
   2024 04 26 00:20  19 44 12.21    +32 47 26.8   120599 1.0063  88.9  m  14?  44.37 100.0    9  47  80  95
   2024 04 26 00:30  19 44 46.44    +32 46 05.6   119765 1.0063  88.8  m  14?  43.50 101.0   11  46  80  95
   2024 04 26 00:40  19 45 19.88    +32 44 37.7   118926 1.0062  88.7  m  14?  42.68 102.2   12  45  80  95
   2024 04 26 00:50  19 45 52.54    +32 43 02.6   118084 1.0062  88.6  m  14?  41.92 103.4   14  44  80  95
   2024 04 26 01:00  19 46 24.45    +32 41 19.8   117237 1.0062  88.5  m  14?  41.22 104.8   15  42  80  95
   2024 04 26 01:10  19 46 55.63    +32 39 28.9   116387 1.0062  88.4  m  14?  40.59 106.3   17  41  80  95
   2024 04 26 01:20  19 47 26.11    +32 37 29.4   115533 1.0062  88.3  m  14?  40.04 107.8   18  39  80  95
   2024 04 26 01:30  19 47 55.91    +32 35 20.8   114676 1.0062  88.2  m  14?  39.57 109.5   20  38  80  95
   2024 04 26 01:40  19 48 25.07    +32 33 02.7   113815 1.0062  88.1  m  13?  39.19 111.2   21  36  80  95
   2024 04 26 01:50  19 48 53.63    +32 30 34.5   112951 1.0062  88.0  m  13?  38.91 113.0   22  35  80  95
   2024 04 26 02:00  19 49 21.61    +32 27 55.7   112084 1.0062  88.0  m  13?  38.73 114.9   24  33  80  95
   2024 04 26 02:10  19 49 49.07    +32 25 06.0   111214 1.0062  87.9  m  13?  38.66 116.8   25  31  80  95
   2024 04 26 02:20  19 50 16.05    +32 22 04.7   110342 1.0062  87.8  m  13?  38.71 118.7   26  29  80  95
   2024 04 26 02:30  19 50 42.58    +32 18 51.5   109466 1.0062  87.7  m  13?  38.88 120.7   27  27  80  95
   2024 04 26 02:40  19 51 08.72    +32 15 25.8   108588 1.0062  87.7  m  13?  39.17 122.6   28  26  80  95
   2024 04 26 02:50  19 51 34.52    +32 11 47.1   107707 1.0062  87.6  m  13?  39.59 124.5   29  23  80  95
   2024 04 26 03:00  19 52 00.04    +32 07 55.0   106824 1.0062  87.5  m  13?  40.14 126.3   30  21  80  95
   2024 04 26 03:10  19 52 25.32    +32 03 49.0   105938 1.0062  87.5  m  13?  40.82 128.1   31  19  80  95
   2024 04 26 03:20  19 52 50.44    +31 59 28.5   105049 1.0062  87.4  m  13?  41.63 129.9   32  17  80  95
   2024 04 26 03:30  19 53 15.44    +31 54 53.2   104157 1.0062  87.3  m  13?  42.56 131.5   32  15  80  95
   2024 04 26 03:40  19 53 40.40    +31 50 02.5   103263 1.0062  87.3  m  13?  43.63 133.0   33  12  80  95
   2024 04 26 03:50  19 54 05.39    +31 44 55.9   102365 1.0062  87.2  m  13?  44.82 134.4   34  10  80  95
   2024 04 26 04:00  19 54 30.47    +31 39 33.0   101465 1.0062  87.2 Am  13?  46.13 135.7   34   8  80  95
   2024 04 26 04:10  19 54 55.71    +31 33 53.4   100562 1.0062  87.1 Am  13?  47.57 136.9   34   5  80  95
   2024 04 26 04:20  19 55 21.20    +31 27 56.4    99655 1.0062  87.0 Am  13?  49.12 137.9   35   3  80  95
   2024 04 26 04:30  19 55 47.01    +31 21 41.7    98746 1.0062  87.0 Nm  13?  50.80 138.9   35   0  80  95
   2024 04 26 04:40  19 56 13.22    +31 15 08.8    97832 1.0062  86.9 Nt  13?  52.60 139.7   35 358  80  95
   2024 04 26 04:50  19 56 39.90    +31 08 17.3    96915 1.0062  86.9 Ce  13?  54.51 140.4   35 355  80  95
   2024 04 26 05:00  19 57 07.16    +31 01 06.5    95994 1.0062  86.8 Cm  13?  56.54 141.0   35 353  80  95
   ................
   2024 04 26 20:20  16 15 26.50    +42 07 49.8    70450 1.0067 117.8  m  13? 147.37  74.3    0  43  68  91
   2024 04 26 20:30  16 17 31.08    +42 14 12.7    71664 1.0067 117.5  m  13? 140.04  74.5    1  42  68  91
   2024 04 26 20:40  16 19 29.86    +42 20 09.9    72857 1.0067 117.2  m  13? 133.14  74.8    2  41  68  91
   2024 04 26 20:50  16 21 23.13    +42 25 42.9    74030 1.0067 117.0  m  13? 126.63  75.1    3  40  68  91
   2024 04 26 21:00  16 23 11.21    +42 30 52.6    75185 1.0067 116.7  m  13? 120.48  75.5    4  39  68  91
   2024 04 26 21:10  16 24 54.35    +42 35 40.1    76321 1.0067 116.5  m  13? 114.67  75.9    5  38  68  91
   2024 04 26 21:20  16 26 32.83    +42 40 06.2    77439 1.0067 116.2  m  13? 109.17  76.3    6  37  68  91
   2024 04 26 21:30  16 28 06.89    +42 44 11.7    78542 1.0067 116.0  m  13? 103.97  76.8    7  36  68  91
   2024 04 26 21:40  16 29 36.75    +42 47 57.2    79628 1.0067 115.8  m  13?  99.05  77.3    9  35  69  91
   2024 04 26 21:50  16 31 02.63    +42 51 23.2    80700 1.0067 115.6  m  13?  94.40  77.8   10  34  69  91
   2024 04 26 22:00  16 32 24.75    +42 54 30.4    81757 1.0067 115.4  m  13?  90.00  78.4   11  32  69  91
   2024 04 26 22:10  16 33 43.30    +42 57 19.2    82800 1.0067 115.2  m  13?  85.84  79.1   12  31  69  91
   2024 04 26 22:20  16 34 58.47    +42 59 49.9    83831 1.0067 115.1  m  13?  81.92  79.8   13  30  69  91
   2024 04 26 22:30  16 36 10.44    +43 02 03.0    84850 1.0068 114.9  m  13?  78.22  80.7   14  29  69  91
   2024 04 26 22:40  16 37 19.39    +43 03 58.9    85856 1.0068 114.8  m  14?  74.74  81.6   15  27  69  91
   2024 04 26 22:50  16 38 25.48    +43 05 37.8    86852 1.0068 114.6  m  14?  71.47  82.6   16  26  69  91
   2024 04 26 23:00  16 39 28.88    +43 07 00.0    87837 1.0068 114.5  m  14?  68.41  83.6   16  24  69  91
   2024 04 26 23:10  16 40 29.75    +43 08 05.8    88812 1.0068 114.3  m  14?  65.55  84.8   17  23  69  91
   2024 04 26 23:20  16 41 28.23    +43 08 55.5    89778 1.0068 114.2  m  14?  62.89  86.0   18  21  69  91
   2024 04 26 23:30  16 42 24.47    +43 09 29.3    90734 1.0068 114.1  m  14?  60.43  87.4   19  20  69  91
   2024 04 26 23:40  16 43 18.62    +43 09 47.5    91682 1.0068 114.0  m  14?  58.16  88.8   20  18  69  90
   2024 04 26 23:50  16 44 10.82    +43 09 50.4    92622 1.0068 113.9  m  14?  56.09  90.3   20  16  69  90
   2024 04 27 00:00  16 45 01.19    +43 09 38.1    93555 1.0068 113.8  m  14?  54.20  91.9   21  15  69  90
   2024 04 27 00:10  16 45 49.87    +43 09 10.9    94480 1.0068 113.7  m  14?  52.50  93.6   21  13  69  90
   2024 04 27 00:20  16 46 36.98    +43 08 29.1    95398 1.0068 113.6  m  14?  50.99  95.3   22  11  69  90
   2024 04 27 00:30  16 47 22.65    +43 07 32.9    96310 1.0068 113.6  m  14?  49.66  97.2   22  10  69  90
   2024 04 27 00:40  16 48 06.99    +43 06 22.5    97215 1.0068 113.5  m  14?  48.50  99.0   23   8  69  90
   2024 04 27 00:50  16 48 50.12    +43 04 58.3    98115 1.0068 113.4  m  14?  47.51 100.8   23   6  69  90
   2024 04 27 01:00  16 49 32.16    +43 03 20.5    99009 1.0068 113.4  m  14?  46.70 102.7   23   4  69  90
   2024 04 27 01:10  16 50 13.21    +43 01 29.5    99898 1.0068 113.3  m  14?  46.04 104.6   23   2  69  90
   2024 04 27 01:20  16 50 53.37    +42 59 25.3   100782 1.0068 113.3  m  14?  45.53 106.4   23   0  69  90
   2024 04 27 01:30  16 51 32.75    +42 57 08.5   101661 1.0068 113.2  t  14?  45.17 108.2   23 358  69  90
   2024 04 27 01:40  16 52 11.45    +42 54 39.2   102535 1.0068 113.2  m  14?  44.94 110.0   23 357  69  90
   2024 04 27 01:50  16 52 49.56    +42 51 57.9   103406 1.0068 113.1  m  14?  44.85 111.7   23 355  69  90
   2024 04 27 02:00  16 53 27.17    +42 49 04.8   104272 1.0068 113.1  m  14?  44.86 113.3   23 353  69  90
   2024 04 27 02:10  16 54 04.38    +42 46 00.3   105134 1.0068 113.1  m  14?  44.99 114.8   23 351  69  90
   2024 04 27 02:20  16 54 41.26    +42 42 44.7   105992 1.0068 113.0  m  14?  45.22 116.2   23 349  69  90
   2024 04 27 02:30  16 55 17.90    +42 39 18.4   106847 1.0068 113.0  m  14?  45.53 117.5   22 347  69  90
   2024 04 27 02:40  16 55 54.38    +42 35 41.7   107698 1.0068 113.0  m  14?  45.92 118.6   22 345  69  90
   2024 04 27 02:50  16 56 30.76    +42 31 55.1   108546 1.0068 112.9  m  14?  46.39 119.7   21 344  69  90
   2024 04 27 03:00  16 57 07.14    +42 27 58.8   109390 1.0068 112.9  m  14?  46.92 120.7   21 342  69  90
   2024 04 27 03:10  16 57 43.56    +42 23 53.4   110231 1.0068 112.9  m  14?  47.50 121.5   20 340  69  90
   2024 04 27 03:20  16 58 20.10    +42 19 39.2   111069 1.0068 112.9  m  14?  48.14 122.3   19 338  69  90
   2024 04 27 03:30  16 58 56.82    +42 15 16.6   111904 1.0068 112.8  m  14?  48.82 122.9   19 337  69  90
   2024 04 27 03:40  16 59 33.78    +42 10 46.0   112735 1.0068 112.8  m  14?  49.53 123.4   18 335  69  90
   2024 04 27 03:50  17 00 11.02    +42 06 07.8   113563 1.0068 112.8  m  14?  50.28 123.9   17 334  69  90
   2024 04 27 04:00  17 00 48.61    +42 01 22.5   114388 1.0068 112.8 Am  14?  51.05 124.2   16 332  69  90
   2024 04 27 04:10  17 01 26.59    +41 56 30.5   115210 1.0068 112.8 Am  14?  51.84 124.5   15 330  68  90
   2024 04 27 04:20  17 02 05.01    +41 51 32.1   116029 1.0068 112.7 Am  14?  52.66 124.7   14 329  68  90
   2024 04 27 04:30  17 02 43.91    +41 46 27.9   116844 1.0068 112.7 Nm  14?  53.49 124.8   13 328  68  90
   2024 04 27 04:40  17 03 23.33    +41 41 18.2   117655 1.0069 112.7 Nm  14?  54.33 124.9   12 326  68  90
   2024 04 27 04:50  17 04 03.30    +41 36 03.5   118463 1.0069 112.7 Cm  14?  55.18 124.9   11 325  68  90
   2024 04 27 05:00  17 04 43.86    +41 30 44.2   119268 1.0069 112.7 Cm  14?  56.04 124.8   10 323  68  90
   ................
   2024 04 27 22:30  18 38 57.04    +37 36 32.7   153070 1.0070 100.6  m  14?  29.18  78.2    0  47  67  84
   2024 04 27 22:40  18 39 20.54    +37 37 30.0   152888 1.0070 100.5  m  14?  27.83  78.3    2  46  67  84
   2024 04 27 22:50  18 39 42.95    +37 38 23.8   152703 1.0070 100.4  m  14?  26.49  78.5    3  45  67  84
   2024 04 27 23:00  18 40 04.28    +37 39 13.7   152517 1.0070 100.4  m  14?  25.17  78.9    5  44  67  84
   2024 04 27 23:10  18 40 24.56    +37 39 59.5   152328 1.0070 100.3  m  14?  23.86  79.3    7  43  67  84
   2024 04 27 23:20  18 40 43.81    +37 40 40.7   152139 1.0070 100.2  m  14?  22.58  79.9    8  42  67  84
   2024 04 27 23:30  18 41 02.04    +37 41 17.1   151948 1.0070 100.2  m  14?  21.32  80.7   10  41  67  84
   2024 04 27 23:40  18 41 19.28    +37 41 48.3   151756 1.0070 100.1  m  14?  20.10  81.7   11  39  67  84
   2024 04 27 23:50  18 41 35.57    +37 42 14.0   151563 1.0070 100.1  m  14?  18.91  82.9   12  38  67  84
   2024 04 28 00:00  18 41 50.93    +37 42 33.9   151370 1.0070 100.0  m  14?  17.76  84.4   14  37  67  84
   

James Webb Space Telescope (JPL-ID: -170)

   Date (UTC) HH:MM   RA              Dec         delta   r     elong SM  mag  '/hr    PA   alt  az moo ill
   ---- -- -- -----  -------------   -----------  ------ ------ ----- --  --- ------ ------ --- --- --- ---
   2024 04 14 00:00  15 13 33.48    -06 55 04.5   0.0089 1.0111 154.1     15?   2.32 184.1   71  31 132  31
   2024 04 14 00:10  15 13 33.35    -06 55 27.5   0.0089 1.0111 154.1     15?   2.30 184.8   72  24 132  31
   2024 04 14 00:20  15 13 33.21    -06 55 50.3   0.0090 1.0111 154.1     15?   2.28 185.3   73  16 132  31
   2024 04 14 00:30  15 13 33.06    -06 56 12.9   0.0090 1.0111 154.1     15?   2.26 185.6   73   7 132  31
   2024 04 14 00:40  15 13 32.91    -06 56 35.2   0.0090 1.0111 154.1  t  15?   2.24 185.8   73 358 132  31
   2024 04 14 00:50  15 13 32.75    -06 56 57.4   0.0090 1.0111 154.2     15?   2.22 185.7   73 349 132  32
   2024 04 14 01:00  15 13 32.61    -06 57 19.3   0.0090 1.0111 154.2     15?   2.19 185.4   73 341 132  32
   2024 04 14 01:10  15 13 32.47    -06 57 41.1   0.0090 1.0111 154.2     15?   2.17 185.0   72 333 132  32
   2024 04 14 01:20  15 13 32.35    -06 58 02.6   0.0090 1.0111 154.2     15?   2.15 184.3   71 326 132  32
   2024 04 14 01:30  15 13 32.25    -06 58 23.9   0.0090 1.0111 154.2     15?   2.12 183.4   69 320 132  32
   2024 04 14 01:40  15 13 32.17    -06 58 45.0   0.0090 1.0111 154.2     15?   2.10 182.3   68 315 131  32
   2024 04 14 01:50  15 13 32.13    -06 59 05.9   0.0090 1.0111 154.2     15?   2.08 181.0   66 310 131  32
   2024 04 14 02:00  15 13 32.12    -06 59 26.6   0.0090 1.0111 154.2     15?   2.06 179.4   64 306 131  32
   2024 04 14 02:10  15 13 32.15    -06 59 47.1   0.0090 1.0111 154.2     15?   2.04 177.6   62 302 131  32
   2024 04 14 02:20  15 13 32.23    -07 00 07.4   0.0090 1.0111 154.2     15?   2.02 175.6   60 299 131  32
   2024 04 14 02:30  15 13 32.35    -07 00 27.5   0.0090 1.0111 154.2     15?   2.01 173.4   58 296 131  32
   2024 04 14 02:40  15 13 32.53    -07 00 47.3   0.0090 1.0111 154.2     15?   2.00 170.9   56 294 131  33
   2024 04 14 02:50  15 13 32.77    -07 01 07.1   0.0090 1.0111 154.2     15?   2.00 168.3   54 291 131  33
   2024 04 14 03:00  15 13 33.07    -07 01 26.6   0.0090 1.0111 154.2     15?   2.01 165.5   52 289 131  33
   2024 04 14 03:10  15 13 33.44    -07 01 45.9   0.0090 1.0111 154.2     15?   2.02 162.5   50 287 130  33
   2024 04 14 03:20  15 13 33.88    -07 02 05.1   0.0090 1.0111 154.3     15?   2.04 159.5   47 285 130  33
   2024 04 14 03:30  15 13 34.40    -07 02 24.1   0.0090 1.0111 154.3     15?   2.06 156.3   45 284 130  33
   2024 04 14 03:40  15 13 34.99    -07 02 43.0   0.0090 1.0111 154.3     15?   2.10 153.2   43 282 130  33
   2024 04 14 03:50  15 13 35.67    -07 03 01.7   0.0090 1.0111 154.3     15?   2.15 150.0   41 281 130  33
   2024 04 14 04:00  15 13 36.43    -07 03 20.2   0.0090 1.0111 154.3 A   15?   2.20 146.9   39 279 130  33
   2024 04 14 04:10  15 13 37.28    -07 03 38.6   0.0090 1.0111 154.3 A   15?   2.27 143.8   36 278 130  33
   2024 04 14 04:20  15 13 38.22    -07 03 56.9   0.0090 1.0111 154.3 N   15?   2.34 140.9   34 277 130  34
   2024 04 14 04:30  15 13 39.26    -07 04 15.1   0.0090 1.0111 154.3 N   15?   2.43 138.1   32 276 130  34
   2024 04 14 04:40  15 13 40.39    -07 04 33.1   0.0090 1.0111 154.3 N   15?   2.52 135.4   29 275 129  34
   2024 04 14 04:50  15 13 41.63    -07 04 51.0   0.0090 1.0111 154.3 C   15?   2.62 132.9   27 274 129  34
   2024 04 14 05:00  15 13 42.96    -07 05 08.8   0.0090 1.0111 154.3 C   15?   2.73 130.5   25 273 129  34
   ................
   2024 04 14 18:30  15 18 57.65    -07 34 11.9   0.0090 1.0113 153.5  m  15?   4.70 125.3    0  98 124  39
   2024 04 14 18:40  15 19 00.17    -07 34 39.2   0.0090 1.0113 153.5  m  15?   4.56 126.5    2  97 124  39
   2024 04 14 18:50  15 19 02.57    -07 35 06.4   0.0090 1.0113 153.5  m  15?   4.43 127.8    5  96 124  39
   2024 04 14 19:00  15 19 04.86    -07 35 33.6   0.0090 1.0113 153.5  m  15?   4.29 129.2    7  95 124  39
   2024 04 14 19:10  15 19 07.03    -07 36 00.8   0.0090 1.0113 153.5  m  15?   4.16 130.7    9  94 124  39
   2024 04 14 19:20  15 19 09.10    -07 36 28.0   0.0090 1.0113 153.5  m  15?   4.03 132.2   11  93 124  39
   2024 04 14 19:30  15 19 11.04    -07 36 55.2   0.0090 1.0113 153.5  m  15?   3.91 133.8   14  92 124  39
   2024 04 14 19:40  15 19 12.88    -07 37 22.3   0.0090 1.0113 153.5  m  15?   3.79 135.5   16  91 124  39
   2024 04 14 19:50  15 19 14.61    -07 37 49.4   0.0090 1.0113 153.5  m  15?   3.67 137.3   18  90 124  39
   2024 04 14 20:00  15 19 16.22    -07 38 16.4   0.0090 1.0113 153.5  m  15?   3.56 139.1   21  89 124  39
   2024 04 14 20:10  15 19 17.73    -07 38 43.3   0.0090 1.0113 153.5  m  15?   3.45 141.1   23  88 124  39
   2024 04 14 20:20  15 19 19.13    -07 39 10.1   0.0090 1.0113 153.5  m  15?   3.35 143.1   25  87 124  39
   2024 04 14 20:30  15 19 20.43    -07 39 36.9   0.0090 1.0113 153.5  m  15?   3.25 145.1   27  86 124  39
   2024 04 14 20:40  15 19 21.62    -07 40 03.5   0.0090 1.0113 153.5  m  15?   3.16 147.3   30  85 124  40
   2024 04 14 20:50  15 19 22.71    -07 40 30.1   0.0090 1.0113 153.5  m  15?   3.07 149.5   32  84 124  40
   2024 04 14 21:00  15 19 23.71    -07 40 56.5   0.0090 1.0113 153.5  m  15?   2.99 151.7   34  83 123  40
   2024 04 14 21:10  15 19 24.61    -07 41 22.8   0.0090 1.0114 153.6  m  15?   2.91 154.0   37  81 123  40
   2024 04 14 21:20  15 19 25.42    -07 41 48.9   0.0090 1.0114 153.6  m  15?   2.85 156.3   39  80 123  40
   2024 04 14 21:30  15 19 26.14    -07 42 14.9   0.0090 1.0114 153.6  m  15?   2.78 158.6   41  79 123  40
   2024 04 14 21:40  15 19 26.78    -07 42 40.8   0.0090 1.0114 153.6  m  15?   2.72 160.9   43  77 123  40
   2024 04 14 21:50  15 19 27.33    -07 43 06.5   0.0090 1.0114 153.6     15?   2.67 163.2   46  76 123  40
   2024 04 14 22:00  15 19 27.81    -07 43 32.0   0.0090 1.0114 153.6     15?   2.63 165.5   48  74 123  40
   2024 04 14 22:10  15 19 28.21    -07 43 57.3   0.0090 1.0114 153.6     15?   2.58 167.7   50  73 123  40
   2024 04 14 22:20  15 19 28.54    -07 44 22.5   0.0090 1.0114 153.6     15?   2.55 169.9   52  71 123  40
   2024 04 14 22:30  15 19 28.80    -07 44 47.5   0.0090 1.0114 153.6     15?   2.51 172.0   55  69 123  40
   2024 04 14 22:40  15 19 29.00    -07 45 12.3   0.0090 1.0114 153.6     15?   2.48 174.0   57  66 123  40
   2024 04 14 22:50  15 19 29.15    -07 45 36.8   0.0090 1.0114 153.6     15?   2.45 175.9   59  64 123  40
   2024 04 14 23:00  15 19 29.23    -07 46 01.2   0.0090 1.0114 153.6     15?   2.43 177.6   61  61 123  40
   2024 04 14 23:10  15 19 29.27    -07 46 25.4   0.0090 1.0114 153.6     15?   2.41 179.3   63  58 123  41
   2024 04 14 23:20  15 19 29.27    -07 46 49.3   0.0090 1.0114 153.6     15?   2.38 180.8   65  54 122  41
   2024 04 14 23:30  15 19 29.22    -07 47 13.0   0.0090 1.0114 153.6     15?   2.36 182.1   67  50 122  41
   2024 04 14 23:40  15 19 29.14    -07 47 36.5   0.0090 1.0114 153.6     15?   2.34 183.4   68  45 122  41
   2024 04 14 23:50  15 19 29.03    -07 47 59.8   0.0090 1.0114 153.6     15?   2.32 184.4   70  40 122  41
   2024 04 15 00:00  15 19 28.89    -07 48 22.9   0.0090 1.0114 153.7     15?   2.30 185.3   71  34 122  41
   2024 04 15 00:10  15 19 28.74    -07 48 45.7   0.0090 1.0114 153.7     15?   2.28 186.0   72  26 122  41
   2024 04 15 00:20  15 19 28.56    -07 49 08.3   0.0090 1.0114 153.7     15?   2.26 186.6   73  18 122  41
   2024 04 15 00:30  15 19 28.38    -07 49 30.6   0.0090 1.0114 153.7     15?   2.24 187.0   74   9 122  41
   2024 04 15 00:40  15 19 28.19    -07 49 52.7   0.0090 1.0114 153.7     15?   2.22 187.2   74   0 122  41
   2024 04 15 00:50  15 19 28.00    -07 50 14.6   0.0090 1.0114 153.7  t  15?   2.19 187.1   74 351 122  41
   2024 04 15 01:00  15 19 27.82    -07 50 36.2   0.0090 1.0114 153.7     15?   2.17 187.0   74 342 121  41
   2024 04 15 01:10  15 19 27.65    -07 50 57.6   0.0090 1.0114 153.7     15?   2.14 186.5   73 334 121  42
   2024 04 15 01:20  15 19 27.49    -07 51 18.7   0.0090 1.0114 153.7     15?   2.12 185.9   72 326 121  42
   2024 04 15 01:30  15 19 27.34    -07 51 39.7   0.0090 1.0114 153.7     15?   2.09 185.1   70 320 121  42
   2024 04 15 01:40  15 19 27.23    -07 52 00.3   0.0090 1.0114 153.7     15?   2.06 184.1   69 314 121  42
   2024 04 15 01:50  15 19 27.14    -07 52 20.8   0.0090 1.0114 153.7     15?   2.04 182.8   67 309 121  42
   2024 04 15 02:00  15 19 27.09    -07 52 41.0   0.0090 1.0114 153.7     15?   2.01 181.2   65 305 121  42
   2024 04 15 02:10  15 19 27.08    -07 53 01.0   0.0090 1.0114 153.8     15?   1.99 179.5   63 301 121  42
   2024 04 15 02:20  15 19 27.11    -07 53 20.8   0.0090 1.0114 153.8     15?   1.97 177.5   61 298 121  42
   2024 04 15 02:30  15 19 27.19    -07 53 40.4   0.0090 1.0114 153.8     15?   1.95 175.2   59 295 121  42
   2024 04 15 02:40  15 19 27.32    -07 53 59.7   0.0090 1.0114 153.8     15?   1.94 172.8   57 293 120  42
   2024 04 15 02:50  15 19 27.51    -07 54 18.8   0.0090 1.0114 153.8     15?   1.93 170.1   55 290 120  42
   2024 04 15 03:00  15 19 27.76    -07 54 37.8   0.0090 1.0114 153.8     15?   1.93 167.2   53 288 120  43
   2024 04 15 03:10  15 19 28.08    -07 54 56.5   0.0090 1.0114 153.8     15?   1.93 164.2   51 286 120  43
   2024 04 15 03:20  15 19 28.47    -07 55 15.0   0.0090 1.0114 153.8     15?   1.95 161.0   48 285 120  43
   2024 04 15 03:30  15 19 28.93    -07 55 33.4   0.0090 1.0114 153.8     15?   1.97 157.7   46 283 120  43
   2024 04 15 03:40  15 19 29.47    -07 55 51.5   0.0090 1.0114 153.8     15?   2.00 154.4   44 281 120  43
   2024 04 15 03:50  15 19 30.09    -07 56 09.5   0.0090 1.0114 153.8     15?   2.04 151.1   42 280 120  43
   2024 04 15 04:00  15 19 30.79    -07 56 27.4   0.0090 1.0114 153.8 A   15?   2.09 147.8   39 279 120  43
   2024 04 15 04:10  15 19 31.58    -07 56 45.0   0.0090 1.0114 153.8 A   15?   2.15 144.6   37 277 119  43
   2024 04 15 04:20  15 19 32.47    -07 57 02.6   0.0091 1.0114 153.8 N   15?   2.23 141.5   35 276 119  43
   2024 04 15 04:30  15 19 33.44    -07 57 19.9   0.0091 1.0114 153.8 N   15?   2.31 138.5   32 275 119  43
   2024 04 15 04:40  15 19 34.52    -07 57 37.2   0.0091 1.0114 153.8 N   15?   2.39 135.7   30 274 119  44
   2024 04 15 04:50  15 19 35.69    -07 57 54.3   0.0091 1.0114 153.8 C   15?   2.49 133.1   28 273 119  44
   2024 04 15 05:00  15 19 36.96    -07 58 11.3   0.0091 1.0115 153.8 C   15?   2.60 130.6   26 272 119  44
   ................
   2024 04 15 18:30  15 24 46.69    -08 26 39.7   0.0091 1.0116 153.1  m  15?   4.67 125.8    0  99 114  49
   2024 04 15 18:40  15 24 49.18    -08 27 07.2   0.0091 1.0116 153.1  m  15?   4.53 127.1    2  98 114  49
   2024 04 15 18:50  15 24 51.56    -08 27 34.6   0.0091 1.0116 153.1  m  15?   4.40 128.4    4  97 114  49
   2024 04 15 19:00  15 24 53.82    -08 28 02.0   0.0091 1.0116 153.1  m  15?   4.27 129.8    7  96 114  49
   2024 04 15 19:10  15 24 55.97    -08 28 29.4   0.0091 1.0116 153.1  m  15?   4.14 131.3    9  95 114  49
   2024 04 15 19:20  15 24 58.00    -08 28 56.8   0.0091 1.0116 153.1  m  15?   4.01 132.8   11  94 114  49
   2024 04 15 19:30  15 24 59.93    -08 29 24.2   0.0091 1.0116 153.1  m  15?   3.89 134.5   14  93 113  49
   2024 04 15 19:40  15 25 01.74    -08 29 51.5   0.0091 1.0116 153.1  m  15?   3.77 136.2   16  92 113  49
   2024 04 15 19:50  15 25 03.44    -08 30 18.8   0.0091 1.0116 153.1  m  15?   3.66 138.0   18  91 113  49
   2024 04 15 20:00  15 25 05.03    -08 30 45.9   0.0091 1.0116 153.1  m  15?   3.55 139.8   20  90 113  49
   2024 04 15 20:10  15 25 06.51    -08 31 13.1   0.0091 1.0116 153.1  m  15?   3.44 141.7   23  89 113  49
   2024 04 15 20:20  15 25 07.89    -08 31 40.1   0.0091 1.0116 153.1  m  15?   3.34 143.8   25  88 113  49
   2024 04 15 20:30  15 25 09.17    -08 32 07.0   0.0091 1.0117 153.1  m  15?   3.24 145.8   27  87 113  50
   2024 04 15 20:40  15 25 10.34    -08 32 33.8   0.0091 1.0117 153.1  m  15?   3.15 148.0   30  86 113  50
   2024 04 15 20:50  15 25 11.41    -08 33 00.5   0.0091 1.0117 153.1  m  15?   3.06 150.2   32  85 113  50
   2024 04 15 21:00  15 25 12.38    -08 33 27.0   0.0091 1.0117 153.1  m  15?   2.98 152.4   34  84 113  50
   2024 04 15 21:10  15 25 13.26    -08 33 53.4   0.0091 1.0117 153.1  m  15?   2.91 154.7   37  83 113  50
   2024 04 15 21:20  15 25 14.05    -08 34 19.7   0.0091 1.0117 153.1  m  15?   2.84 157.0   39  81 113  50
   2024 04 15 21:30  15 25 14.75    -08 34 45.8   0.0091 1.0117 153.1  m  15?   2.78 159.4   41  80 113  50
   2024 04 15 21:40  15 25 15.36    -08 35 11.7   0.0091 1.0117 153.1  m  15?   2.72 161.7   43  79 113  50
   2024 04 15 21:50  15 25 15.89    -08 35 37.5   0.0091 1.0117 153.1  m  15?   2.67 164.0   46  77 113  50
   2024 04 15 22:00  15 25 16.34    -08 36 03.1   0.0091 1.0117 153.1  m  15?   2.62 166.3   48  76 113  50
   2024 04 15 22:10  15 25 16.72    -08 36 28.4   0.0091 1.0117 153.1  m  15?   2.58 168.5   50  74 113  50
   2024 04 15 22:20  15 25 17.03    -08 36 53.6   0.0091 1.0117 153.1  m  15?   2.54 170.7   52  72 113  50
   2024 04 15 22:30  15 25 17.27    -08 37 18.6   0.0091 1.0117 153.2  m  15?   2.51 172.8   55  70 112  50
   2024 04 15 22:40  15 25 17.44    -08 37 43.3   0.0091 1.0117 153.2  m  15?   2.47 174.8   57  68 112  50
   2024 04 15 22:50  15 25 17.56    -08 38 07.9   0.0091 1.0117 153.2     15?   2.45 176.7   59  66 112  50
   2024 04 15 23:00  15 25 17.62    -08 38 32.2   0.0091 1.0117 153.2     15?   2.42 178.5   61  63 112  50
   2024 04 15 23:10  15 25 17.64    -08 38 56.3   0.0091 1.0117 153.2     15?   2.40 180.2   63  60 112  50
   2024 04 15 23:20  15 25 17.61    -08 39 20.1   0.0091 1.0117 153.2     15?   2.37 181.7   65  57 112  51
   2024 04 15 23:30  15 25 17.53    -08 39 43.7   0.0091 1.0117 153.2     15?   2.35 183.1   67  53 112  51
   2024 04 15 23:40  15 25 17.42    -08 40 07.1   0.0091 1.0117 153.2     15?   2.33 184.4   69  48 112  51
   2024 04 15 23:50  15 25 17.29    -08 40 30.2   0.0091 1.0117 153.2     15?   2.31 185.5   70  43 112  51
   2024 04 16 00:00  15 25 17.12    -08 40 53.0   0.0091 1.0117 153.2     15?   2.29 186.4   72  36 112  51
   2024 04 16 00:10  15 25 16.93    -08 41 15.6   0.0091 1.0117 153.2     15?   2.27 187.2   73  29 112  51
   2024 04 16 00:20  15 25 16.73    -08 41 38.0   0.0091 1.0117 153.2     15?   2.24 187.8   74  21 112  51
   2024 04 16 00:30  15 25 16.51    -08 42 00.0   0.0091 1.0117 153.2     15?   2.22 188.3   75  12 112  51
   2024 04 16 00:40  15 25 16.29    -08 42 21.9   0.0091 1.0117 153.2     15?   2.19 188.5   75   2 111  51
   2024 04 16 00:50  15 25 16.07    -08 42 43.4   0.0091 1.0117 153.3  t  15?   2.17 188.6   75 352 111  51
   2024 04 16 01:00  15 25 15.85    -08 43 04.7   0.0091 1.0117 153.3     15?   2.14 188.4   74 343 111  51
   2024 04 16 01:10  15 25 15.64    -08 43 25.8   0.0091 1.0117 153.3     15?   2.11 188.1   74 334 111  51
   2024 04 16 01:20  15 25 15.44    -08 43 46.5   0.0091 1.0117 153.3     15?   2.08 187.5   72 326 111  51
   2024 04 16 01:30  15 25 15.27    -08 44 07.0   0.0091 1.0117 153.3     15?   2.05 186.8   71 319 111  52
   2024 04 16 01:40  15 25 15.11    -08 44 27.3   0.0091 1.0117 153.3     15?   2.02 185.8   70 313 111  52
   2024 04 16 01:50  15 25 14.99    -08 44 47.3   0.0091 1.0117 153.3     15?   1.99 184.5   68 308 111  52
   2024 04 16 02:00  15 25 14.89    -08 45 07.0   0.0091 1.0117 153.3     15?   1.97 183.1   66 304 111  52
   2024 04 16 02:10  15 25 14.84    -08 45 26.5   0.0091 1.0117 153.3     15?   1.94 181.3   64 300 111  52
   2024 04 16 02:20  15 25 14.83    -08 45 45.8   0.0091 1.0117 153.3     15?   1.91 179.3   62 297 110  52
   2024 04 16 02:30  15 25 14.86    -08 46 04.8   0.0091 1.0117 153.3     15?   1.89 177.1   60 294 110  52
   2024 04 16 02:40  15 25 14.95    -08 46 23.6   0.0091 1.0117 153.3     15?   1.87 174.6   58 292 110  52
   2024 04 16 02:50  15 25 15.09    -08 46 42.1   0.0091 1.0117 153.3     15?   1.86 171.9   56 289 110  52
   2024 04 16 03:00  15 25 15.30    -08 47 00.4   0.0091 1.0117 153.3     15?   1.85 169.0   54 287 110  52
   2024 04 16 03:10  15 25 15.57    -08 47 18.5   0.0091 1.0117 153.4     15?   1.85 165.8   51 285 110  52
   2024 04 16 03:20  15 25 15.90    -08 47 36.4   0.0091 1.0117 153.4     15?   1.86 162.6   49 284 110  53
   2024 04 16 03:30  15 25 16.31    -08 47 54.1   0.0091 1.0117 153.4     15?   1.88 159.2   47 282 110  53
   2024 04 16 03:40  15 25 16.80    -08 48 11.6   0.0091 1.0117 153.4     15?   1.91 155.7   45 281 110  53
   2024 04 16 03:50  15 25 17.37    -08 48 28.9   0.0091 1.0117 153.4     15?   1.94 152.2   42 279 109  53
   2024 04 16 04:00  15 25 18.02    -08 48 46.0   0.0091 1.0117 153.4 A   15?   1.99 148.7   40 278 109  53
   2024 04 16 04:10  15 25 18.75    -08 49 02.9   0.0091 1.0118 153.4 A   15?   2.04 145.4   38 277 109  53
   2024 04 16 04:20  15 25 19.58    -08 49 19.7   0.0091 1.0118 153.4 N   15?   2.11 142.1   36 275 109  53
   2024 04 16 04:30  15 25 20.50    -08 49 36.3   0.0091 1.0118 153.4 N   15?   2.19 139.0   33 274 109  53
   2024 04 16 04:40  15 25 21.51    -08 49 52.8   0.0091 1.0118 153.4 N   15?   2.27 136.0   31 273 109  53
   2024 04 16 04:50  15 25 22.63    -08 50 09.1   0.0091 1.0118 153.4 C   15?   2.37 133.2   29 272 109  53
   2024 04 16 05:00  15 25 23.84    -08 50 25.3   0.0091 1.0118 153.4 C   15?   2.47 130.6   26 271 109  54
   ................
   2024 04 16 18:30  15 30 28.79    -09 18 17.2   0.0092 1.0119 152.7  m  15?   4.64 126.3    0 100 103  59
   2024 04 16 18:40  15 30 31.25    -09 18 44.8   0.0092 1.0119 152.7  m  15?   4.51 127.6    2  99 103  59
   2024 04 16 18:50  15 30 33.60    -09 19 12.4   0.0092 1.0119 152.7  m  15?   4.37 129.0    4  98 103  59
   2024 04 16 19:00  15 30 35.84    -09 19 40.0   0.0092 1.0119 152.7  m  15?   4.24 130.4    7  97 103  59
   2024 04 16 19:10  15 30 37.96    -09 20 07.6   0.0092 1.0119 152.7  m  15?   4.12 131.9    9  96 103  59
   2024 04 16 19:20  15 30 39.97    -09 20 35.1   0.0092 1.0119 152.7  m  15?   3.99 133.4   11  95 103  59
   2024 04 16 19:30  15 30 41.87    -09 21 02.7   0.0092 1.0119 152.7  m  15?   3.87 135.1   14  94 103  59
   2024 04 16 19:40  15 30 43.66    -09 21 30.1   0.0092 1.0120 152.7  m  15?   3.75 136.8   16  93 103  59
   2024 04 16 19:50  15 30 45.33    -09 21 57.5   0.0092 1.0120 152.7  m  15?   3.64 138.6   18  92 103  59
   2024 04 16 20:00  15 30 46.90    -09 22 24.9   0.0092 1.0120 152.7  m  15?   3.53 140.5   20  91 103  59
   2024 04 16 20:10  15 30 48.36    -09 22 52.1   0.0092 1.0120 152.7  m  15?   3.43 142.4   23  90 103  59
   2024 04 16 20:20  15 30 49.72    -09 23 19.3   0.0092 1.0120 152.7  m  15?   3.33 144.4   25  89 103  59
   2024 04 16 20:30  15 30 50.97    -09 23 46.3   0.0092 1.0120 152.7  m  15?   3.23 146.5   27  88 103  59
   2024 04 16 20:40  15 30 52.11    -09 24 13.2   0.0092 1.0120 152.7  m  15?   3.14 148.7   30  87 103  59
   2024 04 16 20:50  15 30 53.16    -09 24 40.0   0.0092 1.0120 152.7  m  15?   3.05 150.9   32  86 103  59
   2024 04 16 21:00  15 30 54.11    -09 25 06.7   0.0092 1.0120 152.7  m  15?   2.98 153.1   34  85 103  59
   2024 04 16 21:10  15 30 54.97    -09 25 33.2   0.0092 1.0120 152.7  m  15?   2.90 155.4   36  84 103  60
   2024 04 16 21:20  15 30 55.74    -09 25 59.5   0.0092 1.0120 152.7  m  15?   2.83 157.7   39  83 103  60
   2024 04 16 21:30  15 30 56.41    -09 26 25.7   0.0092 1.0120 152.7  m  15?   2.77 160.1   41  81 103  60
   2024 04 16 21:40  15 30 57.00    -09 26 51.6   0.0092 1.0120 152.7  m  15?   2.71 162.4   43  80 103  60
   2024 04 16 21:50  15 30 57.51    -09 27 17.4   0.0092 1.0120 152.7  m  15?   2.66 164.7   46  79 102  60
   2024 04 16 22:00  15 30 57.94    -09 27 43.0   0.0092 1.0120 152.7  m  15?   2.61 167.0   48  77 102  60
   2024 04 16 22:10  15 30 58.30    -09 28 08.4   0.0092 1.0120 152.7  m  15?   2.57 169.3   50  76 102  60
   2024 04 16 22:20  15 30 58.58    -09 28 33.6   0.0092 1.0120 152.7  m  15?   2.53 171.5   52  74 102  60
   2024 04 16 22:30  15 30 58.80    -09 28 58.5   0.0092 1.0120 152.7  m  15?   2.50 173.6   55  72 102  60
   2024 04 16 22:40  15 30 58.95    -09 29 23.2   0.0092 1.0120 152.7  m  15?   2.47 175.6   57  70 102  60
   2024 04 16 22:50  15 30 59.04    -09 29 47.7   0.0092 1.0120 152.7  m  15?   2.44 177.6   59  68 102  60
   2024 04 16 23:00  15 30 59.08    -09 30 11.9   0.0092 1.0120 152.8  m  15?   2.41 179.4   61  65 102  60
   2024 04 16 23:10  15 30 59.07    -09 30 35.9   0.0092 1.0120 152.8  m  15?   2.39 181.1   63  62 102  60
   2024 04 16 23:20  15 30 59.01    -09 30 59.6   0.0092 1.0120 152.8  m  15?   2.36 182.7   65  59 102  60
   2024 04 16 23:30  15 30 58.91    -09 31 23.1   0.0092 1.0120 152.8  m  15?   2.34 184.1   67  55 102  60
   2024 04 16 23:40  15 30 58.78    -09 31 46.3   0.0092 1.0120 152.8     15?   2.32 185.4   69  51 102  60
   2024 04 16 23:50  15 30 58.61    -09 32 09.2   0.0092 1.0120 152.8     15?   2.29 186.6   71  45 102  60
   2024 04 17 00:00  15 30 58.42    -09 32 31.8   0.0092 1.0120 152.8     15?   2.27 187.5   72  39 102  60
   2024 04 17 00:10  15 30 58.20    -09 32 54.2   0.0092 1.0120 152.8     15?   2.25 188.4   74  32 102  61
   2024 04 17 00:20  15 30 57.97    -09 33 16.2   0.0092 1.0120 152.8     15?   2.22 189.0   75  24 101  61
   2024 04 17 00:30  15 30 57.72    -09 33 38.0   0.0092 1.0120 152.8     15?   2.20 189.5   75  14 101  61
   2024 04 17 00:40  15 30 57.47    -09 33 59.6   0.0092 1.0120 152.8     15?   2.17 189.8   76   4 101  61
   2024 04 17 00:50  15 30 57.21    -09 34 20.8   0.0092 1.0120 152.8  t  15?   2.14 190.0   76 353 101  61
   2024 04 17 01:00  15 30 56.96    -09 34 41.7   0.0092 1.0120 152.8     15?   2.11 189.9   75 343 101  61
   2024 04 17 01:10  15 30 56.72    -09 35 02.4   0.0092 1.0120 152.9     15?   2.08 189.6   75 334 101  61
   2024 04 17 01:20  15 30 56.49    -09 35 22.8   0.0092 1.0120 152.9     15?   2.05 189.1   73 326 101  61
   2024 04 17 01:30  15 30 56.27    -09 35 42.9   0.0092 1.0120 152.9     15?   2.02 188.4   72 319 101  61
   2024 04 17 01:40  15 30 56.08    -09 36 02.7   0.0092 1.0120 152.9     15?   1.99 187.5   70 313 101  61
   2024 04 17 01:50  15 30 55.92    -09 36 22.2   0.0092 1.0120 152.9     15?   1.95 186.3   69 307 101  61
   2024 04 17 02:00  15 30 55.79    -09 36 41.5   0.0092 1.0120 152.9     15?   1.92 184.9   67 303 101  61
   2024 04 17 02:10  15 30 55.69    -09 37 00.5   0.0092 1.0120 152.9     15?   1.89 183.2   65 299 100  61
   2024 04 17 02:20  15 30 55.64    -09 37 19.2   0.0092 1.0120 152.9     15?   1.86 181.2   63 296 100  62
   2024 04 17 02:30  15 30 55.63    -09 37 37.7   0.0092 1.0120 152.9     15?   1.83 179.0   61 293 100  62
   2024 04 17 02:40  15 30 55.68    -09 37 55.9   0.0092 1.0120 152.9     15?   1.81 176.5   59 291 100  62
   2024 04 17 02:50  15 30 55.78    -09 38 13.8   0.0092 1.0120 152.9     15?   1.79 173.8   56 288 100  62
   2024 04 17 03:00  15 30 55.94    -09 38 31.5   0.0092 1.0120 152.9     15?   1.78 170.8   54 286 100  62
   2024 04 17 03:10  15 30 56.16    -09 38 49.0   0.0092 1.0120 152.9     15?   1.78 167.5   52 284 100  62
   2024 04 17 03:20  15 30 56.45    -09 39 06.3   0.0092 1.0121 152.9     15?   1.78 164.1   50 283 100  62
   2024 04 17 03:30  15 30 56.81    -09 39 23.3   0.0092 1.0121 153.0     15?   1.79 160.6   48 281 100  62
   2024 04 17 03:40  15 30 57.25    -09 39 40.1   0.0092 1.0121 153.0     15?   1.81 157.0   45 280  99  62
   2024 04 17 03:50  15 30 57.76    -09 39 56.7   0.0092 1.0121 153.0     15?   1.84 153.3   43 278  99  62
   2024 04 17 04:00  15 30 58.36    -09 40 13.0   0.0092 1.0121 153.0 A   15?   1.88 149.7   41 277  99  62
   2024 04 17 04:10  15 30 59.05    -09 40 29.2   0.0092 1.0121 153.0 A   15?   1.94 146.1   39 276  99  63
   2024 04 17 04:20  15 30 59.82    -09 40 45.3   0.0092 1.0121 153.0 N   15?   2.00 142.6   36 275  99  63
   2024 04 17 04:30  15 31 00.68    -09 41 01.1   0.0092 1.0121 153.0 N   15?   2.07 139.3   34 274  99  63
   2024 04 17 04:40  15 31 01.64    -09 41 16.8   0.0092 1.0121 153.0 N   15?   2.16 136.2   32 272  99  63
   2024 04 17 04:50  15 31 02.70    -09 41 32.3   0.0092 1.0121 153.0 C   15?   2.25 133.3   29 271  99  63
   2024 04 17 05:00  15 31 03.85    -09 41 47.7   0.0092 1.0121 153.0 C   15?   2.35 130.5   27 270  99  63
   ................
   2024 04 17 18:30  15 36 04.17    -10 09 01.5   0.0093 1.0122 152.3  r  15?   4.60 126.8    0 101  93  68
   2024 04 17 18:40  15 36 06.61    -10 09 29.2   0.0093 1.0122 152.3  m  15?   4.47 128.1    2 100  93  68
   2024 04 17 18:50  15 36 08.93    -10 09 56.9   0.0093 1.0123 152.3  m  15?   4.34 129.5    4  99  93  68
   2024 04 17 19:00  15 36 11.14    -10 10 24.6   0.0093 1.0123 152.3  m  15?   4.22 130.9    7  98  93  68
   2024 04 17 19:10  15 36 13.23    -10 10 52.3   0.0093 1.0123 152.3  m  15?   4.09 132.4    9  97  93  68
   2024 04 17 19:20  15 36 15.22    -10 11 20.0   0.0093 1.0123 152.3  m  15?   3.97 134.0   11  96  93  68
   2024 04 17 19:30  15 36 17.09    -10 11 47.6   0.0093 1.0123 152.3  m  15?   3.85 135.7   13  95  93  68
   2024 04 17 19:40  15 36 18.85    -10 12 15.2   0.0093 1.0123 152.3  m  15?   3.73 137.4   16  94  93  68
   2024 04 17 19:50  15 36 20.51    -10 12 42.7   0.0093 1.0123 152.3  m  15?   3.62 139.2   18  93  93  68
   2024 04 17 20:00  15 36 22.05    -10 13 10.2   0.0093 1.0123 152.3  m  15?   3.51 141.1   20  92  93  68
   2024 04 17 20:10  15 36 23.49    -10 13 37.5   0.0093 1.0123 152.3  m  15?   3.41 143.0   23  91  93  69
   2024 04 17 20:20  15 36 24.82    -10 14 04.8   0.0093 1.0123 152.3  m  15?   3.31 145.1   25  90  93  69
   2024 04 17 20:30  15 36 26.05    -10 14 31.9   0.0093 1.0123 152.3  m  15?   3.22 147.2   27  89  93  69
   2024 04 17 20:40  15 36 27.17    -10 14 58.9   0.0093 1.0123 152.3  m  15?   3.13 149.3   30  88  93  69
   2024 04 17 20:50  15 36 28.20    -10 15 25.8   0.0093 1.0123 152.3  m  15?   3.04 151.5   32  87  93  69
   2024 04 17 21:00  15 36 29.13    -10 15 52.5   0.0093 1.0123 152.3  m  15?   2.96 153.8   34  86  93  69
   2024 04 17 21:10  15 36 29.96    -10 16 19.1   0.0093 1.0123 152.3  m  15?   2.89 156.1   36  85  92  69
   2024 04 17 21:20  15 36 30.70    -10 16 45.4   0.0093 1.0123 152.3  m  15?   2.82 158.4   39  84  92  69
   2024 04 17 21:30  15 36 31.36    -10 17 11.6   0.0093 1.0123 152.3  m  15?   2.76 160.8   41  83  92  69
   2024 04 17 21:40  15 36 31.93    -10 17 37.6   0.0093 1.0123 152.3  m  15?   2.70 163.1   43  81  92  69
   2024 04 17 21:50  15 36 32.41    -10 18 03.4   0.0093 1.0123 152.3  m  15?   2.65 165.5   46  80  92  69
   2024 04 17 22:00  15 36 32.82    -10 18 29.0   0.0093 1.0123 152.3  m  15?   2.60 167.8   48  79  92  69
   2024 04 17 22:10  15 36 33.15    -10 18 54.4   0.0092 1.0123 152.3  m  15?   2.56 170.0   50  77  92  69
   2024 04 17 22:20  15 36 33.41    -10 19 19.5   0.0092 1.0123 152.3  m  15?   2.52 172.3   52  76  92  69
   2024 04 17 22:30  15 36 33.60    -10 19 44.4   0.0092 1.0123 152.3  m  15?   2.49 174.4   55  74  92  69
   2024 04 17 22:40  15 36 33.73    -10 20 09.0   0.0092 1.0123 152.3  m  15?   2.45 176.4   57  72  92  69
   2024 04 17 22:50  15 36 33.80    -10 20 33.4   0.0092 1.0123 152.4  m  15?   2.43 178.4   59  70  92  69
   2024 04 17 23:00  15 36 33.82    -10 20 57.5   0.0092 1.0123 152.4  m  15?   2.40 180.3   61  67  92  69
   2024 04 17 23:10  15 36 33.78    -10 21 21.3   0.0092 1.0123 152.4  m  15?   2.37 182.0   63  64  92  69
   2024 04 17 23:20  15 36 33.70    -10 21 44.9   0.0092 1.0123 152.4  m  15?   2.35 183.6   65  61  92  69
   2024 04 17 23:30  15 36 33.57    -10 22 08.2   0.0092 1.0123 152.4  m  15?   2.32 185.1   67  58  92  69
   2024 04 17 23:40  15 36 33.41    -10 22 31.2   0.0092 1.0123 152.4  m  15?   2.30 186.4   69  53  92  69
   2024 04 17 23:50  15 36 33.22    -10 22 53.9   0.0092 1.0123 152.4  m  15?   2.28 187.6   71  48  92  70
   2024 04 18 00:00  15 36 33.00    -10 23 16.3   0.0092 1.0123 152.4  m  15?   2.25 188.6   73  42  91  70
   2024 04 18 00:10  15 36 32.75    -10 23 38.4   0.0092 1.0123 152.4  m  15?   2.23 189.5   74  35  91  70
   2024 04 18 00:20  15 36 32.49    -10 24 00.2   0.0092 1.0123 152.4  m  15?   2.20 190.2   75  26  91  70
   2024 04 18 00:30  15 36 32.21    -10 24 21.7   0.0092 1.0123 152.4  m  15?   2.17 190.8   76  17  91  70
   2024 04 18 00:40  15 36 31.93    -10 24 42.9   0.0092 1.0123 152.4     15?   2.15 191.2   77   6  91  70
   2024 04 18 00:50  15 36 31.65    -10 25 03.8   0.0092 1.0123 152.4  t  15?   2.12 191.3   77 355  91  70
   2024 04 18 01:00  15 36 31.36    -10 25 24.4   0.0093 1.0123 152.5     15?   2.08 191.3   76 344  91  70
   2024 04 18 01:10  15 36 31.08    -10 25 44.7   0.0093 1.0123 152.5     15?   2.05 191.1   76 334  91  70
   2024 04 18 01:20  15 36 30.82    -10 26 04.6   0.0093 1.0123 152.5     15?   2.02 190.7   74 325  91  70
   2024 04 18 01:30  15 36 30.57    -10 26 24.3   0.0093 1.0123 152.5     15?   1.98 190.1   73 318  91  70
   2024 04 18 01:40  15 36 30.34    -10 26 43.7   0.0093 1.0123 152.5     15?   1.95 189.2   71 312  91  70
   2024 04 18 01:50  15 36 30.14    -10 27 02.8   0.0093 1.0123 152.5     15?   1.91 188.1   70 306  91  70
   2024 04 18 02:00  15 36 29.97    -10 27 21.5   0.0093 1.0123 152.5     15?   1.88 186.7   68 302  90  70
   2024 04 18 02:10  15 36 29.84    -10 27 40.0   0.0093 1.0123 152.5     15?   1.84 185.0   66 298  90  70
   2024 04 18 02:20  15 36 29.75    -10 27 58.2   0.0093 1.0123 152.5     15?   1.81 183.1   64 295  90  71
   2024 04 18 02:30  15 36 29.70    -10 28 16.1   0.0093 1.0124 152.5     15?   1.78 180.9   62 292  90  71
   2024 04 18 02:40  15 36 29.70    -10 28 33.7   0.0093 1.0124 152.5     15?   1.75 178.4   59 290  90  71
   2024 04 18 02:50  15 36 29.76    -10 28 51.1   0.0093 1.0124 152.5     15?   1.73 175.6   57 287  90  71
   2024 04 18 03:00  15 36 29.88    -10 29 08.2   0.0093 1.0124 152.5     15?   1.71 172.6   55 285  90  71
   2024 04 18 03:10  15 36 30.06    -10 29 25.0   0.0093 1.0124 152.5     15?   1.70 169.3   53 284  90  71
   2024 04 18 03:20  15 36 30.30    -10 29 41.6   0.0093 1.0124 152.6     15?   1.70 165.8   51 282  90  71
   2024 04 18 03:30  15 36 30.62    -10 29 57.9   0.0093 1.0124 152.6     15?   1.70 162.1   48 280  90  71
   2024 04 18 03:40  15 36 31.00    -10 30 14.0   0.0093 1.0124 152.6     15?   1.72 158.3   46 279  89  71
   2024 04 18 03:50  15 36 31.47    -10 30 29.9   0.0093 1.0124 152.6     15?   1.75 154.5   44 278  89  71
   2024 04 18 04:00  15 36 32.02    -10 30 45.6   0.0093 1.0124 152.6 A   15?   1.78 150.6   42 276  89  71
   2024 04 18 04:10  15 36 32.65    -10 31 01.1   0.0093 1.0124 152.6 A   15?   1.83 146.8   39 275  89  71
   2024 04 18 04:20  15 36 33.38    -10 31 16.3   0.0093 1.0124 152.6 A   15?   1.89 143.2   37 274  89  71
   2024 04 18 04:30  15 36 34.19    -10 31 31.4   0.0093 1.0124 152.6 N   15?   1.96 139.7   35 273  89  72
   2024 04 18 04:40  15 36 35.09    -10 31 46.3   0.0093 1.0124 152.6 N   15?   2.04 136.4   32 272  89  72
   2024 04 18 04:50  15 36 36.09    -10 32 01.1   0.0093 1.0124 152.6 C   15?   2.13 133.3   30 271  89  72
   2024 04 18 05:00  15 36 37.19    -10 32 15.6   0.0093 1.0124 152.6 C   15?   2.23 130.4   28 270  89  72
   ................
   2024 04 18 18:30  15 41 33.01    -10 58 49.8   0.0093 1.0126 151.9  r  15?   4.57 127.3    0 101  83  77
   2024 04 18 18:40  15 41 35.41    -10 59 17.6   0.0093 1.0126 151.9  m  15?   4.44 128.6    2 100  83  77
   2024 04 18 18:50  15 41 37.71    -10 59 45.4   0.0093 1.0126 151.9  m  15?   4.31 130.0    4 100  83  77
   2024 04 18 19:00  15 41 39.89    -11 00 13.2   0.0093 1.0126 151.9  m  15?   4.19 131.4    7  99  83  77
   2024 04 18 19:10  15 41 41.96    -11 00 41.0   0.0093 1.0126 151.9  m  15?   4.06 133.0    9  98  83  77
   2024 04 18 19:20  15 41 43.92    -11 01 08.8   0.0093 1.0126 151.9  m  15?   3.94 134.6   11  97  83  77
   2024 04 18 19:30  15 41 45.77    -11 01 36.5   0.0093 1.0126 151.9  m  15?   3.83 136.2   13  96  83  77
   2024 04 18 19:40  15 41 47.50    -11 02 04.2   0.0093 1.0126 151.9  m  15?   3.71 138.0   16  95  83  77
   2024 04 18 19:50  15 41 49.13    -11 02 31.8   0.0093 1.0126 151.9  m  15?   3.60 139.8   18  94  83  77
   2024 04 18 20:00  15 41 50.65    -11 02 59.3   0.0093 1.0126 151.9  m  15?   3.49 141.7   20  93  83  77
   2024 04 18 20:10  15 41 52.06    -11 03 26.7   0.0093 1.0126 151.9  m  15?   3.39 143.7   23  92  83  77
   2024 04 18 20:20  15 41 53.37    -11 03 54.0   0.0093 1.0126 151.9  m  15?   3.29 145.7   25  91  83  77
   2024 04 18 20:30  15 41 54.57    -11 04 21.2   0.0093 1.0126 151.9  m  15?   3.20 147.8   27  90  82  77
   2024 04 18 20:40  15 41 55.68    -11 04 48.3   0.0093 1.0126 151.9  m  15?   3.11 150.0   29  89  82  77
   2024 04 18 20:50  15 41 56.68    -11 05 15.2   0.0093 1.0126 151.9  m  15?   3.03 152.2   32  88  82  77
   2024 04 18 21:00  15 41 57.59    -11 05 42.0   0.0093 1.0126 151.9  m  15?   2.95 154.5   34  87  82  77
   2024 04 18 21:10  15 41 58.40    -11 06 08.5   0.0093 1.0126 151.9  m  15?   2.88 156.8   36  86  82  77
   2024 04 18 21:20  15 41 59.12    -11 06 34.9   0.0093 1.0126 151.9  m  15?   2.81 159.1   39  85  82  77
   2024 04 18 21:30  15 41 59.75    -11 07 01.1   0.0093 1.0126 151.9  m  15?   2.75 161.5   41  84  82  77
   2024 04 18 21:40  15 42 00.30    -11 07 27.1   0.0093 1.0126 151.9  m  15?   2.69 163.8   43  83  82  77
   2024 04 18 21:50  15 42 00.76    -11 07 52.9   0.0093 1.0126 152.0  m  15?   2.64 166.2   46  81  82  77
   2024 04 18 22:00  15 42 01.14    -11 08 18.4   0.0093 1.0126 152.0  m  15?   2.59 168.5   48  80  82  77
   2024 04 18 22:10  15 42 01.45    -11 08 43.7   0.0093 1.0126 152.0  m  15?   2.55 170.8   50  79  82  77
   2024 04 18 22:20  15 42 01.69    -11 09 08.8   0.0093 1.0126 152.0  m  15?   2.51 173.0   52  77  82  77
   2024 04 18 22:30  15 42 01.86    -11 09 33.6   0.0093 1.0126 152.0  m  15?   2.47 175.2   55  75  82  78
   2024 04 18 22:40  15 42 01.96    -11 09 58.1   0.0093 1.0126 152.0  m  15?   2.44 177.3   57  73  82  78
   2024 04 18 22:50  15 42 02.01    -11 10 22.4   0.0093 1.0126 152.0  m  15?   2.41 179.2   59  71  82  78
   2024 04 18 23:00  15 42 02.00    -11 10 46.3   0.0093 1.0126 152.0  m  15?   2.38 181.1   61  69  82  78
   2024 04 18 23:10  15 42 01.94    -11 11 10.0   0.0093 1.0126 152.0  m  15?   2.36 182.9   63  66  82  78
   2024 04 18 23:20  15 42 01.83    -11 11 33.4   0.0093 1.0126 152.0  m  15?   2.33 184.5   65  63  82  78
   2024 04 18 23:30  15 42 01.68    -11 11 56.5   0.0093 1.0126 152.0  m  15?   2.31 186.1   67  60  82  78
   2024 04 18 23:40  15 42 01.49    -11 12 19.3   0.0093 1.0126 152.0  m  15?   2.28 187.4   69  56  81  78
   2024 04 18 23:50  15 42 01.27    -11 12 41.8   0.0093 1.0126 152.0  m  15?   2.26 188.7   71  51  81  78
   2024 04 19 00:00  15 42 01.02    -11 13 03.9   0.0093 1.0126 152.0  m  15?   2.23 189.8   73  45  81  78
   2024 04 19 00:10  15 42 00.75    -11 13 25.8   0.0093 1.0126 152.0  m  15?   2.21 190.7   75  38  81  78
   2024 04 19 00:20  15 42 00.46    -11 13 47.3   0.0093 1.0126 152.1  m  15?   2.18 191.5   76  29  81  78
   2024 04 19 00:30  15 42 00.15    -11 14 08.5   0.0093 1.0126 152.1  m  15?   2.15 192.1   77  19  81  78
   2024 04 19 00:40  15 41 59.84    -11 14 29.4   0.0093 1.0126 152.1  m  15?   2.12 192.5   77   8  81  78
   2024 04 19 00:50  15 41 59.52    -11 14 49.9   0.0093 1.0126 152.1  t  15?   2.09 192.7   78 356  81  78
   2024 04 19 01:00  15 41 59.21    -11 15 10.1   0.0093 1.0126 152.1  m  15?   2.06 192.8   77 345  81  78
   2024 04 19 01:10  15 41 58.90    -11 15 30.0   0.0093 1.0126 152.1  m  15?   2.02 192.7   76 334  81  78
   2024 04 19 01:20  15 41 58.60    -11 15 49.5   0.0093 1.0126 152.1  m  15?   1.99 192.3   75 325  81  78
   2024 04 19 01:30  15 41 58.32    -11 16 08.8   0.0093 1.0126 152.1     15?   1.95 191.7   74 317  81  78
   2024 04 19 01:40  15 41 58.05    -11 16 27.7   0.0093 1.0127 152.1     15?   1.91 190.9   72 311  81  78
   2024 04 19 01:50  15 41 57.82    -11 16 46.3   0.0093 1.0127 152.1     15?   1.87 189.9   70 305  81  78
   2024 04 19 02:00  15 41 57.61    -11 17 04.5   0.0093 1.0127 152.1     15?   1.83 188.6   68 301  80  79
   2024 04 19 02:10  15 41 57.44    -11 17 22.5   0.0093 1.0127 152.1     15?   1.79 187.0   66 297  80  79
   2024 04 19 02:20  15 41 57.31    -11 17 40.2   0.0093 1.0127 152.1     15?   1.76 185.1   64 294  80  79
   2024 04 19 02:30  15 41 57.23    -11 17 57.5   0.0093 1.0127 152.2     15?   1.72 182.9   62 291  80  79
   2024 04 19 02:40  15 41 57.19    -11 18 14.5   0.0093 1.0127 152.2     15?   1.69 180.4   60 288  80  79
   2024 04 19 02:50  15 41 57.20    -11 18 31.3   0.0093 1.0127 152.2     15?   1.66 177.6   58 286  80  79
   2024 04 19 03:00  15 41 57.28    -11 18 47.8   0.0093 1.0127 152.2     15?   1.64 174.5   56 284  80  79
   2024 04 19 03:10  15 41 57.41    -11 19 04.0   0.0093 1.0127 152.2     15?   1.62 171.1   53 283  80  79
   2024 04 19 03:20  15 41 57.61    -11 19 19.9   0.0093 1.0127 152.2     15?   1.62 167.5   51 281  80  79
   2024 04 19 03:30  15 41 57.88    -11 19 35.6   0.0093 1.0127 152.2     15?   1.62 163.7   49 279  80  79
   2024 04 19 03:40  15 41 58.23    -11 19 51.0   0.0093 1.0127 152.2     15?   1.63 159.7   47 278  80  79
   2024 04 19 03:50  15 41 58.65    -11 20 06.2   0.0093 1.0127 152.2     15?   1.65 155.6   44 277  79  79
   2024 04 19 04:00  15 41 59.15    -11 20 21.1   0.0093 1.0127 152.2 A   15?   1.68 151.6   42 275  79  79
   2024 04 19 04:10  15 41 59.73    -11 20 35.8   0.0094 1.0127 152.2 A   15?   1.73 147.6   40 274  79  79
   2024 04 19 04:20  15 42 00.40    -11 20 50.4   0.0094 1.0127 152.2 A   15?   1.78 143.7   38 273  79  79
   2024 04 19 04:30  15 42 01.16    -11 21 04.7   0.0094 1.0127 152.2 N   15?   1.85 140.0   35 272  79  79
   2024 04 19 04:40  15 42 02.02    -11 21 18.8   0.0094 1.0127 152.2 N   15?   1.93 136.5   33 271  79  80
   2024 04 19 04:50  15 42 02.97    -11 21 32.7   0.0094 1.0127 152.2 C   15?   2.02 133.2   31 270  79  80
   2024 04 19 05:00  15 42 04.01    -11 21 46.5   0.0094 1.0127 152.2 C   15?   2.12 130.2   28 269  79  80
   ................
   2024 04 19 18:30  15 46 55.42    -11 47 40.0   0.0094 1.0129 151.6  r  15?   4.53 127.8    0 102  73  84
   2024 04 19 18:40  15 46 57.80    -11 48 07.9   0.0094 1.0129 151.6  m  15?   4.40 129.1    2 101  73  84
   2024 04 19 18:50  15 47 00.07    -11 48 35.7   0.0094 1.0129 151.6  m  15?   4.28 130.5    4 100  73  84
   2024 04 19 19:00  15 47 02.22    -11 49 03.6   0.0094 1.0129 151.6  m  15?   4.15 132.0    7  99  73  84
   2024 04 19 19:10  15 47 04.26    -11 49 31.4   0.0094 1.0129 151.6  m  15?   4.03 133.5    9  99  73  84
   2024 04 19 19:20  15 47 06.19    -11 49 59.2   0.0094 1.0129 151.6  m  15?   3.91 135.1   11  98  73  84
   2024 04 19 19:30  15 47 08.01    -11 50 27.0   0.0094 1.0129 151.6  m  15?   3.80 136.8   13  97  72  84
   2024 04 19 19:40  15 47 09.73    -11 50 54.7   0.0094 1.0129 151.6  m  15?   3.68 138.5   16  96  72  84
   2024 04 19 19:50  15 47 11.33    -11 51 22.4   0.0094 1.0129 151.6  m  15?   3.58 140.4   18  95  72  84
   2024 04 19 20:00  15 47 12.82    -11 51 49.9   0.0094 1.0129 151.6  m  15?   3.47 142.3   20  94  72  84
   2024 04 19 20:10  15 47 14.21    -11 52 17.4   0.0094 1.0129 151.6  m  15?   3.37 144.3   23  93  72  84
   2024 04 19 20:20  15 47 15.49    -11 52 44.7   0.0094 1.0129 151.6  m  15?   3.27 146.3   25  92  72  84
   2024 04 19 20:30  15 47 16.67    -11 53 12.0   0.0094 1.0129 151.6  m  15?   3.18 148.4   27  91  72  85
   2024 04 19 20:40  15 47 17.75    -11 53 39.0   0.0094 1.0129 151.6  m  15?   3.09 150.6   29  90  72  85
   2024 04 19 20:50  15 47 18.73    -11 54 06.0   0.0094 1.0129 151.6  m  15?   3.01 152.9   32  89  72  85
   2024 04 19 21:00  15 47 19.61    -11 54 32.7   0.0094 1.0129 151.6  m  15?   2.93 155.1   34  88  72  85
   2024 04 19 21:10  15 47 20.40    -11 54 59.3   0.0094 1.0129 151.6  m  15?   2.86 157.5   36  87  72  85
   2024 04 19 21:20  15 47 21.10    -11 55 25.6   0.0094 1.0129 151.6  m  15?   2.80 159.8   39  86  72  85
   2024 04 19 21:30  15 47 21.71    -11 55 51.8   0.0094 1.0129 151.6  m  15?   2.73 162.2   41  85  72  85
   2024 04 19 21:40  15 47 22.23    -11 56 17.8   0.0094 1.0129 151.6  m  15?   2.68 164.6   43  84  72  85
   2024 04 19 21:50  15 47 22.67    -11 56 43.5   0.0094 1.0129 151.6  m  15?   2.63 166.9   46  83  72  85
   2024 04 19 22:00  15 47 23.03    -11 57 09.0   0.0094 1.0129 151.6  m  15?   2.58 169.3   48  81  72  85
   2024 04 19 22:10  15 47 23.31    -11 57 34.2   0.0094 1.0129 151.6  m  15?   2.54 171.6   50  80  72  85
   2024 04 19 22:20  15 47 23.53    -11 57 59.1   0.0094 1.0129 151.6  m  15?   2.50 173.8   52  79  72  85
   2024 04 19 22:30  15 47 23.67    -11 58 23.8   0.0094 1.0129 151.6  m  15?   2.46 176.0   55  77  72  85
   2024 04 19 22:40  15 47 23.75    -11 58 48.2   0.0094 1.0129 151.6  m  15?   2.43 178.1   57  75  72  85
   2024 04 19 22:50  15 47 23.77    -11 59 12.4   0.0094 1.0129 151.6  m  15?   2.40 180.1   59  73  72  85
   2024 04 19 23:00  15 47 23.74    -11 59 36.2   0.0094 1.0129 151.6  m  15?   2.37 182.0   61  71  72  85
   2024 04 19 23:10  15 47 23.65    -11 59 59.7   0.0094 1.0129 151.7  m  15?   2.34 183.8   63  68  71  85
   2024 04 19 23:20  15 47 23.52    -12 00 22.9   0.0094 1.0129 151.7  m  15?   2.32 185.5   66  66  71  85
   2024 04 19 23:30  15 47 23.34    -12 00 45.8   0.0094 1.0129 151.7  m  15?   2.29 187.1   68  62  71  85
   2024 04 19 23:40  15 47 23.13    -12 01 08.3   0.0094 1.0129 151.7  m  15?   2.27 188.5   70  58  71  85
   2024 04 19 23:50  15 47 22.88    -12 01 30.6   0.0094 1.0129 151.7  m  15?   2.24 189.8   72  54  71  85
   2024 04 20 00:00  15 47 22.60    -12 01 52.5   0.0094 1.0129 151.7  m  15?   2.21 190.9   73  48  71  85
   2024 04 20 00:10  15 47 22.30    -12 02 14.0   0.0094 1.0129 151.7  m  15?   2.19 191.9   75  41  71  85
   2024 04 20 00:20  15 47 21.98    -12 02 35.2   0.0094 1.0129 151.7  m  15?   2.16 192.7   76  32  71  85
   2024 04 20 00:30  15 47 21.65    -12 02 56.1   0.0094 1.0129 151.7  m  15?   2.13 193.4   78  22  71  85
   2024 04 20 00:40  15 47 21.30    -12 03 16.6   0.0094 1.0130 151.7  m  15?   2.10 193.9   78  11  71  85
   2024 04 20 00:50  15 47 20.96    -12 03 36.8   0.0094 1.0130 151.7  t  15?   2.06 194.2   78 358  71  85
   2024 04 20 01:00  15 47 20.61    -12 03 56.6   0.0094 1.0130 151.7  m  15?   2.03 194.3   78 346  71  85
   2024 04 20 01:10  15 47 20.27    -12 04 16.1   0.0094 1.0130 151.7  m  15?   1.99 194.2   77 334  71  85
   2024 04 20 01:20  15 47 19.94    -12 04 35.2   0.0094 1.0130 151.8  m  15?   1.95 193.9   76 324  71  85
   2024 04 20 01:30  15 47 19.62    -12 04 54.0   0.0094 1.0130 151.8  m  15?   1.92 193.4   75 316  71  86
   2024 04 20 01:40  15 47 19.32    -12 05 12.5   0.0094 1.0130 151.8  m  15?   1.87 192.7   73 310  70  86
   2024 04 20 01:50  15 47 19.05    -12 05 30.6   0.0094 1.0130 151.8  m  15?   1.83 191.7   71 304  70  86
   2024 04 20 02:00  15 47 18.81    -12 05 48.3   0.0094 1.0130 151.8  m  15?   1.79 190.5   69 300  70  86
   2024 04 20 02:10  15 47 18.60    -12 06 05.8   0.0094 1.0130 151.8  m  15?   1.75 188.9   67 296  70  86
   2024 04 20 02:20  15 47 18.43    -12 06 22.9   0.0094 1.0130 151.8     15?   1.71 187.1   65 293  70  86
   2024 04 20 02:30  15 47 18.31    -12 06 39.6   0.0094 1.0130 151.8     15?   1.67 185.0   63 290  70  86
   2024 04 20 02:40  15 47 18.23    -12 06 56.1   0.0094 1.0130 151.8     15?   1.63 182.5   61 287  70  86
   2024 04 20 02:50  15 47 18.21    -12 07 12.3   0.0094 1.0130 151.8     15?   1.60 179.7   59 285  70  86
   2024 04 20 03:00  15 47 18.24    -12 07 28.1   0.0094 1.0130 151.8     15?   1.57 176.5   56 283  70  86
   2024 04 20 03:10  15 47 18.33    -12 07 43.7   0.0094 1.0130 151.8     15?   1.55 173.1   54 281  70  86
   2024 04 20 03:20  15 47 18.49    -12 07 59.0   0.0094 1.0130 151.8     15?   1.54 169.3   52 280  70  86
   2024 04 20 03:30  15 47 18.72    -12 08 13.9   0.0094 1.0130 151.9     15?   1.53 165.4   50 278  70  86
   2024 04 20 03:40  15 47 19.02    -12 08 28.7   0.0094 1.0130 151.9     15?   1.54 161.2   47 277  69  86
   2024 04 20 03:50  15 47 19.39    -12 08 43.2   0.0094 1.0130 151.9     15?   1.56 156.9   45 276  69  86
   2024 04 20 04:00  15 47 19.84    -12 08 57.4   0.0094 1.0130 151.9 A   15?   1.59 152.6   43 275  69  86
   2024 04 20 04:10  15 47 20.38    -12 09 11.4   0.0094 1.0130 151.9 A   15?   1.63 148.4   40 273  69  86
   2024 04 20 04:20  15 47 21.00    -12 09 25.1   0.0094 1.0130 151.9 A   15?   1.68 144.2   38 272  69  86
   2024 04 20 04:30  15 47 21.72    -12 09 38.7   0.0094 1.0130 151.9 N   15?   1.74 140.3   36 271  69  86
   2024 04 20 04:40  15 47 22.52    -12 09 52.0   0.0094 1.0130 151.9 N   15?   1.82 136.6   34 270  69  86
   2024 04 20 04:50  15 47 23.42    -12 10 05.2   0.0094 1.0130 151.9 C   15?   1.91 133.1   31 269  69  87
   2024 04 20 05:00  15 47 24.41    -12 10 18.2   0.0094 1.0130 151.9 C   15?   2.00 130.0   29 268  69  87
   ................
   2024 04 20 18:30  15 52 11.49    -12 35 30.1   0.0095 1.0132 151.3  m  15?   4.48 128.2    0 103  62  90
   2024 04 20 18:40  15 52 13.84    -12 35 57.9   0.0095 1.0132 151.3  m  15?   4.36 129.6    2 102  62  90
   2024 04 20 18:50  15 52 16.08    -12 36 25.8   0.0095 1.0132 151.2  m  15?   4.24 131.0    4 101  62  90
   2024 04 20 19:00  15 52 18.20    -12 36 53.7   0.0095 1.0132 151.2  m  15?   4.12 132.4    7 100  62  90
   2024 04 20 19:10  15 52 20.22    -12 37 21.5   0.0095 1.0132 151.2  m  15?   4.00 134.0    9  99  62  90
   2024 04 20 19:20  15 52 22.12    -12 37 49.4   0.0095 1.0132 151.2  m  15?   3.88 135.6   11  98  62  91
   2024 04 20 19:30  15 52 23.91    -12 38 17.2   0.0095 1.0132 151.2  m  15?   3.77 137.3   13  98  62  91
   2024 04 20 19:40  15 52 25.60    -12 38 44.9   0.0095 1.0132 151.2  m  15?   3.66 139.1   16  97  62  91
   2024 04 20 19:50  15 52 27.17    -12 39 12.5   0.0095 1.0132 151.2  m  15?   3.55 140.9   18  96  62  91
   2024 04 20 20:00  15 52 28.64    -12 39 40.1   0.0095 1.0132 151.2  m  15?   3.44 142.9   20  95  62  91
   2024 04 20 20:10  15 52 30.00    -12 40 07.6   0.0095 1.0132 151.2  m  15?   3.34 144.9   22  94  62  91
   2024 04 20 20:20  15 52 31.26    -12 40 34.9   0.0095 1.0132 151.2  m  15?   3.25 146.9   25  93  62  91
   2024 04 20 20:30  15 52 32.41    -12 41 02.1   0.0095 1.0132 151.3  m  15?   3.16 149.1   27  92  62  91
   2024 04 20 20:40  15 52 33.47    -12 41 29.2   0.0095 1.0132 151.3  m  15?   3.07 151.3   29  91  62  91
   2024 04 20 20:50  15 52 34.42    -12 41 56.1   0.0095 1.0132 151.3  m  15?   2.99 153.5   32  90  62  91
   2024 04 20 21:00  15 52 35.28    -12 42 22.8   0.0095 1.0132 151.3  m  15?   2.92 155.8   34  89  62  91
   2024 04 20 21:10  15 52 36.04    -12 42 49.4   0.0095 1.0132 151.3  m  15?   2.84 158.2   36  88  62  91
   2024 04 20 21:20  15 52 36.72    -12 43 15.7   0.0095 1.0132 151.3  m  15?   2.78 160.5   39  87  62  91
   2024 04 20 21:30  15 52 37.30    -12 43 41.8   0.0095 1.0132 151.3  m  15?   2.72 162.9   41  86  62  91
   2024 04 20 21:40  15 52 37.80    -12 44 07.7   0.0095 1.0132 151.3  m  15?   2.66 165.3   43  85  62  91
   2024 04 20 21:50  15 52 38.21    -12 44 33.3   0.0095 1.0132 151.3  m  15?   2.61 167.7   45  84  62  91
   2024 04 20 22:00  15 52 38.55    -12 44 58.7   0.0095 1.0132 151.3  m  15?   2.56 170.1   48  83  62  91
   2024 04 20 22:10  15 52 38.81    -12 45 23.8   0.0095 1.0132 151.3  m  15?   2.52 172.4   50  81  62  91
   2024 04 20 22:20  15 52 39.00    -12 45 48.7   0.0095 1.0132 151.3  m  15?   2.48 174.6   52  80  61  91
   2024 04 20 22:30  15 52 39.12    -12 46 13.3   0.0095 1.0132 151.3  m  15?   2.44 176.8   55  78  61  91
   2024 04 20 22:40  15 52 39.17    -12 46 37.5   0.0095 1.0132 151.3  m  15?   2.41 179.0   57  77  61  91
   2024 04 20 22:50  15 52 39.17    -12 47 01.5   0.0095 1.0132 151.3  m  15?   2.38 181.0   59  75  61  91
   2024 04 20 23:00  15 52 39.11    -12 47 25.1   0.0095 1.0132 151.3  m  15?   2.35 183.0   61  73  61  91
   2024 04 20 23:10  15 52 38.99    -12 47 48.4   0.0095 1.0132 151.3  m  15?   2.32 184.8   64  70  61  91
   2024 04 20 23:20  15 52 38.83    -12 48 11.4   0.0095 1.0132 151.3  m  15?   2.30 186.5   66  68  61  91
   2024 04 20 23:30  15 52 38.63    -12 48 34.1   0.0095 1.0132 151.3  m  15?   2.27 188.1   68  64  61  91
   2024 04 20 23:40  15 52 38.39    -12 48 56.4   0.0095 1.0132 151.4  m  15?   2.25 189.6   70  61  61  91
   2024 04 20 23:50  15 52 38.11    -12 49 18.4   0.0095 1.0133 151.4  m  15?   2.22 190.9   72  56  61  91
   2024 04 21 00:00  15 52 37.81    -12 49 40.0   0.0095 1.0133 151.4  m  15?   2.19 192.1   74  51  61  91
   2024 04 21 00:10  15 52 37.48    -12 50 01.2   0.0095 1.0133 151.4  m  15?   2.17 193.1   75  44  61  91
   2024 04 21 00:20  15 52 37.13    -12 50 22.1   0.0095 1.0133 151.4  m  15?   2.14 194.0   77  36  61  91
   2024 04 21 00:30  15 52 36.77    -12 50 42.7   0.0095 1.0133 151.4  m  15?   2.11 194.7   78  25  61  91
   2024 04 21 00:40  15 52 36.39    -12 51 02.8   0.0095 1.0133 151.4  m  15?   2.07 195.3   79  13  61  91
   2024 04 21 00:50  15 52 36.01    -12 51 22.6   0.0095 1.0133 151.4  m  15?   2.04 195.6   79   0  61  91
   2024 04 21 01:00  15 52 35.64    -12 51 42.0   0.0095 1.0133 151.4  t  15?   2.00 195.8   79 346  61  91
   2024 04 21 01:10  15 52 35.26    -12 52 01.1   0.0095 1.0133 151.4  m  15?   1.96 195.8   78 334  61  91
   2024 04 21 01:20  15 52 34.90    -12 52 19.8   0.0095 1.0133 151.4  m  15?   1.92 195.6   77 324  60  91
   2024 04 21 01:30  15 52 34.55    -12 52 38.1   0.0095 1.0133 151.4  m  15?   1.88 195.2   76 315  60  91
   2024 04 21 01:40  15 52 34.22    -12 52 56.1   0.0095 1.0133 151.5  m  15?   1.84 194.5   74 308  60  91
   2024 04 21 01:50  15 52 33.91    -12 53 13.7   0.0095 1.0133 151.5  m  15?   1.80 193.6   72 303  60  91
   2024 04 21 02:00  15 52 33.63    -12 53 31.0   0.0095 1.0133 151.5  m  15?   1.75 192.5   70 298  60  91
   2024 04 21 02:10  15 52 33.39    -12 53 47.9   0.0095 1.0133 151.5  m  15?   1.71 191.0   68 294  60  92
   2024 04 21 02:20  15 52 33.18    -12 54 04.4   0.0095 1.0133 151.5  m  15?   1.66 189.2   66 291  60  92
   2024 04 21 02:30  15 52 33.02    -12 54 20.7   0.0095 1.0133 151.5  m  15?   1.62 187.1   64 288  60  92
   2024 04 21 02:40  15 52 32.90    -12 54 36.5   0.0095 1.0133 151.5  m  15?   1.58 184.7   61 286  60  92
   2024 04 21 02:50  15 52 32.84    -12 54 52.1   0.0095 1.0133 151.5  m  15?   1.54 181.9   59 284  60  92
   2024 04 21 03:00  15 52 32.83    -12 55 07.3   0.0095 1.0133 151.5  m  15?   1.51 178.7   57 282  60  92
   2024 04 21 03:10  15 52 32.88    -12 55 22.2   0.0095 1.0133 151.5     15?   1.48 175.2   55 280  60  92
   2024 04 21 03:20  15 52 32.99    -12 55 36.9   0.0095 1.0133 151.5     15?   1.46 171.3   52 279  60  92
   2024 04 21 03:30  15 52 33.18    -12 55 51.2   0.0095 1.0133 151.5     15?   1.45 167.2   50 277  59  92
   2024 04 21 03:40  15 52 33.43    -12 56 05.2   0.0095 1.0133 151.5     15?   1.45 162.8   48 276  59  92
   2024 04 21 03:50  15 52 33.76    -12 56 19.0   0.0095 1.0133 151.5     15?   1.47 158.3   46 275  59  92
   2024 04 21 04:00  15 52 34.17    -12 56 32.5   0.0095 1.0133 151.5 A   15?   1.49 153.7   43 274  59  92
   2024 04 21 04:10  15 52 34.66    -12 56 45.8   0.0095 1.0133 151.6 A   15?   1.53 149.2   41 273  59  92
   2024 04 21 04:20  15 52 35.23    -12 56 58.8   0.0095 1.0133 151.6 A   15?   1.58 144.8   39 271  59  92
   2024 04 21 04:30  15 52 35.90    -12 57 11.6   0.0095 1.0133 151.6 N   15?   1.64 140.6   36 270  59  92
   2024 04 21 04:40  15 52 36.65    -12 57 24.2   0.0095 1.0133 151.6 N   15?   1.71 136.7   34 269  59  92
   2024 04 21 04:50  15 52 37.50    -12 57 36.6   0.0095 1.0133 151.6 C   15?   1.80 133.0   32 268  59  92
   2024 04 21 05:00  15 52 38.44    -12 57 48.8   0.0095 1.0133 151.6 C   15?   1.89 129.7   30 267  59  92
   ................
   2024 04 21 18:30  15 57 21.25    -13 22 18.3   0.0096 1.0135 151.0  m  15?   4.44 128.6    0 104  52  95
   2024 04 21 18:40  15 57 23.57    -13 22 46.1   0.0096 1.0135 151.0  m  15?   4.32 130.0    2 103  52  95
   2024 04 21 18:50  15 57 25.77    -13 23 14.0   0.0096 1.0135 151.0  m  15?   4.20 131.4    4 102  52  95
   2024 04 21 19:00  15 57 27.87    -13 23 41.9   0.0096 1.0135 150.9  m  15?   4.08 132.9    7 101  52  95
   2024 04 21 19:10  15 57 29.85    -13 24 09.7   0.0096 1.0135 150.9  m  15?   3.96 134.5    9 100  52  95
   2024 04 21 19:20  15 57 31.73    -13 24 37.5   0.0096 1.0135 150.9  m  15?   3.84 136.2   11  99  52  95
   2024 04 21 19:30  15 57 33.49    -13 25 05.3   0.0096 1.0135 150.9  m  15?   3.73 137.9   13  98  52  95
   2024 04 21 19:40  15 57 35.15    -13 25 33.0   0.0096 1.0135 150.9  m  15?   3.62 139.7   16  98  52  95
   2024 04 21 19:50  15 57 36.70    -13 26 00.7   0.0096 1.0135 150.9  m  15?   3.52 141.5   18  97  52  95
   2024 04 21 20:00  15 57 38.14    -13 26 28.2   0.0096 1.0135 150.9  m  15?   3.41 143.5   20  96  52  95
   2024 04 21 20:10  15 57 39.47    -13 26 55.7   0.0096 1.0135 150.9  m  15?   3.32 145.5   22  95  52  95
   2024 04 21 20:20  15 57 40.70    -13 27 23.0   0.0096 1.0135 151.0  m  15?   3.22 147.6   25  94  52  95
   2024 04 21 20:30  15 57 41.83    -13 27 50.2   0.0096 1.0135 151.0  m  15?   3.13 149.7   27  93  52  95
   2024 04 21 20:40  15 57 42.86    -13 28 17.2   0.0096 1.0135 151.0  m  15?   3.05 152.0   29  92  51  95
   2024 04 21 20:50  15 57 43.78    -13 28 44.1   0.0096 1.0135 151.0  m  15?   2.97 154.2   32  91  51  95
   2024 04 21 21:00  15 57 44.62    -13 29 10.8   0.0096 1.0135 151.0  m  15?   2.89 156.5   34  90  51  95
   2024 04 21 21:10  15 57 45.35    -13 29 37.2   0.0096 1.0135 151.0  m  15?   2.82 158.9   36  89  51  95
   2024 04 21 21:20  15 57 46.00    -13 30 03.5   0.0096 1.0135 151.0  m  15?   2.76 161.3   39  88  51  95
   2024 04 21 21:30  15 57 46.56    -13 30 29.5   0.0096 1.0135 151.0  m  15?   2.70 163.7   41  87  51  95
   2024 04 21 21:40  15 57 47.03    -13 30 55.3   0.0096 1.0135 151.0  m  15?   2.64 166.1   43  86  51  95
   2024 04 21 21:50  15 57 47.42    -13 31 20.9   0.0096 1.0135 151.0  m  15?   2.59 168.5   45  85  51  95
   2024 04 21 22:00  15 57 47.73    -13 31 46.1   0.0096 1.0135 151.0  m  15?   2.54 170.9   48  84  51  95
   2024 04 21 22:10  15 57 47.96    -13 32 11.1   0.0096 1.0135 151.0  m  15?   2.50 173.2   50  83  51  95
   2024 04 21 22:20  15 57 48.13    -13 32 35.8   0.0096 1.0135 151.0  m  15?   2.46 175.5   52  81  51  96
   2024 04 21 22:30  15 57 48.22    -13 33 00.2   0.0096 1.0135 151.0  m  15?   2.43 177.7   55  80  51  96
   2024 04 21 22:40  15 57 48.25    -13 33 24.3   0.0096 1.0135 151.0  m  15?   2.39 179.9   57  78  51  96
   2024 04 21 22:50  15 57 48.22    -13 33 48.1   0.0096 1.0136 151.0  m  15?   2.36 182.0   59  76  51  96
   2024 04 21 23:00  15 57 48.13    -13 34 11.6   0.0096 1.0136 151.0  m  15?   2.33 183.9   61  74  51  96
   2024 04 21 23:10  15 57 47.99    -13 34 34.7   0.0096 1.0136 151.0  m  15?   2.31 185.8   64  72  51  96
   2024 04 21 23:20  15 57 47.80    -13 34 57.4   0.0096 1.0136 151.0  m  15?   2.28 187.6   66  70  51  96
   2024 04 21 23:30  15 57 47.57    -13 35 19.9   0.0096 1.0136 151.1  m  15?   2.25 189.2   68  67  51  96
   2024 04 21 23:40  15 57 47.30    -13 35 41.9   0.0096 1.0136 151.1  m  15?   2.23 190.7   70  63  51  96
   2024 04 21 23:50  15 57 47.00    -13 36 03.6   0.0096 1.0136 151.1  m  15?   2.20 192.1   72  59  51  96
   2024 04 22 00:00  15 57 46.66    -13 36 24.9   0.0096 1.0136 151.1  m  15?   2.17 193.3   74  54  51  96
   2024 04 22 00:10  15 57 46.30    -13 36 45.9   0.0096 1.0136 151.1  m  15?   2.14 194.4   76  47  51  96
   2024 04 22 00:20  15 57 45.92    -13 37 06.4   0.0096 1.0136 151.1  m  15?   2.11 195.3   77  39  50  96
   2024 04 22 00:30  15 57 45.53    -13 37 26.6   0.0096 1.0136 151.1  m  15?   2.08 196.1   79  28  50  96
   2024 04 22 00:40  15 57 45.12    -13 37 46.4   0.0096 1.0136 151.1  m  15?   2.05 196.7   80  16  50  96
   2024 04 22 00:50  15 57 44.71    -13 38 05.8   0.0096 1.0136 151.1  m  15?   2.01 197.2   80   1  50  96
   2024 04 22 01:00  15 57 44.30    -13 38 24.9   0.0096 1.0136 151.1  t  15?   1.98 197.4   80 347  50  96
   2024 04 22 01:10  15 57 43.90    -13 38 43.5   0.0096 1.0136 151.1  m  15?   1.94 197.5   79 334  50  96
   2024 04 22 01:20  15 57 43.50    -13 39 01.8   0.0096 1.0136 151.1  m  15?   1.89 197.4   78 323  50  96
   2024 04 22 01:30  15 57 43.11    -13 39 19.6   0.0096 1.0136 151.1  m  15?   1.85 197.0   76 314  50  96
   2024 04 22 01:40  15 57 42.75    -13 39 37.1   0.0096 1.0136 151.2  m  15?   1.81 196.5   75 307  50  96
   2024 04 22 01:50  15 57 42.41    -13 39 54.2   0.0096 1.0136 151.2  m  15?   1.76 195.6   73 301  50  96
   2024 04 22 02:00  15 57 42.09    -13 40 11.0   0.0096 1.0136 151.2  m  15?   1.71 194.6   71 297  50  96
   2024 04 22 02:10  15 57 41.81    -13 40 27.3   0.0096 1.0136 151.2  m  15?   1.66 193.2   69 293  50  96
   2024 04 22 02:20  15 57 41.57    -13 40 43.4   0.0096 1.0136 151.2  m  15?   1.62 191.5   66 290  50  96
   2024 04 22 02:30  15 57 41.36    -13 40 59.0   0.0096 1.0136 151.2  m  15?   1.57 189.4   64 287  50  96
   2024 04 22 02:40  15 57 41.21    -13 41 14.3   0.0096 1.0136 151.2  m  15?   1.52 187.0   62 285  50  96
   2024 04 22 02:50  15 57 41.10    -13 41 29.2   0.0096 1.0136 151.2  m  15?   1.48 184.2   60 283  49  96
   2024 04 22 03:00  15 57 41.05    -13 41 43.9   0.0096 1.0136 151.2  m  15?   1.45 181.0   58 281  49  96
   2024 04 22 03:10  15 57 41.06    -13 41 58.2   0.0096 1.0136 151.2  m  15?   1.41 177.4   55 279  49  96
   2024 04 22 03:20  15 57 41.14    -13 42 12.1   0.0096 1.0136 151.2  m  15?   1.39 173.5   53 278  49  96
   2024 04 22 03:30  15 57 41.28    -13 42 25.8   0.0096 1.0136 151.2  m  15?   1.37 169.2   51 276  49  96
   2024 04 22 03:40  15 57 41.49    -13 42 39.1   0.0096 1.0136 151.2  m  15?   1.37 164.6   48 275  49  96
   2024 04 22 03:50  15 57 41.77    -13 42 52.2   0.0096 1.0136 151.2  m  15?   1.38 159.8   46 274  49  96
   2024 04 22 04:00  15 57 42.13    -13 43 05.0   0.0096 1.0136 151.3 A   15?   1.40 155.0   44 273  49  96
   2024 04 22 04:10  15 57 42.58    -13 43 17.6   0.0096 1.0136 151.3 A   15?   1.43 150.1   42 272  49  96
   2024 04 22 04:20  15 57 43.11    -13 43 29.8   0.0096 1.0136 151.3 A   15?   1.47 145.4   39 271  49  96
   2024 04 22 04:30  15 57 43.72    -13 43 41.9   0.0096 1.0136 151.3 N   15?   1.53 140.9   37 270  49  96
   2024 04 22 04:40  15 57 44.43    -13 43 53.7   0.0096 1.0136 151.3 N   15?   1.60 136.7   35 269  49  96
   2024 04 22 04:50  15 57 45.23    -13 44 05.3   0.0096 1.0136 151.3 C   15?   1.69 132.9   32 268  49  96
   2024 04 22 05:00  15 57 46.12    -13 44 16.7   0.0096 1.0136 151.3 C   15?   1.78 129.3   30 267  48  96
   ................
   2024 04 22 18:30  16 02 24.69    -14 08 03.5   0.0097 1.0138 150.7  m  15?   4.39 129.1    0 105  42  98
   2024 04 22 18:40  16 02 26.97    -14 08 31.3   0.0097 1.0138 150.7  m  15?   4.27 130.5    2 104  42  98
   2024 04 22 18:50  16 02 29.14    -14 08 59.1   0.0097 1.0138 150.7  m  15?   4.15 131.9    4 103  42  98
   2024 04 22 19:00  16 02 31.21    -14 09 26.9   0.0096 1.0138 150.7  m  15?   4.03 133.4    7 102  41  98
   2024 04 22 19:10  16 02 33.16    -14 09 54.7   0.0096 1.0138 150.7  m  15?   3.92 135.0    9 101  41  98
   2024 04 22 19:20  16 02 35.00    -14 10 22.5   0.0096 1.0138 150.7  m  15?   3.81 136.7   11 100  41  98
   2024 04 22 19:30  16 02 36.74    -14 10 50.3   0.0096 1.0138 150.7  m  15?   3.69 138.4   13  99  41  98
   2024 04 22 19:40  16 02 38.36    -14 11 18.0   0.0096 1.0138 150.7  m  15?   3.59 140.2   16  98  41  98
   2024 04 22 19:50  16 02 39.88    -14 11 45.6   0.0096 1.0138 150.7  m  15?   3.48 142.1   18  98  41  98
   2024 04 22 20:00  16 02 41.29    -14 12 13.1   0.0096 1.0138 150.7  m  15?   3.38 144.1   20  97  41  98
   2024 04 22 20:10  16 02 42.60    -14 12 40.5   0.0096 1.0138 150.7  m  15?   3.29 146.1   22  96  41  98
   2024 04 22 20:20  16 02 43.80    -14 13 07.7   0.0096 1.0138 150.7  m  15?   3.19 148.2   25  95  41  98
   2024 04 22 20:30  16 02 44.90    -14 13 34.9   0.0096 1.0138 150.7  m  15?   3.11 150.4   27  94  41  98
   2024 04 22 20:40  16 02 45.90    -14 14 01.8   0.0096 1.0138 150.7  m  15?   3.02 152.7   29  93  41  98
   2024 04 22 20:50  16 02 46.80    -14 14 28.6   0.0096 1.0138 150.7  m  15?   2.94 155.0   32  92  41  98
   2024 04 22 21:00  16 02 47.60    -14 14 55.2   0.0096 1.0138 150.7  m  15?   2.87 157.3   34  91  41  98
   2024 04 22 21:10  16 02 48.31    -14 15 21.6   0.0096 1.0138 150.7  m  15?   2.80 159.7   36  90  41  98
   2024 04 22 21:20  16 02 48.93    -14 15 47.8   0.0096 1.0138 150.7  m  15?   2.74 162.1   39  89  41  98
   2024 04 22 21:30  16 02 49.46    -14 16 13.7   0.0096 1.0138 150.7  m  15?   2.68 164.5   41  88  41  98
   2024 04 22 21:40  16 02 49.90    -14 16 39.4   0.0096 1.0138 150.7  m  15?   2.62 166.9   43  87  41  98
   2024 04 22 21:50  16 02 50.27    -14 17 04.8   0.0096 1.0139 150.7  m  15?   2.57 169.4   45  86  41  98
   2024 04 22 22:00  16 02 50.55    -14 17 30.0   0.0096 1.0139 150.7  m  15?   2.53 171.8   48  85  41  98
   2024 04 22 22:10  16 02 50.75    -14 17 54.8   0.0096 1.0139 150.7  m  15?   2.48 174.1   50  84  41  98
   2024 04 22 22:20  16 02 50.89    -14 18 19.4   0.0096 1.0139 150.7  m  15?   2.44 176.4   52  83  41  98
   2024 04 22 22:30  16 02 50.96    -14 18 43.6   0.0096 1.0139 150.7  m  15?   2.41 178.7   55  81  41  98
   2024 04 22 22:40  16 02 50.96    -14 19 07.5   0.0096 1.0139 150.7  m  15?   2.38 180.9   57  80  40  98
   2024 04 22 22:50  16 02 50.90    -14 19 31.1   0.0096 1.0139 150.7  m  15?   2.34 183.0   59  78  40  98
   2024 04 22 23:00  16 02 50.78    -14 19 54.3   0.0096 1.0139 150.8  m  15?   2.32 185.0   61  76  40  98
   2024 04 22 23:10  16 02 50.61    -14 20 17.2   0.0096 1.0139 150.8  m  15?   2.29 186.9   64  74  40  98
   2024 04 22 23:20  16 02 50.39    -14 20 39.8   0.0096 1.0139 150.8  m  15?   2.26 188.7   66  72  40  98
   2024 04 22 23:30  16 02 50.13    -14 21 01.9   0.0096 1.0139 150.8  m  15?   2.23 190.4   68  69  40  98
   2024 04 22 23:40  16 02 49.83    -14 21 23.7   0.0096 1.0139 150.8  m  15?   2.21 191.9   70  66  40  98
   2024 04 22 23:50  16 02 49.50    -14 21 45.1   0.0096 1.0139 150.8  m  15?   2.18 193.3   72  62  40  98
   2024 04 23 00:00  16 02 49.14    -14 22 06.1   0.0096 1.0139 150.8  m  15?   2.15 194.6   74  57  40  98
   2024 04 23 00:10  16 02 48.75    -14 22 26.7   0.0096 1.0139 150.8  m  15?   2.12 195.7   76  50  40  99
   2024 04 23 00:20  16 02 48.34    -14 22 47.0   0.0096 1.0139 150.8  m  15?   2.09 196.7   78  42  40  99
   2024 04 23 00:30  16 02 47.91    -14 23 06.8   0.0096 1.0139 150.8  m  15?   2.06 197.6   79  32  40  99
   2024 04 23 00:40  16 02 47.47    -14 23 26.2   0.0096 1.0139 150.8  m  15?   2.03 198.3   80  19  40  99
   2024 04 23 00:50  16 02 47.03    -14 23 45.2   0.0096 1.0139 150.8  m  15?   1.99 198.8   81   3  40  99
   2024 04 23 01:00  16 02 46.58    -14 24 03.8   0.0096 1.0139 150.9  t  15?   1.95 199.1   81 348  40  99
   2024 04 23 01:10  16 02 46.14    -14 24 22.1   0.0096 1.0139 150.9  m  15?   1.91 199.3   80 333  40  99
   2024 04 23 01:20  16 02 45.71    -14 24 39.9   0.0096 1.0139 150.9  m  15?   1.87 199.2   79 322  40  99
   2024 04 23 01:30  16 02 45.29    -14 24 57.3   0.0096 1.0139 150.9  m  15?   1.82 199.0   77 312  40  99
   2024 04 23 01:40  16 02 44.89    -14 25 14.3   0.0096 1.0139 150.9  m  15?   1.77 198.5   75 305  40  99
   2024 04 23 01:50  16 02 44.51    -14 25 30.9   0.0096 1.0139 150.9  m  15?   1.73 197.8   73 300  39  99
   2024 04 23 02:00  16 02 44.16    -14 25 47.1   0.0096 1.0139 150.9  m  15?   1.68 196.8   71 295  39  99
   2024 04 23 02:10  16 02 43.84    -14 26 03.0   0.0096 1.0139 150.9  m  15?   1.62 195.5   69 291  39  99
   2024 04 23 02:20  16 02 43.56    -14 26 18.4   0.0096 1.0139 150.9  m  15?   1.57 193.8   67 288  39  99
   2024 04 23 02:30  16 02 43.32    -14 26 33.5   0.0096 1.0139 150.9  m  15?   1.52 191.9   65 286  39  99
   2024 04 23 02:40  16 02 43.12    -14 26 48.2   0.0096 1.0139 150.9  m  15?   1.47 189.5   63 284  39  99
   2024 04 23 02:50  16 02 42.98    -14 27 02.6   0.0096 1.0139 150.9  m  15?   1.43 186.8   60 282  39  99
   2024 04 23 03:00  16 02 42.89    -14 27 16.6   0.0096 1.0139 150.9  m  15?   1.39 183.6   58 280  39  99
   2024 04 23 03:10  16 02 42.85    -14 27 30.2   0.0096 1.0139 151.0  m  15?   1.35 179.9   56 278  39  99
   2024 04 23 03:20  16 02 42.88    -14 27 43.6   0.0096 1.0139 151.0  m  15?   1.32 175.9   54 277  39  99
   2024 04 23 03:30  16 02 42.98    -14 27 56.6   0.0096 1.0139 151.0  m  15?   1.30 171.4   51 275  39  99
   2024 04 23 03:40  16 02 43.15    -14 28 09.2   0.0096 1.0139 151.0  m  15?   1.29 166.6   49 274  39  99
   2024 04 23 03:50  16 02 43.39    -14 28 21.6   0.0097 1.0139 151.0  m  15?   1.29 161.6   47 273  39  99
   2024 04 23 04:00  16 02 43.70    -14 28 33.7   0.0097 1.0139 151.0 Am  15?   1.30 156.4   44 272  39  99
   2024 04 23 04:10  16 02 44.10    -14 28 45.5   0.0097 1.0139 151.0 Am  15?   1.33 151.2   42 271  38  99
   2024 04 23 04:20  16 02 44.58    -14 28 57.1   0.0097 1.0139 151.0 Am  15?   1.37 146.1   40 270  38  99
   2024 04 23 04:30  16 02 45.15    -14 29 08.4   0.0097 1.0139 151.0 Nm  15?   1.43 141.3   37 269  38  99
   2024 04 23 04:40  16 02 45.81    -14 29 19.5   0.0097 1.0139 151.0 Nm  15?   1.50 136.8   35 268  38  99
   2024 04 23 04:50  16 02 46.56    -14 29 30.3   0.0097 1.0139 151.0 C   15?   1.58 132.7   33 267  38  99
   2024 04 23 05:00  16 02 47.40    -14 29 41.0   0.0097 1.0139 151.0 C   15?   1.67 129.0   31 266  38  99
   ................
   2024 04 23 18:30  16 07 21.74    -14 52 44.7   0.0097 1.0141 150.4  m  15?   4.34 129.5    0 106  31  99
   2024 04 23 18:40  16 07 23.98    -14 53 12.4   0.0097 1.0141 150.4  m  15?   4.22 130.9    2 105  31  99
   2024 04 23 18:50  16 07 26.12    -14 53 40.2   0.0097 1.0141 150.4  m  15?   4.10 132.4    4 104  31  99
   2024 04 23 19:00  16 07 28.15    -14 54 07.9   0.0097 1.0141 150.4  m  15?   3.99 134.0    7 103  31  99
   2024 04 23 19:10  16 07 30.07    -14 54 35.7   0.0097 1.0141 150.4  m  15?   3.87 135.6    9 102  31  99
   2024 04 23 19:20  16 07 31.88    -14 55 03.4   0.0097 1.0141 150.4  m  15?   3.76 137.3   11 101  31  99
   2024 04 23 19:30  16 07 33.58    -14 55 31.1   0.0097 1.0141 150.4  m  15?   3.65 139.0   13 100  31  99
   2024 04 23 19:40  16 07 35.18    -14 55 58.7   0.0097 1.0141 150.4  m  15?   3.55 140.9   16  99  31  99
   2024 04 23 19:50  16 07 36.66    -14 56 26.3   0.0097 1.0141 150.4  m  15?   3.45 142.8   18  98  31  99
   2024 04 23 20:00  16 07 38.04    -14 56 53.7   0.0097 1.0141 150.4  m  15?   3.35 144.8   20  97  31  99
   2024 04 23 20:10  16 07 39.32    -14 57 21.0   0.0097 1.0141 150.4  m  15?   3.25 146.8   22  97  31  99
   2024 04 23 20:20  16 07 40.49    -14 57 48.2   0.0097 1.0141 150.4  m  15?   3.16 148.9   25  96  31  99
   2024 04 23 20:30  16 07 41.56    -14 58 15.3   0.0097 1.0141 150.4  m  15?   3.07 151.1   27  95  30  99
   2024 04 23 20:40  16 07 42.53    -14 58 42.2   0.0097 1.0141 150.4  m  15?   2.99 153.4   29  94  30  99
   2024 04 23 20:50  16 07 43.40    -14 59 08.9   0.0097 1.0142 150.4  m  15?   2.91 155.7   32  93  30  99
   2024 04 23 21:00  16 07 44.17    -14 59 35.4   0.0097 1.0142 150.4  m  15?   2.84 158.1   34  92  30  99
   2024 04 23 21:10  16 07 44.85    -15 00 01.7   0.0097 1.0142 150.4  m  15?   2.77 160.5   36  91  30  99
   2024 04 23 21:20  16 07 45.44    -15 00 27.7   0.0097 1.0142 150.5  m  15?   2.71 162.9   39  90  30  99
   2024 04 23 21:30  16 07 45.94    -15 00 53.5   0.0097 1.0142 150.5  m  15?   2.65 165.4   41  89  30  99
   2024 04 23 21:40  16 07 46.35    -15 01 19.1   0.0097 1.0142 150.5  m  15?   2.60 167.8   43  88  30  99
   2024 04 23 21:50  16 07 46.69    -15 01 44.4   0.0097 1.0142 150.5  m  15?   2.55 170.3   45  87  30  99
   2024 04 23 22:00  16 07 46.94    -15 02 09.4   0.0097 1.0142 150.5  m  15?   2.50 172.7   48  86  30  99
   2024 04 23 22:10  16 07 47.11    -15 02 34.1   0.0097 1.0142 150.5  m  15?   2.46 175.1   50  85  30  99
   2024 04 23 22:20  16 07 47.22    -15 02 58.4   0.0097 1.0142 150.5  m  15?   2.42 177.4   52  84  30  99
   2024 04 23 22:30  16 07 47.25    -15 03 22.5   0.0097 1.0142 150.5  m  15?   2.39 179.7   55  83  30  99
   2024 04 23 22:40  16 07 47.23    -15 03 46.2   0.0097 1.0142 150.5  m  15?   2.36 181.9   57  81  30  99
   2024 04 23 22:50  16 07 47.14    -15 04 09.6   0.0097 1.0142 150.5  m  15?   2.33 184.1   59  80  30  99
   2024 04 23 23:00  16 07 46.99    -15 04 32.6   0.0097 1.0142 150.5  m  15?   2.30 186.1   61  78  30  99
   2024 04 23 23:10  16 07 46.79    -15 04 55.2   0.0097 1.0142 150.5  m  15?   2.27 188.1   64  76  30  99
   2024 04 23 23:20  16 07 46.54    -15 05 17.5   0.0097 1.0142 150.5  m  15?   2.24 189.9   66  74  30  99
   2024 04 23 23:30  16 07 46.25    -15 05 39.4   0.0097 1.0142 150.5  m  15?   2.22 191.6   68  71  30  99
   2024 04 23 23:40  16 07 45.92    -15 06 00.9   0.0097 1.0142 150.5  m  15?   2.19 193.2   70  68  30  99
   2024 04 23 23:50  16 07 45.55    -15 06 22.0   0.0097 1.0142 150.6  m  15?   2.16 194.7   72  64  30  99
   2024 04 24 00:00  16 07 45.16    -15 06 42.7   0.0097 1.0142 150.6  m  15?   2.13 196.0   75  59  30  99
   2024 04 24 00:10  16 07 44.73    -15 07 03.0   0.0097 1.0142 150.6  m  15?   2.10 197.2   76  53  29  99
   2024 04 24 00:20  16 07 44.29    -15 07 22.9   0.0097 1.0142 150.6  m  15?   2.07 198.2   78  46  29  99
   2024 04 24 00:30  16 07 43.83    -15 07 42.3   0.0097 1.0142 150.6  m  15?   2.04 199.1   80  35  29  99
   2024 04 24 00:40  16 07 43.36    -15 08 01.4   0.0097 1.0142 150.6  m  15?   2.01 199.9   81  22  29  99
   2024 04 24 00:50  16 07 42.88    -15 08 20.0   0.0097 1.0142 150.6  m  15?   1.97 200.5   81   5  29  99
   2024 04 24 01:00  16 07 42.40    -15 08 38.2   0.0097 1.0142 150.6  t  15?   1.93 200.9   81 348  29  99
   2024 04 24 01:10  16 07 41.93    -15 08 56.0   0.0097 1.0142 150.6  m  15?   1.89 201.1   81 333  29  99
   2024 04 24 01:20  16 07 41.46    -15 09 13.4   0.0097 1.0142 150.6  m  15?   1.84 201.2   79 320  29  99
   2024 04 24 01:30  16 07 41.00    -15 09 30.3   0.0097 1.0142 150.6  m  15?   1.79 201.0   78 311  29  99
   2024 04 24 01:40  16 07 40.56    -15 09 46.8   0.0097 1.0142 150.6  m  15?   1.75 200.6   76 303  29  99
   2024 04 24 01:50  16 07 40.15    -15 10 02.9   0.0097 1.0142 150.7  m  15?   1.70 200.0   74 298  29  99
   2024 04 24 02:00  16 07 39.76    -15 10 18.7   0.0097 1.0142 150.7  m  15?   1.64 199.1   72 293  29  99
   2024 04 24 02:10  16 07 39.40    -15 10 34.0   0.0097 1.0142 150.7  m  15?   1.59 197.9   70 290  29  99
   2024 04 24 02:20  16 07 39.08    -15 10 48.9   0.0097 1.0142 150.7  m  16?   1.53 196.4   68 287  29  99
   2024 04 24 02:30  16 07 38.80    -15 11 03.4   0.0097 1.0142 150.7  m  16?   1.48 194.5   65 284  29  99
   2024 04 24 02:40  16 07 38.56    -15 11 17.5   0.0097 1.0142 150.7  m  16?   1.43 192.2   63 282  29  99
   2024 04 24 02:50  16 07 38.38    -15 11 31.3   0.0097 1.0142 150.7  m  16?   1.38 189.5   61 280  29  99
   2024 04 24 03:00  16 07 38.24    -15 11 44.7   0.0097 1.0142 150.7  m  16?   1.33 186.4   59 279  29  99
   2024 04 24 03:10  16 07 38.17    -15 11 57.7   0.0097 1.0142 150.7  m  16?   1.29 182.7   56 277  28  99
   2024 04 24 03:20  16 07 38.16    -15 12 10.4   0.0097 1.0142 150.7  m  16?   1.25 178.6   54 276  28  99
   2024 04 24 03:30  16 07 38.21    -15 12 22.7   0.0097 1.0142 150.7  m  16?   1.22 173.9   52 274  28  99
   2024 04 24 03:40  16 07 38.33    -15 12 34.7   0.0097 1.0142 150.7  m  16?   1.21 168.9   49 273  28  99
   2024 04 24 03:50  16 07 38.53    -15 12 46.4   0.0097 1.0142 150.7  m  16?   1.20 163.6   47 272  28  99
   2024 04 24 04:00  16 07 38.80    -15 12 57.8   0.0097 1.0142 150.7 Am  16?   1.21 158.0   45 271  28  99
   2024 04 24 04:10  16 07 39.15    -15 13 08.9   0.0097 1.0142 150.7 Am  16?   1.24 152.5   43 270  28  99
   2024 04 24 04:20  16 07 39.58    -15 13 19.8   0.0097 1.0142 150.8 Am  16?   1.27 147.0   40 269  28  99
   2024 04 24 04:30  16 07 40.10    -15 13 30.3   0.0097 1.0143 150.8 Nm  16?   1.33 141.8   38 268  28  99
   2024 04 24 04:40  16 07 40.71    -15 13 40.7   0.0097 1.0143 150.8 Nm  16?   1.39 137.0   36 267  28  99
   2024 04 24 04:50  16 07 41.41    -15 13 50.8   0.0097 1.0143 150.8 Cm  16?   1.47 132.5   33 266  28  99
   2024 04 24 05:00  16 07 42.21    -15 14 00.7   0.0097 1.0143 150.8 Cm  16?   1.56 128.5   31 265  28  99
   ................
   2024 04 24 18:30  16 12 12.29    -15 36 21.3   0.0098 1.0144 150.2  m  16?   4.28 130.0    0 106  21  99
   2024 04 24 18:40  16 12 14.50    -15 36 49.0   0.0098 1.0144 150.2  m  16?   4.17 131.4    2 105  21  99
   2024 04 24 18:50  16 12 16.60    -15 37 16.6   0.0098 1.0144 150.2  m  16?   4.05 132.9    4 104  21  99
   2024 04 24 19:00  16 12 18.59    -15 37 44.3   0.0098 1.0144 150.2  m  16?   3.94 134.5    7 104  20  99
   2024 04 24 19:10  16 12 20.48    -15 38 12.0   0.0098 1.0144 150.2  m  16?   3.83 136.1    9 103  20  99
   2024 04 24 19:20  16 12 22.25    -15 38 39.6   0.0098 1.0144 150.2  m  16?   3.72 137.8   11 102  20  99
   2024 04 24 19:30  16 12 23.92    -15 39 07.3   0.0098 1.0144 150.2  m  16?   3.61 139.6   13 101  20  99
   2024 04 24 19:40  16 12 25.48    -15 39 34.8   0.0098 1.0144 150.2  m  16?   3.51 141.5   16 100  20  99
   2024 04 24 19:50  16 12 26.93    -15 40 02.3   0.0098 1.0145 150.2  m  16?   3.41 143.4   18  99  20  99
   2024 04 24 20:00  16 12 28.28    -15 40 29.6   0.0098 1.0145 150.2  m  16?   3.31 145.4   20  98  20  99
   2024 04 24 20:10  16 12 29.52    -15 40 56.9   0.0098 1.0145 150.2  m  16?   3.22 147.5   23  97  20  99
   2024 04 24 20:20  16 12 30.66    -15 41 24.0   0.0098 1.0145 150.2  m  16?   3.13 149.7   25  97  20  99
   2024 04 24 20:30  16 12 31.69    -15 41 50.9   0.0098 1.0145 150.2  m  16?   3.04 151.9   27  96  20  99
   2024 04 24 20:40  16 12 32.63    -15 42 17.7   0.0098 1.0145 150.2  m  16?   2.96 154.2   29  95  20  99
   2024 04 24 20:50  16 12 33.47    -15 42 44.3   0.0098 1.0145 150.2  m  16?   2.88 156.6   32  94  20  99
   2024 04 24 21:00  16 12 34.21    -15 43 10.7   0.0098 1.0145 150.2  m  16?   2.81 159.0   34  93  20  99
   2024 04 24 21:10  16 12 34.85    -15 43 36.9   0.0098 1.0145 150.2  m  16?   2.75 161.4   36  92  20  99
   2024 04 24 21:20  16 12 35.41    -15 44 02.8   0.0098 1.0145 150.2  m  16?   2.68 163.8   39  91  20  99
   2024 04 24 21:30  16 12 35.88    -15 44 28.5   0.0098 1.0145 150.2  m  16?   2.63 166.3   41  90  20  99
   2024 04 24 21:40  16 12 36.26    -15 44 53.9   0.0098 1.0145 150.2  m  16?   2.57 168.8   43  90  20  99
   2024 04 24 21:50  16 12 36.56    -15 45 19.0   0.0098 1.0145 150.2  m  16?   2.53 171.3   45  89  20  99
   2024 04 24 22:00  16 12 36.78    -15 45 43.8   0.0098 1.0145 150.3  m  16?   2.48 173.7   48  87  20  99
   2024 04 24 22:10  16 12 36.93    -15 46 08.4   0.0098 1.0145 150.3  m  16?   2.44 176.2   50  86  20  99
   2024 04 24 22:20  16 12 37.00    -15 46 32.6   0.0098 1.0145 150.3  m  16?   2.40 178.5   52  85  20  99
   2024 04 24 22:30  16 12 37.00    -15 46 56.4   0.0098 1.0145 150.3  m  16?   2.37 180.9   55  84  19  99
   2024 04 24 22:40  16 12 36.94    -15 47 19.9   0.0098 1.0145 150.3  m  16?   2.34 183.1   57  83  19  99
   2024 04 24 22:50  16 12 36.82    -15 47 43.1   0.0098 1.0145 150.3  m  16?   2.31 185.3   59  81  19  99
   2024 04 24 23:00  16 12 36.64    -15 48 05.8   0.0098 1.0145 150.3  m  16?   2.28 187.3   62  79  19  99
   2024 04 24 23:10  16 12 36.41    -15 48 28.2   0.0098 1.0145 150.3  m  16?   2.25 189.3   64  78  19  99
   2024 04 24 23:20  16 12 36.13    -15 48 50.3   0.0098 1.0145 150.3  m  16?   2.22 191.2   66  76  19  99
   2024 04 24 23:30  16 12 35.80    -15 49 11.9   0.0098 1.0145 150.3  m  16?   2.20 192.9   68  73  19  99
   2024 04 24 23:40  16 12 35.44    -15 49 33.1   0.0098 1.0145 150.3  m  16?   2.17 194.6   70  70  19  99
   2024 04 24 23:50  16 12 35.04    -15 49 53.9   0.0098 1.0145 150.3  m  16?   2.14 196.1   73  67  19  98
   2024 04 25 00:00  16 12 34.60    -15 50 14.2   0.0098 1.0145 150.3  m  16?   2.12 197.5   75  62  19  98
   2024 04 25 00:10  16 12 34.15    -15 50 34.2   0.0098 1.0145 150.3  m  16?   2.09 198.7   77  57  19  98
   2024 04 25 00:20  16 12 33.67    -15 50 53.7   0.0098 1.0145 150.4  m  16?   2.05 199.8   79  49  19  98
   2024 04 25 00:30  16 12 33.17    -15 51 12.8   0.0098 1.0145 150.4  m  16?   2.02 200.8   80  39  19  98
   2024 04 25 00:40  16 12 32.67    -15 51 31.5   0.0098 1.0145 150.4  m  16?   1.99 201.6   81  25  19  98
   2024 04 25 00:50  16 12 32.15    -15 51 49.7   0.0098 1.0145 150.4  m  16?   1.95 202.3   82   8  19  98
   2024 04 25 01:00  16 12 31.64    -15 52 07.5   0.0098 1.0145 150.4  t  16?   1.91 202.8   82 349  19  98
   2024 04 25 01:10  16 12 31.13    -15 52 24.8   0.0098 1.0145 150.4  m  16?   1.86 203.1   81 332  19  98
   2024 04 25 01:20  16 12 30.62    -15 52 41.7   0.0098 1.0145 150.4  m  16?   1.82 203.2   80 319  19  98
   2024 04 25 01:30  16 12 30.13    -15 52 58.2   0.0098 1.0145 150.4  m  16?   1.77 203.1   78 309  19  98
   2024 04 25 01:40  16 12 29.65    -15 53 14.3   0.0098 1.0145 150.4  m  16?   1.72 202.9   76 301  19  98
   2024 04 25 01:50  16 12 29.19    -15 53 29.9   0.0098 1.0145 150.4  m  16?   1.67 202.3   74 296  19  98
   2024 04 25 02:00  16 12 28.77    -15 53 45.1   0.0098 1.0145 150.4  m  16?   1.61 201.6   72 292  19  98
   2024 04 25 02:10  16 12 28.37    -15 53 59.9   0.0098 1.0145 150.5  m  16?   1.56 200.5   70 288  19  98
   2024 04 25 02:20  16 12 28.01    -15 54 14.2   0.0098 1.0145 150.5  m  16?   1.50 199.1   68 285  18  98
   2024 04 25 02:30  16 12 27.68    -15 54 28.2   0.0098 1.0145 150.5  m  16?   1.44 197.3   66 283  18  98
   2024 04 25 02:40  16 12 27.41    -15 54 41.7   0.0098 1.0145 150.5  m  16?   1.39 195.1   64 281  18  98
   2024 04 25 02:50  16 12 27.18    -15 54 54.9   0.0098 1.0145 150.5  m  16?   1.33 192.5   61 279  18  98
   2024 04 25 03:00  16 12 27.00    -15 55 07.7   0.0098 1.0145 150.5  m  16?   1.28 189.4   59 277  18  98
   2024 04 25 03:10  16 12 26.88    -15 55 20.1   0.0098 1.0145 150.5  m  16?   1.23 185.8   57 276  18  98
   2024 04 25 03:20  16 12 26.83    -15 55 32.1   0.0098 1.0145 150.5  m  16?   1.19 181.6   54 275  18  98
   2024 04 25 03:30  16 12 26.83    -15 55 43.8   0.0098 1.0146 150.5  m  16?   1.15 176.8   52 273  18  98
   2024 04 25 03:40  16 12 26.91    -15 55 55.2   0.0098 1.0146 150.5  m  16?   1.13 171.6   50 272  18  98
   2024 04 25 03:50  16 12 27.06    -15 56 06.2   0.0098 1.0146 150.5  m  16?   1.12 165.9   48 271  18  98
   2024 04 25 04:00  16 12 27.29    -15 56 16.9   0.0098 1.0146 150.5 Am  16?   1.12 160.0   45 270  18  98
   2024 04 25 04:10  16 12 27.59    -15 56 27.3   0.0098 1.0146 150.5 Am  16?   1.14 154.0   43 269  18  98
   2024 04 25 04:20  16 12 27.98    -15 56 37.4   0.0098 1.0146 150.5 Am  16?   1.17 148.0   41 268  18  98
   2024 04 25 04:30  16 12 28.45    -15 56 47.3   0.0098 1.0146 150.5 Nm  16?   1.22 142.4   38 267  18  98
   2024 04 25 04:40  16 12 29.01    -15 56 56.9   0.0098 1.0146 150.5 Nm  16?   1.29 137.1   36 266  18  98
   2024 04 25 04:50  16 12 29.66    -15 57 06.2   0.0098 1.0146 150.6 Cm  16?   1.37 132.4   34 265  18  98
   2024 04 25 05:00  16 12 30.41    -15 57 15.4   0.0098 1.0146 150.6 Cm  16?   1.46 128.1   31 265  18  98
   ................
   2024 04 25 18:30  16 16 56.19    -16 18 53.2   0.0099 1.0147 150.0  m  16?   4.22 130.5    0 107  11  96
   2024 04 25 18:40  16 16 58.36    -16 19 20.8   0.0099 1.0147 150.0  m  16?   4.11 131.9    2 106  11  96
   2024 04 25 18:50  16 17 00.42    -16 19 48.3   0.0099 1.0148 150.0  m  16?   4.00 133.5    5 105  11  96
   2024 04 25 19:00  16 17 02.38    -16 20 15.9   0.0099 1.0148 150.0  m  16?   3.89 135.1    7 104  11  96
   2024 04 25 19:10  16 17 04.22    -16 20 43.5   0.0099 1.0148 150.0  m  16?   3.78 136.7    9 103  11  96
   2024 04 25 19:20  16 17 05.96    -16 21 11.1   0.0099 1.0148 150.0  m  16?   3.67 138.5   11 102  11  96
   2024 04 25 19:30  16 17 07.59    -16 21 38.6   0.0099 1.0148 150.0  m  16?   3.56 140.3   14 102  11  96
   2024 04 25 19:40  16 17 09.11    -16 22 06.0   0.0099 1.0148 150.0  m  16?   3.46 142.2   16 101  11  96
   2024 04 25 19:50  16 17 10.53    -16 22 33.4   0.0099 1.0148 150.0  m  16?   3.36 144.2   18 100  11  96
   2024 04 25 20:00  16 17 11.84    -16 23 00.7   0.0099 1.0148 150.0  m  16?   3.27 146.2   20  99  11  96
   2024 04 25 20:10  16 17 13.05    -16 23 27.8   0.0099 1.0148 150.0  m  16?   3.18 148.3   23  98  11  96
   2024 04 25 20:20  16 17 14.15    -16 23 54.8   0.0099 1.0148 150.0  m  16?   3.09 150.5   25  97  11  96
   2024 04 25 20:30  16 17 15.15    -16 24 21.6   0.0099 1.0148 150.0  m  16?   3.00 152.8   27  97  11  96
   2024 04 25 20:40  16 17 16.05    -16 24 48.3   0.0099 1.0148 150.0  m  16?   2.93 155.1   29  96  11  96
   2024 04 25 20:50  16 17 16.85    -16 25 14.8   0.0099 1.0148 150.0  m  16?   2.85 157.5   32  95  11  96
   2024 04 25 21:00  16 17 17.55    -16 25 41.1   0.0099 1.0148 150.0  m  16?   2.78 159.9   34  94  11  96
   2024 04 25 21:10  16 17 18.17    -16 26 07.1   0.0099 1.0148 150.0  m  16?   2.72 162.4   36  93  11  96
   2024 04 25 21:20  16 17 18.69    -16 26 32.9   0.0099 1.0148 150.0  m  16?   2.66 164.9   39  92  11  96
   2024 04 25 21:30  16 17 19.12    -16 26 58.4   0.0099 1.0148 150.0  m  16?   2.60 167.4   41  91  10  96
   2024 04 25 21:40  16 17 19.47    -16 27 23.7   0.0099 1.0148 150.1  m  16?   2.55 169.9   43  91  10  96
   2024 04 25 21:50  16 17 19.73    -16 27 48.6   0.0098 1.0148 150.1  m  16?   2.50 172.4   46  90  10  96
   2024 04 25 22:00  16 17 19.92    -16 28 13.3   0.0098 1.0148 150.1  m  16?   2.46 174.9   48  89  10  96
   2024 04 25 22:10  16 17 20.03    -16 28 37.6   0.0098 1.0148 150.1  m  16?   2.42 177.3   50  88  10  96
   2024 04 25 22:20  16 17 20.07    -16 29 01.6   0.0098 1.0148 150.1  m  16?   2.38 179.7   52  86  10  96
   2024 04 25 22:30  16 17 20.04    -16 29 25.2   0.0098 1.0148 150.1  m  16?   2.35 182.1   55  85  10  96
   2024 04 25 22:40  16 17 19.94    -16 29 48.5   0.0098 1.0148 150.1  m  16?   2.32 184.4   57  84  10  96
   2024 04 25 22:50  16 17 19.78    -16 30 11.4   0.0098 1.0148 150.1  m  16?   2.29 186.6   59  83  10  96
   2024 04 25 23:00  16 17 19.57    -16 30 34.0   0.0098 1.0148 150.1  m  16?   2.26 188.7   62  81  10  96
   2024 04 25 23:10  16 17 19.30    -16 30 56.1   0.0098 1.0148 150.1  m  16?   2.23 190.7   64  79  10  96
   2024 04 25 23:20  16 17 18.98    -16 31 17.8   0.0098 1.0148 150.1  m  16?   2.21 192.6   66  77  10  96
   2024 04 25 23:30  16 17 18.62    -16 31 39.2   0.0098 1.0148 150.1  m  16?   2.18 194.4   68  75  10  96
   2024 04 25 23:40  16 17 18.22    -16 32 00.1   0.0098 1.0148 150.1  m  16?   2.16 196.1   71  72  10  95
   2024 04 25 23:50  16 17 17.78    -16 32 20.6   0.0098 1.0148 150.1  m  16?   2.13 197.6   73  69  10  95
   2024 04 26 00:00  16 17 17.32    -16 32 40.6   0.0098 1.0148 150.2  m  16?   2.10 199.1   75  65  10  95
   2024 04 26 00:10  16 17 16.82    -16 33 00.2   0.0098 1.0148 150.2  m  16?   2.07 200.4   77  60  10  95
   2024 04 26 00:20  16 17 16.31    -16 33 19.4   0.0098 1.0148 150.2  m  16?   2.04 201.5   79  52  10  95
   2024 04 26 00:30  16 17 15.78    -16 33 38.1   0.0098 1.0148 150.2  m  16?   2.01 202.6   81  42  10  95
   2024 04 26 00:40  16 17 15.23    -16 33 56.4   0.0098 1.0148 150.2  m  16?   1.97 203.4   82  28  10  95
   2024 04 26 00:50  16 17 14.68    -16 34 14.2   0.0098 1.0148 150.2  m  16?   1.93 204.2   83  10  10  95
   2024 04 26 01:00  16 17 14.12    -16 34 31.5   0.0098 1.0148 150.2  t  16?   1.89 204.8   83 349  10  95
   2024 04 26 01:10  16 17 13.57    -16 34 48.5   0.0098 1.0148 150.2  m  16?   1.85 205.2   82 331  10  95
   2024 04 26 01:20  16 17 13.03    -16 35 04.9   0.0098 1.0148 150.2  m  16?   1.80 205.4   81 317  10  95
   2024 04 26 01:30  16 17 12.49    -16 35 20.9   0.0098 1.0148 150.2  m  16?   1.75 205.4   79 307  10  95
   2024 04 26 01:40  16 17 11.98    -16 35 36.5   0.0098 1.0148 150.2  m  16?   1.70 205.2   77 299  10  95
   2024 04 26 01:50  16 17 11.48    -16 35 51.6   0.0099 1.0148 150.2  m  16?   1.64 204.8   75 294  10  95
   2024 04 26 02:00  16 17 11.01    -16 36 06.3   0.0099 1.0148 150.3  m  16?   1.59 204.2   73 290  10  95
   2024 04 26 02:10  16 17 10.57    -16 36 20.6   0.0099 1.0148 150.3  m  16?   1.53 203.2   71 286  10  95
   2024 04 26 02:20  16 17 10.17    -16 36 34.4   0.0099 1.0148 150.3  m  16?   1.47 202.0   68 284  10  95
   2024 04 26 02:30  16 17 09.80    -16 36 47.8   0.0099 1.0149 150.3  m  16?   1.41 200.3   66 281  10  95
   2024 04 26 02:40  16 17 09.48    -16 37 00.8   0.0099 1.0149 150.3  m  16?   1.35 198.3   64 280  10  95
   2024 04 26 02:50  16 17 09.21    -16 37 13.3   0.0099 1.0149 150.3  m  16?   1.29 195.8   62 278  10  95
   2024 04 26 03:00  16 17 08.99    -16 37 25.5   0.0099 1.0149 150.3  m  16?   1.23 192.8   59 276  10  95
   2024 04 26 03:10  16 17 08.83    -16 37 37.3   0.0099 1.0149 150.3  m  16?   1.18 189.2   57 275  10  95
   2024 04 26 03:20  16 17 08.72    -16 37 48.7   0.0099 1.0149 150.3  m  16?   1.13 185.0   55 274  10  95
   2024 04 26 03:30  16 17 08.69    -16 37 59.8   0.0099 1.0149 150.3  m  16?   1.09 180.2   53 272  10  95
   2024 04 26 03:40  16 17 08.72    -16 38 10.5   0.0099 1.0149 150.3  m  16?   1.06 174.7   50 271  10  95
   2024 04 26 03:50  16 17 08.82    -16 38 20.9   0.0099 1.0149 150.3  m  16?   1.04 168.7   48 270  10  95
   2024 04 26 04:00  16 17 09.00    -16 38 30.9   0.0099 1.0149 150.3 Am  16?   1.04 162.3   46 269  10  95
   2024 04 26 04:10  16 17 09.25    -16 38 40.6   0.0099 1.0149 150.3 Am  16?   1.05 155.8   43 268  10  95
   2024 04 26 04:20  16 17 09.59    -16 38 50.0   0.0099 1.0149 150.4 Am  16?   1.08 149.3   41 267  10  95
   2024 04 26 04:30  16 17 10.02    -16 38 59.2   0.0099 1.0149 150.4 Nm  16?   1.12 143.1   39 266  10  95
   2024 04 26 04:40  16 17 10.53    -16 39 08.1   0.0099 1.0149 150.4 Nm  16?   1.18 137.4   36 266  10  95
   2024 04 26 04:50  16 17 11.13    -16 39 16.7   0.0099 1.0149 150.4 Cm  16?   1.26 132.2   34 265  10  95
   2024 04 26 05:00  16 17 11.82    -16 39 25.1   0.0099 1.0149 150.4 Cm  16?   1.35 127.7   32 264  10  95
   ................
   2024 04 26 18:30  16 21 33.24    -17 00 20.5   0.0099 1.0151 149.9  m  16?   4.16 131.0    0 108   9  92
   2024 04 26 18:40  16 21 35.37    -17 00 48.0   0.0099 1.0151 149.9  m  16?   4.05 132.5    3 107   9  91
   2024 04 26 18:50  16 21 37.40    -17 01 15.4   0.0099 1.0151 149.9  m  16?   3.94 134.0    5 106   9  91
   2024 04 26 19:00  16 21 39.31    -17 01 42.9   0.0099 1.0151 149.8  m  16?   3.83 135.7    7 105   9  91
   2024 04 26 19:10  16 21 41.12    -17 02 10.4   0.0099 1.0151 149.8  m  16?   3.72 137.4    9 104   9  91
   2024 04 26 19:20  16 21 42.81    -17 02 37.8   0.0099 1.0151 149.8  m  16?   3.62 139.1   11 103   9  91
   2024 04 26 19:30  16 21 44.40    -17 03 05.2   0.0099 1.0151 149.8  m  16?   3.51 141.0   14 102   9  91
   2024 04 26 19:40  16 21 45.89    -17 03 32.6   0.0099 1.0151 149.8  m  16?   3.41 142.9   16 101   9  91
   2024 04 26 19:50  16 21 47.26    -17 03 59.8   0.0099 1.0151 149.8  m  16?   3.32 144.9   18 101   9  91
   2024 04 26 20:00  16 21 48.53    -17 04 27.0   0.0099 1.0151 149.9  m  16?   3.22 147.0   20 100   9  91
   2024 04 26 20:10  16 21 49.70    -17 04 54.0   0.0099 1.0151 149.9  m  16?   3.13 149.2   23  99   9  91
   2024 04 26 20:20  16 21 50.76    -17 05 20.9   0.0099 1.0151 149.9  m  16?   3.05 151.4   25  98   9  91
   2024 04 26 20:30  16 21 51.72    -17 05 47.6   0.0099 1.0151 149.9  m  16?   2.97 153.7   27  97   9  91
   2024 04 26 20:40  16 21 52.58    -17 06 14.2   0.0099 1.0151 149.9  m  16?   2.89 156.1   29  97   9  91
   2024 04 26 20:50  16 21 53.35    -17 06 40.5   0.0099 1.0151 149.9  m  16?   2.82 158.5   32  96   9  91
   2024 04 26 21:00  16 21 54.02    -17 07 06.6   0.0099 1.0151 149.9  m  16?   2.75 160.9   34  95   9  91
   2024 04 26 21:10  16 21 54.59    -17 07 32.5   0.0099 1.0151 149.9  m  16?   2.69 163.4   36  94   9  91
   2024 04 26 21:20  16 21 55.07    -17 07 58.2   0.0099 1.0151 149.9  m  16?   2.63 166.0   39  93   9  91
   2024 04 26 21:30  16 21 55.47    -17 08 23.5   0.0099 1.0151 149.9  m  16?   2.57 168.5   41  92   9  91
   2024 04 26 21:40  16 21 55.78    -17 08 48.6   0.0099 1.0151 149.9  m  16?   2.52 171.1   43  91   9  91
   2024 04 26 21:50  16 21 56.01    -17 09 13.4   0.0099 1.0151 149.9  m  16?   2.48 173.6   46  91  10  91
   2024 04 26 22:00  16 21 56.15    -17 09 37.9   0.0099 1.0151 149.9  m  16?   2.44 176.1   48  90  10  91
   2024 04 26 22:10  16 21 56.23    -17 10 02.0   0.0099 1.0151 149.9  m  16?   2.40 178.6   50  89  10  91
   2024 04 26 22:20  16 21 56.23    -17 10 25.8   0.0099 1.0151 149.9  m  16?   2.36 181.1   52  88  10  91
   2024 04 26 22:30  16 21 56.16    -17 10 49.2   0.0099 1.0151 149.9  m  16?   2.33 183.4   55  86  10  91
   2024 04 26 22:40  16 21 56.02    -17 11 12.3   0.0099 1.0151 149.9  m  16?   2.30 185.8   57  85  10  91
   2024 04 26 22:50  16 21 55.83    -17 11 34.9   0.0099 1.0151 149.9  m  16?   2.27 188.0   59  84  10  91
   2024 04 26 23:00  16 21 55.57    -17 11 57.2   0.0099 1.0151 149.9  m  16?   2.24 190.1   62  83  10  91
   2024 04 26 23:10  16 21 55.27    -17 12 19.1   0.0099 1.0151 149.9  m  16?   2.22 192.2   64  81  10  91
   2024 04 26 23:20  16 21 54.91    -17 12 40.5   0.0099 1.0151 150.0  m  16?   2.19 194.1   66  79  10  91
   2024 04 26 23:30  16 21 54.51    -17 13 01.6   0.0099 1.0151 150.0  m  16?   2.17 196.0   68  77  10  91
   2024 04 26 23:40  16 21 54.07    -17 13 22.2   0.0099 1.0151 150.0  m  16?   2.14 197.7   71  75  10  90
   2024 04 26 23:50  16 21 53.60    -17 13 42.3   0.0099 1.0151 150.0  m  16?   2.11 199.3   73  71  10  90
   2024 04 27 00:00  16 21 53.09    -17 14 02.1   0.0099 1.0151 150.0  m  16?   2.09 200.8   75  68  10  90
   2024 04 27 00:10  16 21 52.56    -17 14 21.3   0.0099 1.0151 150.0  m  16?   2.06 202.1   77  63  10  90
   2024 04 27 00:20  16 21 52.00    -17 14 40.1   0.0099 1.0151 150.0  m  16?   2.03 203.4   79  56  10  90
   2024 04 27 00:30  16 21 51.43    -17 14 58.5   0.0099 1.0151 150.0  m  16?   1.99 204.4   81  46  10  90
   2024 04 27 00:40  16 21 50.84    -17 15 16.3   0.0099 1.0151 150.0  m  16?   1.96 205.4   83  32  10  90
   2024 04 27 00:50  16 21 50.25    -17 15 33.8   0.0099 1.0151 150.0  m  16?   1.92 206.2   83  13  10  90
   2024 04 27 01:00  16 21 49.66    -17 15 50.7   0.0099 1.0151 150.0  t  16?   1.88 206.9   84 350  10  90
   2024 04 27 01:10  16 21 49.06    -17 16 07.2   0.0099 1.0151 150.1  m  16?   1.83 207.3   83 329  10  90
   2024 04 27 01:20  16 21 48.48    -17 16 23.2   0.0099 1.0151 150.1  m  16?   1.78 207.7   81 314  10  90
   2024 04 27 01:30  16 21 47.90    -17 16 38.8   0.0099 1.0152 150.1  m  16?   1.73 207.8   80 304  10  90
   2024 04 27 01:40  16 21 47.34    -17 16 53.8   0.0099 1.0152 150.1  m  16?   1.68 207.7   78 297  10  90
   2024 04 27 01:50  16 21 46.80    -17 17 08.5   0.0099 1.0152 150.1  m  16?   1.63 207.5   75 292  10  90
   2024 04 27 02:00  16 21 46.29    -17 17 22.7   0.0099 1.0152 150.1  m  16?   1.57 206.9   73 288  10  90
   2024 04 27 02:10  16 21 45.81    -17 17 36.4   0.0099 1.0152 150.1  m  16?   1.51 206.1   71 285  10  90
   2024 04 27 02:20  16 21 45.36    -17 17 49.7   0.0099 1.0152 150.1  m  16?   1.44 205.0   69 282  10  90
   2024 04 27 02:30  16 21 44.95    -17 18 02.5   0.0099 1.0152 150.1  m  16?   1.38 203.6   67 280  10  90
   2024 04 27 02:40  16 21 44.58    -17 18 14.9   0.0099 1.0152 150.1  m  16?   1.32 201.7   64 278  10  90
   2024 04 27 02:50  16 21 44.26    -17 18 26.9   0.0099 1.0152 150.1  m  16?   1.25 199.4   62 276  10  90
   2024 04 27 03:00  16 21 44.00    -17 18 38.5   0.0099 1.0152 150.1  m  16?   1.19 196.5   60 275  10  90
   2024 04 27 03:10  16 21 43.79    -17 18 49.7   0.0099 1.0152 150.2  m  16?   1.13 193.0   57 274  10  90
   2024 04 27 03:20  16 21 43.64    -17 19 00.5   0.0099 1.0152 150.2  m  16?   1.07 188.9   55 272  10  90
   2024 04 27 03:30  16 21 43.56    -17 19 10.9   0.0099 1.0152 150.2  m  16?   1.03 184.0   53 271  10  90
   2024 04 27 03:40  16 21 43.54    -17 19 21.0   0.0099 1.0152 150.2  m  16?   0.99 178.3   51 270  10  90
   2024 04 27 03:50  16 21 43.59    -17 19 30.7   0.0099 1.0152 150.2  m  16?   0.96 172.0   48 269  10  90
   2024 04 27 04:00  16 21 43.72    -17 19 40.1   0.0099 1.0152 150.2 Am  16?   0.95 165.2   46 268  10  90
   2024 04 27 04:10  16 21 43.93    -17 19 49.1   0.0099 1.0152 150.2 Am  16?   0.96 158.1   44 267  10  90
   2024 04 27 04:20  16 21 44.22    -17 19 57.9   0.0099 1.0152 150.2 Am  16?   0.98 151.0   41 267  10  90
   2024 04 27 04:30  16 21 44.59    -17 20 06.3   0.0099 1.0152 150.2 Nm  16?   1.02 144.1   39 266  10  90
   2024 04 27 04:40  16 21 45.05    -17 20 14.5   0.0099 1.0152 150.2 Nm  16?   1.08 137.8   37 265  10  90
   2024 04 27 04:50  16 21 45.60    -17 20 22.4   0.0099 1.0152 150.2 Cm  16?   1.16 132.2   34 264  11  90
   2024 04 27 05:00  16 21 46.25    -17 20 30.1   0.0099 1.0152 150.2 Cm  16?   1.24 127.2   32 263  11  90
   ................
   2024 04 27 18:30  16 26 03.23    -17 40 43.8   0.0100 1.0154 149.7     16?   4.10 131.6    0 108  16  85
   2024 04 27 18:40  16 26 05.31    -17 41 11.1   0.0100 1.0154 149.7     16?   3.99 133.1    3 107  16  85
   2024 04 27 18:50  16 26 07.29    -17 41 38.5   0.0100 1.0154 149.7     16?   3.88 134.7    5 107  16  85
   2024 04 27 19:00  16 26 09.16    -17 42 05.8   0.0100 1.0154 149.7  m  16?   3.77 136.3    7 106  17  85
   2024 04 27 19:10  16 26 10.92    -17 42 33.2   0.0100 1.0154 149.7  m  16?   3.67 138.1    9 105  17  85
   2024 04 27 19:20  16 26 12.58    -17 43 00.5   0.0100 1.0154 149.7  m  16?   3.56 139.9   11 104  17  85
   2024 04 27 19:30  16 26 14.12    -17 43 27.8   0.0100 1.0154 149.7  m  16?   3.46 141.8   14 103  17  85
   2024 04 27 19:40  16 26 15.56    -17 43 55.0   0.0100 1.0154 149.7  m  16?   3.36 143.7   16 102  17  85
   2024 04 27 19:50  16 26 16.90    -17 44 22.2   0.0100 1.0154 149.7  m  16?   3.27 145.8   18 101  17  85
   2024 04 27 20:00  16 26 18.12    -17 44 49.2   0.0100 1.0154 149.7  m  16?   3.18 147.9   20 101  17  85
   2024 04 27 20:10  16 26 19.25    -17 45 16.1   0.0100 1.0154 149.7  m  16?   3.09 150.1   23 100  17  85
   2024 04 27 20:20  16 26 20.27    -17 45 42.9   0.0100 1.0154 149.7  m  16?   3.01 152.4   25  99  17  84
   2024 04 27 20:30  16 26 21.19    -17 46 09.4   0.0100 1.0154 149.7  m  16?   2.93 154.7   27  98  17  84
   2024 04 27 20:40  16 26 22.01    -17 46 35.9   0.0100 1.0154 149.7  m  16?   2.85 157.1   30  97  17  84
   2024 04 27 20:50  16 26 22.73    -17 47 02.1   0.0100 1.0154 149.7  m  16?   2.78 159.6   32  97  17  84
   2024 04 27 21:00  16 26 23.36    -17 47 28.0   0.0100 1.0154 149.7  m  16?   2.71 162.1   34  96  18  84
   2024 04 27 21:10  16 26 23.89    -17 47 53.8   0.0100 1.0154 149.7  m  16?   2.65 164.6   36  95  18  84
   2024 04 27 21:20  16 26 24.33    -17 48 19.2   0.0100 1.0154 149.7  m  16?   2.60 167.2   39  94  18  84
   2024 04 27 21:30  16 26 24.69    -17 48 44.4   0.0100 1.0154 149.7  m  16?   2.54 169.8   41  93  18  84
   2024 04 27 21:40  16 26 24.95    -17 49 09.3   0.0100 1.0154 149.8  m  16?   2.50 172.4   43  92  18  84
   2024 04 27 21:50  16 26 25.14    -17 49 33.9   0.0100 1.0154 149.8  m  16?   2.45 174.9   46  92  18  84
   2024 04 27 22:00  16 26 25.25    -17 49 58.2   0.0100 1.0154 149.8  m  16?   2.41 177.5   48  91  18  84
   2024 04 27 22:10  16 26 25.28    -17 50 22.1   0.0100 1.0154 149.8  m  16?   2.38 180.0   50  90  18  84
   2024 04 27 22:20  16 26 25.24    -17 50 45.7   0.0100 1.0154 149.8  m  16?   2.34 182.5   53  89  18  84
   2024 04 27 22:30  16 26 25.12    -17 51 08.9   0.0100 1.0154 149.8  m  16?   2.31 184.9   55  88  18  84
   2024 04 27 22:40  16 26 24.95    -17 51 31.7   0.0100 1.0154 149.8  m  16?   2.28 187.3   57  87  18  84
   2024 04 27 22:50  16 26 24.71    -17 51 54.2   0.0100 1.0154 149.8  m  16?   2.25 189.5   59  85  18  84
   2024 04 27 23:00  16 26 24.42    -17 52 16.2   0.0100 1.0154 149.8  m  16?   2.23 191.7   62  84  18  84
   2024 04 27 23:10  16 26 24.07    -17 52 37.8   0.0100 1.0154 149.8  m  16?   2.20 193.8   64  82  18  84
   2024 04 27 23:20  16 26 23.67    -17 52 59.0   0.0100 1.0154 149.8  m  16?   2.18 195.8   66  81  18  84
   2024 04 27 23:30  16 26 23.23    -17 53 19.7   0.0100 1.0154 149.8  m  16?   2.16 197.6   69  79  19  84
   2024 04 27 23:40  16 26 22.75    -17 53 40.0   0.0100 1.0154 149.8  m  16?   2.13 199.4   71  77  19  84
   2024 04 27 23:50  16 26 22.23    -17 53 59.8   0.0100 1.0154 149.8  m  16?   2.10 201.1   73  74  19  84
   2024 04 28 00:00  16 26 21.68    -17 54 19.2   0.0100 1.0154 149.9  m  16?   2.08 202.6   75  70  19  84
   

INTEGRAL (JPL-ID: -198)

   Date (UTC) HH:MM   RA              Dec         delta   r     elong SM  mag  '/hr    PA   alt  az moo ill
   ---- -- -- -----  -------------   -----------  ------ ------ ----- --  --- ------ ------ --- --- --- ---
   2024 04 14 00:00  13 19 14.79    +21 04 34.2    29653 1.0032 149.4     16? 962.79 192.3   42 335  93  31
   2024 04 14 00:10  13 16 37.19    +18 16 13.2    27490 1.0032 152.1     16? 1111.0 192.4   43 330  94  31
   2024 04 14 00:20  13 13 35.59    +15 00 32.5    25279 1.0032 155.2     15? 1301.9 192.5   44 324  95  31
   2024 04 14 00:30  13 10 00.50    +11 09 17.8    23021 1.0032 158.8     15? 1554.5 192.8   45 317  97  31
   2024 04 14 00:40  13 05 36.49    +06 30 27.0    20722 1.0032 163.0     15? 1899.3 193.3   46 309  98  31
   2024 04 14 00:50  12 59 56.75    +00 45 49.8    18393 1.0031 167.4     15? 2387.1 194.1   47 299  99  32
   2024 04 14 01:00  12 52 10.69    -06 32 46.0    16066 1.0031 170.2  e  15? 3103.4 195.4   47 286 101  32
   2024 04 14 01:10  12 40 31.09    -16 09 21.5    13802 1.0031 166.2     15? 4187.5 197.6   46 270 103  32
   2024 04 14 01:20  12 20 29.96    -29 07 16.6    11733 1.0031 154.4     14? 5817.8 201.6   41 250 104  32
   2024 04 14 01:30  11 37 50.16    -46 17 25.1    10122 1.0031 136.0     13? 7970.8 210.9   32 228 104  32
   2024 04 14 01:40  09 32 01.91    -64 09 58.7     9394 1.0030 111.4     12? 9685.6 241.1   16 206 100  32
   ................
   2024 04 18 20:10  13 38 16.71    +61 01 55.4   115425 1.0046 107.8  m  17?  62.84 211.4    0  17  58  77
   2024 04 18 20:20  13 37 30.55    +60 52 48.7   114617 1.0046 107.9  m  17?  65.47 211.5    1  16  58  77
   2024 04 18 20:30  13 36 42.64    +60 43 19.7   113803 1.0046 108.1  m  17?  68.16 211.5    1  15  57  77
   2024 04 18 20:40  13 35 53.07    +60 33 27.3   112984 1.0046 108.3  m  17?  70.91 211.4    2  14  57  77
   2024 04 18 20:50  13 35 01.94    +60 23 10.6   112160 1.0046 108.4  m  17?  73.71 211.3    3  13  57  77
   2024 04 18 21:00  13 34 09.38    +60 12 28.5   111331 1.0046 108.6  m  17?  76.57 211.0    4  12  57  77
   2024 04 18 21:10  13 33 15.49    +60 01 20.0   110497 1.0046 108.8  m  17?  79.47 210.8    4  10  57  77
   2024 04 18 21:20  13 32 20.40    +59 49 44.1   109659 1.0046 108.9  m  17?  82.43 210.4    5   9  57  77
   2024 04 18 21:30  13 31 24.22    +59 37 39.8   108815 1.0046 109.1  m  17?  85.44 210.0    6   8  56  77
   2024 04 18 21:40  13 30 27.09    +59 25 06.2   107967 1.0046 109.3  m  17?  88.50 209.6    6   7  56  77
   2024 04 18 21:50  13 29 29.13    +59 12 02.3   107114 1.0046 109.5  m  17?  91.60 209.1    7   5  56  77
   2024 04 18 22:00  13 28 30.48    +58 58 27.1   106257 1.0046 109.7  m  17?  94.76 208.6    7   4  56  77
   2024 04 18 22:10  13 27 31.26    +58 44 19.7   105395 1.0046 110.0  m  17?  97.96 208.0    8   3  56  77
   2024 04 18 22:20  13 26 31.63    +58 29 39.1   104529 1.0046 110.2  m  17? 101.21 207.4    8   1  55  77
   2024 04 18 22:30  13 25 31.70    +58 14 24.6   103658 1.0046 110.4  m  17? 104.51 206.8    8   0  55  78
   2024 04 18 22:40  13 24 31.63    +57 58 35.1   102782 1.0046 110.7  t  17? 107.85 206.2    8 358  55  78
   2024 04 18 22:50  13 23 31.54    +57 42 09.9   101902 1.0046 110.9  m  17? 111.25 205.5    9 357  55  78
   2024 04 18 23:00  13 22 31.57    +57 25 08.0   101018 1.0046 111.2  m  17? 114.69 204.8    9 355  54  78
   2024 04 18 23:10  13 21 31.87    +57 07 28.6   100128 1.0046 111.5  m  17? 118.19 204.1    9 354  54  78
   2024 04 18 23:20  13 20 32.56    +56 49 10.9    99234 1.0046 111.8  e  17? 121.74 203.3    9 352  54  78
   2024 04 18 23:30  13 19 33.77    +56 30 14.0    98335 1.0046 112.0  m  17? 125.34 202.6    9 350  54  78
   2024 04 18 23:40  13 18 35.64    +56 10 37.2    97431 1.0046 112.3  m  17? 129.00 201.8    9 349  53  78
   2024 04 18 23:50  13 17 38.29    +55 50 19.7    96522 1.0046 112.7  m  17? 132.73 201.0    8 347  53  78
   2024 04 19 00:00  13 16 41.84    +55 29 20.6    95608 1.0046 113.0  m  17? 136.51 200.3    8 346  53  78
   2024 04 19 00:10  13 15 46.41    +55 07 39.1    94689 1.0046 113.3  m  17? 140.36 199.5    8 344  52  78
   2024 04 19 00:20  13 14 52.12    +54 45 14.5    93763 1.0046 113.7  m  17? 144.28 198.7    7 343  52  78
   2024 04 19 00:30  13 13 59.07    +54 22 05.9    92832 1.0046 114.0  m  17? 148.27 197.9    7 341  52  78
   2024 04 19 00:40  13 13 07.37    +53 58 12.6    91895 1.0046 114.4  m  17? 152.34 197.0    7 339  51  78
   2024 04 19 00:50  13 12 17.11    +53 33 33.6    90952 1.0046 114.8  m  17? 156.49 196.2    6 338  51  78
   2024 04 19 01:00  13 11 28.40    +53 08 08.1    90002 1.0046 115.2  m  17? 160.73 195.4    5 336  51  78
   2024 04 19 01:10  13 10 41.32    +52 41 55.2    89045 1.0046 115.6  m  17? 165.06 194.6    5 335  50  78
   2024 04 19 01:20  13 09 55.95    +52 14 53.9    88081 1.0046 116.0  m  17? 169.50 193.8    4 333  50  78
   2024 04 19 01:30  13 09 12.36    +51 47 03.3    87109 1.0046 116.4     17? 174.05 193.0    3 332  50  78
   2024 04 19 01:40  13 08 30.63    +51 18 22.3    86130 1.0047 116.9     17? 178.72 192.2    2 330  49  78
   2024 04 19 01:50  13 07 50.83    +50 48 49.7    85142 1.0047 117.3     17? 183.52 191.4    1 329  49  78
   2024 04 19 02:00  13 07 13.00    +50 18 24.5    84145 1.0047 117.8     17? 188.45 190.7    1 327  49  79
   2024 04 19 02:10  13 06 37.20    +49 47 05.2    83139 1.0047 118.3     17? 193.54 189.9    0 326  48  79
   ................
   2024 04 21 18:40  13 48 24.14    +47 58 37.8    78363 1.0054 119.8  m  17? 125.37 188.7    0  35  52  95
   2024 04 21 18:50  13 48 03.61    +47 37 32.1    76983 1.0054 120.2  m  17? 131.07 189.6    2  35  52  95
   2024 04 21 19:00  13 47 40.46    +47 15 31.1    75586 1.0054 120.5  m  17? 137.22 190.3    3  34  52  95
   2024 04 21 19:10  13 47 14.68    +46 52 30.4    74172 1.0054 120.9  m  17? 143.83 191.0    5  33  51  95
   2024 04 21 19:20  13 46 46.27    +46 28 25.4    72741 1.0054 121.3  m  17? 150.95 191.6    6  32  51  95
   2024 04 21 19:30  13 46 15.19    +46 03 11.2    71292 1.0054 121.7  m  17? 158.61 192.2    8  31  50  95
   2024 04 21 19:40  13 45 41.44    +45 36 42.2    69825 1.0054 122.2  m  17? 166.86 192.6   10  30  50  95
   2024 04 21 19:50  13 45 05.00    +45 08 52.4    68340 1.0054 122.6  m  17? 175.74 193.0   11  29  50  95
   2024 04 21 20:00  13 44 25.85    +44 39 35.3    66836 1.0054 123.1  m  17? 185.32 193.4   13  27  49  95
   2024 04 21 20:10  13 43 43.98    +44 08 43.6    65313 1.0054 123.6  m  17? 195.65 193.6   14  26  49  95
   2024 04 21 20:20  13 42 59.36    +43 36 09.6    63770 1.0054 124.1  m  17? 206.83 193.9   16  25  48  95
   2024 04 21 20:30  13 42 11.96    +43 01 44.2    62208 1.0054 124.7  m  17? 218.93 194.0   17  23  48  95
   2024 04 21 20:40  13 41 21.75    +42 25 17.8    60625 1.0054 125.3  m  17? 232.07 194.1   19  22  47  95
   2024 04 21 20:50  13 40 28.69    +41 46 39.3    59020 1.0054 125.9  m  17? 246.37 194.2   20  20  46  95
   2024 04 21 21:00  13 39 32.72    +41 05 36.6    57393 1.0054 126.5  m  16? 261.97 194.2   22  18  46  95
   2024 04 21 21:10  13 38 33.78    +40 21 55.5    55744 1.0054 127.2  m  16? 279.05 194.2   23  17  45  95
   2024 04 21 21:20  13 37 31.78    +39 35 20.5    54071 1.0054 128.0  m  16? 297.82 194.2   25  15  44  95
   2024 04 21 21:30  13 36 26.61    +38 45 33.3    52373 1.0054 128.8  m  16? 318.54 194.1   26  13  43  95
   2024 04 21 21:40  13 35 18.13    +37 52 13.2    50650 1.0054 129.6  m  16? 341.50 194.0   27  10  43  95
   2024 04 21 21:50  13 34 06.15    +36 54 56.0    48899 1.0054 130.5  m  16? 367.08 193.8   29   8  42  95
   2024 04 21 22:00  13 32 50.46    +35 53 13.7    47121 1.0054 131.5  m  16? 395.74 193.7   30   6  41  95
   2024 04 21 22:10  13 31 30.74    +34 46 32.9    45313 1.0054 132.6  m  16? 428.05 193.5   31   3  39  95
   2024 04 21 22:20  13 30 06.62    +33 34 14.0    43474 1.0054 133.7  m  16? 464.75 193.3   33   0  38  96
   2024 04 21 22:30  13 28 37.61    +32 15 29.7    41601 1.0054 134.9  t  16? 506.75 193.2   34 358  37  96
   2024 04 21 22:40  13 27 03.05    +30 49 22.0    39695 1.0054 136.3  m  16? 555.25 193.0   35 354  36  96
   2024 04 21 22:50  13 25 22.10    +29 14 39.9    37751 1.0054 137.8  m  16? 611.82 192.8   37 351  34  96
   2024 04 21 23:00  13 23 33.62    +27 29 54.6    35769 1.0054 139.4  m  16? 678.57 192.7   38 347  32  96
   2024 04 21 23:10  13 21 36.08    +25 33 13.5    33746 1.0054 141.1  m  16? 758.33 192.5   39 343  30  96
   2024 04 21 23:20  13 19 27.38    +23 22 11.6    31679 1.0054 143.1  m  16? 855.08 192.5   40 339  28  96
   2024 04 21 23:30  13 17 04.57    +20 53 38.2    29568 1.0053 145.3  m  16? 974.45 192.5   41 334  26  96
   2024 04 21 23:40  13 14 23.40    +18 03 17.1    27409 1.0053 147.8  m  15? 1124.7 192.5   43 329  23  96
   2024 04 21 23:50  13 11 17.54    +14 45 15.1    25204 1.0053 150.5  m  15? 1318.1 192.7   44 323  20  96
   2024 04 22 00:00  13 07 37.20    +10 51 12.4    22953 1.0053 153.6  m  15? 1574.1 193.0   45 316  16  96
   2024 04 22 00:10  13 03 06.40    +06 08 59.2    20662 1.0053 156.9  m  15? 1923.3 193.5   46 307  11  96
   2024 04 22 00:20  12 57 17.43    +00 20 16.6    18345 1.0053 160.1  m  15? 2416.7 194.4   46 297   6  96
   2024 04 22 00:30  12 49 17.85    -07 03 13.1    16032 1.0053 161.9  e  15? 3139.7 195.7   46 284   5  96
   2024 04 22 00:40  12 37 16.42    -16 45 16.1    13788 1.0053 159.5  m  14? 4228.9 197.9   45 269  13  96
   2024 04 22 00:50  12 16 34.70    -29 47 30.3    11748 1.0053 150.3  m  14? 5851.9 202.1   40 249  26  96
   2024 04 22 01:00  11 32 23.08    -46 54 12.3    10176 1.0052 133.5  m  13? 7958.9 211.8   31 227  45  96
   2024 04 22 01:10  09 23 21.43    -64 17 03.5     9487 1.0052 109.9  m  12? 9585.3 242.8   15 205  70  96
   ................
   2024 04 26 19:40  13 37 49.43    +61 15 22.6   115255 1.0067 104.5  m  17?  63.49 211.4    0  17  93  91
   2024 04 26 19:50  13 37 02.39    +61 06 11.4   114446 1.0067 104.7  m  17?  66.14 211.5    1  16  93  91
   2024 04 26 20:00  13 36 13.61    +60 56 37.6   113632 1.0067 104.8  m  17?  68.84 211.5    1  15  93  91
   2024 04 26 20:10  13 35 23.19    +60 46 40.3   112813 1.0067 104.9  m  17?  71.61 211.4    2  14  93  91
   2024 04 26 20:20  13 34 31.23    +60 36 18.3   111988 1.0067 105.1  m  17?  74.42 211.2    3  13  93  91
   2024 04 26 20:30  13 33 37.84    +60 25 30.7   111159 1.0067 105.2  m  17?  77.29 211.0    4  11  93  91
   2024 04 26 20:40  13 32 43.15    +60 14 16.5   110324 1.0067 105.4  m  17?  80.22 210.7    4  10  93  91
   2024 04 26 20:50  13 31 47.27    +60 02 34.6   109485 1.0067 105.6  m  17?  83.19 210.4    5   9  93  91
   2024 04 26 21:00  13 30 50.33    +59 50 24.1   108641 1.0067 105.7  m  17?  86.21 210.0    5   8  93  91
   2024 04 26 21:10  13 29 52.46    +59 37 44.0   107792 1.0067 105.9  m  17?  89.29 209.5    6   6  93  91
   2024 04 26 21:20  13 28 53.79    +59 24 33.3   106939 1.0067 106.1  m  17?  92.41 209.0    7   5  93  91
   2024 04 26 21:30  13 27 54.46    +59 10 51.1   106081 1.0067 106.3  m  17?  95.58 208.5    7   4  93  91
   2024 04 26 21:40  13 26 54.60    +58 56 36.4   105219 1.0067 106.5  m  17?  98.79 207.9    7   2  93  91
   2024 04 26 21:50  13 25 54.34    +58 41 48.3   104351 1.0067 106.7  m  17? 102.06 207.3    8   1  93  91
   2024 04 26 22:00  13 24 53.83    +58 26 26.0   103480 1.0067 106.9  t  17? 105.37 206.7    8 359  93  91
   2024 04 26 22:10  13 23 53.21    +58 10 28.5   102603 1.0067 107.1  m  17? 108.74 206.0    8 358  93  91
   2024 04 26 22:20  13 22 52.61    +57 53 54.9   101722 1.0067 107.4  m  17? 112.15 205.3    8 356  93  91
   2024 04 26 22:30  13 21 52.17    +57 36 44.4   100837 1.0067 107.6  m  17? 115.61 204.6    8 355  93  91
   2024 04 26 22:40  13 20 52.03    +57 18 56.2    99947 1.0067 107.9  m  17? 119.13 203.9    9 353  93  91
   2024 04 26 22:50  13 19 52.32    +57 00 29.4    99051 1.0067 108.1  e  17? 122.70 203.2    9 352  93  91
   2024 04 26 23:00  13 18 53.17    +56 41 23.2    98151 1.0067 108.4  m  17? 126.32 202.4    8 350  93  91
   2024 04 26 23:10  13 17 54.72    +56 21 36.8    97246 1.0067 108.7  m  17? 130.01 201.6    8 349  92  91
   2024 04 26 23:20  13 16 57.10    +56 01 09.4    96336 1.0067 109.0  m  17? 133.75 200.9    8 347  92  91
   2024 04 26 23:30  13 16 00.41    +55 40 00.1    95421 1.0067 109.3  m  17? 137.56 200.1    8 345  92  91
   2024 04 26 23:40  13 15 04.79    +55 18 08.2    94500 1.0067 109.6  m  17? 141.43 199.3    8 344  92  90
   2024 04 26 23:50  13 14 10.34    +54 55 32.9    93573 1.0067 109.9  m  17? 145.38 198.5    7 342  92  90
   2024 04 27 00:00  13 13 17.17    +54 32 13.3    92640 1.0067 110.2  m  17? 149.39 197.7    7 341  92  90
   2024 04 27 00:10  13 12 25.40    +54 08 08.7    91702 1.0067 110.6  m  17? 153.49 196.9    6 339  92  90
   2024 04 27 00:20  13 11 35.10    +53 43 18.1    90757 1.0067 110.9  m  17? 157.67 196.1    6 338  91  90
   2024 04 27 00:30  13 10 46.39    +53 17 40.8    89805 1.0068 111.3  m  17? 161.95 195.2    5 336  91  90
   2024 04 27 00:40  13 09 59.34    +52 51 15.7    88846 1.0068 111.7  m  17? 166.32 194.4    4 334  91  90
   2024 04 27 00:50  13 09 14.04    +52 24 01.9    87880 1.0068 112.1  m  17? 170.79 193.6    4 333  91  90
   2024 04 27 01:00  13 08 30.56    +51 55 58.4    86906 1.0068 112.5  m  17? 175.38 192.8    3 331  91  90
   2024 04 27 01:10  13 07 48.97    +51 27 04.2    85925 1.0068 112.9  m  17? 180.09 192.0    2 330  90  90
   2024 04 27 01:20  13 07 09.33    +50 57 18.0    84935 1.0068 113.3  m  17? 184.93 191.3    1 328  90  90
   2024 04 27 01:30  13 06 31.70    +50 26 38.8    83935 1.0068 113.8  m  17? 189.91 190.5    0 327  90  90
   2024 04 27 01:40  13 05 56.13    +49 55 05.1    82927 1.0068 114.2  m  17? 195.05 189.7    0 325  90  90
   ................
   

Spektr-R Observatory (JPL-ID: -557)

   Date (UTC) HH:MM   RA              Dec         delta   r     elong SM  mag  '/hr    PA   alt  az moo ill
   ---- -- -- -----  -------------   -----------  ------ ------ ----- --  --- ------ ------ --- --- --- ---
   2024 04 14 00:00  12 19 53.13    +43 47 58.1   222156 1.0039 124.5     15?  21.99 125.5   16 335  72  31
   2024 04 14 00:10  12 20 09.64    +43 45 48.7   221647 1.0039 124.5     15?  22.92 125.8   15 333  72  31
   2024 04 14 00:20  12 20 26.78    +43 43 32.7   221142 1.0039 124.6     15?  23.87 126.1   14 332  72  31
   2024 04 14 00:30  12 20 44.56    +43 41 10.4   220640 1.0039 124.6     15?  24.85 126.3   13 330  72  31
   2024 04 14 00:40  12 21 03.04    +43 38 41.8   220142 1.0039 124.7     15?  25.84 126.4   12 329  72  31
   2024 04 14 00:50  12 21 22.24    +43 36 07.1   219648 1.0039 124.7     15?  26.86 126.4   11 327  72  32
   2024 04 14 01:00  12 21 42.20    +43 33 26.5   219156 1.0039 124.8     15?  27.89 126.3    9 326  72  32
   2024 04 14 01:10  12 22 02.93    +43 30 40.1   218668 1.0039 124.8     15?  28.94 126.1    8 325  72  32
   2024 04 14 01:20  12 22 24.48    +43 27 48.1   218182 1.0039 124.9     15?  30.00 126.0    7 324  72  32
   2024 04 14 01:30  12 22 46.86    +43 24 50.8   217698 1.0039 125.0     15?  31.08 125.7    6 322  72  32
   2024 04 14 01:40  12 23 10.11    +43 21 48.4   217217 1.0039 125.0     15?  32.17 125.4    4 321  72  32
   2024 04 14 01:50  12 23 34.24    +43 18 40.9   216737 1.0039 125.1     15?  33.27 125.1    3 320  72  32
   2024 04 14 02:00  12 23 59.29    +43 15 28.7   216259 1.0039 125.2     15?  34.39 124.7    2 319  72  32
   2024 04 14 02:10  12 24 25.27    +43 12 12.0   215783 1.0039 125.3     15?  35.51 124.3    0 318  72  32
   ................
   2024 04 14 18:50  14 09 56.01    +38 43 11.9   138905 1.0038 130.8  m  15?  85.04 101.2    0  47  85  39
   2024 04 14 19:00  14 11 06.44    +38 40 24.9   137798 1.0038 130.8  m  14?  84.97 101.8    1  46  85  39
   2024 04 14 19:10  14 12 16.60    +38 37 29.0   136690 1.0038 130.8  m  14?  84.94 102.5    2  45  85  39
   2024 04 14 19:20  14 13 26.51    +38 34 23.5   135579 1.0038 130.8  m  14?  84.95 103.1    4  44  85  39
   2024 04 14 19:30  14 14 36.19    +38 31 07.9   134467 1.0038 130.8  m  14?  85.01 103.8    5  43  85  39
   2024 04 14 19:40  14 15 45.66    +38 27 41.7   133353 1.0038 130.8  m  14?  85.13 104.6    7  42  86  39
   2024 04 14 19:50  14 16 54.94    +38 24 04.2   132238 1.0038 130.8  m  14?  85.30 105.4    8  41  86  39
   2024 04 14 20:00  14 18 04.05    +38 20 14.9   131123 1.0038 130.8  m  14?  85.54 106.2    9  40  86  39
   2024 04 14 20:10  14 19 13.01    +38 16 13.1   130006 1.0038 130.8  m  14?  85.84 107.0   11  39  86  39
   2024 04 14 20:20  14 20 21.86    +38 11 58.3   128889 1.0038 130.8  m  14?  86.22 107.9   12  38  86  39
   2024 04 14 20:30  14 21 30.62    +38 07 29.8   127771 1.0038 130.8  m  14?  86.67 108.7   13  37  86  39
   2024 04 14 20:40  14 22 39.33    +38 02 47.1   126653 1.0038 130.8  m  14?  87.21 109.6   15  36  87  40
   2024 04 14 20:50  14 23 48.02    +37 57 49.3   125534 1.0038 130.8  m  14?  87.84 110.6   16  34  87  40
   2024 04 14 21:00  14 24 56.72    +37 52 36.0   124416 1.0038 130.8  m  14?  88.56 111.5   17  33  87  40
   2024 04 14 21:10  14 26 05.49    +37 47 06.4   123297 1.0038 130.9  m  14?  89.39 112.4   18  32  87  40
   2024 04 14 21:20  14 27 14.36    +37 41 19.9   122178 1.0038 130.9  m  14?  90.31 113.4   19  30  87  40
   2024 04 14 21:30  14 28 23.38    +37 35 15.7   121060 1.0038 130.9  m  14?  91.34 114.3   20  29  88  40
   2024 04 14 21:40  14 29 32.59    +37 28 53.2   119942 1.0038 130.9  m  14?  92.49 115.3   22  27  88  40
   2024 04 14 21:50  14 30 42.04    +37 22 11.6   118824 1.0038 131.0     14?  93.76 116.3   23  26  88  40
   2024 04 14 22:00  14 31 51.79    +37 15 10.2   117707 1.0038 131.0     14?  95.14 117.2   23  24  88  40
   2024 04 14 22:10  14 33 01.89    +37 07 48.3   116590 1.0038 131.0     14?  96.66 118.2   24  22  89  40
   2024 04 14 22:20  14 34 12.40    +37 00 05.2   115474 1.0038 131.1     14?  98.31 119.1   25  21  89  40
   2024 04 14 22:30  14 35 23.39    +36 52 00.0   114359 1.0038 131.1     14? 100.09 120.0   26  19  89  40
   2024 04 14 22:40  14 36 34.90    +36 43 32.1   113244 1.0038 131.2     14? 102.01 120.9   27  17  89  40
   2024 04 14 22:50  14 37 47.02    +36 34 40.5   112130 1.0038 131.2     14? 104.07 121.7   28  15  89  40
   2024 04 14 23:00  14 38 59.81    +36 25 24.6   111016 1.0038 131.3     14? 106.28 122.6   28  13  90  40
   2024 04 14 23:10  14 40 13.33    +36 15 43.4   109903 1.0038 131.3     14? 108.64 123.4   29  11  90  41
   2024 04 14 23:20  14 41 27.67    +36 05 36.3   108791 1.0038 131.4     14? 111.15 124.2   29   9  90  41
   2024 04 14 23:30  14 42 42.90    +35 55 02.2   107680 1.0038 131.5     14? 113.82 124.9   30   7  90  41
   2024 04 14 23:40  14 43 59.10    +35 44 00.4   106570 1.0038 131.5     14? 116.65 125.7   30   5  91  41
   2024 04 14 23:50  14 45 16.34    +35 32 30.0   105460 1.0038 131.6     14? 119.65 126.4   31   3  91  41
   2024 04 15 00:00  14 46 34.72    +35 20 30.0   104350 1.0038 131.7     14? 122.81 127.0   31   1  91  41
   2024 04 15 00:10  14 47 54.32    +35 07 59.5   103241 1.0038 131.7  t  14? 126.15 127.7   31 359  91  41
   2024 04 15 00:20  14 49 15.24    +34 54 57.7   102133 1.0037 131.8     14? 129.66 128.2   31 357  92  41
   2024 04 15 00:30  14 50 37.55    +34 41 23.4   101025 1.0037 131.9     14? 133.35 128.8   32 355  92  41
   2024 04 15 00:40  14 52 01.36    +34 27 15.8    99917 1.0037 132.0     14? 137.22 129.3   32 353  92  41
   2024 04 15 00:50  14 53 26.76    +34 12 33.7    98810 1.0037 132.1  e  14? 141.28 129.8   32 351  93  41
   2024 04 15 01:00  14 54 53.85    +33 57 16.1    97703 1.0037 132.2     14? 145.54 130.3   31 349  93  41
   2024 04 15 01:10  14 56 22.74    +33 41 21.9    96596 1.0037 132.2     14? 150.00 130.7   31 347  93  42
   2024 04 15 01:20  14 57 53.53    +33 24 49.9    95488 1.0037 132.3     14? 154.66 131.1   31 344  94  42
   2024 04 15 01:30  14 59 26.32    +33 07 39.0    94381 1.0037 132.4     14? 159.53 131.5   31 342  94  42
   2024 04 15 01:40  15 01 01.24    +32 49 48.0    93273 1.0037 132.5     14? 164.62 131.8   31 340  94  42
   2024 04 15 01:50  15 02 38.38    +32 31 15.4    92165 1.0037 132.6     14? 169.93 132.1   30 338  95  42
   2024 04 15 02:00  15 04 17.87    +32 12 00.1    91056 1.0037 132.7     14? 175.48 132.4   30 336  95  42
   2024 04 15 02:10  15 05 59.82    +31 52 00.5    89946 1.0037 132.8     14? 181.27 132.6   29 334  96  42
   2024 04 15 02:20  15 07 44.36    +31 31 15.3    88835 1.0037 132.9     14? 187.31 132.9   29 332  96  42
   2024 04 15 02:30  15 09 31.62    +31 09 42.8    87723 1.0037 133.0     14? 193.61 133.1   28 330  97  42
   2024 04 15 02:40  15 11 21.72    +30 47 21.5    86610 1.0037 133.1     14? 200.19 133.3   27 328  97  42
   2024 04 15 02:50  15 13 14.80    +30 24 09.6    85496 1.0037 133.2     14? 207.05 133.5   27 327  98  42
   2024 04 15 03:00  15 15 10.99    +30 00 05.4    84380 1.0037 133.3     13? 214.20 133.6   26 325  98  43
   2024 04 15 03:10  15 17 10.44    +29 35 06.8    83262 1.0037 133.4     13? 221.67 133.8   25 323  99  43
   2024 04 15 03:20  15 19 13.29    +29 09 11.9    82142 1.0037 133.5     13? 229.46 133.9   25 321  99  43
   2024 04 15 03:30  15 21 19.69    +28 42 18.6    81020 1.0037 133.5     13? 237.59 134.0   24 319 100  43
   2024 04 15 03:40  15 23 29.80    +28 14 24.5    79895 1.0037 133.6     13? 246.08 134.1   23 318 100  43
   2024 04 15 03:50  15 25 43.79    +27 45 27.2    78768 1.0037 133.7     13? 254.96 134.2   22 316 101  43
   2024 04 15 04:00  15 28 01.82    +27 15 24.2    77639 1.0037 133.7 A   13? 264.23 134.3   21 314 101  43
   2024 04 15 04:10  15 30 24.08    +26 44 12.7    76506 1.0037 133.8 A   13? 273.93 134.3   20 313 102  43
   2024 04 15 04:20  15 32 50.74    +26 11 49.6    75370 1.0037 133.8 N   13? 284.08 134.4   19 311 103  43
   2024 04 15 04:30  15 35 22.00    +25 38 12.0    74232 1.0037 133.8 N   13? 294.71 134.5   18 309 103  43
   2024 04 15 04:40  15 37 58.06    +25 03 16.3    73089 1.0036 133.8 N   13? 305.84 134.5   17 308 104  44
   2024 04 15 04:50  15 40 39.14    +24 26 59.1    71944 1.0036 133.8 C   13? 317.51 134.6   16 306 105  44
   2024 04 15 05:00  15 43 25.46    +23 49 16.3    70794 1.0036 133.8 C   13? 329.75 134.6   15 305 106  44
   ................
   2024 04 15 16:50  04 36 21.81    -08 57 54.5    59442 1.0032  48.7 Cm  13? 475.99  46.0   45 281  59  49
   2024 04 15 17:00  04 40 06.21    -08 04 03.4    60851 1.0032  49.2 Cm  13? 456.09  46.0   43 281  58  49
   2024 04 15 17:10  04 43 40.82    -07 12 24.5    62263 1.0032  49.7 Nm  13? 437.50  46.0   42 281  56  49
   2024 04 15 17:20  04 47 06.47    -06 22 51.0    63679 1.0032  50.3 Nm  13? 420.12  46.0   40 281  55  49
   2024 04 15 17:30  04 50 23.93    -05 35 16.4    65097 1.0032  50.8 Am  13? 403.86  46.1   38 281  54  49
   2024 04 15 17:40  04 53 33.85    -04 49 34.6    66518 1.0032  51.3 Am  13? 388.64  46.2   36 281  53  49
   2024 04 15 17:50  04 56 36.84    -04 05 39.7    67940 1.0032  51.8 Am  13? 374.38  46.3   34 281  52  49
   2024 04 15 18:00  04 59 33.45    -03 23 26.3    69363 1.0032  52.3  m  13? 361.00  46.5   32 281  51  49
   2024 04 15 18:10  05 02 24.18    -02 42 49.1    70787 1.0032  52.8  m  13? 348.45  46.6   30 281  50  49
   2024 04 15 18:20  05 05 09.48    -02 03 43.3    72211 1.0032  53.3  m  13? 336.66  46.8   28 281  49  49
   2024 04 15 18:30  05 07 49.75    -01 26 04.2    73635 1.0032  53.8  m  13? 325.59  47.1   27 280  48  49
   

Euclid (JPL-ID: -680)

   Date (UTC) HH:MM   RA              Dec         delta   r     elong SM  mag  '/hr    PA   alt  az moo ill
   ---- -- -- -----  -------------   -----------  ------ ------ ----- --  --- ------ ------ --- --- --- ---
   2024 04 14 00:00  12 54 34.94    -21 39 36.8   0.0082 1.0109 165.1     20?   2.19 142.8   66 268 109  31
   2024 04 14 00:10  12 54 35.92    -21 39 53.9   0.0082 1.0109 165.1     20?   2.19 140.1   64 267 109  31
   2024 04 14 00:20  12 54 36.96    -21 40 10.4   0.0082 1.0109 165.1     20?   2.21 137.2   62 267 109  31
   2024 04 14 00:30  12 54 38.07    -21 40 26.3   0.0082 1.0109 165.1     20?   2.23 134.3   59 266 109  31
   2024 04 14 00:40  12 54 39.25    -21 40 41.6   0.0082 1.0109 165.1     20?   2.27 131.4   57 265 109  31
   2024 04 14 00:50  12 54 40.51    -21 40 56.4   0.0082 1.0109 165.0     20?   2.32 128.5   55 264 108  32
   2024 04 14 01:00  12 54 41.85    -21 41 10.5   0.0082 1.0109 165.0     20?   2.38 125.6   53 264 108  32
   2024 04 14 01:10  12 54 43.28    -21 41 24.1   0.0082 1.0109 165.0     20?   2.45 122.9   50 263 108  32
   2024 04 14 01:20  12 54 44.80    -21 41 37.2   0.0082 1.0109 165.0     20?   2.54 120.3   48 262 108  32
   2024 04 14 01:30  12 54 46.42    -21 41 49.8   0.0082 1.0109 165.0     20?   2.63 117.9   46 262 108  32
   2024 04 14 01:40  12 54 48.13    -21 42 01.9   0.0082 1.0109 165.0     20?   2.74 115.6   43 261 108  32
   2024 04 14 01:50  12 54 49.96    -21 42 13.6   0.0082 1.0109 165.0     20?   2.85 113.6   41 260 108  32
   2024 04 14 02:00  12 54 51.88    -21 42 24.8   0.0082 1.0109 165.0     20?   2.98 111.6   39 260 108  32
   2024 04 14 02:10  12 54 53.92    -21 42 35.6   0.0082 1.0109 165.0     20?   3.11 109.9   37 259 108  32
   2024 04 14 02:20  12 54 56.08    -21 42 46.0   0.0082 1.0109 165.0     20?   3.25 108.3   34 258 107  32
   2024 04 14 02:30  12 54 58.35    -21 42 56.1   0.0082 1.0109 165.0     20?   3.40 106.9   32 258 107  32
   2024 04 14 02:40  12 55 00.74    -21 43 05.9   0.0082 1.0109 165.1     20?   3.55 105.6   30 257 107  33
   2024 04 14 02:50  12 55 03.25    -21 43 15.3   0.0082 1.0109 165.1     20?   3.71 104.4   28 256 107  33
   2024 04 14 03:00  12 55 05.89    -21 43 24.5   0.0082 1.0109 165.1     20?   3.87 103.4   25 256 107  33
   2024 04 14 03:10  12 55 08.66    -21 43 33.4   0.0082 1.0109 165.1     20?   4.04 102.5   23 255 107  33
   2024 04 14 03:20  12 55 11.55    -21 43 42.1   0.0082 1.0110 165.1     20?   4.21 101.7   21 254 107  33
   2024 04 14 03:30  12 55 14.58    -21 43 50.6   0.0082 1.0110 165.1     20?   4.39 101.0   19 253 107  33
   2024 04 14 03:40  12 55 17.73    -21 43 59.0   0.0082 1.0110 165.1     20?   4.57 100.4   17 253 107  33
   2024 04 14 03:50  12 55 21.02    -21 44 07.2   0.0082 1.0110 165.1     20?   4.75  99.9   14 252 106  33
   2024 04 14 04:00  12 55 24.44    -21 44 15.3   0.0082 1.0110 165.1 A   20?   4.93  99.4   12 251 106  33
   2024 04 14 04:10  12 55 28.00    -21 44 23.4   0.0082 1.0110 165.1 A   20?   5.11  99.0   10 250 106  33
   2024 04 14 04:20  12 55 31.69    -21 44 31.4   0.0082 1.0110 165.1 N   20?   5.30  98.7    8 249 106  34
   2024 04 14 04:30  12 55 35.51    -21 44 39.4   0.0082 1.0110 165.1 N   20?   5.48  98.4    6 248 106  34
   2024 04 14 04:40  12 55 39.47    -21 44 47.5   0.0082 1.0110 165.1 N   20?   5.67  98.1    4 247 106  34
   2024 04 14 04:50  12 55 43.56    -21 44 55.5   0.0082 1.0110 165.1 C   20?   5.85  97.9    2 247 106  34
   2024 04 14 05:00  12 55 47.79    -21 45 03.7   0.0082 1.0110 165.1 C   20?   6.03  97.8    0 246 106  34
   ................
   2024 04 14 16:50  13 02 36.65    -22 14 54.4   0.0082 1.0111 165.5 Cm  20?   6.24 129.4   14 108 102  38
   2024 04 14 17:00  13 02 40.05    -22 15 34.1   0.0082 1.0111 165.5 Cm  20?   6.10 130.5   16 107 102  39
   2024 04 14 17:10  13 02 43.32    -22 16 13.7   0.0082 1.0111 165.5 Nm  20?   5.95 131.6   18 107 102  39
   2024 04 14 17:20  13 02 46.46    -22 16 53.2   0.0082 1.0111 165.5 Nm  20?   5.81 132.6   20 106 102  39
   2024 04 14 17:30  13 02 49.47    -22 17 32.5   0.0082 1.0111 165.5 Nm  20?   5.66 133.7   22 105 102  39
   2024 04 14 17:40  13 02 52.34    -22 18 11.7   0.0082 1.0111 165.5 Am  20?   5.52 134.9   25 104 102  39
   2024 04 14 17:50  13 02 55.10    -22 18 50.5   0.0082 1.0111 165.5 Am  20?   5.38 136.0   27 104 102  39
   2024 04 14 18:00  13 02 57.72    -22 19 29.2   0.0082 1.0111 165.4  m  20?   5.24 137.2   29 103 102  39
   2024 04 14 18:10  13 03 00.23    -22 20 07.6   0.0082 1.0111 165.4  m  20?   5.11 138.3   31 102 101  39
   2024 04 14 18:20  13 03 02.61    -22 20 45.6   0.0082 1.0111 165.4  m  20?   4.97 139.5   33 102 101  39
   2024 04 14 18:30  13 03 04.87    -22 21 23.3   0.0082 1.0111 165.4  m  20?   4.84 140.7   36 101 101  39
   2024 04 14 18:40  13 03 07.02    -22 22 00.7   0.0082 1.0111 165.4  m  20?   4.71 141.9   38 101 101  39
   2024 04 14 18:50  13 03 09.06    -22 22 37.6   0.0082 1.0111 165.4  m  20?   4.59 143.1   40 100 101  39
   2024 04 14 19:00  13 03 10.98    -22 23 14.2   0.0082 1.0111 165.4  m  20?   4.47 144.3   42  99 101  39
   2024 04 14 19:10  13 03 12.80    -22 23 50.3   0.0082 1.0111 165.4  m  20?   4.35 145.5   45  99 101  39
   2024 04 14 19:20  13 03 14.52    -22 24 25.9   0.0082 1.0111 165.4  m  20?   4.23 146.7   47  98 101  39
   2024 04 14 19:30  13 03 16.15    -22 25 01.0   0.0082 1.0111 165.4  m  20?   4.11 147.9   49  97 101  39
   2024 04 14 19:40  13 03 17.67    -22 25 35.6   0.0082 1.0111 165.4  m  20?   4.00 149.0   52  97 101  39
   2024 04 14 19:50  13 03 19.11    -22 26 09.7   0.0082 1.0111 165.4  m  20?   3.89 150.1   54  96 101  39
   2024 04 14 20:00  13 03 20.47    -22 26 43.2   0.0082 1.0111 165.4  m  20?   3.79 151.2   56  96 101  39
   2024 04 14 20:10  13 03 21.74    -22 27 16.1   0.0082 1.0111 165.4  m  20?   3.69 152.2   58  95 101  39
   2024 04 14 20:20  13 03 22.94    -22 27 48.4   0.0082 1.0112 165.4  m  20?   3.58 153.2   61  94 101  39
   2024 04 14 20:30  13 03 24.07    -22 28 20.2   0.0082 1.0112 165.4  m  20?   3.49 154.1   63  94 101  39
   2024 04 14 20:40  13 03 25.13    -22 28 51.2   0.0082 1.0112 165.4  m  20?   3.39 155.0   65  93 101  40
   2024 04 14 20:50  13 03 26.13    -22 29 21.7   0.0082 1.0112 165.3  m  20?   3.30 155.7   68  93 101  40
   2024 04 14 21:00  13 03 27.08    -22 29 51.4   0.0082 1.0112 165.3  m  20?   3.21 156.4   70  92 101  40
   2024 04 14 21:10  13 03 27.98    -22 30 20.5   0.0082 1.0112 165.3  m  20?   3.12 157.0   72  91 100  40
   2024 04 14 21:20  13 03 28.83    -22 30 48.9   0.0082 1.0112 165.3  m  20?   3.03 157.5   74  90 100  40
   2024 04 14 21:30  13 03 29.65    -22 31 16.6   0.0082 1.0112 165.3  m  20?   2.95 157.8   77  90 100  40
   2024 04 14 21:40  13 03 30.44    -22 31 43.6   0.0082 1.0112 165.3  m  20?   2.87 158.1   79  89 100  40
   2024 04 14 21:50  13 03 31.19    -22 32 09.8   0.0082 1.0112 165.3     20?   2.79 158.1   81  87 100  40
   2024 04 14 22:00  13 03 31.93    -22 32 35.4   0.0082 1.0112 165.3     20?   2.71 158.0   84  85 100  40
   2024 04 14 22:10  13 03 32.65    -22 33 00.2   0.0082 1.0112 165.3     20?   2.64 157.8   86  81 100  40
   2024 04 14 22:20  13 03 33.37    -22 33 24.3   0.0082 1.0112 165.3     20?   2.57 157.3   88  65 100  40
   2024 04 14 22:30  13 03 34.08    -22 33 47.7   0.0082 1.0112 165.3  t  20?   2.50 156.7   88 295 100  40
   2024 04 14 22:40  13 03 34.80    -22 34 10.3   0.0082 1.0112 165.3     20?   2.44 155.8   86 278 100  40
   2024 04 14 22:50  13 03 35.52    -22 34 32.2   0.0082 1.0112 165.3     20?   2.38 154.7   84 274 100  40
   2024 04 14 23:00  13 03 36.26    -22 34 53.4   0.0082 1.0112 165.3     20?   2.32 153.4   81 272 100  40
   2024 04 14 23:10  13 03 37.02    -22 35 13.8   0.0082 1.0112 165.3     20?   2.28 151.9   79 270  99  41
   2024 04 14 23:20  13 03 37.81    -22 35 33.5   0.0082 1.0112 165.3     20?   2.23 150.1   77 269  99  41
   2024 04 14 23:30  13 03 38.63    -22 35 52.5   0.0082 1.0112 165.3     20?   2.20 148.0   75 268  99  41
   2024 04 14 23:40  13 03 39.48    -22 36 10.8   0.0082 1.0112 165.3     20?   2.17 145.8   72 267  99  41
   2024 04 14 23:50  13 03 40.39    -22 36 28.4   0.0082 1.0112 165.3     20?   2.15 143.3   70 267  99  41
   2024 04 15 00:00  13 03 41.34    -22 36 45.3   0.0082 1.0112 165.3     20?   2.14 140.6   68 266  99  41
   2024 04 15 00:10  13 03 42.35    -22 37 01.6   0.0082 1.0112 165.3     20?   2.14 137.8   65 265  99  41
   2024 04 15 00:20  13 03 43.41    -22 37 17.2   0.0082 1.0112 165.2     20?   2.16 135.0   63 265  99  41
   2024 04 15 00:30  13 03 44.55    -22 37 32.1   0.0082 1.0112 165.2     20?   2.18 132.0   61 264  99  41
   2024 04 15 00:40  13 03 45.75    -22 37 46.4   0.0082 1.0112 165.2     20?   2.22 129.0   58 264  99  41
   2024 04 15 00:50  13 03 47.03    -22 38 00.1   0.0082 1.0112 165.2     20?   2.27 126.1   56 263  98  41
   2024 04 15 01:00  13 03 48.40    -22 38 13.2   0.0082 1.0112 165.2     20?   2.33 123.3   54 262  98  41
   2024 04 15 01:10  13 03 49.84    -22 38 25.7   0.0082 1.0112 165.2     20?   2.40 120.6   52 262  98  42
   2024 04 15 01:20  13 03 51.38    -22 38 37.7   0.0082 1.0112 165.2     20?   2.49 118.0   49 261  98  42
   2024 04 15 01:30  13 03 53.01    -22 38 49.1   0.0082 1.0112 165.2     20?   2.58 115.6   47 261  98  42
   2024 04 15 01:40  13 03 54.74    -22 39 00.1   0.0082 1.0112 165.2     20?   2.69 113.3   45 260  98  42
   2024 04 15 01:50  13 03 56.58    -22 39 10.5   0.0082 1.0112 165.2     20?   2.80 111.2   43 259  98  42
   2024 04 15 02:00  13 03 58.52    -22 39 20.5   0.0082 1.0112 165.2     20?   2.93 109.4   40 259  98  42
   2024 04 15 02:10  13 04 00.57    -22 39 30.0   0.0082 1.0112 165.2     20?   3.06 107.6   38 258  98  42
   2024 04 15 02:20  13 04 02.73    -22 39 39.1   0.0082 1.0112 165.2     20?   3.20 106.1   36 258  98  42
   2024 04 15 02:30  13 04 05.01    -22 39 47.9   0.0082 1.0112 165.2     20?   3.35 104.7   34 257  97  42
   2024 04 15 02:40  13 04 07.41    -22 39 56.2   0.0082 1.0112 165.2     20?   3.50 103.5   31 256  97  42
   2024 04 15 02:50  13 04 09.93    -22 40 04.3   0.0082 1.0112 165.2     20?   3.66 102.4   29 256  97  42
   2024 04 15 03:00  13 04 12.57    -22 40 12.0   0.0082 1.0112 165.2     20?   3.82 101.4   27 255  97  43
   2024 04 15 03:10  13 04 15.34    -22 40 19.5   0.0082 1.0112 165.3     20?   3.99 100.5   25 254  97  43
   2024 04 15 03:20  13 04 18.24    -22 40 26.8   0.0082 1.0112 165.3     20?   4.16  99.8   22 253  97  43
   2024 04 15 03:30  13 04 21.27    -22 40 33.8   0.0082 1.0112 165.3     20?   4.34  99.2   20 253  97  43
   2024 04 15 03:40  13 04 24.44    -22 40 40.6   0.0082 1.0112 165.3     20?   4.52  98.6   18 252  97  43
   2024 04 15 03:50  13 04 27.73    -22 40 47.3   0.0082 1.0112 165.3     20?   4.70  98.1   16 251  97  43
   2024 04 15 04:00  13 04 31.16    -22 40 53.9   0.0082 1.0112 165.3 A   20?   4.88  97.6   14 250  96  43
   2024 04 15 04:10  13 04 34.72    -22 41 00.4   0.0082 1.0112 165.3 A   20?   5.07  97.3   12 250  96  43
   2024 04 15 04:20  13 04 38.42    -22 41 06.8   0.0082 1.0112 165.3 N   20?   5.25  97.0    9 249  96  43
   2024 04 15 04:30  13 04 42.25    -22 41 13.3   0.0082 1.0112 165.3 N   20?   5.44  96.7    7 248  96  43
   2024 04 15 04:40  13 04 46.22    -22 41 19.7   0.0082 1.0112 165.3 N   20?   5.62  96.5    5 247  96  44
   2024 04 15 04:50  13 04 50.33    -22 41 26.1   0.0082 1.0113 165.3 C   20?   5.81  96.4    3 246  96  44
   2024 04 15 05:00  13 04 54.56    -22 41 32.7   0.0082 1.0113 165.3 C   20?   5.99  96.3    1 245  96  44
   ................
   2024 04 15 16:50  13 11 50.18    -23 10 01.0   0.0082 1.0114 165.6 Cm  20?   6.35 128.2   13 109  92  49
   2024 04 15 17:00  13 11 53.72    -23 10 40.4   0.0082 1.0114 165.6 Cm  20?   6.20 129.2   15 109  92  49
   2024 04 15 17:10  13 11 57.14    -23 11 19.6   0.0082 1.0114 165.6 Nm  20?   6.06 130.3   17 108  92  49
   2024 04 15 17:20  13 12 00.42    -23 11 58.8   0.0082 1.0114 165.6 Nm  20?   5.91 131.3   19 107  92  49
   2024 04 15 17:30  13 12 03.56    -23 12 37.8   0.0082 1.0114 165.6 Am  20?   5.76 132.4   21 106  92  49
   2024 04 15 17:40  13 12 06.58    -23 13 16.6   0.0082 1.0114 165.6 Am  20?   5.62 133.5   24 106  92  49
   2024 04 15 17:50  13 12 09.47    -23 13 55.2   0.0082 1.0114 165.5 Am  20?   5.47 134.6   26 105  92  49
   2024 04 15 18:00  13 12 12.23    -23 14 33.6   0.0082 1.0114 165.5  m  20?   5.33 135.7   28 104  92  49
   2024 04 15 18:10  13 12 14.87    -23 15 11.7   0.0082 1.0114 165.5  m  20?   5.19 136.8   30 104  92  49
   2024 04 15 18:20  13 12 17.38    -23 15 49.4   0.0082 1.0114 165.5  m  20?   5.06 138.0   32 103  91  49
   2024 04 15 18:30  13 12 19.77    -23 16 26.9   0.0082 1.0114 165.5  m  20?   4.92 139.1   35 103  91  49
   2024 04 15 18:40  13 12 22.04    -23 17 03.9   0.0082 1.0114 165.5  m  20?   4.79 140.3   37 102  91  49
   2024 04 15 18:50  13 12 24.20    -23 17 40.6   0.0082 1.0114 165.5  m  20?   4.66 141.4   39 101  91  49
   2024 04 15 19:00  13 12 26.25    -23 18 16.9   0.0082 1.0114 165.5  m  20?   4.53 142.6   41 101  91  49
   2024 04 15 19:10  13 12 28.19    -23 18 52.7   0.0082 1.0114 165.5  m  20?   4.41 143.7   44 100  91  49
   2024 04 15 19:20  13 12 30.03    -23 19 28.0   0.0082 1.0114 165.5  m  20?   4.28 144.9   46 100  91  49
   2024 04 15 19:30  13 12 31.76    -23 20 02.8   0.0082 1.0114 165.5  m  20?   4.16 146.0   48  99  91  49
   2024 04 15 19:40  13 12 33.40    -23 20 37.1   0.0082 1.0114 165.5  m  20?   4.05 147.1   50  99  91  49
   2024 04 15 19:50  13 12 34.95    -23 21 10.9   0.0082 1.0114 165.5  m  20?   3.93 148.2   53  98  91  49
   2024 04 15 20:00  13 12 36.41    -23 21 44.1   0.0082 1.0114 165.5  m  20?   3.82 149.2   55  98  91  49
   2024 04 15 20:10  13 12 37.78    -23 22 16.7   0.0082 1.0114 165.5  m  20?   3.72 150.2   57  97  91  49
   2024 04 15 20:20  13 12 39.08    -23 22 48.6   0.0082 1.0114 165.5  m  20?   3.61 151.2   60  97  91  49
   2024 04 15 20:30  13 12 40.30    -23 23 20.0   0.0082 1.0114 165.4  m  20?   3.51 152.1   62  96  91  50
   2024 04 15 20:40  13 12 41.46    -23 23 50.7   0.0082 1.0114 165.4  m  20?   3.41 152.9   64  96  91  50
   2024 04 15 20:50  13 12 42.55    -23 24 20.7   0.0082 1.0114 165.4  m  20?   3.31 153.7   66  95  91  50
   2024 04 15 21:00  13 12 43.58    -23 24 50.0   0.0082 1.0114 165.4  m  20?   3.21 154.4   69  95  91  50
   2024 04 15 21:10  13 12 44.57    -23 25 18.7   0.0082 1.0114 165.4  m  20?   3.12 154.9   71  95  91  50
   2024 04 15 21:20  13 12 45.50    -23 25 46.6   0.0082 1.0114 165.4  m  20?   3.03 155.4   73  94  91  50
   2024 04 15 21:30  13 12 46.39    -23 26 13.8   0.0082 1.0114 165.4  m  20?   2.94 155.8   76  94  90  50
   2024 04 15 21:40  13 12 47.25    -23 26 40.3   0.0082 1.0114 165.4  m  20?   2.86 156.0   78  94  90  50
   2024 04 15 21:50  13 12 48.08    -23 27 06.1   0.0082 1.0115 165.4  m  20?   2.77 156.1   80  94  90  50
   2024 04 15 22:00  13 12 48.88    -23 27 31.1   0.0082 1.0115 165.4  m  20?   2.69 156.0   82  94  90  50
   2024 04 15 22:10  13 12 49.67    -23 27 55.3   0.0082 1.0115 165.4  m  20?   2.62 155.7   85  95  90  50
   2024 04 15 22:20  13 12 50.44    -23 28 18.8   0.0082 1.0115 165.4  m  20?   2.54 155.3   87  99  90  50
   2024 04 15 22:30  13 12 51.21    -23 28 41.5   0.0082 1.0115 165.4  m  20?   2.47 154.6   89 163  90  50
   2024 04 15 22:40  13 12 51.98    -23 29 03.5   0.0082 1.0115 165.4  t  20?   2.41 153.8   87 259  90  50
   2024 04 15 22:50  13 12 52.75    -23 29 24.7   0.0082 1.0115 165.4     20?   2.34 152.7   85 264  90  50
   2024 04 15 23:00  13 12 53.54    -23 29 45.2   0.0082 1.0115 165.4     20?   2.29 151.4   83 265  90  50
   2024 04 15 23:10  13 12 54.34    -23 30 04.9   0.0082 1.0115 165.4     20?   2.23 149.8   80 265  90  50
   2024 04 15 23:20  13 12 55.17    -23 30 23.8   0.0082 1.0115 165.4     20?   2.19 148.0   78 265  90  51
   2024 04 15 23:30  13 12 56.03    -23 30 42.0   0.0082 1.0115 165.4     20?   2.15 145.9   76 265  90  51
   2024 04 15 23:40  13 12 56.92    -23 30 59.5   0.0082 1.0115 165.4     20?   2.12 143.6   74 265  89  51
   2024 04 15 23:50  13 12 57.85    -23 31 16.3   0.0082 1.0115 165.4     20?   2.10 141.1   71 264  89  51
   2024 04 16 00:00  13 12 58.84    -23 31 32.3   0.0082 1.0115 165.3     20?   2.09 138.4   69 264  89  51
   2024 04 16 00:10  13 12 59.87    -23 31 47.6   0.0082 1.0115 165.3     20?   2.09 135.6   67 263  89  51
   2024 04 16 00:20  13 13 00.96    -23 32 02.2   0.0082 1.0115 165.3     20?   2.10 132.7   64 263  89  51
   2024 04 16 00:30  13 13 02.12    -23 32 16.2   0.0082 1.0115 165.3     20?   2.13 129.7   62 263  89  51
   2024 04 16 00:40  13 13 03.34    -23 32 29.4   0.0082 1.0115 165.3     20?   2.16 126.7   60 262  89  51
   2024 04 16 00:50  13 13 04.64    -23 32 42.1   0.0082 1.0115 165.3     20?   2.21 123.7   58 262  89  51
   2024 04 16 01:00  13 13 06.02    -23 32 54.1   0.0082 1.0115 165.3     20?   2.27 120.9   55 261  89  51
   2024 04 16 01:10  13 13 07.48    -23 33 05.5   0.0082 1.0115 165.3     20?   2.35 118.1   53 261  89  51
   2024 04 16 01:20  13 13 09.03    -23 33 16.3   0.0082 1.0115 165.3     20?   2.43 115.6   51 260  88  51
   2024 04 16 01:30  13 13 10.67    -23 33 26.6   0.0082 1.0115 165.3     20?   2.53 113.2   48 260  88  52
   2024 04 16 01:40  13 13 12.41    -23 33 36.3   0.0082 1.0115 165.3     20?   2.63 110.9   46 259  88  52
   2024 04 16 01:50  13 13 14.25    -23 33 45.5   0.0082 1.0115 165.3     20?   2.75 108.9   44 258  88  52
   2024 04 16 02:00  13 13 16.19    -23 33 54.2   0.0082 1.0115 165.3     20?   2.87 107.0   42 258  88  52
   2024 04 16 02:10  13 13 18.24    -23 34 02.4   0.0082 1.0115 165.3     20?   3.01 105.3   39 257  88  52
   2024 04 16 02:20  13 13 20.41    -23 34 10.2   0.0082 1.0115 165.3     20?   3.15 103.8   37 257  88  52
   2024 04 16 02:30  13 13 22.69    -23 34 17.6   0.0082 1.0115 165.3     20?   3.30 102.5   35 256  88  52
   2024 04 16 02:40  13 13 25.09    -23 34 24.6   0.0082 1.0115 165.3     20?   3.45 101.3   33 256  88  52
   2024 04 16 02:50  13 13 27.61    -23 34 31.2   0.0082 1.0115 165.3     20?   3.61 100.2   31 255  88  52
   2024 04 16 03:00  13 13 30.25    -23 34 37.5   0.0082 1.0115 165.3     20?   3.77  99.3   28 254  87  52
   2024 04 16 03:10  13 13 33.02    -23 34 43.5   0.0082 1.0115 165.3     20?   3.94  98.5   26 254  87  52
   2024 04 16 03:20  13 13 35.92    -23 34 49.3   0.0082 1.0115 165.4     20?   4.11  97.8   24 253  87  53
   2024 04 16 03:30  13 13 38.95    -23 34 54.8   0.0082 1.0115 165.4     20?   4.29  97.2   22 252  87  53
   2024 04 16 03:40  13 13 42.11    -23 35 00.1   0.0082 1.0115 165.4     20?   4.47  96.7   20 251  87  53
   2024 04 16 03:50  13 13 45.40    -23 35 05.2   0.0082 1.0115 165.4     20?   4.65  96.2   17 251  87  53
   2024 04 16 04:00  13 13 48.83    -23 35 10.2   0.0082 1.0115 165.4 A   20?   4.83  95.8   15 250  87  53
   2024 04 16 04:10  13 13 52.39    -23 35 15.1   0.0082 1.0115 165.4 A   20?   5.01  95.5   13 249  87  53
   2024 04 16 04:20  13 13 56.09    -23 35 19.9   0.0082 1.0115 165.4 N   20?   5.20  95.2   11 248  87  53
   2024 04 16 04:30  13 13 59.92    -23 35 24.7   0.0082 1.0115 165.4 N   20?   5.38  95.0    9 248  87  53
   2024 04 16 04:40  13 14 03.89    -23 35 29.5   0.0082 1.0115 165.4 N   20?   5.57  94.9    7 247  86  53
   2024 04 16 04:50  13 14 07.99    -23 35 34.3   0.0082 1.0115 165.4 C   20?   5.76  94.7    5 246  86  53
   2024 04 16 05:00  13 14 12.23    -23 35 39.1   0.0082 1.0115 165.4 C   20?   5.94  94.7    2 245  86  54
   ................
   2024 04 16 16:50  13 21 14.05    -24 02 36.6   0.0082 1.0117 165.6 Cm  20?   6.45 127.0   12 111  82  58
   2024 04 16 17:00  13 21 17.74    -24 03 15.5   0.0082 1.0117 165.6 Cm  20?   6.30 128.0   14 110  82  59
   2024 04 16 17:10  13 21 21.29    -24 03 54.4   0.0082 1.0117 165.6 Nm  20?   6.15 129.0   16 109  82  59
   2024 04 16 17:20  13 21 24.71    -24 04 33.1   0.0082 1.0117 165.6 Nm  20?   6.00 130.0   18 108  82  59
   2024 04 16 17:30  13 21 28.00    -24 05 11.6   0.0082 1.0117 165.5 Am  20?   5.85 131.0   20 108  82  59
   2024 04 16 17:40  13 21 31.15    -24 05 50.0   0.0082 1.0117 165.5 Am  20?   5.70 132.1   23 107  82  59
   2024 04 16 17:50  13 21 34.17    -24 06 28.2   0.0082 1.0117 165.5 Am  20?   5.56 133.1   25 106  82  59
   2024 04 16 18:00  13 21 37.06    -24 07 06.2   0.0082 1.0117 165.5  m  20?   5.41 134.2   27 106  82  59
   2024 04 16 18:10  13 21 39.83    -24 07 43.8   0.0082 1.0117 165.5  m  20?   5.27 135.3   29 105  82  59
   2024 04 16 18:20  13 21 42.47    -24 08 21.2   0.0082 1.0117 165.5  m  20?   5.13 136.4   31 105  82  59
   2024 04 16 18:30  13 21 44.99    -24 08 58.3   0.0082 1.0117 165.5  m  20?   4.99 137.5   34 104  82  59
   2024 04 16 18:40  13 21 47.39    -24 09 34.9   0.0082 1.0117 165.5  m  20?   4.85 138.6   36 103  82  59
   2024 04 16 18:50  13 21 49.67    -24 10 11.2   0.0082 1.0117 165.5  m  20?   4.72 139.7   38 103  82  59
   2024 04 16 19:00  13 21 51.84    -24 10 47.1   0.0082 1.0117 165.5  m  20?   4.59 140.9   40 102  82  59
   2024 04 16 19:10  13 21 53.90    -24 11 22.5   0.0082 1.0117 165.5  m  20?   4.46 142.0   43 102  82  59
   2024 04 16 19:20  13 21 55.85    -24 11 57.4   0.0082 1.0117 165.5  m  20?   4.33 143.1   45 101  82  59
   2024 04 16 19:30  13 21 57.69    -24 12 31.9   0.0082 1.0117 165.5  m  20?   4.21 144.2   47 101  81  59
   2024 04 16 19:40  13 21 59.44    -24 13 05.8   0.0082 1.0117 165.5  m  20?   4.09 145.2   49 100  81  59
   2024 04 16 19:50  13 22 01.09    -24 13 39.1   0.0082 1.0117 165.5  m  20?   3.97 146.3   52 100  81  59
   2024 04 16 20:00  13 22 02.65    -24 14 11.9   0.0082 1.0117 165.5  m  20?   3.85 147.3   54  99  81  59
   2024 04 16 20:10  13 22 04.13    -24 14 44.0   0.0082 1.0117 165.4  m  20?   3.74 148.3   56  99  81  59
   2024 04 16 20:20  13 22 05.52    -24 15 15.6   0.0082 1.0117 165.4  m  20?   3.63 149.2   58  99  81  59
   2024 04 16 20:30  13 22 06.84    -24 15 46.5   0.0082 1.0117 165.4  m  20?   3.52 150.1   61  98  81  59
   2024 04 16 20:40  13 22 08.09    -24 16 16.7   0.0082 1.0117 165.4  m  20?   3.42 150.9   63  98  81  59
   2024 04 16 20:50  13 22 09.26    -24 16 46.3   0.0082 1.0117 165.4  m  20?   3.32 151.7   65  98  81  59
   2024 04 16 21:00  13 22 10.38    -24 17 15.1   0.0082 1.0117 165.4  m  20?   3.22 152.3   68  97  81  59
   2024 04 16 21:10  13 22 11.44    -24 17 43.2   0.0082 1.0117 165.4  m  20?   3.12 152.9   70  97  81  60
   2024 04 16 21:20  13 22 12.45    -24 18 10.7   0.0082 1.0117 165.4  m  20?   3.02 153.4   72  97  81  60
   2024 04 16 21:30  13 22 13.42    -24 18 37.3   0.0082 1.0117 165.4  m  20?   2.93 153.7   74  97  81  60
   2024 04 16 21:40  13 22 14.35    -24 19 03.3   0.0082 1.0117 165.4  m  20?   2.84 153.9   77  98  81  60
   2024 04 16 21:50  13 22 15.24    -24 19 28.4   0.0082 1.0117 165.4  m  20?   2.75 154.0   79  98  81  60
   2024 04 16 22:00  13 22 16.11    -24 19 52.8   0.0082 1.0117 165.4  m  20?   2.67 153.9   81 100  81  60
   2024 04 16 22:10  13 22 16.96    -24 20 16.5   0.0082 1.0117 165.4  m  20?   2.59 153.7   83 102  81  60
   2024 04 16 22:20  13 22 17.79    -24 20 39.3   0.0082 1.0117 165.4  m  20?   2.51 153.2   86 109  81  60
   2024 04 16 22:30  13 22 18.61    -24 21 01.4   0.0082 1.0117 165.4  m  20?   2.44 152.6   88 132  80  60
   2024 04 16 22:40  13 22 19.43    -24 21 22.6   0.0082 1.0117 165.4  t  20?   2.37 151.7   88 216  80  60
   2024 04 16 22:50  13 22 20.25    -24 21 43.1   0.0082 1.0117 165.4  m  20?   2.30 150.6   86 247  80  60
   2024 04 16 23:00  13 22 21.08    -24 22 02.8   0.0082 1.0117 165.4  m  20?   2.24 149.3   84 255  80  60
   2024 04 16 23:10  13 22 21.92    -24 22 21.7   0.0082 1.0117 165.4  m  20?   2.19 147.7   82 259  80  60
   2024 04 16 23:20  13 22 22.79    -24 22 39.9   0.0082 1.0118 165.4  m  20?   2.14 145.9   79 260  80  60
   2024 04 16 23:30  13 22 23.68    -24 22 57.3   0.0082 1.0118 165.4  m  20?   2.10 143.8   77 261  80  60
   2024 04 16 23:40  13 22 24.60    -24 23 13.9   0.0082 1.0118 165.3     20?   2.07 141.5   75 261  80  60
   2024 04 16 23:50  13 22 25.56    -24 23 29.7   0.0082 1.0118 165.3     20?   2.05 138.9   73 261  80  60
   2024 04 17 00:00  13 22 26.57    -24 23 44.8   0.0082 1.0118 165.3     20?   2.04 136.2   70 261  80  60
   2024 04 17 00:10  13 22 27.63    -24 23 59.2   0.0082 1.0118 165.3     20?   2.04 133.3   68 261  80  61
   2024 04 17 00:20  13 22 28.74    -24 24 12.8   0.0082 1.0118 165.3     20?   2.05 130.3   66 261  80  61
   2024 04 17 00:30  13 22 29.91    -24 24 25.8   0.0082 1.0118 165.3     20?   2.07 127.3   63 261  79  61
   2024 04 17 00:40  13 22 31.15    -24 24 38.0   0.0082 1.0118 165.3     20?   2.11 124.3   61 261  79  61
   2024 04 17 00:50  13 22 32.46    -24 24 49.6   0.0082 1.0118 165.3     20?   2.16 121.3   59 260  79  61
   2024 04 17 01:00  13 22 33.85    -24 25 00.5   0.0082 1.0118 165.3     20?   2.22 118.4   57 260  79  61
   2024 04 17 01:10  13 22 35.31    -24 25 10.7   0.0082 1.0118 165.3     20?   2.29 115.7   54 259  79  61
   2024 04 17 01:20  13 22 36.87    -24 25 20.4   0.0082 1.0118 165.3     20?   2.37 113.1   52 259  79  61
   2024 04 17 01:30  13 22 38.51    -24 25 29.4   0.0082 1.0118 165.3     20?   2.47 110.7   50 259  79  61
   2024 04 17 01:40  13 22 40.25    -24 25 37.9   0.0082 1.0118 165.3     20?   2.58 108.5   48 258  79  61
   2024 04 17 01:50  13 22 42.09    -24 25 45.8   0.0082 1.0118 165.3     20?   2.69 106.4   45 258  79  61
   2024 04 17 02:00  13 22 44.03    -24 25 53.2   0.0082 1.0118 165.3     20?   2.82 104.6   43 257  79  61
   2024 04 17 02:10  13 22 46.08    -24 26 00.2   0.0082 1.0118 165.3     20?   2.95 103.0   41 257  79  61
   2024 04 17 02:20  13 22 48.24    -24 26 06.6   0.0082 1.0118 165.3     20?   3.09 101.5   39 256  78  62
   2024 04 17 02:30  13 22 50.52    -24 26 12.6   0.0082 1.0118 165.3     20?   3.24 100.2   36 255  78  62
   2024 04 17 02:40  13 22 52.91    -24 26 18.2   0.0082 1.0118 165.3     20?   3.39  99.1   34 255  78  62
   2024 04 17 02:50  13 22 55.42    -24 26 23.4   0.0082 1.0118 165.3     20?   3.55  98.1   32 254  78  62
   2024 04 17 03:00  13 22 58.05    -24 26 28.2   0.0082 1.0118 165.3     20?   3.71  97.2   30 254  78  62
   2024 04 17 03:10  13 23 00.81    -24 26 32.8   0.0082 1.0118 165.3     20?   3.88  96.4   28 253  78  62
   2024 04 17 03:20  13 23 03.70    -24 26 37.0   0.0082 1.0118 165.4     20?   4.05  95.7   25 252  78  62
   2024 04 17 03:30  13 23 06.72    -24 26 41.0   0.0082 1.0118 165.4     20?   4.23  95.2   23 252  78  62
   2024 04 17 03:40  13 23 09.87    -24 26 44.7   0.0082 1.0118 165.4     20?   4.41  94.7   21 251  78  62
   2024 04 17 03:50  13 23 13.15    -24 26 48.3   0.0082 1.0118 165.4     20?   4.59  94.3   19 250  78  62
   2024 04 17 04:00  13 23 16.57    -24 26 51.6   0.0082 1.0118 165.4 A   20?   4.77  93.9   17 250  78  62
   2024 04 17 04:10  13 23 20.12    -24 26 54.9   0.0082 1.0118 165.4 A   20?   4.95  93.7   15 249  77  63
   2024 04 17 04:20  13 23 23.80    -24 26 58.1   0.0082 1.0118 165.4 N   20?   5.14  93.4   12 248  77  63
   2024 04 17 04:30  13 23 27.63    -24 27 01.2   0.0082 1.0118 165.4 N   20?   5.32  93.3   10 247  77  63
   2024 04 17 04:40  13 23 31.59    -24 27 04.2   0.0082 1.0118 165.4 N   20?   5.51  93.1    8 246  77  63
   2024 04 17 04:50  13 23 35.68    -24 27 07.3   0.0082 1.0118 165.4 C   20?   5.70  93.1    6 246  77  63
   2024 04 17 05:00  13 23 39.92    -24 27 10.4   0.0082 1.0118 165.4 C   20?   5.88  93.0    4 245  77  63
   ................
   2024 04 17 16:50  13 30 47.30    -24 52 29.1   0.0082 1.0120 165.5 Cm  20?   6.54 125.8   11 112  73  68
   2024 04 17 17:00  13 30 51.12    -24 53 07.4   0.0082 1.0120 165.5 Cm  20?   6.38 126.7   13 111  73  68
   2024 04 17 17:10  13 30 54.81    -24 53 45.6   0.0082 1.0120 165.5 Nm  20?   6.23 127.7   15 110  72  68
   2024 04 17 17:20  13 30 58.36    -24 54 23.7   0.0082 1.0120 165.4 Nm  20?   6.08 128.6   17 110  72  68
   2024 04 17 17:30  13 31 01.78    -24 55 01.7   0.0082 1.0120 165.4 Am  20?   5.93 129.6   19 109  72  68
   2024 04 17 17:40  13 31 05.07    -24 55 39.6   0.0082 1.0120 165.4 Am  20?   5.78 130.7   22 108  72  68
   2024 04 17 17:50  13 31 08.22    -24 56 17.2   0.0082 1.0120 165.4 Am  20?   5.63 131.7   24 108  72  68
   2024 04 17 18:00  13 31 11.24    -24 56 54.6   0.0082 1.0120 165.4  m  20?   5.49 132.7   26 107  72  68
   2024 04 17 18:10  13 31 14.13    -24 57 31.8   0.0082 1.0120 165.4  m  20?   5.34 133.8   28 106  72  68
   2024 04 17 18:20  13 31 16.90    -24 58 08.6   0.0082 1.0120 165.4  m  20?   5.20 134.8   30 106  72  68
   2024 04 17 18:30  13 31 19.54    -24 58 45.2   0.0082 1.0120 165.4  m  20?   5.05 135.9   33 105  72  68
   2024 04 17 18:40  13 31 22.06    -24 59 21.3   0.0082 1.0120 165.4  m  20?   4.91 137.0   35 105  72  68
   2024 04 17 18:50  13 31 24.46    -24 59 57.1   0.0082 1.0120 165.4  m  20?   4.77 138.1   37 104  72  68
   2024 04 17 19:00  13 31 26.75    -25 00 32.5   0.0082 1.0120 165.4  m  20?   4.64 139.1   39 104  72  68
   2024 04 17 19:10  13 31 28.92    -25 01 07.4   0.0082 1.0120 165.4  m  20?   4.51 140.2   41 103  72  68
   2024 04 17 19:20  13 31 30.98    -25 01 41.8   0.0082 1.0120 165.4  m  20?   4.37 141.3   44 103  72  68
   2024 04 17 19:30  13 31 32.94    -25 02 15.8   0.0082 1.0120 165.4  m  20?   4.25 142.3   46 102  72  68
   2024 04 17 19:40  13 31 34.79    -25 02 49.2   0.0082 1.0120 165.4  m  20?   4.12 143.4   48 102  72  68
   2024 04 17 19:50  13 31 36.55    -25 03 22.0   0.0082 1.0120 165.3  m  20?   4.00 144.4   50 101  72  68
   2024 04 17 20:00  13 31 38.21    -25 03 54.3   0.0082 1.0120 165.3  m  20?   3.88 145.4   53 101  72  68
   2024 04 17 20:10  13 31 39.78    -25 04 25.9   0.0082 1.0120 165.3  m  20?   3.76 146.3   55 101  72  69
   2024 04 17 20:20  13 31 41.27    -25 04 56.9   0.0082 1.0120 165.3  m  20?   3.65 147.3   57 100  72  69
   2024 04 17 20:30  13 31 42.68    -25 05 27.3   0.0082 1.0120 165.3  m  20?   3.53 148.1   59 100  72  69
   2024 04 17 20:40  13 31 44.01    -25 05 57.0   0.0082 1.0120 165.3  m  20?   3.42 148.9   62 100  72  69
   2024 04 17 20:50  13 31 45.27    -25 06 26.0   0.0082 1.0120 165.3  m  20?   3.32 149.6   64 100  72  69
   2024 04 17 21:00  13 31 46.47    -25 06 54.3   0.0082 1.0120 165.3  m  20?   3.21 150.3   66 100  72  69
   2024 04 17 21:10  13 31 47.61    -25 07 21.9   0.0082 1.0120 165.3  m  20?   3.11 150.9   69 100  71  69
   2024 04 17 21:20  13 31 48.70    -25 07 48.7   0.0082 1.0120 165.3  m  20?   3.01 151.3   71 100  71  69
   2024 04 17 21:30  13 31 49.73    -25 08 14.8   0.0082 1.0120 165.3  m  20?   2.92 151.7   73 100  71  69
   2024 04 17 21:40  13 31 50.73    -25 08 40.1   0.0082 1.0120 165.3  m  20?   2.82 151.9   75 101  71  69
   2024 04 17 21:50  13 31 51.69    -25 09 04.6   0.0082 1.0120 165.3  m  20?   2.73 152.0   78 102  71  69
   2024 04 17 22:00  13 31 52.62    -25 09 28.3   0.0082 1.0120 165.3  m  20?   2.64 151.9   80 104  71  69
   2024 04 17 22:10  13 31 53.52    -25 09 51.3   0.0082 1.0120 165.3  m  20?   2.56 151.6   82 107  71  69
   2024 04 17 22:20  13 31 54.40    -25 10 13.4   0.0082 1.0120 165.3  m  20?   2.48 151.2   84 113  71  69
   2024 04 17 22:30  13 31 55.27    -25 10 34.8   0.0082 1.0120 165.3  m  20?   2.40 150.6   86 128  71  69
   2024 04 17 22:40  13 31 56.14    -25 10 55.3   0.0082 1.0120 165.3  m  20?   2.33 149.7   87 169  71  69
   2024 04 17 22:50  13 31 57.00    -25 11 15.0   0.0082 1.0120 165.3  t  20?   2.26 148.6   87 222  71  69
   2024 04 17 23:00  13 31 57.87    -25 11 33.9   0.0082 1.0120 165.3  m  20?   2.20 147.3   85 242  71  69
   2024 04 17 23:10  13 31 58.75    -25 11 52.0   0.0082 1.0120 165.2  m  20?   2.14 145.7   83 250  71  69
   2024 04 17 23:20  13 31 59.65    -25 12 09.3   0.0082 1.0120 165.2  m  20?   2.09 143.8   81 254  71  69
   2024 04 17 23:30  13 32 00.57    -25 12 25.8   0.0082 1.0120 165.2  m  20?   2.05 141.7   78 256  71  69
   2024 04 17 23:40  13 32 01.52    -25 12 41.5   0.0082 1.0120 165.2  m  20?   2.02 139.3   76 258  71  69
   2024 04 17 23:50  13 32 02.50    -25 12 56.5   0.0082 1.0120 165.2  m  20?   1.99 136.7   74 258  70  70
   2024 04 18 00:00  13 32 03.53    -25 13 10.6   0.0082 1.0120 165.2  m  20?   1.98 133.9   72 259  70  70
   2024 04 18 00:10  13 32 04.60    -25 13 24.0   0.0082 1.0120 165.2  m  20?   1.98 131.0   69 259  70  70
   2024 04 18 00:20  13 32 05.73    -25 13 36.6   0.0082 1.0120 165.2  m  20?   1.99 128.0   67 259  70  70
   2024 04 18 00:30  13 32 06.91    -25 13 48.5   0.0082 1.0120 165.2  m  20?   2.01 124.9   65 259  70  70
   2024 04 18 00:40  13 32 08.16    -25 13 59.7   0.0082 1.0120 165.2     20?   2.05 121.8   62 259  70  70
   2024 04 18 00:50  13 32 09.47    -25 14 10.2   0.0082 1.0121 165.2     20?   2.09 118.8   60 259  70  70
   2024 04 18 01:00  13 32 10.86    -25 14 20.0   0.0082 1.0121 165.2     20?   2.16 115.9   58 258  70  70
   2024 04 18 01:10  13 32 12.33    -25 14 29.1   0.0082 1.0121 165.2     20?   2.23 113.1   56 258  70  70
   2024 04 18 01:20  13 32 13.89    -25 14 37.5   0.0082 1.0121 165.2     20?   2.31 110.5   53 258  70  70
   2024 04 18 01:30  13 32 15.53    -25 14 45.4   0.0082 1.0121 165.2     20?   2.41 108.1   51 257  70  70
   2024 04 18 01:40  13 32 17.26    -25 14 52.6   0.0082 1.0121 165.2     20?   2.51 105.9   49 257  70  70
   2024 04 18 01:50  13 32 19.09    -25 14 59.2   0.0082 1.0121 165.2     20?   2.63 103.9   47 257  70  70
   2024 04 18 02:00  13 32 21.02    -25 15 05.3   0.0082 1.0121 165.2     20?   2.75 102.1   44 256  69  70
   2024 04 18 02:10  13 32 23.06    -25 15 10.9   0.0082 1.0121 165.2     20?   2.89 100.5   42 256  69  70
   2024 04 18 02:20  13 32 25.21    -25 15 16.0   0.0082 1.0121 165.2     20?   3.03  99.1   40 255  69  71
   2024 04 18 02:30  13 32 27.47    -25 15 20.6   0.0082 1.0121 165.2     20?   3.17  97.9   38 255  69  71
   2024 04 18 02:40  13 32 29.84    -25 15 24.8   0.0082 1.0121 165.2     20?   3.33  96.8   36 254  69  71
   2024 04 18 02:50  13 32 32.34    -25 15 28.5   0.0082 1.0121 165.2     20?   3.49  95.8   33 254  69  71
   2024 04 18 03:00  13 32 34.96    -25 15 31.9   0.0082 1.0121 165.2     20?   3.65  95.0   31 253  69  71
   2024 04 18 03:10  13 32 37.70    -25 15 34.9   0.0082 1.0121 165.2     20?   3.82  94.2   29 252  69  71
   2024 04 18 03:20  13 32 40.57    -25 15 37.6   0.0082 1.0121 165.2     20?   3.99  93.6   27 252  69  71
   2024 04 18 03:30  13 32 43.56    -25 15 40.0   0.0082 1.0121 165.3     20?   4.16  93.1   25 251  69  71
   2024 04 18 03:40  13 32 46.69    -25 15 42.2   0.0082 1.0121 165.3     20?   4.34  92.6   22 251  69  71
   2024 04 18 03:50  13 32 49.96    -25 15 44.1   0.0082 1.0121 165.3     20?   4.52  92.3   20 250  68  71
   2024 04 18 04:00  13 32 53.35    -25 15 45.9   0.0082 1.0121 165.3 A   20?   4.70  92.0   18 249  68  71
   2024 04 18 04:10  13 32 56.88    -25 15 47.5   0.0082 1.0121 165.3 A   20?   4.88  91.8   16 248  68  71
   2024 04 18 04:20  13 33 00.55    -25 15 49.0   0.0082 1.0121 165.3 A   20?   5.07  91.6   14 248  68  71
   2024 04 18 04:30  13 33 04.35    -25 15 50.4   0.0082 1.0121 165.3 N   20?   5.25  91.4   12 247  68  72
   2024 04 18 04:40  13 33 08.29    -25 15 51.8   0.0082 1.0121 165.3 N   20?   5.44  91.4   10 246  68  72
   2024 04 18 04:50  13 33 12.37    -25 15 53.1   0.0082 1.0121 165.3 C   20?   5.63  91.3    8 245  68  72
   2024 04 18 05:00  13 33 16.58    -25 15 54.5   0.0082 1.0121 165.3 C   20?   5.81  91.3    5 244  68  72
   ................
   2024 04 18 16:50  13 40 28.79    -25 39 26.6   0.0082 1.0122 165.3 Cm  20?   6.61 124.5   10 113  63  76
   2024 04 18 17:00  13 40 32.75    -25 40 04.1   0.0082 1.0122 165.2 Cm  20?   6.46 125.4   12 112  63  76
   2024 04 18 17:10  13 40 36.57    -25 40 41.6   0.0082 1.0122 165.2 Nm  20?   6.30 126.3   14 112  63  76
   2024 04 18 17:20  13 40 40.25    -25 41 19.1   0.0082 1.0122 165.2 Nm  20?   6.15 127.3   16 111  63  76
   2024 04 18 17:30  13 40 43.80    -25 41 56.4   0.0082 1.0122 165.2 Am  20?   6.00 128.3   18 110  63  77
   2024 04 18 17:40  13 40 47.21    -25 42 33.5   0.0082 1.0122 165.2 Am  20?   5.85 129.2   21 110  63  77
   2024 04 18 17:50  13 40 50.49    -25 43 10.5   0.0082 1.0122 165.2 Am  20?   5.70 130.2   23 109  63  77
   2024 04 18 18:00  13 40 53.64    -25 43 47.3   0.0082 1.0123 165.2  m  20?   5.55 131.2   25 108  63  77
   2024 04 18 18:10  13 40 56.65    -25 44 23.8   0.0082 1.0123 165.2  m  20?   5.40 132.2   27 108  63  77
   2024 04 18 18:20  13 40 59.54    -25 45 00.0   0.0082 1.0123 165.2  m  20?   5.25 133.3   29 107  63  77
   2024 04 18 18:30  13 41 02.30    -25 45 35.9   0.0082 1.0123 165.2  m  20?   5.11 134.3   31 106  63  77
   2024 04 18 18:40  13 41 04.94    -25 46 11.5   0.0082 1.0123 165.2  m  20?   4.96 135.4   34 106  63  77
   2024 04 18 18:50  13 41 07.46    -25 46 46.6   0.0082 1.0123 165.2  m  20?   4.82 136.4   36 105  63  77
   2024 04 18 19:00  13 41 09.85    -25 47 21.4   0.0082 1.0123 165.2  m  20?   4.68 137.4   38 105  63  77
   2024 04 18 19:10  13 41 12.13    -25 47 55.7   0.0082 1.0123 165.2  m  20?   4.54 138.5   40 104  63  77
   2024 04 18 19:20  13 41 14.30    -25 48 29.5   0.0082 1.0123 165.2  m  20?   4.41 139.5   43 104  63  77
   2024 04 18 19:30  13 41 16.36    -25 49 02.9   0.0082 1.0123 165.1  m  20?   4.28 140.5   45 104  63  77
   2024 04 18 19:40  13 41 18.32    -25 49 35.7   0.0082 1.0123 165.1  m  20?   4.15 141.6   47 103  63  77
   2024 04 18 19:50  13 41 20.18    -25 50 07.9   0.0082 1.0123 165.1  m  20?   4.02 142.5   49 103  62  77
   2024 04 18 20:00  13 41 21.93    -25 50 39.6   0.0082 1.0123 165.1  m  20?   3.90 143.5   51 102  62  77
   2024 04 18 20:10  13 41 23.60    -25 51 10.6   0.0082 1.0123 165.1  m  20?   3.77 144.4   54 102  62  77
   2024 04 18 20:20  13 41 25.18    -25 51 41.0   0.0082 1.0123 165.1  m  20?   3.65 145.3   56 102  62  77
   2024 04 18 20:30  13 41 26.67    -25 52 10.8   0.0082 1.0123 165.1  m  20?   3.54 146.2   58 102  62  77
   2024 04 18 20:40  13 41 28.09    -25 52 39.9   0.0082 1.0123 165.1  m  20?   3.42 146.9   60 102  62  77
   2024 04 18 20:50  13 41 29.43    -25 53 08.3   0.0082 1.0123 165.1  m  20?   3.31 147.7   63 102  62  77
   2024 04 18 21:00  13 41 30.71    -25 53 35.9   0.0082 1.0123 165.1  m  20?   3.20 148.3   65 102  62  77
   2024 04 18 21:10  13 41 31.92    -25 54 02.8   0.0082 1.0123 165.1  m  20?   3.10 148.9   67 102  62  77
   2024 04 18 21:20  13 41 33.08    -25 54 29.0   0.0082 1.0123 165.1  m  20?   3.00 149.3   69 102  62  77
   2024 04 18 21:30  13 41 34.18    -25 54 54.4   0.0082 1.0123 165.1  m  20?   2.90 149.7   72 103  62  77
   2024 04 18 21:40  13 41 35.24    -25 55 19.0   0.0082 1.0123 165.1  m  20?   2.80 149.9   74 103  62  77
   2024 04 18 21:50  13 41 36.26    -25 55 42.9   0.0082 1.0123 165.1  m  20?   2.70 150.0   76 105  62  77
   2024 04 18 22:00  13 41 37.24    -25 56 05.9   0.0082 1.0123 165.1  m  20?   2.61 149.9   78 107  62  77
   2024 04 18 22:10  13 41 38.20    -25 56 28.1   0.0082 1.0123 165.1  m  20?   2.52 149.6   81 110  62  77
   2024 04 18 22:20  13 41 39.13    -25 56 49.5   0.0082 1.0123 165.1  m  20?   2.44 149.2   83 115  62  77
   2024 04 18 22:30  13 41 40.05    -25 57 10.1   0.0082 1.0123 165.1  m  20?   2.36 148.5   85 126  62  78
   2024 04 18 22:40  13 41 40.96    -25 57 29.8   0.0082 1.0123 165.0  m  20?   2.28 147.7   86 149  62  78
   2024 04 18 22:50  13 41 41.86    -25 57 48.7   0.0082 1.0123 165.0  t  20?   2.21 146.6   87 191  62  78
   2024 04 18 23:00  13 41 42.76    -25 58 06.8   0.0082 1.0123 165.0  m  20?   2.15 145.2   85 224  62  78
   2024 04 18 23:10  13 41 43.67    -25 58 24.1   0.0082 1.0123 165.0  m  20?   2.09 143.6   84 239  61  78
   2024 04 18 23:20  13 41 44.60    -25 58 40.5   0.0082 1.0123 165.0  m  20?   2.04 141.7   82 247  61  78
   2024 04 18 23:30  13 41 45.54    -25 58 56.1   0.0082 1.0123 165.0  m  20?   1.99 139.5   79 251  61  78
   2024 04 18 23:40  13 41 46.51    -25 59 10.9   0.0082 1.0123 165.0  m  20?   1.96 137.1   77 253  61  78
   2024 04 18 23:50  13 41 47.52    -25 59 24.9   0.0082 1.0123 165.0  m  20?   1.93 134.5   75 255  61  78
   2024 04 19 00:00  13 41 48.56    -25 59 38.0   0.0082 1.0123 165.0  m  20?   1.92 131.6   73 256  61  78
   2024 04 19 00:10  13 41 49.64    -25 59 50.4   0.0082 1.0123 165.0  m  20?   1.92 128.6   71 257  61  78
   2024 04 19 00:20  13 41 50.78    -26 00 02.0   0.0082 1.0123 165.0  m  20?   1.93 125.5   68 257  61  78
   2024 04 19 00:30  13 41 51.97    -26 00 12.9   0.0082 1.0123 165.0  m  20?   1.95 122.4   66 257  61  78
   2024 04 19 00:40  13 41 53.21    -26 00 22.9   0.0082 1.0123 165.0  m  20?   1.98 119.2   64 257  61  78
   2024 04 19 00:50  13 41 54.53    -26 00 32.3   0.0082 1.0123 165.0  m  20?   2.03 116.2   62 257  61  78
   2024 04 19 01:00  13 41 55.92    -26 00 40.9   0.0082 1.0123 165.0  m  20?   2.09 113.2   59 257  61  78
   2024 04 19 01:10  13 41 57.38    -26 00 48.9   0.0082 1.0123 165.0  m  20?   2.16 110.4   57 257  61  78
   2024 04 19 01:20  13 41 58.92    -26 00 56.1   0.0082 1.0123 165.0  m  20?   2.25 107.8   55 257  61  78
   2024 04 19 01:30  13 42 00.55    -26 01 02.7   0.0082 1.0123 165.0     20?   2.34 105.5   53 256  60  78
   2024 04 19 01:40  13 42 02.27    -26 01 08.7   0.0082 1.0123 165.0     20?   2.45 103.3   50 256  60  78
   2024 04 19 01:50  13 42 04.09    -26 01 14.1   0.0082 1.0123 165.0     20?   2.56 101.3   48 256  60  78
   2024 04 19 02:00  13 42 06.00    -26 01 18.9   0.0082 1.0123 165.0     20?   2.69  99.6   46 255  60  79
   2024 04 19 02:10  13 42 08.02    -26 01 23.1   0.0082 1.0123 165.0     20?   2.82  98.0   44 255  60  79
   2024 04 19 02:20  13 42 10.15    -26 01 26.8   0.0082 1.0123 165.0     20?   2.96  96.6   41 254  60  79
   2024 04 19 02:30  13 42 12.39    -26 01 30.0   0.0082 1.0124 165.0     20?   3.11  95.4   39 254  60  79
   2024 04 19 02:40  13 42 14.74    -26 01 32.7   0.0082 1.0124 165.0     20?   3.26  94.3   37 254  60  79
   2024 04 19 02:50  13 42 17.21    -26 01 35.0   0.0082 1.0124 165.0     20?   3.42  93.4   35 253  60  79
   2024 04 19 03:00  13 42 19.80    -26 01 36.9   0.0082 1.0124 165.0     20?   3.58  92.6   33 252  60  79
   2024 04 19 03:10  13 42 22.51    -26 01 38.4   0.0082 1.0124 165.0     20?   3.74  92.0   30 252  60  79
   2024 04 19 03:20  13 42 25.35    -26 01 39.6   0.0082 1.0124 165.0     20?   3.92  91.4   28 251  60  79
   2024 04 19 03:30  13 42 28.32    -26 01 40.4   0.0082 1.0124 165.0     20?   4.09  90.9   26 251  59  79
   2024 04 19 03:40  13 42 31.42    -26 01 41.0   0.0082 1.0124 165.1     20?   4.27  90.5   24 250  59  79
   2024 04 19 03:50  13 42 34.65    -26 01 41.3   0.0082 1.0124 165.1     20?   4.44  90.2   22 249  59  79
   2024 04 19 04:00  13 42 38.02    -26 01 41.5   0.0082 1.0124 165.1 A   20?   4.63  90.0   20 249  59  79
   2024 04 19 04:10  13 42 41.52    -26 01 41.4   0.0082 1.0124 165.1 A   20?   4.81  89.8   17 248  59  79
   2024 04 19 04:20  13 42 45.15    -26 01 41.2   0.0083 1.0124 165.1 A   20?   4.99  89.6   15 247  59  79
   2024 04 19 04:30  13 42 48.92    -26 01 40.9   0.0083 1.0124 165.1 N   20?   5.18  89.6   13 247  59  79
   2024 04 19 04:40  13 42 52.83    -26 01 40.5   0.0083 1.0124 165.1 N   20?   5.36  89.5   11 246  59  80
   2024 04 19 04:50  13 42 56.88    -26 01 40.1   0.0083 1.0124 165.1 C   20?   5.55  89.5    9 245  59  80
   2024 04 19 05:00  13 43 01.07    -26 01 39.7   0.0083 1.0124 165.1 C   20?   5.73  89.5    7 244  59  80
   ................
   2024 04 19 16:50  13 50 17.29    -26 23 18.4   0.0083 1.0125 165.0 Cm  20?   6.67 123.2    9 114  54  84
   2024 04 19 17:00  13 50 21.37    -26 23 55.1   0.0083 1.0125 164.9 Cm  20?   6.52 124.1   11 114  54  84
   2024 04 19 17:10  13 50 25.32    -26 24 31.7   0.0083 1.0125 164.9 Nm  20?   6.36 125.0   13 113  54  84
   2024 04 19 17:20  13 50 29.12    -26 25 08.3   0.0083 1.0125 164.9 Nm  20?   6.21 125.9   15 112  54  84
   2024 04 19 17:30  13 50 32.79    -26 25 44.8   0.0083 1.0125 164.9 Am  20?   6.06 126.9   17 111  54  84
   2024 04 19 17:40  13 50 36.33    -26 26 21.1   0.0083 1.0125 164.9 Am  20?   5.90 127.8   20 111  54  84
   2024 04 19 17:50  13 50 39.73    -26 26 57.3   0.0083 1.0125 164.9 Am  20?   5.75 128.8   22 110  54  84
   2024 04 19 18:00  13 50 42.99    -26 27 33.3   0.0083 1.0125 164.9  m  20?   5.60 129.7   24 109  54  84
   2024 04 19 18:10  13 50 46.13    -26 28 09.0   0.0083 1.0125 164.9  m  20?   5.45 130.7   26 109  54  84
   2024 04 19 18:20  13 50 49.13    -26 28 44.5   0.0083 1.0125 164.9  m  20?   5.30 131.7   28 108  54  84
   2024 04 19 18:30  13 50 52.01    -26 29 19.7   0.0083 1.0125 164.9  m  20?   5.15 132.7   30 108  53  84
   2024 04 19 18:40  13 50 54.75    -26 29 54.5   0.0083 1.0125 164.9  m  20?   5.00 133.7   33 107  53  84
   2024 04 19 18:50  13 50 57.38    -26 30 29.0   0.0083 1.0125 164.9  m  20?   4.86 134.7   35 107  53  84
   2024 04 19 19:00  13 50 59.89    -26 31 03.0   0.0082 1.0125 164.9  m  20?   4.71 135.7   37 106  53  84
   2024 04 19 19:10  13 51 02.27    -26 31 36.6   0.0082 1.0125 164.8  m  20?   4.57 136.8   39 106  53  84
   2024 04 19 19:20  13 51 04.54    -26 32 09.8   0.0082 1.0125 164.8  m  20?   4.43 137.8   41 105  53  84
   2024 04 19 19:30  13 51 06.71    -26 32 42.4   0.0082 1.0126 164.8  m  20?   4.30 138.8   44 105  53  84
   2024 04 19 19:40  13 51 08.76    -26 33 14.5   0.0082 1.0126 164.8  m  20?   4.17 139.7   46 104  53  84
   2024 04 19 19:50  13 51 10.71    -26 33 46.1   0.0082 1.0126 164.8  m  20?   4.03 140.7   48 104  53  84
   2024 04 19 20:00  13 51 12.56    -26 34 17.0   0.0082 1.0126 164.8  m  20?   3.91 141.6   50 104  53  84
   2024 04 19 20:10  13 51 14.32    -26 34 47.4   0.0082 1.0126 164.8  m  20?   3.78 142.5   52 104  53  84
   2024 04 19 20:20  13 51 15.98    -26 35 17.1   0.0082 1.0126 164.8  m  20?   3.66 143.4   55 103  53  84
   2024 04 19 20:30  13 51 17.56    -26 35 46.2   0.0082 1.0126 164.8  m  20?   3.54 144.2   57 103  53  85
   2024 04 19 20:40  13 51 19.05    -26 36 14.6   0.0082 1.0126 164.8  m  20?   3.42 145.0   59 103  53  85
   2024 04 19 20:50  13 51 20.47    -26 36 42.2   0.0082 1.0126 164.8  m  20?   3.30 145.7   61 103  53  85
   2024 04 19 21:00  13 51 21.82    -26 37 09.2   0.0082 1.0126 164.8  m  20?   3.19 146.3   64 103  53  85
   2024 04 19 21:10  13 51 23.11    -26 37 35.4   0.0082 1.0126 164.8  m  20?   3.08 146.9   66 103  53  85
   2024 04 19 21:20  13 51 24.33    -26 38 00.9   0.0082 1.0126 164.8  m  20?   2.97 147.3   68 104  53  85
   2024 04 19 21:30  13 51 25.49    -26 38 25.5   0.0082 1.0126 164.8  m  20?   2.87 147.7   70 104  53  85
   2024 04 19 21:40  13 51 26.61    -26 38 49.4   0.0082 1.0126 164.8  m  20?   2.77 147.9   72 105  53  85
   2024 04 19 21:50  13 51 27.69    -26 39 12.5   0.0082 1.0126 164.8  m  20?   2.67 148.0   75 107  53  85
   2024 04 19 22:00  13 51 28.72    -26 39 34.7   0.0082 1.0126 164.8  m  20?   2.58 147.9   77 109  53  85
   2024 04 19 22:10  13 51 29.72    -26 39 56.2   0.0082 1.0126 164.8  m  20?   2.49 147.6   79 112  53  85
   2024 04 19 22:20  13 51 30.70    -26 40 16.8   0.0082 1.0126 164.7  m  20?   2.40 147.2   81 116  52  85
   2024 04 19 22:30  13 51 31.66    -26 40 36.5   0.0082 1.0126 164.7  m  20?   2.31 146.5   83 125  52  85
   2024 04 19 22:40  13 51 32.60    -26 40 55.5   0.0082 1.0126 164.7  m  20?   2.24 145.7   85 140  52  85
   2024 04 19 22:50  13 51 33.54    -26 41 13.5   0.0082 1.0126 164.7  m  20?   2.16 144.5   86 167  52  85
   2024 04 19 23:00  13 51 34.47    -26 41 30.7   0.0082 1.0126 164.7  t  20?   2.09 143.2   86 202  52  85
   2024 04 19 23:10  13 51 35.41    -26 41 47.1   0.0082 1.0126 164.7  m  20?   2.03 141.5   84 225  52  85
   2024 04 19 23:20  13 51 36.36    -26 42 02.6   0.0082 1.0126 164.7  m  20?   1.98 139.6   82 237  52  85
   2024 04 19 23:30  13 51 37.32    -26 42 17.3   0.0082 1.0126 164.7  m  20?   1.93 137.4   80 244  52  85
   2024 04 19 23:40  13 51 38.31    -26 42 31.1   0.0082 1.0126 164.7  m  20?   1.90 134.9   78 248  52  85
   2024 04 19 23:50  13 51 39.32    -26 42 44.2   0.0082 1.0126 164.7  m  20?   1.87 132.2   76 251  52  85
   2024 04 20 00:00  13 51 40.37    -26 42 56.3   0.0082 1.0126 164.7  m  20?   1.85 129.3   74 253  52  85
   2024 04 20 00:10  13 51 41.46    -26 43 07.7   0.0082 1.0126 164.7  m  20?   1.85 126.2   72 254  52  85
   2024 04 20 00:20  13 51 42.60    -26 43 18.2   0.0082 1.0126 164.7  m  20?   1.86 123.0   70 255  52  85
   2024 04 20 00:30  13 51 43.78    -26 43 28.0   0.0082 1.0126 164.7  m  20?   1.88 119.8   67 255  52  85
   2024 04 20 00:40  13 51 45.03    -26 43 37.0   0.0082 1.0126 164.7  m  20?   1.91 116.6   65 255  52  85
   2024 04 20 00:50  13 51 46.34    -26 43 45.2   0.0082 1.0126 164.7  m  20?   1.96 113.5   63 256  52  85
   2024 04 20 01:00  13 51 47.71    -26 43 52.7   0.0082 1.0126 164.7  m  20?   2.02 110.5   61 256  51  85
   2024 04 20 01:10  13 51 49.16    -26 43 59.5   0.0082 1.0126 164.7  m  20?   2.09 107.7   58 256  51  85
   2024 04 20 01:20  13 51 50.69    -26 44 05.5   0.0082 1.0126 164.7  m  20?   2.18 105.1   56 256  51  85
   2024 04 20 01:30  13 51 52.30    -26 44 10.9   0.0082 1.0126 164.7  m  20?   2.27 102.7   54 255  51  86
   2024 04 20 01:40  13 51 54.00    -26 44 15.6   0.0082 1.0126 164.7  m  20?   2.38 100.5   52 255  51  86
   2024 04 20 01:50  13 51 55.79    -26 44 19.7   0.0082 1.0126 164.7  m  20?   2.49  98.6   50 255  51  86
   2024 04 20 02:00  13 51 57.68    -26 44 23.2   0.0083 1.0126 164.7  m  20?   2.62  96.9   47 255  51  86
   2024 04 20 02:10  13 51 59.68    -26 44 26.1   0.0083 1.0126 164.7  m  20?   2.75  95.3   45 254  51  86
   2024 04 20 02:20  13 52 01.77    -26 44 28.4   0.0083 1.0126 164.7     20?   2.89  94.0   43 254  51  86
   2024 04 20 02:30  13 52 03.98    -26 44 30.2   0.0083 1.0126 164.7     20?   3.03  92.8   41 253  51  86
   2024 04 20 02:40  13 52 06.30    -26 44 31.5   0.0083 1.0126 164.7     20?   3.19  91.8   38 253  51  86
   2024 04 20 02:50  13 52 08.73    -26 44 32.3   0.0083 1.0126 164.7     20?   3.34  91.0   36 252  51  86
   2024 04 20 03:00  13 52 11.29    -26 44 32.7   0.0083 1.0126 164.7     20?   3.50  90.2   34 252  51  86
   2024 04 20 03:10  13 52 13.96    -26 44 32.7   0.0083 1.0126 164.7     20?   3.67  89.6   32 251  51  86
   2024 04 20 03:20  13 52 16.77    -26 44 32.3   0.0083 1.0126 164.7     20?   3.84  89.1   30 251  50  86
   2024 04 20 03:30  13 52 19.69    -26 44 31.6   0.0083 1.0126 164.8     20?   4.01  88.7   28 250  50  86
   2024 04 20 03:40  13 52 22.75    -26 44 30.6   0.0083 1.0126 164.8     20?   4.19  88.3   25 250  50  86
   2024 04 20 03:50  13 52 25.94    -26 44 29.3   0.0083 1.0126 164.8     20?   4.36  88.1   23 249  50  86
   2024 04 20 04:00  13 52 29.27    -26 44 27.8   0.0083 1.0126 164.8 A   20?   4.54  87.9   21 248  50  86
   2024 04 20 04:10  13 52 32.73    -26 44 26.1   0.0083 1.0127 164.8 A   20?   4.73  87.7   19 248  50  86
   2024 04 20 04:20  13 52 36.32    -26 44 24.2   0.0083 1.0127 164.8 A   20?   4.91  87.6   17 247  50  86
   2024 04 20 04:30  13 52 40.05    -26 44 22.2   0.0083 1.0127 164.8 N   20?   5.09  87.6   15 246  50  86
   2024 04 20 04:40  13 52 43.92    -26 44 20.0   0.0083 1.0127 164.8 N   20?   5.28  87.6   13 246  50  86
   2024 04 20 04:50  13 52 47.92    -26 44 17.9   0.0083 1.0127 164.8 C   20?   5.46  87.6   11 245  50  87
   2024 04 20 05:00  13 52 52.07    -26 44 15.7   0.0083 1.0127 164.8 C   20?   5.65  87.7    8 244  50  87
   ................
   2024 04 20 16:50  14 00 11.43    -27 03 54.8   0.0083 1.0128 164.6 Cm  20?   6.72 121.9    8 116  45  90
   2024 04 20 17:00  14 00 15.63    -27 04 30.5   0.0083 1.0128 164.6 Nm  20?   6.57 122.8   10 115  45  90
   2024 04 20 17:10  14 00 19.69    -27 05 06.1   0.0083 1.0128 164.5 Nm  20?   6.41 123.6   12 114  45  90
   2024 04 20 17:20  14 00 23.61    -27 05 41.7   0.0083 1.0128 164.5 Nm  20?   6.26 124.5   14 113  44  90
   2024 04 20 17:30  14 00 27.40    -27 06 17.3   0.0083 1.0128 164.5 Am  20?   6.10 125.4   16 112  44  90
   2024 04 20 17:40  14 00 31.04    -27 06 52.7   0.0083 1.0128 164.5 Am  20?   5.95 126.4   18 112  44  90
   2024 04 20 17:50  14 00 34.56    -27 07 28.0   0.0083 1.0128 164.5 Am  20?   5.79 127.3   21 111  44  90
   2024 04 20 18:00  14 00 37.94    -27 08 03.1   0.0083 1.0128 164.5  m  20?   5.64 128.2   23 110  44  90
   2024 04 20 18:10  14 00 41.18    -27 08 37.9   0.0083 1.0128 164.5  m  20?   5.48 129.2   25 110  44  90
   2024 04 20 18:20  14 00 44.29    -27 09 12.6   0.0083 1.0128 164.5  m  20?   5.33 130.2   27 109  44  90
   2024 04 20 18:30  14 00 47.27    -27 09 46.9   0.0083 1.0128 164.5  m  20?   5.18 131.1   29 109  44  90
   2024 04 20 18:40  14 00 50.13    -27 10 20.9   0.0083 1.0128 164.5  m  20?   5.03 132.1   31 108  44  90
   2024 04 20 18:50  14 00 52.86    -27 10 54.5   0.0083 1.0128 164.5  m  20?   4.88 133.1   34 108  44  90
   2024 04 20 19:00  14 00 55.46    -27 11 27.7   0.0083 1.0128 164.5  m  20?   4.74 134.1   36 107  44  90
   2024 04 20 19:10  14 00 57.95    -27 12 00.5   0.0083 1.0128 164.4  m  20?   4.59 135.0   38 107  44  90
   2024 04 20 19:20  14 01 00.32    -27 12 32.9   0.0083 1.0128 164.4  m  20?   4.45 136.0   40 106  44  91
   2024 04 20 19:30  14 01 02.58    -27 13 04.7   0.0083 1.0128 164.4  m  20?   4.31 137.0   42 106  44  91
   2024 04 20 19:40  14 01 04.72    -27 13 36.1   0.0083 1.0128 164.4  m  20?   4.18 137.9   45 106  44  91
   2024 04 20 19:50  14 01 06.76    -27 14 06.8   0.0083 1.0128 164.4  m  20?   4.04 138.9   47 105  44  91
   2024 04 20 20:00  14 01 08.70    -27 14 37.0   0.0083 1.0128 164.4  m  20?   3.91 139.8   49 105  44  91
   2024 04 20 20:10  14 01 10.54    -27 15 06.6   0.0083 1.0128 164.4  m  20?   3.78 140.7   51 105  44  91
   2024 04 20 20:20  14 01 12.28    -27 15 35.6   0.0083 1.0128 164.4  m  20?   3.65 141.5   53 105  44  91
   2024 04 20 20:30  14 01 13.94    -27 16 03.9   0.0083 1.0128 164.4  m  20?   3.53 142.3   56 104  44  91
   2024 04 20 20:40  14 01 15.51    -27 16 31.5   0.0083 1.0128 164.4  m  20?   3.40 143.1   58 104  44  91
   2024 04 20 20:50  14 01 17.00    -27 16 58.4   0.0083 1.0128 164.4  m  20?   3.29 143.8   60 104  44  91
   2024 04 20 21:00  14 01 18.42    -27 17 24.6   0.0083 1.0128 164.4  m  20?   3.17 144.4   62 105  44  91
   2024 04 20 21:10  14 01 19.76    -27 17 50.0   0.0083 1.0128 164.4  m  20?   3.06 144.9   64 105  43  91
   2024 04 20 21:20  14 01 21.04    -27 18 14.7   0.0083 1.0129 164.4  m  20?   2.95 145.4   67 105  43  91
   2024 04 20 21:30  14 01 22.27    -27 18 38.6   0.0083 1.0129 164.4  m  20?   2.84 145.7   69 106  43  91
   2024 04 20 21:40  14 01 23.44    -27 19 01.6   0.0083 1.0129 164.4  m  20?   2.73 145.9   71 107  43  91
   2024 04 20 21:50  14 01 24.56    -27 19 23.9   0.0083 1.0129 164.4  m  20?   2.63 146.0   73 108  43  91
   2024 04 20 22:00  14 01 25.65    -27 19 45.3   0.0083 1.0129 164.4  m  20?   2.54 145.9   75 110  43  91
   2024 04 20 22:10  14 01 26.69    -27 20 06.0   0.0083 1.0129 164.4  m  20?   2.44 145.7   78 113  43  91
   2024 04 20 22:20  14 01 27.71    -27 20 25.7   0.0083 1.0129 164.4  m  20?   2.35 145.2   80 117  43  91
   2024 04 20 22:30  14 01 28.70    -27 20 44.6   0.0083 1.0129 164.4  m  20?   2.26 144.6   82 123  43  91
   2024 04 20 22:40  14 01 29.67    -27 21 02.7   0.0083 1.0129 164.3  m  20?   2.18 143.7   83 134  43  91
   2024 04 20 22:50  14 01 30.64    -27 21 19.9   0.0083 1.0129 164.3  m  20?   2.11 142.5   85 153  43  91
   2024 04 20 23:00  14 01 31.59    -27 21 36.2   0.0083 1.0129 164.3  t  20?   2.04 141.1   85 181  43  91
   2024 04 20 23:10  14 01 32.55    -27 21 51.6   0.0083 1.0129 164.3  m  20?   1.97 139.5   85 208  43  91
   2024 04 20 23:20  14 01 33.52    -27 22 06.2   0.0083 1.0129 164.3  m  20?   1.92 137.5   83 226  43  91
   2024 04 20 23:30  14 01 34.49    -27 22 20.0   0.0083 1.0129 164.3  m  20?   1.87 135.2   81 236  43  91
   2024 04 20 23:40  14 01 35.49    -27 22 32.8   0.0083 1.0129 164.3  m  20?   1.83 132.7   79 242  43  91
   2024 04 20 23:50  14 01 36.51    -27 22 44.8   0.0083 1.0129 164.3  m  20?   1.80 129.9   77 246  43  91
   2024 04 21 00:00  14 01 37.56    -27 22 56.0   0.0083 1.0129 164.3  m  20?   1.78 126.9   75 249  43  91
   2024 04 21 00:10  14 01 38.65    -27 23 06.3   0.0083 1.0129 164.3  m  20?   1.78 123.7   73 251  43  91
   2024 04 21 00:20  14 01 39.78    -27 23 15.8   0.0083 1.0129 164.3  m  20?   1.79 120.5   71 252  42  91
   2024 04 21 00:30  14 01 40.96    -27 23 24.5   0.0083 1.0129 164.3  m  20?   1.81 117.2   69 253  42  91
   2024 04 21 00:40  14 01 42.20    -27 23 32.4   0.0083 1.0129 164.3  m  20?   1.84 113.9   66 254  42  91
   2024 04 21 00:50  14 01 43.49    -27 23 39.5   0.0083 1.0129 164.3  m  20?   1.89 110.7   64 254  42  91
   2024 04 21 01:00  14 01 44.85    -27 23 45.8   0.0083 1.0129 164.3  m  20?   1.95 107.7   62 254  42  91
   2024 04 21 01:10  14 01 46.28    -27 23 51.4   0.0083 1.0129 164.3  m  20?   2.02 104.8   60 254  42  91
   2024 04 21 01:20  14 01 47.78    -27 23 56.2   0.0083 1.0129 164.3  m  20?   2.11 102.2   58 254  42  91
   2024 04 21 01:30  14 01 49.37    -27 24 00.4   0.0083 1.0129 164.3  m  20?   2.20  99.8   55 254  42  91
   2024 04 21 01:40  14 01 51.04    -27 24 03.8   0.0083 1.0129 164.3  m  20?   2.31  97.7   53 254  42  91
   2024 04 21 01:50  14 01 52.80    -27 24 06.6   0.0083 1.0129 164.3  m  20?   2.42  95.8   51 254  42  91
   2024 04 21 02:00  14 01 54.66    -27 24 08.8   0.0083 1.0129 164.3  m  20?   2.54  94.1   49 254  42  91
   2024 04 21 02:10  14 01 56.61    -27 24 10.3   0.0083 1.0129 164.3  m  20?   2.67  92.6   46 253  42  92
   2024 04 21 02:20  14 01 58.67    -27 24 11.3   0.0083 1.0129 164.4  m  20?   2.81  91.3   44 253  42  92
   2024 04 21 02:30  14 02 00.84    -27 24 11.7   0.0083 1.0129 164.4  m  20?   2.96  90.2   42 253  42  92
   2024 04 21 02:40  14 02 03.11    -27 24 11.6   0.0083 1.0129 164.4  m  20?   3.11  89.2   40 252  42  92
   2024 04 21 02:50  14 02 05.51    -27 24 11.0   0.0083 1.0129 164.4  m  20?   3.26  88.4   38 252  42  92
   2024 04 21 03:00  14 02 08.01    -27 24 09.9   0.0083 1.0129 164.4  m  20?   3.42  87.7   36 251  41  92
   2024 04 21 03:10  14 02 10.64    -27 24 08.4   0.0083 1.0129 164.4     20?   3.59  87.2   33 251  41  92
   2024 04 21 03:20  14 02 13.40    -27 24 06.5   0.0083 1.0129 164.4     20?   3.76  86.7   31 250  41  92
   2024 04 21 03:30  14 02 16.28    -27 24 04.2   0.0083 1.0129 164.4     20?   3.93  86.3   29 250  41  92
   2024 04 21 03:40  14 02 19.29    -27 24 01.6   0.0083 1.0129 164.4     20?   4.10  86.1   27 249  41  92
   2024 04 21 03:50  14 02 22.42    -27 23 58.7   0.0083 1.0129 164.4     20?   4.28  85.8   25 249  41  92
   2024 04 21 04:00  14 02 25.70    -27 23 55.5   0.0083 1.0129 164.4 A   20?   4.46  85.7   23 248  41  92
   2024 04 21 04:10  14 02 29.10    -27 23 52.1   0.0083 1.0129 164.4 A   20?   4.64  85.6   20 248  41  92
   2024 04 21 04:20  14 02 32.64    -27 23 48.6   0.0083 1.0129 164.4 A   20?   4.82  85.6   18 247  41  92
   2024 04 21 04:30  14 02 36.32    -27 23 44.8   0.0083 1.0129 164.4 N   20?   5.00  85.6   16 246  41  92
   2024 04 21 04:40  14 02 40.14    -27 23 41.0   0.0083 1.0129 164.4 N   20?   5.19  85.6   14 245  41  92
   2024 04 21 04:50  14 02 44.09    -27 23 37.1   0.0083 1.0129 164.4 C   20?   5.37  85.7   12 245  41  92
   2024 04 21 05:00  14 02 48.18    -27 23 33.1   0.0083 1.0129 164.4 C   20?   5.55  85.8   10 244  41  92
   ................
   2024 04 21 16:50  14 10 09.74    -27 41 07.4   0.0083 1.0131 164.1 Cm  20?   6.76 120.6    7 117  35  95
   2024 04 21 17:00  14 10 14.04    -27 41 42.0   0.0083 1.0131 164.1 Nm  20?   6.60 121.4    9 116  35  95
   2024 04 21 17:10  14 10 18.21    -27 42 16.5   0.0083 1.0131 164.1 Nm  20?   6.45 122.3   11 115  35  95
   2024 04 21 17:20  14 10 22.24    -27 42 51.1   0.0083 1.0131 164.1 Nm  20?   6.29 123.1   13 114  35  95
   2024 04 21 17:30  14 10 26.13    -27 43 25.5   0.0083 1.0131 164.1 Am  20?   6.13 124.0   15 114  35  95
   2024 04 21 17:40  14 10 29.88    -27 43 59.9   0.0083 1.0131 164.0 Am  20?   5.98 124.9   17 113  35  95
   2024 04 21 17:50  14 10 33.50    -27 44 34.2   0.0083 1.0131 164.0 Am  20?   5.82 125.8   19 112  35  95
   2024 04 21 18:00  14 10 36.98    -27 45 08.3   0.0083 1.0131 164.0  m  20?   5.67 126.7   22 112  35  95
   2024 04 21 18:10  14 10 40.33    -27 45 42.2   0.0083 1.0131 164.0  m  20?   5.51 127.7   24 111  35  95
   2024 04 21 18:20  14 10 43.54    -27 46 15.8   0.0083 1.0131 164.0  m  20?   5.36 128.6   26 110  35  95
   2024 04 21 18:30  14 10 46.63    -27 46 49.2   0.0083 1.0131 164.0  m  20?   5.20 129.5   28 110  35  95
   2024 04 21 18:40  14 10 49.58    -27 47 22.2   0.0083 1.0131 164.0  m  20?   5.05 130.5   30 109  35  95
   2024 04 21 18:50  14 10 52.40    -27 47 54.9   0.0083 1.0131 164.0  m  20?   4.90 131.4   32 109  35  95
   2024 04 21 19:00  14 10 55.10    -27 48 27.3   0.0083 1.0131 164.0  m  20?   4.75 132.4   35 108  35  95
   2024 04 21 19:10  14 10 57.68    -27 48 59.2   0.0083 1.0131 164.0  m  20?   4.60 133.4   37 108  35  95
   2024 04 21 19:20  14 11 00.14    -27 49 30.6   0.0083 1.0131 164.0  m  20?   4.46 134.3   39 107  35  95
   2024 04 21 19:30  14 11 02.49    -27 50 01.6   0.0083 1.0131 164.0  m  20?   4.32 135.2   41 107  35  95
   2024 04 21 19:40  14 11 04.72    -27 50 32.1   0.0083 1.0131 164.0  m  20?   4.18 136.2   43 107  35  95
   2024 04 21 19:50  14 11 06.84    -27 51 02.0   0.0083 1.0131 163.9  m  20?   4.04 137.1   45 106  35  95
   2024 04 21 20:00  14 11 08.85    -27 51 31.3   0.0083 1.0131 163.9  m  20?   3.90 138.0   48 106  35  95
   2024 04 21 20:10  14 11 10.77    -27 52 00.1   0.0083 1.0131 163.9  m  20?   3.77 138.8   50 106  34  95
   2024 04 21 20:20  14 11 12.59    -27 52 28.2   0.0083 1.0131 163.9  m  20?   3.64 139.6   52 106  34  95
   2024 04 21 20:30  14 11 14.32    -27 52 55.6   0.0083 1.0131 163.9  m  20?   3.51 140.4   54 106  34  95
   2024 04 21 20:40  14 11 15.95    -27 53 22.4   0.0083 1.0131 163.9  m  20?   3.39 141.2   56 106  34  95
   2024 04 21 20:50  14 11 17.51    -27 53 48.5   0.0083 1.0131 163.9  m  20?   3.26 141.8   59 106  34  95
   2024 04 21 21:00  14 11 18.99    -27 54 13.8   0.0083 1.0131 163.9  m  20?   3.14 142.5   61 106  34  95
   2024 04 21 21:10  14 11 20.39    -27 54 38.4   0.0083 1.0131 163.9  m  20?   3.03 143.0   63 106  34  95
   2024 04 21 21:20  14 11 21.73    -27 55 02.2   0.0083 1.0131 163.9  m  20?   2.91 143.4   65 106  34  95
   2024 04 21 21:30  14 11 23.01    -27 55 25.3   0.0083 1.0131 163.9  m  20?   2.80 143.8   67 107  34  95
   2024 04 21 21:40  14 11 24.23    -27 55 47.5   0.0083 1.0131 163.9  m  20?   2.69 144.0   70 108  34  95
   2024 04 21 21:50  14 11 25.39    -27 56 08.9   0.0083 1.0131 163.9  m  20?   2.59 144.0   72 109  34  95
   2024 04 21 22:00  14 11 26.52    -27 56 29.5   0.0083 1.0131 163.9  m  20?   2.49 144.0   74 111  34  95
   2024 04 21 22:10  14 11 27.60    -27 56 49.2   0.0083 1.0131 163.9  m  20?   2.39 143.7   76 114  34  95
   2024 04 21 22:20  14 11 28.65    -27 57 08.1   0.0083 1.0131 163.9  m  20?   2.30 143.3   78 117  34  96
   2024 04 21 22:30  14 11 29.67    -27 57 26.1   0.0083 1.0131 163.9  m  20?   2.21 142.6   80 122  34  96
   2024 04 21 22:40  14 11 30.67    -27 57 43.3   0.0083 1.0131 163.9  m  20?   2.13 141.7   82 131  34  96
   2024 04 21 22:50  14 11 31.65    -27 57 59.6   0.0083 1.0131 163.9  m  20?   2.05 140.5   84 145  34  96
   2024 04 21 23:00  14 11 32.63    -27 58 14.9   0.0083 1.0132 163.9  m  20?   1.97 139.1   84 165  34  96
   2024 04 21 23:10  14 11 33.60    -27 58 29.5   0.0083 1.0132 163.9  t  20?   1.91 137.4   85 191  34  96
   2024 04 21 23:20  14 11 34.58    -27 58 43.1   0.0083 1.0132 163.9  m  20?   1.85 135.4   84 213  34  96
   2024 04 21 23:30  14 11 35.56    -27 58 55.8   0.0083 1.0132 163.9  m  20?   1.80 133.0   82 227  33  96
   2024 04 21 23:40  14 11 36.56    -27 59 07.7   0.0083 1.0132 163.9  m  20?   1.76 130.4   80 236  33  96
   2024 04 21 23:50  14 11 37.58    -27 59 18.7   0.0083 1.0132 163.9  m  20?   1.73 127.6   78 241  33  96
   2024 04 22 00:00  14 11 38.63    -27 59 28.9   0.0083 1.0132 163.9  m  20?   1.71 124.4   76 245  33  96
   2024 04 22 00:10  14 11 39.71    -27 59 38.1   0.0083 1.0132 163.9  m  20?   1.70 121.2   74 248  33  96
   2024 04 22 00:20  14 11 40.83    -27 59 46.6   0.0083 1.0132 163.9  m  20?   1.71 117.8   72 249  33  96
   2024 04 22 00:30  14 11 41.99    -27 59 54.2   0.0083 1.0132 163.9  m  20?   1.73 114.4   70 251  33  96
   2024 04 22 00:40  14 11 43.21    -28 00 00.9   0.0083 1.0132 163.9  m  20?   1.77 111.0   68 252  33  96
   2024 04 22 00:50  14 11 44.48    -28 00 06.9   0.0083 1.0132 163.9  m  20?   1.81 107.8   65 252  33  96
   2024 04 22 01:00  14 11 45.81    -28 00 12.1   0.0083 1.0132 163.9  m  20?   1.87 104.7   63 253  33  96
   2024 04 22 01:10  14 11 47.22    -28 00 16.5   0.0083 1.0132 163.9  m  20?   1.94 101.8   61 253  33  96
   2024 04 22 01:20  14 11 48.69    -28 00 20.1   0.0083 1.0132 163.9  m  20?   2.03  99.2   59 253  33  96
   2024 04 22 01:30  14 11 50.24    -28 00 23.1   0.0083 1.0132 163.9  m  20?   2.12  96.8   57 253  33  96
   2024 04 22 01:40  14 11 51.88    -28 00 25.3   0.0083 1.0132 163.9  m  20?   2.23  94.7   54 253  33  96
   2024 04 22 01:50  14 11 53.60    -28 00 26.8   0.0083 1.0132 163.9  m  20?   2.34  92.8   52 253  33  96
   2024 04 22 02:00  14 11 55.41    -28 00 27.6   0.0083 1.0132 163.9  m  20?   2.47  91.1   50 253  33  96
   2024 04 22 02:10  14 11 57.32    -28 00 27.8   0.0083 1.0132 163.9  m  20?   2.60  89.7   48 253  33  96
   2024 04 22 02:20  14 11 59.34    -28 00 27.4   0.0083 1.0132 163.9  m  20?   2.73  88.5   46 252  33  96
   2024 04 22 02:30  14 12 01.45    -28 00 26.5   0.0083 1.0132 163.9  m  20?   2.88  87.4   43 252  32  96
   2024 04 22 02:40  14 12 03.68    -28 00 24.9   0.0083 1.0132 163.9  m  20?   3.03  86.5   41 252  32  96
   2024 04 22 02:50  14 12 06.02    -28 00 22.9   0.0083 1.0132 163.9  m  20?   3.18  85.8   39 251  32  96
   2024 04 22 03:00  14 12 08.47    -28 00 20.3   0.0083 1.0132 163.9  m  20?   3.34  85.2   37 251  32  96
   2024 04 22 03:10  14 12 11.04    -28 00 17.3   0.0083 1.0132 163.9  m  20?   3.50  84.6   35 251  32  96
   2024 04 22 03:20  14 12 13.74    -28 00 13.9   0.0083 1.0132 163.9  m  20?   3.67  84.2   33 250  32  96
   2024 04 22 03:30  14 12 16.56    -28 00 10.1   0.0083 1.0132 163.9  m  20?   3.84  83.9   30 250  32  96
   2024 04 22 03:40  14 12 19.51    -28 00 05.9   0.0083 1.0132 163.9  m  20?   4.01  83.7   28 249  32  96
   2024 04 22 03:50  14 12 22.58    -28 00 01.4   0.0083 1.0132 163.9  m  20?   4.19  83.6   26 248  32  96
   2024 04 22 04:00  14 12 25.79    -27 59 56.7   0.0083 1.0132 163.9 A   20?   4.37  83.5   24 248  32  96
   2024 04 22 04:10  14 12 29.14    -27 59 51.6   0.0083 1.0132 163.9 A   20?   4.54  83.4   22 247  32  96
   2024 04 22 04:20  14 12 32.61    -27 59 46.4   0.0083 1.0132 163.9 A   20?   4.73  83.4   20 247  32  96
   2024 04 22 04:30  14 12 36.23    -27 59 41.0   0.0083 1.0132 163.9 N   20?   4.91  83.5   18 246  32  96
   2024 04 22 04:40  14 12 39.98    -27 59 35.4   0.0083 1.0132 163.9 N   20?   5.09  83.6   16 245  32  96
   2024 04 22 04:50  14 12 43.86    -27 59 29.8   0.0083 1.0132 163.9 C   20?   5.27  83.7   13 245  32  96
   2024 04 22 05:00  14 12 47.89    -27 59 24.1   0.0083 1.0132 163.9 C   20?   5.45  83.9   11 244  31  96
   ................
   2024 04 22 16:50  14 20 10.65    -28 14 49.4   0.0084 1.0134 163.6 Cm  20?   6.78 119.3    6 118  26  98
   2024 04 22 17:00  14 20 15.05    -28 15 22.7   0.0084 1.0134 163.5 Nm  20?   6.63 120.1    8 117  26  98
   2024 04 22 17:10  14 20 19.31    -28 15 56.0   0.0084 1.0134 163.5 Nm  20?   6.47 120.9   10 116  26  98
   2024 04 22 17:20  14 20 23.44    -28 16 29.4   0.0084 1.0134 163.5 Nm  20?   6.31 121.7   12 115  26  98
   2024 04 22 17:30  14 20 27.43    -28 17 02.7   0.0083 1.0134 163.5 Am  20?   6.15 122.6   14 115  26  98
   2024 04 22 17:40  14 20 31.28    -28 17 36.0   0.0083 1.0134 163.5 Am  20?   6.00 123.5   16 114  26  98
   2024 04 22 17:50  14 20 34.99    -28 18 09.1   0.0083 1.0134 163.5 Am  20?   5.84 124.4   18 113  26  98
   2024 04 22 18:00  14 20 38.57    -28 18 42.1   0.0083 1.0134 163.5  m  20?   5.68 125.2   20 112  26  98
   2024 04 22 18:10  14 20 42.01    -28 19 14.9   0.0083 1.0134 163.5  m  20?   5.52 126.1   23 112  26  98
   2024 04 22 18:20  14 20 45.31    -28 19 47.5   0.0083 1.0134 163.5  m  20?   5.37 127.1   25 111  26  98
   2024 04 22 18:30  14 20 48.49    -28 20 19.8   0.0083 1.0134 163.5  m  20?   5.21 128.0   27 111  26  98
   2024 04 22 18:40  14 20 51.53    -28 20 51.8   0.0083 1.0134 163.5  m  20?   5.06 128.9   29 110  26  98
   2024 04 22 18:50  14 20 54.44    -28 21 23.5   0.0083 1.0134 163.4  m  20?   4.91 129.8   31 110  26  98
   2024 04 22 19:00  14 20 57.23    -28 21 54.8   0.0083 1.0134 163.4  m  20?   4.76 130.7   33 109  26  98
   2024 04 22 19:10  14 20 59.89    -28 22 25.8   0.0083 1.0134 163.4  m  20?   4.61 131.7   35 109  26  98
   2024 04 22 19:20  14 21 02.43    -28 22 56.2   0.0083 1.0134 163.4  m  20?   4.46 132.6   38 108  26  98
   2024 04 22 19:30  14 21 04.86    -28 23 26.3   0.0083 1.0134 163.4  m  20?   4.31 133.5   40 108  25  98
   2024 04 22 19:40  14 21 07.16    -28 23 55.8   0.0083 1.0134 163.4  m  20?   4.17 134.4   42 108  25  98
   2024 04 22 19:50  14 21 09.36    -28 24 24.7   0.0083 1.0134 163.4  m  20?   4.03 135.3   44 107  25  98
   2024 04 22 20:00  14 21 11.45    -28 24 53.2   0.0083 1.0134 163.4  m  20?   3.89 136.2   46 107  25  98
   2024 04 22 20:10  14 21 13.44    -28 25 21.0   0.0083 1.0134 163.4  m  20?   3.75 137.0   49 107  25  98
   2024 04 22 20:20  14 21 15.32    -28 25 48.2   0.0083 1.0134 163.4  m  20?   3.62 137.8   51 107  25  98
   2024 04 22 20:30  14 21 17.11    -28 26 14.7   0.0083 1.0134 163.4  m  20?   3.49 138.6   53 107  25  98
   2024 04 22 20:40  14 21 18.81    -28 26 40.6   0.0083 1.0134 163.4  m  20?   3.36 139.3   55 107  25  98
   2024 04 22 20:50  14 21 20.43    -28 27 05.7   0.0083 1.0134 163.4  m  20?   3.23 140.0   57 107  25  98
   2024 04 22 21:00  14 21 21.96    -28 27 30.2   0.0083 1.0134 163.4  m  20?   3.11 140.6   59 107  25  98
   2024 04 22 21:10  14 21 23.42    -28 27 53.9   0.0083 1.0134 163.4  m  20?   2.99 141.1   62 107  25  98
   2024 04 22 21:20  14 21 24.80    -28 28 16.8   0.0083 1.0134 163.4  m  20?   2.87 141.5   64 107  25  98
   2024 04 22 21:30  14 21 26.12    -28 28 39.0   0.0083 1.0134 163.4  m  20?   2.76 141.8   66 108  25  98
   2024 04 22 21:40  14 21 27.38    -28 29 00.3   0.0083 1.0134 163.4  m  20?   2.65 142.1   68 109  25  98
   2024 04 22 21:50  14 21 28.59    -28 29 20.8   0.0083 1.0134 163.4  m  20?   2.54 142.1   70 110  25  98
   2024 04 22 22:00  14 21 29.74    -28 29 40.5   0.0083 1.0134 163.4  m  20?   2.44 142.0   73 112  25  98
   2024 04 22 22:10  14 21 30.86    -28 29 59.3   0.0083 1.0134 163.3  m  20?   2.34 141.8   75 114  25  98
   2024 04 22 22:20  14 21 31.93    -28 30 17.3   0.0083 1.0134 163.3  m  20?   2.24 141.3   77 117  25  98
   2024 04 22 22:30  14 21 32.98    -28 30 34.4   0.0083 1.0134 163.3  m  20?   2.15 140.7   79 122  25  98
   2024 04 22 22:40  14 21 34.00    -28 30 50.6   0.0083 1.0134 163.3  m  20?   2.06 139.7   81 128  25  98
   2024 04 22 22:50  14 21 35.00    -28 31 05.9   0.0083 1.0134 163.3  m  20?   1.98 138.6   82 139  25  98
   2024 04 22 23:00  14 21 35.98    -28 31 20.4   0.0083 1.0134 163.3  m  20?   1.91 137.1   84 154  24  98
   2024 04 22 23:10  14 21 36.96    -28 31 33.9   0.0083 1.0134 163.3  m  20?   1.84 135.3   84 176  24  98
   2024 04 22 23:20  14 21 37.94    -28 31 46.6   0.0083 1.0134 163.3  t  20?   1.78 133.2   84 198  24  98
   2024 04 22 23:30  14 21 38.92    -28 31 58.3   0.0083 1.0134 163.3  m  20?   1.73 130.8   83 216  24  98
   2024 04 22 23:40  14 21 39.92    -28 32 09.2   0.0083 1.0134 163.3  m  20?   1.68 128.1   81 228  24  98
   2024 04 22 23:50  14 21 40.93    -28 32 19.2   0.0083 1.0134 163.3  m  20?   1.65 125.1   79 235  24  98
   2024 04 23 00:00  14 21 41.97    -28 32 28.3   0.0083 1.0134 163.3  m  20?   1.63 121.9   77 240  24  98
   2024 04 23 00:10  14 21 43.04    -28 32 36.5   0.0083 1.0134 163.3  m  20?   1.63 118.5   75 244  24  99
   2024 04 23 00:20  14 21 44.14    -28 32 43.9   0.0083 1.0134 163.3  m  20?   1.63 115.0   73 246  24  99
   2024 04 23 00:30  14 21 45.28    -28 32 50.4   0.0083 1.0134 163.3  m  20?   1.65 111.5   71 248  24  99
   2024 04 23 00:40  14 21 46.47    -28 32 56.1   0.0083 1.0134 163.3  m  20?   1.69 108.0   69 250  24  99
   2024 04 23 00:50  14 21 47.71    -28 33 00.9   0.0083 1.0135 163.3  m  20?   1.73 104.7   67 250  24  99
   2024 04 23 01:00  14 21 49.02    -28 33 05.0   0.0083 1.0135 163.3  m  20?   1.79 101.5   65 251  24  99
   2024 04 23 01:10  14 21 50.38    -28 33 08.2   0.0083 1.0135 163.3  m  20?   1.87  98.7   62 252  24  99
   2024 04 23 01:20  14 21 51.82    -28 33 10.6   0.0083 1.0135 163.4  m  20?   1.95  96.0   60 252  24  99
   2024 04 23 01:30  14 21 53.33    -28 33 12.3   0.0083 1.0135 163.4  m  20?   2.05  93.6   58 252  24  99
   2024 04 23 01:40  14 21 54.92    -28 33 13.3   0.0083 1.0135 163.4  m  20?   2.15  91.5   56 252  24  99
   2024 04 23 01:50  14 21 56.59    -28 33 13.6   0.0083 1.0135 163.4  m  20?   2.26  89.7   54 252  24  99
   2024 04 23 02:00  14 21 58.36    -28 33 13.1   0.0083 1.0135 163.4  m  20?   2.39  88.1   51 252  24  99
   2024 04 23 02:10  14 22 00.21    -28 33 12.0   0.0083 1.0135 163.4  m  20?   2.52  86.7   49 252  23  99
   2024 04 23 02:20  14 22 02.17    -28 33 10.3   0.0083 1.0135 163.4  m  20?   2.65  85.5   47 252  23  99
   2024 04 23 02:30  14 22 04.23    -28 33 08.0   0.0083 1.0135 163.4  m  20?   2.79  84.5   45 252  23  99
   2024 04 23 02:40  14 22 06.40    -28 33 05.1   0.0083 1.0135 163.4  m  20?   2.94  83.7   43 251  23  99
   2024 04 23 02:50  14 22 08.67    -28 33 01.6   0.0083 1.0135 163.4  m  20?   3.10  83.0   41 251  23  99
   2024 04 23 03:00  14 22 11.06    -28 32 57.6   0.0083 1.0135 163.4  m  20?   3.25  82.5   38 251  23  99
   2024 04 23 03:10  14 22 13.57    -28 32 53.2   0.0083 1.0135 163.4  m  20?   3.41  82.0   36 250  23  99
   2024 04 23 03:20  14 22 16.20    -28 32 48.3   0.0084 1.0135 163.4  m  20?   3.58  81.7   34 250  23  99
   2024 04 23 03:30  14 22 18.95    -28 32 42.9   0.0084 1.0135 163.4  m  20?   3.75  81.4   32 249  23  99
   2024 04 23 03:40  14 22 21.82    -28 32 37.2   0.0084 1.0135 163.4  m  20?   3.92  81.3   30 249  23  99
   2024 04 23 03:50  14 22 24.83    -28 32 31.2   0.0084 1.0135 163.4  m  20?   4.09  81.2   28 248  23  99
   2024 04 23 04:00  14 22 27.96    -28 32 24.8   0.0084 1.0135 163.4 Am  20?   4.27  81.1   25 248  23  99
   2024 04 23 04:10  14 22 31.23    -28 32 18.2   0.0084 1.0135 163.4 Am  20?   4.45  81.2   23 247  23  99
   2024 04 23 04:20  14 22 34.63    -28 32 11.3   0.0084 1.0135 163.4 Am  20?   4.62  81.2   21 247  23  99
   2024 04 23 04:30  14 22 38.17    -28 32 04.2   0.0084 1.0135 163.4 Nm  20?   4.80  81.3   19 246  23  99
   2024 04 23 04:40  14 22 41.85    -28 31 57.0   0.0084 1.0135 163.4 Nm  20?   4.99  81.5   17 245  23  99
   2024 04 23 04:50  14 22 45.66    -28 31 49.6   0.0084 1.0135 163.4 C   20?   5.17  81.7   15 244  23  99
   2024 04 23 05:00  14 22 49.61    -28 31 42.1   0.0084 1.0135 163.4 C   20?   5.35  81.9   13 244  22  99
   ................
   2024 04 23 16:50  14 30 12.53    -28 44 55.4   0.0084 1.0136 163.0 Cm  20?   6.79 117.9    5 119  18  99
   2024 04 23 17:00  14 30 17.02    -28 45 27.4   0.0084 1.0136 162.9 Nm  20?   6.64 118.7    7 118  18  99
   2024 04 23 17:10  14 30 21.37    -28 45 59.4   0.0084 1.0136 162.9 Nm  20?   6.48 119.5    9 117  18  99
   2024 04 23 17:20  14 30 25.59    -28 46 31.5   0.0084 1.0136 162.9 Nm  20?   6.32 120.3   11 116  18  99
   2024 04 23 17:30  14 30 29.66    -28 47 03.6   0.0084 1.0136 162.9 Am  20?   6.16 121.2   13 115  17  99
   2024 04 23 17:40  14 30 33.59    -28 47 35.6   0.0084 1.0136 162.9 Am  20?   6.00 122.0   15 115  17  99
   2024 04 23 17:50  14 30 37.39    -28 48 07.5   0.0084 1.0136 162.9  m  20?   5.85 122.9   17 114  17  99
   2024 04 23 18:00  14 30 41.05    -28 48 39.3   0.0084 1.0137 162.9  m  20?   5.69 123.8   19 113  17  99
   2024 04 23 18:10  14 30 44.58    -28 49 11.0   0.0084 1.0137 162.9  m  20?   5.53 124.6   21 113  17  99
   2024 04 23 18:20  14 30 47.96    -28 49 42.4   0.0084 1.0137 162.9  m  20?   5.37 125.5   24 112  17  99
   2024 04 23 18:30  14 30 51.22    -28 50 13.6   0.0084 1.0137 162.9  m  20?   5.21 126.4   26 112  17  99
   2024 04 23 18:40  14 30 54.34    -28 50 44.5   0.0084 1.0137 162.9  m  20?   5.06 127.3   28 111  17  99
   2024 04 23 18:50  14 30 57.33    -28 51 15.1   0.0084 1.0137 162.9  m  20?   4.90 128.2   30 111  17  99
   2024 04 23 19:00  14 31 00.19    -28 51 45.3   0.0084 1.0137 162.8  m  20?   4.75 129.1   32 110  17  99
   2024 04 23 19:10  14 31 02.93    -28 52 15.2   0.0084 1.0137 162.8  m  20?   4.60 130.0   34 110  17  99
   2024 04 23 19:20  14 31 05.55    -28 52 44.6   0.0084 1.0137 162.8  m  20?   4.45 130.9   36 109  17  99
   2024 04 23 19:30  14 31 08.04    -28 53 13.6   0.0084 1.0137 162.8  m  20?   4.30 131.8   39 109  17  99
   2024 04 23 19:40  14 31 10.42    -28 53 42.1   0.0084 1.0137 162.8  m  20?   4.15 132.7   41 108  17  99
   2024 04 23 19:50  14 31 12.68    -28 54 10.0   0.0084 1.0137 162.8  m  20?   4.01 133.5   43 108  17  99
   2024 04 23 20:00  14 31 14.84    -28 54 37.4   0.0084 1.0137 162.8  m  20?   3.87 134.4   45 108  17  99
   2024 04 23 20:10  14 31 16.88    -28 55 04.3   0.0084 1.0137 162.8  m  20?   3.73 135.2   47 108  17  99
   2024 04 23 20:20  14 31 18.83    -28 55 30.5   0.0084 1.0137 162.8  m  20?   3.59 136.0   49 108  17  99
   2024 04 23 20:30  14 31 20.68    -28 55 56.1   0.0084 1.0137 162.8  m  20?   3.46 136.8   52 107  17  99
   2024 04 23 20:40  14 31 22.43    -28 56 21.0   0.0084 1.0137 162.8  m  20?   3.33 137.5   54 107  17  99
   2024 04 23 20:50  14 31 24.09    -28 56 45.2   0.0084 1.0137 162.8  m  20?   3.20 138.1   56 107  16  99
   2024 04 23 21:00  14 31 25.67    -28 57 08.7   0.0084 1.0137 162.8  m  20?   3.07 138.7   58 108  16  99
   2024 04 23 21:10  14 31 27.17    -28 57 31.4   0.0084 1.0137 162.8  m  20?   2.95 139.2   60 108  16  99
   2024 04 23 21:20  14 31 28.60    -28 57 53.4   0.0084 1.0137 162.8  m  20?   2.83 139.6   62 108  16  99
   2024 04 23 21:30  14 31 29.96    -28 58 14.6   0.0084 1.0137 162.8  m  20?   2.71 140.0   65 109  16  99
   2024 04 23 21:40  14 31 31.25    -28 58 35.0   0.0084 1.0137 162.8  m  20?   2.60 140.2   67 110  16  99
   2024 04 23 21:50  14 31 32.49    -28 58 54.6   0.0084 1.0137 162.8  m  20?   2.49 140.2   69 111  16  99
   2024 04 23 22:00  14 31 33.67    -28 59 13.3   0.0084 1.0137 162.8  m  20?   2.38 140.2   71 112  16  99
   2024 04 23 22:10  14 31 34.81    -28 59 31.2   0.0084 1.0137 162.8  m  20?   2.28 139.9   73 114  16  99
   2024 04 23 22:20  14 31 35.90    -28 59 48.2   0.0084 1.0137 162.8  m  20?   2.18 139.4   75 117  16  99
   2024 04 23 22:30  14 31 36.96    -29 00 04.4   0.0084 1.0137 162.8  m  20?   2.08 138.7   77 121  16  99
   2024 04 23 22:40  14 31 38.00    -29 00 19.6   0.0084 1.0137 162.8  m  20?   2.00 137.8   79 126  16  99
   2024 04 23 22:50  14 31 39.00    -29 00 34.0   0.0084 1.0137 162.8  m  20?   1.91 136.6   81 134  16  99
   2024 04 23 23:00  14 31 40.00    -29 00 47.5   0.0084 1.0137 162.8  m  20?   1.83 135.1   82 146  16  99
   2024 04 23 23:10  14 31 40.98    -29 01 00.1   0.0084 1.0137 162.8  m  20?   1.76 133.3   83 163  16  99
   2024 04 23 23:20  14 31 41.95    -29 01 11.7   0.0084 1.0137 162.8  t  20?   1.70 131.1   84 184  16  99
   2024 04 23 23:30  14 31 42.93    -29 01 22.5   0.0084 1.0137 162.8  m  20?   1.65 128.6   83 204  16  99
   2024 04 23 23:40  14 31 43.91    -29 01 32.4   0.0084 1.0137 162.8  m  20?   1.60 125.8   82 219  16  99
   2024 04 23 23:50  14 31 44.91    -29 01 41.3   0.0084 1.0137 162.8  m  20?   1.57 122.7   80 229  16  99
   2024 04 24 00:00  14 31 45.93    -29 01 49.4   0.0084 1.0137 162.8  m  20?   1.55 119.3   78 235  16  99
   2024 04 24 00:10  14 31 46.98    -29 01 56.6   0.0084 1.0137 162.8  m  20?   1.54 115.7   76 240  16  99
   2024 04 24 00:20  14 31 48.05    -29 02 02.9   0.0084 1.0137 162.8  m  20?   1.55 112.1   74 243  16  99
   2024 04 24 00:30  14 31 49.17    -29 02 08.3   0.0084 1.0137 162.8  m  20?   1.57 108.4   72 246  15  99
   2024 04 24 00:40  14 31 50.32    -29 02 12.9   0.0084 1.0137 162.8  m  20?   1.60 104.8   70 247  15  99
   2024 04 24 00:50  14 31 51.53    -29 02 16.6   0.0084 1.0137 162.8  m  20?   1.65 101.4   68 249  15  99
   2024 04 24 01:00  14 31 52.79    -29 02 19.5   0.0084 1.0137 162.8  m  20?   1.71  98.2   66 250  15  99
   2024 04 24 01:10  14 31 54.12    -29 02 21.6   0.0084 1.0137 162.8  m  20?   1.79  95.3   64 250  15  99
   2024 04 24 01:20  14 31 55.51    -29 02 22.9   0.0084 1.0137 162.8  m  20?   1.87  92.6   62 251  15  99
   2024 04 24 01:30  14 31 56.97    -29 02 23.4   0.0084 1.0137 162.8  m  20?   1.96  90.3   59 251  15  99
   2024 04 24 01:40  14 31 58.50    -29 02 23.1   0.0084 1.0137 162.8  m  20?   2.07  88.2   57 251  15  99
   2024 04 24 01:50  14 32 00.12    -29 02 22.1   0.0084 1.0137 162.8  m  20?   2.18  86.4   55 251  15  99
   2024 04 24 02:00  14 32 01.83    -29 02 20.4   0.0084 1.0137 162.8  m  20?   2.30  84.8   53 251  15  99
   2024 04 24 02:10  14 32 03.63    -29 02 18.1   0.0084 1.0137 162.8  m  20?   2.43  83.5   51 251  15  99
   2024 04 24 02:20  14 32 05.52    -29 02 15.0   0.0084 1.0137 162.8  m  20?   2.57  82.4   48 251  15  99
   2024 04 24 02:30  14 32 07.51    -29 02 11.4   0.0084 1.0137 162.8  m  20?   2.71  81.5   46 251  15  99
   2024 04 24 02:40  14 32 09.61    -29 02 07.1   0.0084 1.0138 162.8  m  20?   2.86  80.7   44 251  15  99
   2024 04 24 02:50  14 32 11.81    -29 02 02.3   0.0084 1.0138 162.8  m  20?   3.01  80.1   42 250  15  99
   2024 04 24 03:00  14 32 14.13    -29 01 56.9   0.0084 1.0138 162.8  m  20?   3.16  79.6   40 250  15  99
   2024 04 24 03:10  14 32 16.56    -29 01 51.0   0.0084 1.0138 162.8  m  20?   3.32  79.3   38 250  15  99
   2024 04 24 03:20  14 32 19.11    -29 01 44.6   0.0084 1.0138 162.8  m  20?   3.49  79.0   35 249  15  99
   2024 04 24 03:30  14 32 21.78    -29 01 37.8   0.0084 1.0138 162.8  m  20?   3.65  78.8   33 249  15  99
   2024 04 24 03:40  14 32 24.58    -29 01 30.6   0.0084 1.0138 162.8  m  20?   3.82  78.7   31 249  15  99
   2024 04 24 03:50  14 32 27.50    -29 01 23.0   0.0084 1.0138 162.8  m  20?   3.99  78.7   29 248  15  99
   2024 04 24 04:00  14 32 30.55    -29 01 15.1   0.0084 1.0138 162.8 Am  20?   4.17  78.7   27 248  15  99
   2024 04 24 04:10  14 32 33.73    -29 01 06.9   0.0084 1.0138 162.8 Am  20?   4.34  78.8   25 247  15  99
   2024 04 24 04:20  14 32 37.05    -29 00 58.4   0.0084 1.0138 162.8 Am  20?   4.52  78.9   23 246  14  99
   2024 04 24 04:30  14 32 40.50    -29 00 49.7   0.0084 1.0138 162.8 Nm  20?   4.70  79.1   21 246  14  99
   2024 04 24 04:40  14 32 44.09    -29 00 40.8   0.0084 1.0138 162.8 Nm  20?   4.88  79.3   18 245  14  99
   2024 04 24 04:50  14 32 47.81    -29 00 31.8   0.0084 1.0138 162.8 Cm  20?   5.06  79.5   16 244  14  99
   2024 04 24 05:00  14 32 51.67    -29 00 22.6   0.0084 1.0138 162.8 Cm  20?   5.24  79.8   14 244  14  99
   ................
   2024 04 24 16:40  14 40 09.02    -29 10 51.4   0.0084 1.0139 162.3 C   20?   6.94 115.8    2 120  11  99
   2024 04 24 16:50  14 40 13.72    -29 11 21.9   0.0084 1.0139 162.3 Cm  20?   6.79 116.6    4 120  11  99
   2024 04 24 17:00  14 40 18.28    -29 11 52.5   0.0084 1.0139 162.3 Nm  20?   6.63 117.4    6 119  11  99
   2024 04 24 17:10  14 40 22.71    -29 12 23.2   0.0084 1.0139 162.3 Nm  20?   6.48 118.1    8 118  11  99
   2024 04 24 17:20  14 40 26.99    -29 12 53.9   0.0084 1.0139 162.3 Nm  20?   6.32 119.0   10 117  11  99
   2024 04 24 17:30  14 40 31.14    -29 13 24.6   0.0084 1.0139 162.3 Am  20?   6.16 119.8   12 116  11  99
   2024 04 24 17:40  14 40 35.15    -29 13 55.3   0.0084 1.0139 162.3 Am  20?   6.00 120.6   14 116  11  99
   2024 04 24 17:50  14 40 39.02    -29 14 25.9   0.0084 1.0139 162.3  m  20?   5.84 121.4   16 115  11  99
   2024 04 24 18:00  14 40 42.75    -29 14 56.5   0.0084 1.0139 162.3  m  20?   5.68 122.3   18 114  11  99
   2024 04 24 18:10  14 40 46.35    -29 15 26.8   0.0084 1.0139 162.2  m  20?   5.52 123.1   20 114  11  99
   2024 04 24 18:20  14 40 49.81    -29 15 57.0   0.0084 1.0139 162.2  m  20?   5.36 124.0   22 113  11  99
   2024 04 24 18:30  14 40 53.13    -29 16 27.0   0.0084 1.0139 162.2  m  20?   5.20 124.9   24 112  11  99
   2024 04 24 18:40  14 40 56.32    -29 16 56.7   0.0084 1.0139 162.2  m  20?   5.05 125.7   27 112  11  99
   2024 04 24 18:50  14 40 59.38    -29 17 26.2   0.0084 1.0139 162.2  m  20?   4.89 126.6   29 111  11  99
   2024 04 24 19:00  14 41 02.31    -29 17 55.2   0.0084 1.0139 162.2  m  20?   4.73 127.5   31 111  11  99
   2024 04 24 19:10  14 41 05.12    -29 18 24.0   0.0084 1.0139 162.2  m  20?   4.58 128.4   33 110  11  99
   2024 04 24 19:20  14 41 07.79    -29 18 52.3   0.0084 1.0139 162.2  m  20?   4.43 129.2   35 110  11  99
   2024 04 24 19:30  14 41 10.35    -29 19 20.1   0.0084 1.0139 162.2  m  20?   4.28 130.1   37 110  11  99
   2024 04 24 19:40  14 41 12.79    -29 19 47.5   0.0084 1.0139 162.2  m  20?   4.13 131.0   39 109  11  99
   2024 04 24 19:50  14 41 15.11    -29 20 14.4   0.0084 1.0139 162.2  m  20?   3.98 131.8   42 109  11  99
   2024 04 24 20:00  14 41 17.32    -29 20 40.8   0.0084 1.0140 162.2  m  20?   3.84 132.6   44 109  11  99
   2024 04 24 20:10  14 41 19.42    -29 21 06.6   0.0084 1.0140 162.2  m  20?   3.70 133.4   46 108  11  99
   2024 04 24 20:20  14 41 21.41    -29 21 31.8   0.0084 1.0140 162.2  m  20?   3.56 134.2   48 108  11  99
   2024 04 24 20:30  14 41 23.31    -29 21 56.3   0.0084 1.0140 162.2  m  20?   3.42 135.0   50 108  11  99
   2024 04 24 20:40  14 41 25.11    -29 22 20.2   0.0084 1.0140 162.2  m  20?   3.28 135.7   52 108  10  99
   2024 04 24 20:50  14 41 26.81    -29 22 43.4   0.0084 1.0140 162.1  m  20?   3.15 136.3   55 108  10  99
   2024 04 24 21:00  14 41 28.43    -29 23 05.9   0.0084 1.0140 162.1  m  20?   3.02 136.9   57 108  10  99
   2024 04 24 21:10  14 41 29.97    -29 23 27.7   0.0084 1.0140 162.1  m  20?   2.90 137.4   59 109  10  99
   2024 04 24 21:20  14 41 31.43    -29 23 48.7   0.0084 1.0140 162.1  m  20?   2.78 137.8   61 109  10  99
   2024 04 24 21:30  14 41 32.82    -29 24 08.9   0.0084 1.0140 162.1  m  20?   2.66 138.1   63 109  10  99
   2024 04 24 21:40  14 41 34.14    -29 24 28.3   0.0084 1.0140 162.1  m  20?   2.54 138.3   65 110  10  99
   2024 04 24 21:50  14 41 35.39    -29 24 46.9   0.0084 1.0140 162.1  m  20?   2.43 138.4   68 111  10  99
   2024 04 24 22:00  14 41 36.60    -29 25 04.7   0.0084 1.0140 162.1  m  20?   2.32 138.3   70 112  10  99
   2024 04 24 22:10  14 41 37.75    -29 25 21.6   0.0084 1.0140 162.1  m  20?   2.21 138.0   72 114  10  99
   2024 04 24 22:20  14 41 38.86    -29 25 37.6   0.0084 1.0140 162.1  m  20?   2.11 137.5   74 117  10  99
   2024 04 24 22:30  14 41 39.93    -29 25 52.8   0.0084 1.0140 162.1  m  20?   2.01 136.8   76 120  10  99
   2024 04 24 22:40  14 41 40.96    -29 26 07.1   0.0084 1.0140 162.1  m  20?   1.92 135.9   78 125  10  99
   2024 04 24 22:50  14 41 41.97    -29 26 20.5   0.0084 1.0140 162.1  m  20?   1.84 134.6   80 131  10  99
   2024 04 24 23:00  14 41 42.96    -29 26 33.0   0.0084 1.0140 162.1  m  20?   1.76 133.1   81 141  10  99
   2024 04 24 23:10  14 41 43.94    -29 26 44.6   0.0084 1.0140 162.1  m  20?   1.69 131.2   82 154  10  99
   2024 04 24 23:20  14 41 44.90    -29 26 55.2   0.0084 1.0140 162.1  m  20?   1.62 128.9   83 172  10  99
   2024 04 24 23:30  14 41 45.87    -29 27 05.0   0.0084 1.0140 162.1  t  20?   1.57 126.3   83 191  10  99
   2024 04 24 23:40  14 41 46.84    -29 27 13.9   0.0084 1.0140 162.1  m  20?   1.52 123.3   82 208  10  99
   2024 04 24 23:50  14 41 47.81    -29 27 21.8   0.0084 1.0140 162.1  m  20?   1.49 120.1   81 221  10  98
   2024 04 25 00:00  14 41 48.81    -29 27 28.8   0.0084 1.0140 162.1  m  20?   1.47 116.5   79 230  10  98
   2024 04 25 00:10  14 41 49.82    -29 27 35.0   0.0084 1.0140 162.1  m  20?   1.46 112.8   77 236  10  98
   2024 04 25 00:20  14 41 50.87    -29 27 40.2   0.0084 1.0140 162.1  m  20?   1.47 109.0   75 240  10  98
   2024 04 25 00:30  14 41 51.94    -29 27 44.6   0.0084 1.0140 162.1  m  20?   1.49 105.2   73 243  10  98
   2024 04 25 00:40  14 41 53.06    -29 27 48.1   0.0084 1.0140 162.1  m  20?   1.52 101.4   71 245  10  98
   2024 04 25 00:50  14 41 54.23    -29 27 50.7   0.0084 1.0140 162.1  m  20?   1.57  98.0   69 247  10  98
   2024 04 25 01:00  14 41 55.44    -29 27 52.5   0.0084 1.0140 162.1  m  20?   1.63  94.7   67 248  10  98
   2024 04 25 01:10  14 41 56.71    -29 27 53.4   0.0084 1.0140 162.1  m  20?   1.70  91.7   65 249  10  98
   2024 04 25 01:20  14 41 58.05    -29 27 53.5   0.0084 1.0140 162.1  m  20?   1.79  89.0   63 250  10  98
   2024 04 25 01:30  14 41 59.45    -29 27 52.9   0.0084 1.0140 162.1  m  20?   1.88  86.7   61 250  10  98
   2024 04 25 01:40  14 42 00.93    -29 27 51.4   0.0084 1.0140 162.1  m  20?   1.99  84.6   58 250  10  98
   2024 04 25 01:50  14 42 02.49    -29 27 49.3   0.0084 1.0140 162.2  m  20?   2.10  82.9   56 251  10  98
   2024 04 25 02:00  14 42 04.12    -29 27 46.3   0.0084 1.0140 162.2  m  20?   2.22  81.4   54 251  10  98
   2024 04 25 02:10  14 42 05.85    -29 27 42.7   0.0084 1.0140 162.2  m  20?   2.35  80.2   52 251  10  98
   2024 04 25 02:20  14 42 07.67    -29 27 38.4   0.0084 1.0140 162.2  m  20?   2.48  79.1   50 251  10  98
   2024 04 25 02:30  14 42 09.59    -29 27 33.4   0.0084 1.0140 162.2  m  20?   2.62  78.3   48 251  10  98
   2024 04 25 02:40  14 42 11.61    -29 27 27.9   0.0084 1.0140 162.2  m  20?   2.77  77.6   45 250  10  98
   2024 04 25 02:50  14 42 13.73    -29 27 21.7   0.0084 1.0140 162.2  m  20?   2.92  77.1   43 250  10  98
   2024 04 25 03:00  14 42 15.97    -29 27 14.9   0.0084 1.0140 162.2  m  20?   3.07  76.7   41 250  10  98
   2024 04 25 03:10  14 42 18.31    -29 27 07.7   0.0084 1.0140 162.2  m  20?   3.23  76.4   39 250  10  98
   2024 04 25 03:20  14 42 20.78    -29 26 59.9   0.0084 1.0140 162.2  m  20?   3.39  76.2   37 249  10  98
   2024 04 25 03:30  14 42 23.36    -29 26 51.7   0.0084 1.0140 162.2  m  20?   3.56  76.1   35 249  10  98
   2024 04 25 03:40  14 42 26.07    -29 26 43.0   0.0084 1.0140 162.2  m  20?   3.72  76.1   32 248  10  98
   2024 04 25 03:50  14 42 28.90    -29 26 33.9   0.0084 1.0140 162.2  m  20?   3.89  76.2   30 248  10  98
   2024 04 25 04:00  14 42 31.86    -29 26 24.5   0.0084 1.0140 162.2 Am  20?   4.06  76.2   28 247  10  98
   2024 04 25 04:10  14 42 34.94    -29 26 14.8   0.0084 1.0140 162.2 Am  20?   4.24  76.4   26 247  10  98
   2024 04 25 04:20  14 42 38.16    -29 26 04.7   0.0084 1.0140 162.2 Am  20?   4.41  76.6   24 246  10  98
   2024 04 25 04:30  14 42 41.52    -29 25 54.5   0.0084 1.0140 162.2 Nm  20?   4.59  76.8   22 246  10  98
   2024 04 25 04:40  14 42 45.01    -29 25 44.0   0.0084 1.0141 162.2 Nm  20?   4.77  77.1   20 245  10  98
   2024 04 25 04:50  14 42 48.63    -29 25 33.3   0.0084 1.0141 162.2 Cm  20?   4.94  77.3   18 244  10  98
   2024 04 25 05:00  14 42 52.39    -29 25 22.5   0.0084 1.0141 162.2 Cm  20?   5.12  77.7   16 244  10  98
   ................
   2024 04 25 16:40  14 50 07.73    -29 33 38.0   0.0085 1.0142 161.7 C   20?   6.93 114.5    1 121  11  96
   2024 04 25 16:50  14 50 12.49    -29 34 07.0   0.0085 1.0142 161.7 C   20?   6.77 115.2    3 120  12  96
   2024 04 25 17:00  14 50 17.11    -29 34 36.1   0.0085 1.0142 161.6 N   20?   6.62 116.0    5 120  12  96
   2024 04 25 17:10  14 50 21.60    -29 35 05.3   0.0085 1.0142 161.6 N   20?   6.46 116.8    7 119  12  96
   2024 04 25 17:20  14 50 25.95    -29 35 34.6   0.0085 1.0142 161.6 N   20?   6.30 117.6    9 118  12  96
   2024 04 25 17:30  14 50 30.15    -29 36 03.9   0.0085 1.0142 161.6 Am  20?   6.14 118.4   11 117  12  96
   2024 04 25 17:40  14 50 34.22    -29 36 33.3   0.0085 1.0142 161.6 Am  20?   5.98 119.2   13 116  12  96
   2024 04 25 17:50  14 50 38.16    -29 37 02.5   0.0085 1.0142 161.6  m  20?   5.82 120.0   15 116  12  96
   2024 04 25 18:00  14 50 41.95    -29 37 31.7   0.0085 1.0142 161.6  m  20?   5.66 120.8   17 115  12  96
   2024 04 25 18:10  14 50 45.61    -29 38 00.8   0.0085 1.0142 161.6  m  20?   5.50 121.6   19 114  12  96
   2024 04 25 18:20  14 50 49.13    -29 38 29.7   0.0085 1.0142 161.6  m  20?   5.34 122.5   21 114  12  96
   2024 04 25 18:30  14 50 52.51    -29 38 58.4   0.0085 1.0142 161.6  m  20?   5.18 123.3   23 113  12  96
   2024 04 25 18:40  14 50 55.76    -29 39 26.8   0.0085 1.0142 161.6  m  20?   5.02 124.2   25 113  12  96
   2024 04 25 18:50  14 50 58.88    -29 39 55.0   0.0085 1.0142 161.5  m  20?   4.87 125.0   27 112  12  96
   2024 04 25 19:00  14 51 01.86    -29 40 22.9   0.0085 1.0142 161.5  m  20?   4.71 125.9   30 112  12  96
   2024 04 25 19:10  14 51 04.72    -29 40 50.4   0.0085 1.0142 161.5  m  20?   4.55 126.7   32 111  12  96
   2024 04 25 19:20  14 51 07.45    -29 41 17.5   0.0085 1.0142 161.5  m  20?   4.40 127.6   34 111  12  96
   2024 04 25 19:30  14 51 10.06    -29 41 44.3   0.0085 1.0142 161.5  m  20?   4.25 128.4   36 110  12  96
   2024 04 25 19:40  14 51 12.55    -29 42 10.5   0.0085 1.0142 161.5  m  20?   4.10 129.3   38 110  12  96
   2024 04 25 19:50  14 51 14.91    -29 42 36.3   0.0084 1.0142 161.5  m  20?   3.95 130.1   40 110  12  96
   2024 04 25 20:00  14 51 17.17    -29 43 01.5   0.0084 1.0142 161.5  m  20?   3.80 130.9   42 109  12  96
   2024 04 25 20:10  14 51 19.31    -29 43 26.2   0.0084 1.0142 161.5  m  20?   3.66 131.7   45 109  12  96
   2024 04 25 20:20  14 51 21.35    -29 43 50.3   0.0084 1.0142 161.5  m  20?   3.51 132.5   47 109  12  96
   2024 04 25 20:30  14 51 23.28    -29 44 13.8   0.0084 1.0142 161.5  m  20?   3.37 133.2   49 109  12  96
   2024 04 25 20:40  14 51 25.12    -29 44 36.6   0.0084 1.0142 161.5  m  20?   3.24 133.9   51 109  12  96
   2024 04 25 20:50  14 51 26.86    -29 44 58.8   0.0084 1.0142 161.5  m  20?   3.10 134.5   53 109  12  96
   2024 04 25 21:00  14 51 28.51    -29 45 20.2   0.0084 1.0142 161.5  m  20?   2.97 135.1   55 109  12  96
   2024 04 25 21:10  14 51 30.07    -29 45 41.0   0.0084 1.0142 161.5  m  20?   2.84 135.6   58 109  12  96
   2024 04 25 21:20  14 51 31.56    -29 46 00.9   0.0084 1.0142 161.5  m  20?   2.72 136.0   60 109  12  96
   2024 04 25 21:30  14 51 32.97    -29 46 20.1   0.0084 1.0142 161.5  m  20?   2.60 136.3   62 110  12  96
   2024 04 25 21:40  14 51 34.30    -29 46 38.6   0.0084 1.0142 161.5  m  20?   2.48 136.5   64 111  12  96
   2024 04 25 21:50  14 51 35.58    -29 46 56.2   0.0084 1.0142 161.5  m  20?   2.36 136.6   66 111  12  96
   2024 04 25 22:00  14 51 36.79    -29 47 12.9   0.0084 1.0143 161.5  m  20?   2.25 136.5   68 113  12  96
   2024 04 25 22:10  14 51 37.95    -29 47 28.9   0.0084 1.0143 161.5  m  20?   2.14 136.2   70 114  12  96
   2024 04 25 22:20  14 51 39.07    -29 47 43.9   0.0084 1.0143 161.5  m  20?   2.04 135.7   73 116  12  96
   2024 04 25 22:30  14 51 40.14    -29 47 58.1   0.0084 1.0143 161.5  m  20?   1.94 135.0   75 119  12  96
   2024 04 25 22:40  14 51 41.17    -29 48 11.4   0.0084 1.0143 161.5  m  20?   1.85 134.0   76 123  12  96
   2024 04 25 22:50  14 51 42.18    -29 48 23.8   0.0084 1.0143 161.5  m  20?   1.76 132.7   78 128  13  96
   2024 04 25 23:00  14 51 43.16    -29 48 35.3   0.0084 1.0143 161.5  m  20?   1.68 131.1   80 136  13  96
   2024 04 25 23:10  14 51 44.12    -29 48 45.9   0.0084 1.0143 161.5  m  20?   1.60 129.1   81 147  13  96
   2024 04 25 23:20  14 51 45.07    -29 48 55.6   0.0084 1.0143 161.5  m  20?   1.54 126.7   82 162  13  96
   2024 04 25 23:30  14 51 46.01    -29 49 04.4   0.0084 1.0143 161.5  t  20?   1.48 124.0   83 180  13  96
   2024 04 25 23:40  14 51 46.95    -29 49 12.2   0.0084 1.0143 161.5  m  20?   1.43 120.8   82 198  13  95
   2024 04 25 23:50  14 51 47.90    -29 49 19.1   0.0084 1.0143 161.5  m  20?   1.40 117.4   81 212  13  95
   2024 04 26 00:00  14 51 48.86    -29 49 25.1   0.0084 1.0143 161.5  m  20?   1.38 113.6   80 223  13  95
   2024 04 26 00:10  14 51 49.84    -29 49 30.2   0.0084 1.0143 161.5  m  20?   1.37 109.7   78 231  13  95
   2024 04 26 00:20  14 51 50.85    -29 49 34.4   0.0084 1.0143 161.5  m  20?   1.38 105.6   76 236  13  95
   2024 04 26 00:30  14 51 51.88    -29 49 37.7   0.0084 1.0143 161.5  m  20?   1.40 101.6   75 240  13  95
   2024 04 26 00:40  14 51 52.95    -29 49 40.2   0.0084 1.0143 161.5  m  20?   1.43  97.8   72 243  13  95
   2024 04 26 00:50  14 51 54.06    -29 49 41.7   0.0084 1.0143 161.5  m  20?   1.48  94.2   70 245  13  95
   2024 04 26 01:00  14 51 55.23    -29 49 42.4   0.0084 1.0143 161.5  m  20?   1.55  90.8   68 246  13  95
   2024 04 26 01:10  14 51 56.44    -29 49 42.2   0.0084 1.0143 161.5  m  20?   1.62  87.8   66 247  13  95
   2024 04 26 01:20  14 51 57.71    -29 49 41.2   0.0084 1.0143 161.5  m  20?   1.70  85.2   64 248  13  95
   2024 04 26 01:30  14 51 59.05    -29 49 39.4   0.0084 1.0143 161.5  m  20?   1.80  82.9   62 249  13  95
   2024 04 26 01:40  14 52 00.46    -29 49 36.8   0.0085 1.0143 161.5  m  20?   1.91  80.9   60 249  13  95
   2024 04 26 01:50  14 52 01.95    -29 49 33.5   0.0085 1.0143 161.5  m  20?   2.02  79.2   58 250  13  95
   2024 04 26 02:00  14 52 03.51    -29 49 29.4   0.0085 1.0143 161.5  m  20?   2.14  77.8   55 250  13  95
   2024 04 26 02:10  14 52 05.16    -29 49 24.5   0.0085 1.0143 161.5  m  20?   2.27  76.6   53 250  13  95
   2024 04 26 02:20  14 52 06.90    -29 49 19.0   0.0085 1.0143 161.5  m  20?   2.40  75.7   51 250  13  95
   2024 04 26 02:30  14 52 08.74    -29 49 12.8   0.0085 1.0143 161.5  m  20?   2.54  75.0   49 250  13  95
   2024 04 26 02:40  14 52 10.67    -29 49 05.9   0.0085 1.0143 161.5  m  20?   2.68  74.4   47 250  13  95
   2024 04 26 02:50  14 52 12.71    -29 48 58.5   0.0085 1.0143 161.5  m  20?   2.83  74.0   45 250  13  95
   2024 04 26 03:00  14 52 14.85    -29 48 50.4   0.0085 1.0143 161.5  m  20?   2.98  73.6   42 250  13  95
   2024 04 26 03:10  14 52 17.10    -29 48 41.8   0.0085 1.0143 161.5  m  20?   3.14  73.5   40 249  13  95
   2024 04 26 03:20  14 52 19.47    -29 48 32.7   0.0085 1.0143 161.5  m  20?   3.29  73.3   38 249  13  95
   2024 04 26 03:30  14 52 21.96    -29 48 23.1   0.0085 1.0143 161.5  m  20?   3.46  73.3   36 249  13  95
   2024 04 26 03:40  14 52 24.56    -29 48 13.0   0.0085 1.0143 161.5  m  20?   3.62  73.4   34 248  13  95
   2024 04 26 03:50  14 52 27.29    -29 48 02.5   0.0085 1.0143 161.5  m  20?   3.79  73.5   32 248  13  95
   2024 04 26 04:00  14 52 30.15    -29 47 51.6   0.0085 1.0143 161.5 Am  20?   3.96  73.7   30 247  13  95
   2024 04 26 04:10  14 52 33.13    -29 47 40.4   0.0085 1.0143 161.5 Am  20?   4.13  73.9   27 247  13  95
   2024 04 26 04:20  14 52 36.25    -29 47 28.9   0.0085 1.0143 161.5 Am  20?   4.30  74.1   25 246  13  95
   2024 04 26 04:30  14 52 39.49    -29 47 17.1   0.0085 1.0143 161.5 Nm  20?   4.47  74.4   23 246  14  95
   2024 04 26 04:40  14 52 42.87    -29 47 05.0   0.0085 1.0143 161.5 Nm  20?   4.65  74.8   21 245  14  95
   2024 04 26 04:50  14 52 46.39    -29 46 52.8   0.0085 1.0143 161.5 Cm  20?   4.83  75.1   19 244  14  95
   2024 04 26 05:00  14 52 50.04    -29 46 40.4   0.0085 1.0143 161.5 Cm  20?   5.00  75.5   17 244  14  95
   ................
   2024 04 26 16:40  15 00 02.33    -29 52 43.1   0.0085 1.0145 161.0 C   20?   6.90 113.2    0 122  19  92
   2024 04 26 16:50  15 00 07.13    -29 53 10.5   0.0085 1.0145 161.0 C   20?   6.75 113.9    2 121  19  92
   2024 04 26 17:00  15 00 11.80    -29 53 38.1   0.0085 1.0145 161.0 N   20?   6.59 114.6    4 120  19  92
   2024 04 26 17:10  15 00 16.33    -29 54 05.8   0.0085 1.0145 160.9 N   20?   6.43 115.4    6 120  19  92
   2024 04 26 17:20  15 00 20.73    -29 54 33.6   0.0085 1.0145 160.9 N   20?   6.28 116.2    8 119  19  92
   2024 04 26 17:30  15 00 24.98    -29 55 01.5   0.0085 1.0145 160.9 A   20?   6.12 116.9   10 118  19  92
   2024 04 26 17:40  15 00 29.10    -29 55 29.3   0.0085 1.0145 160.9 A   20?   5.96 117.7   12 117  19  92
   2024 04 26 17:50  15 00 33.08    -29 55 57.2   0.0085 1.0145 160.9     20?   5.80 118.5   14 116  19  92
   2024 04 26 18:00  15 00 36.92    -29 56 25.0   0.0085 1.0145 160.9     20?   5.63 119.3   16 116  19  92
   2024 04 26 18:10  15 00 40.63    -29 56 52.7   0.0085 1.0145 160.9  m  20?   5.47 120.2   18 115  19  92
   2024 04 26 18:20  15 00 44.19    -29 57 20.2   0.0085 1.0145 160.9  m  20?   5.31 121.0   20 114  19  92
   2024 04 26 18:30  15 00 47.63    -29 57 47.6   0.0085 1.0145 160.9  m  20?   5.15 121.8   22 114  19  92
   2024 04 26 18:40  15 00 50.92    -29 58 14.7   0.0085 1.0145 160.9  m  20?   4.99 122.6   24 113  19  91
   2024 04 26 18:50  15 00 54.08    -29 58 41.6   0.0085 1.0145 160.9  m  20?   4.83 123.5   26 113  19  91
   2024 04 26 19:00  15 00 57.11    -29 59 08.2   0.0085 1.0145 160.8  m  20?   4.67 124.3   28 112  20  91
   2024 04 26 19:10  15 01 00.02    -29 59 34.5   0.0085 1.0145 160.8  m  20?   4.52 125.1   30 112  20  91
   2024 04 26 19:20  15 01 02.79    -30 00 00.4   0.0085 1.0145 160.8  m  20?   4.36 126.0   33 111  20  91
   2024 04 26 19:30  15 01 05.44    -30 00 25.9   0.0085 1.0145 160.8  m  20?   4.21 126.8   35 111  20  91
   2024 04 26 19:40  15 01 07.96    -30 00 51.0   0.0085 1.0145 160.8  m  20?   4.05 127.6   37 111  20  91
   2024 04 26 19:50  15 01 10.37    -30 01 15.6   0.0085 1.0145 160.8  m  20?   3.90 128.4   39 110  20  91
   2024 04 26 20:00  15 01 12.66    -30 01 39.7   0.0085 1.0145 160.8  m  20?   3.75 129.2   41 110  20  91
   2024 04 26 20:10  15 01 14.84    -30 02 03.2   0.0085 1.0145 160.8  m  20?   3.61 130.0   43 110  20  91
   2024 04 26 20:20  15 01 16.90    -30 02 26.2   0.0085 1.0145 160.8  m  20?   3.46 130.8   46 109  20  91
   2024 04 26 20:30  15 01 18.87    -30 02 48.6   0.0085 1.0145 160.8  m  20?   3.32 131.5   48 109  20  91
   2024 04 26 20:40  15 01 20.73    -30 03 10.3   0.0085 1.0145 160.8  m  20?   3.18 132.1   50 109  20  91
   2024 04 26 20:50  15 01 22.49    -30 03 31.4   0.0085 1.0145 160.8  m  20?   3.04 132.8   52 109  20  91
   2024 04 26 21:00  15 01 24.16    -30 03 51.8   0.0085 1.0145 160.8  m  20?   2.91 133.3   54 109  20  91
   2024 04 26 21:10  15 01 25.75    -30 04 11.4   0.0085 1.0145 160.8  m  20?   2.78 133.8   56 110  20  91
   2024 04 26 21:20  15 01 27.25    -30 04 30.4   0.0085 1.0145 160.8  m  20?   2.65 134.2   58 110  20  91
   2024 04 26 21:30  15 01 28.67    -30 04 48.5   0.0085 1.0145 160.8  m  20?   2.53 134.5   61 110  20  91
   2024 04 26 21:40  15 01 30.02    -30 05 05.9   0.0085 1.0145 160.8  m  20?   2.41 134.7   63 111  20  91
   2024 04 26 21:50  15 01 31.30    -30 05 22.5   0.0085 1.0145 160.8  m  20?   2.29 134.8   65 112  21  91
   2024 04 26 22:00  15 01 32.52    -30 05 38.3   0.0085 1.0145 160.8  m  20?   2.18 134.7   67 113  21  91
   2024 04 26 22:10  15 01 33.68    -30 05 53.2   0.0085 1.0145 160.8  m  20?   2.07 134.4   69 114  21  91
   2024 04 26 22:20  15 01 34.79    -30 06 07.2   0.0085 1.0145 160.8  m  20?   1.96 133.9   71 116  21  91
   2024 04 26 22:30  15 01 35.85    -30 06 20.4   0.0085 1.0145 160.8  m  20?   1.86 133.1   73 118  21  91
   2024 04 26 22:40  15 01 36.88    -30 06 32.7   0.0085 1.0145 160.8  m  20?   1.76 132.1   75 122  21  91
   2024 04 26 22:50  15 01 37.87    -30 06 44.1   0.0085 1.0145 160.8  m  20?   1.67 130.7   77 126  21  91
   2024 04 26 23:00  15 01 38.83    -30 06 54.6   0.0085 1.0145 160.8  m  20?   1.59 129.0   79 132  21  91
   2024 04 26 23:10  15 01 39.77    -30 07 04.2   0.0085 1.0145 160.8  m  20?   1.52 126.9   80 141  21  91
   2024 04 26 23:20  15 01 40.69    -30 07 12.9   0.0085 1.0145 160.8  m  20?   1.45 124.4   82 153  21  91
   2024 04 26 23:30  15 01 41.61    -30 07 20.7   0.0085 1.0145 160.8  m  20?   1.39 121.5   82 169  21  91
   2024 04 26 23:40  15 01 42.52    -30 07 27.5   0.0085 1.0145 160.8  t  20?   1.34 118.2   82 187  21  90
   2024 04 26 23:50  15 01 43.43    -30 07 33.4   0.0085 1.0145 160.8  m  20?   1.31 114.5   82 203  21  90
   2024 04 27 00:00  15 01 44.36    -30 07 38.4   0.0085 1.0145 160.8  m  20?   1.29 110.5   81 216  21  90
   2024 04 27 00:10  15 01 45.29    -30 07 42.5   0.0085 1.0146 160.8  m  20?   1.28 106.3   79 225  21  90
   2024 04 27 00:20  15 01 46.25    -30 07 45.7   0.0085 1.0146 160.8  m  20?   1.29 102.0   77 232  21  90
   2024 04 27 00:30  15 01 47.23    -30 07 48.0   0.0085 1.0146 160.8  m  20?   1.31  97.9   76 237  21  90
   2024 04 27 00:40  15 01 48.25    -30 07 49.4   0.0085 1.0146 160.8  m  20?   1.35  93.8   74 240  21  90
   2024 04 27 00:50  15 01 49.31    -30 07 49.8   0.0085 1.0146 160.8  m  20?   1.40  90.1   72 243  21  90
   2024 04 27 01:00  15 01 50.41    -30 07 49.5   0.0085 1.0146 160.8  m  20?   1.46  86.7   69 245  21  90
   2024 04 27 01:10  15 01 51.56    -30 07 48.2   0.0085 1.0146 160.8  m  20?   1.54  83.7   67 246  21  90
   2024 04 27 01:20  15 01 52.76    -30 07 46.1   0.0085 1.0146 160.8  m  20?   1.62  81.0   65 247  21  90
   2024 04 27 01:30  15 01 54.03    -30 07 43.2   0.0085 1.0146 160.8  m  20?   1.72  78.8   63 248  21  90
   2024 04 27 01:40  15 01 55.36    -30 07 39.5   0.0085 1.0146 160.8  m  20?   1.82  76.9   61 249  21  90
   2024 04 27 01:50  15 01 56.77    -30 07 35.0   0.0085 1.0146 160.8  m  20?   1.94  75.3   59 249  22  90
   2024 04 27 02:00  15 01 58.25    -30 07 29.8   0.0085 1.0146 160.8  m  20?   2.06  74.0   57 249  22  90
   2024 04 27 02:10  15 01 59.82    -30 07 23.8   0.0085 1.0146 160.8  m  20?   2.18  72.9   55 250  22  90
   2024 04 27 02:20  15 02 01.47    -30 07 17.0   0.0085 1.0146 160.8  m  20?   2.31  72.1   52 250  22  90
   2024 04 27 02:30  15 02 03.22    -30 07 09.6   0.0085 1.0146 160.8  m  20?   2.45  71.5   50 250  22  90
   2024 04 27 02:40  15 02 05.05    -30 07 01.6   0.0085 1.0146 160.8  m  20?   2.59  71.0   48 250  22  90
   2024 04 27 02:50  15 02 07.00    -30 06 52.9   0.0085 1.0146 160.8  m  20?   2.74  70.7   46 249  22  90
   2024 04 27 03:00  15 02 09.04    -30 06 43.5   0.0085 1.0146 160.8  m  20?   2.89  70.5   44 249  22  90
   2024 04 27 03:10  15 02 11.19    -30 06 33.7   0.0085 1.0146 160.8  m  20?   3.04  70.3   42 249  22  90
   2024 04 27 03:20  15 02 13.46    -30 06 23.2   0.0085 1.0146 160.9  m  20?   3.20  70.3   39 249  22  90
   2024 04 27 03:30  15 02 15.84    -30 06 12.3   0.0085 1.0146 160.9  m  20?   3.36  70.4   37 248  22  90
   2024 04 27 03:40  15 02 18.33    -30 06 00.9   0.0085 1.0146 160.9  m  20?   3.52  70.6   35 248  22  90
   2024 04 27 03:50  15 02 20.95    -30 05 49.0   0.0085 1.0146 160.9  m  20?   3.68  70.8   33 248  22  90
   2024 04 27 04:00  15 02 23.70    -30 05 36.8   0.0085 1.0146 160.9 Am  20?   3.85  71.0   31 247  22  90
   2024 04 27 04:10  15 02 26.57    -30 05 24.1   0.0085 1.0146 160.9 Am  20?   4.02  71.3   29 247  22  90
   2024 04 27 04:20  15 02 29.57    -30 05 11.2   0.0085 1.0146 160.9 Am  20?   4.19  71.6   27 246  22  90
   2024 04 27 04:30  15 02 32.70    -30 04 57.9   0.0085 1.0146 160.9 Nm  20?   4.36  72.0   25 246  22  90
   2024 04 27 04:40  15 02 35.96    -30 04 44.4   0.0085 1.0146 160.9 Nm  20?   4.53  72.4   22 245  22  90
   2024 04 27 04:50  15 02 39.36    -30 04 30.7   0.0085 1.0146 160.9 Cm  20?   4.70  72.8   20 245  22  90
   2024 04 27 05:00  15 02 42.89    -30 04 16.8   0.0085 1.0146 160.9 Cm  20?   4.88  73.2   18 244  22  90
   ................
   2024 04 27 16:50  15 09 55.92    -30 08 33.9   0.0086 1.0147 160.3 C   20?   6.71 112.6    1 122  28  86
   2024 04 27 17:00  15 10 00.62    -30 08 59.9   0.0086 1.0147 160.3 N   20?   6.55 113.3    3 121  28  86
   2024 04 27 17:10  15 10 05.19    -30 09 26.0   0.0086 1.0147 160.2 N   20?   6.39 114.0    5 120  28  86
   2024 04 27 17:20  15 10 09.62    -30 09 52.3   0.0086 1.0147 160.2 N   20?   6.24 114.8    7 119  28  86
   2024 04 27 17:30  15 10 13.91    -30 10 18.7   0.0086 1.0147 160.2 A   20?   6.08 115.6    9 119  28  85
   2024 04 27 17:40  15 10 18.06    -30 10 45.1   0.0086 1.0148 160.2 A   20?   5.92 116.3   11 118  29  85
   2024 04 27 17:50  15 10 22.08    -30 11 11.4   0.0086 1.0148 160.2     20?   5.76 117.1   13 117  29  85
   2024 04 27 18:00  15 10 25.95    -30 11 37.8   0.0086 1.0148 160.2     20?   5.59 117.9   15 116  29  85
   2024 04 27 18:10  15 10 29.69    -30 12 04.1   0.0085 1.0148 160.2     20?   5.43 118.7   17 116  29  85
   2024 04 27 18:20  15 10 33.29    -30 12 30.2   0.0085 1.0148 160.2     20?   5.27 119.5   19 115  29  85
   2024 04 27 18:30  15 10 36.76    -30 12 56.2   0.0085 1.0148 160.2     20?   5.11 120.3   21 114  29  85
   2024 04 27 18:40  15 10 40.09    -30 13 22.0   0.0085 1.0148 160.2     20?   4.95 121.1   23 114  29  85
   2024 04 27 18:50  15 10 43.28    -30 13 47.6   0.0085 1.0148 160.2     20?   4.79 121.9   25 113  29  85
   2024 04 27 19:00  15 10 46.35    -30 14 12.9   0.0085 1.0148 160.1  m  20?   4.63 122.8   27 113  29  85
   2024 04 27 19:10  15 10 49.28    -30 14 37.9   0.0085 1.0148 160.1  m  20?   4.47 123.6   29 112  29  85
   2024 04 27 19:20  15 10 52.08    -30 15 02.5   0.0085 1.0148 160.1  m  20?   4.31 124.4   31 112  29  85
   2024 04 27 19:30  15 10 54.76    -30 15 26.8   0.0085 1.0148 160.1  m  20?   4.16 125.2   34 111  29  85
   2024 04 27 19:40  15 10 57.32    -30 15 50.6   0.0085 1.0148 160.1  m  20?   4.00 126.0   36 111  30  85
   2024 04 27 19:50  15 10 59.75    -30 16 14.0   0.0085 1.0148 160.1  m  20?   3.85 126.8   38 111  30  85
   2024 04 27 20:00  15 11 02.06    -30 16 36.9   0.0085 1.0148 160.1  m  20?   3.70 127.6   40 110  30  85
   2024 04 27 20:10  15 11 04.26    -30 16 59.3   0.0085 1.0148 160.1  m  20?   3.55 128.3   42 110  30  85
   2024 04 27 20:20  15 11 06.35    -30 17 21.1   0.0085 1.0148 160.1  m  20?   3.40 129.1   44 110  30  84
   2024 04 27 20:30  15 11 08.34    -30 17 42.3   0.0085 1.0148 160.1  m  20?   3.26 129.8   46 110  30  84
   2024 04 27 20:40  15 11 10.21    -30 18 02.9   0.0085 1.0148 160.1  m  20?   3.12 130.4   49 110  30  84
   2024 04 27 20:50  15 11 11.99    -30 18 22.9   0.0085 1.0148 160.1  m  20?   2.98 131.1   51 110  30  84
   2024 04 27 21:00  15 11 13.68    -30 18 42.2   0.0085 1.0148 160.1  m  20?   2.84 131.6   53 110  30  84
   2024 04 27 21:10  15 11 15.27    -30 19 00.8   0.0085 1.0148 160.1  m  20?   2.71 132.1   55 110  30  84
   2024 04 27 21:20  15 11 16.78    -30 19 18.7   0.0085 1.0148 160.1  m  20?   2.58 132.5   57 110  30  84
   2024 04 27 21:30  15 11 18.20    -30 19 35.8   0.0085 1.0148 160.1  m  20?   2.45 132.8   59 110  30  84
   2024 04 27 21:40  15 11 19.55    -30 19 52.1   0.0085 1.0148 160.1  m  20?   2.33 133.0   61 111  30  84
   2024 04 27 21:50  15 11 20.83    -30 20 07.7   0.0085 1.0148 160.1  m  20?   2.21 133.0   64 112  30  84
   2024 04 27 22:00  15 11 22.04    -30 20 22.4   0.0085 1.0148 160.1  m  20?   2.10 132.9   66 113  30  84
   2024 04 27 22:10  15 11 23.20    -30 20 36.3   0.0085 1.0148 160.1  m  20?   1.98 132.6   68 114  31  84
   2024 04 27 22:20  15 11 24.30    -30 20 49.3   0.0085 1.0148 160.1  m  20?   1.88 132.1   70 115  31  84
   2024 04 27 22:30  15 11 25.35    -30 21 01.5   0.0085 1.0148 160.1  m  20?   1.77 131.3   72 118  31  84
   2024 04 27 22:40  15 11 26.35    -30 21 12.8   0.0085 1.0148 160.1  m  20?   1.68 130.2   74 120  31  84
   2024 04 27 22:50  15 11 27.32    -30 21 23.2   0.0085 1.0148 160.1  m  20?   1.59 128.8   76 124  31  84
   2024 04 27 23:00  15 11 28.26    -30 21 32.7   0.0085 1.0148 160.1  m  20?   1.50 127.0   78 129  31  84
   2024 04 27 23:10  15 11 29.17    -30 21 41.4   0.0085 1.0148 160.1  m  20?   1.42 124.8   79 137  31  84
   2024 04 27 23:20  15 11 30.06    -30 21 49.0   0.0085 1.0148 160.1  m  20?   1.35 122.1   81 147  31  84
   2024 04 27 23:30  15 11 30.94    -30 21 55.8   0.0085 1.0148 160.1  m  20?   1.30 119.0   82 160  31  84
   2024 04 27 23:40  15 11 31.82    -30 22 01.7   0.0085 1.0148 160.1  m  20?   1.25 115.4   82 176  31  84
   2024 04 27 23:50  15 11 32.69    -30 22 06.6   0.0085 1.0148 160.1  t  20?   1.21 111.4   82 193  31  84
   2024 04 28 00:00  15 11 33.56    -30 22 10.6   0.0085 1.0148 160.1  m  20?   1.19 107.1   81 208  31  84
   

CAPSTONE (JPL-ID: -1176)

   Date (UTC) HH:MM   RA              Dec         delta   r     elong SM  mag  '/hr    PA   alt  az moo ill
   ---- -- -- -----  -------------   -----------  ------ ------ ----- --  --- ------ ------ --- --- --- ---
   2024 04 14 16:50  06 44 25.94    +26 20 07.9   390509 1.0025  75.0 Cm  16?  26.97  59.1   39 347   3  38
   2024 04 14 17:00  06 44 43.21    +26 22 26.5   390527 1.0025  75.1 Cm  16?  27.11  59.6   38 344   3  39
   2024 04 14 17:10  06 45 00.68    +26 24 43.7   390554 1.0025  75.2 Nm  16?  27.27  60.1   38 342   3  39
   2024 04 14 17:20  06 45 18.36    +26 26 59.6   390589 1.0025  75.2 Nm  16?  27.47  60.6   37 339   3  39
   2024 04 14 17:30  06 45 36.29    +26 29 14.3   390634 1.0025  75.3 Nm  16?  27.70  61.2   36 337   3  39
   2024 04 14 17:40  06 45 54.47    +26 31 27.7   390686 1.0025  75.3 Am  16?  27.95  61.8   35 334   3  39
   2024 04 14 17:50  06 46 12.94    +26 33 40.1   390748 1.0025  75.4 Am  16?  28.24  62.3   34 332   3  39
   2024 04 14 18:00  06 46 31.70    +26 35 51.3   390817 1.0025  75.5  m  16?  28.55  62.9   33 330   3  39
   2024 04 14 18:10  06 46 50.79    +26 38 01.6   390894 1.0026  75.5  m  16?  28.90  63.5   32 327   3  39
   2024 04 14 18:20  06 47 10.22    +26 40 11.0   390980 1.0026  75.6  m  16?  29.27  64.0   30 325   3  39
   2024 04 14 18:30  06 47 30.00    +26 42 19.5   391073 1.0026  75.6  m  16?  29.68  64.6   29 323   3  39
   2024 04 14 18:40  06 47 50.17    +26 44 27.3   391173 1.0026  75.7  m  16?  30.11  65.1   28 321   3  39
   2024 04 14 18:50  06 48 10.75    +26 46 34.5   391280 1.0026  75.8  m  16?  30.58  65.6   26 320   3  39
   2024 04 14 19:00  06 48 31.74    +26 48 41.1   391394 1.0026  75.8  m  16?  31.08  66.2   25 318   3  39
   2024 04 14 19:10  06 48 53.17    +26 50 47.3   391515 1.0026  75.9  m  16?  31.61  66.7   23 316   3  39
   2024 04 14 19:20  06 49 15.07    +26 52 53.2   391642 1.0026  76.0  m  16?  32.17  67.1   22 315   3  39
   2024 04 14 19:30  06 49 37.44    +26 54 58.8   391774 1.0026  76.1  m  16?  32.76  67.6   20 313   2  39
   2024 04 14 19:40  06 50 00.32    +26 57 04.4   391913 1.0026  76.1  m  16?  33.38  68.1   19 312   2  39
   2024 04 14 19:50  06 50 23.71    +26 59 10.0   392057 1.0026  76.2  m  16?  34.03  68.5   17 310   2  39
   2024 04 14 20:00  06 50 47.65    +27 01 15.8   392205 1.0026  76.3  m  16?  34.72  68.9   15 309   2  39
   2024 04 14 20:10  06 51 12.14    +27 03 21.9   392359 1.0026  76.4  m  16?  35.43  69.3   13 308   2  39
   2024 04 14 20:20  06 51 37.22    +27 05 28.4   392517 1.0026  76.5  m  16?  36.18  69.6   12 306   2  39
   2024 04 14 20:30  06 52 02.89    +27 07 35.5   392678 1.0026  76.5  m  16?  36.96  70.0   10 305   2  39
   2024 04 14 20:40  06 52 29.19    +27 09 43.4   392843 1.0026  76.6  m  16?  37.77  70.3    8 304   2  40
   2024 04 14 20:50  06 52 56.14    +27 11 52.1   393012 1.0027  76.7  m  16?  38.61  70.6    6 303   2  40
   2024 04 14 21:00  06 53 23.75    +27 14 01.9   393183 1.0027  76.8  m  16?  39.49  70.9    4 302   2  40
   2024 04 14 21:10  06 53 52.05    +27 16 13.0   393357 1.0027  76.9  m  16?  40.41  71.1    2 301   2  40
   2024 04 14 21:20  06 54 21.06    +27 18 25.3   393533 1.0027  77.0  m  16?  41.36  71.4    1 300   2  40
   ................
   2024 04 15 16:50  07 57 43.56    +22 20 21.9   396991 1.0035  91.1 Cm  16?  24.47 140.4   44   8   5  49
   2024 04 15 17:00  07 57 54.79    +22 17 12.9   397065 1.0035  91.2 Cm  16?  24.52 140.8   44   5   5  49
   2024 04 15 17:10  07 58 05.96    +22 14 02.5   397149 1.0035  91.2 Nm  16?  24.59 141.1   44   2   5  49
   2024 04 15 17:20  07 58 17.09    +22 10 50.6   397243 1.0035  91.3 Nt  16?  24.68 141.4   44 358   5  49
   2024 04 15 17:30  07 58 28.19    +22 07 37.3   397346 1.0035  91.3 Ae  16?  24.78 141.6   44 355   5  49
   2024 04 15 17:40  07 58 39.29    +22 04 22.6   397459 1.0035  91.4 Am  16?  24.90 141.8   44 352   5  49
   2024 04 15 17:50  07 58 50.39    +22 01 06.4   397582 1.0035  91.4 Am  16?  25.03 141.9   44 349   5  49
   2024 04 15 18:00  07 59 01.53    +21 57 48.9   397715 1.0035  91.5  m  16?  25.18 142.0   43 346   5  49
   2024 04 15 18:10  07 59 12.72    +21 54 30.0   397857 1.0035  91.5  m  16?  25.33 142.0   43 343   5  49
   2024 04 15 18:20  07 59 23.97    +21 51 09.8   398009 1.0036  91.5  m  16?  25.51 142.0   42 340   5  49
   2024 04 15 18:30  07 59 35.30    +21 47 48.2   398170 1.0036  91.6  m  16?  25.69 142.0   41 337   5  49
   2024 04 15 18:40  07 59 46.73    +21 44 25.4   398341 1.0036  91.6  m  16?  25.88 141.9   40 334   5  49
   2024 04 15 18:50  07 59 58.28    +21 41 01.4   398521 1.0036  91.7  m  16?  26.09 141.7   39 331   5  49
   2024 04 15 19:00  08 00 09.95    +21 37 36.2   398711 1.0036  91.7  m  16?  26.30 141.6   38 329   5  49
   2024 04 15 19:10  08 00 21.77    +21 34 09.9   398909 1.0036  91.8  m  16?  26.53 141.3   37 326   5  49
   2024 04 15 19:20  08 00 33.75    +21 30 42.4   399116 1.0036  91.8  m  16?  26.76 141.1   36 324   5  49
   2024 04 15 19:30  08 00 45.91    +21 27 13.9   399331 1.0036  91.9  m  16?  27.01 140.8   35 321   5  49
   2024 04 15 19:40  08 00 58.26    +21 23 44.4   399555 1.0036  91.9  m  16?  27.26 140.4   33 319   5  49
   2024 04 15 19:50  08 01 10.81    +21 20 14.0   399787 1.0036  92.0  m  16?  27.52 140.1   32 317   5  49
   2024 04 15 20:00  08 01 23.58    +21 16 42.8   400027 1.0036  92.0  m  16?  27.79 139.7   30 315   5  49
   2024 04 15 20:10  08 01 36.58    +21 13 10.7   400274 1.0036  92.1  m  16?  28.07 139.3   29 313   5  49
   2024 04 15 20:20  08 01 49.83    +21 09 37.9   400529 1.0036  92.2  m  16?  28.36 138.8   27 311   6  49
   2024 04 15 20:30  08 02 03.33    +21 06 04.4   400791 1.0036  92.2  m  16?  28.65 138.3   25 310   6  50
   2024 04 15 20:40  08 02 17.10    +21 02 30.3   401059 1.0036  92.3  m  16?  28.96 137.8   24 308   6  50
   2024 04 15 20:50  08 02 31.14    +20 58 55.6   401334 1.0036  92.3  m  16?  29.26 137.3   22 306   6  50
   2024 04 15 21:00  08 02 45.47    +20 55 20.5   401615 1.0036  92.4  m  16?  29.58 136.8   20 305   6  50
   2024 04 15 21:10  08 03 00.09    +20 51 45.1   401902 1.0036  92.4  m  16?  29.90 136.2   18 303   6  50
   2024 04 15 21:20  08 03 15.02    +20 48 09.3   402194 1.0037  92.5  m  16?  30.23 135.7   17 302   6  50
   2024 04 15 21:30  08 03 30.26    +20 44 33.2   402491 1.0037  92.6  m  16?  30.56 135.1   15 300   6  50
   2024 04 15 21:40  08 03 45.82    +20 40 57.0   402793 1.0037  92.6  m  16?  30.90 134.5   13 299   6  50
   2024 04 15 21:50  08 04 01.71    +20 37 20.7   403099 1.0037  92.7  m  16?  31.24 133.9   11 298   6  50
   2024 04 15 22:00  08 04 17.93    +20 33 44.4   403409 1.0037  92.8  m  16?  31.58 133.3    9 297   6  50
   2024 04 15 22:10  08 04 34.49    +20 30 08.2   403723 1.0037  92.8  m  16?  31.93 132.7    7 296   6  50
   2024 04 15 22:20  08 04 51.38    +20 26 32.1   404039 1.0037  92.9  m  16?  32.28 132.1    5 294   6  50
   2024 04 15 22:30  08 05 08.63    +20 22 56.2   404359 1.0037  93.0  m  16?  32.64 131.5    3 293   6  50
   2024 04 15 22:40  08 05 26.22    +20 19 20.6   404680 1.0037  93.1  m  16?  32.99 130.8    1 292   6  50
   ................
   2024 04 16 16:50  08 42 57.28    +15 50 34.6   409480 1.0043 102.0 Cm  16?  18.41 135.4   47  24   8  58
   2024 04 16 17:00  08 43 06.20    +15 48 23.1   409487 1.0043 102.1 Cm  16?  18.39 136.0   48  21   8  59
   2024 04 16 17:10  08 43 15.01    +15 46 10.3   409504 1.0043 102.1 Nm  16?  18.39 136.6   49  17   8  59
   2024 04 16 17:20  08 43 23.73    +15 43 56.3   409531 1.0043 102.1 Nm  16?  18.41 137.1   50  14   8  59
   2024 04 16 17:30  08 43 32.39    +15 41 41.0   409568 1.0043 102.2 Am  16?  18.44 137.5   50  10   8  59
   2024 04 16 17:40  08 43 41.00    +15 39 24.4   409615 1.0043 102.2 Am  16?  18.49 137.9   50   6   8  59
   2024 04 16 17:50  08 43 49.57    +15 37 06.6   409672 1.0043 102.2 Am  16?  18.56 138.3   51   3   8  59
   2024 04 16 18:00  08 43 58.12    +15 34 47.5   409739 1.0043 102.3  t  16?  18.64 138.6   51 359   8  59
   2024 04 16 18:10  08 44 06.67    +15 32 27.2   409816 1.0043 102.3  e  16?  18.74 138.8   51 355   8  59
   2024 04 16 18:20  08 44 15.23    +15 30 05.7   409904 1.0043 102.4  m  16?  18.86 139.0   50 351   8  59
   2024 04 16 18:30  08 44 23.83    +15 27 43.0   410002 1.0043 102.4  m  16?  18.99 139.1   50 348   8  59
   2024 04 16 18:40  08 44 32.47    +15 25 19.1   410109 1.0043 102.4  m  16?  19.13 139.1   50 344   8  59
   2024 04 16 18:50  08 44 41.17    +15 22 54.0   410227 1.0044 102.5  m  16?  19.29 139.1   49 340   8  59
   2024 04 16 19:00  08 44 49.95    +15 20 27.8   410355 1.0044 102.5  m  16?  19.46 139.0   48 337   8  59
   2024 04 16 19:10  08 44 58.83    +15 18 00.4   410493 1.0044 102.5  m  16?  19.64 138.9   47 334   8  59
   2024 04 16 19:20  08 45 07.81    +15 15 32.0   410640 1.0044 102.6  m  16?  19.83 138.7   46 330   8  59
   2024 04 16 19:30  08 45 16.93    +15 13 02.5   410797 1.0044 102.6  m  16?  20.04 138.5   45 327   8  59
   2024 04 16 19:40  08 45 26.18    +15 10 32.0   410963 1.0044 102.7  m  16?  20.26 138.3   44 324   8  59
   2024 04 16 19:50  08 45 35.59    +15 08 00.5   411139 1.0044 102.7  m  16?  20.49 137.9   43 322   8  59
   2024 04 16 20:00  08 45 45.16    +15 05 28.0   411323 1.0044 102.7  m  16?  20.73 137.6   41 319   8  59
   2024 04 16 20:10  08 45 54.92    +15 02 54.6   411517 1.0044 102.8  m  16?  20.99 137.2   40 317   8  59
   2024 04 16 20:20  08 46 04.88    +15 00 20.4   411719 1.0044 102.8  m  16?  21.25 136.8   38 314   8  59
   2024 04 16 20:30  08 46 15.05    +14 57 45.3   411929 1.0044 102.9  m  16?  21.53 136.3   37 312   8  59
   2024 04 16 20:40  08 46 25.44    +14 55 09.5   412147 1.0044 102.9  m  16?  21.81 135.8   35 310   8  59
   2024 04 16 20:50  08 46 36.06    +14 52 32.9   412374 1.0044 103.0  m  16?  22.11 135.3   33 308   8  59
   2024 04 16 21:00  08 46 46.93    +14 49 55.7   412607 1.0044 103.0  m  16?  22.42 134.7   32 306   8  59
   2024 04 16 21:10  08 46 58.06    +14 47 17.8   412848 1.0044 103.0  m  16?  22.74 134.1   30 304   8  60
   2024 04 16 21:20  08 47 09.46    +14 44 39.4   413096 1.0044 103.1  m  16?  23.06 133.5   28 302   8  60
   2024 04 16 21:30  08 47 21.13    +14 42 00.4   413351 1.0044 103.1  m  16?  23.40 132.9   26 301   8  60
   2024 04 16 21:40  08 47 33.10    +14 39 20.9   413611 1.0044 103.2  m  16?  23.74 132.3   24 299   8  60
   2024 04 16 21:50  08 47 45.35    +14 36 41.1   413878 1.0044 103.3  m  16?  24.10 131.7   22 298   8  60
   2024 04 16 22:00  08 47 57.92    +14 34 00.8   414150 1.0045 103.3  m  16?  24.46 131.0   20 296   8  60
   2024 04 16 22:10  08 48 10.79    +14 31 20.3   414427 1.0045 103.4  m  16?  24.83 130.4   18 295   8  60
   2024 04 16 22:20  08 48 23.98    +14 28 39.5   414709 1.0045 103.4  m  16?  25.20 129.7   16 294   8  60
   2024 04 16 22:30  08 48 37.50    +14 25 58.5   414995 1.0045 103.5  m  16?  25.58 129.1   14 292   8  60
   2024 04 16 22:40  08 48 51.35    +14 23 17.4   415285 1.0045 103.5  m  16?  25.97 128.4   12 291   8  60
   2024 04 16 22:50  08 49 05.54    +14 20 36.2   415579 1.0045 103.6  m  16?  26.37 127.8   10 290   8  60
   2024 04 16 23:00  08 49 20.06    +14 17 54.9   415875 1.0045 103.7  m  16?  26.76 127.1    8 289   8  60
   2024 04 16 23:10  08 49 34.93    +14 15 13.7   416175 1.0045 103.7  m  16?  27.17 126.4    6 288   8  60
   2024 04 16 23:20  08 49 50.15    +14 12 32.6   416476 1.0045 103.8  m  16?  27.57 125.8    4 287   8  60
   2024 04 16 23:30  08 50 05.72    +14 09 51.6   416780 1.0045 103.8  m  16?  27.98 125.2    1 286   8  60
   2024 04 16 23:40  08 50 21.63    +14 07 10.8   417084 1.0045 103.9     16?  28.39 124.5    0 285   8  60
   ................
   2024 04 17 16:50  09 23 30.21    +10 43 53.5   417865 1.0050 111.9 Cm  16?  16.71 129.7   47  39   9  68
   2024 04 17 17:00  09 23 38.87    +10 42 06.6   417801 1.0050 112.0 Cm  16?  16.59 130.4   49  36   9  68
   2024 04 17 17:10  09 23 47.38    +10 40 18.8   417746 1.0050 112.0 Nm  16?  16.49 131.0   50  33   9  68
   2024 04 17 17:20  09 23 55.75    +10 38 30.3   417701 1.0050 112.0 Nm  16?  16.40 131.7   51  30   9  68
   2024 04 17 17:30  09 24 04.01    +10 36 40.8   417665 1.0051 112.1 Am  16?  16.34 132.3   52  26   9  68
   2024 04 17 17:40  09 24 12.17    +10 34 50.6   417640 1.0051 112.1 Am  16?  16.30 132.8   53  23   9  68
   2024 04 17 17:50  09 24 20.24    +10 32 59.5   417624 1.0051 112.1 Am  16?  16.27 133.3   54  19   9  68
   2024 04 17 18:00  09 24 28.24    +10 31 07.5   417619 1.0051 112.2  m  16?  16.26 133.8   55  15   9  68
   2024 04 17 18:10  09 24 36.18    +10 29 14.7   417624 1.0051 112.2  m  16?  16.27 134.1   55  11   9  68
   2024 04 17 18:20  09 24 44.09    +10 27 21.1   417640 1.0051 112.2  m  16?  16.29 134.5   56   6   9  68
   2024 04 17 18:30  09 24 51.97    +10 25 26.7   417665 1.0051 112.3  m  16?  16.34 134.7   56   2   9  68
   2024 04 17 18:40  09 24 59.84    +10 23 31.4   417701 1.0051 112.3  t  16?  16.40 134.9   56 357  10  68
   2024 04 17 18:50  09 25 07.72    +10 21 35.3   417748 1.0051 112.3  m  16?  16.47 135.1   56 353  10  68
   2024 04 17 19:00  09 25 15.62    +10 19 38.4   417805 1.0051 112.4  m  16?  16.56 135.1   56 349  10  68
   2024 04 17 19:10  09 25 23.57    +10 17 40.6   417872 1.0051 112.4  m  16?  16.67 135.2   55 344  10  68
   2024 04 17 19:20  09 25 31.57    +10 15 42.2   417949 1.0051 112.4  m  16?  16.79 135.1   54 340  10  68
   2024 04 17 19:30  09 25 39.63    +10 13 42.9   418037 1.0051 112.5  m  16?  16.92 135.0   54 336  10  68
   2024 04 17 19:40  09 25 47.79    +10 11 42.9   418135 1.0051 112.5  m  16?  17.07 134.9   53 333  10  68
   2024 04 17 19:50  09 25 56.04    +10 09 42.2   418243 1.0051 112.5  m  16?  17.24 134.7   52 329  10  68
   2024 04 17 20:00  09 26 04.42    +10 07 40.8   418360 1.0051 112.6  m  16?  17.42 134.4   50 326  10  68
   2024 04 17 20:10  09 26 12.92    +10 05 38.7   418488 1.0051 112.6  m  16?  17.61 134.1   49 322  10  69
   2024 04 17 20:20  09 26 21.57    +10 03 35.9   418624 1.0051 112.6  m  16?  17.82 133.7   48 319  10  69
   2024 04 17 20:30  09 26 30.37    +10 01 32.6   418771 1.0051 112.7  m  16?  18.04 133.3   46 316  10  69
   2024 04 17 20:40  09 26 39.35    +09 59 28.6   418926 1.0051 112.7  m  16?  18.28 132.9   45 314  10  69
   2024 04 17 20:50  09 26 48.52    +09 57 24.0   419090 1.0052 112.8  m  16?  18.53 132.4   43 311  10  69
   2024 04 17 21:00  09 26 57.89    +09 55 18.9   419263 1.0052 112.8  m  16?  18.79 131.9   41 309  10  69
   2024 04 17 21:10  09 27 07.47    +09 53 13.3   419445 1.0052 112.8  m  16?  19.06 131.4   40 307  10  69
   2024 04 17 21:20  09 27 17.27    +09 51 07.2   419634 1.0052 112.9  m  16?  19.35 130.8   38 305  10  69
   2024 04 17 21:30  09 27 27.31    +09 49 00.7   419831 1.0052 112.9  m  16?  19.65 130.2   36 303  10  69
   2024 04 17 21:40  09 27 37.60    +09 46 53.7   420036 1.0052 113.0  m  16?  19.97 129.6   34 301  10  69
   2024 04 17 21:50  09 27 48.14    +09 44 46.4   420248 1.0052 113.0  m  16?  20.29 129.0   32 299  10  69
   2024 04 17 22:00  09 27 58.95    +09 42 38.7   420467 1.0052 113.1  m  16?  20.63 128.3   30 297  10  69
   2024 04 17 22:10  09 28 10.04    +09 40 30.7   420693 1.0052 113.1  m  16?  20.98 127.7   28 296  10  69
   2024 04 17 22:20  09 28 21.42    +09 38 22.5   420924 1.0052 113.1  m  16?  21.33 127.0   26 294  10  69
   2024 04 17 22:30  09 28 33.09    +09 36 14.0   421162 1.0052 113.2  m  16?  21.70 126.4   24 293  10  69
   2024 04 17 22:40  09 28 45.06    +09 34 05.3   421404 1.0052 113.2  m  16?  22.08 125.7   22 291  10  69
   2024 04 17 22:50  09 28 57.35    +09 31 56.5   421652 1.0052 113.3  m  16?  22.47 125.0   20 290  10  69
   2024 04 17 23:00  09 29 09.95    +09 29 47.5   421905 1.0052 113.3  m  16?  22.87 124.4   18 289  10  69
   2024 04 17 23:10  09 29 22.87    +09 27 38.4   422161 1.0052 113.4  m  16?  23.27 123.7   16 287  10  69
   2024 04 17 23:20  09 29 36.13    +09 25 29.3   422422 1.0052 113.5  m  16?  23.68 123.1   14 286  10  69
   2024 04 17 23:30  09 29 49.71    +09 23 20.2   422686 1.0052 113.5  m  16?  24.10 122.4   11 285  10  69
   2024 04 17 23:40  09 30 03.64    +09 21 11.1   422953 1.0052 113.6  m  16?  24.53 121.8    9 284   9  69
   2024 04 17 23:50  09 30 17.90    +09 19 02.1   423222 1.0052 113.6  m  16?  24.96 121.2    7 283   9  70
   2024 04 18 00:00  09 30 32.51    +09 16 53.2   423493 1.0052 113.7  m  16?  25.39 120.5    5 282   9  70
   2024 04 18 00:10  09 30 47.46    +09 14 44.4   423766 1.0053 113.8  m  16?  25.83 119.9    3 281   9  70
   2024 04 18 00:20  09 31 02.76    +09 12 35.8   424041 1.0053 113.8  m  16?  26.27 119.3    1 280   9  70
   ................
   2024 04 18 16:50  10 02 45.16    +06 25 45.9   421377 1.0057 121.5 Cm  17?  16.82 122.9   44  53  10  76
   2024 04 18 17:00  10 02 54.54    +06 24 14.5   421243 1.0057 121.5 Cm  17?  16.60 123.5   46  50  10  76
   2024 04 18 17:10  10 03 03.74    +06 22 42.7   421117 1.0057 121.6 Nm  17?  16.40 124.2   48  48  10  76
   2024 04 18 17:20  10 03 12.76    +06 21 10.4   421000 1.0057 121.6 Nm  17?  16.22 124.8   50  45  10  76
   2024 04 18 17:30  10 03 21.62    +06 19 37.6   420893 1.0058 121.6 Am  17?  16.06 125.4   51  42  10  77
   2024 04 18 17:40  10 03 30.33    +06 18 04.4   420795 1.0058 121.7 Am  17?  15.92 126.0   53  39  10  77
   2024 04 18 17:50  10 03 38.91    +06 16 30.8   420707 1.0058 121.7 Am  17?  15.79 126.5   54  36  10  77
   2024 04 18 18:00  10 03 47.37    +06 14 56.7   420628 1.0058 121.7  m  17?  15.69 127.0   55  32  10  77
   2024 04 18 18:10  10 03 55.73    +06 13 22.1   420560 1.0058 121.8  m  17?  15.60 127.4   57  28  10  77
   2024 04 18 18:20  10 04 03.99    +06 11 47.1   420501 1.0058 121.8  m  17?  15.53 127.9   58  24  10  77
   2024 04 18 18:30  10 04 12.18    +06 10 11.6   420453 1.0058 121.8  m  17?  15.48 128.2   59  19  10  77
   2024 04 18 18:40  10 04 20.31    +06 08 35.6   420416 1.0058 121.9  m  17?  15.45 128.5   59  15  10  77
   2024 04 18 18:50  10 04 28.40    +06 06 59.2   420388 1.0058 121.9  m  17?  15.43 128.8   60  10  10  77
   2024 04 18 19:00  10 04 36.46    +06 05 22.4   420371 1.0058 121.9  m  17?  15.44 129.0   60   5  10  77
   2024 04 18 19:10  10 04 44.50    +06 03 45.1   420365 1.0058 122.0  m  17?  15.46 129.1   60   0  10  77
   2024 04 18 19:20  10 04 52.55    +06 02 07.3   420369 1.0058 122.0  t  17?  15.50 129.2   60 355  10  77
   2024 04 18 19:30  10 05 00.61    +06 00 29.2   420383 1.0058 122.0  m  17?  15.56 129.2   60 350  10  77
   2024 04 18 19:40  10 05 08.71    +05 58 50.6   420408 1.0058 122.1  m  17?  15.63 129.2   60 345  10  77
   2024 04 18 19:50  10 05 16.86    +05 57 11.7   420444 1.0058 122.1  m  17?  15.72 129.1   59 340  10  77
   2024 04 18 20:00  10 05 25.08    +05 55 32.3   420490 1.0058 122.1  m  17?  15.83 129.0   58 336  10  77
   2024 04 18 20:10  10 05 33.37    +05 53 52.5   420546 1.0058 122.2  m  17?  15.96 128.8   57 332  10  77
   2024 04 18 20:20  10 05 41.76    +05 52 12.4   420612 1.0058 122.2  m  17?  16.10 128.6   56 328  10  77
   2024 04 18 20:30  10 05 50.25    +05 50 31.9   420688 1.0058 122.2  m  17?  16.26 128.3   55 324  10  77
   2024 04 18 20:40  10 05 58.88    +05 48 51.1   420774 1.0058 122.3  m  17?  16.44 127.9   53 320  10  77
   2024 04 18 20:50  10 06 07.64    +05 47 10.0   420870 1.0058 122.3  m  17?  16.63 127.6   52 317  10  77
   2024 04 18 21:00  10 06 16.55    +05 45 28.5   420975 1.0058 122.3  m  17?  16.84 127.1   50 314  10  77
   2024 04 18 21:10  10 06 25.63    +05 43 46.8   421090 1.0059 122.4  m  17?  17.06 126.7   49 311  10  77
   2024 04 18 21:20  10 06 34.89    +05 42 04.8   421214 1.0059 122.4  m  17?  17.30 126.2   47 308  10  77
   2024 04 18 21:30  10 06 44.35    +05 40 22.5   421347 1.0059 122.5  m  17?  17.56 125.7   45 306   9  77
   2024 04 18 21:40  10 06 54.01    +05 38 40.0   421488 1.0059 122.5  m  17?  17.83 125.2   43 304   9  77
   2024 04 18 21:50  10 07 03.89    +05 36 57.3   421638 1.0059 122.5  m  17?  18.12 124.6   42 301   9  77
   2024 04 18 22:00  10 07 14.00    +05 35 14.4   421795 1.0059 122.6  m  17?  18.42 124.0   40 299   9  77
   2024 04 18 22:10  10 07 24.35    +05 33 31.3   421961 1.0059 122.6  m  17?  18.74 123.4   38 297   9  77
   2024 04 18 22:20  10 07 34.95    +05 31 48.0   422134 1.0059 122.7  m  17?  19.07 122.8   36 296   9  77
   2024 04 18 22:30  10 07 45.82    +05 30 04.7   422314 1.0059 122.7  m  17?  19.41 122.2   34 294   9  78
   2024 04 18 22:40  10 07 56.96    +05 28 21.2   422501 1.0059 122.8  m  17?  19.77 121.6   32 292   9  78
   2024 04 18 22:50  10 08 08.38    +05 26 37.6   422694 1.0059 122.8  m  17?  20.14 121.0   30 291   9  78
   2024 04 18 23:00  10 08 20.09    +05 24 54.0   422893 1.0059 122.8  m  17?  20.52 120.4   27 289   9  78
   2024 04 18 23:10  10 08 32.10    +05 23 10.3   423098 1.0059 122.9  m  17?  20.92 119.7   25 288   9  78
   2024 04 18 23:20  10 08 44.42    +05 21 26.6   423309 1.0059 122.9  m  17?  21.32 119.1   23 287   9  78
   2024 04 18 23:30  10 08 57.05    +05 19 42.9   423524 1.0059 123.0  m  17?  21.74 118.5   21 286   9  78
   2024 04 18 23:40  10 09 10.00    +05 17 59.2   423743 1.0059 123.1  m  17?  22.16 117.9   19 284   9  78
   2024 04 18 23:50  10 09 23.28    +05 16 15.6   423967 1.0059 123.1  m  17?  22.59 117.3   17 283   9  78
   2024 04 19 00:00  10 09 36.89    +05 14 32.0   424194 1.0059 123.2  m  17?  23.04 116.7   15 282   9  78
   2024 04 19 00:10  10 09 50.83    +05 12 48.5   424425 1.0059 123.2  m  17?  23.48 116.1   12 281   9  78
   2024 04 19 00:20  10 10 05.12    +05 11 05.1   424658 1.0059 123.3  m  17?  23.94 115.6   10 280   9  78
   2024 04 19 00:30  10 10 19.74    +05 09 21.9   424894 1.0059 123.3  m  17?  24.40 115.0    8 279   9  78
   2024 04 19 00:40  10 10 34.72    +05 07 38.8   425131 1.0059 123.4  m  17?  24.86 114.5    6 278   9  78
   2024 04 19 00:50  10 10 50.04    +05 05 55.8   425370 1.0060 123.5  m  17?  25.33 114.0    4 277   9  78
   2024 04 19 01:00  10 11 05.71    +05 04 13.1   425610 1.0060 123.5  m  17?  25.80 113.5    1 276   9  78
   2024 04 19 01:10  10 11 21.73    +05 02 30.6   425850 1.0060 123.6  m  17?  26.28 113.0    0 275   9  78
   ................
   2024 04 19 16:50  10 42 56.93    +02 48 42.1   419900 1.0064 131.1 Cm  17?  18.49 114.8   39  64   9  84
   2024 04 19 17:00  10 43 08.02    +02 47 24.6   419699 1.0064 131.2 Cm  17?  18.18 115.2   42  62   9  84
   2024 04 19 17:10  10 43 18.88    +02 46 07.0   419506 1.0064 131.2 Nm  17?  17.89 115.7   44  60   9  84
   2024 04 19 17:20  10 43 29.53    +02 44 49.3   419321 1.0064 131.3 Nm  17?  17.61 116.2   46  58   9  84
   2024 04 19 17:30  10 43 39.97    +02 43 31.5   419144 1.0064 131.3 Am  17?  17.35 116.7   47  56   9  84
   2024 04 19 17:40  10 43 50.23    +02 42 13.5   418975 1.0064 131.4 Am  17?  17.11 117.1   49  54   9  84
   2024 04 19 17:50  10 44 00.30    +02 40 55.5   418816 1.0064 131.4 Am  17?  16.89 117.6   51  51   9  84
   2024 04 19 18:00  10 44 10.22    +02 39 37.3   418666 1.0064 131.4  m  17?  16.68 118.0   53  48   9  84
   2024 04 19 18:10  10 44 19.98    +02 38 19.0   418525 1.0064 131.5  m  17?  16.50 118.3   55  45   9  84
   2024 04 19 18:20  10 44 29.60    +02 37 00.6   418394 1.0064 131.5  m  17?  16.33 118.7   56  42   8  84
   2024 04 19 18:30  10 44 39.10    +02 35 42.1   418272 1.0064 131.5  m  17?  16.19 119.0   58  38   8  84
   2024 04 19 18:40  10 44 48.49    +02 34 23.5   418161 1.0064 131.6  m  17?  16.06 119.3   59  34   8  84
   2024 04 19 18:50  10 44 57.79    +02 33 04.7   418059 1.0064 131.6  m  17?  15.95 119.6   60  30   8  84
   2024 04 19 19:00  10 45 07.01    +02 31 45.9   417968 1.0064 131.7  m  17?  15.86 119.8   61  25   8  84
   2024 04 19 19:10  10 45 16.16    +02 30 26.9   417887 1.0064 131.7  m  17?  15.79 120.0   62  20   8  84
   2024 04 19 19:20  10 45 25.26    +02 29 07.9   417816 1.0064 131.7  m  17?  15.75 120.1   63  15   8  84
   2024 04 19 19:30  10 45 34.34    +02 27 48.8   417756 1.0064 131.8  m  17?  15.72 120.2   64  10   8  84
   2024 04 19 19:40  10 45 43.39    +02 26 29.6   417706 1.0064 131.8  m  17?  15.71 120.3   64   4   8  84
   2024 04 19 19:50  10 45 52.44    +02 25 10.3   417667 1.0065 131.8  t  17?  15.72 120.3   64 358   8  84
   2024 04 19 20:00  10 46 01.50    +02 23 51.0   417639 1.0065 131.9  m  17?  15.75 120.3   64 353   8  84
   2024 04 19 20:10  10 46 10.60    +02 22 31.6   417620 1.0065 131.9  m  17?  15.80 120.2   63 347   8  84
   2024 04 19 20:20  10 46 19.73    +02 21 12.1   417613 1.0065 131.9  m  17?  15.87 120.1   63 342   8  84
   2024 04 19 20:30  10 46 28.93    +02 19 52.6   417616 1.0065 132.0  m  17?  15.96 119.9   62 337   8  85
   2024 04 19 20:40  10 46 38.20    +02 18 33.0   417629 1.0065 132.0  m  17?  16.07 119.7   61 332   8  85
   2024 04 19 20:50  10 46 47.56    +02 17 13.4   417652 1.0065 132.1  m  17?  16.20 119.4   60 327   8  85
   2024 04 19 21:00  10 46 57.02    +02 15 53.8   417685 1.0065 132.1  m  17?  16.34 119.1   59 323   8  85
   2024 04 19 21:10  10 47 06.61    +02 14 34.2   417729 1.0065 132.1  m  17?  16.51 118.8   57 319   8  85
   2024 04 19 21:20  10 47 16.33    +02 13 14.6   417782 1.0065 132.2  m  17?  16.70 118.5   56 315   8  85
   2024 04 19 21:30  10 47 26.20    +02 11 55.0   417845 1.0065 132.2  m  17?  16.90 118.1   54 312   8  85
   2024 04 19 21:40  10 47 36.23    +02 10 35.3   417918 1.0065 132.2  m  17?  17.13 117.7   53 309   8  85
   2024 04 19 21:50  10 47 46.44    +02 09 15.8   418000 1.0065 132.3  m  17?  17.37 117.3   51 306   8  85
   2024 04 19 22:00  10 47 56.84    +02 07 56.2   418091 1.0065 132.3  m  17?  17.63 116.8   49 304   8  85
   2024 04 19 22:10  10 48 07.44    +02 06 36.7   418190 1.0065 132.4  m  17?  17.91 116.3   47 301   8  85
   2024 04 19 22:20  10 48 18.26    +02 05 17.2   418299 1.0065 132.4  m  17?  18.21 115.9   45 299   8  85
   2024 04 19 22:30  10 48 29.30    +02 03 57.8   418415 1.0065 132.5  m  17?  18.52 115.4   43 297   8  85
   2024 04 19 22:40  10 48 40.59    +02 02 38.5   418540 1.0065 132.5  m  17?  18.85 114.9   41 295   8  85
   2024 04 19 22:50  10 48 52.13    +02 01 19.3   418672 1.0065 132.5  m  17?  19.20 114.4   39 293   8  85
   2024 04 19 23:00  10 49 03.93    +02 00 00.2   418811 1.0065 132.6  m  17?  19.56 113.8   37 292   8  85
   2024 04 19 23:10  10 49 16.00    +01 58 41.1   418958 1.0065 132.6  m  17?  19.94 113.3   35 290   8  85
   2024 04 19 23:20  10 49 28.35    +01 57 22.2   419111 1.0065 132.7  m  17?  20.33 112.8   33 288   8  85
   2024 04 19 23:30  10 49 41.00    +01 56 03.4   419271 1.0065 132.7  m  17?  20.73 112.3   31 287   8  85
   2024 04 19 23:40  10 49 53.94    +01 54 44.7   419436 1.0065 132.8  m  17?  21.15 111.8   29 286   8  85
   2024 04 19 23:50  10 50 07.20    +01 53 26.2   419608 1.0066 132.8  m  17?  21.58 111.3   26 284   8  85
   2024 04 20 00:00  10 50 20.77    +01 52 07.8   419784 1.0066 132.9  m  17?  22.03 110.8   24 283   8  85
   2024 04 20 00:10  10 50 34.67    +01 50 49.6   419965 1.0066 133.0  m  17?  22.48 110.3   22 282   8  85
   2024 04 20 00:20  10 50 48.89    +01 49 31.6   420150 1.0066 133.0  m  17?  22.94 109.9   20 281   8  85
   2024 04 20 00:30  10 51 03.45    +01 48 13.7   420340 1.0066 133.1  m  17?  23.41 109.4   18 280   8  85
   2024 04 20 00:40  10 51 18.35    +01 46 56.1   420533 1.0066 133.1  m  17?  23.89 108.9   15 278   8  85
   2024 04 20 00:50  10 51 33.59    +01 45 38.6   420729 1.0066 133.2  m  17?  24.38 108.5   13 277   8  85
   2024 04 20 01:00  10 51 49.19    +01 44 21.3   420927 1.0066 133.2  m  17?  24.87 108.1   11 276   8  85
   2024 04 20 01:10  10 52 05.13    +01 43 04.3   421128 1.0066 133.3  m  17?  25.37 107.6    9 275   8  85
   2024 04 20 01:20  10 52 21.44    +01 41 47.5   421331 1.0066 133.4  m  17?  25.87 107.2    7 274   8  85
   2024 04 20 01:30  10 52 38.09    +01 40 30.9   421535 1.0066 133.4  m  17?  26.38 106.8    4 273   8  86
   2024 04 20 01:40  10 52 55.11    +01 39 14.5   421740 1.0066 133.5  m  17?  26.89 106.5    2 272   8  86
   2024 04 20 01:50  10 53 12.49    +01 37 58.4   421945 1.0066 133.6  m  17?  27.40 106.1    0 271   8  86
   ................
   2024 04 20 16:50  11 26 44.38    +00 00 45.2   413721 1.0070 141.4 Cm  17?  22.55 104.4   32  74   6  90
   2024 04 20 17:00  11 26 58.80    -00 00 11.0   413460 1.0070 141.5 Nm  17?  22.17 104.6   35  72   6  90
   2024 04 20 17:10  11 27 12.97    -00 01 06.9   413204 1.0070 141.6 Nm  17?  21.80 104.8   37  71   6  90
   2024 04 20 17:20  11 27 26.90    -00 02 02.7   412956 1.0070 141.6 Nm  17?  21.44 105.0   39  69   6  90
   2024 04 20 17:30  11 27 40.59    -00 02 58.2   412714 1.0070 141.7 Am  17?  21.11 105.2   41  68   6  90
   2024 04 20 17:40  11 27 54.06    -00 03 53.5   412480 1.0070 141.7 Am  17?  20.78 105.4   43  66   6  90
   2024 04 20 17:50  11 28 07.31    -00 04 48.6   412254 1.0070 141.8 Am  17?  20.48 105.5   45  64   6  90
   2024 04 20 18:00  11 28 20.36    -00 05 43.5   412036 1.0070 141.8  m  17?  20.19 105.7   47  62   6  90
   2024 04 20 18:10  11 28 33.23    -00 06 38.1   411826 1.0070 141.9  m  17?  19.92 105.9   49  60   6  90
   2024 04 20 18:20  11 28 45.91    -00 07 32.5   411625 1.0070 141.9  m  17?  19.66 106.0   51  57   6  90
   2024 04 20 18:30  11 28 58.43    -00 08 26.7   411432 1.0070 142.0  m  17?  19.43 106.1   53  55   6  90
   2024 04 20 18:40  11 29 10.80    -00 09 20.6   411249 1.0070 142.0  m  17?  19.21 106.2   55  52   6  90
   2024 04 20 18:50  11 29 23.03    -00 10 14.3   411075 1.0070 142.0  m  17?  19.02 106.3   56  49   6  90
   2024 04 20 19:00  11 29 35.14    -00 11 07.7   410911 1.0070 142.1  m  17?  18.84 106.4   58  46   6  90
   2024 04 20 19:10  11 29 47.14    -00 12 00.8   410756 1.0070 142.1  m  17?  18.69 106.4   60  42   6  90
   2024 04 20 19:20  11 29 59.04    -00 12 53.6   410611 1.0070 142.2  m  17?  18.56 106.5   61  38   6  91
   2024 04 20 19:30  11 30 10.87    -00 13 46.2   410476 1.0070 142.2  m  17?  18.45 106.5   63  33   6  91
   2024 04 20 19:40  11 30 22.63    -00 14 38.4   410352 1.0070 142.3  m  17?  18.36 106.5   64  29   6  91
   2024 04 20 19:50  11 30 34.34    -00 15 30.4   410237 1.0070 142.3  m  17?  18.29 106.4   65  23   6  91
   2024 04 20 20:00  11 30 46.02    -00 16 22.1   410133 1.0070 142.4  m  17?  18.24 106.4   66  18   6  91
   2024 04 20 20:10  11 30 57.68    -00 17 13.5   410039 1.0070 142.4  m  17?  18.22 106.3   66  12   6  91
   2024 04 20 20:20  11 31 09.33    -00 18 04.5   409956 1.0070 142.4  m  17?  18.22 106.2   67   6   6  91
   2024 04 20 20:30  11 31 21.00    -00 18 55.2   409883 1.0070 142.5  t  17?  18.24 106.1   67 359   6  91
   2024 04 20 20:40  11 31 32.70    -00 19 45.6   409821 1.0070 142.5  e  17?  18.28 105.9   67 353   6  91
   2024 04 20 20:50  11 31 44.45    -00 20 35.7   409769 1.0071 142.6  m  17?  18.35 105.7   66 347   6  91
   2024 04 20 21:00  11 31 56.25    -00 21 25.4   409728 1.0071 142.6  m  17?  18.44 105.6   66 341   6  91
   2024 04 20 21:10  11 32 08.14    -00 22 14.8   409697 1.0071 142.7  m  17?  18.55 105.3   65 335   6  91
   2024 04 20 21:20  11 32 20.11    -00 23 03.9   409676 1.0071 142.7  m  17?  18.69 105.1   64 330   6  91
   2024 04 20 21:30  11 32 32.20    -00 23 52.5   409665 1.0071 142.8  m  17?  18.85 104.9   63 325   6  91
   2024 04 20 21:40  11 32 44.40    -00 24 40.9   409665 1.0071 142.8  m  17?  19.03 104.6   61 321   6  91
   2024 04 20 21:50  11 32 56.75    -00 25 28.8   409674 1.0071 142.8  m  17?  19.23 104.3   60 316   6  91
   2024 04 20 22:00  11 33 09.25    -00 26 16.4   409694 1.0071 142.9  m  17?  19.46 104.1   58 313   6  91
   2024 04 20 22:10  11 33 21.92    -00 27 03.6   409723 1.0071 142.9  m  17?  19.70 103.8   57 309   6  91
   2024 04 20 22:20  11 33 34.77    -00 27 50.4   409762 1.0071 143.0  m  17?  19.97 103.5   55 306   6  91
   2024 04 20 22:30  11 33 47.82    -00 28 36.9   409809 1.0071 143.0  m  17?  20.26 103.2   53 304   6  91
   2024 04 20 22:40  11 34 01.08    -00 29 22.9   409866 1.0071 143.1  m  17?  20.57 102.8   51 301   6  91
   2024 04 20 22:50  11 34 14.56    -00 30 08.6   409932 1.0071 143.1  m  17?  20.90 102.5   49 299   6  91
   2024 04 20 23:00  11 34 28.28    -00 30 53.8   410006 1.0071 143.2  m  17?  21.25 102.2   47 296   6  91
   2024 04 20 23:10  11 34 42.26    -00 31 38.7   410089 1.0071 143.2  m  17?  21.62 101.9   45 294   5  91
   2024 04 20 23:20  11 34 56.49    -00 32 23.1   410179 1.0071 143.3  m  17?  22.01 101.6   43 292   5  91
   2024 04 20 23:30  11 35 11.00    -00 33 07.2   410278 1.0071 143.3  m  17?  22.41 101.2   41 291   5  91
   2024 04 20 23:40  11 35 25.80    -00 33 50.8   410383 1.0071 143.4  m  17?  22.83 100.9   39 289   5  91
   2024 04 20 23:50  11 35 40.89    -00 34 34.0   410496 1.0071 143.5  m  17?  23.27 100.6   37 288   5  91
   2024 04 21 00:00  11 35 56.29    -00 35 16.8   410616 1.0071 143.5  m  17?  23.72 100.3   35 286   5  91
   2024 04 21 00:10  11 36 12.01    -00 35 59.2   410741 1.0071 143.6  m  17?  24.19 100.0   32 285   5  91
   2024 04 21 00:20  11 36 28.06    -00 36 41.2   410873 1.0071 143.6  m  17?  24.67  99.8   30 283   5  91
   2024 04 21 00:30  11 36 44.44    -00 37 22.7   411011 1.0071 143.7  m  17?  25.17  99.5   28 282   5  91
   2024 04 21 00:40  11 37 01.16    -00 38 03.9   411154 1.0071 143.8  m  17?  25.67  99.2   26 281   5  91
   2024 04 21 00:50  11 37 18.24    -00 38 44.6   411301 1.0071 143.8  m  17?  26.19  98.9   24 280   5  91
   2024 04 21 01:00  11 37 35.67    -00 39 24.8   411453 1.0071 143.9  m  17?  26.72  98.6   22 279   5  91
   2024 04 21 01:10  11 37 53.47    -00 40 04.7   411609 1.0071 144.0  m  17?  27.26  98.4   19 277   5  91
   2024 04 21 01:20  11 38 11.64    -00 40 44.1   411769 1.0072 144.0  m  17?  27.81  98.1   17 276   5  91
   2024 04 21 01:30  11 38 30.18    -00 41 23.1   411932 1.0072 144.1  m  17?  28.37  97.9   15 275   5  91
   2024 04 21 01:40  11 38 49.11    -00 42 01.7   412098 1.0072 144.2  m  17?  28.93  97.6   13 274   5  91
   2024 04 21 01:50  11 39 08.42    -00 42 39.8   412266 1.0072 144.2  m  17?  29.50  97.4   10 273   5  91
   2024 04 21 02:00  11 39 28.11    -00 43 17.6   412436 1.0072 144.3  m  17?  30.07  97.2    8 272   5  91
   2024 04 21 02:10  11 39 48.20    -00 43 54.9   412608 1.0072 144.4  m  17?  30.65  97.0    6 271   5  92
   2024 04 21 02:20  11 40 08.68    -00 44 31.7   412780 1.0072 144.5  m  17?  31.23  96.8    4 270   5  92
   2024 04 21 02:30  11 40 29.55    -00 45 08.2   412953 1.0072 144.5  m  17?  31.81  96.6    2 269   5  92
   2024 04 21 02:40  11 40 50.82    -00 45 44.2   413127 1.0072 144.6  m  17?  32.40  96.3    0 268   5  92
   ................
   2024 04 21 16:50  12 23 09.69    -01 09 35.6   403837 1.0075 154.0 Cm  17?  48.78  90.7   21  81   1  95
   2024 04 21 17:00  12 23 42.46    -01 09 43.3   403527 1.0075 154.1 Nm  17?  49.55  91.1   23  80   1  95
   2024 04 21 17:10  12 24 15.79    -01 09 54.7   403222 1.0075 154.2 Nm  17?  50.46  91.5   25  79   1  95
   2024 04 21 17:20  12 24 49.77    -01 10 11.1   402921 1.0075 154.3 Nm  17?  51.54  92.1   28  78   1  95
   2024 04 21 17:30  12 25 24.52    -01 10 34.2   402626 1.0075 154.5 Am  17?  52.81  92.9   30  77   1  95
   2024 04 21 17:40  12 26 00.16    -01 11 06.1   402337 1.0075 154.6 Am  17?  54.30  93.9   32  76   1  95
   2024 04 21 17:50  12 26 36.81    -01 11 49.8   402054 1.0075 154.7 Am  18?  56.04  95.2   34  74   1  95
   2024 04 21 18:00  12 27 14.63    -01 12 49.5   401779 1.0075 154.9  m  18?  58.06  96.8   36  73   1  95
   2024 04 21 18:10  12 27 53.72    -01 14 10.5   401512 1.0075 155.0  m  18?  60.37  99.0   38  72   1  95
   2024 04 21 18:20  12 28 34.17    -01 16 00.5   401254 1.0075 155.2  m  18?  62.96 101.6   40  70   1  95
   2024 04 21 18:30  12 29 15.90    -01 18 29.1   401007 1.0075 155.3  m  18?  65.73 105.1   42  69   1  95
   2024 04 21 18:40  12 29 58.64    -01 21 48.2   400774 1.0075 155.5  m  18?  68.48 109.4   44  67   1  95
   2024 04 21 18:50  12 30 41.70    -01 26 09.7   400558 1.0075 155.7  m  18?  70.80 114.6   46  65   1  95
   2024 04 21 19:00  12 31 23.99    -01 31 41.7   400361 1.0076 155.9  m  18?  72.21 120.6   48  63   0  95
   2024 04 21 19:10  12 32 04.12    -01 38 23.3   400187 1.0076 156.1  m  18?  72.34 126.7   50  62   0  95
   2024 04 21 19:20  12 32 40.94    -01 46 03.0   400036 1.0076 156.3  m  18?  71.20 132.6   52  59   1  95
   2024 04 21 19:30  12 33 13.84    -01 54 22.5   399908 1.0076 156.5  m  18?  69.15 137.8   54  57   1  95
   2024 04 21 19:40  12 33 42.86    -02 03 04.1   399799 1.0076 156.6  m  18?  66.67 142.3   56  55   1  95
   2024 04 21 19:50  12 34 08.37    -02 11 54.1   399710 1.0076 156.8  m  18?  64.08 145.9   58  52   1  95
   2024 04 21 20:00  12 34 30.91    -02 20 43.6   399636 1.0076 156.9  m  18?  61.58 148.8   60  49   1  95
   2024 04 21 20:10  12 34 50.98    -02 29 27.5   399578 1.0076 157.0  m  18?  59.27 151.3   61  45   1  95
   2024 04 21 20:20  12 35 09.01    -02 38 03.0   399533 1.0076 157.2  m  18?  57.17 153.2   63  41   1  95
   2024 04 21 20:30  12 35 25.36    -02 46 28.8   399502 1.0076 157.3  m  18?  55.28 154.9   65  37   1  95
   2024 04 21 20:40  12 35 40.32    -02 54 44.6   399483 1.0076 157.4  m  18?  53.57 156.3   66  32   1  95
   2024 04 21 20:50  12 35 54.13    -03 02 50.2   399477 1.0076 157.5  m  18?  52.03 157.4   67  27   1  95
   2024 04 21 21:00  12 36 06.97    -03 10 46.0   399483 1.0076 157.6  m  18?  50.63 158.4   68  21   1  95
   2024 04 21 21:10  12 36 19.00    -03 18 32.3   399502 1.0076 157.7  m  18?  49.37 159.2   69  14   1  95
   2024 04 21 21:20  12 36 30.34    -03 26 09.6   399532 1.0076 157.8  m  18?  48.21 159.9   70   7   1  95
   2024 04 21 21:30  12 36 41.10    -03 33 38.3   399573 1.0076 157.9  m  18?  47.16 160.4   70   0   1  95
   2024 04 21 21:40  12 36 51.38    -03 40 58.9   399627 1.0076 157.9  t  18?  46.19 160.9   70 353   1  95
   2024 04 21 21:50  12 37 01.25    -03 48 11.7   399691 1.0076 158.0  m  18?  45.29 161.3   70 345   1  95
   2024 04 21 22:00  12 37 10.78    -03 55 17.2   399768 1.0076 158.1  m  18?  44.47 161.5   69 338   2  95
   2024 04 21 22:10  12 37 20.03    -04 02 15.7   399855 1.0076 158.2  m  18?  43.70 161.7   68 332   2  95
   2024 04 21 22:20  12 37 29.04    -04 09 07.5   399953 1.0076 158.2  m  18?  42.99 161.8   67 326   2  96
   2024 04 21 22:30  12 37 37.88    -04 15 53.1   400063 1.0077 158.3  m  18?  42.33 161.9   66 320   2  96
   2024 04 21 22:40  12 37 46.58    -04 22 32.5   400183 1.0077 158.4  m  18?  41.71 161.9   65 316   2  96
   2024 04 21 22:50  12 37 55.18    -04 29 06.2   400314 1.0077 158.5  m  18?  41.13 161.8   63 311   2  96
   2024 04 21 23:00  12 38 03.72    -04 35 34.4   400456 1.0077 158.5  m  18?  40.60 161.6   61 307   2  96
   2024 04 21 23:10  12 38 12.23    -04 41 57.2   400608 1.0077 158.6  m  18?  40.09 161.4   60 304   2  96
   2024 04 21 23:20  12 38 20.74    -04 48 15.0   400769 1.0077 158.6  m  18?  39.63 161.2   58 300   2  96
   2024 04 21 23:30  12 38 29.27    -04 54 27.8   400941 1.0077 158.7  m  18?  39.19 160.9   56 298   2  96
   2024 04 21 23:40  12 38 37.87    -05 00 35.8   401122 1.0077 158.8  m  18?  38.78 160.5   54 295   2  96
   2024 04 21 23:50  12 38 46.54    -05 06 39.3   401313 1.0077 158.8  m  18?  38.41 160.1   52 293   2  96
   2024 04 22 00:00  12 38 55.32    -05 12 38.4   401512 1.0077 158.9  m  18?  38.06 159.6   50 290   2  96
   2024 04 22 00:10  12 39 04.22    -05 18 33.2   401721 1.0077 159.0  m  18?  37.73 159.1   48 288   2  96
   2024 04 22 00:20  12 39 13.27    -05 24 23.9   401938 1.0077 159.0  m  18?  37.44 158.6   46 287   2  96
   2024 04 22 00:30  12 39 22.48    -05 30 10.7   402162 1.0077 159.1  m  18?  37.17 158.0   43 285   2  96
   2024 04 22 00:40  12 39 31.88    -05 35 53.5   402395 1.0077 159.1  m  18?  36.92 157.4   41 283   2  96
   2024 04 22 00:50  12 39 41.47    -05 41 32.6   402635 1.0077 159.2  m  18?  36.70 156.7   39 282   2  96
   2024 04 22 01:00  12 39 51.28    -05 47 08.1   402883 1.0077 159.3  m  18?  36.51 156.0   37 280   2  96
   2024 04 22 01:10  12 40 01.32    -05 52 40.0   403136 1.0077 159.3  m  18?  36.34 155.3   35 279   2  96
   2024 04 22 01:20  12 40 11.61    -05 58 08.6   403397 1.0077 159.4  m  18?  36.19 154.5   33 278   3  96
   2024 04 22 01:30  12 40 22.15    -06 03 33.8   403663 1.0077 159.5  m  18?  36.06 153.7   30 276   3  96
   2024 04 22 01:40  12 40 32.96    -06 08 55.8   403935 1.0077 159.5  m  18?  35.96 152.9   28 275   3  96
   2024 04 22 01:50  12 40 44.05    -06 14 14.7   404211 1.0077 159.6  m  18?  35.89 152.1   26 274   3  96
   2024 04 22 02:00  12 40 55.43    -06 19 30.6   404493 1.0077 159.7  m  18?  35.83 151.3   24 273   3  96
   2024 04 22 02:10  12 41 07.10    -06 24 43.5   404778 1.0077 159.7  m  18?  35.79 150.4   21 272   3  96
   2024 04 22 02:20  12 41 19.09    -06 29 53.6   405068 1.0077 159.8  m  18?  35.78 149.6   19 271   3  96
   2024 04 22 02:30  12 41 31.38    -06 35 01.0   405361 1.0077 159.9  m  18?  35.79 148.7   17 270   3  96
   2024 04 22 02:40  12 41 44.00    -06 40 05.7   405657 1.0077 159.9  m  18?  35.82 147.8   15 269   3  96
   2024 04 22 02:50  12 41 56.94    -06 45 07.8   405955 1.0077 160.0  m  18?  35.86 146.9   13 268   3  96
   2024 04 22 03:00  12 42 10.22    -06 50 07.4   406255 1.0078 160.1  m  18?  35.93 146.1   10 267   3  96
   2024 04 22 03:10  12 42 23.83    -06 55 04.6   406557 1.0078 160.1  m  18?  36.01 145.2    8 265   3  96
   2024 04 22 03:20  12 42 37.77    -06 59 59.4   406860 1.0078 160.2  m  18?  36.12 144.3    6 264   3  96
   2024 04 22 03:30  12 42 52.06    -07 04 52.0   407164 1.0078 160.3  m  18?  36.23 143.5    4 263   3  96
   2024 04 22 03:40  12 43 06.69    -07 09 42.4   407468 1.0078 160.4  m  18?  36.36 142.6    1 262   3  96
   2024 04 22 03:50  12 43 21.66    -07 14 30.6   407771 1.0078 160.4  m  18?  36.51 141.8    0 261   3  96
   ................
   2024 04 22 16:50  13 08 48.05    -12 54 39.0   410206 1.0080 167.0 Cm  18?  31.74 143.9   16  97   6  98
   2024 04 22 17:00  13 09 00.63    -12 58 55.5   410016 1.0080 167.0 Nm  18?  31.38 144.6   18  96   6  98
   2024 04 22 17:10  13 09 12.85    -13 03 11.4   409828 1.0080 167.1 Nm  18?  31.03 145.3   21  95   6  98
   2024 04 22 17:20  13 09 24.73    -13 07 26.6   409644 1.0080 167.1 Nm  18?  30.69 146.1   23  94   6  98
   2024 04 22 17:30  13 09 36.26    -13 11 41.1   409463 1.0080 167.1 Am  18?  30.35 146.8   25  94   6  98
   2024 04 22 17:40  13 09 47.45    -13 15 54.7   409286 1.0080 167.2 Am  18?  30.01 147.5   27  93   6  98
   2024 04 22 17:50  13 09 58.31    -13 20 07.6   409113 1.0080 167.2 Am  18?  29.68 148.2   30  92   6  98
   2024 04 22 18:00  13 10 08.84    -13 24 19.5   408945 1.0080 167.2  m  18?  29.35 148.9   32  91   6  98
   2024 04 22 18:10  13 10 19.05    -13 28 30.5   408783 1.0080 167.3  m  18?  29.03 149.6   34  90   6  98
   2024 04 22 18:20  13 10 28.95    -13 32 40.5   408626 1.0080 167.3  m  18?  28.71 150.2   36  89   6  98
   2024 04 22 18:30  13 10 38.55    -13 36 49.4   408475 1.0080 167.3  m  18?  28.40 150.9   39  89   6  98
   2024 04 22 18:40  13 10 47.85    -13 40 57.2   408330 1.0080 167.4  m  18?  28.09 151.5   41  88   6  98
   2024 04 22 18:50  13 10 56.87    -13 45 03.8   408192 1.0080 167.4  m  18?  27.79 152.2   43  87   6  98
   2024 04 22 19:00  13 11 05.61    -13 49 09.2   408061 1.0080 167.4  m  18?  27.50 152.8   46  86   6  98
   2024 04 22 19:10  13 11 14.08    -13 53 13.4   407937 1.0080 167.4  m  18?  27.21 153.4   48  85   6  98
   2024 04 22 19:20  13 11 22.31    -13 57 16.2   407821 1.0080 167.4  m  18?  26.93 153.9   50  83   6  98
   2024 04 22 19:30  13 11 30.29    -14 01 17.6   407713 1.0080 167.5  m  18?  26.66 154.5   52  82   6  98
   2024 04 22 19:40  13 11 38.04    -14 05 17.6   407613 1.0081 167.5  m  18?  26.39 155.0   55  81   6  98
   2024 04 22 19:50  13 11 45.58    -14 09 16.1   407521 1.0081 167.5  m  18?  26.12 155.5   57  79   6  98
   2024 04 22 20:00  13 11 52.92    -14 13 13.1   407438 1.0081 167.5  m  18?  25.86 155.9   59  78   6  98
   2024 04 22 20:10  13 12 00.06    -14 17 08.6   407364 1.0081 167.5  m  18?  25.61 156.3   62  76   6  98
   2024 04 22 20:20  13 12 07.04    -14 21 02.5   407300 1.0081 167.5  m  18?  25.36 156.7   64  74   6  98
   2024 04 22 20:30  13 12 13.85    -14 24 54.7   407244 1.0081 167.6  m  18?  25.12 157.0   66  72   6  98
   2024 04 22 20:40  13 12 20.52    -14 28 45.2   407199 1.0081 167.6  m  18?  24.89 157.3   68  69   6  98
   2024 04 22 20:50  13 12 27.05    -14 32 34.0   407163 1.0081 167.6  m  18?  24.66 157.5   70  66   6  98
   2024 04 22 21:00  13 12 33.48    -14 36 21.0   407136 1.0081 167.6  m  18?  24.43 157.7   72  62   6  98
   2024 04 22 21:10  13 12 39.80    -14 40 06.3   407120 1.0081 167.6  m  18?  24.22 157.8   74  58   6  98
   2024 04 22 21:20  13 12 46.04    -14 43 49.7   407114 1.0081 167.6  m  18?  24.01 157.9   76  52   6  98
   2024 04 22 21:30  13 12 52.22    -14 47 31.3   407118 1.0081 167.6  m  18?  23.80 157.9   78  44   6  98
   2024 04 22 21:40  13 12 58.35    -14 51 11.0   407133 1.0081 167.6  m  18?  23.60 157.9   80  34   6  98
   2024 04 22 21:50  13 13 04.44    -14 54 48.9   407157 1.0081 167.6  m  18?  23.41 157.8   81  21   6  98
   2024 04 22 22:00  13 13 10.52    -14 58 24.8   407192 1.0081 167.6  m  18?  23.23 157.6   81   5   7  98
   2024 04 22 22:10  13 13 16.60    -15 01 58.8   407237 1.0081 167.7  t  18?  23.06 157.4   81 348   7  98
   2024 04 22 22:20  13 13 22.70    -15 05 30.9   407293 1.0081 167.7  m  18?  22.89 157.2   81 333   7  98
   2024 04 22 22:30  13 13 28.83    -15 09 01.1   407359 1.0081 167.7  m  18?  22.73 156.8   79 320   7  98
   2024 04 22 22:40  13 13 35.01    -15 12 29.2   407435 1.0081 167.7  m  18?  22.59 156.5   78 310   7  98
   2024 04 22 22:50  13 13 41.25    -15 15 55.5   407521 1.0081 167.7  m  18?  22.45 156.0   76 303   7  98
   2024 04 22 23:00  13 13 47.58    -15 19 19.8   407618 1.0081 167.7  m  18?  22.33 155.5   74 297   7  98
   2024 04 22 23:10  13 13 54.01    -15 22 42.1   407724 1.0081 167.7  m  18?  22.21 154.9   72 293   7  98
   2024 04 22 23:20  13 14 00.56    -15 26 02.5   407840 1.0081 167.7  m  18?  22.11 154.3   70 289   7  98
   2024 04 22 23:30  13 14 07.24    -15 29 20.9   407966 1.0081 167.7  m  18?  22.03 153.6   68 286   7  98
   2024 04 22 23:40  13 14 14.06    -15 32 37.4   408101 1.0081 167.7  m  18?  21.95 152.9   66 284   7  98
   2024 04 22 23:50  13 14 21.05    -15 35 52.1   408246 1.0081 167.7  m  18?  21.90 152.1   63 281   7  98
   2024 04 23 00:00  13 14 28.21    -15 39 04.8   408399 1.0081 167.7  m  18?  21.86 151.2   61 280   7  98
   2024 04 23 00:10  13 14 35.57    -15 42 15.7   408562 1.0081 167.8  m  18?  21.83 150.4   59 278   7  99
   2024 04 23 00:20  13 14 43.13    -15 45 24.7   408733 1.0081 167.8  m  18?  21.83 149.4   57 276   7  99
   2024 04 23 00:30  13 14 50.92    -15 48 31.9   408913 1.0081 167.8  m  18?  21.84 148.4   55 275   7  99
   2024 04 23 00:40  13 14 58.94    -15 51 37.3   409101 1.0081 167.8  m  18?  21.87 147.4   52 274   7  99
   2024 04 23 00:50  13 15 07.20    -15 54 41.0   409296 1.0081 167.8  m  18?  21.93 146.4   50 272   7  99
   2024 04 23 01:00  13 15 15.73    -15 57 43.0   409500 1.0081 167.8  m  18?  22.00 145.3   48 271   7  99
   2024 04 23 01:10  13 15 24.52    -16 00 43.2   409710 1.0081 167.8  m  18?  22.09 144.2   46 270   7  99
   2024 04 23 01:20  13 15 33.60    -16 03 41.9   409927 1.0081 167.9  m  18?  22.21 143.1   43 269   7  99
   2024 04 23 01:30  13 15 42.97    -16 06 39.0   410151 1.0081 167.9  m  18?  22.34 142.0   41 268   7  99
   2024 04 23 01:40  13 15 52.65    -16 09 34.5   410381 1.0081 167.9  m  18?  22.50 140.9   39 267   7  99
   2024 04 23 01:50  13 16 02.64    -16 12 28.5   410617 1.0081 167.9  m  18?  22.67 139.8   37 266   7  99
   2024 04 23 02:00  13 16 12.95    -16 15 21.1   410859 1.0081 167.9  m  18?  22.87 138.6   34 265   7  99
   2024 04 23 02:10  13 16 23.59    -16 18 12.4   411105 1.0082 168.0  m  18?  23.09 137.5   32 264   7  99
   2024 04 23 02:20  13 16 34.58    -16 21 02.2   411357 1.0082 168.0  m  18?  23.33 136.4   30 263   7  99
   2024 04 23 02:30  13 16 45.91    -16 23 50.8   411612 1.0082 168.0  m  18?  23.58 135.3   28 263   7  99
   2024 04 23 02:40  13 16 57.59    -16 26 38.2   411872 1.0082 168.0  m  18?  23.86 134.3   25 262   7  99
   2024 04 23 02:50  13 17 09.63    -16 29 24.5   412135 1.0082 168.1  m  18?  24.15 133.2   23 261   7  99
   2024 04 23 03:00  13 17 22.03    -16 32 09.6   412401 1.0082 168.1  m  18?  24.47 132.2   21 260   7  99
   2024 04 23 03:10  13 17 34.80    -16 34 53.7   412669 1.0082 168.1  m  18?  24.79 131.2   19 259   7  99
   2024 04 23 03:20  13 17 47.95    -16 37 36.8   412940 1.0082 168.1  m  18?  25.14 130.2   17 258   7  99
   2024 04 23 03:30  13 18 01.47    -16 40 19.1   413213 1.0082 168.2  m  18?  25.49 129.3   14 257   7  99
   2024 04 23 03:40  13 18 15.37    -16 43 00.5   413487 1.0082 168.2  m  18?  25.86 128.4   12 256   7  99
   2024 04 23 03:50  13 18 29.64    -16 45 41.1   413762 1.0082 168.2  m  18?  26.24 127.5   10 255   7  99
   2024 04 23 04:00  13 18 44.30    -16 48 21.0   414037 1.0082 168.3 Am  18?  26.63 126.7    8 255   7  99
   2024 04 23 04:10  13 18 59.34    -16 51 00.3   414313 1.0082 168.3 Am  18?  27.03 125.9    6 254   7  99
   2024 04 23 04:20  13 19 14.76    -16 53 39.1   414588 1.0082 168.3 Am  18?  27.44 125.2    4 253   7  99
   2024 04 23 04:30  13 19 30.56    -16 56 17.3   414862 1.0082 168.4 Nm  18?  27.86 124.5    1 252   7  99
   2024 04 23 04:40  13 19 46.73    -16 58 55.2   415135 1.0082 168.4 Nm  18?  28.28 123.8    0 251   7  99
   ................
   2024 04 23 16:50  13 45 36.61    -20 42 24.2   415987 1.0083 170.6 Cm  18?  30.35 134.4   11 107   8  99
   2024 04 23 17:00  13 45 51.86    -20 45 56.7   415774 1.0083 170.6 Nm  18?  29.96 135.0   14 107   8  99
   2024 04 23 17:10  13 46 06.75    -20 49 28.8   415563 1.0084 170.6 Nm  18?  29.57 135.7   16 106   8  99
   2024 04 23 17:20  13 46 21.28    -20 53 00.6   415354 1.0084 170.6 Nm  18?  29.19 136.3   18 105   8  99
   2024 04 23 17:30  13 46 35.45    -20 56 31.9   415146 1.0084 170.6 Am  18?  28.80 137.0   20 104   8  99
   2024 04 23 17:40  13 46 49.25    -21 00 02.7   414941 1.0084 170.5 Am  18?  28.41 137.7   22 104   8  99
   2024 04 23 17:50  13 47 02.71    -21 03 32.7   414739 1.0084 170.5  m  18?  28.02 138.3   24 103   8  99
   2024 04 23 18:00  13 47 15.81    -21 07 02.1   414540 1.0084 170.5  m  18?  27.64 139.0   27 102   8  99
   2024 04 23 18:10  13 47 28.57    -21 10 30.6   414344 1.0084 170.4  m  18?  27.26 139.6   29 102   8  99
   2024 04 23 18:20  13 47 40.99    -21 13 58.2   414153 1.0084 170.4  m  18?  26.88 140.3   31 101   8  99
   2024 04 23 18:30  13 47 53.07    -21 17 24.9   413966 1.0084 170.4  m  18?  26.50 140.9   33 100   8  99
   2024 04 23 18:40  13 48 04.83    -21 20 50.4   413783 1.0084 170.4  m  18?  26.13 141.6   36 100   9  99
   2024 04 23 18:50  13 48 16.27    -21 24 14.8   413606 1.0084 170.3  m  18?  25.76 142.2   38  99   9  99
   2024 04 23 19:00  13 48 27.40    -21 27 38.0   413434 1.0084 170.3  m  18?  25.40 142.8   40  99   9  99
   2024 04 23 19:10  13 48 38.22    -21 30 59.9   413269 1.0084 170.3  m  18?  25.04 143.4   42  98   9  99
   2024 04 23 19:20  13 48 48.75    -21 34 20.4   413109 1.0084 170.2  m  18?  24.68 143.9   45  98   9  99
   2024 04 23 19:30  13 48 59.00    -21 37 39.4   412956 1.0084 170.2  m  18?  24.33 144.5   47  97   9  99
   2024 04 23 19:40  13 49 08.98    -21 40 56.9   412809 1.0084 170.2  m  18?  23.98 145.0   49  96   9  99
   2024 04 23 19:50  13 49 18.69    -21 44 12.8   412670 1.0084 170.1  m  18?  23.64 145.5   51  96   9  99
   2024 04 23 20:00  13 49 28.16    -21 47 27.0   412538 1.0084 170.1  m  18?  23.31 145.9   54  95   9  99
   2024 04 23 20:10  13 49 37.39    -21 50 39.4   412414 1.0084 170.1  m  18?  22.98 146.4   56  95   9  99
   2024 04 23 20:20  13 49 46.39    -21 53 50.0   412298 1.0084 170.0  m  18?  22.65 146.7   58  94   9  99
   2024 04 23 20:30  13 49 55.19    -21 56 58.8   412190 1.0084 170.0  m  18?  22.34 147.1   60  93   9  99
   2024 04 23 20:40  13 50 03.79    -22 00 05.6   412090 1.0084 170.0  m  18?  22.03 147.4   63  93   9  99
   2024 04 23 20:50  13 50 12.20    -22 03 10.4   411999 1.0084 169.9  m  18?  21.72 147.7   65  92   9  99
   2024 04 23 21:00  13 50 20.45    -22 06 13.1   411917 1.0084 169.9  m  18?  21.43 147.9   67  92   9  99
   2024 04 23 21:10  13 50 28.55    -22 09 13.8   411843 1.0084 169.9  m  18?  21.14 148.1   69  91   9  99
   2024 04 23 21:20  13 50 36.50    -22 12 12.3   411779 1.0084 169.8  m  18?  20.86 148.2   72  90   9  99
   2024 04 23 21:30  13 50 44.34    -22 15 08.6   411724 1.0084 169.8  m  18?  20.58 148.2   74  90   9  99
   2024 04 23 21:40  13 50 52.07    -22 18 02.7   411679 1.0084 169.8  m  18?  20.32 148.2   76  89   9  99
   2024 04 23 21:50  13 50 59.72    -22 20 54.5   411643 1.0084 169.7  m  18?  20.06 148.2   79  88   9  99
   2024 04 23 22:00  13 51 07.29    -22 23 44.0   411616 1.0084 169.7  m  18?  19.82 148.0   81  87   9  99
   2024 04 23 22:10  13 51 14.80    -22 26 31.2   411600 1.0084 169.7  m  18?  19.58 147.8   83  85   9  99
   2024 04 23 22:20  13 51 22.28    -22 29 16.1   411593 1.0084 169.6  m  18?  19.36 147.6   85  82   9  99
   2024 04 23 22:30  13 51 29.73    -22 31 58.5   411596 1.0084 169.6  m  18?  19.15 147.3   88  71   9  99
   2024 04 23 22:40  13 51 37.18    -22 34 38.6   411608 1.0084 169.6  t  18?  18.95 146.9   89 315   9  99
   2024 04 23 22:50  13 51 44.65    -22 37 16.2   411631 1.0084 169.5  m  18?  18.76 146.4   87 279   9  99
   2024 04 23 23:00  13 51 52.14    -22 39 51.5   411663 1.0084 169.5  m  18?  18.59 145.9   84 273   9  99
   2024 04 23 23:10  13 51 59.68    -22 42 24.3   411704 1.0084 169.5  m  18?  18.43 145.2   82 271   9  99
   2024 04 23 23:20  13 52 07.28    -22 44 54.7   411756 1.0084 169.4  m  18?  18.29 144.6   80 270   9  99
   2024 04 23 23:30  13 52 14.97    -22 47 22.8   411817 1.0084 169.4  m  18?  18.16 143.8   78 269   9  99
   2024 04 23 23:40  13 52 22.75    -22 49 48.4   411887 1.0084 169.4  m  18?  18.06 143.0   75 268   9  99
   2024 04 23 23:50  13 52 30.65    -22 52 11.6   411967 1.0084 169.4  m  18?  17.97 142.1   73 267   9  99
   2024 04 24 00:00  13 52 38.67    -22 54 32.5   412056 1.0084 169.3  m  18?  17.90 141.2   71 266   9  99
   2024 04 24 00:10  13 52 46.85    -22 56 51.0   412154 1.0084 169.3  m  18?  17.85 140.2   69 265   9  99
   2024 04 24 00:20  13 52 55.19    -22 59 07.2   412261 1.0084 169.3  m  18?  17.83 139.1   66 265   9  99
   2024 04 24 00:30  13 53 03.71    -23 01 21.2   412376 1.0084 169.3  m  18?  17.83 138.0   64 264   9  99
   2024 04 24 00:40  13 53 12.42    -23 03 32.9   412500 1.0084 169.2  m  18?  17.85 136.9   62 264   9  99
   2024 04 24 00:50  13 53 21.34    -23 05 42.4   412633 1.0084 169.2  m  18?  17.89 135.7   59 263   9  99
   2024 04 24 01:00  13 53 30.48    -23 07 49.7   412773 1.0084 169.2  m  18?  17.96 134.5   57 262   9  99
   2024 04 24 01:10  13 53 39.86    -23 09 54.9   412921 1.0084 169.2  m  18?  18.06 133.3   55 262   9  99
   2024 04 24 01:20  13 53 49.50    -23 11 58.0   413077 1.0084 169.1  m  18?  18.17 132.1   53 261   9  99
   2024 04 24 01:30  13 53 59.40    -23 13 59.2   413240 1.0084 169.1  m  18?  18.32 130.9   51 261   9  99
   2024 04 24 01:40  13 54 09.57    -23 15 58.3   413410 1.0084 169.1  m  18?  18.49 129.6   48 260   9  99
   2024 04 24 01:50  13 54 20.03    -23 17 55.6   413587 1.0084 169.1  m  18?  18.68 128.4   46 259   9  99
   2024 04 24 02:00  13 54 30.80    -23 19 51.1   413770 1.0084 169.1  m  18?  18.90 127.2   44 259   9  99
   2024 04 24 02:10  13 54 41.87    -23 21 44.8   413959 1.0084 169.0  m  18?  19.15 126.0   42 258   9  99
   2024 04 24 02:20  13 54 53.27    -23 23 36.8   414154 1.0085 169.0  m  18?  19.42 124.8   39 258   9  99
   2024 04 24 02:30  13 55 05.00    -23 25 27.1   414354 1.0085 169.0  m  18?  19.70 123.7   37 257   9  99
   2024 04 24 02:40  13 55 17.07    -23 27 16.0   414559 1.0085 169.0  m  18?  20.02 122.6   35 256   9  99
   2024 04 24 02:50  13 55 29.49    -23 29 03.3   414768 1.0085 169.0  m  18?  20.35 121.5   33 256   9  99
   2024 04 24 03:00  13 55 42.26    -23 30 49.3   414982 1.0085 169.0  m  18?  20.70 120.5   31 255   9  99
   2024 04 24 03:10  13 55 55.40    -23 32 34.0   415200 1.0085 168.9  m  18?  21.07 119.5   28 254   9  99
   2024 04 24 03:20  13 56 08.91    -23 34 17.4   415421 1.0085 168.9  m  18?  21.46 118.5   26 254   9  99
   2024 04 24 03:30  13 56 22.80    -23 35 59.7   415645 1.0085 168.9  m  18?  21.86 117.6   24 253   9  99
   2024 04 24 03:40  13 56 37.07    -23 37 41.0   415872 1.0085 168.9  m  18?  22.28 116.8   22 252   9  99
   2024 04 24 03:50  13 56 51.72    -23 39 21.3   416101 1.0085 168.9  m  18?  22.71 116.0   20 252   9  99
   2024 04 24 04:00  13 57 06.77    -23 41 00.7   416333 1.0085 168.9 Am  18?  23.16 115.2   18 251   9  99
   2024 04 24 04:10  13 57 22.20    -23 42 39.3   416565 1.0085 168.9 Am  18?  23.61 114.5   16 250   9  99
   2024 04 24 04:20  13 57 38.03    -23 44 17.3   416799 1.0085 168.9 Am  18?  24.08 113.8   14 249   9  99
   2024 04 24 04:30  13 57 54.26    -23 45 54.6   417033 1.0085 168.8 Nm  18?  24.55 113.2   11 248   9  99
   2024 04 24 04:40  13 58 10.88    -23 47 31.4   417267 1.0085 168.8 Nm  18?  25.03 112.6    9 248   9  99
   2024 04 24 04:50  13 58 27.90    -23 49 07.8   417502 1.0085 168.8 Cm  18?  25.51 112.0    7 247   9  99
   2024 04 24 05:00  13 58 45.32    -23 50 43.8   417735 1.0085 168.8 Cm  18?  26.00 111.5    5 246   9  99
   ................
   2024 04 24 16:40  14 26 21.26    -26 27 54.0   417880 1.0086 166.0 C   18?  31.62 124.6    4 117  10  99
   2024 04 24 16:50  14 26 40.43    -26 30 54.1   417649 1.0086 165.9 Cm  18?  31.21 125.1    6 116  10  99
   2024 04 24 17:00  14 26 59.24    -26 33 54.3   417416 1.0086 165.8 Nm  18?  30.80 125.7    8 115  10  99
   2024 04 24 17:10  14 27 17.67    -26 36 54.4   417183 1.0086 165.8 Nm  18?  30.38 126.2   10 114  10  99
   2024 04 24 17:20  14 27 35.73    -26 39 54.5   416950 1.0086 165.7 Nm  18?  29.96 126.8   12 114  10  99
   2024 04 24 17:30  14 27 53.42    -26 42 54.3   416717 1.0086 165.7 Am  18?  29.54 127.3   14 113  10  99
   2024 04 24 17:40  14 28 10.73    -26 45 53.9   416485 1.0086 165.6 Am  18?  29.11 127.9   16 112  10  99
   2024 04 24 17:50  14 28 27.66    -26 48 53.0   416254 1.0086 165.5  m  18?  28.68 128.4   18 112  10  99
   2024 04 24 18:00  14 28 44.23    -26 51 51.7   416024 1.0086 165.5  m  18?  28.25 129.0   20 111  10  99
   2024 04 24 18:10  14 29 00.42    -26 54 49.7   415797 1.0086 165.4  m  18?  27.82 129.5   22 110  10  99
   2024 04 24 18:20  14 29 16.25    -26 57 47.0   415572 1.0086 165.3  m  18?  27.39 130.1   24 110  10  99
   2024 04 24 18:30  14 29 31.71    -27 00 43.4   415349 1.0086 165.3  m  18?  26.96 130.6   26 109  10  99
   2024 04 24 18:40  14 29 46.81    -27 03 39.0   415130 1.0086 165.2  m  18?  26.53 131.1   28 109  10  99
   2024 04 24 18:50  14 30 01.55    -27 06 33.5   414914 1.0086 165.2  m  18?  26.10 131.7   31 108  10  99
   2024 04 24 19:00  14 30 15.95    -27 09 26.8   414702 1.0086 165.1  m  18?  25.67 132.2   33 108  10  99
   2024 04 24 19:10  14 30 30.00    -27 12 19.0   414494 1.0086 165.0  m  18?  25.24 132.7   35 107  10  99
   2024 04 24 19:20  14 30 43.72    -27 15 09.8   414291 1.0086 165.0  m  18?  24.82 133.1   37 107  10  99
   2024 04 24 19:30  14 30 57.11    -27 17 59.2   414092 1.0086 164.9  m  18?  24.40 133.6   39 107  10  99
   2024 04 24 19:40  14 31 10.18    -27 20 47.0   413899 1.0086 164.9  m  18?  23.98 134.0   41 106  10  99
   2024 04 24 19:50  14 31 22.94    -27 23 33.3   413711 1.0086 164.8  m  18?  23.57 134.4   44 106  10  99
   2024 04 24 20:00  14 31 35.40    -27 26 17.8   413530 1.0086 164.8  m  18?  23.16 134.8   46 106  10  99
   2024 04 24 20:10  14 31 47.57    -27 29 00.5   413354 1.0086 164.7  m  18?  22.76 135.2   48 106  10  99
   2024 04 24 20:20  14 31 59.46    -27 31 41.3   413185 1.0086 164.7  m  18?  22.36 135.5   50 105  10  99
   2024 04 24 20:30  14 32 11.08    -27 34 20.1   413023 1.0086 164.6  m  18?  21.97 135.8   52 105  10  99
   2024 04 24 20:40  14 32 22.44    -27 36 56.9   412867 1.0086 164.6  m  18?  21.58 136.0   54 105  10  99
   2024 04 24 20:50  14 32 33.57    -27 39 31.6   412719 1.0086 164.5  m  18?  21.20 136.2   57 105  10  99
   2024 04 24 21:00  14 32 44.46    -27 42 04.0   412578 1.0086 164.5  m  18?  20.83 136.4   59 105  10  99
   2024 04 24 21:10  14 32 55.14    -27 44 34.1   412446 1.0086 164.4  m  18?  20.47 136.5   61 105  10  99
   2024 04 24 21:20  14 33 05.62    -27 47 01.8   412321 1.0086 164.4  m  18?  20.12 136.6   63 106  10  99
   2024 04 24 21:30  14 33 15.91    -27 49 27.2   412204 1.0086 164.3  m  18?  19.77 136.6   65 106  10  99
   2024 04 24 21:40  14 33 26.04    -27 51 50.0   412096 1.0086 164.3  m  18?  19.44 136.6   67 107  10  99
   2024 04 24 21:50  14 33 36.00    -27 54 10.3   411996 1.0086 164.2  m  18?  19.11 136.5   70 108  10  99
   2024 04 24 22:00  14 33 45.83    -27 56 28.0   411904 1.0086 164.2  m  18?  18.80 136.4   72 109  10  99
   2024 04 24 22:10  14 33 55.54    -27 58 43.1   411822 1.0086 164.1  m  18?  18.50 136.1   74 111  10  99
   2024 04 24 22:20  14 34 05.14    -28 00 55.4   411748 1.0086 164.1  m  18?  18.21 135.9   76 114  10  99
   2024 04 24 22:30  14 34 14.65    -28 03 05.1   411684 1.0086 164.0  m  18?  17.94 135.5   78 117  10  99
   2024 04 24 22:40  14 34 24.09    -28 05 11.9   411628 1.0086 164.0  m  18?  17.68 135.1   80 122  10  99
   2024 04 24 22:50  14 34 33.47    -28 07 16.0   411582 1.0086 164.0  m  18?  17.43 134.6   82 131  10  99
   2024 04 24 23:00  14 34 42.82    -28 09 17.2   411545 1.0086 163.9  m  18?  17.21 134.0   83 143  10  99
   2024 04 24 23:10  14 34 52.15    -28 11 15.7   411517 1.0086 163.9  m  18?  17.00 133.4   84 163  10  99
   2024 04 24 23:20  14 35 01.48    -28 13 11.2   411498 1.0086 163.8  t  18?  16.81 132.6   84 187  10  99
   2024 04 24 23:30  14 35 10.82    -28 15 03.9   411489 1.0086 163.8  m  18?  16.64 131.8   84 208  10  99
   2024 04 24 23:40  14 35 20.20    -28 16 53.8   411489 1.0086 163.8  m  18?  16.49 131.0   82 223  10  99
   2024 04 24 23:50  14 35 29.63    -28 18 40.8   411497 1.0086 163.7  m  18?  16.36 130.0   81 232  10  98
   2024 04 25 00:00  14 35 39.13    -28 20 24.9   411515 1.0086 163.7  m  18?  16.25 129.0   79 239  10  98
   2024 04 25 00:10  14 35 48.72    -28 22 06.2   411542 1.0086 163.7  m  18?  16.17 128.0   77 243  10  98
   2024 04 25 00:20  14 35 58.41    -28 23 44.6   411578 1.0086 163.6  m  18?  16.12 126.9   75 246  10  98
   2024 04 25 00:30  14 36 08.23    -28 25 20.3   411623 1.0086 163.6  m  18?  16.09 125.7   72 248  10  98
   2024 04 25 00:40  14 36 18.19    -28 26 53.1   411677 1.0086 163.6  m  18?  16.08 124.5   70 249  10  98
   2024 04 25 00:50  14 36 28.30    -28 28 23.2   411739 1.0086 163.5  m  18?  16.11 123.3   68 250  10  98
   2024 04 25 01:00  14 36 38.58    -28 29 50.7   411809 1.0086 163.5  m  18?  16.16 122.0   66 251  10  98
   2024 04 25 01:10  14 36 49.06    -28 31 15.4   411888 1.0086 163.5  m  18?  16.24 120.8   64 251  10  98
   2024 04 25 01:20  14 36 59.74    -28 32 37.5   411975 1.0086 163.4  m  18?  16.35 119.5   62 252  10  98
   2024 04 25 01:30  14 37 10.63    -28 33 57.1   412069 1.0086 163.4  m  18?  16.49 118.2   60 252  10  98
   2024 04 25 01:40  14 37 21.77    -28 35 14.1   412171 1.0086 163.4  m  18?  16.65 116.9   57 252  10  98
   2024 04 25 01:50  14 37 33.16    -28 36 28.7   412281 1.0086 163.3  m  18?  16.85 115.7   55 252  10  98
   2024 04 25 02:00  14 37 44.81    -28 37 41.0   412398 1.0086 163.3  m  18?  17.07 114.4   53 252  10  98
   2024 04 25 02:10  14 37 56.73    -28 38 50.8   412521 1.0086 163.3  m  18?  17.31 113.2   51 252  10  98
   2024 04 25 02:20  14 38 08.95    -28 39 58.5   412651 1.0086 163.2  m  18?  17.59 112.1   49 252  10  98
   2024 04 25 02:30  14 38 21.47    -28 41 04.0   412788 1.0086 163.2  m  18?  17.88 111.0   47 252  10  98
   2024 04 25 02:40  14 38 34.31    -28 42 07.3   412930 1.0086 163.2  m  18?  18.21 109.9   45 251  10  98
   2024 04 25 02:50  14 38 47.48    -28 43 08.7   413078 1.0086 163.2  m  18?  18.55 108.9   42 251  10  98
   2024 04 25 03:00  14 39 00.98    -28 44 08.2   413232 1.0086 163.1  m  18?  18.92 107.9   40 251  10  98
   2024 04 25 03:10  14 39 14.83    -28 45 05.8   413391 1.0086 163.1  m  18?  19.30 106.9   38 250  10  98
   2024 04 25 03:20  14 39 29.04    -28 46 01.7   413554 1.0086 163.1  m  18?  19.71 106.1   36 250  10  98
   2024 04 25 03:30  14 39 43.62    -28 46 55.9   413722 1.0086 163.0  m  18?  20.13 105.2   34 249  10  98
   2024 04 25 03:40  14 39 58.56    -28 47 48.6   413893 1.0087 163.0  m  18?  20.57 104.5   32 249  10  98
   2024 04 25 03:50  14 40 13.90    -28 48 39.8   414069 1.0087 163.0  m  18?  21.02 103.8   30 248  10  98
   2024 04 25 04:00  14 40 29.62    -28 49 29.7   414248 1.0087 162.9 Am  18?  21.49 103.1   28 248  10  98
   2024 04 25 04:10  14 40 45.73    -28 50 18.3   414429 1.0087 162.9 Am  18?  21.97 102.5   26 247  10  98
   2024 04 25 04:20  14 41 02.24    -28 51 05.8   414614 1.0087 162.9 Am  18?  22.46 101.9   24 247  10  98
   2024 04 25 04:30  14 41 19.16    -28 51 52.3   414800 1.0087 162.8 Nm  18?  22.96 101.4   21 246  10  98
   2024 04 25 04:40  14 41 36.49    -28 52 37.8   414988 1.0087 162.8 Nm  18?  23.46 100.9   19 246  10  98
   2024 04 25 04:50  14 41 54.22    -28 53 22.5   415178 1.0087 162.8 Cm  18?  23.98 100.5   17 245  10  98
   2024 04 25 05:00  14 42 12.38    -28 54 06.4   415369 1.0087 162.7 Cm  18?  24.50 100.1   15 244  10  98
   ................
   2024 04 25 17:00  15 13 38.03    -30 36 04.3   414636 1.0087 157.8 N   18?  32.83 115.2    1 123  10  96
   2024 04 25 17:10  15 14 00.82    -30 38 25.2   414385 1.0087 157.8 N   18?  32.40 115.7    3 122  10  96
   2024 04 25 17:20  15 14 23.24    -30 40 46.5   414133 1.0087 157.7 N   18?  31.97 116.1    4 121  10  96
   2024 04 25 17:30  15 14 45.27    -30 43 07.9   413880 1.0087 157.6 Am  18?  31.52 116.5    6 120  10  96
   2024 04 25 17:40  15 15 06.92    -30 45 29.4   413625 1.0087 157.5 Am  18?  31.07 116.9    8 119  10  96
   2024 04 25 17:50  15 15 28.19    -30 47 50.9   413370 1.0087 157.4  m  18?  30.62 117.3   10 119  10  96
   2024 04 25 18:00  15 15 49.07    -30 50 12.3   413114 1.0087 157.4  m  18?  30.16 117.8   12 118  10  96
   2024 04 25 18:10  15 16 09.57    -30 52 33.3   412859 1.0087 157.3  m  18?  29.69 118.2   14 117  10  96
   2024 04 25 18:20  15 16 29.67    -30 54 54.0   412604 1.0087 157.2  m  18?  29.22 118.6   16 117  10  96
   2024 04 25 18:30  15 16 49.39    -30 57 14.2   412350 1.0087 157.2  m  18?  28.75 118.9   18 116  10  96
   2024 04 25 18:40  15 17 08.72    -30 59 33.8   412097 1.0087 157.1  m  18?  28.27 119.3   20 116  10  96
   2024 04 25 18:50  15 17 27.67    -31 01 52.6   411846 1.0087 157.0  m  18?  27.80 119.7   22 115  10  96
   2024 04 25 19:00  15 17 46.23    -31 04 10.6   411597 1.0087 157.0  m  18?  27.32 120.1   24 114  10  96
   2024 04 25 19:10  15 18 04.41    -31 06 27.6   411351 1.0087 156.9  m  18?  26.84 120.4   26 114  10  96
   2024 04 25 19:20  15 18 22.22    -31 08 43.6   411107 1.0087 156.8  m  18?  26.36 120.7   28 114  10  96
   2024 04 25 19:30  15 18 39.66    -31 10 58.3   410866 1.0087 156.8  m  18?  25.89 121.0   30 113  10  96
   2024 04 25 19:40  15 18 56.73    -31 13 11.8   410629 1.0087 156.7  m  18?  25.41 121.3   32 113  10  96
   2024 04 25 19:50  15 19 13.45    -31 15 23.8   410395 1.0087 156.6  m  18?  24.94 121.6   34 112  10  96
   2024 04 25 20:00  15 19 29.81    -31 17 34.3   410166 1.0087 156.6  m  18?  24.47 121.8   37 112  10  96
   2024 04 25 20:10  15 19 45.83    -31 19 43.1   409941 1.0087 156.5  m  18?  24.00 122.0   39 112  10  96
   2024 04 25 20:20  15 20 01.51    -31 21 50.2   409721 1.0087 156.5  m  18?  23.54 122.2   41 112  10  96
   2024 04 25 20:30  15 20 16.86    -31 23 55.4   409506 1.0087 156.4  m  18?  23.09 122.4   43 112  10  96
   2024 04 25 20:40  15 20 31.90    -31 25 58.7   409296 1.0087 156.3  m  18?  22.63 122.5   45 112  10  96
   2024 04 25 20:50  15 20 46.64    -31 27 59.8   409092 1.0087 156.3  m  18?  22.19 122.6   47 111  10  96
   2024 04 25 21:00  15 21 01.08    -31 29 58.9   408894 1.0087 156.2  m  18?  21.75 122.6   49 112  10  96
   2024 04 25 21:10  15 21 15.23    -31 31 55.6   408703 1.0087 156.2  m  18?  21.33 122.6   51 112  10  96
   2024 04 25 21:20  15 21 29.12    -31 33 50.0   408517 1.0087 156.1  m  18?  20.91 122.6   53 112  10  96
   2024 04 25 21:30  15 21 42.74    -31 35 42.0   408339 1.0087 156.1  m  18?  20.50 122.5   55 112  10  96
   2024 04 25 21:40  15 21 56.12    -31 37 31.4   408168 1.0087 156.0  m  18?  20.10 122.4   57 113  10  96
   2024 04 25 21:50  15 22 09.28    -31 39 18.2   408004 1.0087 156.0  m  18?  19.71 122.2   59 113  10  96
   2024 04 25 22:00  15 22 22.21    -31 41 02.3   407847 1.0087 155.9  m  18?  19.34 121.9   61 114  10  96
   2024 04 25 22:10  15 22 34.95    -31 42 43.7   407698 1.0087 155.9  m  18?  18.98 121.6   64 115  10  96
   2024 04 25 22:20  15 22 47.50    -31 44 22.2   407557 1.0087 155.8  m  18?  18.63 121.2   66 116  10  96
   2024 04 25 22:30  15 22 59.89    -31 45 57.8   407424 1.0087 155.8  m  18?  18.30 120.8   68 118  10  96
   2024 04 25 22:40  15 23 12.12    -31 47 30.5   407299 1.0087 155.8  m  18?  17.99 120.3   70 120  10  96
   2024 04 25 22:50  15 23 24.21    -31 49 00.2   407182 1.0087 155.7  m  18?  17.69 119.7   71 122  10  96
   2024 04 25 23:00  15 23 36.19    -31 50 26.8   407074 1.0087 155.7  m  18?  17.42 119.1   73 125   9  96
   

Titan-3C RB (JPL-ID: -102770)

   Date (UTC) HH:MM   RA              Dec         delta   r     elong SM  mag  '/hr    PA   alt  az moo ill
   ---- -- -- -----  -------------   -----------  ------ ------ ----- --  --- ------ ------ --- --- --- ---
   2024 04 14 03:50  12 57 20.42    +05 52 09.5    12368 1.0031 162.6     10? 6964.9  75.1    5 278  94  33
   2024 04 14 04:00  14 10 04.46    +10 38 30.5    12667 1.0031 157.6 A   10? 6331.5  75.3   16 289 107  33
   2024 04 14 04:10  15 14 29.19    +14 32 58.9    13622 1.0031 144.7 A   10? 5295.2  76.8   26 300 117  33
   2024 04 14 04:20  16 08 17.61    +17 20 36.9    15033 1.0031 132.6 N   10? 4250.9  78.7   32 310 123  34
   2024 04 14 04:30  16 52 04.40    +19 12 34.1    16720 1.0031 122.6 N   10? 3385.1  80.7   36 319 127  34
   2024 04 14 04:40  17 27 34.43    +20 25 29.2    18558 1.0031 114.4 N   10? 2720.6  82.5   39 326 129  34
   2024 04 14 04:50  17 56 36.86    +21 12 42.9    20466 1.0031 107.8 C   10? 2221.8  84.0   40 332 129  34
   2024 04 14 05:00  18 20 41.87    +21 43 14.9    22397 1.0031 102.3 C   10? 1846.4  85.3   41 336 129  34
   ................
   2024 04 15 04:20  00 31 30.77    +14 32 10.0   119107 1.0025  15.9 N   15?  78.59  94.4    0  73  94  43
   2024 04 15 04:30  00 32 24.25    +14 31 09.0   118816 1.0025  15.7 N   15?  77.13  94.6    2  72  94  43
   2024 04 15 04:40  00 33 16.71    +14 30 06.5   118518 1.0025  15.5 N   15?  75.69  94.8    4  71  94  44
   2024 04 15 04:50  00 34 08.17    +14 29 02.4   118213 1.0025  15.3 C   15?  74.26  95.0    6  71  93  44
   2024 04 15 05:00  00 34 58.63    +14 27 56.5   117903 1.0026  15.1 C   15?  72.85  95.3    8  70  93  44
   ................
   2024 04 16 02:50  12 10 22.43    +03 03 28.7    11413 1.0036 154.6  r  10? 7623.7  75.8    7 276  61  52
   2024 04 16 03:00  13 32 15.40    +08 24 26.2    11304 1.0037 161.4     10? 7361.9  75.1   21 289  77  52
   2024 04 16 03:10  14 47 27.64    +13 09 17.2    12024 1.0036 150.9     10? 6275.8  76.2   31 303  92  52
   2024 04 16 03:20  15 50 31.18    +16 35 55.9    13352 1.0036 137.6     10? 4978.9  78.2   38 317 103  53
   2024 04 16 03:30  16 41 00.55    +18 50 53.2    15047 1.0036 126.2     10? 3872.0  80.4   42 329 112  53
   2024 04 16 03:40  17 21 02.57    +20 15 57.5    16934 1.0036 117.2     10? 3037.2  82.3   43 339 118  53
   2024 04 16 03:50  17 53 05.48    +21 09 27.3    18907 1.0036 109.9     10? 2429.0  83.9   44 346 122  53
   2024 04 16 04:00  18 19 11.13    +21 43 18.6    20905 1.0036 103.9 Ae  10? 1984.5  85.2   44 352 125  53
   2024 04 16 04:10  18 40 49.41    +22 04 46.2    22894 1.0036  99.0 A   10? 1654.3  86.3   44 355 127  53
   2024 04 16 04:20  18 59 04.73    +22 18 12.6    24856 1.0036  94.9 N   10? 1403.7  87.3   44 358 129  53
   2024 04 16 04:30  19 14 43.15    +22 26 18.7    26782 1.0036  91.3 Nt  10? 1209.5  88.1   44   0 130  53
   2024 04 16 04:40  19 28 18.07    +22 30 45.8    28667 1.0036  88.2 N   10? 1056.0  88.9   44   1 131  53
   2024 04 16 04:50  19 40 14.08    +22 32 39.6    30510 1.0036  85.5 C   10? 932.58  89.5   44   2 131  53
   2024 04 16 05:00  19 50 49.63    +22 32 43.7    32311 1.0036  83.1 C   10? 831.68  90.1   44   2 132  54
   ................
   2024 04 17 04:20  00 36 46.66    +14 16 27.7   118588 1.0031  16.2 N   15?  79.04  94.8    1  73 116  63
   2024 04 17 04:30  00 37 40.38    +14 15 20.3   118253 1.0031  16.0 N   15?  77.64  95.0    3  72 116  63
   2024 04 17 04:40  00 38 33.12    +14 14 11.4   117912 1.0031  15.8 N   15?  76.25  95.2    5  71 116  63
   2024 04 17 04:50  00 39 24.89    +14 13 00.7   117565 1.0031  15.6 C   15?  74.88  95.5    7  70 116  63
   2024 04 17 05:00  00 40 15.71    +14 11 48.1   117212 1.0031  15.4 C   15?  73.53  95.7    9  69 116  63
   ................
   2024 04 18 01:50  11 15 51.20    -00 15 11.3    10829 1.0042 141.5  r   9? 7929.5  77.3    8 273  28  70
   2024 04 18 02:00  12 45 09.81    +05 16 07.7    10197 1.0042 158.1     10? 8399.6  75.3   23 287  45  70
   2024 04 18 02:10  14 12 39.13    +10 55 59.7    10564 1.0042 157.1     10? 7515.8  75.7   36 304  64  70
   2024 04 18 02:20  15 27 33.02    +15 16 06.2    11746 1.0042 143.5      9? 5950.5  77.6   43 324  80  71
   2024 04 18 02:30  16 26 45.07    +18 04 18.1    13432 1.0042 130.6      9? 4511.8  79.9   46 340  93  71
   2024 04 18 02:40  17 12 31.16    +19 47 06.2    15374 1.0042 120.4  e   9? 3439.7  81.9   46 353 102  71
   2024 04 18 02:50  17 48 14.87    +20 49 58.5    17423 1.0042 112.3  t   9? 2684.5  83.6   45   2 109  71
   2024 04 18 03:00  18 16 44.04    +21 29 06.8    19500 1.0042 105.9     10? 2151.5  84.9   44   8 115  71
   2024 04 18 03:10  18 39 58.18    +21 53 51.8    21564 1.0042 100.6     10? 1767.1  86.0   43  12 119  71
   2024 04 18 03:20  18 59 19.49    +22 09 35.3    23593 1.0041  96.2     10? 1482.4  87.0   43  15 122  71
   2024 04 18 03:30  19 15 44.68    +22 19 26.6    25577 1.0041  92.5     10? 1266.0  87.8   42  17 125  71
   2024 04 18 03:40  19 29 53.61    +22 25 21.2    27512 1.0041  89.3     10? 1097.5  88.5   42  18 127  71
   2024 04 18 03:50  19 42 14.91    +22 28 31.7    29397 1.0041  86.5     10? 963.64  89.1   41  18 129  71
   2024 04 18 04:00  19 53 09.58    +22 29 45.5    31232 1.0041  84.0 A   10? 855.27  89.7   41  19 130  71
   2024 04 18 04:10  20 02 53.41    +22 29 34.4    33019 1.0041  81.8 A   10? 766.15  90.2   41  19 132  71
   2024 04 18 04:20  20 11 38.44    +22 28 20.2    34761 1.0041  79.8 A   11? 691.84  90.7   41  18 133  71
   2024 04 18 04:30  20 19 34.06    +22 26 18.4    36459 1.0041  78.0 N   11? 629.11  91.2   42  18 134  72
   2024 04 18 04:40  20 26 47.71    +22 23 39.8    38115 1.0041  76.3 N   11? 575.60  91.6   42  17 135  72
   2024 04 18 04:50  20 33 25.34    +22 20 32.6    39733 1.0041  74.8 C   11? 529.52  92.1   42  16 136  72
   2024 04 18 05:00  20 39 31.79    +22 17 02.6    41313 1.0040  73.4 C   11? 489.51  92.5   42  15 136  72
   ................
   2024 04 19 04:10  00 41 13.55    +14 01 18.6   118224 1.0036  16.7 Ar  15?  81.15  95.1    0  74 139  79
   2024 04 19 04:20  00 42 08.65    +14 00 05.5   117854 1.0036  16.5 A   15?  79.80  95.3    1  73 139  79
   2024 04 19 04:30  00 43 02.82    +13 58 50.8   117476 1.0036  16.3 N   15?  78.46  95.5    3  72 139  79
   2024 04 19 04:40  00 43 56.04    +13 57 34.4   117092 1.0036  16.0 N   15?  77.14  95.7    5  71 139  80
   2024 04 19 04:50  00 44 48.34    +13 56 16.2   116702 1.0036  15.8 C   15?  75.82  96.0    7  70 138  80
   2024 04 19 05:00  00 45 39.72    +13 54 55.9   116305 1.0037  15.6 C   15?  74.53  96.3    9  69 138  80
   ................
   2024 04 20 00:50  10 14 10.24    -03 42 37.2    10763 1.0047 125.5  r   9? 7601.1  80.2    7 268  18  85
   2024 04 20 01:00  11 45 30.16    +01 06 04.5     9508 1.0047 146.1  m   9? 9053.4  76.5   23 282  10  85
   2024 04 20 01:10  13 24 29.84    +07 22 55.0     9333 1.0047 159.9  m   9? 8953.3  75.4   39 302  32  85
   2024 04 20 01:20  14 54 15.54    +12 53 37.3    10225 1.0047 151.1  m   9? 7292.3  76.8   48 327  54  85
   2024 04 20 01:30  16 05 21.26    +16 33 54.1    11836 1.0047 136.7  e   9? 5418.2  79.0   49 351  71  86
   2024 04 20 01:40  16 58 57.48    +18 46 00.3    13814 1.0047 124.8  t   9? 3999.9  81.2   47   7  84  86
   2024 04 20 01:50  17 39 36.87    +20 04 58.2    15943 1.0047 115.7  m   9? 3033.2  82.9   44  16  93  86
   2024 04 20 02:00  18 11 15.16    +20 53 36.9    18109 1.0047 108.6  m   9? 2377.1  84.3   42  23 100  86
   2024 04 20 02:10  18 36 34.93    +21 24 33.3    20259 1.0047 102.8  m  10? 1919.7  85.4   40  27 106  86
   2024 04 20 02:20  18 57 23.23    +21 44 41.6    22367 1.0047  98.1     10? 1590.1  86.3   39  29 110  86
   2024 04 20 02:30  19 14 51.07    +21 57 56.0    24420 1.0047  94.1     10? 1344.9  87.1   37  31 114  86
   2024 04 20 02:40  19 29 46.71    +22 06 35.3    26416 1.0047  90.7     10? 1157.2  87.8   37  32 117  86
   2024 04 20 02:50  19 42 43.87    +22 12 05.0    28353 1.0047  87.8     10? 1010.0  88.4   36  33 120  86
   2024 04 20 03:00  19 54 06.78    +22 15 20.0    30232 1.0046  85.2     10? 892.11  89.0   36  33 122  86
   2024 04 20 03:10  20 04 13.30    +22 16 56.9    32057 1.0046  82.9     10? 795.93  89.5   36  33 124  86
   2024 04 20 03:20  20 13 16.88    +22 17 20.6    33830 1.0046  80.8     11? 716.26  89.9   36  33 126  86
   2024 04 20 03:30  20 21 27.87    +22 16 48.5    35554 1.0046  79.0     11? 649.35  90.4   36  32 127  86
   2024 04 20 03:40  20 28 54.37    +22 15 33.4    37231 1.0046  77.3     11? 592.51  90.8   37  32 129  86
   2024 04 20 03:50  20 35 42.84    +22 13 44.2    38865 1.0046  75.7     11? 543.72  91.2   37  31 130  86
   2024 04 20 04:00  20 41 58.47    +22 11 27.9    40457 1.0046  74.3 A   11? 501.45  91.6   38  30 131  86
   2024 04 20 04:10  20 47 45.51    +22 08 49.5    42011 1.0046  73.0 A   11? 464.55  92.0   38  29 133  86
   2024 04 20 04:20  20 53 07.49    +22 05 52.9    43529 1.0046  71.8 A   11? 432.10  92.3   39  28 134  86
   2024 04 20 04:30  20 58 07.33    +22 02 41.2    45012 1.0046  70.6 N   11? 403.39  92.7   39  27 134  86
   2024 04 20 04:40  21 02 47.53    +21 59 16.6    46463 1.0046  69.5 N   12? 377.84  93.1   40  25 135  86
   2024 04 20 04:50  21 07 10.18    +21 55 41.1    47884 1.0046  68.5 C   12? 355.00  93.5   40  24 136  87
   2024 04 20 05:00  21 11 17.10    +21 51 56.0    49277 1.0045  67.6 C   12? 334.48  93.8   41  22 137  87
   ................
   2024 04 21 04:10  00 46 42.87    +13 44 26.4   117304 1.0042  17.0 A   15?  82.27  95.6    0  74 160  92
   2024 04 21 04:20  00 47 38.66    +13 43 05.5   116891 1.0042  16.8 A   15?  80.98  95.8    2  73 160  92
   2024 04 21 04:30  00 48 33.55    +13 41 42.9   116471 1.0042  16.6 N   15?  79.71  96.0    4  72 160  92
   2024 04 21 04:40  00 49 27.55    +13 40 18.4   116044 1.0042  16.4 N   15?  78.44  96.3    6  71 160  92
   2024 04 21 04:50  00 50 20.66    +13 38 51.9   115610 1.0042  16.2 C   15?  77.20  96.5    8  70 160  92
   2024 04 21 05:00  00 51 12.90    +13 37 23.1   115171 1.0042  15.9 C   15?  75.97  96.8   10  69 160  92
   ................
   2024 04 21 23:50  09 12 14.49    -06 30 56.3    11226 1.0052 109.1  r   8? 6697.9  84.2    6 265  50  96
   2024 04 22 00:00  10 37 44.31    -03 20 28.2     9386 1.0052 129.3  m   9? 8828.0  79.3   22 276  29  96
   2024 04 22 00:10  12 22 07.35    +02 28 25.2     8515 1.0052 151.7  m   9?  10105  76.1   40 295   7  96
   2024 04 22 00:20  14 07 33.62    +09 04 47.9     8903 1.0052 158.6  m   9? 8989.2  76.0   52 326  26  96
   2024 04 22 00:30  15 34 14.56    +14 00 27.1    10313 1.0052 144.8  e   9? 6690.4  77.9   52 359  47  96
   2024 04 22 00:40  16 38 32.00    +16 59 54.4    12278 1.0052 131.0  t   9? 4784.5  80.1   47  18  63  96
   2024 04 22 00:50  17 25 49.23    +18 45 42.8    14473 1.0052 120.4  m   9? 3511.4  81.9   42  29  74  96
   2024 04 22 01:00  18 01 37.35    +19 50 28.6    16730 1.0052 112.3  m   9? 2681.8  83.3   38  35  83  96
   2024 04 22 01:10  18 29 41.50    +20 32 00.1    18974 1.0052 106.0  m   9? 2124.8  84.4   35  39  89  96
   2024 04 22 01:20  18 52 23.68    +20 59 39.8    21170 1.0052 100.8  m  10? 1735.4  85.4   33  41  94  96
   2024 04 22 01:30  19 11 14.23    +21 18 35.7    23303 1.0052  96.5  m  10? 1452.5  86.1   31  43  99  96
   2024 04 22 01:40  19 27 12.39    +21 31 45.6    25369 1.0052  92.9  m  10? 1239.8  86.8   30  44 102  96
   2024 04 22 01:50  19 40 58.45    +21 40 57.3    27368 1.0052  89.7  m  10? 1075.4  87.4   29  44 106  96
   2024 04 22 02:00  19 53 00.69    +21 47 19.8    29301 1.0052  87.0  m  10? 945.14  88.0   29  44 108  96
   2024 04 22 02:10  20 03 39.56    +21 51 38.4    31173 1.0052  84.5  m  10? 839.84  88.5   29  45 111  96
   2024 04 22 02:20  20 13 10.27    +21 54 24.3    32986 1.0052  82.4  m  10? 753.22  88.9   29  44 113  96
   2024 04 22 02:30  20 21 44.36    +21 55 59.2    34744 1.0052  80.4  m  11? 680.90  89.3   29  44 115  96
   2024 04 22 02:40  20 29 30.77    +21 56 38.9    36450 1.0052  78.6  m  11? 619.72  89.7   29  44 117  96
   2024 04 22 02:50  20 36 36.57    +21 56 34.7    38108 1.0051  77.0  m  11? 567.40  90.1   30  43 118  96
   2024 04 22 03:00  20 43 07.42    +21 55 55.3    39720 1.0051  75.5  m  11? 522.19  90.5   30  42 120  96
   2024 04 22 03:10  20 49 07.90    +21 54 47.2    41290 1.0051  74.1  m  11? 482.81  90.8   31  42 121  96
   2024 04 22 03:20  20 54 41.79    +21 53 15.3    42819 1.0051  72.9  m  11? 448.23  91.2   32  41 122  96
   2024 04 22 03:30  20 59 52.24    +21 51 23.4    44311 1.0051  71.7  m  11? 417.66  91.6   33  40 123  96
   2024 04 22 03:40  21 04 41.88    +21 49 14.7    45767 1.0051  70.6  m  11? 390.47  91.9   33  39 124  96
   2024 04 22 03:50  21 09 12.95    +21 46 51.4    47191 1.0051  69.6  m  12? 366.16  92.3   34  37 125  96
   2024 04 22 04:00  21 13 27.37    +21 44 15.5    48582 1.0051  68.6 A   12? 344.32  92.6   35  36 126  96
   2024 04 22 04:10  21 17 26.78    +21 41 28.5    49944 1.0051  67.7 A   12? 324.62  93.0   36  35 127  96
   2024 04 22 04:20  21 21 12.62    +21 38 31.6    51278 1.0051  66.8 A   12? 306.78  93.3   37  33 128  96
   2024 04 22 04:30  21 24 46.13    +21 35 25.8    52586 1.0051  66.0 N   12? 290.56  93.7   38  32 129  96
   2024 04 22 04:40  21 28 08.40    +21 32 11.9    53869 1.0051  65.2 N   12? 275.78  94.0   38  30 129  96
   2024 04 22 04:50  21 31 20.43    +21 28 50.6    55128 1.0050  64.5 C   12? 262.27  94.4   39  28 130  96
   2024 04 22 05:00  21 34 23.05    +21 25 22.5    56365 1.0050  63.8 C   12? 249.90  94.8   40  26 131  96
   ................
   2024 04 23 04:10  00 52 20.87    +13 27 04.9   116142 1.0047  17.4 Am  15?  83.90  96.0    1  74 171  99
   2024 04 23 04:20  00 53 17.69    +13 25 35.8   115686 1.0047  17.2 Am  15?  82.68  96.3    3  73 171  99
   2024 04 23 04:30  00 54 13.65    +13 24 04.8   115222 1.0047  16.9 Nm  15?  81.48  96.5    5  72 171  99
   2024 04 23 04:40  00 55 08.77    +13 22 31.8   114752 1.0047  16.7 Nm  15?  80.28  96.7    7  71 171  99
   2024 04 23 04:50  00 56 03.05    +13 20 56.5   114275 1.0047  16.5 C   15?  79.11  97.0    9  70 171  99
   2024 04 23 05:00  00 56 56.49    +13 19 18.9   113792 1.0047  16.3 C   15?  77.95  97.3   11  69 172  99
   ................
   2024 04 23 22:50  08 18 31.84    -08 12 58.3    12005 1.0057  94.6  r   8? 5651.2  88.4    6 263  84  99
   2024 04 23 23:00  09 33 14.20    -06 50 23.2     9765 1.0057 112.5  m   8? 7848.3  83.4   20 271  66  99
   2024 04 23 23:10  11 13 30.68    -02 45 24.1     8239 1.0058 136.0  m   9?  10279  78.5   39 286  43  99
   2024 04 23 23:20  13 09 36.88    +03 56 17.0     7960 1.0058 158.0  m   9?  10617  76.1   55 319  22  99
   2024 04 23 23:30  14 53 45.14    +10 14 00.0     8998 1.0058 154.1  t   9? 8296.5  76.8   56   4  27  99
   2024 04 23 23:40  16 11 28.62    +14 20 43.0    10868 1.0058 138.8  m   9? 5810.6  78.7   48  28  42  99
   2024 04 23 23:50  17 07 05.64    +16 46 53.5    13100 1.0058 126.5  m   9? 4124.9  80.5   40  39  54  99
   2024 04 24 00:00  17 48 00.94    +18 16 09.3    15441 1.0058 117.2  m   9? 3064.9  81.9   34  45  64  99
   2024 04 24 00:10  18 19 24.12    +19 13 44.9    17779 1.0058 110.0  m   9? 2379.8  83.1   29  48  71  99
   2024 04 24 00:20  18 44 23.42    +19 52 44.4    20067 1.0058 104.3  m  10? 1915.5  84.0   26  50  76  99
   2024 04 24 00:30  19 04 53.74    +20 20 07.3    22285 1.0058  99.6  m  10? 1586.2  84.8   24  52  81  99
   2024 04 24 00:40  19 22 07.87    +20 39 51.5    24427 1.0057  95.6  m  10? 1343.1  85.6   23  53  85  99
   2024 04 24 00:50  19 36 53.91    +20 54 20.4    26494 1.0057  92.2  m  10? 1157.9  86.2   21  53  88  99
   2024 04 24 01:00  19 49 44.93    +21 05 04.8    28487 1.0057  89.3  m  10? 1012.8  86.7   21  53  91  99
   2024 04 24 01:10  20 01 04.44    +21 13 04.6    30412 1.0057  86.7  m  10? 896.47  87.2   21  53  94  99
   2024 04 24 01:20  20 11 09.67    +21 19 00.6    32272 1.0057  84.4  m  10? 801.48  87.7   20  53  96  99
   2024 04 24 01:30  20 20 13.55    +21 23 21.6    34071 1.0057  82.3  m  10? 722.62  88.1   21  53  98  99
   2024 04 24 01:40  20 28 26.02    +21 26 28.4    35812 1.0057  80.4  m  11? 656.23  88.5   21  53 100  99
   2024 04 24 01:50  20 35 54.84    +21 28 36.4    37501 1.0057  78.7  m  11? 599.65  88.9   21  52 102  99
   2024 04 24 02:00  20 42 46.21    +21 29 56.9    39139 1.0057  77.1  m  11? 550.93  89.3   22  52 103  99
   2024 04 24 02:10  20 49 05.13    +21 30 38.6    40731 1.0057  75.7  m  11? 508.57  89.6   23  51 105  99
   2024 04 24 02:20  20 54 55.68    +21 30 48.3    42279 1.0057  74.3  m  11? 471.44  89.9   23  51 106  99
   2024 04 24 02:30  21 00 21.24    +21 30 31.1    43786 1.0057  73.1  m  11? 438.66  90.3   24  50 107  99
   2024 04 24 02:40  21 05 24.65    +21 29 51.3    45254 1.0056  71.9  m  11? 409.53  90.6   25  49 108  99
   2024 04 24 02:50  21 10 08.30    +21 28 52.0    46685 1.0056  70.9  m  12? 383.50  90.9   26  48 109  99
   2024 04 24 03:00  21 14 34.22    +21 27 35.8    48082 1.0056  69.8  m  12? 360.11  91.2   27  47 110  99
   2024 04 24 03:10  21 18 44.16    +21 26 04.9    49447 1.0056  68.9  m  12? 339.00  91.6   28  46 111  99
   2024 04 24 03:20  21 22 39.65    +21 24 20.9    50781 1.0056  68.0  m  12? 319.87  91.9   29  45 112  99
   2024 04 24 03:30  21 26 21.99    +21 22 25.3    52086 1.0056  67.1  m  12? 302.46  92.2   30  44 113  99
   2024 04 24 03:40  21 29 52.35    +21 20 19.2    53364 1.0056  66.3  m  12? 286.57  92.5   31  43 114  99
   2024 04 24 03:50  21 33 11.75    +21 18 03.5    54616 1.0056  65.6  m  12? 272.03  92.9   32  41 114  99
   2024 04 24 04:00  21 36 21.09    +21 15 39.0    55844 1.0056  64.8 Am  12? 258.68  93.2   33  40 115  99
   2024 04 24 04:10  21 39 21.17    +21 13 06.4    57048 1.0056  64.2 Am  12? 246.40  93.6   34  38 116  99
   2024 04 24 04:20  21 42 12.72    +21 10 26.1    58231 1.0056  63.5 Am  12? 235.08  93.9   35  37 116  99
   2024 04 24 04:30  21 44 56.40    +21 07 38.6    59393 1.0056  62.9 Nm  12? 224.63  94.3   36  35 117  99
   2024 04 24 04:40  21 47 32.79    +21 04 44.4    60535 1.0056  62.3 Nm  12? 214.96  94.7   37  33 117  99
   2024 04 24 04:50  21 50 02.42    +21 01 43.7    61658 1.0056  61.7 Cm  12? 206.00  95.0   38  31 118  99
   2024 04 24 05:00  21 52 25.78    +20 58 36.8    62764 1.0055  61.2 Cm  12? 197.70  95.4   39  29 118  99
   ................
   2024 04 25 04:00  00 57 08.50    +13 10 56.1   115218 1.0053  18.0 Ar  15?  87.25  96.3    0  75 150  98
   2024 04 25 04:10  00 58 07.54    +13 09 20.3   114725 1.0053  17.8 Am  15?  86.10  96.5    1  74 150  98
   2024 04 25 04:20  00 59 05.77    +13 07 42.6   114224 1.0053  17.5 Am  15?  84.96  96.7    3  73 150  98
   2024 04 25 04:30  01 00 03.19    +13 06 02.8   113716 1.0053  17.3 Nm  15?  83.83  96.9    5  72 151  98
   2024 04 25 04:40  01 00 59.82    +13 04 20.8   113201 1.0053  17.1 Nm  15?  82.72  97.2    7  72 151  98
   2024 04 25 04:50  01 01 55.65    +13 02 36.5   112680 1.0053  16.9 Cm  15?  81.63  97.5    9  71 151  98
   2024 04 25 05:00  01 02 50.71    +13 00 49.6   112153 1.0053  16.7 Cm  15?  80.55  97.7   11  70 151  98
   ................
   2024 04 25 21:40  06 50 52.79    -08 16 38.2    15363 1.0062  72.0  r   9? 3577.6  95.4    0 261 123  96
   2024 04 25 21:50  07 37 20.10    -09 00 48.6    12788 1.0062  83.2  m   8? 4801.6  92.1    9 264 113  96
   2024 04 25 22:00  08 41 30.21    -08 57 02.0    10351 1.0063  98.6  m   8? 6759.3  87.7   21 269  99  96
   2024 04 25 22:10  10 12 06.96    -06 53 05.8     8391 1.0063 120.2  m   8? 9557.2  82.2   39 280  80  96
   2024 04 25 22:20  12 09 52.70    -01 29 20.4     7484 1.0063 147.0  m   9?  11492  77.6   58 310  55  96
   2024 04 25 22:30  14 08 40.15    +05 32 53.5     8041 1.0063 160.9  t   9? 9920.2  76.2   61   8  36  96
   2024 04 25 22:40  15 40 42.12    +10 54 19.7     9731 1.0063 147.5  m   9? 6970.3  77.3   48  38  34  96
   2024 04 25 22:50  16 45 27.19    +14 11 59.1    11960 1.0063 133.4  m   9? 4817.4  78.9   37  48  40  96
   2024 04 25 23:00  17 31 54.03    +16 13 30.6    14368 1.0063 122.8  m   9? 3491.0  80.3   29  54  47  96
   2024 04 25 23:10  18 06 49.33    +17 32 23.8    16793 1.0063 114.7  m   9? 2661.3  81.5   23  56  54  96
   2024 04 25 23:20  18 34 14.37    +18 26 21.4    19168 1.0063 108.4  m  10? 2114.3  82.5   19  58  59  96
   2024 04 25 23:30  18 56 31.20    +19 04 48.4    21469 1.0063 103.2  m  10? 1734.3  83.4   16  59  63  96
   2024 04 25 23:40  19 15 07.09    +19 33 03.4    23687 1.0063  98.9  m  10? 1458.3  84.1   14  60  67  95
   2024 04 25 23:50  19 30 58.34    +19 54 17.6    25821 1.0063  95.3  m  10? 1250.6  84.8   13  60  70  95
   2024 04 26 00:00  19 44 42.96    +20 10 31.6    27876 1.0063  92.1  m  10? 1089.3  85.4   12  61  73  95
   2024 04 26 00:10  19 56 47.60    +20 23 05.3    29855 1.0063  89.3  m  10? 961.12  85.9   12  61  75  95
   2024 04 26 00:20  20 07 31.55    +20 32 53.2    31763 1.0063  86.8  m  10? 857.05  86.4   11  61  77  95
   2024 04 26 00:30  20 17 09.19    +20 40 33.8    33605 1.0062  84.6  m  10? 771.08  86.8   11  60  79  95
   2024 04 26 00:40  20 25 51.47    +20 46 34.7    35386 1.0062  82.6  m  11? 699.01  87.3   12  60  81  95
   2024 04 26 00:50  20 33 46.91    +20 51 16.6    37108 1.0062  80.8  m  11? 637.80  87.7   12  60  83  95
   2024 04 26 01:00  20 41 02.26    +20 54 54.8    38777 1.0062  79.1  m  11? 585.23  88.0   13  60  84  95
   2024 04 26 01:10  20 47 42.94    +20 57 41.1    40395 1.0062  77.6  m  11? 539.64  88.4   13  59  86  95
   2024 04 26 01:20  20 53 53.36    +20 59 44.5    41966 1.0062  76.2  m  11? 499.76  88.7   14  59  87  95
   2024 04 26 01:30  20 59 37.17    +21 01 12.2    43492 1.0062  74.8  m  11? 464.59  89.0   15  58  88  95
   2024 04 26 01:40  21 04 57.40    +21 02 09.7    44976 1.0062  73.6  m  11? 433.38  89.3   16  57  89  95
   2024 04 26 01:50  21 09 56.62    +21 02 41.5    46421 1.0062  72.5  m  11? 405.49  89.6   17  57  90  95
   2024 04 26 02:00  21 14 36.98    +21 02 51.2    47828 1.0062  71.4  m  12? 380.45  89.9   18  56  91  95
   2024 04 26 02:10  21 19 00.36    +21 02 41.8    49201 1.0062  70.4  m  12? 357.84  90.2   19  55  92  95
   2024 04 26 02:20  21 23 08.36    +21 02 15.5    50540 1.0062  69.4  m  12? 337.35  90.5   20  54  93  95
   2024 04 26 02:30  21 27 02.37    +21 01 34.2    51848 1.0061  68.5  m  12? 318.69  90.8   21  53  94  95
   2024 04 26 02:40  21 30 43.61    +21 00 39.7    53126 1.0061  67.7  m  12? 301.64  91.1   22  52  94  95
   2024 04 26 02:50  21 34 13.16    +20 59 33.1    54376 1.0061  66.9  m  12? 286.02  91.3   23  51  95  95
   2024 04 26 03:00  21 37 31.96    +20 58 15.6    55600 1.0061  66.1  m  12? 271.65  91.6   25  50  96  95
   2024 04 26 03:10  21 40 40.87    +20 56 48.1    56798 1.0061  65.4  m  12? 258.41  92.0   26  49  96  95
   2024 04 26 03:20  21 43 40.63    +20 55 11.3    57972 1.0061  64.7  m  12? 246.17  92.3   27  48  97  95
   2024 04 26 03:30  21 46 31.93    +20 53 25.8    59123 1.0061  64.1  m  12? 234.84  92.6   28  47  98  95
   2024 04 26 03:40  21 49 15.37    +20 51 32.1    60252 1.0061  63.4  m  12? 224.33  92.9   30  45  98  95
   2024 04 26 03:50  21 51 51.52    +20 49 30.8    61362 1.0061  62.8  m  12? 214.57  93.3   31  44  99  95
   2024 04 26 04:00  21 54 20.87    +20 47 22.2    62451 1.0061  62.3 Am  12? 205.48  93.6   32  42  99  95
   2024 04 26 04:10  21 56 43.90    +20 45 06.5    63522 1.0061  61.7 Am  12? 197.02  94.0   33  41  99  95
   2024 04 26 04:20  21 59 01.02    +20 42 44.1    64576 1.0061  61.2 Am  13? 189.13  94.3   34  39 100  95
   2024 04 26 04:30  22 01 12.63    +20 40 15.2    65613 1.0061  60.7 Nm  13? 181.77  94.7   36  37 100  95
   2024 04 26 04:40  22 03 19.07    +20 37 40.0    66634 1.0061  60.2 Nm  13? 174.90  95.1   37  36 101  95
   2024 04 26 04:50  22 05 20.70    +20 34 58.6    67640 1.0061  59.7 Cm  13? 168.48  95.5   38  34 101  95
   2024 04 26 05:00  22 07 17.82    +20 32 11.3    68633 1.0060  59.3 Cm  13? 162.49  95.9   39  32 101  95
   ................
   2024 04 27 04:00  01 03 01.31    +12 52 51.2   113583 1.0058  18.4 Am  15?  89.96  96.7    0  75 126  90
   2024 04 27 04:10  01 04 02.08    +12 51 06.3   113044 1.0058  18.2 Am  15?  88.89  96.9    2  74 126  90
   2024 04 27 04:20  01 05 02.10    +12 49 19.4   112497 1.0058  17.9 Am  15?  87.84  97.1    4  73 126  90
   2024 04 27 04:30  01 06 01.37    +12 47 30.2   111943 1.0058  17.7 Nm  15?  86.80  97.3    6  73 127  90
   2024 04 27 04:40  01 06 59.91    +12 45 38.5   111383 1.0058  17.5 Nm  15?  85.78  97.6    8  72 127  90
   2024 04 27 04:50  01 07 57.72    +12 43 44.2   110815 1.0058  17.3 Cm  15?  84.78  97.9   10  71 127  90
   2024 04 27 05:00  01 08 54.81    +12 41 47.2   110242 1.0058  17.0 Cm  15?  83.80  98.2   12  70 127  90
   ................
   2024 04 27 20:30  05 56 02.33    -07 01 59.5    18452 1.0067  57.2  m  10? 2492.5  99.7    1 263 144  84
   2024 04 27 20:40  06 27 10.49    -08 12 09.7    15932 1.0067  64.8  m   9? 3170.9  97.8    7 264 141  84
   2024 04 27 20:50  07 08 01.66    -09 19 17.5    13371 1.0067  74.8  m   9? 4221.4  95.1   14 265 136  84
   2024 04 27 21:00  08 04 22.99    -10 03 46.5    10876 1.0068  88.3  m   8? 5933.1  91.3   25 269 127  84
   2024 04 27 21:10  09 25 34.28    -09 31 44.8     8703 1.0068 107.7  m   8? 8642.1  86.0   41 278 112  84
   2024 04 27 21:20  11 18 51.64    -05 58 54.7     7372 1.0068 134.3  m   8?  11500  80.1   62 304  90  84
   2024 04 27 21:30  13 25 58.38    +00 45 10.0     7482 1.0068 159.7  t   9?  11117  76.5   65  15  65  84
   2024 04 27 21:40  15 10 13.99    +07 04 42.5     8951 1.0068 155.6  m   9? 8044.6  76.3   47  47  49  84
   2024 04 27 21:50  16 23 24.86    +11 15 51.9    11146 1.0068 140.5  m   9? 5484.2  77.5   33  57  42  84
   2024 04 27 22:00  17 14 59.70    +13 53 32.4    13600 1.0068 128.7  m   9? 3905.0  78.7   23  61  42  84
   2024 04 27 22:10  17 53 13.11    +15 36 53.9    16098 1.0068 119.8  m  10? 2937.5  79.9   16  64  43  84
   2024 04 27 22:20  18 22 56.04    +16 48 11.6    18551 1.0068 112.9  m  10? 2311.7  80.9   12  65  46  84
   2024 04 27 22:30  18 46 55.36    +17 39 27.1    20926 1.0068 107.3  m  10? 1883.4  81.8    8  66  49  84
   2024 04 27 22:40  19 06 51.26    +18 17 29.8    23212 1.0068 102.6  m  10? 1575.8  82.6    6  66  51  84
   2024 04 27 22:50  19 23 47.35    +18 46 26.3    25409 1.0068  98.7  m  10? 1346.0  83.4    4  67  53  84
   2024 04 27 23:00  19 38 26.01    +19 08 52.7    27520 1.0068  95.3  m  10? 1169.0  84.0    3  67  55  84
   2024 04 27 23:10  19 51 16.69    +19 26 32.3    29551 1.0068  92.3  m  10? 1029.0  84.6    2  67  57  84
   2024 04 27 23:20  20 02 40.58    +19 40 36.1    31505 1.0068  89.6  m  10? 915.82  85.1    2  67  59  84
   2024 04 27 23:30  20 12 53.38    +19 51 54.1    33390 1.0068  87.3  m  10? 822.71  85.6    2  67  61  84
   2024 04 27 23:40  20 22 06.99    +20 01 02.6    35208 1.0068  85.1  m  11? 744.91  86.1    2  66  62  84
   2024 04 27 23:50  20 30 30.64    +20 08 28.2    36965 1.0068  83.2  m  11? 679.02  86.5    2  66  64  84
   2024 04 28 00:00  20 38 11.60    +20 14 31.0    38664 1.0068  81.4  m  11? 622.57  86.9    3  66  65  84
   

Gaia (JPL-ID: -139479)

   Date (UTC) HH:MM   RA              Dec         delta   r     elong SM  mag  '/hr    PA   alt  az moo ill
   ---- -- -- -----  -------------   -----------  ------ ------ ----- --  --- ------ ------ --- --- --- ---
   2024 04 14 00:00  13 23 31.03    -02 03 47.5   0.0107 1.0136 172.5     21?   1.88 255.1   62 318 106  31
   2024 04 14 00:10  13 23 29.83    -02 03 52.3   0.0107 1.0136 172.5     21?   1.83 254.9   61 313 106  31
   2024 04 14 00:20  13 23 28.67    -02 03 57.0   0.0107 1.0136 172.5     21?   1.78 254.6   59 310 106  31
   2024 04 14 00:30  13 23 27.54    -02 04 01.7   0.0107 1.0136 172.5     21?   1.72 254.2   57 306 106  31
   2024 04 14 00:40  13 23 26.46    -02 04 06.3   0.0107 1.0136 172.5     21?   1.66 253.7   55 303 106  31
   2024 04 14 00:50  13 23 25.42    -02 04 10.9   0.0107 1.0136 172.5     21?   1.59 253.2   53 301 106  32
   2024 04 14 01:00  13 23 24.43    -02 04 15.5   0.0107 1.0136 172.5     21?   1.51 252.5   51 298 106  32
   2024 04 14 01:10  13 23 23.49    -02 04 20.0   0.0107 1.0136 172.5     21?   1.44 251.7   49 296 106  32
   2024 04 14 01:20  13 23 22.61    -02 04 24.4   0.0107 1.0136 172.4     21?   1.35 250.8   47 294 106  32
   2024 04 14 01:30  13 23 21.79    -02 04 28.8   0.0107 1.0136 172.4     21?   1.26 249.6   45 292 105  32
   2024 04 14 01:40  13 23 21.03    -02 04 33.2   0.0107 1.0136 172.4     21?   1.17 248.1   43 290 105  32
   2024 04 14 01:50  13 23 20.34    -02 04 37.6   0.0107 1.0136 172.4     21?   1.08 246.3   41 288 105  32
   2024 04 14 02:00  13 23 19.71    -02 04 41.8   0.0107 1.0137 172.4     21?   0.98 244.0   39 287 105  32
   2024 04 14 02:10  13 23 19.16    -02 04 46.1   0.0107 1.0137 172.4     21?   0.88 241.1   36 285 105  32
   2024 04 14 02:20  13 23 18.68    -02 04 50.3   0.0107 1.0137 172.4     21?   0.78 237.3   34 284 105  32
   2024 04 14 02:30  13 23 18.28    -02 04 54.5   0.0107 1.0137 172.4     21?   0.68 232.2   32 282 105  32
   2024 04 14 02:40  13 23 17.96    -02 04 58.7   0.0107 1.0137 172.4     21?   0.59 225.3   30 281 105  33
   2024 04 14 02:50  13 23 17.72    -02 05 02.8   0.0107 1.0137 172.4     21?   0.51 215.6   27 280 104  33
   2024 04 14 03:00  13 23 17.57    -02 05 06.9   0.0107 1.0137 172.4     21?   0.44 202.2   25 279 104  33
   2024 04 14 03:10  13 23 17.50    -02 05 11.0   0.0107 1.0137 172.4     21?   0.41 185.2   23 278 104  33
   2024 04 14 03:20  13 23 17.52    -02 05 15.1   0.0107 1.0137 172.4     21?   0.42 166.8   21 276 104  33
   2024 04 14 03:30  13 23 17.63    -02 05 19.1   0.0107 1.0137 172.4     21?   0.46 150.3   18 275 104  33
   2024 04 14 03:40  13 23 17.83    -02 05 23.2   0.0107 1.0137 172.4     21?   0.54 137.5   16 274 104  33
   2024 04 14 03:50  13 23 18.12    -02 05 27.2   0.0107 1.0137 172.4     21?   0.65 128.3   14 273 104  33
   2024 04 14 04:00  13 23 18.50    -02 05 31.2   0.0107 1.0137 172.4 A   21?   0.76 121.6   11 272 104  33
   2024 04 14 04:10  13 23 18.98    -02 05 35.2   0.0107 1.0137 172.4 A   21?   0.88 116.8    9 271 103  33
   2024 04 14 04:20  13 23 19.55    -02 05 39.2   0.0107 1.0137 172.4 N   21?   1.01 113.1    7 270 103  34
   2024 04 14 04:30  13 23 20.22    -02 05 43.1   0.0107 1.0137 172.4 N   21?   1.14 110.2    4 269 103  34
   2024 04 14 04:40  13 23 20.98    -02 05 47.1   0.0107 1.0137 172.4 N   21?   1.28 108.0    2 268 103  34
   2024 04 14 04:50  13 23 21.84    -02 05 51.1   0.0107 1.0137 172.4 C   21?   1.42 106.2    0 267 103  34
   ................
   2024 04 14 16:50  13 26 06.35    -02 12 15.6   0.0107 1.0138 172.4 Cm  21?   1.48 116.9    1  91  98  38
   2024 04 14 17:00  13 26 07.19    -02 12 22.3   0.0107 1.0138 172.4 Cm  21?   1.35 119.7    3  91  98  39
   2024 04 14 17:10  13 26 07.92    -02 12 29.0   0.0107 1.0138 172.4 Nm  21?   1.23 123.0    5  90  97  39
   2024 04 14 17:20  13 26 08.56    -02 12 35.7   0.0107 1.0138 172.4 Nm  21?   1.11 127.0    8  89  97  39
   2024 04 14 17:30  13 26 09.11    -02 12 42.5   0.0107 1.0138 172.4 Nm  21?   1.00 131.8   10  88  97  39
   2024 04 14 17:40  13 26 09.56    -02 12 49.2   0.0107 1.0138 172.4 Am  21?   0.90 137.8   12  87  97  39
   2024 04 14 17:50  13 26 09.92    -02 12 55.8   0.0107 1.0138 172.4 Am  21?   0.81 145.0   15  86  97  39
   2024 04 14 18:00  13 26 10.18    -02 13 02.5   0.0107 1.0138 172.4  m  21?   0.74 153.7   17  84  97  39
   2024 04 14 18:10  13 26 10.35    -02 13 09.2   0.0107 1.0138 172.4  m  21?   0.69 163.8   19  83  97  39
   2024 04 14 18:20  13 26 10.44    -02 13 15.8   0.0107 1.0138 172.4  m  21?   0.67 174.9   21  82  97  39
   2024 04 14 18:30  13 26 10.43    -02 13 22.4   0.0107 1.0138 172.4  m  21?   0.67 186.2   24  81  97  39
   2024 04 14 18:40  13 26 10.34    -02 13 29.0   0.0107 1.0138 172.3  m  21?   0.69 197.0   26  80  97  39
   2024 04 14 18:50  13 26 10.16    -02 13 35.6   0.0107 1.0138 172.3  m  21?   0.73 206.5   28  79  97  39
   2024 04 14 19:00  13 26 09.90    -02 13 42.2   0.0107 1.0138 172.3  m  21?   0.79 214.5   31  78  97  39
   2024 04 14 19:10  13 26 09.56    -02 13 48.7   0.0107 1.0138 172.3  m  21?   0.86 221.1   33  76  97  39
   2024 04 14 19:20  13 26 09.14    -02 13 55.2   0.0107 1.0138 172.3  m  21?   0.94 226.6   35  75  97  39
   2024 04 14 19:30  13 26 08.65    -02 14 01.6   0.0107 1.0139 172.3  m  21?   1.02 231.0   37  73  97  39
   2024 04 14 19:40  13 26 08.08    -02 14 08.0   0.0107 1.0139 172.3  m  21?   1.11 234.7   39  72  97  39
   2024 04 14 19:50  13 26 07.44    -02 14 14.4   0.0107 1.0139 172.3  m  21?   1.19 237.7   42  70  97  39
   2024 04 14 20:00  13 26 06.73    -02 14 20.8   0.0107 1.0139 172.3  m  21?   1.28 240.2   44  69  97  39
   2024 04 14 20:10  13 26 05.96    -02 14 27.1   0.0107 1.0139 172.3  m  21?   1.36 242.4   46  67  96  39
   2024 04 14 20:20  13 26 05.13    -02 14 33.3   0.0107 1.0139 172.3  m  21?   1.43 244.2   48  65  96  39
   2024 04 14 20:30  13 26 04.24    -02 14 39.5   0.0107 1.0139 172.3  m  21?   1.51 245.7   50  63  96  39
   2024 04 14 20:40  13 26 03.29    -02 14 45.7   0.0107 1.0139 172.3  m  21?   1.58 247.1   52  60  96  40
   2024 04 14 20:50  13 26 02.30    -02 14 51.8   0.0107 1.0139 172.3  m  21?   1.65 248.2   54  58  96  40
   2024 04 14 21:00  13 26 01.25    -02 14 57.8   0.0107 1.0139 172.3  m  21?   1.71 249.2   56  55  96  40
   2024 04 14 21:10  13 26 00.17    -02 15 03.8   0.0107 1.0139 172.3  m  21?   1.77 250.1   58  52  96  40
   2024 04 14 21:20  13 25 59.04    -02 15 09.8   0.0107 1.0139 172.3  m  21?   1.82 250.9   60  48  96  40
   2024 04 14 21:30  13 25 57.88    -02 15 15.7   0.0107 1.0139 172.3  m  21?   1.86 251.5   61  44  96  40
   2024 04 14 21:40  13 25 56.68    -02 15 21.6   0.0107 1.0139 172.3  m  21?   1.90 252.1   63  40  96  40
   2024 04 14 21:50  13 25 55.46    -02 15 27.3   0.0107 1.0139 172.3     21?   1.94 252.6   64  35  96  40
   2024 04 14 22:00  13 25 54.21    -02 15 33.1   0.0107 1.0139 172.3     21?   1.97 253.1   66  30  96  40
   2024 04 14 22:10  13 25 52.94    -02 15 38.8   0.0107 1.0139 172.3     21?   1.99 253.4   67  24  96  40
   2024 04 14 22:20  13 25 51.66    -02 15 44.4   0.0107 1.0139 172.3     21?   2.01 253.8   68  18  95  40
   2024 04 14 22:30  13 25 50.36    -02 15 49.9   0.0107 1.0139 172.3     21?   2.02 254.0   68  12  95  40
   2024 04 14 22:40  13 25 49.06    -02 15 55.4   0.0107 1.0139 172.3     21?   2.03 254.3   69   5  95  40
   2024 04 14 22:50  13 25 47.76    -02 16 00.9   0.0107 1.0139 172.3  t  21?   2.03 254.4   69 358  95  40
   2024 04 14 23:00  13 25 46.46    -02 16 06.3   0.0107 1.0139 172.3     21?   2.02 254.5   68 351  95  40
   2024 04 14 23:10  13 25 45.16    -02 16 11.6   0.0107 1.0139 172.3     21?   2.01 254.6   68 344  95  41
   2024 04 14 23:20  13 25 43.87    -02 16 16.9   0.0107 1.0139 172.3     21?   1.99 254.6   67 337  95  41
   2024 04 14 23:30  13 25 42.60    -02 16 22.1   0.0107 1.0139 172.3     21?   1.97 254.6   66 331  95  41
   2024 04 14 23:40  13 25 41.34    -02 16 27.2   0.0107 1.0139 172.3     21?   1.94 254.6   65 326  95  41
   2024 04 14 23:50  13 25 40.11    -02 16 32.3   0.0107 1.0139 172.3     21?   1.90 254.4   64 321  95  41
   2024 04 15 00:00  13 25 38.90    -02 16 37.4   0.0107 1.0139 172.2     21?   1.86 254.2   62 316  94  41
   2024 04 15 00:10  13 25 37.72    -02 16 42.4   0.0107 1.0139 172.2     21?   1.81 254.0   61 312  94  41
   2024 04 15 00:20  13 25 36.58    -02 16 47.3   0.0107 1.0139 172.2     21?   1.75 253.7   59 309  94  41
   2024 04 15 00:30  13 25 35.48    -02 16 52.2   0.0107 1.0139 172.2     21?   1.69 253.3   57 306  94  41
   2024 04 15 00:40  13 25 34.42    -02 16 57.0   0.0107 1.0139 172.2     21?   1.63 252.8   55 303  94  41
   2024 04 15 00:50  13 25 33.40    -02 17 01.7   0.0107 1.0139 172.2     21?   1.56 252.2   53 300  94  41
   2024 04 15 01:00  13 25 32.43    -02 17 06.5   0.0107 1.0139 172.2     21?   1.48 251.5   51 297  94  41
   2024 04 15 01:10  13 25 31.52    -02 17 11.1   0.0107 1.0139 172.2     21?   1.40 250.6   49 295  94  42
   2024 04 15 01:20  13 25 30.67    -02 17 15.7   0.0107 1.0139 172.2     21?   1.32 249.5   47 293  94  42
   2024 04 15 01:30  13 25 29.87    -02 17 20.3   0.0107 1.0139 172.2     21?   1.23 248.2   45 291  93  42
   2024 04 15 01:40  13 25 29.14    -02 17 24.9   0.0107 1.0139 172.2     21?   1.14 246.6   43 289  93  42
   2024 04 15 01:50  13 25 28.47    -02 17 29.3   0.0107 1.0139 172.2     21?   1.05 244.6   40 288  93  42
   2024 04 15 02:00  13 25 27.88    -02 17 33.8   0.0107 1.0139 172.2     21?   0.95 242.1   38 286  93  42
   2024 04 15 02:10  13 25 27.35    -02 17 38.2   0.0107 1.0139 172.2     21?   0.85 238.9   36 285  93  42
   2024 04 15 02:20  13 25 26.90    -02 17 42.6   0.0107 1.0139 172.2     21?   0.75 234.6   34 283  93  42
   2024 04 15 02:30  13 25 26.53    -02 17 46.9   0.0107 1.0139 172.2     21?   0.66 228.9   32 282  93  42
   2024 04 15 02:40  13 25 26.24    -02 17 51.2   0.0107 1.0139 172.2     21?   0.57 221.2   29 281  93  42
   2024 04 15 02:50  13 25 26.03    -02 17 55.5   0.0107 1.0139 172.2     21?   0.49 210.4   27 279  93  42
   2024 04 15 03:00  13 25 25.90    -02 17 59.7   0.0107 1.0139 172.2     21?   0.44 196.2   25 278  92  43
   2024 04 15 03:10  13 25 25.87    -02 18 03.9   0.0107 1.0139 172.2     21?   0.42 178.9   22 277  92  43
   2024 04 15 03:20  13 25 25.91    -02 18 08.1   0.0107 1.0139 172.2     21?   0.44 161.3   20 276  92  43
   2024 04 15 03:30  13 25 26.05    -02 18 12.3   0.0107 1.0139 172.2     21?   0.50 146.4   18 275  92  43
   2024 04 15 03:40  13 25 26.28    -02 18 16.5   0.0107 1.0139 172.2     21?   0.59 135.0   16 274  92  43
   2024 04 15 03:50  13 25 26.61    -02 18 20.6   0.0107 1.0139 172.2     21?   0.69 126.7   13 273  92  43
   2024 04 15 04:00  13 25 27.02    -02 18 24.7   0.0107 1.0139 172.2 A   21?   0.81 120.6   11 272  92  43
   2024 04 15 04:10  13 25 27.53    -02 18 28.8   0.0107 1.0139 172.2 A   21?   0.93 116.1    9 271  92  43
   2024 04 15 04:20  13 25 28.13    -02 18 33.0   0.0107 1.0140 172.2 N   21?   1.06 112.7    6 270  91  43
   2024 04 15 04:30  13 25 28.83    -02 18 37.1   0.0107 1.0140 172.2 N   21?   1.19 110.0    4 269  91  43
   2024 04 15 04:40  13 25 29.63    -02 18 41.2   0.0107 1.0140 172.2 N   21?   1.33 107.9    2 268  91  44
   2024 04 15 04:50  13 25 30.52    -02 18 45.3   0.0107 1.0140 172.2 C   21?   1.47 106.1    0 267  91  44
   ................
   2024 04 15 16:50  13 28 16.05    -02 25 28.1   0.0107 1.0141 172.1 Cm  21?   1.49 118.2    1  92  86  49
   2024 04 15 17:00  13 28 16.88    -02 25 35.1   0.0107 1.0141 172.1 Cm  21?   1.37 121.1    4  91  86  49
   2024 04 15 17:10  13 28 17.61    -02 25 42.2   0.0107 1.0141 172.1 Nm  21?   1.25 124.5    6  90  85  49
   2024 04 15 17:20  13 28 18.25    -02 25 49.3   0.0107 1.0141 172.1 Nm  21?   1.13 128.6    8  89  85  49
   2024 04 15 17:30  13 28 18.79    -02 25 56.4   0.0107 1.0141 172.1 Am  21?   1.03 133.5   10  88  85  49
   2024 04 15 17:40  13 28 19.24    -02 26 03.5   0.0107 1.0141 172.1 Am  21?   0.93 139.4   13  87  85  49
   2024 04 15 17:50  13 28 19.59    -02 26 10.5   0.0107 1.0141 172.1 Am  21?   0.84 146.6   15  86  85  49
   2024 04 15 18:00  13 28 19.86    -02 26 17.6   0.0107 1.0141 172.1  m  21?   0.78 155.0   17  85  85  49
   2024 04 15 18:10  13 28 20.03    -02 26 24.6   0.0107 1.0141 172.1  m  21?   0.73 164.7   20  83  85  49
   2024 04 15 18:20  13 28 20.11    -02 26 31.6   0.0107 1.0141 172.1  m  21?   0.70 175.2   22  82  85  49
   2024 04 15 18:30  13 28 20.11    -02 26 38.6   0.0107 1.0141 172.1  m  21?   0.70 186.0   24  81  85  49
   2024 04 15 18:40  13 28 20.01    -02 26 45.5   0.0107 1.0141 172.1  m  21?   0.72 196.1   26  80  85  49
   2024 04 15 18:50  13 28 19.84    -02 26 52.4   0.0107 1.0141 172.1  m  21?   0.76 205.3   29  79  85  49
   2024 04 15 19:00  13 28 19.58    -02 26 59.3   0.0107 1.0141 172.1  m  21?   0.82 213.1   31  78  85  49
   2024 04 15 19:10  13 28 19.24    -02 27 06.2   0.0107 1.0141 172.1  m  21?   0.89 219.6   33  76  85  49
   2024 04 15 19:20  13 28 18.82    -02 27 13.0   0.0107 1.0141 172.1  m  21?   0.96 225.0   36  75  85  49
   2024 04 15 19:30  13 28 18.33    -02 27 19.8   0.0107 1.0141 172.1  m  21?   1.04 229.5   38  73  85  49
   2024 04 15 19:40  13 28 17.76    -02 27 26.5   0.0107 1.0141 172.1  m  21?   1.12 233.2   40  72  85  49
   2024 04 15 19:50  13 28 17.12    -02 27 33.3   0.0107 1.0141 172.1  m  21?   1.21 236.3   42  70  85  49
   2024 04 15 20:00  13 28 16.42    -02 27 39.9   0.0107 1.0141 172.1  m  21?   1.29 238.9   44  69  85  49
   2024 04 15 20:10  13 28 15.65    -02 27 46.5   0.0107 1.0141 172.1  m  21?   1.37 241.0   46  67  85  49
   2024 04 15 20:20  13 28 14.83    -02 27 53.1   0.0107 1.0141 172.1  m  21?   1.44 242.9   49  65  84  49
   2024 04 15 20:30  13 28 13.94    -02 27 59.6   0.0107 1.0141 172.1  m  21?   1.51 244.5   51  62  84  50
   2024 04 15 20:40  13 28 13.00    -02 28 06.1   0.0107 1.0141 172.1  m  21?   1.58 245.9   53  60  84  50
   2024 04 15 20:50  13 28 12.01    -02 28 12.5   0.0107 1.0141 172.1  m  21?   1.65 247.1   55  57  84  50
   2024 04 15 21:00  13 28 10.98    -02 28 18.8   0.0107 1.0141 172.1  m  21?   1.71 248.2   57  55  84  50
   2024 04 15 21:10  13 28 09.90    -02 28 25.1   0.0107 1.0141 172.1  m  21?   1.76 249.1   58  51  84  50
   2024 04 15 21:20  13 28 08.78    -02 28 31.4   0.0107 1.0141 172.1  m  21?   1.81 249.9   60  48  84  50
   2024 04 15 21:30  13 28 07.62    -02 28 37.5   0.0107 1.0141 172.1  m  21?   1.86 250.6   62  44  84  50
   2024 04 15 21:40  13 28 06.44    -02 28 43.7   0.0107 1.0141 172.1  m  21?   1.90 251.2   63  40  84  50
   2024 04 15 21:50  13 28 05.22    -02 28 49.7   0.0107 1.0141 172.1  m  21?   1.93 251.7   65  35  84  50
   2024 04 15 22:00  13 28 03.99    -02 28 55.7   0.0107 1.0142 172.1  m  21?   1.96 252.2   66  29  84  50
   2024 04 15 22:10  13 28 02.73    -02 29 01.7   0.0107 1.0142 172.1  m  21?   1.98 252.6   67  24  84  50
   2024 04 15 22:20  13 28 01.46    -02 29 07.5   0.0107 1.0142 172.1  m  21?   2.00 252.9   68  17  84  50
   2024 04 15 22:30  13 28 00.18    -02 29 13.3   0.0107 1.0142 172.1  m  21?   2.01 253.2   69  10  84  50
   2024 04 15 22:40  13 27 58.90    -02 29 19.1   0.0107 1.0142 172.1  m  21?   2.01 253.4   69   3  83  50
   2024 04 15 22:50  13 27 57.61    -02 29 24.8   0.0107 1.0142 172.0  t  21?   2.01 253.6   69 356  83  50
   2024 04 15 23:00  13 27 56.32    -02 29 30.4   0.0107 1.0142 172.0     21?   2.00 253.7   69 349  83  50
   2024 04 15 23:10  13 27 55.04    -02 29 35.9   0.0107 1.0142 172.0     21?   1.99 253.8   68 342  83  50
   2024 04 15 23:20  13 27 53.77    -02 29 41.4   0.0107 1.0142 172.0     21?   1.97 253.8   67 336  83  51
   2024 04 15 23:30  13 27 52.51    -02 29 46.8   0.0107 1.0142 172.0     21?   1.94 253.8   66 330  83  51
   2024 04 15 23:40  13 27 51.27    -02 29 52.2   0.0107 1.0142 172.0     21?   1.91 253.7   65 325  83  51
   2024 04 15 23:50  13 27 50.06    -02 29 57.5   0.0107 1.0142 172.0     21?   1.88 253.6   64 320  83  51
   2024 04 16 00:00  13 27 48.87    -02 30 02.7   0.0107 1.0142 172.0     21?   1.83 253.4   62 315  83  51
   2024 04 16 00:10  13 27 47.72    -02 30 07.9   0.0107 1.0142 172.0     21?   1.78 253.1   60 311  83  51
   2024 04 16 00:20  13 27 46.60    -02 30 13.0   0.0107 1.0142 172.0     21?   1.73 252.8   59 308  83  51
   2024 04 16 00:30  13 27 45.52    -02 30 18.1   0.0107 1.0142 172.0     21?   1.67 252.4   57 305  82  51
   2024 04 16 00:40  13 27 44.48    -02 30 23.0   0.0107 1.0142 172.0     21?   1.60 251.8   55 302  82  51
   2024 04 16 00:50  13 27 43.49    -02 30 28.0   0.0107 1.0142 172.0     21?   1.53 251.2   53 299  82  51
   2024 04 16 01:00  13 27 42.55    -02 30 32.9   0.0107 1.0142 172.0     21?   1.45 250.4   51 297  82  51
   2024 04 16 01:10  13 27 41.66    -02 30 37.7   0.0107 1.0142 172.0     21?   1.37 249.5   49 294  82  51
   2024 04 16 01:20  13 27 40.83    -02 30 42.5   0.0107 1.0142 172.0     21?   1.29 248.3   47 292  82  51
   2024 04 16 01:30  13 27 40.06    -02 30 47.2   0.0107 1.0142 172.0     21?   1.20 246.9   45 291  82  52
   2024 04 16 01:40  13 27 39.35    -02 30 51.9   0.0107 1.0142 172.0     21?   1.11 245.1   42 289  82  52
   2024 04 16 01:50  13 27 38.71    -02 30 56.5   0.0107 1.0142 172.0     21?   1.02 242.9   40 287  82  52
   2024 04 16 02:00  13 27 38.14    -02 31 01.1   0.0107 1.0142 172.0     21?   0.92 240.1   38 286  81  52
   2024 04 16 02:10  13 27 37.65    -02 31 05.6   0.0107 1.0142 172.0     21?   0.82 236.5   36 284  81  52
   2024 04 16 02:20  13 27 37.23    -02 31 10.2   0.0107 1.0142 172.0     21?   0.73 231.8   34 283  81  52
   2024 04 16 02:30  13 27 36.89    -02 31 14.6   0.0107 1.0142 172.0     21?   0.64 225.5   31 281  81  52
   2024 04 16 02:40  13 27 36.62    -02 31 19.1   0.0107 1.0142 172.0     21?   0.55 216.8   29 280  81  52
   2024 04 16 02:50  13 27 36.44    -02 31 23.4   0.0107 1.0142 172.0     21?   0.48 205.1   27 279  81  52
   2024 04 16 03:00  13 27 36.35    -02 31 27.8   0.0107 1.0142 171.9     21?   0.44 190.1   24 278  81  52
   2024 04 16 03:10  13 27 36.34    -02 31 32.2   0.0107 1.0142 171.9     21?   0.44 172.9   22 277  81  52
   2024 04 16 03:20  13 27 36.42    -02 31 36.5   0.0107 1.0142 171.9     21?   0.47 156.5   20 276  81  53
   2024 04 16 03:30  13 27 36.59    -02 31 40.8   0.0107 1.0142 171.9     21?   0.54 142.9   18 275  80  53
   2024 04 16 03:40  13 27 36.85    -02 31 45.0   0.0107 1.0142 171.9     21?   0.63 132.7   15 273  80  53
   2024 04 16 03:50  13 27 37.20    -02 31 49.3   0.0107 1.0142 171.9     21?   0.73 125.2   13 272  80  53
   2024 04 16 04:00  13 27 37.65    -02 31 53.5   0.0107 1.0142 171.9 A   21?   0.85 119.7   11 271  80  53
   2024 04 16 04:10  13 27 38.19    -02 31 57.8   0.0107 1.0142 171.9 A   21?   0.98 115.5    8 270  80  53
   2024 04 16 04:20  13 27 38.83    -02 32 02.0   0.0107 1.0142 171.9 N   21?   1.11 112.3    6 269  80  53
   2024 04 16 04:30  13 27 39.56    -02 32 06.2   0.0107 1.0142 171.9 N   21?   1.24 109.7    4 268  80  53
   2024 04 16 04:40  13 27 40.39    -02 32 10.4   0.0107 1.0142 171.9 N   21?   1.38 107.7    2 267  80  53
   2024 04 16 04:50  13 27 41.31    -02 32 14.6   0.0108 1.0142 171.9 C   21?   1.52 106.1    0 266  80  53
   ................
   2024 04 16 16:50  13 30 27.88    -02 39 15.4   0.0108 1.0144 171.9 Cm  21?   1.51 119.5    2  92  74  58
   2024 04 16 17:00  13 30 28.71    -02 39 22.9   0.0107 1.0144 171.9 Cm  21?   1.39 122.5    4  91  74  59
   2024 04 16 17:10  13 30 29.44    -02 39 30.3   0.0107 1.0144 171.9 Nm  21?   1.27 125.9    6  90  74  59
   2024 04 16 17:20  13 30 30.08    -02 39 37.8   0.0107 1.0144 171.9 Nm  21?   1.15 130.0    9  89  74  59
   2024 04 16 17:30  13 30 30.62    -02 39 45.2   0.0107 1.0144 171.9 Am  21?   1.05 135.0   11  88  74  59
   2024 04 16 17:40  13 30 31.07    -02 39 52.7   0.0107 1.0144 171.9 Am  21?   0.96 140.9   13  87  74  59
   2024 04 16 17:50  13 30 31.42    -02 40 00.1   0.0107 1.0144 171.9 Am  21?   0.87 147.9   16  86  74  59
   2024 04 16 18:00  13 30 31.69    -02 40 07.5   0.0107 1.0144 171.9  m  21?   0.81 156.2   18  85  74  59
   2024 04 16 18:10  13 30 31.86    -02 40 14.9   0.0107 1.0144 171.9  m  21?   0.76 165.5   20  83  74  59
   2024 04 16 18:20  13 30 31.94    -02 40 22.2   0.0107 1.0144 171.9  m  21?   0.74 175.5   22  82  73  59
   2024 04 16 18:30  13 30 31.93    -02 40 29.6   0.0107 1.0144 171.9  m  21?   0.74 185.7   25  81  73  59
   2024 04 16 18:40  13 30 31.84    -02 40 36.9   0.0107 1.0144 171.9  m  21?   0.76 195.4   27  80  73  59
   2024 04 16 18:50  13 30 31.67    -02 40 44.1   0.0107 1.0144 171.9  m  21?   0.80 204.1   29  79  73  59
   2024 04 16 19:00  13 30 31.41    -02 40 51.4   0.0107 1.0144 171.9  m  21?   0.85 211.7   32  78  73  59
   2024 04 16 19:10  13 30 31.07    -02 40 58.6   0.0107 1.0144 171.9  m  21?   0.91 218.1   34  76  73  59
   2024 04 16 19:20  13 30 30.65    -02 41 05.7   0.0107 1.0144 171.9  m  21?   0.99 223.5   36  75  73  59
   2024 04 16 19:30  13 30 30.16    -02 41 12.8   0.0107 1.0144 171.9  m  21?   1.06 228.0   38  73  73  59
   2024 04 16 19:40  13 30 29.60    -02 41 19.9   0.0107 1.0144 171.9  m  21?   1.14 231.7   40  72  73  59
   2024 04 16 19:50  13 30 28.97    -02 41 27.0   0.0107 1.0144 171.9  m  21?   1.22 234.9   43  70  73  59
   2024 04 16 20:00  13 30 28.27    -02 41 33.9   0.0107 1.0144 171.9  m  21?   1.30 237.5   45  69  73  59
   2024 04 16 20:10  13 30 27.50    -02 41 40.9   0.0107 1.0144 171.9  m  21?   1.37 239.8   47  67  73  59
   2024 04 16 20:20  13 30 26.68    -02 41 47.7   0.0107 1.0144 171.9  m  21?   1.45 241.7   49  65  73  59
   2024 04 16 20:30  13 30 25.80    -02 41 54.6   0.0107 1.0144 171.9  m  21?   1.52 243.3   51  62  73  59
   2024 04 16 20:40  13 30 24.87    -02 42 01.3   0.0107 1.0144 171.9  m  21?   1.59 244.8   53  60  73  59
   2024 04 16 20:50  13 30 23.89    -02 42 08.0   0.0107 1.0144 171.9  m  21?   1.65 246.0   55  57  73  59
   2024 04 16 21:00  13 30 22.86    -02 42 14.7   0.0107 1.0144 171.9  m  21?   1.71 247.1   57  54  73  59
   2024 04 16 21:10  13 30 21.78    -02 42 21.2   0.0107 1.0144 171.9  m  21?   1.76 248.1   59  51  73  60
   2024 04 16 21:20  13 30 20.67    -02 42 27.8   0.0107 1.0144 171.9  m  21?   1.81 248.9   61  48  73  60
   2024 04 16 21:30  13 30 19.53    -02 42 34.2   0.0107 1.0144 171.9  m  21?   1.85 249.6   62  44  72  60
   2024 04 16 21:40  13 30 18.35    -02 42 40.6   0.0107 1.0144 171.9  m  21?   1.89 250.3   64  39  72  60
   2024 04 16 21:50  13 30 17.15    -02 42 46.9   0.0107 1.0144 171.8  m  21?   1.92 250.8   65  34  72  60
   2024 04 16 22:00  13 30 15.93    -02 42 53.2   0.0107 1.0144 171.8  m  21?   1.95 251.3   66  29  72  60
   2024 04 16 22:10  13 30 14.69    -02 42 59.3   0.0107 1.0144 171.8  m  21?   1.97 251.7   68  23  72  60
   2024 04 16 22:20  13 30 13.43    -02 43 05.5   0.0107 1.0144 171.8  m  21?   1.99 252.1   68  16  72  60
   2024 04 16 22:30  13 30 12.16    -02 43 11.5   0.0107 1.0144 171.8  m  21?   2.00 252.4   69   9  72  60
   2024 04 16 22:40  13 30 10.89    -02 43 17.5   0.0107 1.0144 171.8  m  21?   2.00 252.6   69   2  72  60
   2024 04 16 22:50  13 30 09.62    -02 43 23.4   0.0107 1.0144 171.8  t  21?   2.00 252.8   69 355  72  60
   2024 04 16 23:00  13 30 08.34    -02 43 29.2   0.0107 1.0144 171.8  m  21?   1.99 252.9   69 348  72  60
   2024 04 16 23:10  13 30 07.08    -02 43 35.0   0.0107 1.0144 171.8  m  21?   1.97 253.0   68 341  72  60
   2024 04 16 23:20  13 30 05.83    -02 43 40.7   0.0107 1.0144 171.8  m  21?   1.95 253.0   67 335  72  60
   2024 04 16 23:30  13 30 04.59    -02 43 46.3   0.0107 1.0144 171.8  m  21?   1.92 253.0   66 329  72  60
   2024 04 16 23:40  13 30 03.37    -02 43 51.8   0.0107 1.0144 171.8     21?   1.89 252.9   65 324  71  60
   2024 04 16 23:50  13 30 02.18    -02 43 57.3   0.0107 1.0144 171.8     21?   1.85 252.8   64 319  71  60
   2024 04 17 00:00  13 30 01.01    -02 44 02.8   0.0107 1.0144 171.8     21?   1.81 252.6   62 314  71  60
   2024 04 17 00:10  13 29 59.88    -02 44 08.1   0.0107 1.0144 171.8     21?   1.76 252.3   60 310  71  61
   2024 04 17 00:20  13 29 58.78    -02 44 13.4   0.0107 1.0144 171.8     21?   1.70 251.9   58 307  71  61
   2024 04 17 00:30  13 29 57.72    -02 44 18.6   0.0107 1.0144 171.8     21?   1.64 251.4   57 304  71  61
   2024 04 17 00:40  13 29 56.70    -02 44 23.8   0.0107 1.0145 171.8     21?   1.57 250.9   55 301  71  61
   2024 04 17 00:50  13 29 55.74    -02 44 28.9   0.0107 1.0145 171.8     21?   1.50 250.2   53 298  71  61
   2024 04 17 01:00  13 29 54.82    -02 44 33.9   0.0107 1.0145 171.8     21?   1.43 249.3   51 296  71  61
   2024 04 17 01:10  13 29 53.96    -02 44 38.9   0.0107 1.0145 171.8     21?   1.34 248.3   49 294  71  61
   2024 04 17 01:20  13 29 53.15    -02 44 43.8   0.0107 1.0145 171.8     21?   1.26 247.0   46 292  71  61
   2024 04 17 01:30  13 29 52.41    -02 44 48.7   0.0107 1.0145 171.7     21?   1.17 245.5   44 290  70  61
   2024 04 17 01:40  13 29 51.73    -02 44 53.5   0.0107 1.0145 171.7     21?   1.08 243.6   42 288  70  61
   2024 04 17 01:50  13 29 51.12    -02 44 58.3   0.0107 1.0145 171.7     21?   0.99 241.2   40 287  70  61
   2024 04 17 02:00  13 29 50.58    -02 45 03.0   0.0107 1.0145 171.7     21?   0.89 238.1   38 285  70  61
   2024 04 17 02:10  13 29 50.11    -02 45 07.6   0.0107 1.0145 171.7     21?   0.80 234.1   35 284  70  61
   2024 04 17 02:20  13 29 49.72    -02 45 12.3   0.0107 1.0145 171.7     21?   0.70 228.9   33 282  70  62
   2024 04 17 02:30  13 29 49.40    -02 45 16.9   0.0107 1.0145 171.7     21?   0.61 221.8   31 281  70  62
   2024 04 17 02:40  13 29 49.17    -02 45 21.4   0.0107 1.0145 171.7     21?   0.54 212.3   29 280  70  62
   2024 04 17 02:50  13 29 49.02    -02 45 25.9   0.0107 1.0145 171.7     21?   0.48 199.7   26 279  70  62
   2024 04 17 03:00  13 29 48.95    -02 45 30.4   0.0107 1.0145 171.7     21?   0.45 184.1   24 277  69  62
   2024 04 17 03:10  13 29 48.97    -02 45 34.8   0.0107 1.0145 171.7     21?   0.45 167.4   22 276  69  62
   2024 04 17 03:20  13 29 49.09    -02 45 39.3   0.0107 1.0145 171.7     21?   0.50 152.1   20 275  69  62
   2024 04 17 03:30  13 29 49.29    -02 45 43.7   0.0107 1.0145 171.7     21?   0.57 139.9   17 274  69  62
   2024 04 17 03:40  13 29 49.58    -02 45 48.0   0.0107 1.0145 171.7     21?   0.67 130.7   15 273  69  62
   2024 04 17 03:50  13 29 49.96    -02 45 52.4   0.0107 1.0145 171.7     21?   0.78 123.9   13 272  69  62
   2024 04 17 04:00  13 29 50.44    -02 45 56.7   0.0107 1.0145 171.7 A   21?   0.90 118.8   10 271  69  62
   2024 04 17 04:10  13 29 51.01    -02 46 01.1   0.0107 1.0145 171.7 A   21?   1.02 114.9    8 270  69  63
   2024 04 17 04:20  13 29 51.68    -02 46 05.4   0.0107 1.0145 171.7 N   21?   1.16 111.9    6 269  69  63
   2024 04 17 04:30  13 29 52.44    -02 46 09.7   0.0108 1.0145 171.7 N   21?   1.29 109.5    4 268  69  63
   2024 04 17 04:40  13 29 53.30    -02 46 14.0   0.0108 1.0145 171.7 N   21?   1.43 107.5    1 267  68  63
   ................
   2024 04 17 16:50  13 32 41.89    -02 53 36.6   0.0108 1.0146 171.7 Cm  21?   1.53 120.8    2  92  62  68
   2024 04 17 17:00  13 32 42.71    -02 53 44.5   0.0108 1.0146 171.7 Cm  21?   1.40 123.8    5  91  62  68
   2024 04 17 17:10  13 32 43.44    -02 53 52.3   0.0107 1.0146 171.7 Nm  21?   1.29 127.3    7  90  62  68
   2024 04 17 17:20  13 32 44.08    -02 54 00.1   0.0107 1.0146 171.7 Nm  21?   1.18 131.5    9  89  62  68
   2024 04 17 17:30  13 32 44.62    -02 54 07.9   0.0107 1.0146 171.7 Am  21?   1.07 136.4   11  88  62  68
   2024 04 17 17:40  13 32 45.07    -02 54 15.7   0.0107 1.0146 171.7 Am  21?   0.98 142.3   14  87  62  68
   2024 04 17 17:50  13 32 45.42    -02 54 23.5   0.0107 1.0146 171.7 Am  21?   0.90 149.2   16  86  62  68
   2024 04 17 18:00  13 32 45.68    -02 54 31.2   0.0107 1.0146 171.7  m  21?   0.84 157.2   18  85  62  68
   2024 04 17 18:10  13 32 45.85    -02 54 39.0   0.0107 1.0146 171.7  m  21?   0.80 166.1   21  84  62  68
   2024 04 17 18:20  13 32 45.94    -02 54 46.7   0.0107 1.0146 171.7  m  21?   0.77 175.7   23  82  62  68
   2024 04 17 18:30  13 32 45.93    -02 54 54.4   0.0107 1.0147 171.7  m  21?   0.77 185.4   25  81  62  68
   2024 04 17 18:40  13 32 45.84    -02 55 02.0   0.0107 1.0147 171.7  m  21?   0.79 194.6   27  80  62  68
   2024 04 17 18:50  13 32 45.66    -02 55 09.6   0.0107 1.0147 171.7  m  21?   0.83 203.0   30  79  62  68
   2024 04 17 19:00  13 32 45.41    -02 55 17.2   0.0107 1.0147 171.7  m  21?   0.88 210.4   32  78  62  68
   2024 04 17 19:10  13 32 45.07    -02 55 24.7   0.0107 1.0147 171.7  m  21?   0.94 216.7   34  76  62  68
   2024 04 17 19:20  13 32 44.66    -02 55 32.2   0.0107 1.0147 171.7  m  21?   1.01 222.1   36  75  62  68
   2024 04 17 19:30  13 32 44.17    -02 55 39.7   0.0107 1.0147 171.7  m  21?   1.08 226.6   39  74  62  68
   2024 04 17 19:40  13 32 43.61    -02 55 47.1   0.0107 1.0147 171.7  m  21?   1.16 230.3   41  72  62  68
   2024 04 17 19:50  13 32 42.98    -02 55 54.4   0.0107 1.0147 171.7  m  21?   1.23 233.5   43  70  62  68
   2024 04 17 20:00  13 32 42.28    -02 56 01.7   0.0107 1.0147 171.7  m  21?   1.31 236.2   45  69  62  68
   2024 04 17 20:10  13 32 41.52    -02 56 08.9   0.0107 1.0147 171.7  m  21?   1.38 238.5   47  67  62  69
   2024 04 17 20:20  13 32 40.71    -02 56 16.1   0.0107 1.0147 171.7  m  21?   1.46 240.5   50  65  61  69
   2024 04 17 20:30  13 32 39.83    -02 56 23.2   0.0107 1.0147 171.7  m  21?   1.52 242.2   52  62  61  69
   2024 04 17 20:40  13 32 38.91    -02 56 30.3   0.0107 1.0147 171.7  m  21?   1.59 243.7   54  60  61  69
   2024 04 17 20:50  13 32 37.93    -02 56 37.3   0.0107 1.0147 171.7  m  21?   1.65 245.0   56  57  61  69
   2024 04 17 21:00  13 32 36.91    -02 56 44.2   0.0107 1.0147 171.6  m  21?   1.71 246.1   58  54  61  69
   2024 04 17 21:10  13 32 35.84    -02 56 51.0   0.0107 1.0147 171.6  m  21?   1.76 247.1   59  51  61  69
   2024 04 17 21:20  13 32 34.74    -02 56 57.8   0.0107 1.0147 171.6  m  21?   1.81 248.0   61  47  61  69
   2024 04 17 21:30  13 32 33.61    -02 57 04.5   0.0107 1.0147 171.6  m  21?   1.85 248.7   63  43  61  69
   2024 04 17 21:40  13 32 32.44    -02 57 11.2   0.0107 1.0147 171.6  m  21?   1.89 249.4   64  39  61  69
   2024 04 17 21:50  13 32 31.25    -02 57 17.8   0.0107 1.0147 171.6  m  21?   1.92 250.0   66  34  61  69
   2024 04 17 22:00  13 32 30.04    -02 57 24.2   0.0107 1.0147 171.6  m  21?   1.94 250.5   67  28  61  69
   2024 04 17 22:10  13 32 28.81    -02 57 30.7   0.0107 1.0147 171.6  m  21?   1.96 250.9   68  22  61  69
   2024 04 17 22:20  13 32 27.56    -02 57 37.0   0.0107 1.0147 171.6  m  21?   1.97 251.3   69  15  61  69
   2024 04 17 22:30  13 32 26.31    -02 57 43.3   0.0107 1.0147 171.6  m  21?   1.98 251.6   69   8  61  69
   2024 04 17 22:40  13 32 25.05    -02 57 49.5   0.0107 1.0147 171.6  m  21?   1.98 251.8   69   1  61  69
   2024 04 17 22:50  13 32 23.79    -02 57 55.6   0.0107 1.0147 171.6  t  21?   1.98 252.0   69 354  61  69
   2024 04 17 23:00  13 32 22.54    -02 58 01.6   0.0107 1.0147 171.6  m  21?   1.97 252.2   69 347  60  69
   2024 04 17 23:10  13 32 21.29    -02 58 07.6   0.0107 1.0147 171.6  m  21?   1.95 252.2   68 340  60  69
   2024 04 17 23:20  13 32 20.06    -02 58 13.5   0.0107 1.0147 171.6  m  21?   1.93 252.3   67 333  60  69
   2024 04 17 23:30  13 32 18.84    -02 58 19.3   0.0107 1.0147 171.6  m  21?   1.90 252.2   66 328  60  69
   2024 04 17 23:40  13 32 17.64    -02 58 25.0   0.0107 1.0147 171.6  m  21?   1.87 252.1   65 322  60  69
   2024 04 17 23:50  13 32 16.46    -02 58 30.7   0.0107 1.0147 171.6  m  21?   1.83 252.0   63 318  60  70
   2024 04 18 00:00  13 32 15.32    -02 58 36.3   0.0107 1.0147 171.6  m  21?   1.78 251.7   62 313  60  70
   2024 04 18 00:10  13 32 14.20    -02 58 41.8   0.0107 1.0147 171.6  m  21?   1.73 251.4   60 310  60  70
   2024 04 18 00:20  13 32 13.12    -02 58 47.3   0.0107 1.0147 171.6  m  21?   1.67 251.0   58 306  60  70
   2024 04 18 00:30  13 32 12.09    -02 58 52.6   0.0107 1.0147 171.5  m  21?   1.61 250.5   56 303  60  70
   2024 04 18 00:40  13 32 11.09    -02 58 57.9   0.0107 1.0147 171.5     21?   1.55 249.9   54 300  60  70
   2024 04 18 00:50  13 32 10.15    -02 59 03.2   0.0107 1.0147 171.5     21?   1.47 249.2   52 298  60  70
   2024 04 18 01:00  13 32 09.26    -02 59 08.4   0.0107 1.0147 171.5     21?   1.40 248.3   50 295  59  70
   2024 04 18 01:10  13 32 08.42    -02 59 13.5   0.0107 1.0147 171.5     21?   1.32 247.2   48 293  59  70
   2024 04 18 01:20  13 32 07.64    -02 59 18.5   0.0107 1.0147 171.5     21?   1.23 245.8   46 291  59  70
   2024 04 18 01:30  13 32 06.92    -02 59 23.5   0.0107 1.0147 171.5     21?   1.14 244.1   44 289  59  70
   2024 04 18 01:40  13 32 06.27    -02 59 28.5   0.0107 1.0147 171.5     21?   1.05 242.0   42 288  59  70
   2024 04 18 01:50  13 32 05.68    -02 59 33.3   0.0107 1.0147 171.5     21?   0.96 239.4   40 286  59  70
   2024 04 18 02:00  13 32 05.17    -02 59 38.2   0.0107 1.0147 171.5     21?   0.86 236.0   37 285  59  70
   2024 04 18 02:10  13 32 04.73    -02 59 43.0   0.0107 1.0147 171.5     21?   0.77 231.6   35 283  59  70
   2024 04 18 02:20  13 32 04.36    -02 59 47.7   0.0107 1.0147 171.5     21?   0.68 225.9   33 282  59  71
   2024 04 18 02:30  13 32 04.08    -02 59 52.4   0.0107 1.0147 171.5     21?   0.59 218.1   31 280  59  71
   2024 04 18 02:40  13 32 03.87    -02 59 57.0   0.0107 1.0147 171.5     21?   0.52 207.7   28 279  59  71
   2024 04 18 02:50  13 32 03.75    -03 00 01.6   0.0107 1.0147 171.5     21?   0.47 194.3   26 278  58  71
   2024 04 18 03:00  13 32 03.72    -03 00 06.2   0.0107 1.0147 171.5     21?   0.46 178.5   24 277  58  71
   2024 04 18 03:10  13 32 03.77    -03 00 10.8   0.0107 1.0147 171.5     21?   0.47 162.4   22 276  58  71
   2024 04 18 03:20  13 32 03.91    -03 00 15.3   0.0107 1.0147 171.5     21?   0.53 148.3   19 275  58  71
   2024 04 18 03:30  13 32 04.14    -03 00 19.8   0.0107 1.0148 171.5     21?   0.61 137.2   17 274  58  71
   2024 04 18 03:40  13 32 04.46    -03 00 24.2   0.0107 1.0148 171.5     21?   0.71 128.8   15 273  58  71
   2024 04 18 03:50  13 32 04.88    -03 00 28.7   0.0107 1.0148 171.5     21?   0.82 122.6   12 272  58  71
   2024 04 18 04:00  13 32 05.38    -03 00 33.1   0.0107 1.0148 171.5 A   21?   0.94 117.9   10 271  58  71
   2024 04 18 04:10  13 32 05.99    -03 00 37.5   0.0107 1.0148 171.5 A   21?   1.07 114.3    8 270  58  71
   2024 04 18 04:20  13 32 06.69    -03 00 41.9   0.0108 1.0148 171.5 A   21?   1.20 111.4    6 269  58  71
   2024 04 18 04:30  13 32 07.48    -03 00 46.3   0.0108 1.0148 171.5 N   21?   1.34 109.1    3 268  57  72
   2024 04 18 04:40  13 32 08.37    -03 00 50.7   0.0108 1.0148 171.5 N   21?   1.47 107.3    1 267  57  72
   ................
   2024 04 18 16:50  13 34 58.03    -03 08 30.3   0.0108 1.0149 171.5 Cm  21?   1.54 121.9    3  92  51  76
   2024 04 18 17:00  13 34 58.86    -03 08 38.5   0.0108 1.0149 171.5 Cm  21?   1.42 125.0    5  91  51  76
   2024 04 18 17:10  13 34 59.59    -03 08 46.7   0.0107 1.0149 171.5 Nm  21?   1.31 128.6    7  90  51  76
   2024 04 18 17:20  13 35 00.22    -03 08 54.8   0.0107 1.0149 171.5 Nm  21?   1.20 132.8   10  89  51  76
   2024 04 18 17:30  13 35 00.76    -03 09 03.0   0.0107 1.0149 171.5 Am  21?   1.10 137.8   12  88  51  77
   2024 04 18 17:40  13 35 01.21    -03 09 11.1   0.0107 1.0149 171.5 Am  21?   1.01 143.6   14  87  51  77
   2024 04 18 17:50  13 35 01.56    -03 09 19.3   0.0107 1.0149 171.5 Am  21?   0.93 150.4   17  86  51  77
   2024 04 18 18:00  13 35 01.82    -03 09 27.4   0.0107 1.0149 171.5  m  21?   0.87 158.1   19  85  51  77
   2024 04 18 18:10  13 35 01.99    -03 09 35.4   0.0107 1.0149 171.5  m  21?   0.83 166.7   21  84  51  77
   2024 04 18 18:20  13 35 02.07    -03 09 43.5   0.0107 1.0149 171.5  m  21?   0.81 175.9   23  82  51  77
   2024 04 18 18:30  13 35 02.07    -03 09 51.5   0.0107 1.0149 171.5  m  21?   0.80 185.1   26  81  51  77
   2024 04 18 18:40  13 35 01.98    -03 09 59.5   0.0107 1.0149 171.5  m  21?   0.82 194.0   28  80  51  77
   2024 04 18 18:50  13 35 01.80    -03 10 07.5   0.0107 1.0149 171.5  m  21?   0.86 202.1   30  79  51  77
   2024 04 18 19:00  13 35 01.55    -03 10 15.4   0.0107 1.0149 171.5  m  21?   0.90 209.3   32  78  51  77
   2024 04 18 19:10  13 35 01.21    -03 10 23.2   0.0107 1.0149 171.5  m  21?   0.96 215.5   35  76  51  77
   2024 04 18 19:20  13 35 00.80    -03 10 31.0   0.0107 1.0149 171.5  m  21?   1.03 220.7   37  75  51  77
   2024 04 18 19:30  13 35 00.31    -03 10 38.8   0.0107 1.0149 171.5  m  21?   1.10 225.2   39  74  50  77
   2024 04 18 19:40  13 34 59.76    -03 10 46.5   0.0107 1.0149 171.5  m  21?   1.17 229.0   41  72  50  77
   2024 04 18 19:50  13 34 59.13    -03 10 54.2   0.0107 1.0149 171.5  m  21?   1.25 232.2   44  70  50  77
   2024 04 18 20:00  13 34 58.44    -03 11 01.8   0.0107 1.0149 171.5  m  21?   1.32 235.0   46  69  50  77
   2024 04 18 20:10  13 34 57.68    -03 11 09.3   0.0107 1.0149 171.4  m  21?   1.39 237.3   48  67  50  77
   2024 04 18 20:20  13 34 56.87    -03 11 16.8   0.0107 1.0149 171.4  m  21?   1.46 239.4   50  65  50  77
   2024 04 18 20:30  13 34 56.00    -03 11 24.2   0.0107 1.0149 171.4  m  21?   1.53 241.1   52  62  50  77
   2024 04 18 20:40  13 34 55.08    -03 11 31.5   0.0107 1.0149 171.4  m  21?   1.59 242.6   54  60  50  77
   2024 04 18 20:50  13 34 54.11    -03 11 38.8   0.0107 1.0149 171.4  m  21?   1.65 244.0   56  57  50  77
   2024 04 18 21:00  13 34 53.10    -03 11 46.0   0.0107 1.0149 171.4  m  21?   1.71 245.1   58  54  50  77
   2024 04 18 21:10  13 34 52.04    -03 11 53.1   0.0107 1.0149 171.4  m  21?   1.76 246.2   60  51  50  77
   2024 04 18 21:20  13 34 50.95    -03 12 00.1   0.0107 1.0149 171.4  m  21?   1.80 247.1   62  47  50  77
   2024 04 18 21:30  13 34 49.82    -03 12 07.1   0.0107 1.0149 171.4  m  21?   1.84 247.8   63  43  50  77
   2024 04 18 21:40  13 34 48.67    -03 12 14.0   0.0107 1.0150 171.4  m  21?   1.88 248.5   65  38  50  77
   2024 04 18 21:50  13 34 47.49    -03 12 20.8   0.0107 1.0150 171.4  m  21?   1.91 249.1   66  33  50  77
   2024 04 18 22:00  13 34 46.28    -03 12 27.5   0.0107 1.0150 171.4  m  21?   1.93 249.7   67  27  50  77
   2024 04 18 22:10  13 34 45.07    -03 12 34.2   0.0107 1.0150 171.4  m  21?   1.95 250.1   68  21  50  77
   2024 04 18 22:20  13 34 43.83    -03 12 40.7   0.0107 1.0150 171.4  m  21?   1.96 250.5   69  14  50  77
   2024 04 18 22:30  13 34 42.59    -03 12 47.2   0.0107 1.0150 171.4  m  21?   1.97 250.8   69   7  49  78
   2024 04 18 22:40  13 34 41.35    -03 12 53.6   0.0107 1.0150 171.4  m  21?   1.97 251.1   70   0  49  78
   2024 04 18 22:50  13 34 40.10    -03 12 59.9   0.0107 1.0150 171.4  t  21?   1.96 251.3   69 352  49  78
   2024 04 18 23:00  13 34 38.86    -03 13 06.2   0.0107 1.0150 171.4  m  21?   1.95 251.4   69 345  49  78
   2024 04 18 23:10  13 34 37.63    -03 13 12.3   0.0107 1.0150 171.4  m  21?   1.94 251.5   68 339  49  78
   2024 04 18 23:20  13 34 36.41    -03 13 18.4   0.0107 1.0150 171.4  m  21?   1.91 251.5   67 332  49  78
   2024 04 18 23:30  13 34 35.21    -03 13 24.4   0.0107 1.0150 171.4  m  21?   1.88 251.5   66 326  49  78
   2024 04 18 23:40  13 34 34.03    -03 13 30.3   0.0107 1.0150 171.3  m  21?   1.85 251.4   65 321  49  78
   2024 04 18 23:50  13 34 32.87    -03 13 36.1   0.0107 1.0150 171.3  m  21?   1.81 251.2   63 317  49  78
   2024 04 19 00:00  13 34 31.75    -03 13 41.9   0.0107 1.0150 171.3  m  21?   1.76 251.0   62 312  49  78
   2024 04 19 00:10  13 34 30.65    -03 13 47.5   0.0107 1.0150 171.3  m  21?   1.71 250.6   60 309  49  78
   2024 04 19 00:20  13 34 29.60    -03 13 53.1   0.0107 1.0150 171.3  m  21?   1.65 250.2   58 305  49  78
   2024 04 19 00:30  13 34 28.58    -03 13 58.6   0.0107 1.0150 171.3  m  21?   1.59 249.7   56 302  49  78
   2024 04 19 00:40  13 34 27.61    -03 14 04.1   0.0107 1.0150 171.3  m  21?   1.52 249.0   54 299  49  78
   2024 04 19 00:50  13 34 26.69    -03 14 09.4   0.0107 1.0150 171.3  m  21?   1.45 248.2   52 297  48  78
   2024 04 19 01:00  13 34 25.82    -03 14 14.8   0.0107 1.0150 171.3  m  21?   1.37 247.3   50 295  48  78
   2024 04 19 01:10  13 34 25.00    -03 14 20.0   0.0107 1.0150 171.3  m  21?   1.29 246.1   48 292  48  78
   2024 04 19 01:20  13 34 24.25    -03 14 25.2   0.0107 1.0150 171.3  m  21?   1.20 244.6   46 291  48  78
   2024 04 19 01:30  13 34 23.55    -03 14 30.3   0.0107 1.0150 171.3     21?   1.11 242.8   44 289  48  78
   2024 04 19 01:40  13 34 22.92    -03 14 35.3   0.0107 1.0150 171.3     21?   1.02 240.5   42 287  48  78
   2024 04 19 01:50  13 34 22.36    -03 14 40.3   0.0107 1.0150 171.3     21?   0.93 237.6   39 286  48  78
   2024 04 19 02:00  13 34 21.88    -03 14 45.2   0.0107 1.0150 171.3     21?   0.84 234.0   37 284  48  79
   2024 04 19 02:10  13 34 21.46    -03 14 50.1   0.0107 1.0150 171.3     21?   0.74 229.2   35 283  48  79
   2024 04 19 02:20  13 34 21.13    -03 14 54.9   0.0107 1.0150 171.3     21?   0.66 222.8   33 281  48  79
   2024 04 19 02:30  13 34 20.87    -03 14 59.7   0.0107 1.0150 171.3     21?   0.58 214.3   30 280  48  79
   2024 04 19 02:40  13 34 20.69    -03 15 04.4   0.0107 1.0150 171.3     21?   0.51 203.1   28 279  48  79
   2024 04 19 02:50  13 34 20.60    -03 15 09.1   0.0107 1.0150 171.3     21?   0.47 189.1   26 278  47  79
   2024 04 19 03:00  13 34 20.59    -03 15 13.8   0.0107 1.0150 171.3     21?   0.47 173.2   24 276  47  79
   2024 04 19 03:10  13 34 20.67    -03 15 18.4   0.0107 1.0150 171.3     21?   0.50 157.9   21 275  47  79
   2024 04 19 03:20  13 34 20.84    -03 15 23.0   0.0107 1.0150 171.3     21?   0.56 144.8   19 274  47  79
   2024 04 19 03:30  13 34 21.10    -03 15 27.5   0.0107 1.0150 171.2     21?   0.65 134.7   17 273  47  79
   2024 04 19 03:40  13 34 21.45    -03 15 32.1   0.0107 1.0150 171.2     21?   0.75 127.1   14 272  47  79
   2024 04 19 03:50  13 34 21.90    -03 15 36.6   0.0107 1.0150 171.2     21?   0.86 121.4   12 271  47  79
   2024 04 19 04:00  13 34 22.43    -03 15 41.1   0.0107 1.0150 171.2 A   21?   0.99 117.0   10 270  47  79
   2024 04 19 04:10  13 34 23.07    -03 15 45.6   0.0107 1.0150 171.2 A   21?   1.11 113.6    8 269  47  79
   2024 04 19 04:20  13 34 23.80    -03 15 50.1   0.0108 1.0150 171.2 A   21?   1.25 111.0    5 268  47  79
   2024 04 19 04:30  13 34 24.62    -03 15 54.5   0.0108 1.0150 171.2 N   21?   1.38 108.8    3 267  46  79
   2024 04 19 04:40  13 34 25.54    -03 15 59.0   0.0108 1.0150 171.2 N   21?   1.52 107.0    1 266  46  80
   ................
   2024 04 19 16:50  13 37 16.25    -03 23 54.7   0.0108 1.0152 171.3 Cm  21?   1.56 123.1    3  92  40  84
   2024 04 19 17:00  13 37 17.08    -03 24 03.3   0.0108 1.0152 171.3 Cm  21?   1.44 126.2    5  91  40  84
   2024 04 19 17:10  13 37 17.81    -03 24 11.8   0.0107 1.0152 171.3 Nm  21?   1.33 129.8    8  90  40  84
   2024 04 19 17:20  13 37 18.44    -03 24 20.3   0.0107 1.0152 171.3 Nm  21?   1.22 134.1   10  89  40  84
   2024 04 19 17:30  13 37 18.98    -03 24 28.8   0.0107 1.0152 171.3 Am  21?   1.12 139.0   12  88  40  84
   2024 04 19 17:40  13 37 19.42    -03 24 37.3   0.0107 1.0152 171.3 Am  21?   1.04 144.8   15  87  40  84
   2024 04 19 17:50  13 37 19.77    -03 24 45.8   0.0107 1.0152 171.3 Am  21?   0.96 151.5   17  86  40  84
   2024 04 19 18:00  13 37 20.03    -03 24 54.2   0.0107 1.0152 171.3  m  21?   0.90 159.0   19  85  40  84
   2024 04 19 18:10  13 37 20.20    -03 25 02.7   0.0107 1.0152 171.3  m  21?   0.86 167.3   22  84  40  84
   2024 04 19 18:20  13 37 20.28    -03 25 11.0   0.0107 1.0152 171.3  m  21?   0.84 176.1   24  83  40  84
   2024 04 19 18:30  13 37 20.28    -03 25 19.4   0.0107 1.0152 171.3  m  21?   0.84 184.9   26  81  40  84
   2024 04 19 18:40  13 37 20.19    -03 25 27.7   0.0107 1.0152 171.3  m  21?   0.85 193.4   28  80  40  84
   2024 04 19 18:50  13 37 20.01    -03 25 36.0   0.0107 1.0152 171.3  m  21?   0.89 201.2   31  79  39  84
   2024 04 19 19:00  13 37 19.76    -03 25 44.2   0.0107 1.0152 171.3  m  21?   0.93 208.2   33  78  39  84
   2024 04 19 19:10  13 37 19.42    -03 25 52.4   0.0107 1.0152 171.3  m  21?   0.99 214.3   35  76  39  84
   2024 04 19 19:20  13 37 19.01    -03 26 00.5   0.0107 1.0152 171.3  m  21?   1.05 219.5   37  75  39  84
   2024 04 19 19:30  13 37 18.53    -03 26 08.6   0.0107 1.0152 171.2  m  21?   1.12 224.0   40  74  39  84
   2024 04 19 19:40  13 37 17.97    -03 26 16.6   0.0107 1.0152 171.2  m  21?   1.19 227.8   42  72  39  84
   2024 04 19 19:50  13 37 17.35    -03 26 24.6   0.0107 1.0152 171.2  m  21?   1.26 231.0   44  70  39  84
   2024 04 19 20:00  13 37 16.66    -03 26 32.4   0.0107 1.0152 171.2  m  21?   1.33 233.8   46  69  39  84
   2024 04 19 20:10  13 37 15.91    -03 26 40.3   0.0107 1.0152 171.2  m  21?   1.40 236.2   48  67  39  84
   2024 04 19 20:20  13 37 15.10    -03 26 48.0   0.0107 1.0152 171.2  m  21?   1.47 238.3   51  65  39  84
   2024 04 19 20:30  13 37 14.24    -03 26 55.7   0.0107 1.0152 171.2  m  21?   1.54 240.1   53  62  39  85
   2024 04 19 20:40  13 37 13.32    -03 27 03.3   0.0107 1.0152 171.2  m  21?   1.60 241.6   55  60  39  85
   2024 04 19 20:50  13 37 12.36    -03 27 10.8   0.0107 1.0152 171.2  m  21?   1.66 243.0   57  57  39  85
   2024 04 19 21:00  13 37 11.35    -03 27 18.3   0.0107 1.0152 171.2  m  21?   1.71 244.2   58  54  39  85
   2024 04 19 21:10  13 37 10.30    -03 27 25.6   0.0107 1.0152 171.2  m  21?   1.76 245.3   60  50  39  85
   2024 04 19 21:20  13 37 09.21    -03 27 32.9   0.0107 1.0152 171.2  m  21?   1.80 246.2   62  47  39  85
   2024 04 19 21:30  13 37 08.10    -03 27 40.1   0.0107 1.0152 171.2  m  21?   1.84 247.0   64  42  39  85
   2024 04 19 21:40  13 37 06.95    -03 27 47.3   0.0107 1.0152 171.2  m  21?   1.87 247.7   65  38  39  85
   2024 04 19 21:50  13 37 05.78    -03 27 54.3   0.0107 1.0152 171.2  m  21?   1.90 248.3   67  32  39  85
   2024 04 19 22:00  13 37 04.59    -03 28 01.2   0.0107 1.0152 171.2  m  21?   1.93 248.9   68  27  39  85
   2024 04 19 22:10  13 37 03.38    -03 28 08.1   0.0107 1.0152 171.2  m  21?   1.94 249.4   69  20  38  85
   2024 04 19 22:20  13 37 02.16    -03 28 14.9   0.0107 1.0152 171.2  m  21?   1.95 249.7   69  13  38  85
   2024 04 19 22:30  13 37 00.93    -03 28 21.6   0.0107 1.0152 171.2  m  21?   1.96 250.1   70   6  38  85
   2024 04 19 22:40  13 36 59.70    -03 28 28.2   0.0107 1.0152 171.2  t  21?   1.96 250.3   70 359  38  85
   2024 04 19 22:50  13 36 58.47    -03 28 34.7   0.0107 1.0152 171.2  m  21?   1.95 250.6   70 351  38  85
   2024 04 19 23:00  13 36 57.24    -03 28 41.1   0.0107 1.0152 171.2  m  21?   1.94 250.7   69 344  38  85
   2024 04 19 23:10  13 36 56.03    -03 28 47.4   0.0107 1.0152 171.1  m  21?   1.92 250.8   68 337  38  85
   2024 04 19 23:20  13 36 54.82    -03 28 53.6   0.0107 1.0152 171.1  m  21?   1.89 250.8   67 331  38  85
   2024 04 19 23:30  13 36 53.64    -03 28 59.8   0.0107 1.0152 171.1  m  21?   1.86 250.8   66 325  38  85
   2024 04 19 23:40  13 36 52.47    -03 29 05.8   0.0107 1.0152 171.1  m  21?   1.83 250.7   65 320  38  85
   2024 04 19 23:50  13 36 51.33    -03 29 11.8   0.0107 1.0152 171.1  m  21?   1.79 250.5   63 315  38  85
   2024 04 20 00:00  13 36 50.22    -03 29 17.7   0.0107 1.0152 171.1  m  21?   1.74 250.2   62 311  38  85
   2024 04 20 00:10  13 36 49.15    -03 29 23.5   0.0107 1.0152 171.1  m  21?   1.68 249.9   60 308  38  85
   2024 04 20 00:20  13 36 48.11    -03 29 29.2   0.0107 1.0152 171.1  m  21?   1.63 249.4   58 304  38  85
   2024 04 20 00:30  13 36 47.12    -03 29 34.9   0.0107 1.0152 171.1  m  21?   1.56 248.9   56 301  38  85
   2024 04 20 00:40  13 36 46.16    -03 29 40.4   0.0107 1.0152 171.1  m  21?   1.49 248.2   54 299  38  85
   2024 04 20 00:50  13 36 45.26    -03 29 45.9   0.0107 1.0152 171.1  m  21?   1.42 247.3   52 296  37  85
   2024 04 20 01:00  13 36 44.42    -03 29 51.3   0.0107 1.0153 171.1  m  21?   1.34 246.3   50 294  37  85
   2024 04 20 01:10  13 36 43.62    -03 29 56.7   0.0107 1.0153 171.1  m  21?   1.26 245.0   48 292  37  85
   2024 04 20 01:20  13 36 42.89    -03 30 01.9   0.0107 1.0153 171.1  m  21?   1.17 243.4   46 290  37  85
   2024 04 20 01:30  13 36 42.22    -03 30 07.1   0.0107 1.0153 171.1  m  21?   1.08 241.5   44 288  37  86
   2024 04 20 01:40  13 36 41.62    -03 30 12.3   0.0107 1.0153 171.1  m  21?   0.99 239.0   41 287  37  86
   2024 04 20 01:50  13 36 41.08    -03 30 17.3   0.0107 1.0153 171.1  m  21?   0.90 235.9   39 285  37  86
   2024 04 20 02:00  13 36 40.62    -03 30 22.3   0.0107 1.0153 171.1  m  21?   0.81 231.9   37 284  37  86
   2024 04 20 02:10  13 36 40.23    -03 30 27.3   0.0107 1.0153 171.1  m  21?   0.72 226.7   35 282  37  86
   2024 04 20 02:20  13 36 39.92    -03 30 32.2   0.0107 1.0153 171.1     21?   0.63 219.8   32 281  37  86
   2024 04 20 02:30  13 36 39.69    -03 30 37.0   0.0107 1.0153 171.0     21?   0.56 210.6   30 280  37  86
   2024 04 20 02:40  13 36 39.54    -03 30 41.8   0.0107 1.0153 171.0     21?   0.50 198.6   28 278  37  86
   2024 04 20 02:50  13 36 39.47    -03 30 46.6   0.0107 1.0153 171.0     21?   0.47 184.1   26 277  36  86
   2024 04 20 03:00  13 36 39.49    -03 30 51.3   0.0107 1.0153 171.0     21?   0.48 168.4   23 276  36  86
   2024 04 20 03:10  13 36 39.60    -03 30 56.0   0.0107 1.0153 171.0     21?   0.52 153.8   21 275  36  86
   2024 04 20 03:20  13 36 39.80    -03 31 00.6   0.0107 1.0153 171.0     21?   0.59 141.8   19 274  36  86
   2024 04 20 03:30  13 36 40.09    -03 31 05.3   0.0107 1.0153 171.0     21?   0.68 132.5   16 273  36  86
   2024 04 20 03:40  13 36 40.47    -03 31 09.9   0.0107 1.0153 171.0     21?   0.79 125.6   14 272  36  86
   2024 04 20 03:50  13 36 40.94    -03 31 14.4   0.0107 1.0153 171.0     21?   0.90 120.3   12 271  36  86
   2024 04 20 04:00  13 36 41.51    -03 31 19.0   0.0107 1.0153 171.0 A   21?   1.03 116.2   10 270  36  86
   2024 04 20 04:10  13 36 42.17    -03 31 23.5   0.0107 1.0153 171.0 A   21?   1.16 113.0    7 269  36  86
   2024 04 20 04:20  13 36 42.93    -03 31 28.1   0.0108 1.0153 171.0 A   21?   1.29 110.5    5 268  36  86
   2024 04 20 04:30  13 36 43.78    -03 31 32.6   0.0108 1.0153 171.0 N   21?   1.42 108.4    3 267  36  86
   2024 04 20 04:40  13 36 44.73    -03 31 37.1   0.0108 1.0153 171.0 N   21?   1.56 106.8    0 266  35  86
   ................
   2024 04 20 16:50  13 39 36.45    -03 39 48.1   0.0107 1.0154 171.1 Cm  21?   1.57 124.2    4  92  29  90
   2024 04 20 17:00  13 39 37.27    -03 39 57.0   0.0107 1.0154 171.1 Nm  21?   1.46 127.4    6  91  29  90
   2024 04 20 17:10  13 39 38.00    -03 40 05.9   0.0107 1.0154 171.1 Nm  21?   1.35 131.0    8  90  29  90
   2024 04 20 17:20  13 39 38.63    -03 40 14.7   0.0107 1.0154 171.1 Nm  21?   1.24 135.3   11  89  29  90
   2024 04 20 17:30  13 39 39.16    -03 40 23.6   0.0107 1.0154 171.1 Am  21?   1.15 140.3   13  88  29  90
   2024 04 20 17:40  13 39 39.60    -03 40 32.4   0.0107 1.0154 171.1 Am  21?   1.06 146.0   15  87  29  90
   2024 04 20 17:50  13 39 39.95    -03 40 41.2   0.0107 1.0154 171.1 Am  21?   0.99 152.5   17  86  29  90
   2024 04 20 18:00  13 39 40.21    -03 40 50.0   0.0107 1.0154 171.1  m  21?   0.93 159.9   20  85  29  90
   2024 04 20 18:10  13 39 40.38    -03 40 58.7   0.0107 1.0154 171.1  m  21?   0.89 167.9   22  84  29  90
   2024 04 20 18:20  13 39 40.46    -03 41 07.4   0.0107 1.0154 171.1  m  21?   0.87 176.3   24  83  29  90
   2024 04 20 18:30  13 39 40.45    -03 41 16.1   0.0107 1.0154 171.1  m  21?   0.87 184.8   27  82  28  90
   2024 04 20 18:40  13 39 40.36    -03 41 24.8   0.0107 1.0154 171.1  m  21?   0.88 193.0   29  80  28  90
   2024 04 20 18:50  13 39 40.19    -03 41 33.3   0.0107 1.0154 171.1  m  21?   0.92 200.6   31  79  28  90
   2024 04 20 19:00  13 39 39.93    -03 41 41.9   0.0107 1.0154 171.1  m  21?   0.96 207.3   33  78  28  90
   2024 04 20 19:10  13 39 39.60    -03 41 50.4   0.0107 1.0154 171.0  m  21?   1.01 213.3   36  77  28  90
   2024 04 20 19:20  13 39 39.19    -03 41 58.8   0.0107 1.0155 171.0  m  21?   1.07 218.5   38  75  28  91
   2024 04 20 19:30  13 39 38.70    -03 42 07.2   0.0107 1.0155 171.0  m  21?   1.14 222.9   40  74  28  91
   2024 04 20 19:40  13 39 38.15    -03 42 15.5   0.0107 1.0155 171.0  m  21?   1.21 226.7   42  72  28  91
   2024 04 20 19:50  13 39 37.53    -03 42 23.7   0.0107 1.0155 171.0  m  21?   1.28 230.0   45  70  28  91
   2024 04 20 20:00  13 39 36.84    -03 42 31.9   0.0107 1.0155 171.0  m  21?   1.35 232.8   47  69  28  91
   2024 04 20 20:10  13 39 36.09    -03 42 40.0   0.0107 1.0155 171.0  m  21?   1.42 235.2   49  67  28  91
   2024 04 20 20:20  13 39 35.29    -03 42 48.0   0.0107 1.0155 171.0  m  21?   1.48 237.3   51  65  28  91
   2024 04 20 20:30  13 39 34.43    -03 42 55.9   0.0107 1.0155 171.0  m  21?   1.54 239.1   53  62  28  91
   2024 04 20 20:40  13 39 33.52    -03 43 03.8   0.0107 1.0155 171.0  m  21?   1.60 240.7   55  60  28  91
   2024 04 20 20:50  13 39 32.56    -03 43 11.6   0.0107 1.0155 171.0  m  21?   1.66 242.1   57  57  28  91
   2024 04 20 21:00  13 39 31.55    -03 43 19.3   0.0107 1.0155 171.0  m  21?   1.71 243.3   59  54  28  91
   2024 04 20 21:10  13 39 30.51    -03 43 26.9   0.0107 1.0155 171.0  m  21?   1.76 244.4   61  50  28  91
   2024 04 20 21:20  13 39 29.43    -03 43 34.4   0.0107 1.0155 171.0  m  21?   1.80 245.4   63  46  28  91
   2024 04 20 21:30  13 39 28.32    -03 43 41.8   0.0107 1.0155 171.0  m  21?   1.84 246.2   64  42  28  91
   2024 04 20 21:40  13 39 27.18    -03 43 49.2   0.0107 1.0155 171.0  m  21?   1.87 247.0   66  37  28  91
   2024 04 20 21:50  13 39 26.02    -03 43 56.4   0.0107 1.0155 171.0  m  21?   1.90 247.6   67  32  28  91
   2024 04 20 22:00  13 39 24.84    -03 44 03.6   0.0107 1.0155 171.0  m  21?   1.92 248.2   68  26  27  91
   2024 04 20 22:10  13 39 23.64    -03 44 10.6   0.0107 1.0155 171.0  m  21?   1.93 248.6   69  19  27  91
   2024 04 20 22:20  13 39 22.43    -03 44 17.6   0.0107 1.0155 171.0  m  21?   1.94 249.1   70  12  27  91
   2024 04 20 22:30  13 39 21.21    -03 44 24.5   0.0107 1.0155 171.0  m  21?   1.95 249.4   70   5  27  91
   2024 04 20 22:40  13 39 19.99    -03 44 31.2   0.0107 1.0155 170.9  t  21?   1.95 249.7   70 357  27  91
   2024 04 20 22:50  13 39 18.77    -03 44 37.9   0.0107 1.0155 170.9  m  21?   1.94 249.9   70 350  27  91
   2024 04 20 23:00  13 39 17.56    -03 44 44.5   0.0107 1.0155 170.9  m  21?   1.92 250.0   69 343  27  91
   2024 04 20 23:10  13 39 16.36    -03 44 51.0   0.0107 1.0155 170.9  m  21?   1.90 250.1   69 336  27  91
   2024 04 20 23:20  13 39 15.17    -03 44 57.4   0.0107 1.0155 170.9  m  21?   1.88 250.2   68 330  27  91
   2024 04 20 23:30  13 39 14.00    -03 45 03.6   0.0107 1.0155 170.9  m  21?   1.85 250.1   66 324  27  91
   2024 04 20 23:40  13 39 12.85    -03 45 09.8   0.0107 1.0155 170.9  m  21?   1.81 250.0   65 319  27  91
   2024 04 20 23:50  13 39 11.73    -03 45 16.0   0.0107 1.0155 170.9  m  21?   1.77 249.8   63 314  27  91
   2024 04 21 00:00  13 39 10.63    -03 45 22.0   0.0107 1.0155 170.9  m  21?   1.72 249.5   62 310  27  91
   2024 04 21 00:10  13 39 09.58    -03 45 27.9   0.0107 1.0155 170.9  m  21?   1.66 249.2   60 307  27  91
   2024 04 21 00:20  13 39 08.56    -03 45 33.7   0.0107 1.0155 170.9  m  21?   1.60 248.7   58 303  27  91
   2024 04 21 00:30  13 39 07.58    -03 45 39.5   0.0107 1.0155 170.9  m  21?   1.54 248.1   56 300  27  91
   2024 04 21 00:40  13 39 06.65    -03 45 45.1   0.0107 1.0155 170.9  m  21?   1.47 247.4   54 298  27  91
   2024 04 21 00:50  13 39 05.77    -03 45 50.7   0.0107 1.0155 170.9  m  21?   1.39 246.5   52 295  26  91
   2024 04 21 01:00  13 39 04.94    -03 45 56.2   0.0107 1.0155 170.9  m  21?   1.32 245.4   50 293  26  91
   2024 04 21 01:10  13 39 04.17    -03 46 01.6   0.0107 1.0155 170.9  m  21?   1.23 244.0   48 291  26  91
   2024 04 21 01:20  13 39 03.46    -03 46 07.0   0.0107 1.0155 170.9  m  21?   1.15 242.3   46 289  26  91
   2024 04 21 01:30  13 39 02.81    -03 46 12.3   0.0107 1.0155 170.9  m  21?   1.06 240.3   43 288  26  91
   2024 04 21 01:40  13 39 02.23    -03 46 17.5   0.0107 1.0155 170.9  m  21?   0.97 237.6   41 286  26  91
   2024 04 21 01:50  13 39 01.72    -03 46 22.6   0.0107 1.0155 170.8  m  21?   0.88 234.3   39 284  26  91
   2024 04 21 02:00  13 39 01.28    -03 46 27.7   0.0107 1.0155 170.8  m  21?   0.79 230.0   37 283  26  91
   2024 04 21 02:10  13 39 00.92    -03 46 32.7   0.0107 1.0155 170.8  m  21?   0.70 224.3   34 282  26  92
   2024 04 21 02:20  13 39 00.63    -03 46 37.6   0.0107 1.0155 170.8  m  21?   0.62 216.8   32 280  26  92
   2024 04 21 02:30  13 39 00.42    -03 46 42.5   0.0107 1.0155 170.8  m  21?   0.55 206.9   30 279  26  92
   2024 04 21 02:40  13 39 00.30    -03 46 47.4   0.0107 1.0155 170.8  m  21?   0.50 194.3   28 278  26  92
   2024 04 21 02:50  13 39 00.26    -03 46 52.2   0.0107 1.0155 170.8  m  21?   0.48 179.4   25 277  26  92
   2024 04 21 03:00  13 39 00.30    -03 46 56.9   0.0107 1.0155 170.8  m  21?   0.49 164.0   23 276  26  92
   2024 04 21 03:10  13 39 00.44    -03 47 01.7   0.0107 1.0155 170.8     21?   0.54 150.2   21 275  25  92
   2024 04 21 03:20  13 39 00.66    -03 47 06.3   0.0107 1.0155 170.8     21?   0.62 139.1   19 273  25  92
   2024 04 21 03:30  13 39 00.98    -03 47 11.0   0.0107 1.0155 170.8     21?   0.71 130.6   16 272  25  92
   2024 04 21 03:40  13 39 01.38    -03 47 15.6   0.0107 1.0155 170.8     21?   0.82 124.1   14 271  25  92
   2024 04 21 03:50  13 39 01.88    -03 47 20.2   0.0107 1.0155 170.8     21?   0.94 119.2   12 270  25  92
   2024 04 21 04:00  13 39 02.48    -03 47 24.8   0.0107 1.0155 170.8 A   21?   1.06 115.4    9 269  25  92
   2024 04 21 04:10  13 39 03.17    -03 47 29.4   0.0107 1.0155 170.8 A   21?   1.19 112.4    7 268  25  92
   2024 04 21 04:20  13 39 03.96    -03 47 34.0   0.0107 1.0155 170.8 A   21?   1.33 110.0    5 267  25  92
   2024 04 21 04:30  13 39 04.84    -03 47 38.5   0.0107 1.0156 170.8 N   21?   1.46 108.0    2 266  25  92
   2024 04 21 04:40  13 39 05.81    -03 47 43.1   0.0108 1.0156 170.8 N   21?   1.60 106.4    0 265  25  92
   ................
   2024 04 21 16:50  13 41 58.48    -03 56 08.4   0.0107 1.0157 170.9 Cm  21?   1.59 125.3    4  92  18  95
   2024 04 21 17:00  13 41 59.30    -03 56 17.6   0.0107 1.0157 170.9 Nm  21?   1.48 128.5    6  91  18  95
   2024 04 21 17:10  13 42 00.02    -03 56 26.8   0.0107 1.0157 170.9 Nm  21?   1.37 132.2    9  90  18  95
   2024 04 21 17:20  13 42 00.65    -03 56 36.0   0.0107 1.0157 170.9 Nm  21?   1.26 136.5   11  89  18  95
   2024 04 21 17:30  13 42 01.19    -03 56 45.2   0.0107 1.0157 170.9 Am  21?   1.17 141.4   13  88  18  95
   2024 04 21 17:40  13 42 01.63    -03 56 54.4   0.0107 1.0157 170.9 Am  21?   1.09 147.1   16  87  18  95
   2024 04 21 17:50  13 42 01.97    -03 57 03.5   0.0107 1.0157 170.9 Am  21?   1.02 153.6   18  86  18  95
   2024 04 21 18:00  13 42 02.23    -03 57 12.6   0.0107 1.0157 170.9  m  21?   0.96 160.7   20  85  18  95
   2024 04 21 18:10  13 42 02.40    -03 57 21.7   0.0107 1.0157 170.9  m  21?   0.92 168.5   23  84  18  95
   2024 04 21 18:20  13 42 02.47    -03 57 30.7   0.0107 1.0157 170.9  m  21?   0.90 176.6   25  83  18  95
   2024 04 21 18:30  13 42 02.46    -03 57 39.7   0.0107 1.0157 170.9  m  21?   0.90 184.8   27  82  18  95
   2024 04 21 18:40  13 42 02.37    -03 57 48.6   0.0107 1.0157 170.9  m  21?   0.91 192.7   29  80  18  95
   2024 04 21 18:50  13 42 02.19    -03 57 57.5   0.0107 1.0157 170.8  m  21?   0.94 200.0   32  79  18  95
   2024 04 21 19:00  13 42 01.94    -03 58 06.4   0.0107 1.0157 170.8  m  21?   0.99 206.6   34  78  17  95
   2024 04 21 19:10  13 42 01.60    -03 58 15.1   0.0107 1.0157 170.8  m  21?   1.04 212.5   36  77  17  95
   2024 04 21 19:20  13 42 01.19    -03 58 23.9   0.0107 1.0157 170.8  m  21?   1.10 217.5   38  75  17  95
   2024 04 21 19:30  13 42 00.71    -03 58 32.5   0.0107 1.0157 170.8  m  21?   1.16 221.9   41  74  17  95
   2024 04 21 19:40  13 42 00.15    -03 58 41.1   0.0107 1.0157 170.8  m  21?   1.23 225.7   43  72  17  95
   2024 04 21 19:50  13 41 59.53    -03 58 49.6   0.0107 1.0157 170.8  m  21?   1.29 229.0   45  70  17  95
   2024 04 21 20:00  13 41 58.85    -03 58 58.1   0.0107 1.0157 170.8  m  21?   1.36 231.8   47  69  17  95
   2024 04 21 20:10  13 41 58.10    -03 59 06.4   0.0107 1.0157 170.8  m  21?   1.43 234.3   49  67  17  95
   2024 04 21 20:20  13 41 57.30    -03 59 14.7   0.0107 1.0157 170.8  m  21?   1.49 236.4   51  65  17  95
   2024 04 21 20:30  13 41 56.44    -03 59 22.9   0.0107 1.0157 170.8  m  21?   1.55 238.2   54  62  17  95
   2024 04 21 20:40  13 41 55.53    -03 59 31.0   0.0107 1.0157 170.8  m  21?   1.61 239.9   56  60  17  95
   2024 04 21 20:50  13 41 54.57    -03 59 39.0   0.0107 1.0157 170.8  m  21?   1.67 241.3   58  57  17  95
   2024 04 21 21:00  13 41 53.58    -03 59 46.9   0.0107 1.0157 170.8  m  21?   1.72 242.6   59  54  17  95
   2024 04 21 21:10  13 41 52.54    -03 59 54.8   0.0107 1.0157 170.8  m  21?   1.76 243.7   61  50  17  95
   2024 04 21 21:20  13 41 51.46    -04 00 02.5   0.0107 1.0157 170.8  m  21?   1.80 244.6   63  46  17  95
   2024 04 21 21:30  13 41 50.36    -04 00 10.1   0.0107 1.0157 170.8  m  21?   1.84 245.5   65  42  17  95
   2024 04 21 21:40  13 41 49.23    -04 00 17.7   0.0107 1.0157 170.8  m  21?   1.87 246.3   66  37  17  95
   2024 04 21 21:50  13 41 48.07    -04 00 25.1   0.0107 1.0157 170.8  m  21?   1.89 246.9   67  31  17  95
   2024 04 21 22:00  13 41 46.90    -04 00 32.5   0.0107 1.0157 170.8  m  21?   1.91 247.5   69  25  17  95
   2024 04 21 22:10  13 41 45.71    -04 00 39.7   0.0107 1.0157 170.8  m  21?   1.93 248.0   69  18  17  95
   2024 04 21 22:20  13 41 44.51    -04 00 46.9   0.0107 1.0157 170.8  m  21?   1.94 248.4   70  11  17  96
   2024 04 21 22:30  13 41 43.30    -04 00 53.9   0.0107 1.0157 170.7  m  21?   1.94 248.8   70   4  17  96
   2024 04 21 22:40  13 41 42.09    -04 01 00.8   0.0107 1.0157 170.7  t  21?   1.94 249.1   70 356  16  96
   2024 04 21 22:50  13 41 40.88    -04 01 07.6   0.0107 1.0157 170.7  m  21?   1.93 249.3   70 349  16  96
   2024 04 21 23:00  13 41 39.68    -04 01 14.4   0.0107 1.0158 170.7  m  21?   1.91 249.5   70 341  16  96
   2024 04 21 23:10  13 41 38.49    -04 01 21.0   0.0107 1.0158 170.7  m  21?   1.89 249.5   69 335  16  96
   2024 04 21 23:20  13 41 37.31    -04 01 27.5   0.0107 1.0158 170.7  m  21?   1.86 249.6   68 328  16  96
   2024 04 21 23:30  13 41 36.15    -04 01 33.9   0.0107 1.0158 170.7  m  21?   1.83 249.5   66 323  16  96
   2024 04 21 23:40  13 41 35.02    -04 01 40.3   0.0107 1.0158 170.7  m  21?   1.79 249.4   65 318  16  96
   2024 04 21 23:50  13 41 33.91    -04 01 46.5   0.0107 1.0158 170.7  m  21?   1.75 249.2   63 313  16  96
   2024 04 22 00:00  13 41 32.84    -04 01 52.6   0.0107 1.0158 170.7  m  21?   1.70 248.9   62 309  16  96
   2024 04 22 00:10  13 41 31.79    -04 01 58.6   0.0107 1.0158 170.7  m  21?   1.64 248.6   60 306  16  96
   2024 04 22 00:20  13 41 30.79    -04 02 04.6   0.0107 1.0158 170.7  m  21?   1.58 248.1   58 303  16  96
   2024 04 22 00:30  13 41 29.83    -04 02 10.4   0.0107 1.0158 170.7  m  21?   1.52 247.4   56 300  16  96
   2024 04 22 00:40  13 41 28.92    -04 02 16.1   0.0107 1.0158 170.7  m  21?   1.45 246.7   54 297  16  96
   2024 04 22 00:50  13 41 28.06    -04 02 21.8   0.0107 1.0158 170.7  m  21?   1.37 245.7   52 295  16  96
   2024 04 22 01:00  13 41 27.25    -04 02 27.4   0.0107 1.0158 170.7  m  21?   1.29 244.6   50 293  16  96
   2024 04 22 01:10  13 41 26.50    -04 02 32.8   0.0107 1.0158 170.7  m  21?   1.21 243.1   48 291  16  96
   2024 04 22 01:20  13 41 25.81    -04 02 38.3   0.0107 1.0158 170.6  m  21?   1.12 241.3   45 289  16  96
   2024 04 22 01:30  13 41 25.18    -04 02 43.6   0.0107 1.0158 170.6  m  21?   1.03 239.1   43 287  16  96
   2024 04 22 01:40  13 41 24.62    -04 02 48.8   0.0107 1.0158 170.6  m  21?   0.94 236.3   41 285  16  96
   2024 04 22 01:50  13 41 24.13    -04 02 54.0   0.0107 1.0158 170.6  m  21?   0.85 232.7   39 284  15  96
   2024 04 22 02:00  13 41 23.71    -04 02 59.1   0.0107 1.0158 170.6  m  21?   0.76 228.1   36 282  15  96
   2024 04 22 02:10  13 41 23.37    -04 03 04.2   0.0107 1.0158 170.6  m  21?   0.68 222.0   34 281  15  96
   2024 04 22 02:20  13 41 23.11    -04 03 09.2   0.0107 1.0158 170.6  m  21?   0.60 213.9   32 280  15  96
   2024 04 22 02:30  13 41 22.92    -04 03 14.1   0.0107 1.0158 170.6  m  21?   0.53 203.3   30 279  15  96
   2024 04 22 02:40  13 41 22.82    -04 03 19.0   0.0107 1.0158 170.6  m  21?   0.49 190.1   27 277  15  96
   2024 04 22 02:50  13 41 22.81    -04 03 23.8   0.0107 1.0158 170.6  m  21?   0.48 175.0   25 276  15  96
   2024 04 22 03:00  13 41 22.88    -04 03 28.6   0.0107 1.0158 170.6  m  21?   0.51 160.1   23 275  15  96
   2024 04 22 03:10  13 41 23.04    -04 03 33.3   0.0107 1.0158 170.6  m  21?   0.56 147.0   21 274  15  96
   2024 04 22 03:20  13 41 23.29    -04 03 38.0   0.0107 1.0158 170.6  m  21?   0.64 136.7   18 273  15  96
   2024 04 22 03:30  13 41 23.63    -04 03 42.7   0.0107 1.0158 170.6  m  21?   0.74 128.7   16 272  15  96
   2024 04 22 03:40  13 41 24.06    -04 03 47.3   0.0107 1.0158 170.6  m  21?   0.85 122.7   14 271  15  96
   2024 04 22 03:50  13 41 24.59    -04 03 52.0   0.0107 1.0158 170.6  m  21?   0.97 118.1   11 270  15  96
   2024 04 22 04:00  13 41 25.21    -04 03 56.6   0.0107 1.0158 170.6 A   21?   1.10 114.6    9 269  15  96
   2024 04 22 04:10  13 41 25.92    -04 04 01.2   0.0107 1.0158 170.6 A   21?   1.23 111.7    7 268  15  96
   2024 04 22 04:20  13 41 26.74    -04 04 05.7   0.0107 1.0158 170.6 A   21?   1.37 109.5    4 267  14  96
   2024 04 22 04:30  13 41 27.64    -04 04 10.3   0.0107 1.0158 170.6 N   21?   1.50 107.6    2 266  14  96
   2024 04 22 04:40  13 41 28.65    -04 04 14.9   0.0107 1.0158 170.6 N   21?   1.64 106.1    0 265  14  96
   ................
   2024 04 22 16:50  13 44 22.20    -04 12 53.6   0.0107 1.0159 170.7 Cm  21?   1.60 126.4    5  92   9  98
   2024 04 22 17:00  13 44 23.01    -04 13 03.2   0.0107 1.0159 170.7 Nm  21?   1.49 129.6    7  91   9  98
   2024 04 22 17:10  13 44 23.73    -04 13 12.7   0.0107 1.0159 170.7 Nm  21?   1.38 133.4    9  90   9  98
   2024 04 22 17:20  13 44 24.36    -04 13 22.2   0.0107 1.0159 170.7 Nm  21?   1.28 137.7   11  89   9  98
   2024 04 22 17:30  13 44 24.89    -04 13 31.7   0.0107 1.0159 170.7 Am  21?   1.19 142.6   14  88   9  98
   2024 04 22 17:40  13 44 25.32    -04 13 41.2   0.0107 1.0159 170.7 Am  21?   1.11 148.3   16  87   9  98
   2024 04 22 17:50  13 44 25.67    -04 13 50.6   0.0107 1.0160 170.7 Am  21?   1.04 154.6   18  86   9  98
   2024 04 22 18:00  13 44 25.92    -04 14 00.0   0.0107 1.0160 170.7  m  21?   0.99 161.6   21  85   9  98
   2024 04 22 18:10  13 44 26.08    -04 14 09.4   0.0107 1.0160 170.7  m  21?   0.95 169.2   23  84   8  98
   2024 04 22 18:20  13 44 26.16    -04 14 18.7   0.0107 1.0160 170.7  m  21?   0.93 177.1   25  83   8  98
   2024 04 22 18:30  13 44 26.14    -04 14 28.0   0.0107 1.0160 170.7  m  21?   0.93 184.9   28  82   8  98
   2024 04 22 18:40  13 44 26.05    -04 14 37.3   0.0107 1.0160 170.6  m  21?   0.94 192.5   30  81   8  98
   2024 04 22 18:50  13 44 25.87    -04 14 46.5   0.0107 1.0160 170.6  m  21?   0.97 199.6   32  79   8  98
   2024 04 22 19:00  13 44 25.61    -04 14 55.6   0.0107 1.0160 170.6  m  21?   1.01 206.1   34  78   8  98
   2024 04 22 19:10  13 44 25.27    -04 15 04.6   0.0107 1.0160 170.6  m  21?   1.06 211.8   37  77   8  98
   2024 04 22 19:20  13 44 24.86    -04 15 13.6   0.0107 1.0160 170.6  m  21?   1.12 216.8   39  75   8  98
   2024 04 22 19:30  13 44 24.37    -04 15 22.6   0.0107 1.0160 170.6  m  21?   1.18 221.1   41  74   8  98
   2024 04 22 19:40  13 44 23.82    -04 15 31.4   0.0107 1.0160 170.6  m  21?   1.25 224.9   43  72   8  98
   2024 04 22 19:50  13 44 23.20    -04 15 40.2   0.0107 1.0160 170.6  m  21?   1.31 228.1   46  71   8  98
   2024 04 22 20:00  13 44 22.51    -04 15 48.9   0.0107 1.0160 170.6  m  21?   1.38 231.0   48  69   8  98
   2024 04 22 20:10  13 44 21.77    -04 15 57.5   0.0107 1.0160 170.6  m  21?   1.44 233.4   50  67   8  98
   2024 04 22 20:20  13 44 20.96    -04 16 06.0   0.0107 1.0160 170.6  m  21?   1.50 235.6   52  65   8  98
   2024 04 22 20:30  13 44 20.11    -04 16 14.4   0.0107 1.0160 170.6  m  21?   1.56 237.5   54  62   8  98
   2024 04 22 20:40  13 44 19.20    -04 16 22.8   0.0107 1.0160 170.6  m  21?   1.62 239.1   56  60   8  98
   2024 04 22 20:50  13 44 18.24    -04 16 31.0   0.0107 1.0160 170.6  m  21?   1.67 240.6   58  57   8  98
   2024 04 22 21:00  13 44 17.25    -04 16 39.1   0.0107 1.0160 170.6  m  21?   1.72 241.9   60  54   8  98
   2024 04 22 21:10  13 44 16.21    -04 16 47.2   0.0107 1.0160 170.6  m  21?   1.77 243.0   62  50   8  98
   2024 04 22 21:20  13 44 15.14    -04 16 55.1   0.0107 1.0160 170.6  m  21?   1.81 244.0   63  46   8  98
   2024 04 22 21:30  13 44 14.04    -04 17 03.0   0.0107 1.0160 170.6  m  21?   1.84 244.9   65  41   8  98
   2024 04 22 21:40  13 44 12.92    -04 17 10.7   0.0107 1.0160 170.6  m  21?   1.87 245.6   67  36   8  98
   2024 04 22 21:50  13 44 11.77    -04 17 18.3   0.0107 1.0160 170.6  m  21?   1.89 246.3   68  31   8  98
   2024 04 22 22:00  13 44 10.60    -04 17 25.8   0.0107 1.0160 170.6  m  21?   1.91 246.9   69  24   8  98
   2024 04 22 22:10  13 44 09.41    -04 17 33.2   0.0107 1.0160 170.6  m  21?   1.92 247.4   70  18   8  98
   2024 04 22 22:20  13 44 08.22    -04 17 40.5   0.0107 1.0160 170.5  m  21?   1.93 247.9   70  10   8  98
   2024 04 22 22:30  13 44 07.02    -04 17 47.7   0.0107 1.0160 170.5  m  21?   1.93 248.2   71   3   8  98
   2024 04 22 22:40  13 44 05.82    -04 17 54.8   0.0107 1.0160 170.5  t  21?   1.93 248.5   71 355   8  98
   2024 04 22 22:50  13 44 04.62    -04 18 01.8   0.0107 1.0160 170.5  m  21?   1.92 248.8   70 347   8  98
   2024 04 22 23:00  13 44 03.43    -04 18 08.6   0.0107 1.0160 170.5  m  21?   1.90 248.9   70 340   8  98
   2024 04 22 23:10  13 44 02.25    -04 18 15.4   0.0107 1.0160 170.5  m  21?   1.88 249.0   69 333   8  98
   2024 04 22 23:20  13 44 01.08    -04 18 22.0   0.0107 1.0160 170.5  m  21?   1.85 249.1   68 327   8  98
   2024 04 22 23:30  13 43 59.94    -04 18 28.5   0.0107 1.0160 170.5  m  21?   1.82 249.0   66 322   8  98
   2024 04 22 23:40  13 43 58.82    -04 18 35.0   0.0107 1.0160 170.5  m  21?   1.78 248.9   65 317   8  98
   2024 04 22 23:50  13 43 57.72    -04 18 41.3   0.0107 1.0160 170.5  m  21?   1.73 248.7   63 312   8  98
   2024 04 23 00:00  13 43 56.66    -04 18 47.5   0.0107 1.0160 170.5  m  21?   1.68 248.4   61 308   8  98
   2024 04 23 00:10  13 43 55.63    -04 18 53.6   0.0107 1.0160 170.5  m  21?   1.62 248.0   60 305   8  99
   2024 04 23 00:20  13 43 54.65    -04 18 59.6   0.0107 1.0160 170.5  m  21?   1.56 247.5   58 302   8  99
   2024 04 23 00:30  13 43 53.70    -04 19 05.5   0.0107 1.0160 170.5  m  21?   1.50 246.9   56 299   8  99
   2024 04 23 00:40  13 43 52.80    -04 19 11.3   0.0107 1.0160 170.5  m  21?   1.43 246.1   54 296   8  99
   2024 04 23 00:50  13 43 51.96    -04 19 17.0   0.0107 1.0160 170.5  m  21?   1.35 245.1   52 294   8  99
   2024 04 23 01:00  13 43 51.17    -04 19 22.7   0.0107 1.0160 170.5  m  21?   1.27 243.8   49 292   8  99
   2024 04 23 01:10  13 43 50.43    -04 19 28.2   0.0107 1.0160 170.4  m  21?   1.19 242.3   47 290   8  99
   2024 04 23 01:20  13 43 49.76    -04 19 33.6   0.0107 1.0160 170.4  m  21?   1.10 240.5   45 288   8  99
   2024 04 23 01:30  13 43 49.15    -04 19 39.0   0.0107 1.0160 170.4  m  21?   1.01 238.1   43 286   8  99
   2024 04 23 01:40  13 43 48.61    -04 19 44.3   0.0107 1.0160 170.4  m  21?   0.92 235.1   41 285   8  99
   2024 04 23 01:50  13 43 48.14    -04 19 49.5   0.0107 1.0160 170.4  m  21?   0.83 231.3   38 283   8  99
   2024 04 23 02:00  13 43 47.75    -04 19 54.6   0.0107 1.0160 170.4  m  21?   0.74 226.4   36 282   8  99
   2024 04 23 02:10  13 43 47.43    -04 19 59.7   0.0107 1.0160 170.4  m  21?   0.66 219.8   34 281   8  99
   2024 04 23 02:20  13 43 47.18    -04 20 04.7   0.0107 1.0160 170.4  m  21?   0.58 211.2   32 279   7  99
   2024 04 23 02:30  13 43 47.02    -04 20 09.6   0.0107 1.0160 170.4  m  21?   0.52 200.0   29 278   7  99
   2024 04 23 02:40  13 43 46.95    -04 20 14.5   0.0107 1.0160 170.4  m  21?   0.49 186.2   27 277   7  99
   2024 04 23 02:50  13 43 46.95    -04 20 19.4   0.0107 1.0160 170.4  m  21?   0.49 171.1   25 276   7  99
   2024 04 23 03:00  13 43 47.05    -04 20 24.2   0.0107 1.0160 170.4  m  21?   0.52 156.5   23 275   7  99
   2024 04 23 03:10  13 43 47.23    -04 20 28.9   0.0107 1.0161 170.4  m  21?   0.58 144.1   20 274   7  99
   2024 04 23 03:20  13 43 47.50    -04 20 33.6   0.0107 1.0161 170.4  m  21?   0.67 134.4   18 273   7  99
   2024 04 23 03:30  13 43 47.87    -04 20 38.3   0.0107 1.0161 170.4  m  21?   0.77 127.1   16 272   7  99
   2024 04 23 03:40  13 43 48.32    -04 20 42.9   0.0107 1.0161 170.4  m  21?   0.88 121.4   13 271   7  99
   2024 04 23 03:50  13 43 48.87    -04 20 47.5   0.0107 1.0161 170.4  m  21?   1.01 117.1   11 270   7  99
   2024 04 23 04:00  13 43 49.52    -04 20 52.1   0.0107 1.0161 170.4 Am  21?   1.13 113.8    9 269   7  99
   2024 04 23 04:10  13 43 50.26    -04 20 56.7   0.0107 1.0161 170.4 Am  21?   1.27 111.1    7 268   7  99
   2024 04 23 04:20  13 43 51.10    -04 21 01.3   0.0107 1.0161 170.4 Am  21?   1.40 108.9    4 267   7  99
   2024 04 23 04:30  13 43 52.03    -04 21 05.8   0.0107 1.0161 170.4 Nm  21?   1.54 107.2    2 266   7  99
   2024 04 23 04:40  13 43 53.06    -04 21 10.4   0.0107 1.0161 170.4 Nm  21?   1.67 105.7    0 265   7  99
   ................
   2024 04 23 16:50  13 46 47.41    -04 30 01.6   0.0107 1.0162 170.5 Cm  21?   1.62 127.4    5  92   8  99
   2024 04 23 17:00  13 46 48.22    -04 30 11.4   0.0107 1.0162 170.5 Nm  21?   1.51 130.7    7  91   8  99
   2024 04 23 17:10  13 46 48.94    -04 30 21.2   0.0107 1.0162 170.5 Nm  21?   1.40 134.5   10  90   8  99
   2024 04 23 17:20  13 46 49.56    -04 30 31.1   0.0107 1.0162 170.5 Nm  21?   1.30 138.8   12  89   8  99
   2024 04 23 17:30  13 46 50.08    -04 30 40.9   0.0107 1.0162 170.5 Am  21?   1.21 143.8   14  88   8  99
   2024 04 23 17:40  13 46 50.51    -04 30 50.7   0.0107 1.0162 170.5 Am  21?   1.13 149.4   17  87   8  99
   2024 04 23 17:50  13 46 50.85    -04 31 00.4   0.0107 1.0162 170.5  m  21?   1.07 155.7   19  86   9  99
   2024 04 23 18:00  13 46 51.10    -04 31 10.1   0.0107 1.0162 170.5  m  21?   1.02 162.5   21  85   9  99
   2024 04 23 18:10  13 46 51.26    -04 31 19.8   0.0107 1.0162 170.5  m  21?   0.98 169.9   23  84   9  99
   2024 04 23 18:20  13 46 51.33    -04 31 29.4   0.0107 1.0162 170.5  m  21?   0.96 177.5   26  83   9  99
   2024 04 23 18:30  13 46 51.31    -04 31 39.0   0.0107 1.0162 170.5  m  21?   0.96 185.2   28  82   9  99
   2024 04 23 18:40  13 46 51.21    -04 31 48.5   0.0107 1.0162 170.5  m  21?   0.97 192.5   30  81   9  99
   2024 04 23 18:50  13 46 51.02    -04 31 58.0   0.0107 1.0162 170.4  m  21?   1.00 199.4   33  79   9  99
   2024 04 23 19:00  13 46 50.76    -04 32 07.4   0.0107 1.0162 170.4  m  21?   1.04 205.7   35  78   9  99
   2024 04 23 19:10  13 46 50.42    -04 32 16.7   0.0107 1.0162 170.4  m  21?   1.09 211.2   37  77   9  99
   2024 04 23 19:20  13 46 50.01    -04 32 26.0   0.0107 1.0162 170.4  m  21?   1.14 216.2   39  75   9  99
   2024 04 23 19:30  13 46 49.52    -04 32 35.1   0.0107 1.0162 170.4  m  21?   1.20 220.4   42  74   9  99
   2024 04 23 19:40  13 46 48.96    -04 32 44.2   0.0107 1.0162 170.4  m  21?   1.27 224.2   44  72   9  99
   2024 04 23 19:50  13 46 48.34    -04 32 53.3   0.0107 1.0162 170.4  m  21?   1.33 227.4   46  71   9  99
   2024 04 23 20:00  13 46 47.65    -04 33 02.2   0.0107 1.0162 170.4  m  21?   1.39 230.3   48  69   9  99
   2024 04 23 20:10  13 46 46.90    -04 33 11.0   0.0107 1.0162 170.4  m  21?   1.46 232.7   50  67   9  99
   2024 04 23 20:20  13 46 46.10    -04 33 19.8   0.0107 1.0162 170.4  m  21?   1.52 234.9   52  65   9  99
   2024 04 23 20:30  13 46 45.24    -04 33 28.4   0.0107 1.0162 170.4  m  21?   1.58 236.8   54  62  10  99
   2024 04 23 20:40  13 46 44.33    -04 33 37.0   0.0107 1.0162 170.4  m  21?   1.63 238.5   57  60  10  99
   2024 04 23 20:50  13 46 43.38    -04 33 45.4   0.0107 1.0162 170.4  m  21?   1.68 239.9   58  57  10  99
   2024 04 23 21:00  13 46 42.38    -04 33 53.8   0.0107 1.0162 170.4  m  21?   1.73 241.2   60  53  10  99
   2024 04 23 21:10  13 46 41.35    -04 34 02.0   0.0107 1.0162 170.4  m  21?   1.77 242.4   62  50  10  99
   2024 04 23 21:20  13 46 40.28    -04 34 10.1   0.0107 1.0162 170.4  m  21?   1.81 243.4   64  46  10  99
   2024 04 23 21:30  13 46 39.19    -04 34 18.2   0.0107 1.0162 170.4  m  21?   1.84 244.3   66  41  10  99
   2024 04 23 21:40  13 46 38.06    -04 34 26.1   0.0107 1.0162 170.4  m  21?   1.87 245.1   67  36  10  99
   2024 04 23 21:50  13 46 36.92    -04 34 33.8   0.0107 1.0162 170.4  m  21?   1.89 245.8   68  30  10  99
   2024 04 23 22:00  13 46 35.75    -04 34 41.5   0.0107 1.0163 170.4  m  21?   1.91 246.4   69  24  10  99
   2024 04 23 22:10  13 46 34.57    -04 34 49.1   0.0107 1.0163 170.3  m  21?   1.92 246.9   70  17  10  99
   2024 04 23 22:20  13 46 33.38    -04 34 56.5   0.0107 1.0163 170.3  m  21?   1.93 247.4   71   9  10  99
   2024 04 23 22:30  13 46 32.19    -04 35 03.8   0.0107 1.0163 170.3  m  21?   1.93 247.8   71   2  10  99
   2024 04 23 22:40  13 46 31.00    -04 35 11.0   0.0107 1.0163 170.3  t  21?   1.92 248.1   71 354  10  99
   2024 04 23 22:50  13 46 29.81    -04 35 18.1   0.0107 1.0163 170.3  m  21?   1.91 248.3   70 346  10  99
   2024 04 23 23:00  13 46 28.62    -04 35 25.1   0.0107 1.0163 170.3  m  21?   1.89 248.5   70 339  10  99
   2024 04 23 23:10  13 46 27.45    -04 35 32.0   0.0107 1.0163 170.3  m  21?   1.87 248.6   69 332  10  99
   2024 04 23 23:20  13 46 26.30    -04 35 38.7   0.0107 1.0163 170.3  m  21?   1.84 248.6   68 326  10  99
   2024 04 23 23:30  13 46 25.16    -04 35 45.3   0.0107 1.0163 170.3  m  21?   1.80 248.6   66 320  10  99
   2024 04 23 23:40  13 46 24.05    -04 35 51.8   0.0107 1.0163 170.3  m  21?   1.76 248.4   65 315  10  99
   2024 04 23 23:50  13 46 22.97    -04 35 58.2   0.0107 1.0163 170.3  m  21?   1.72 248.2   63 311  10  99
   2024 04 24 00:00  13 46 21.91    -04 36 04.5   0.0107 1.0163 170.3  m  21?   1.67 247.9   61 307  10  99
   2024 04 24 00:10  13 46 20.90    -04 36 10.7   0.0107 1.0163 170.3  m  21?   1.61 247.5   59 304  10  99
   2024 04 24 00:20  13 46 19.93    -04 36 16.7   0.0107 1.0163 170.3  m  21?   1.55 247.0   58 301  10  99
   2024 04 24 00:30  13 46 19.00    -04 36 22.7   0.0107 1.0163 170.3  m  21?   1.48 246.4   56 298  10  99
   2024 04 24 00:40  13 46 18.11    -04 36 28.5   0.0107 1.0163 170.3  m  21?   1.41 245.5   54 295  10  99
   2024 04 24 00:50  13 46 17.28    -04 36 34.3   0.0107 1.0163 170.3  m  21?   1.33 244.5   51 293  10  99
   2024 04 24 01:00  13 46 16.51    -04 36 39.9   0.0107 1.0163 170.2  m  21?   1.25 243.2   49 291  10  99
   2024 04 24 01:10  13 46 15.79    -04 36 45.5   0.0107 1.0163 170.2  m  21?   1.17 241.7   47 289  11  99
   2024 04 24 01:20  13 46 15.13    -04 36 51.0   0.0107 1.0163 170.2  m  21?   1.08 239.7   45 287  11  99
   2024 04 24 01:30  13 46 14.54    -04 36 56.4   0.0107 1.0163 170.2  m  21?   0.99 237.2   43 286  11  99
   2024 04 24 01:40  13 46 14.02    -04 37 01.7   0.0107 1.0163 170.2  m  21?   0.90 234.1   41 284  11  99
   2024 04 24 01:50  13 46 13.57    -04 37 06.9   0.0107 1.0163 170.2  m  21?   0.81 230.1   38 283  11  99
   2024 04 24 02:00  13 46 13.19    -04 37 12.0   0.0107 1.0163 170.2  m  21?   0.72 224.8   36 281  11  99
   2024 04 24 02:10  13 46 12.89    -04 37 17.1   0.0107 1.0163 170.2  m  21?   0.64 217.8   34 280  11  99
   2024 04 24 02:20  13 46 12.67    -04 37 22.1   0.0107 1.0163 170.2  m  21?   0.57 208.6   32 279  11  99
   2024 04 24 02:30  13 46 12.53    -04 37 27.0   0.0107 1.0163 170.2  m  21?   0.51 196.8   29 278  11  99
   2024 04 24 02:40  13 46 12.47    -04 37 31.9   0.0107 1.0163 170.2  m  21?   0.49 182.6   27 276  11  99
   2024 04 24 02:50  13 46 12.50    -04 37 36.7   0.0107 1.0163 170.2  m  21?   0.49 167.4   25 275  11  99
   2024 04 24 03:00  13 46 12.61    -04 37 41.5   0.0107 1.0163 170.2  m  21?   0.53 153.3   22 274  11  99
   2024 04 24 03:10  13 46 12.82    -04 37 46.2   0.0107 1.0163 170.2  m  21?   0.60 141.5   20 273  11  99
   2024 04 24 03:20  13 46 13.11    -04 37 50.9   0.0107 1.0163 170.2  m  21?   0.69 132.4   18 272  11  99
   2024 04 24 03:30  13 46 13.50    -04 37 55.5   0.0107 1.0163 170.2  m  21?   0.80 125.5   15 271  11  99
   2024 04 24 03:40  13 46 13.98    -04 38 00.2   0.0107 1.0163 170.2  m  21?   0.91 120.2   13 270  11  99
   2024 04 24 03:50  13 46 14.55    -04 38 04.8   0.0107 1.0163 170.2  m  21?   1.04 116.2   11 269  11  99
   2024 04 24 04:00  13 46 15.22    -04 38 09.3   0.0107 1.0163 170.2 Am  21?   1.16 113.0    9 268  11  99
   2024 04 24 04:10  13 46 15.98    -04 38 13.9   0.0107 1.0163 170.2 Am  21?   1.30 110.4    6 267  11  99
   2024 04 24 04:20  13 46 16.84    -04 38 18.4   0.0107 1.0163 170.2 Am  21?   1.43 108.4    4 266  11  99
   2024 04 24 04:30  13 46 17.80    -04 38 23.0   0.0107 1.0163 170.2 Nm  21?   1.57 106.7    2 265  12  99
   2024 04 24 04:40  13 46 18.85    -04 38 27.5   0.0107 1.0163 170.2 Nm  21?   1.71 105.3    0 264  12  99
   ................
   2024 04 24 16:40  13 49 13.03    -04 47 19.9   0.0107 1.0164 170.3 C   21?   1.74 125.6    3  93  17  99
   2024 04 24 16:50  13 49 13.92    -04 47 30.1   0.0107 1.0164 170.3 Cm  21?   1.63 128.5    6  92  18  99
   2024 04 24 17:00  13 49 14.73    -04 47 40.2   0.0107 1.0164 170.3 Nm  21?   1.52 131.8    8  91  18  99
   2024 04 24 17:10  13 49 15.43    -04 47 50.4   0.0107 1.0165 170.3 Nm  21?   1.41 135.7   10  90  18  99
   2024 04 24 17:20  13 49 16.05    -04 48 00.5   0.0107 1.0165 170.3 Nm  21?   1.32 140.0   12  89  18  99
   2024 04 24 17:30  13 49 16.56    -04 48 10.6   0.0107 1.0165 170.3 Am  21?   1.23 145.0   15  88  18  99
   2024 04 24 17:40  13 49 16.99    -04 48 20.6   0.0107 1.0165 170.3 Am  21?   1.15 150.5   17  87  18  99
   2024 04 24 17:50  13 49 17.32    -04 48 30.7   0.0107 1.0165 170.3  m  21?   1.09 156.8   19  86  18  99
   2024 04 24 18:00  13 49 17.56    -04 48 40.7   0.0107 1.0165 170.3  m  21?   1.04 163.5   22  85  18  99
   2024 04 24 18:10  13 49 17.71    -04 48 50.6   0.0107 1.0165 170.3  m  21?   1.01 170.7   24  84  18  99
   2024 04 24 18:20  13 49 17.78    -04 49 00.5   0.0107 1.0165 170.3  m  21?   0.99 178.1   26  83  18  99
   2024 04 24 18:30  13 49 17.76    -04 49 10.4   0.0107 1.0165 170.3  m  21?   0.99 185.5   28  82  18  99
   2024 04 24 18:40  13 49 17.65    -04 49 20.2   0.0107 1.0165 170.3  m  21?   1.00 192.7   31  81  18  99
   2024 04 24 18:50  13 49 17.46    -04 49 29.9   0.0107 1.0165 170.3  m  21?   1.03 199.3   33  80  19  99
   2024 04 24 19:00  13 49 17.19    -04 49 39.6   0.0107 1.0165 170.2  m  21?   1.07 205.4   35  78  19  99
   2024 04 24 19:10  13 49 16.84    -04 49 49.2   0.0107 1.0165 170.2  m  21?   1.11 210.9   38  77  19  99
   2024 04 24 19:20  13 49 16.42    -04 49 58.7   0.0107 1.0165 170.2  m  21?   1.17 215.7   40  76  19  99
   2024 04 24 19:30  13 49 15.93    -04 50 08.1   0.0107 1.0165 170.2  m  21?   1.23 219.9   42  74  19  99
   2024 04 24 19:40  13 49 15.37    -04 50 17.4   0.0107 1.0165 170.2  m  21?   1.29 223.6   44  72  19  99
   2024 04 24 19:50  13 49 14.74    -04 50 26.7   0.0107 1.0165 170.2  m  21?   1.35 226.9   46  71  19  99
   2024 04 24 20:00  13 49 14.05    -04 50 35.9   0.0107 1.0165 170.2  m  21?   1.41 229.7   49  69  19  99
   2024 04 24 20:10  13 49 13.30    -04 50 44.9   0.0107 1.0165 170.2  m  21?   1.47 232.2   51  67  19  99
   2024 04 24 20:20  13 49 12.49    -04 50 53.9   0.0107 1.0165 170.2  m  21?   1.53 234.3   53  65  19  99
   2024 04 24 20:30  13 49 11.63    -04 51 02.7   0.0107 1.0165 170.2  m  21?   1.59 236.2   55  62  19  99
   2024 04 24 20:40  13 49 10.73    -04 51 11.5   0.0107 1.0165 170.2  m  21?   1.64 237.9   57  60  19  99
   2024 04 24 20:50  13 49 09.77    -04 51 20.1   0.0107 1.0165 170.2  m  21?   1.69 239.4   59  57  19  99
   2024 04 24 21:00  13 49 08.78    -04 51 28.7   0.0107 1.0165 170.2  m  21?   1.74 240.7   61  53  19  99
   2024 04 24 21:10  13 49 07.74    -04 51 37.1   0.0107 1.0165 170.2  m  21?   1.78 241.9   63  50  20  99
   2024 04 24 21:20  13 49 06.68    -04 51 45.4   0.0107 1.0165 170.2  m  21?   1.82 242.9   64  46  20  99
   2024 04 24 21:30  13 49 05.58    -04 51 53.6   0.0107 1.0165 170.2  m  21?   1.85 243.8   66  41  20  99
   2024 04 24 21:40  13 49 04.46    -04 52 01.6   0.0107 1.0165 170.2  m  21?   1.87 244.6   67  36  20  99
   2024 04 24 21:50  13 49 03.31    -04 52 09.6   0.0107 1.0165 170.2  m  21?   1.90 245.3   69  30  20  99
   2024 04 24 22:00  13 49 02.15    -04 52 17.4   0.0107 1.0165 170.2  m  21?   1.91 246.0   70  23  20  99
   2024 04 24 22:10  13 49 00.97    -04 52 25.1   0.0107 1.0165 170.2  m  21?   1.92 246.5   71  16  20  99
   2024 04 24 22:20  13 48 59.79    -04 52 32.6   0.0107 1.0165 170.1  m  21?   1.93 247.0   71   8  20  99
   2024 04 24 22:30  13 48 58.60    -04 52 40.1   0.0107 1.0165 170.1  m  21?   1.92 247.4   71   0  20  99
   2024 04 24 22:40  13 48 57.41    -04 52 47.4   0.0107 1.0165 170.1  t  21?   1.92 247.7   71 352  20  99
   2024 04 24 22:50  13 48 56.23    -04 52 54.6   0.0107 1.0165 170.1  m  21?   1.90 247.9   71 345  20  99
   2024 04 24 23:00  13 48 55.05    -04 53 01.6   0.0107 1.0165 170.1  m  21?   1.89 248.1   70 337  20  99
   2024 04 24 23:10  13 48 53.88    -04 53 08.6   0.0107 1.0165 170.1  m  21?   1.86 248.2   69 331  20  99
   2024 04 24 23:20  13 48 52.74    -04 53 15.4   0.0107 1.0165 170.1  m  21?   1.83 248.2   68 325  20  99
   2024 04 24 23:30  13 48 51.61    -04 53 22.1   0.0107 1.0165 170.1  m  21?   1.79 248.2   66 319  20  99
   2024 04 24 23:40  13 48 50.51    -04 53 28.7   0.0107 1.0165 170.1  m  21?   1.75 248.1   65 314  20  99
   2024 04 24 23:50  13 48 49.43    -04 53 35.1   0.0107 1.0165 170.1  m  21?   1.71 247.9   63 310  21  98
   2024 04 25 00:00  13 48 48.39    -04 53 41.4   0.0107 1.0165 170.1  m  21?   1.65 247.6   61 306  21  98
   2024 04 25 00:10  13 48 47.39    -04 53 47.7   0.0107 1.0165 170.1  m  21?   1.59 247.2   59 303  21  98
   2024 04 25 00:20  13 48 46.43    -04 53 53.8   0.0107 1.0165 170.1  m  21?   1.53 246.6   57 300  21  98
   2024 04 25 00:30  13 48 45.51    -04 53 59.7   0.0107 1.0165 170.1  m  21?   1.46 246.0   55 297  21  98
   2024 04 25 00:40  13 48 44.64    -04 54 05.6   0.0107 1.0165 170.1  m  21?   1.39 245.1   53 295  21  98
   2024 04 25 00:50  13 48 43.82    -04 54 11.4   0.0107 1.0165 170.1  m  21?   1.31 244.0   51 292  21  98
   2024 04 25 01:00  13 48 43.06    -04 54 17.1   0.0107 1.0165 170.0  m  21?   1.23 242.7   49 290  21  98
   2024 04 25 01:10  13 48 42.35    -04 54 22.6   0.0107 1.0165 170.0  m  21?   1.15 241.1   47 289  21  98
   2024 04 25 01:20  13 48 41.71    -04 54 28.1   0.0107 1.0165 170.0  m  21?   1.06 239.1   45 287  21  98
   2024 04 25 01:30  13 48 41.14    -04 54 33.5   0.0107 1.0165 170.0  m  21?   0.97 236.5   43 285  21  98
   2024 04 25 01:40  13 48 40.63    -04 54 38.8   0.0107 1.0165 170.0  m  21?   0.88 233.2   40 284  21  98
   2024 04 25 01:50  13 48 40.20    -04 54 44.0   0.0107 1.0165 170.0  m  21?   0.79 229.0   38 282  21  98
   2024 04 25 02:00  13 48 39.84    -04 54 49.1   0.0107 1.0165 170.0  m  21?   0.70 223.4   36 281  21  98
   2024 04 25 02:10  13 48 39.55    -04 54 54.2   0.0107 1.0165 170.0  m  21?   0.62 216.0   34 280  21  98
   2024 04 25 02:20  13 48 39.35    -04 54 59.2   0.0107 1.0165 170.0  m  21?   0.55 206.3   31 278  21  98
   2024 04 25 02:30  13 48 39.22    -04 55 04.1   0.0107 1.0165 170.0  m  21?   0.50 193.9   29 277  21  98
   2024 04 25 02:40  13 48 39.18    -04 55 08.9   0.0107 1.0166 170.0  m  21?   0.48 179.3   27 276  21  98
   2024 04 25 02:50  13 48 39.23    -04 55 13.7   0.0107 1.0166 170.0  m  21?   0.49 164.1   24 275  21  98
   2024 04 25 03:00  13 48 39.37    -04 55 18.4   0.0107 1.0166 170.0  m  21?   0.54 150.3   22 274  22  98
   2024 04 25 03:10  13 48 39.59    -04 55 23.1   0.0107 1.0166 170.0  m  21?   0.62 139.2   20 273  22  98
   2024 04 25 03:20  13 48 39.90    -04 55 27.8   0.0107 1.0166 170.0  m  21?   0.71 130.5   18 272  22  98
   2024 04 25 03:30  13 48 40.31    -04 55 32.4   0.0107 1.0166 170.0  m  21?   0.82 124.0   15 271  22  98
   2024 04 25 03:40  13 48 40.81    -04 55 37.0   0.0107 1.0166 170.0  m  21?   0.94 119.1   13 270  22  98
   2024 04 25 03:50  13 48 41.41    -04 55 41.5   0.0107 1.0166 170.0  m  21?   1.06 115.2   11 269  22  98
   2024 04 25 04:00  13 48 42.09    -04 55 46.0   0.0107 1.0166 170.0 Am  21?   1.19 112.2    8 268  22  98
   2024 04 25 04:10  13 48 42.88    -04 55 50.6   0.0107 1.0166 170.0 Am  21?   1.32 109.8    6 267  22  98
   2024 04 25 04:20  13 48 43.76    -04 55 55.1   0.0107 1.0166 170.0 Am  21?   1.46 107.8    4 266  22  98
   2024 04 25 04:30  13 48 44.74    -04 55 59.6   0.0107 1.0166 170.0 Nm  21?   1.60 106.2    1 265  22  98
   2024 04 25 04:40  13 48 45.81    -04 56 04.1   0.0107 1.0166 170.0 Nm  21?   1.74 104.9    0 264  22  98
   ................
   2024 04 25 16:40  13 51 40.62    -05 05 06.6   0.0107 1.0167 170.1 C   21?   1.75 126.6    4  93  29  96
   2024 04 25 16:50  13 51 41.51    -05 05 17.1   0.0107 1.0167 170.1 C   21?   1.64 129.6    6  92  29  96
   2024 04 25 17:00  13 51 42.31    -05 05 27.5   0.0107 1.0167 170.1 N   21?   1.53 133.0    8  91  29  96
   2024 04 25 17:10  13 51 43.01    -05 05 37.9   0.0107 1.0167 170.1 N   21?   1.43 136.8   11  90  29  96
   2024 04 25 17:20  13 51 43.61    -05 05 48.3   0.0107 1.0167 170.1 N   21?   1.33 141.2   13  89  29  96
   2024 04 25 17:30  13 51 44.12    -05 05 58.7   0.0107 1.0167 170.1 Am  21?   1.25 146.2   15  88  29  96
   2024 04 25 17:40  13 51 44.54    -05 06 09.1   0.0107 1.0167 170.1 Am  21?   1.17 151.7   17  87  29  96
   2024 04 25 17:50  13 51 44.86    -05 06 19.4   0.0107 1.0167 170.1  m  21?   1.11 157.9   20  86  29  96
   2024 04 25 18:00  13 51 45.09    -05 06 29.7   0.0107 1.0167 170.1  m  21?   1.06 164.6   22  85  29  96
   2024 04 25 18:10  13 51 45.24    -05 06 39.9   0.0107 1.0167 170.1  m  21?   1.03 171.6   24  84  30  96
   2024 04 25 18:20  13 51 45.29    -05 06 50.1   0.0107 1.0167 170.1  m  21?   1.01 178.8   27  83  30  96
   2024 04 25 18:30  13 51 45.26    -05 07 00.2   0.0107 1.0167 170.1  m  21?   1.01 186.0   29  82  30  96
   2024 04 25 18:40  13 51 45.15    -05 07 10.2   0.0107 1.0167 170.1  m  21?   1.03 192.9   31  81  30  96
   2024 04 25 18:50  13 51 44.95    -05 07 20.2   0.0107 1.0167 170.1  m  21?   1.06 199.4   34  80  30  96
   2024 04 25 19:00  13 51 44.68    -05 07 30.1   0.0107 1.0167 170.1  m  21?   1.09 205.4   36  78  30  96
   2024 04 25 19:10  13 51 44.32    -05 07 40.0   0.0107 1.0167 170.1  m  21?   1.14 210.7   38  77  30  96
   2024 04 25 19:20  13 51 43.90    -05 07 49.7   0.0107 1.0167 170.0  m  21?   1.19 215.4   40  76  30  96
   2024 04 25 19:30  13 51 43.40    -05 07 59.4   0.0107 1.0167 170.0  m  21?   1.25 219.6   43  74  30  96
   2024 04 25 19:40  13 51 42.83    -05 08 08.9   0.0107 1.0167 170.0  m  21?   1.31 223.2   45  73  30  96
   2024 04 25 19:50  13 51 42.20    -05 08 18.4   0.0107 1.0167 170.0  m  21?   1.37 226.4   47  71  30  96
   2024 04 25 20:00  13 51 41.50    -05 08 27.8   0.0107 1.0167 170.0  m  21?   1.43 229.2   49  69  31  96
   2024 04 25 20:10  13 51 40.75    -05 08 37.0   0.0107 1.0167 170.0  m  21?   1.49 231.7   51  67  31  96
   2024 04 25 20:20  13 51 39.94    -05 08 46.2   0.0107 1.0167 170.0  m  21?   1.55 233.9   53  65  31  96
   2024 04 25 20:30  13 51 39.07    -05 08 55.3   0.0107 1.0167 170.0  m  21?   1.60 235.8   55  62  31  96
   2024 04 25 20:40  13 51 38.16    -05 09 04.2   0.0107 1.0167 170.0  m  21?   1.66 237.5   57  60  31  96
   2024 04 25 20:50  13 51 37.20    -05 09 13.0   0.0107 1.0167 170.0  m  21?   1.70 238.9   59  57  31  96
   2024 04 25 21:00  13 51 36.20    -05 09 21.7   0.0107 1.0167 170.0  m  21?   1.75 240.3   61  53  31  96
   2024 04 25 21:10  13 51 35.17    -05 09 30.3   0.0107 1.0167 170.0  m  21?   1.79 241.5   63  50  31  96
   2024 04 25 21:20  13 51 34.10    -05 09 38.8   0.0107 1.0167 170.0  m  21?   1.82 242.5   65  45  31  96
   2024 04 25 21:30  13 51 33.00    -05 09 47.1   0.0107 1.0167 170.0  m  21?   1.85 243.4   66  41  31  96
   2024 04 25 21:40  13 51 31.88    -05 09 55.3   0.0107 1.0167 170.0  m  21?   1.88 244.2   68  35  31  96
   2024 04 25 21:50  13 51 30.73    -05 10 03.4   0.0107 1.0167 170.0  m  21?   1.90 245.0   69  29  31  96
   2024 04 25 22:00  13 51 29.57    -05 10 11.3   0.0107 1.0168 170.0  m  21?   1.91 245.6   70  22  31  96
   2024 04 25 22:10  13 51 28.40    -05 10 19.1   0.0107 1.0168 170.0  m  21?   1.92 246.2   71  15  31  96
   2024 04 25 22:20  13 51 27.22    -05 10 26.8   0.0107 1.0168 169.9  m  21?   1.93 246.6   71   7  31  96
   2024 04 25 22:30  13 51 26.03    -05 10 34.3   0.0107 1.0168 169.9  t  21?   1.92 247.0   72 359  32  96
   2024 04 25 22:40  13 51 24.84    -05 10 41.7   0.0107 1.0168 169.9  m  21?   1.92 247.4   71 351  32  96
   2024 04 25 22:50  13 51 23.66    -05 10 49.0   0.0107 1.0168 169.9  m  21?   1.90 247.6   71 343  32  96
   2024 04 25 23:00  13 51 22.49    -05 10 56.2   0.0107 1.0168 169.9  m  21?   1.88 247.8   70 336  32  96
   2024 04 25 23:10  13 51 21.33    -05 11 03.2   0.0107 1.0168 169.9  m  21?   1.86 247.9   69 329  32  96
   2024 04 25 23:20  13 51 20.19    -05 11 10.0   0.0107 1.0168 169.9  m  21?   1.82 248.0   68 323  32  96
   2024 04 25 23:30  13 51 19.07    -05 11 16.8   0.0107 1.0168 169.9  m  21?   1.79 247.9   66 318  32  96
   2024 04 25 23:40  13 51 17.97    -05 11 23.4   0.0107 1.0168 169.9  m  21?   1.74 247.8   65 313  32  95
   2024 04 25 23:50  13 51 16.90    -05 11 29.9   0.0107 1.0168 169.9  m  21?   1.70 247.6   63 309  32  95
   2024 04 26 00:00  13 51 15.87    -05 11 36.3   0.0107 1.0168 169.9  m  21?   1.64 247.3   61 305  32  95
   2024 04 26 00:10  13 51 14.88    -05 11 42.5   0.0107 1.0168 169.9  m  21?   1.58 246.9   59 302  32  95
   2024 04 26 00:20  13 51 13.92    -05 11 48.7   0.0107 1.0168 169.9  m  21?   1.52 246.3   57 299  32  95
   2024 04 26 00:30  13 51 13.01    -05 11 54.7   0.0107 1.0168 169.9  m  21?   1.45 245.7   55 296  32  95
   2024 04 26 00:40  13 51 12.15    -05 12 00.5   0.0107 1.0168 169.9  m  21?   1.37 244.8   53 294  32  95
   2024 04 26 00:50  13 51 11.35    -05 12 06.3   0.0107 1.0168 169.9  m  21?   1.30 243.7   51 292  32  95
   2024 04 26 01:00  13 51 10.60    -05 12 12.0   0.0107 1.0168 169.8  m  21?   1.21 242.4   49 290  32  95
   2024 04 26 01:10  13 51 09.91    -05 12 17.6   0.0107 1.0168 169.8  m  21?   1.13 240.7   47 288  32  95
   2024 04 26 01:20  13 51 09.28    -05 12 23.0   0.0107 1.0168 169.8  m  21?   1.04 238.6   45 286  33  95
   2024 04 26 01:30  13 51 08.72    -05 12 28.4   0.0107 1.0168 169.8  m  21?   0.95 235.9   42 285  33  95
   2024 04 26 01:40  13 51 08.22    -05 12 33.6   0.0107 1.0168 169.8  m  21?   0.86 232.5   40 283  33  95
   2024 04 26 01:50  13 51 07.80    -05 12 38.8   0.0107 1.0168 169.8  m  21?   0.77 228.0   38 282  33  95
   2024 04 26 02:00  13 51 07.46    -05 12 43.9   0.0107 1.0168 169.8  m  21?   0.68 222.2   36 280  33  95
   2024 04 26 02:10  13 51 07.19    -05 12 48.9   0.0107 1.0168 169.8  m  21?   0.60 214.4   33 279  33  95
   2024 04 26 02:20  13 51 07.00    -05 12 53.9   0.0107 1.0168 169.8  m  21?   0.54 204.2   31 278  33  95
   2024 04 26 02:30  13 51 06.89    -05 12 58.7   0.0107 1.0168 169.8  m  21?   0.49 191.2   29 277  33  95
   2024 04 26 02:40  13 51 06.87    -05 13 03.5   0.0107 1.0168 169.8  m  21?   0.48 176.2   27 276  33  95
   2024 04 26 02:50  13 51 06.93    -05 13 08.3   0.0107 1.0168 169.8  m  21?   0.50 161.0   24 274  33  95
   2024 04 26 03:00  13 51 07.09    -05 13 13.0   0.0107 1.0168 169.8  m  21?   0.55 147.7   22 273  33  95
   2024 04 26 03:10  13 51 07.33    -05 13 17.6   0.0107 1.0168 169.8  m  21?   0.63 137.0   20 272  33  95
   2024 04 26 03:20  13 51 07.66    -05 13 22.2   0.0107 1.0168 169.8  m  21?   0.73 128.8   17 271  33  95
   2024 04 26 03:30  13 51 08.09    -05 13 26.7   0.0107 1.0168 169.8  m  21?   0.84 122.6   15 270  33  95
   2024 04 26 03:40  13 51 08.61    -05 13 31.3   0.0107 1.0168 169.8  m  21?   0.96 117.9   13 269  33  95
   2024 04 26 03:50  13 51 09.22    -05 13 35.7   0.0107 1.0168 169.8  m  21?   1.08 114.3   10 268  33  95
   2024 04 26 04:00  13 51 09.93    -05 13 40.2   0.0107 1.0168 169.8 Am  21?   1.22 111.4    8 267  33  95
   2024 04 26 04:10  13 51 10.73    -05 13 44.7   0.0107 1.0168 169.8 Am  21?   1.35 109.1    6 266  33  95
   2024 04 26 04:20  13 51 11.63    -05 13 49.1   0.0107 1.0168 169.8 Am  21?   1.49 107.3    4 265  34  95
   2024 04 26 04:30  13 51 12.63    -05 13 53.6   0.0107 1.0168 169.8 Nm  21?   1.62 105.8    1 264  34  95
   2024 04 26 04:40  13 51 13.73    -05 13 58.0   0.0107 1.0168 169.8 Nm  21?   1.76 104.5    0 263  34  95
   ................
   2024 04 26 16:40  13 54 09.07    -05 23 09.9   0.0107 1.0169 169.9 C   21?   1.76 127.6    4  94  40  92
   2024 04 26 16:50  13 54 09.95    -05 23 20.6   0.0107 1.0169 169.9 C   21?   1.64 130.6    6  93  40  92
   2024 04 26 17:00  13 54 10.74    -05 23 31.3   0.0107 1.0169 169.9 N   21?   1.54 134.1    9  92  41  92
   2024 04 26 17:10  13 54 11.43    -05 23 42.0   0.0107 1.0169 169.9 N   21?   1.44 138.0   11  91  41  92
   2024 04 26 17:20  13 54 12.02    -05 23 52.7   0.0107 1.0170 169.9 N   21?   1.34 142.4   13  90  41  92
   2024 04 26 17:30  13 54 12.53    -05 24 03.4   0.0107 1.0170 169.9 A   21?   1.26 147.4   16  89  41  92
   2024 04 26 17:40  13 54 12.93    -05 24 14.0   0.0107 1.0170 169.9 A   21?   1.19 153.0   18  88  41  92
   2024 04 26 17:50  13 54 13.25    -05 24 24.6   0.0107 1.0170 169.9     21?   1.13 159.1   20  87  41  92
   2024 04 26 18:00  13 54 13.47    -05 24 35.1   0.0107 1.0170 169.9     21?   1.08 165.6   23  86  41  92
   2024 04 26 18:10  13 54 13.60    -05 24 45.6   0.0107 1.0170 169.9  m  21?   1.05 172.6   25  85  41  92
   2024 04 26 18:20  13 54 13.65    -05 24 56.0   0.0107 1.0170 169.9  m  21?   1.04 179.6   27  83  41  92
   2024 04 26 18:30  13 54 13.61    -05 25 06.4   0.0107 1.0170 169.9  m  21?   1.04 186.6   29  82  41  92
   2024 04 26 18:40  13 54 13.49    -05 25 16.7   0.0107 1.0170 169.9  m  21?   1.06 193.4   32  81  42  91
   2024 04 26 18:50  13 54 13.28    -05 25 26.9   0.0107 1.0170 169.9  m  21?   1.08 199.7   34  80  42  91
   2024 04 26 19:00  13 54 13.00    -05 25 37.1   0.0107 1.0170 169.9  m  21?   1.12 205.4   36  79  42  91
   2024 04 26 19:10  13 54 12.64    -05 25 47.1   0.0107 1.0170 169.9  m  21?   1.17 210.6   38  77  42  91
   2024 04 26 19:20  13 54 12.20    -05 25 57.1   0.0107 1.0170 169.9  m  21?   1.22 215.2   41  76  42  91
   2024 04 26 19:30  13 54 11.70    -05 26 07.0   0.0107 1.0170 169.9  m  21?   1.27 219.3   43  74  42  91
   2024 04 26 19:40  13 54 11.12    -05 26 16.8   0.0107 1.0170 169.8  m  21?   1.33 222.9   45  73  42  91
   2024 04 26 19:50  13 54 10.48    -05 26 26.4   0.0107 1.0170 169.8  m  21?   1.39 226.1   47  71  42  91
   2024 04 26 20:00  13 54 09.78    -05 26 36.0   0.0107 1.0170 169.8  m  21?   1.45 228.9   50  69  42  91
   2024 04 26 20:10  13 54 09.01    -05 26 45.5   0.0107 1.0170 169.8  m  21?   1.51 231.3   52  67  42  91
   2024 04 26 20:20  13 54 08.20    -05 26 54.8   0.0107 1.0170 169.8  m  21?   1.57 233.5   54  65  42  91
   2024 04 26 20:30  13 54 07.33    -05 27 04.1   0.0107 1.0170 169.8  m  21?   1.62 235.4   56  62  43  91
   2024 04 26 20:40  13 54 06.41    -05 27 13.2   0.0107 1.0170 169.8  m  21?   1.67 237.1   58  60  43  91
   2024 04 26 20:50  13 54 05.45    -05 27 22.2   0.0107 1.0170 169.8  m  21?   1.72 238.6   60  57  43  91
   2024 04 26 21:00  13 54 04.44    -05 27 31.0   0.0107 1.0170 169.8  m  21?   1.76 239.9   62  53  43  91
   2024 04 26 21:10  13 54 03.40    -05 27 39.8   0.0107 1.0170 169.8  m  21?   1.80 241.1   64  49  43  91
   2024 04 26 21:20  13 54 02.33    -05 27 48.4   0.0107 1.0170 169.8  m  21?   1.83 242.2   65  45  43  91
   2024 04 26 21:30  13 54 01.23    -05 27 56.8   0.0107 1.0170 169.8  m  21?   1.86 243.1   67  40  43  91
   2024 04 26 21:40  13 54 00.11    -05 28 05.1   0.0107 1.0170 169.8  m  21?   1.89 243.9   68  35  43  91
   2024 04 26 21:50  13 53 58.96    -05 28 13.3   0.0107 1.0170 169.8  m  21?   1.91 244.7   70  29  43  91
   2024 04 26 22:00  13 53 57.80    -05 28 21.4   0.0107 1.0170 169.8  m  21?   1.92 245.3   71  22  43  91
   2024 04 26 22:10  13 53 56.62    -05 28 29.3   0.0107 1.0170 169.8  m  21?   1.93 245.9   71  14  43  91
   2024 04 26 22:20  13 53 55.44    -05 28 37.1   0.0107 1.0170 169.8  m  21?   1.93 246.4   72   6  43  91
   2024 04 26 22:30  13 53 54.25    -05 28 44.7   0.0107 1.0170 169.7  t  21?   1.93 246.8   72 358  43  91
   2024 04 26 22:40  13 53 53.07    -05 28 52.2   0.0107 1.0170 169.7  m  21?   1.92 247.1   72 350  44  91
   2024 04 26 22:50  13 53 51.89    -05 28 59.5   0.0107 1.0170 169.7  m  21?   1.90 247.4   71 342  44  91
   2024 04 26 23:00  13 53 50.72    -05 29 06.8   0.0107 1.0170 169.7  m  21?   1.88 247.6   70 335  44  91
   2024 04 26 23:10  13 53 49.56    -05 29 13.8   0.0107 1.0170 169.7  m  21?   1.85 247.7   69 328  44  91
   2024 04 26 23:20  13 53 48.42    -05 29 20.8   0.0107 1.0170 169.7  m  21?   1.82 247.7   68 322  44  91
   2024 04 26 23:30  13 53 47.31    -05 29 27.5   0.0107 1.0170 169.7  m  21?   1.78 247.7   66 317  44  91
   2024 04 26 23:40  13 53 46.21    -05 29 34.2   0.0107 1.0170 169.7  m  21?   1.74 247.6   65 312  44  90
   2024 04 26 23:50  13 53 45.15    -05 29 40.7   0.0107 1.0170 169.7  m  21?   1.69 247.4   63 308  44  90
   2024 04 27 00:00  13 53 44.13    -05 29 47.1   0.0107 1.0170 169.7  m  21?   1.63 247.1   61 304  44  90
   2024 04 27 00:10  13 53 43.14    -05 29 53.4   0.0107 1.0170 169.7  m  21?   1.57 246.7   59 301  44  90
   2024 04 27 00:20  13 53 42.19    -05 29 59.5   0.0107 1.0170 169.7  m  21?   1.51 246.1   57 298  44  90
   2024 04 27 00:30  13 53 41.29    -05 30 05.5   0.0107 1.0170 169.7  m  21?   1.44 245.4   55 296  44  90
   2024 04 27 00:40  13 53 40.44    -05 30 11.4   0.0107 1.0170 169.7  m  21?   1.36 244.6   53 293  44  90
   2024 04 27 00:50  13 53 39.65    -05 30 17.2   0.0107 1.0170 169.7  m  21?   1.28 243.5   51 291  44  90
   2024 04 27 01:00  13 53 38.90    -05 30 22.8   0.0107 1.0170 169.6  m  21?   1.20 242.1   49 289  44  90
   2024 04 27 01:10  13 53 38.22    -05 30 28.3   0.0107 1.0170 169.6  m  21?   1.11 240.4   47 287  44  90
   2024 04 27 01:20  13 53 37.61    -05 30 33.8   0.0107 1.0170 169.6  m  21?   1.02 238.2   44 286  44  90
   2024 04 27 01:30  13 53 37.06    -05 30 39.1   0.0107 1.0170 169.6  m  21?   0.93 235.5   42 284  45  90
   2024 04 27 01:40  13 53 36.58    -05 30 44.3   0.0107 1.0170 169.6  m  21?   0.84 231.9   40 283  45  90
   2024 04 27 01:50  13 53 36.17    -05 30 49.5   0.0107 1.0170 169.6  m  21?   0.75 227.3   38 281  45  90
   2024 04 27 02:00  13 53 35.84    -05 30 54.5   0.0107 1.0170 169.6  m  21?   0.67 221.2   35 280  45  90
   2024 04 27 02:10  13 53 35.58    -05 30 59.5   0.0107 1.0170 169.6  m  21?   0.59 213.0   33 279  45  90
   2024 04 27 02:20  13 53 35.41    -05 31 04.3   0.0107 1.0170 169.6  m  21?   0.52 202.3   31 277  45  90
   2024 04 27 02:30  13 53 35.31    -05 31 09.2   0.0107 1.0170 169.6  m  21?   0.48 188.8   29 276  45  90
   2024 04 27 02:40  13 53 35.31    -05 31 13.9   0.0107 1.0170 169.6  m  21?   0.47 173.4   26 275  45  90
   2024 04 27 02:50  13 53 35.39    -05 31 18.6   0.0107 1.0170 169.6  m  21?   0.50 158.3   24 274  45  90
   2024 04 27 03:00  13 53 35.55    -05 31 23.2   0.0107 1.0170 169.6  m  21?   0.56 145.2   22 273  45  90
   2024 04 27 03:10  13 53 35.81    -05 31 27.7   0.0107 1.0171 169.6  m  21?   0.64 134.9   19 272  45  90
   2024 04 27 03:20  13 53 36.16    -05 31 32.3   0.0107 1.0171 169.6  m  21?   0.74 127.2   17 271  45  90
   2024 04 27 03:30  13 53 36.60    -05 31 36.7   0.0107 1.0171 169.6  m  21?   0.86 121.3   15 270  45  90
   2024 04 27 03:40  13 53 37.14    -05 31 41.2   0.0107 1.0171 169.6  m  21?   0.98 116.8   12 269  45  90
   2024 04 27 03:50  13 53 37.77    -05 31 45.6   0.0107 1.0171 169.6  m  21?   1.11 113.4   10 268  45  90
   2024 04 27 04:00  13 53 38.50    -05 31 50.0   0.0107 1.0171 169.6 Am  21?   1.24 110.6    8 267  45  90
   2024 04 27 04:10  13 53 39.32    -05 31 54.4   0.0107 1.0171 169.6 Am  21?   1.37 108.5    6 266  45  90
   2024 04 27 04:20  13 53 40.24    -05 31 58.7   0.0107 1.0171 169.6 Am  21?   1.51 106.7    3 265  45  90
   2024 04 27 04:30  13 53 41.26    -05 32 03.1   0.0107 1.0171 169.6 Nm  21?   1.65 105.2    1 264  46  90
   ................
   2024 04 27 16:40  13 56 38.16    -05 41 27.9   0.0107 1.0172 169.7 C   21?   1.76 128.6    5  94  52  86
   2024 04 27 16:50  13 56 39.04    -05 41 38.9   0.0107 1.0172 169.7 C   21?   1.65 131.7    7  93  52  86
   2024 04 27 17:00  13 56 39.81    -05 41 49.9   0.0107 1.0172 169.7 N   21?   1.54 135.3    9  92  53  86
   2024 04 27 17:10  13 56 40.49    -05 42 00.9   0.0107 1.0172 169.7 N   21?   1.45 139.2   11  91  53  86
   2024 04 27 17:20  13 56 41.07    -05 42 11.8   0.0107 1.0172 169.7 N   21?   1.36 143.7   14  90  53  86
   2024 04 27 17:30  13 56 41.56    -05 42 22.8   0.0107 1.0172 169.7 A   21?   1.27 148.7   16  89  53  85
   2024 04 27 17:40  13 56 41.96    -05 42 33.7   0.0107 1.0172 169.7 A   21?   1.21 154.2   18  88  53  85
   2024 04 27 17:50  13 56 42.26    -05 42 44.5   0.0107 1.0172 169.7     21?   1.15 160.3   21  87  53  85
   2024 04 27 18:00  13 56 42.47    -05 42 55.3   0.0107 1.0172 169.7     21?   1.11 166.8   23  86  53  85
   2024 04 27 18:10  13 56 42.60    -05 43 06.0   0.0107 1.0172 169.7     21?   1.08 173.6   25  85  53  85
   2024 04 27 18:20  13 56 42.63    -05 43 16.7   0.0107 1.0172 169.7     21?   1.06 180.5   28  84  53  85
   2024 04 27 18:30  13 56 42.58    -05 43 27.3   0.0107 1.0172 169.7     21?   1.07 187.3   30  82  53  85
   2024 04 27 18:40  13 56 42.45    -05 43 37.9   0.0107 1.0172 169.7     21?   1.08 193.9   32  81  54  85
   2024 04 27 18:50  13 56 42.23    -05 43 48.3   0.0107 1.0172 169.7     21?   1.11 200.0   34  80  54  85
   2024 04 27 19:00  13 56 41.94    -05 43 58.7   0.0107 1.0172 169.7  m  21?   1.15 205.6   37  79  54  85
   2024 04 27 19:10  13 56 41.57    -05 44 09.0   0.0107 1.0172 169.7  m  21?   1.19 210.7   39  77  54  85
   2024 04 27 19:20  13 56 41.12    -05 44 19.2   0.0107 1.0172 169.7  m  21?   1.24 215.2   41  76  54  85
   2024 04 27 19:30  13 56 40.60    -05 44 29.3   0.0107 1.0172 169.7  m  21?   1.30 219.2   43  74  54  85
   2024 04 27 19:40  13 56 40.02    -05 44 39.3   0.0107 1.0172 169.7  m  21?   1.36 222.8   46  73  54  85
   2024 04 27 19:50  13 56 39.37    -05 44 49.1   0.0107 1.0172 169.6  m  21?   1.41 225.9   48  71  54  85
   2024 04 27 20:00  13 56 38.66    -05 44 58.9   0.0107 1.0172 169.6  m  21?   1.47 228.6   50  69  54  85
   2024 04 27 20:10  13 56 37.89    -05 45 08.5   0.0106 1.0172 169.6  m  21?   1.53 231.1   52  67  54  85
   2024 04 27 20:20  13 56 37.06    -05 45 18.1   0.0106 1.0172 169.6  m  21?   1.58 233.2   54  65  55  84
   2024 04 27 20:30  13 56 36.19    -05 45 27.5   0.0106 1.0172 169.6  m  21?   1.64 235.1   56  62  55  84
   2024 04 27 20:40  13 56 35.26    -05 45 36.7   0.0106 1.0172 169.6  m  21?   1.69 236.8   58  60  55  84
   2024 04 27 20:50  13 56 34.29    -05 45 45.9   0.0106 1.0172 169.6  m  21?   1.73 238.3   60  57  55  84
   2024 04 27 21:00  13 56 33.28    -05 45 54.9   0.0106 1.0172 169.6  m  21?   1.78 239.7   62  53  55  84
   2024 04 27 21:10  13 56 32.24    -05 46 03.8   0.0106 1.0172 169.6  m  21?   1.81 240.8   64  49  55  84
   2024 04 27 21:20  13 56 31.16    -05 46 12.5   0.0106 1.0172 169.6  m  21?   1.85 241.9   66  45  55  84
   2024 04 27 21:30  13 56 30.05    -05 46 21.1   0.0106 1.0172 169.6  m  21?   1.87 242.9   67  40  55  84
   2024 04 27 21:40  13 56 28.92    -05 46 29.5   0.0106 1.0172 169.6  m  21?   1.90 243.7   69  34  55  84
   2024 04 27 21:50  13 56 27.77    -05 46 37.8   0.0106 1.0172 169.6  m  21?   1.91 244.4   70  28  55  84
   2024 04 27 22:00  13 56 26.61    -05 46 46.0   0.0106 1.0172 169.6  m  21?   1.93 245.1   71  21  55  84
   2024 04 27 22:10  13 56 25.43    -05 46 54.0   0.0106 1.0172 169.6  m  21?   1.93 245.7   72  13  55  84
   2024 04 27 22:20  13 56 24.25    -05 47 01.8   0.0106 1.0172 169.6  m  21?   1.93 246.2   72   5  56  84
   2024 04 27 22:30  13 56 23.06    -05 47 09.5   0.0106 1.0172 169.6  t  21?   1.93 246.6   72 357  56  84
   2024 04 27 22:40  13 56 21.88    -05 47 17.1   0.0106 1.0172 169.5  m  21?   1.92 246.9   72 348  56  84
   2024 04 27 22:50  13 56 20.70    -05 47 24.5   0.0106 1.0173 169.5  m  21?   1.90 247.2   71 341  56  84
   2024 04 27 23:00  13 56 19.53    -05 47 31.8   0.0106 1.0173 169.5  m  21?   1.88 247.4   70 333  56  84
   2024 04 27 23:10  13 56 18.37    -05 47 38.9   0.0106 1.0173 169.5  m  21?   1.85 247.5   69 327  56  84
   2024 04 27 23:20  13 56 17.23    -05 47 45.8   0.0106 1.0173 169.5  m  21?   1.82 247.6   68 321  56  84
   2024 04 27 23:30  13 56 16.12    -05 47 52.7   0.0106 1.0173 169.5  m  21?   1.78 247.6   66 316  56  84
   2024 04 27 23:40  13 56 15.03    -05 47 59.3   0.0106 1.0173 169.5  m  21?   1.73 247.5   65 311  56  84
   2024 04 27 23:50  13 56 13.97    -05 48 05.9   0.0106 1.0173 169.5  m  21?   1.68 247.3   63 307  56  84
   2024 04 28 00:00  13 56 12.95    -05 48 12.3   0.0106 1.0173 169.5  m  21?   1.63 247.0   61 303  56  84
   

MMS-1 (JPL-ID: -140482)

   Date (UTC) HH:MM   RA              Dec         delta   r     elong SM  mag  '/hr    PA   alt  az moo ill
   ---- -- -- -----  -------------   -----------  ------ ------ ----- --  --- ------ ------ --- --- --- ---
   2024 04 14 00:20  22 03 22.12    -34 54 33.4   113078 1.0027  65.8     14?  73.91  83.0    0 128 131  31
   2024 04 14 00:30  22 04 20.63    -34 53 05.9   113836 1.0027  65.6     14?  71.05  82.9    1 127 130  31
   2024 04 14 00:40  22 05 16.84    -34 51 40.4   114582 1.0027  65.4     14?  68.25  82.8    3 126 130  31
   2024 04 14 00:50  22 06 10.77    -34 50 16.4   115316 1.0027  65.3     14?  65.51  82.6    5 125 130  32
   2024 04 14 01:00  22 07 02.47    -34 48 53.6   116039 1.0027  65.1     14?  62.81  82.4    6 124 130  32
   2024 04 14 01:10  22 07 51.99    -34 47 31.7   116752 1.0027  65.0     14?  60.18  82.1    8 124 130  32
   2024 04 14 01:20  22 08 39.36    -34 46 10.3   117454 1.0027  64.8     14?  57.60  81.8   10 123 130  32
   2024 04 14 01:30  22 09 24.63    -34 44 49.1   118146 1.0027  64.7     14?  55.07  81.4   12 122 130  32
   2024 04 14 01:40  22 10 07.83    -34 43 27.6   118829 1.0027  64.6     14?  52.60  81.0   13 122 130  32
   2024 04 14 01:50  22 10 49.01    -34 42 05.7   119502 1.0027  64.4     14?  50.19  80.5   15 121 130  32
   2024 04 14 02:00  22 11 28.22    -34 40 42.9   120167 1.0027  64.3     14?  47.84  79.9   17 120 130  32
   2024 04 14 02:10  22 12 05.48    -34 39 18.9   120825 1.0027  64.2     14?  45.56  79.2   19 120 130  32
   2024 04 14 02:20  22 12 40.86    -34 37 53.3   121474 1.0027  64.1     14?  43.34  78.4   21 119 130  32
   2024 04 14 02:30  22 13 14.38    -34 36 25.8   122116 1.0027  64.0     14?  41.19  77.5   23 119 130  32
   2024 04 14 02:40  22 13 46.11    -34 34 56.1   122752 1.0027  63.9     14?  39.11  76.5   25 118 130  33
   2024 04 14 02:50  22 14 16.07    -34 33 23.9   123381 1.0027  63.8     14?  37.11  75.3   26 118 130  33
   2024 04 14 03:00  22 14 44.33    -34 31 48.8   124005 1.0027  63.7     14?  35.19  74.0   28 117 130  33
   2024 04 14 03:10  22 15 10.92    -34 30 10.4   124623 1.0027  63.6     14?  33.36  72.5   30 117 130  33
   2024 04 14 03:20  22 15 35.90    -34 28 28.6   125236 1.0027  63.6     14?  31.61  70.8   32 116 130  33
   2024 04 14 03:30  22 15 59.31    -34 26 43.0   125845 1.0027  63.5     14?  29.97  68.9   34 116 130  33
   2024 04 14 03:40  22 16 21.21    -34 24 53.4   126449 1.0027  63.4     14?  28.43  66.8   36 116 130  33
   2024 04 14 03:50  22 16 41.65    -34 22 59.3   127050 1.0027  63.3     14?  27.01  64.5   38 116 130  33
   2024 04 14 04:00  22 17 00.68    -34 21 00.6   127648 1.0027  63.3 A   14?  25.70  61.9   40 115 130  33
   2024 04 14 04:10  22 17 18.35    -34 18 57.1   128243 1.0026  63.2 A   14?  24.52  59.0   42 115 130  33
   2024 04 14 04:20  22 17 34.73    -34 16 48.4   128835 1.0026  63.1 N   14?  23.48  56.0   44 115 130  34
   2024 04 14 04:30  22 17 49.85    -34 14 34.3   129426 1.0026  63.1 N   14?  22.58  52.7   46 115 130  34
   2024 04 14 04:40  22 18 03.79    -34 12 14.6   130014 1.0026  63.0 N   14?  21.83  49.2   48 115 130  34
   2024 04 14 04:50  22 18 16.60    -34 09 49.2   130602 1.0026  63.0 C   14?  21.22  45.6   50 115 130  34
   2024 04 14 05:00  22 18 28.34    -34 07 17.7   131189 1.0026  62.9 C   14?  20.77  41.9   52 116 131  34
   ................
   2024 04 15 01:40  23 07 45.26    -25 53 38.2   184945 1.0025  50.2  r  15?  29.32  78.7    0 118 128  42
   2024 04 15 01:50  23 08 06.13    -25 52 41.1   184849 1.0025  50.2     15?  28.14  78.4    1 117 128  42
   2024 04 15 02:00  23 08 26.11    -25 51 44.7   184747 1.0025  50.1     15?  26.95  78.0    3 116 128  42
   2024 04 15 02:10  23 08 45.20    -25 50 48.7   184639 1.0025  50.1     15?  25.76  77.5    5 115 128  42
   2024 04 15 02:20  23 09 03.38    -25 49 52.8   184527 1.0025  50.0     15?  24.58  76.9    7 114 128  42
   2024 04 15 02:30  23 09 20.66    -25 48 56.9   184411 1.0025  49.9     15?  23.40  76.2    9 113 128  42
   2024 04 15 02:40  23 09 37.04    -25 48 00.8   184290 1.0025  49.9     15?  22.22  75.4   11 113 128  42
   2024 04 15 02:50  23 09 52.51    -25 47 04.1   184166 1.0025  49.9     15?  21.06  74.4   13 112 128  42
   2024 04 15 03:00  23 10 07.08    -25 46 06.8   184039 1.0025  49.8     15?  19.92  73.2   16 111 128  43
   2024 04 15 03:10  23 10 20.75    -25 45 08.6   183909 1.0025  49.8     15?  18.79  71.8   18 110 128  43
   2024 04 15 03:20  23 10 33.52    -25 44 09.2   183777 1.0025  49.7     15?  17.70  70.3   20 110 128  43
   2024 04 15 03:30  23 10 45.41    -25 43 08.5   183643 1.0025  49.7     15?  16.63  68.4   22 109 128  43
   2024 04 15 03:40  23 10 56.41    -25 42 06.2   183507 1.0025  49.6     15?  15.60  66.2   24 108 128  43
   2024 04 15 03:50  23 11 06.54    -25 41 02.1   183371 1.0025  49.6     15?  14.62  63.7   26 108 128  43
   2024 04 15 04:00  23 11 15.81    -25 39 56.0   183233 1.0025  49.6 A   15?  13.70  60.8   28 107 128  43
   2024 04 15 04:10  23 11 24.23    -25 38 47.7   183096 1.0025  49.5 A   15?  12.85  57.4   30 106 128  43
   2024 04 15 04:20  23 11 31.82    -25 37 36.9   182958 1.0025  49.5 N   15?  12.07  53.5   33 106 129  43
   2024 04 15 04:30  23 11 38.58    -25 36 23.5   182821 1.0025  49.5 N   15?  11.39  49.1   35 105 129  43
   2024 04 15 04:40  23 11 44.55    -25 35 07.2   182685 1.0025  49.5 N   15?  10.81  44.2   37 105 129  44
   2024 04 15 04:50  23 11 49.74    -25 33 47.9   182551 1.0025  49.4 C   15?  10.35  38.9   39 104 129  44
   2024 04 15 05:00  23 11 54.16    -25 32 25.4   182417 1.0025  49.4 C   15?  10.03  33.1   41 104 129  44
   ................
   2024 04 16 02:40  23 52 10.14    -17 31 52.1   159710 1.0027  37.9     15?  39.75  63.8    0 108 128  52
   2024 04 16 02:50  23 52 34.64    -17 28 55.3   158988 1.0027  37.8     15?  38.82  62.8    2 107 128  52
   2024 04 16 03:00  23 52 58.34    -17 25 57.0   158260 1.0027  37.7     15?  37.89  61.8    4 106 128  52
   2024 04 16 03:10  23 53 21.24    -17 22 56.9   157527 1.0027  37.6     15?  36.98  60.7    6 105 128  52
   2024 04 16 03:20  23 53 43.33    -17 19 54.8   156788 1.0028  37.5     15?  36.07  59.6    8 105 128  53
   2024 04 16 03:30  23 54 04.60    -17 16 50.6   156044 1.0028  37.5     15?  35.19  58.3   10 104 128  53
   2024 04 16 03:40  23 54 25.04    -17 13 44.0   155296 1.0028  37.4     15?  34.32  56.9   13 103 128  53
   2024 04 16 03:50  23 54 44.64    -17 10 34.8   154544 1.0028  37.3     15?  33.49  55.4   15 102 128  53
   2024 04 16 04:00  23 55 03.41    -17 07 22.8   153788 1.0028  37.2 A   15?  32.68  53.8   17 101 128  53
   2024 04 16 04:10  23 55 21.34    -17 04 07.7   153029 1.0028  37.1 A   15?  31.92  52.0   19 100 128  53
   2024 04 16 04:20  23 55 38.43    -17 00 49.4   152267 1.0028  37.0 N   15?  31.20  50.2   21  99 128  53
   2024 04 16 04:30  23 55 54.68    -16 57 27.6   151502 1.0028  37.0 N   15?  30.53  48.3   23  98 128  53
   2024 04 16 04:40  23 56 10.09    -16 54 02.0   150735 1.0028  36.9 N   15?  29.91  46.2   26  97 128  53
   2024 04 16 04:50  23 56 24.67    -16 50 32.6   149966 1.0028  36.8 C   15?  29.36  44.0   28  97 128  53
   2024 04 16 05:00  23 56 38.43    -16 46 59.0   149196 1.0028  36.7 C   15?  28.87  41.8   30  96 128  54
   ................
   2024 04 17 01:30  11 07 18.87    +11 24 15.9     7015 1.0039 136.0  r   8?  14779 132.9    6 285  32  61
   2024 04 17 01:40  13 02 42.92    -16 55 07.2     7104 1.0039 168.6      9?  12819 134.1   41 267  71  61
   2024 04 17 01:50  14 38 20.82    -35 05 44.8     9021 1.0039 152.1      9? 7603.7 125.2   61 238  98  61
   2024 04 17 02:00  15 51 24.61    -43 24 37.6    11607 1.0039 136.6      9? 4536.2 115.0   66 206 114  61
   2024 04 17 02:10  16 45 31.83    -47 04 02.6    14330 1.0039 126.6  e   9? 2976.3 106.4   66 184 123  61
   2024 04 17 02:20  17 25 55.91    -48 40 51.5    17020 1.0039 119.8  t  10? 2119.0  99.8   64 172 130  62
   2024 04 17 02:30  17 56 49.11    -49 20 46.2    19627 1.0039 114.8     10? 1602.1  94.7   62 165 134  62
   2024 04 17 02:40  18 21 04.47    -49 32 27.8    22140 1.0039 110.9     10? 1265.7  90.5   61 161 138  62
   2024 04 17 02:50  18 40 36.29    -49 29 24.3    24560 1.0039 107.7     10? 1033.2  87.2   60 158 140  62
   2024 04 17 03:00  18 56 40.52    -49 18 21.7    26891 1.0039 105.1     10? 865.02  84.3   60 156 143  62
   2024 04 17 03:10  19 10 08.74    -49 02 55.7    29142 1.0039 102.9     10? 738.72  81.9   60 155 144  62
   2024 04 17 03:20  19 21 36.88    -48 45 06.3    31319 1.0039 101.1     10? 641.04  79.8   60 154 146  62
   2024 04 17 03:30  19 31 30.61    -48 26 02.3    33428 1.0039  99.4     10? 563.66  77.8   60 154 147  62
   2024 04 17 03:40  19 40 08.74    -48 06 24.2    35475 1.0039  97.9     11? 501.13  76.1   61 154 148  62
   2024 04 17 03:50  19 47 45.34    -47 46 36.0    37465 1.0039  96.6     11? 449.76  74.5   61 154 149  62
   2024 04 17 04:00  19 54 31.16    -47 26 52.3    39403 1.0039  95.5 A   11? 406.96  72.9   62 154 150  62
   2024 04 17 04:10  20 00 34.53    -47 07 21.3    41293 1.0039  94.4 A   11? 370.87  71.5   62 155 151  63
   2024 04 17 04:20  20 06 02.06    -46 48 08.0    43139 1.0039  93.4 N   11? 340.13  70.1   63 156 152  63
   2024 04 17 04:30  20 10 59.02    -46 29 14.9    44943 1.0039  92.6 N   11? 313.73  68.8   64 158 152  63
   2024 04 17 04:40  20 15 29.69    -46 10 43.0    46710 1.0039  91.7 N   11? 290.86  67.5   65 159 153  63
   2024 04 17 04:50  20 19 37.59    -45 52 32.5    48441 1.0039  91.0 C   11? 270.95  66.3   65 161 153  63
   2024 04 17 05:00  20 23 25.63    -45 34 43.1    50140 1.0039  90.3 C   11? 253.49  65.1   66 163 154  63
   ................
   2024 04 18 01:00  22 43 21.69    -29 49 37.3   162821 1.0036  59.6     15?  36.54  81.7    0 122 162  70
   2024 04 18 01:10  22 43 48.93    -29 48 45.7   163064 1.0036  59.5     15?  35.06  81.6    2 121 162  70
   2024 04 18 01:20  22 44 15.03    -29 47 55.0   163302 1.0036  59.4     15?  33.58  81.3    4 120 162  70
   2024 04 18 01:30  22 44 39.99    -29 47 05.0   163532 1.0036  59.3     15?  32.11  81.1    6 119 162  70
   2024 04 18 01:40  22 45 03.80    -29 46 15.5   163757 1.0036  59.3     15?  30.64  80.7    8 118 162  70
   2024 04 18 01:50  22 45 26.48    -29 45 26.2   163977 1.0036  59.2     15?  29.18  80.2   10 117 161  70
   2024 04 18 02:00  22 45 48.03    -29 44 36.9   164191 1.0036  59.1     15?  27.74  79.7   12 117 161  70
   2024 04 18 02:10  22 46 08.45    -29 43 47.2   164400 1.0036  59.1     15?  26.31  79.0   14 116 161  70
   2024 04 18 02:20  22 46 27.74    -29 42 56.9   164605 1.0036  59.0     15?  24.91  78.2   16 115 161  71
   2024 04 18 02:30  22 46 45.93    -29 42 05.7   164807 1.0036  59.0     15?  23.52  77.3   18 115 161  71
   2024 04 18 02:40  22 47 03.02    -29 41 13.4   165004 1.0036  58.9     15?  22.17  76.1   20 114 161  71
   2024 04 18 02:50  22 47 19.02    -29 40 19.7   165199 1.0036  58.8     15?  20.85  74.8   22 113 161  71
   2024 04 18 03:00  22 47 33.94    -29 39 24.3   165391 1.0036  58.8     15?  19.56  73.3   24 113 161  71
   2024 04 18 03:10  22 47 47.81    -29 38 26.9   165580 1.0036  58.8     15?  18.32  71.4   26 112 161  71
   2024 04 18 03:20  22 48 00.64    -29 37 27.4   165768 1.0036  58.7     15?  17.14  69.3   28 112 161  71
   2024 04 18 03:30  22 48 12.45    -29 36 25.4   165954 1.0036  58.7     15?  16.02  66.7   30 111 161  71
   2024 04 18 03:40  22 48 23.26    -29 35 20.8   166140 1.0035  58.6     15?  14.96  63.8   32 111 162  71
   2024 04 18 03:50  22 48 33.10    -29 34 13.2   166324 1.0035  58.6     15?  13.99  60.4   34 110 162  71
   2024 04 18 04:00  22 48 41.98    -29 33 02.4   166508 1.0035  58.6 A   15?  13.12  56.5   36 110 162  71
   2024 04 18 04:10  22 48 49.93    -29 31 48.3   166693 1.0035  58.6 A   15?  12.36  52.1   39 109 162  71
   2024 04 18 04:20  22 48 56.98    -29 30 30.5   166878 1.0035  58.5 A   15?  11.72  47.2   41 109 162  71
   2024 04 18 04:30  22 49 03.16    -29 29 08.8   167063 1.0035  58.5 N   15?  11.22  41.8   43 109 162  72
   2024 04 18 04:40  22 49 08.50    -29 27 43.1   167250 1.0035  58.5 N   15?  10.86  36.1   45 108 162  72
   2024 04 18 04:50  22 49 13.03    -29 26 13.1   167439 1.0035  58.5 C   15?  10.66  30.3   47 108 162  72
   2024 04 18 05:00  22 49 16.79    -29 24 38.7   167629 1.0035  58.4 C   15?  10.61  24.4   49 108 162  72
   ................
   2024 04 19 01:50  23 27 32.61    -22 15 15.5   184264 1.0036  48.0  r  15?  29.69  72.8    0 114 163  78
   2024 04 19 02:00  23 27 52.66    -22 13 47.5   183890 1.0036  48.0     15?  28.61  72.2    1 113 163  79
   2024 04 19 02:10  23 28 11.89    -22 12 19.7   183512 1.0036  47.9     15?  27.54  71.5    3 112 163  79
   2024 04 19 02:20  23 28 30.30    -22 10 51.7   183128 1.0036  47.8     15?  26.46  70.7    5 111 163  79
   2024 04 19 02:30  23 28 47.88    -22 09 23.4   182740 1.0036  47.8     15?  25.39  69.7    7 110 163  79
   2024 04 19 02:40  23 29 04.62    -22 07 54.7   182348 1.0036  47.7     15?  24.32  68.7    9 109 163  79
   2024 04 19 02:50  23 29 20.52    -22 06 25.3   181952 1.0036  47.6     15?  23.27  67.5   11 109 163  79
   2024 04 19 03:00  23 29 35.58    -22 04 54.9   181552 1.0036  47.6     15?  22.23  66.1   13 108 163  79
   2024 04 19 03:10  23 29 49.79    -22 03 23.6   181150 1.0036  47.5     15?  21.22  64.5   16 107 163  79
   2024 04 19 03:20  23 30 03.16    -22 01 50.9   180745 1.0036  47.5     15?  20.23  62.7   18 106 163  79
   2024 04 19 03:30  23 30 15.69    -22 00 16.8   180338 1.0036  47.4     15?  19.28  60.7   20 105 163  79
   2024 04 19 03:40  23 30 27.38    -21 58 40.9   179930 1.0036  47.4     15?  18.37  58.5   22 105 163  79
   2024 04 19 03:50  23 30 38.24    -21 57 03.2   179520 1.0036  47.4     15?  17.51  56.0   24 104 163  79
   2024 04 19 04:00  23 30 48.28    -21 55 23.4   179109 1.0036  47.3 A   15?  16.71  53.1   26 103 163  79
   2024 04 19 04:10  23 30 57.49    -21 53 41.3   178698 1.0036  47.3 A   15?  15.97  50.0   29 102 163  79
   2024 04 19 04:20  23 31 05.90    -21 51 56.8   178286 1.0036  47.2 A   15?  15.31  46.6   31 102 163  79
   2024 04 19 04:30  23 31 13.51    -21 50 09.5   177875 1.0036  47.2 N   15?  14.73  42.9   33 101 163  79
   2024 04 19 04:40  23 31 20.33    -21 48 19.4   177465 1.0036  47.2 N   15?  14.25  38.9   35 100 163  80
   2024 04 19 04:50  23 31 26.39    -21 46 26.2   177056 1.0036  47.1 C   15?  13.87  34.7   38  99 163  80
   2024 04 19 05:00  23 31 31.70    -21 44 29.8   176648 1.0036  47.1 C   15?  13.59  30.3   40  99 164  80
   ................
   2024 04 20 03:20  00 30 59.49    -09 06 27.6   106905 1.0040  28.9     15?  95.65  52.4    0  99 161  86
   2024 04 20 03:30  00 31 50.52    -08 56 35.3   105668 1.0040  28.6     14?  96.30  51.6    2  98 161  86
   2024 04 20 03:40  00 32 41.30    -08 46 27.8   104420 1.0041  28.4     14?  97.02  50.8    4  97 161  86
   2024 04 20 03:50  00 33 31.85    -08 36 04.5   103162 1.0041  28.1     14?  97.83  49.9    6  96 161  86
   2024 04 20 04:00  00 34 22.18    -08 25 24.4   101894 1.0041  27.8 A   14?  98.72  49.0    8  95 161  86
   2024 04 20 04:10  00 35 12.29    -08 14 26.8   100616 1.0041  27.6 A   14?  99.71  48.2   10  94 160  86
   2024 04 20 04:20  00 36 02.20    -08 03 10.7    99328 1.0041  27.3 A   14? 100.81  47.3   12  93 160  86
   2024 04 20 04:30  00 36 51.93    -07 51 35.0    98030 1.0041  27.0 N   14? 102.02  46.3   15  92 160  86
   2024 04 20 04:40  00 37 41.50    -07 39 38.9    96722 1.0041  26.7 N   14? 103.35  45.4   17  90 160  86
   2024 04 20 04:50  00 38 30.93    -07 27 21.1    95406 1.0041  26.4 C   14? 104.81  44.5   19  89 160  87
   2024 04 20 05:00  00 39 20.24    -07 14 40.6    94080 1.0041  26.2 C   14? 106.41  43.6   21  88 160  87
   ................
   2024 04 20 23:40  21 56 53.50    -35 40 54.1   105064 1.0047  73.6  r  13?  85.50  82.5    0 129 137  91
   2024 04 20 23:50  21 58 01.57    -35 39 07.1   105911 1.0047  73.4  m  13?  82.17  82.4    1 128 137  91
   2024 04 21 00:00  21 59 06.91    -35 37 22.4   106744 1.0047  73.2  m  13?  78.91  82.3    2 127 137  91
   2024 04 21 00:10  22 00 09.60    -35 35 39.6   107563 1.0047  73.0  m  13?  75.73  82.1    4 126 137  91
   2024 04 21 00:20  22 01 09.68    -35 33 58.3   108370 1.0047  72.8  m  13?  72.63  81.8    5 126 137  91
   2024 04 21 00:30  22 02 07.22    -35 32 18.2   109165 1.0047  72.6  m  13?  69.61  81.6    7 125 138  91
   2024 04 21 00:40  22 03 02.28    -35 30 39.0   109947 1.0047  72.4  m  13?  66.65  81.3    9 124 138  91
   2024 04 21 00:50  22 03 54.92    -35 29 00.3   110719 1.0047  72.3  m  13?  63.78  80.9   10 123 138  91
   2024 04 21 01:00  22 04 45.19    -35 27 21.7   111479 1.0047  72.1  m  13?  60.97  80.5   12 123 138  91
   2024 04 21 01:10  22 05 33.14    -35 25 42.9   112229 1.0047  72.0  m  13?  58.24  80.0   14 122 138  91
   2024 04 21 01:20  22 06 18.83    -35 24 03.6   112970 1.0047  71.8  m  13?  55.58  79.4   16 121 138  91
   2024 04 21 01:30  22 07 02.32    -35 22 23.3   113700 1.0047  71.7  m  13?  53.01  78.8   18 121 138  91
   2024 04 21 01:40  22 07 43.66    -35 20 41.7   114422 1.0047  71.6  m  13?  50.51  78.1   19 120 138  91
   2024 04 21 01:50  22 08 22.91    -35 18 58.6   115136 1.0047  71.4  m  13?  48.09  77.3   21 120 138  91
   2024 04 21 02:00  22 09 00.12    -35 17 13.5   115841 1.0047  71.3  m  13?  45.75  76.3   23 119 138  91
   2024 04 21 02:10  22 09 35.34    -35 15 26.0   116539 1.0047  71.2  m  13?  43.50  75.3   25 119 138  92
   2024 04 21 02:20  22 10 08.63    -35 13 36.0   117229 1.0047  71.1  m  14?  41.34  74.1   27 118 138  92
   2024 04 21 02:30  22 10 40.05    -35 11 43.0   117913 1.0047  71.0  m  14?  39.27  72.8   29 118 138  92
   2024 04 21 02:40  22 11 09.66    -35 09 46.7   118591 1.0047  70.9  m  14?  37.30  71.3   31 118 138  92
   2024 04 21 02:50  22 11 37.50    -35 07 46.8   119264 1.0047  70.8  m  14?  35.44  69.6   33 117 138  92
   2024 04 21 03:00  22 12 03.65    -35 05 43.0   119930 1.0047  70.7  m  14?  33.68  67.8   35 117 138  92
   2024 04 21 03:10  22 12 28.15    -35 03 35.0   120593 1.0047  70.6     14?  32.04  65.7   37 117 138  92
   2024 04 21 03:20  22 12 51.07    -35 01 22.6   121250 1.0047  70.6     14?  30.52  63.5   39 116 138  92
   2024 04 21 03:30  22 13 12.47    -34 59 05.4   121904 1.0047  70.5     14?  29.13  61.0   41 116 138  92
   2024 04 21 03:40  22 13 32.40    -34 56 43.2   122555 1.0047  70.4     14?  27.88  58.4   43 116 138  92
   2024 04 21 03:50  22 13 50.94    -34 54 15.8   123202 1.0047  70.3     14?  26.77  55.5   45 116 138  92
   2024 04 21 04:00  22 14 08.13    -34 51 42.8   123846 1.0047  70.3 A   14?  25.80  52.5   47 116 138  92
   2024 04 21 04:10  22 14 24.05    -34 49 04.2   124489 1.0047  70.2 A   14?  24.98  49.3   49 116 138  92
   2024 04 21 04:20  22 14 38.75    -34 46 19.6   125129 1.0047  70.2 A   14?  24.31  46.0   51 116 138  92
   2024 04 21 04:30  22 14 52.31    -34 43 28.9   125768 1.0047  70.1 N   14?  23.80  42.7   53 117 138  92
   2024 04 21 04:40  22 15 04.78    -34 40 31.9   126405 1.0047  70.0 N   14?  23.43  39.3   55 117 138  92
   2024 04 21 04:50  22 15 16.23    -34 37 28.6   127042 1.0046  70.0 C   14?  23.20  36.0   57 118 138  92
   2024 04 21 05:00  22 15 26.73    -34 34 18.6   127678 1.0046  69.9 C   14?  23.11  32.7   59 118 138  92
   ................
   2024 04 22 01:10  23 06 10.95    -26 05 28.1   183828 1.0045  56.9  r  15?  29.72  78.3    0 118 143  96
   2024 04 22 01:20  23 06 32.10    -26 04 28.4   183760 1.0045  56.8  m  15?  28.52  78.0    1 117 143  96
   2024 04 22 01:30  23 06 52.35    -26 03 29.3   183687 1.0045  56.8  m  15?  27.32  77.6    3 116 143  96
   2024 04 22 01:40  23 07 11.69    -26 02 30.7   183608 1.0045  56.7  m  15?  26.12  77.1    5 115 143  96
   2024 04 22 01:50  23 07 30.12    -26 01 32.2   183524 1.0045  56.6  m  15?  24.93  76.4    7 114 143  96
   2024 04 22 02:00  23 07 47.63    -26 00 33.8   183435 1.0045  56.6  m  15?  23.74  75.7    9 114 143  96
   2024 04 22 02:10  23 08 04.23    -25 59 35.1   183343 1.0045  56.5  m  15?  22.55  74.9   11 113 143  96
   2024 04 22 02:20  23 08 19.92    -25 58 36.0   183247 1.0045  56.5  m  15?  21.38  73.9   13 112 143  96
   2024 04 22 02:30  23 08 34.69    -25 57 36.2   183148 1.0045  56.4  m  15?  20.23  72.7   15 111 143  96
   2024 04 22 02:40  23 08 48.55    -25 56 35.5   183046 1.0045  56.4  m  15?  19.10  71.3   17 111 143  96
   2024 04 22 02:50  23 09 01.51    -25 55 33.6   182941 1.0045  56.3  m  15?  18.00  69.7   20 110 143  96
   2024 04 22 03:00  23 09 13.57    -25 54 30.4   182835 1.0045  56.3  m  15?  16.93  67.8   22 109 143  96
   2024 04 22 03:10  23 09 24.74    -25 53 25.7   182727 1.0045  56.3  m  15?  15.90  65.7   24 108 143  96
   2024 04 22 03:20  23 09 35.03    -25 52 19.1   182618 1.0045  56.2  m  15?  14.91  63.1   26 108 143  96
   2024 04 22 03:30  23 09 44.46    -25 51 10.6   182508 1.0045  56.2  m  15?  13.99  60.2   28 107 143  96
   2024 04 22 03:40  23 09 53.02    -25 49 59.8   182398 1.0045  56.2  m  15?  13.13  56.9   30 107 142  96
   2024 04 22 03:50  23 10 00.74    -25 48 46.7   182288 1.0045  56.1  m  15?  12.36  53.0   32 106 142  96
   2024 04 22 04:00  23 10 07.64    -25 47 30.8   182178 1.0045  56.1 A   15?  11.67  48.7   35 105 142  96
   2024 04 22 04:10  23 10 13.73    -25 46 12.1   182069 1.0045  56.1 A   15?  11.10  43.9   37 105 142  96
   2024 04 22 04:20  23 10 19.04    -25 44 50.4   181961 1.0045  56.1 A   15?  10.64  38.6   39 104 142  96
   2024 04 22 04:30  23 10 23.57    -25 43 25.4   181855 1.0045  56.0 N   15?  10.31  33.0   41 104 142  96
   2024 04 22 04:40  23 10 27.36    -25 41 57.0   181751 1.0045  56.0 N   15?  10.12  27.2   43 103 142  96
   2024 04 22 04:50  23 10 30.43    -25 40 24.9   181650 1.0045  56.0 C   15?  10.06  21.4   46 103 142  96
   2024 04 22 05:00  23 10 32.80    -25 38 49.1   181550 1.0045  56.0 C   15?  10.14  15.7   48 102 142  96
   ................
   2024 04 23 02:10  23 50 06.99    -17 43 06.1   162983 1.0047  44.7  m  15?  38.32  63.8    0 109 144  99
   2024 04 23 02:20  23 50 30.70    -17 40 15.1   162297 1.0047  44.6  m  15?  37.38  62.8    2 108 144  99
   2024 04 23 02:30  23 50 53.61    -17 37 22.6   161605 1.0047  44.5  m  15?  36.45  61.8    4 107 144  99
   2024 04 23 02:40  23 51 15.72    -17 34 28.6   160908 1.0047  44.4  m  15?  35.52  60.7    6 106 144  99
   2024 04 23 02:50  23 51 37.02    -17 31 32.8   160205 1.0047  44.3  m  15?  34.60  59.5    8 105 144  99
   2024 04 23 03:00  23 51 57.50    -17 28 35.1   159499 1.0047  44.2  m  15?  33.71  58.2   10 104 145  99
   2024 04 23 03:10  23 52 17.14    -17 25 35.1   158787 1.0047  44.1  m  15?  32.84  56.7   13 103 145  99
   2024 04 23 03:20  23 52 35.96    -17 22 32.8   158072 1.0047  44.0  m  15?  31.99  55.2   15 102 145  99
   2024 04 23 03:30  23 52 53.94    -17 19 27.9   157354 1.0047  43.9  m  15?  31.18  53.5   17 101 145  99
   2024 04 23 03:40  23 53 11.08    -17 16 20.1   156632 1.0047  43.9  m  15?  30.41  51.8   19 100 145  99
   2024 04 23 03:50  23 53 27.38    -17 13 09.3   155908 1.0047  43.8  m  15?  29.68  49.9   21  99 145  99
   2024 04 23 04:00  23 53 42.85    -17 09 55.3   155181 1.0047  43.7 Am  15?  29.00  47.8   23  99 145  99
   2024 04 23 04:10  23 53 57.48    -17 06 37.9   154452 1.0047  43.6 Am  15?  28.38  45.7   26  98 145  99
   2024 04 23 04:20  23 54 11.29    -17 03 16.7   153722 1.0047  43.6 Am  15?  27.82  43.5   28  97 145  99
   2024 04 23 04:30  23 54 24.27    -16 59 51.7   152991 1.0047  43.5 Nm  15?  27.33  41.1   30  96 145  99
   2024 04 23 04:40  23 54 36.44    -16 56 22.6   152259 1.0047  43.4 Nm  15?  26.91  38.7   32  95 145  99
   2024 04 23 04:50  23 54 47.81    -16 52 49.1   151526 1.0047  43.4 C   15?  26.57  36.1   35  94 145  99
   2024 04 23 05:00  23 54 58.39    -16 49 11.2   150794 1.0047  43.3 C   15?  26.30  33.6   37  93 145  99
   ................
   2024 04 24 02:20  12 08 56.58    -06 47 18.0     8813 1.0058 150.2  r   9?  11120 135.4   10 266  29  99
   2024 04 24 02:30  13 31 11.17    -25 49 42.2     9784 1.0058 164.5  m  10? 8337.3 131.5   32 253  13  99
   2024 04 24 02:40  14 42 10.42    -37 36 38.1    11723 1.0058 154.0  m  10? 5568.0 123.6   46 239  24  99
   2024 04 24 02:50  15 40 55.13    -43 56 59.9    14061 1.0058 143.0  m  10? 3781.6 115.1   54 225  35  99
   2024 04 24 03:00  16 28 10.07    -47 13 25.3    16521 1.0058 134.7  m  10? 2703.2 107.5   57 214  43  99
   2024 04 24 03:10  17 05 50.31    -48 51 56.9    18987 1.0058 128.6  m  10? 2030.5 101.2   60 206  49  99
   2024 04 24 03:20  17 36 01.69    -49 37 48.1    21411 1.0058 123.8  m  10? 1588.8  96.0   61 199  54  99
   2024 04 24 03:30  18 00 31.15    -49 54 31.7    23775 1.0058 120.0  m  10? 1284.3  91.7   61 195  58  99
   2024 04 24 03:40  18 20 40.89    -49 54 41.8    26075 1.0058 116.9  m  10? 1065.5  88.0   62 191  61  99
   2024 04 24 03:50  18 37 31.69    -49 45 15.3    28310 1.0058 114.2  m  11? 902.69  84.9   62 189  63  99
   2024 04 24 04:00  18 51 48.13    -49 30 10.6    30483 1.0058 112.0 Am  11? 777.99  82.3   63 188  66  99
   2024 04 24 04:10  19 04 03.02    -49 11 48.0    32597 1.0058 110.0 Am  11? 680.16  79.9   63 187  68  99
   2024 04 24 04:20  19 14 40.83    -48 51 32.2    34656 1.0058 108.3 Am  11? 601.85  77.8   64 187  69  99
   2024 04 24 04:30  19 23 59.99    -48 30 15.4    36665 1.0058 106.8 Nm  11? 538.08  75.9   64 187  71  99
   2024 04 24 04:40  19 32 14.65    -48 08 30.2    38625 1.0058 105.4 Nm  11? 485.39  74.1   64 188  72  99
   2024 04 24 04:50  19 39 35.78    -47 46 37.2    40542 1.0058 104.2 Cm  11? 441.31  72.5   65 189  73  99
   2024 04 24 05:00  19 46 12.02    -47 24 49.2    42417 1.0058 103.0 Cm  11? 404.03  71.0   65 191  74  99
   ................
   2024 04 25 00:30  22 40 25.61    -30 15 25.9   159145 1.0056  66.6  m  14?  38.49  81.1    1 122 101  98
   2024 04 25 00:40  22 40 54.29    -30 14 27.4   159426 1.0056  66.5  m  14?  36.95  80.9    2 121 101  98
   2024 04 25 00:50  22 41 21.79    -30 13 29.9   159700 1.0056  66.4  m  14?  35.42  80.6    4 120 101  98
   2024 04 25 01:00  22 41 48.09    -30 12 33.1   159967 1.0056  66.4  m  14?  33.90  80.3    6 119 101  98
   2024 04 25 01:10  22 42 13.21    -30 11 36.9   160228 1.0056  66.3  m  14?  32.38  79.9    8 119 101  98
   2024 04 25 01:20  22 42 37.14    -30 10 40.8   160484 1.0056  66.2  m  14?  30.88  79.4   10 118 101  98
   2024 04 25 01:30  22 42 59.90    -30 09 44.7   160734 1.0056  66.1  m  14?  29.39  78.8   12 117 101  98
   2024 04 25 01:40  22 43 21.49    -30 08 48.3   160979 1.0056  66.1  m  14?  27.93  78.2   14 116 102  98
   2024 04 25 01:50  22 43 41.92    -30 07 51.2   161220 1.0056  66.0  m  14?  26.48  77.3   16 116 102  98
   2024 04 25 02:00  22 44 01.20    -30 06 53.3   161456 1.0056  65.9  m  14?  25.06  76.4   18 115 102  98
   2024 04 25 02:10  22 44 19.35    -30 05 54.1   161689 1.0056  65.9  m  14?  23.68  75.2   20 114 102  98
   2024 04 25 02:20  22 44 36.37    -30 04 53.6   161919 1.0056  65.8  m  14?  22.33  73.9   22 114 102  98
   2024 04 25 02:30  22 44 52.29    -30 03 51.3   162146 1.0056  65.8  m  14?  21.02  72.3   24 113 102  98
   2024 04 25 02:40  22 45 07.11    -30 02 47.1   162370 1.0056  65.7  m  14?  19.75  70.5   26 113 102  98
   2024 04 25 02:50  22 45 20.86    -30 01 40.6   162592 1.0056  65.7  m  14?  18.55  68.4   28 112 102  98
   2024 04 25 03:00  22 45 33.57    -30 00 31.6   162812 1.0056  65.6  m  14?  17.40  66.0   30 112 102  98
   2024 04 25 03:10  22 45 45.24    -29 59 19.9   163032 1.0056  65.6  m  14?  16.33  63.2   32 111 102  98
   2024 04 25 03:20  22 45 55.91    -29 58 05.2   163250 1.0056  65.6  m  14?  15.35  60.0   34 111 102  98
   2024 04 25 03:30  22 46 05.60    -29 56 47.3   163468 1.0056  65.5  m  14?  14.46  56.4   37 110 101  98
   2024 04 25 03:40  22 46 14.33    -29 55 25.9   163686 1.0056  65.5  m  14?  13.67  52.3   39 110 101  98
   2024 04 25 03:50  22 46 22.14    -29 54 00.7   163904 1.0056  65.5  m  14?  13.01  47.8   41 110 101  98
   2024 04 25 04:00  22 46 29.06    -29 52 31.7   164122 1.0056  65.4 Am  14?  12.48  42.9   43 109 101  98
   2024 04 25 04:10  22 46 35.11    -29 50 58.5   164342 1.0056  65.4 Am  14?  12.09  37.7   45 109 101  98
   2024 04 25 04:20  22 46 40.34    -29 49 21.0   164563 1.0056  65.4 Am  14?  11.85  32.4   47 109 101  98
   2024 04 25 04:30  22 46 44.77    -29 47 38.9   164786 1.0056  65.4 Nm  14?  11.75  27.0   49 109 101  98
   2024 04 25 04:40  22 46 48.44    -29 45 52.1   165011 1.0056  65.3 Nm  14?  11.79  21.8   52 108 101  98
   2024 04 25 04:50  22 46 51.39    -29 44 00.5   165238 1.0056  65.3 Cm  14?  11.96  16.8   54 108 101  98
   2024 04 25 05:00  22 46 53.66    -29 42 03.7   165467 1.0056  65.3 Cm  14?  12.23  12.2   56 108 101  98
   ................
   2024 04 26 01:30  23 26 20.14    -22 24 04.0   184456 1.0056  54.6  m  15?  28.95  72.0    1 113 102  95
   2024 04 26 01:40  23 26 39.57    -22 22 34.4   184103 1.0056  54.6  m  15?  27.87  71.3    3 112 102  95
   2024 04 26 01:50  23 26 58.17    -22 21 04.7   183746 1.0056  54.5  m  15?  26.79  70.4    5 111 102  95
   2024 04 26 02:00  23 27 15.94    -22 19 34.8   183383 1.0056  54.4  m  15?  25.72  69.5    7 110 102  95
   2024 04 26 02:10  23 27 32.86    -22 18 04.4   183017 1.0056  54.4  m  15?  24.65  68.4    9 110 102  95
   2024 04 26 02:20  23 27 48.95    -22 16 33.4   182647 1.0056  54.3  m  15?  23.60  67.2   11 109 102  95
   2024 04 26 02:30  23 28 04.19    -22 15 01.5   182273 1.0056  54.3  m  15?  22.56  65.9   13 108 102  95
   2024 04 26 02:40  23 28 18.59    -22 13 28.6   181897 1.0056  54.2  m  15?  21.55  64.3   15 107 102  95
   2024 04 26 02:50  23 28 32.14    -22 11 54.5   181518 1.0056  54.2  m  15?  20.56  62.6   18 106 102  95
   2024 04 26 03:00  23 28 44.85    -22 10 18.9   181137 1.0056  54.1  m  15?  19.61  60.6   20 106 102  95
   2024 04 26 03:10  23 28 56.72    -22 08 41.7   180754 1.0056  54.1  m  15?  18.70  58.4   22 105 102  95
   2024 04 26 03:20  23 29 07.76    -22 07 02.6   180369 1.0056  54.0  m  15?  17.84  55.9   24 104 102  95
   2024 04 26 03:30  23 29 17.97    -22 05 21.5   179984 1.0056  54.0  m  15?  17.03  53.2   26 103 102  95
   2024 04 26 03:40  23 29 27.36    -22 03 38.2   179599 1.0056  53.9  m  15?  16.29  50.2   28 103 102  95
   2024 04 26 03:50  23 29 35.95    -22 01 52.4   179213 1.0056  53.9  m  15?  15.62  46.8   31 102 102  95
   2024 04 26 04:00  23 29 43.73    -22 00 04.0   178828 1.0056  53.9 Am  15?  15.04  43.2   33 101 102  95
   2024 04 26 04:10  23 29 50.74    -21 58 12.7   178443 1.0056  53.8 Am  15?  14.55  39.3   35 100 102  95
   2024 04 26 04:20  23 29 56.98    -21 56 18.5   178060 1.0056  53.8 Am  15?  14.16  35.2   37 100 102  95
   2024 04 26 04:30  23 30 02.46    -21 54 21.0   177678 1.0056  53.8 Nm  15?  13.87  31.0   40  99 102  95
   2024 04 26 04:40  23 30 07.22    -21 52 20.1   177297 1.0056  53.7 Nm  15?  13.69  26.6   42  98 102  95
   2024 04 26 04:50  23 30 11.26    -21 50 15.7   176919 1.0056  53.7 Cm  15?  13.62  22.2   44  98 102  95
   2024 04 26 05:00  23 30 14.61    -21 48 07.5   176543 1.0056  53.7 Cm  15?  13.65  17.9   46  97 102  95
   ................
   2024 04 27 02:50  00 27 16.20    -09 42 53.5   112667 1.0059  36.3  m  14?  86.33  52.6    1  99 108  90
   2024 04 27 03:00  00 28 02.39    -09 34 02.0   111490 1.0059  36.0  m  14?  86.62  51.7    3  98 108  90
   2024 04 27 03:10  00 28 48.17    -09 24 58.3   110304 1.0059  35.8  m  14?  86.96  50.8    5  97 108  90
   2024 04 27 03:20  00 29 33.56    -09 15 41.8   109108 1.0060  35.6  m  14?  87.37  49.9    7  96 108  90
   2024 04 27 03:30  00 30 18.55    -09 06 11.8   107903 1.0060  35.3  m  14?  87.84  49.0    9  95 109  90
   2024 04 27 03:40  00 31 03.15    -08 56 27.6   106690 1.0060  35.1  m  14?  88.39  48.1   11  94 109  90
   2024 04 27 03:50  00 31 47.36    -08 46 28.5   105467 1.0060  34.8  m  14?  89.01  47.1   13  93 109  90
   2024 04 27 04:00  00 32 31.18    -08 36 13.9   104236 1.0060  34.6 Am  14?  89.72  46.1   15  92 109  90
   2024 04 27 04:10  00 33 14.64    -08 25 42.9   102997 1.0060  34.4 Am  14?  90.52  45.1   17  91 109  90
   2024 04 27 04:20  00 33 57.73    -08 14 54.6   101750 1.0060  34.1 Am  14?  91.43  44.1   19  90 109  90
   2024 04 27 04:30  00 34 40.47    -08 03 48.4   100495 1.0060  33.9 Nm  14?  92.44  43.1   21  89 110  90
   2024 04 27 04:40  00 35 22.89    -07 52 23.3    99233 1.0060  33.6 Nm  14?  93.56  42.1   24  88 110  90
   2024 04 27 04:50  00 36 05.00    -07 40 38.3    97962 1.0060  33.4 Cm  14?  94.80  41.1   26  87 110  90
   2024 04 27 05:00  00 36 46.82    -07 28 32.5    96685 1.0060  33.1 Cm  14?  96.18  40.1   28  85 110  90
   ................
   2024 04 27 23:10  21 48 32.90    -36 33 55.1    98219 1.0067  81.8  m  13?  96.74  82.5    0 129  53  84
   2024 04 27 23:20  21 49 50.91    -36 31 50.7    99141 1.0067  81.5  m  13?  92.86  82.3    2 128  53  84
   2024 04 27 23:30  21 51 05.72    -36 29 48.2   100049 1.0067  81.3  m  13?  89.10  82.1    3 128  53  84
   2024 04 27 23:40  21 52 17.40    -36 27 47.3   100942 1.0067  81.1  m  13?  85.44  81.8    5 127  53  84
   2024 04 27 23:50  21 53 26.05    -36 25 47.7   101822 1.0067  80.8  m  13?  81.89  81.6    7 126  53  84
   2024 04 28 00:00  21 54 31.76    -36 23 49.0   102688 1.0067  80.6  m  13?  78.44  81.3    8 125  54  84
   

MMS-2 (JPL-ID: -140483)

   Date (UTC) HH:MM   RA              Dec         delta   r     elong SM  mag  '/hr    PA   alt  az moo ill
   ---- -- -- -----  -------------   -----------  ------ ------ ----- --  --- ------ ------ --- --- --- ---
   2024 04 14 00:20  22 03 21.35    -34 54 10.0   113071 1.0027  65.8     14?  73.91  83.0    0 128 131  31
   2024 04 14 00:30  22 04 19.86    -34 52 42.5   113829 1.0027  65.6     14?  71.06  82.9    1 127 130  31
   2024 04 14 00:40  22 05 16.07    -34 51 16.8   114575 1.0027  65.4     14?  68.26  82.8    3 126 130  31
   2024 04 14 00:50  22 06 10.00    -34 49 52.8   115310 1.0027  65.3     14?  65.51  82.6    5 125 130  32
   2024 04 14 01:00  22 07 01.70    -34 48 30.0   116033 1.0027  65.1     14?  62.82  82.4    6 124 130  32
   2024 04 14 01:10  22 07 51.22    -34 47 08.0   116745 1.0027  65.0     14?  60.18  82.1    8 124 130  32
   2024 04 14 01:20  22 08 38.59    -34 45 46.6   117447 1.0027  64.8     14?  57.60  81.8   10 123 130  32
   2024 04 14 01:30  22 09 23.85    -34 44 25.3   118139 1.0027  64.7     14?  55.07  81.4   12 122 130  32
   2024 04 14 01:40  22 10 07.05    -34 43 03.8   118822 1.0027  64.6     14?  52.60  81.0   13 122 130  32
   2024 04 14 01:50  22 10 48.23    -34 41 41.8   119496 1.0027  64.4     14?  50.19  80.5   15 121 130  32
   2024 04 14 02:00  22 11 27.43    -34 40 19.0   120161 1.0027  64.3     14?  47.85  79.9   17 120 130  32
   2024 04 14 02:10  22 12 04.70    -34 38 54.9   120818 1.0027  64.2     14?  45.56  79.2   19 120 130  32
   2024 04 14 02:20  22 12 40.07    -34 37 29.3   121468 1.0027  64.1     14?  43.34  78.4   21 119 130  32
   2024 04 14 02:30  22 13 13.60    -34 36 01.8   122110 1.0027  64.0     14?  41.19  77.5   23 119 130  32
   2024 04 14 02:40  22 13 45.32    -34 34 32.0   122746 1.0027  63.9     14?  39.11  76.5   25 118 130  33
   2024 04 14 02:50  22 14 15.28    -34 32 59.7   123375 1.0027  63.8     14?  37.11  75.3   26 118 130  33
   2024 04 14 03:00  22 14 43.54    -34 31 24.6   123999 1.0027  63.7     14?  35.19  74.0   28 117 130  33
   2024 04 14 03:10  22 15 10.13    -34 29 46.2   124617 1.0027  63.6     14?  33.36  72.5   30 117 130  33
   2024 04 14 03:20  22 15 35.10    -34 28 04.4   125230 1.0027  63.6     14?  31.62  70.8   32 116 130  33
   2024 04 14 03:30  22 15 58.52    -34 26 18.7   125839 1.0027  63.5     14?  29.97  68.9   34 116 130  33
   2024 04 14 03:40  22 16 20.41    -34 24 29.0   126444 1.0027  63.4     14?  28.43  66.8   36 116 130  33
   2024 04 14 03:50  22 16 40.85    -34 22 34.9   127045 1.0027  63.3     14?  27.01  64.4   38 116 130  33
   2024 04 14 04:00  22 16 59.88    -34 20 36.2   127642 1.0027  63.3 A   14?  25.70  61.9   40 115 130  33
   2024 04 14 04:10  22 17 17.55    -34 18 32.6   128237 1.0026  63.2 A   14?  24.53  59.0   42 115 130  33
   2024 04 14 04:20  22 17 33.93    -34 16 23.8   128830 1.0026  63.1 N   14?  23.48  56.0   44 115 130  34
   2024 04 14 04:30  22 17 49.05    -34 14 09.7   129420 1.0026  63.1 N   14?  22.58  52.7   46 115 130  34
   2024 04 14 04:40  22 18 02.99    -34 11 50.0   130009 1.0026  63.0 N   14?  21.83  49.2   48 115 130  34
   2024 04 14 04:50  22 18 15.80    -34 09 24.5   130597 1.0026  63.0 C   14?  21.22  45.6   50 115 130  34
   2024 04 14 05:00  22 18 27.54    -34 06 53.1   131183 1.0026  62.9 C   14?  20.77  41.9   52 116 131  34
   ................
   2024 04 15 01:40  23 07 44.41    -25 53 14.9   184945 1.0025  50.2  r  15?  29.32  78.7    0 118 128  42
   2024 04 15 01:50  23 08 05.28    -25 52 17.8   184848 1.0025  50.2     15?  28.14  78.4    1 117 128  42
   2024 04 15 02:00  23 08 25.26    -25 51 21.4   184746 1.0025  50.1     15?  26.95  78.0    3 116 128  42
   2024 04 15 02:10  23 08 44.34    -25 50 25.4   184639 1.0025  50.1     15?  25.76  77.5    5 115 128  42
   2024 04 15 02:20  23 09 02.52    -25 49 29.5   184527 1.0025  50.0     15?  24.58  76.9    7 114 128  42
   2024 04 15 02:30  23 09 19.80    -25 48 33.6   184410 1.0025  49.9     15?  23.40  76.2    9 113 128  42
   2024 04 15 02:40  23 09 36.18    -25 47 37.4   184290 1.0025  49.9     15?  22.22  75.3   11 113 128  42
   2024 04 15 02:50  23 09 51.65    -25 46 40.8   184166 1.0025  49.8     15?  21.06  74.4   13 112 128  42
   2024 04 15 03:00  23 10 06.22    -25 45 43.4   184038 1.0025  49.8     15?  19.92  73.2   16 111 128  43
   2024 04 15 03:10  23 10 19.88    -25 44 45.2   183909 1.0025  49.8     15?  18.79  71.8   18 110 128  43
   2024 04 15 03:20  23 10 32.66    -25 43 45.8   183776 1.0025  49.7     15?  17.70  70.2   20 110 128  43
   2024 04 15 03:30  23 10 44.54    -25 42 45.1   183642 1.0025  49.7     15?  16.63  68.4   22 109 128  43
   2024 04 15 03:40  23 10 55.54    -25 41 42.8   183507 1.0025  49.6     15?  15.60  66.2   24 108 128  43
   2024 04 15 03:50  23 11 05.67    -25 40 38.6   183370 1.0025  49.6     15?  14.62  63.7   26 108 128  43
   2024 04 15 04:00  23 11 14.94    -25 39 32.5   183233 1.0025  49.6 A   15?  13.70  60.7   28 107 128  43
   2024 04 15 04:10  23 11 23.36    -25 38 24.2   183095 1.0025  49.5 A   15?  12.85  57.4   30 106 128  43
   2024 04 15 04:20  23 11 30.94    -25 37 13.4   182958 1.0025  49.5 N   15?  12.07  53.5   33 106 129  43
   2024 04 15 04:30  23 11 37.71    -25 36 00.0   182821 1.0025  49.5 N   15?  11.39  49.1   35 105 129  43
   2024 04 15 04:40  23 11 43.68    -25 34 43.7   182685 1.0025  49.5 N   15?  10.81  44.2   37 105 129  44
   2024 04 15 04:50  23 11 48.86    -25 33 24.4   182550 1.0025  49.4 C   15?  10.35  38.9   39 104 129  44
   2024 04 15 05:00  23 11 53.28    -25 32 01.8   182417 1.0025  49.4 C   15?  10.03  33.1   41 104 129  44
   ................
   2024 04 16 02:40  23 52 09.20    -17 31 31.8   159714 1.0027  37.9     15?  39.75  63.8    0 108 128  52
   2024 04 16 02:50  23 52 33.69    -17 28 35.0   158992 1.0027  37.8     15?  38.82  62.8    2 107 128  52
   2024 04 16 03:00  23 52 57.39    -17 25 36.7   158264 1.0027  37.7     15?  37.89  61.8    4 106 128  52
   2024 04 16 03:10  23 53 20.29    -17 22 36.6   157531 1.0027  37.6     15?  36.97  60.7    6 105 128  52
   2024 04 16 03:20  23 53 42.38    -17 19 34.6   156792 1.0028  37.5     15?  36.07  59.6    8 105 128  53
   2024 04 16 03:30  23 54 03.64    -17 16 30.4   156048 1.0028  37.5     15?  35.18  58.3   10 104 128  53
   2024 04 16 03:40  23 54 24.08    -17 13 23.8   155300 1.0028  37.4     15?  34.32  56.9   13 103 128  53
   2024 04 16 03:50  23 54 43.68    -17 10 14.6   154548 1.0028  37.3     15?  33.48  55.4   15 102 128  53
   2024 04 16 04:00  23 55 02.45    -17 07 02.5   153792 1.0028  37.2 A   15?  32.68  53.8   17 101 128  53
   2024 04 16 04:10  23 55 20.37    -17 03 47.5   153033 1.0028  37.1 A   15?  31.92  52.0   19 100 128  53
   2024 04 16 04:20  23 55 37.46    -17 00 29.1   152271 1.0028  37.0 N   15?  31.20  50.2   21  99 128  53
   2024 04 16 04:30  23 55 53.71    -16 57 07.3   151506 1.0028  37.0 N   15?  30.52  48.3   23  98 128  53
   2024 04 16 04:40  23 56 09.12    -16 53 41.8   150739 1.0028  36.9 N   15?  29.91  46.2   26  97 128  53
   2024 04 16 04:50  23 56 23.70    -16 50 12.4   149971 1.0028  36.8 C   15?  29.36  44.0   28  97 128  53
   2024 04 16 05:00  23 56 37.45    -16 46 38.8   149201 1.0028  36.7 C   15?  28.87  41.8   30  96 128  54
   ................
   2024 04 17 01:30  11 06 22.35    +11 36 15.2     7025 1.0039 135.7  r   8?  14758 132.9    6 285  32  61
   2024 04 17 01:40  13 01 52.82    -16 44 06.4     7096 1.0039 168.6      9?  12858 134.1   41 267  71  61
   2024 04 17 01:50  14 37 41.24    -35 00 14.7     9003 1.0039 152.2      9? 7635.8 125.2   61 238  98  61
   2024 04 17 02:00  15 50 55.32    -43 22 09.6    11587 1.0039 136.7      9? 4552.7 115.0   66 206 114  61
   2024 04 17 02:10  16 45 10.36    -47 02 52.3    14309 1.0039 126.7  e   9? 2985.1 106.5   66 184 123  61
   2024 04 17 02:20  17 25 39.86    -48 40 14.5    17000 1.0039 119.8  t  10? 2124.2  99.9   64 172 130  62
   2024 04 17 02:30  17 56 36.78    -49 20 24.1    19608 1.0039 114.8     10? 1605.4  94.7   62 165 134  62
   2024 04 17 02:40  18 20 54.72    -49 32 12.5    22121 1.0039 110.9     10? 1267.9  90.6   61 161 138  62
   2024 04 17 02:50  18 40 28.37    -49 29 11.9    24541 1.0039 107.8     10? 1034.8  87.2   60 158 140  62
   2024 04 17 03:00  18 56 33.94    -49 18 10.3    26874 1.0039 105.2     10? 866.20  84.3   60 156 143  62
   2024 04 17 03:10  19 10 03.17    -49 02 44.5    29125 1.0039 103.0     10? 739.62  81.9   60 155 144  62
   2024 04 17 03:20  19 21 32.07    -48 44 54.7    31302 1.0039 101.1     10? 641.75  79.8   60 154 146  62
   2024 04 17 03:30  19 31 26.41    -48 25 50.1    33412 1.0039  99.4     10? 564.23  77.8   60 154 147  62
   2024 04 17 03:40  19 40 05.02    -48 06 11.3    35459 1.0039  98.0     11? 501.60  76.1   61 154 148  62
   2024 04 17 03:50  19 47 42.01    -47 46 22.4    37450 1.0039  96.7     11? 450.15  74.5   61 154 149  62
   2024 04 17 04:00  19 54 28.14    -47 26 37.9    39388 1.0039  95.5 A   11? 407.29  72.9   62 154 150  62
   2024 04 17 04:10  20 00 31.78    -47 07 06.2    41279 1.0039  94.4 A   11? 371.15  71.5   62 155 151  63
   2024 04 17 04:20  20 05 59.53    -46 47 52.3    43125 1.0039  93.4 N   11? 340.38  70.1   63 156 152  63
   2024 04 17 04:30  20 10 56.68    -46 28 58.5    44930 1.0039  92.6 N   11? 313.94  68.8   64 158 152  63
   2024 04 17 04:40  20 15 27.51    -46 10 26.0    46697 1.0039  91.7 N   11? 291.05  67.5   65 159 153  63
   2024 04 17 04:50  20 19 35.55    -45 52 15.0    48428 1.0039  91.0 C   11? 271.11  66.3   65 161 153  63
   2024 04 17 05:00  20 23 23.71    -45 34 25.0    50127 1.0039  90.3 C   11? 253.64  65.1   66 163 154  63
   ................
   2024 04 18 01:00  22 43 20.89    -29 49 13.4   162817 1.0036  59.6     15?  36.54  81.7    0 122 162  70
   2024 04 18 01:10  22 43 48.13    -29 48 21.6   163061 1.0036  59.5     15?  35.06  81.6    2 121 162  70
   2024 04 18 01:20  22 44 14.23    -29 47 30.9   163299 1.0036  59.4     15?  33.58  81.3    4 120 162  70
   2024 04 18 01:30  22 44 39.18    -29 46 41.0   163529 1.0036  59.3     15?  32.11  81.1    6 119 162  70
   2024 04 18 01:40  22 45 03.00    -29 45 51.5   163754 1.0036  59.3     15?  30.64  80.7    8 118 162  70
   2024 04 18 01:50  22 45 25.67    -29 45 02.1   163974 1.0036  59.2     15?  29.18  80.2   10 117 162  70
   2024 04 18 02:00  22 45 47.22    -29 44 12.8   164188 1.0036  59.1     15?  27.74  79.7   12 117 161  70
   2024 04 18 02:10  22 46 07.63    -29 43 23.1   164397 1.0036  59.1     15?  26.31  79.0   14 116 161  70
   2024 04 18 02:20  22 46 26.93    -29 42 32.7   164602 1.0036  59.0     15?  24.91  78.2   16 115 161  71
   2024 04 18 02:30  22 46 45.11    -29 41 41.5   164804 1.0036  58.9     15?  23.52  77.3   18 115 161  71
   2024 04 18 02:40  22 47 02.20    -29 40 49.2   165001 1.0036  58.9     15?  22.17  76.1   20 114 161  71
   2024 04 18 02:50  22 47 18.20    -29 39 55.4   165196 1.0036  58.8     15?  20.85  74.8   22 113 161  71
   2024 04 18 03:00  22 47 33.12    -29 39 00.0   165388 1.0036  58.8     15?  19.56  73.2   24 113 161  71
   2024 04 18 03:10  22 47 46.99    -29 38 02.6   165578 1.0036  58.8     15?  18.32  71.4   26 112 161  71
   2024 04 18 03:20  22 47 59.82    -29 37 03.1   165765 1.0036  58.7     15?  17.14  69.2   28 112 161  71
   2024 04 18 03:30  22 48 11.63    -29 36 01.1   165952 1.0036  58.7     15?  16.02  66.7   30 111 161  71
   2024 04 18 03:40  22 48 22.44    -29 34 56.4   166137 1.0035  58.6     15?  14.96  63.8   32 111 162  71
   2024 04 18 03:50  22 48 32.27    -29 33 48.8   166321 1.0035  58.6     15?  13.99  60.4   34 110 162  71
   2024 04 18 04:00  22 48 41.15    -29 32 38.0   166506 1.0035  58.6 A   15?  13.12  56.5   36 110 162  71
   2024 04 18 04:10  22 48 49.10    -29 31 23.8   166690 1.0035  58.5 A   15?  12.36  52.1   39 109 162  71
   2024 04 18 04:20  22 48 56.15    -29 30 06.0   166875 1.0035  58.5 A   15?  11.72  47.2   41 109 162  71
   2024 04 18 04:30  22 49 02.33    -29 28 44.3   167061 1.0035  58.5 N   15?  11.22  41.8   43 109 162  72
   2024 04 18 04:40  22 49 07.67    -29 27 18.6   167248 1.0035  58.5 N   15?  10.86  36.1   45 108 162  72
   2024 04 18 04:50  22 49 12.20    -29 25 48.6   167436 1.0035  58.5 C   15?  10.66  30.2   47 108 162  72
   2024 04 18 05:00  22 49 15.95    -29 24 14.1   167626 1.0035  58.4 C   15?  10.61  24.4   49 108 162  72
   ................
   2024 04 19 01:50  23 27 31.73    -22 14 53.3   184265 1.0036  48.0  r  15?  29.69  72.8    0 114 163  78
   2024 04 19 02:00  23 27 51.78    -22 13 25.3   183892 1.0036  48.0     15?  28.61  72.2    1 113 163  79
   2024 04 19 02:10  23 28 11.01    -22 11 57.4   183513 1.0036  47.9     15?  27.54  71.5    3 112 163  79
   2024 04 19 02:20  23 28 29.41    -22 10 29.4   183130 1.0036  47.8     15?  26.46  70.7    5 111 163  79
   2024 04 19 02:30  23 28 46.99    -22 09 01.1   182742 1.0036  47.8     15?  25.39  69.7    7 110 163  79
   2024 04 19 02:40  23 29 03.73    -22 07 32.4   182349 1.0036  47.7     15?  24.32  68.7    9 109 163  79
   2024 04 19 02:50  23 29 19.63    -22 06 02.9   181953 1.0036  47.6     15?  23.27  67.5   11 109 163  79
   2024 04 19 03:00  23 29 34.68    -22 04 32.6   181554 1.0036  47.6     15?  22.23  66.1   13 108 163  79
   2024 04 19 03:10  23 29 48.90    -22 03 01.2   181152 1.0036  47.5     15?  21.22  64.5   16 107 163  79
   2024 04 19 03:20  23 30 02.26    -22 01 28.6   180747 1.0036  47.5     15?  20.23  62.7   18 106 163  79
   2024 04 19 03:30  23 30 14.79    -21 59 54.4   180340 1.0036  47.4     15?  19.28  60.7   20 105 163  79
   2024 04 19 03:40  23 30 26.48    -21 58 18.6   179931 1.0036  47.4     15?  18.37  58.5   22 105 163  79
   2024 04 19 03:50  23 30 37.34    -21 56 40.8   179521 1.0036  47.4     15?  17.51  55.9   24 104 163  79
   2024 04 19 04:00  23 30 47.37    -21 55 01.0   179111 1.0036  47.3 A   15?  16.71  53.1   26 103 163  79
   2024 04 19 04:10  23 30 56.58    -21 53 18.9   178699 1.0036  47.3 A   15?  15.97  50.0   29 102 163  79
   2024 04 19 04:20  23 31 04.99    -21 51 34.4   178288 1.0036  47.2 A   15?  15.31  46.6   31 102 163  79
   2024 04 19 04:30  23 31 12.60    -21 49 47.1   177877 1.0036  47.2 N   15?  14.73  42.9   33 101 163  79
   2024 04 19 04:40  23 31 19.42    -21 47 57.0   177467 1.0036  47.2 N   15?  14.25  38.9   35 100 163  80
   2024 04 19 04:50  23 31 25.48    -21 46 03.8   177058 1.0036  47.1 C   15?  13.87  34.7   38  99 163  80
   2024 04 19 05:00  23 31 30.79    -21 44 07.4   176650 1.0036  47.1 C   15?  13.59  30.3   40  99 164  80
   ................
   2024 04 20 03:20  00 30 58.39    -09 06 13.0   106913 1.0040  28.9     15?  95.63  52.4    0  99 161  86
   2024 04 20 03:30  00 31 49.40    -08 56 20.7   105676 1.0040  28.6     14?  96.28  51.6    2  98 161  86
   2024 04 20 03:40  00 32 40.18    -08 46 13.4   104428 1.0041  28.4     14?  97.00  50.8    4  97 161  86
   2024 04 20 03:50  00 33 30.72    -08 35 50.2   103170 1.0041  28.1     14?  97.81  49.9    6  96 161  86
   2024 04 20 04:00  00 34 21.04    -08 25 10.3   101902 1.0041  27.8 A   14?  98.70  49.0    8  95 161  86
   2024 04 20 04:10  00 35 11.14    -08 14 12.8   100624 1.0041  27.6 A   14?  99.69  48.2   10  94 160  86
   2024 04 20 04:20  00 36 01.05    -08 02 56.8    99336 1.0041  27.3 A   14? 100.79  47.3   13  93 160  86
   2024 04 20 04:30  00 36 50.77    -07 51 21.4    98038 1.0041  27.0 N   14? 101.99  46.3   15  92 160  86
   2024 04 20 04:40  00 37 40.32    -07 39 25.4    96731 1.0041  26.7 N   14? 103.32  45.4   17  90 160  86
   2024 04 20 04:50  00 38 29.74    -07 27 07.8    95414 1.0041  26.4 C   14? 104.79  44.5   19  89 160  87
   2024 04 20 05:00  00 39 19.05    -07 14 27.4    94088 1.0041  26.2 C   14? 106.39  43.6   21  88 160  87
   ................
   2024 04 20 23:40  21 56 52.72    -35 40 30.6   105057 1.0047  73.6  r  13?  85.51  82.5    0 129 137  91
   2024 04 20 23:50  21 58 00.79    -35 38 43.6   105904 1.0047  73.4  m  13?  82.17  82.4    1 128 137  91
   2024 04 21 00:00  21 59 06.13    -35 36 58.8   106736 1.0047  73.2  m  13?  78.92  82.3    2 127 137  91
   2024 04 21 00:10  22 00 08.81    -35 35 15.9   107556 1.0047  73.0  m  13?  75.74  82.1    4 126 137  91
   2024 04 21 00:20  22 01 08.90    -35 33 34.6   108363 1.0047  72.8  m  13?  72.64  81.8    5 126 137  91
   2024 04 21 00:30  22 02 06.44    -35 31 54.5   109157 1.0047  72.6  m  13?  69.61  81.6    7 125 138  91
   2024 04 21 00:40  22 03 01.50    -35 30 15.2   109940 1.0047  72.4  m  13?  66.66  81.3    9 124 138  91
   2024 04 21 00:50  22 03 54.13    -35 28 36.4   110712 1.0047  72.3  m  13?  63.78  80.9   10 123 138  91
   2024 04 21 01:00  22 04 44.40    -35 26 57.8   111472 1.0047  72.1  m  13?  60.97  80.5   12 123 138  91
   2024 04 21 01:10  22 05 32.35    -35 25 19.0   112222 1.0047  72.0  m  13?  58.24  80.0   14 122 138  91
   2024 04 21 01:20  22 06 18.04    -35 23 39.6   112963 1.0047  71.8  m  13?  55.59  79.4   16 121 138  91
   2024 04 21 01:30  22 07 01.53    -35 21 59.2   113694 1.0047  71.7  m  13?  53.01  78.8   18 121 138  91
   2024 04 21 01:40  22 07 42.87    -35 20 17.6   114415 1.0047  71.6  m  13?  50.51  78.1   19 120 138  91
   2024 04 21 01:50  22 08 22.12    -35 18 34.4   115129 1.0047  71.4  m  13?  48.09  77.3   21 120 138  91
   2024 04 21 02:00  22 08 59.32    -35 16 49.3   115834 1.0047  71.3  m  13?  45.75  76.3   23 119 138  91
   2024 04 21 02:10  22 09 34.54    -35 15 01.8   116532 1.0047  71.2  m  13?  43.50  75.3   25 119 138  92
   2024 04 21 02:20  22 10 07.84    -35 13 11.7   117223 1.0047  71.1  m  14?  41.34  74.1   27 118 138  92
   2024 04 21 02:30  22 10 39.26    -35 11 18.6   117907 1.0047  71.0  m  14?  39.27  72.8   29 118 138  92
   2024 04 21 02:40  22 11 08.86    -35 09 22.3   118585 1.0047  70.9  m  14?  37.31  71.3   31 118 138  92
   2024 04 21 02:50  22 11 36.70    -35 07 22.4   119257 1.0047  70.8  m  14?  35.44  69.6   33 117 138  92
   2024 04 21 03:00  22 12 02.85    -35 05 18.5   119924 1.0047  70.7  m  14?  33.69  67.8   35 117 138  92
   2024 04 21 03:10  22 12 27.35    -35 03 10.5   120586 1.0047  70.6     14?  32.05  65.7   37 117 138  92
   2024 04 21 03:20  22 12 50.27    -35 00 58.0   121244 1.0047  70.6     14?  30.53  63.5   39 116 138  92
   2024 04 21 03:30  22 13 11.67    -34 58 40.8   121898 1.0047  70.5     14?  29.14  61.0   41 116 138  92
   2024 04 21 03:40  22 13 31.60    -34 56 18.5   122549 1.0047  70.4     14?  27.88  58.4   43 116 138  92
   2024 04 21 03:50  22 13 50.13    -34 53 51.0   123196 1.0047  70.3     14?  26.77  55.5   45 116 138  92
   2024 04 21 04:00  22 14 07.33    -34 51 18.1   123840 1.0047  70.3 A   14?  25.80  52.5   47 116 138  92
   2024 04 21 04:10  22 14 23.24    -34 48 39.4   124483 1.0047  70.2 A   14?  24.98  49.3   49 116 138  92
   2024 04 21 04:20  22 14 37.95    -34 45 54.7   125123 1.0047  70.2 A   14?  24.32  46.0   51 116 138  92
   2024 04 21 04:30  22 14 51.50    -34 43 04.0   125762 1.0047  70.1 N   14?  23.80  42.7   53 117 138  92
   2024 04 21 04:40  22 15 03.97    -34 40 07.0   126399 1.0047  70.0 N   14?  23.43  39.3   55 117 138  92
   2024 04 21 04:50  22 15 15.43    -34 37 03.6   127036 1.0046  70.0 C   14?  23.21  35.9   57 118 138  92
   2024 04 21 05:00  22 15 25.92    -34 33 53.6   127672 1.0046  69.9 C   14?  23.11  32.7   59 118 138  92
   ................
   2024 04 22 01:10  23 06 10.11    -26 05 04.6   183828 1.0045  56.9  r  15?  29.72  78.3    0 118 143  96
   2024 04 22 01:20  23 06 31.26    -26 04 04.9   183760 1.0045  56.8  m  15?  28.52  78.0    1 117 143  96
   2024 04 22 01:30  23 06 51.51    -26 03 05.9   183686 1.0045  56.8  m  15?  27.32  77.6    3 116 143  96
   2024 04 22 01:40  23 07 10.84    -26 02 07.2   183607 1.0045  56.7  m  15?  26.12  77.1    5 115 143  96
   2024 04 22 01:50  23 07 29.27    -26 01 08.7   183523 1.0045  56.6  m  15?  24.93  76.4    7 114 143  96
   2024 04 22 02:00  23 07 46.78    -26 00 10.3   183434 1.0045  56.6  m  15?  23.74  75.7    9 114 143  96
   2024 04 22 02:10  23 08 03.38    -25 59 11.6   183342 1.0045  56.5  m  15?  22.55  74.9   11 113 143  96
   2024 04 22 02:20  23 08 19.07    -25 58 12.4   183246 1.0045  56.5  m  15?  21.38  73.9   13 112 143  96
   2024 04 22 02:30  23 08 33.84    -25 57 12.6   183147 1.0045  56.4  m  15?  20.23  72.7   15 111 143  96
   2024 04 22 02:40  23 08 47.70    -25 56 11.9   183045 1.0045  56.4  m  15?  19.10  71.3   17 111 143  96
   2024 04 22 02:50  23 09 00.66    -25 55 10.0   182940 1.0045  56.3  m  15?  18.00  69.7   20 110 143  96
   2024 04 22 03:00  23 09 12.72    -25 54 06.8   182834 1.0045  56.3  m  15?  16.93  67.8   22 109 143  96
   2024 04 22 03:10  23 09 23.89    -25 53 02.1   182726 1.0045  56.3  m  15?  15.89  65.7   24 108 143  96
   2024 04 22 03:20  23 09 34.17    -25 51 55.5   182617 1.0045  56.2  m  15?  14.91  63.1   26 108 143  96
   2024 04 22 03:30  23 09 43.59    -25 50 46.9   182507 1.0045  56.2  m  15?  13.99  60.2   28 107 143  96
   2024 04 22 03:40  23 09 52.16    -25 49 36.2   182397 1.0045  56.2  m  15?  13.13  56.8   30 107 142  96
   2024 04 22 03:50  23 09 59.88    -25 48 23.0   182287 1.0045  56.1  m  15?  12.36  53.0   32 106 142  96
   2024 04 22 04:00  23 10 06.78    -25 47 07.1   182177 1.0045  56.1 A   15?  11.67  48.7   35 105 142  96
   2024 04 22 04:10  23 10 12.87    -25 45 48.4   182069 1.0045  56.1 A   15?  11.10  43.9   37 105 142  96
   2024 04 22 04:20  23 10 18.17    -25 44 26.6   181961 1.0045  56.1 A   15?  10.64  38.6   39 104 142  96
   2024 04 22 04:30  23 10 22.70    -25 43 01.6   181855 1.0045  56.0 N   15?  10.31  33.0   41 104 142  96
   2024 04 22 04:40  23 10 26.49    -25 41 33.2   181751 1.0045  56.0 N   15?  10.12  27.2   43 103 142  96
   2024 04 22 04:50  23 10 29.56    -25 40 01.2   181649 1.0045  56.0 C   15?  10.06  21.4   46 103 142  96
   2024 04 22 05:00  23 10 31.93    -25 38 25.3   181550 1.0045  56.0 C   15?  10.14  15.7   48 102 142  96
   ................
   2024 04 23 02:10  23 50 06.07    -17 42 45.7   162986 1.0047  44.7  m  15?  38.32  63.8    0 109 144  99
   2024 04 23 02:20  23 50 29.77    -17 39 54.6   162300 1.0047  44.6  m  15?  37.38  62.8    2 108 144  99
   2024 04 23 02:30  23 50 52.69    -17 37 02.2   161609 1.0047  44.5  m  15?  36.44  61.8    4 107 144  99
   2024 04 23 02:40  23 51 14.79    -17 34 08.2   160911 1.0047  44.4  m  15?  35.52  60.7    6 106 144  99
   2024 04 23 02:50  23 51 36.09    -17 31 12.4   160209 1.0047  44.3  m  15?  34.60  59.5    8 105 144  99
   2024 04 23 03:00  23 51 56.56    -17 28 14.7   159502 1.0047  44.2  m  15?  33.71  58.2   10 104 145  99
   2024 04 23 03:10  23 52 16.20    -17 25 14.7   158791 1.0047  44.1  m  15?  32.83  56.7   13 103 145  99
   2024 04 23 03:20  23 52 35.02    -17 22 12.4   158076 1.0047  44.0  m  15?  31.99  55.2   15 102 145  99
   2024 04 23 03:30  23 52 52.99    -17 19 07.5   157358 1.0047  43.9  m  15?  31.18  53.5   17 101 145  99
   2024 04 23 03:40  23 53 10.13    -17 15 59.7   156636 1.0047  43.9  m  15?  30.40  51.8   19 100 145  99
   2024 04 23 03:50  23 53 26.44    -17 12 49.0   155912 1.0047  43.8  m  15?  29.67  49.9   21  99 145  99
   2024 04 23 04:00  23 53 41.90    -17 09 34.9   155185 1.0047  43.7 Am  15?  29.00  47.8   23  99 145  99
   2024 04 23 04:10  23 53 56.53    -17 06 17.5   154456 1.0047  43.6 Am  15?  28.38  45.7   26  98 145  99
   2024 04 23 04:20  23 54 10.34    -17 02 56.4   153726 1.0047  43.6 Am  15?  27.82  43.5   28  97 145  99
   2024 04 23 04:30  23 54 23.32    -16 59 31.3   152995 1.0047  43.5 Nm  15?  27.33  41.1   30  96 145  99
   2024 04 23 04:40  23 54 35.49    -16 56 02.2   152263 1.0047  43.4 Nm  15?  26.91  38.7   32  95 145  99
   2024 04 23 04:50  23 54 46.85    -16 52 28.8   151530 1.0047  43.4 C   15?  26.56  36.1   35  94 145  99
   2024 04 23 05:00  23 54 57.43    -16 48 50.9   150798 1.0047  43.3 C   15?  26.30  33.6   37  93 145  99
   ................
   2024 04 24 02:20  12 08 16.22    -06 37 27.8     8813 1.0058 150.0  r   9?  11132 135.3   10 267  30  99
   2024 04 24 02:30  13 30 35.50    -25 42 38.1     9774 1.0058 164.5  m  10? 8360.8 131.6   32 253  13  99
   2024 04 24 02:40  14 41 40.42    -37 32 33.9    11707 1.0058 154.1  m  10? 5585.3 123.7   46 239  24  99
   2024 04 24 02:50  15 40 30.91    -43 54 45.0    14043 1.0058 143.0  m  10? 3792.3 115.2   54 225  35  99
   2024 04 24 03:00  16 27 50.89    -47 12 08.4    16502 1.0058 134.8  m  10? 2709.8 107.6   57 214  43  99
   2024 04 24 03:10  17 05 35.12    -48 51 10.0    18968 1.0058 128.6  m  10? 2034.8 101.2   60 206  49  99
   2024 04 24 03:20  17 35 49.52    -49 37 17.0    21393 1.0058 123.9  m  10? 1591.7  96.0   61 199  54  99
   2024 04 24 03:30  18 00 21.26    -49 54 08.8    23758 1.0058 120.0  m  10? 1286.4  91.7   61 195  58  99
   2024 04 24 03:40  18 20 32.70    -49 54 23.2    26058 1.0058 116.9  m  10? 1067.0  88.0   62 191  61  99
   2024 04 24 03:50  18 37 24.80    -49 44 58.9    28294 1.0058 114.2  m  11? 903.86  84.9   62 189  63  99
   2024 04 24 04:00  18 51 42.24    -49 29 55.2    30467 1.0058 112.0 Am  11? 778.91  82.3   63 188  66  99
   2024 04 24 04:10  19 03 57.93    -49 11 32.8    32581 1.0058 110.0 Am  11? 680.90  79.9   63 187  68  99
   2024 04 24 04:20  19 14 36.36    -48 51 16.9    34641 1.0058 108.3 Am  11? 602.45  77.8   64 187  69  99
   2024 04 24 04:30  19 23 56.03    -48 29 59.8    36649 1.0058 106.8 Nm  11? 538.58  75.9   64 187  71  99
   2024 04 24 04:40  19 32 11.10    -48 08 14.2    38610 1.0058 105.4 Nm  11? 485.81  74.1   64 188  72  99
   2024 04 24 04:50  19 39 32.57    -47 46 20.7    40527 1.0058 104.2 Cm  11? 441.66  72.5   65 189  73  99
   2024 04 24 05:00  19 46 09.11    -47 24 32.1    42403 1.0058 103.0 Cm  11? 404.33  71.0   65 191  74  99
   ................
   2024 04 25 00:30  22 40 24.82    -30 15 01.7   159141 1.0056  66.6  m  14?  38.49  81.0    1 122 101  98
   2024 04 25 00:40  22 40 53.50    -30 14 03.1   159422 1.0056  66.5  m  14?  36.95  80.9    2 121 101  98
   2024 04 25 00:50  22 41 20.99    -30 13 05.6   159696 1.0056  66.4  m  14?  35.42  80.6    4 120 101  98
   2024 04 25 01:00  22 41 47.29    -30 12 08.9   159964 1.0056  66.4  m  14?  33.90  80.3    6 119 101  98
   2024 04 25 01:10  22 42 12.40    -30 11 12.6   160225 1.0056  66.3  m  14?  32.38  79.9    8 119 101  98
   2024 04 25 01:20  22 42 36.34    -30 10 16.5   160480 1.0056  66.2  m  14?  30.88  79.4   10 118 101  98
   2024 04 25 01:30  22 42 59.09    -30 09 20.4   160731 1.0056  66.1  m  14?  29.39  78.8   12 117 101  98
   2024 04 25 01:40  22 43 20.68    -30 08 23.9   160976 1.0056  66.1  m  14?  27.93  78.2   14 116 102  98
   2024 04 25 01:50  22 43 41.11    -30 07 26.8   161217 1.0056  66.0  m  14?  26.48  77.3   16 116 102  98
   2024 04 25 02:00  22 44 00.39    -30 06 28.9   161453 1.0056  65.9  m  14?  25.06  76.4   18 115 102  98
   2024 04 25 02:10  22 44 18.54    -30 05 29.7   161686 1.0056  65.9  m  14?  23.68  75.2   20 114 102  98
   2024 04 25 02:20  22 44 35.56    -30 04 29.1   161916 1.0056  65.8  m  14?  22.33  73.9   22 114 102  98
   2024 04 25 02:30  22 44 51.47    -30 03 26.8   162142 1.0056  65.8  m  14?  21.02  72.3   24 113 102  98
   2024 04 25 02:40  22 45 06.29    -30 02 22.6   162367 1.0056  65.7  m  14?  19.75  70.5   26 113 102  98
   2024 04 25 02:50  22 45 20.04    -30 01 16.1   162589 1.0056  65.7  m  14?  18.55  68.4   28 112 102  98
   2024 04 25 03:00  22 45 32.75    -30 00 07.1   162809 1.0056  65.6  m  14?  17.40  66.0   30 112 102  98
   2024 04 25 03:10  22 45 44.42    -29 58 55.4   163029 1.0056  65.6  m  14?  16.33  63.2   32 111 102  98
   2024 04 25 03:20  22 45 55.08    -29 57 40.6   163247 1.0056  65.6  m  14?  15.35  60.0   34 111 102  98
   2024 04 25 03:30  22 46 04.77    -29 56 22.7   163465 1.0056  65.5  m  14?  14.46  56.4   37 110 101  98
   2024 04 25 03:40  22 46 13.50    -29 55 01.2   163683 1.0056  65.5  m  14?  13.68  52.3   39 110 101  98
   2024 04 25 03:50  22 46 21.31    -29 53 36.1   163901 1.0056  65.5  m  14?  13.01  47.8   41 109 101  98
   2024 04 25 04:00  22 46 28.23    -29 52 07.0   164120 1.0056  65.4 Am  14?  12.48  42.9   43 109 101  98
   2024 04 25 04:10  22 46 34.28    -29 50 33.8   164339 1.0056  65.4 Am  14?  12.09  37.7   45 109 101  98
   2024 04 25 04:20  22 46 39.51    -29 48 56.3   164560 1.0056  65.4 Am  14?  11.85  32.4   47 109 101  98
   2024 04 25 04:30  22 46 43.94    -29 47 14.2   164783 1.0056  65.4 Nm  14?  11.75  27.0   49 109 101  98
   2024 04 25 04:40  22 46 47.61    -29 45 27.4   165008 1.0056  65.3 Nm  14?  11.79  21.8   52 108 101  98
   2024 04 25 04:50  22 46 50.56    -29 43 35.7   165235 1.0056  65.3 Cm  14?  11.96  16.8   54 108 101  98
   2024 04 25 05:00  22 46 52.82    -29 41 38.9   165465 1.0056  65.3 Cm  14?  12.24  12.2   56 108 101  98
   ................
   2024 04 26 01:30  23 26 19.27    -22 23 41.6   184457 1.0056  54.6  m  15?  28.95  72.0    1 113 102  95
   2024 04 26 01:40  23 26 38.70    -22 22 11.9   184104 1.0056  54.6  m  15?  27.87  71.3    3 112 102  95
   2024 04 26 01:50  23 26 57.29    -22 20 42.2   183747 1.0056  54.5  m  15?  26.79  70.4    5 111 102  95
   2024 04 26 02:00  23 27 15.06    -22 19 12.3   183385 1.0056  54.4  m  15?  25.71  69.5    7 110 102  95
   2024 04 26 02:10  23 27 31.98    -22 17 41.9   183018 1.0056  54.4  m  15?  24.65  68.4    9 110 102  95
   2024 04 26 02:20  23 27 48.07    -22 16 10.9   182648 1.0056  54.3  m  15?  23.60  67.2   11 109 102  95
   2024 04 26 02:30  23 28 03.31    -22 14 39.0   182275 1.0056  54.3  m  15?  22.56  65.9   13 108 102  95
   2024 04 26 02:40  23 28 17.70    -22 13 06.1   181898 1.0056  54.2  m  15?  21.55  64.3   15 107 102  95
   2024 04 26 02:50  23 28 31.25    -22 11 32.0   181519 1.0056  54.2  m  15?  20.56  62.6   18 106 102  95
   2024 04 26 03:00  23 28 43.96    -22 09 56.4   181138 1.0056  54.1  m  15?  19.61  60.6   20 106 102  95
   2024 04 26 03:10  23 28 55.83    -22 08 19.2   180755 1.0056  54.1  m  15?  18.70  58.4   22 105 102  95
   2024 04 26 03:20  23 29 06.87    -22 06 40.1   180371 1.0056  54.0  m  15?  17.84  55.9   24 104 102  95
   2024 04 26 03:30  23 29 17.08    -22 04 59.0   179986 1.0056  54.0  m  15?  17.03  53.2   26 103 102  95
   2024 04 26 03:40  23 29 26.47    -22 03 15.6   179600 1.0056  53.9  m  15?  16.29  50.2   28 103 102  95
   2024 04 26 03:50  23 29 35.05    -22 01 29.8   179215 1.0056  53.9  m  15?  15.62  46.8   31 102 102  95
   2024 04 26 04:00  23 29 42.84    -21 59 41.4   178829 1.0056  53.9 Am  15?  15.04  43.2   33 101 102  95
   2024 04 26 04:10  23 29 49.84    -21 57 50.1   178445 1.0056  53.8 Am  15?  14.55  39.3   35 100 102  95
   2024 04 26 04:20  23 29 56.08    -21 55 55.9   178061 1.0056  53.8 Am  15?  14.16  35.2   37 100 102  95
   2024 04 26 04:30  23 30 01.56    -21 53 58.4   177679 1.0056  53.8 Nm  15?  13.87  31.0   40  99 102  95
   2024 04 26 04:40  23 30 06.31    -21 51 57.5   177299 1.0056  53.7 Nm  15?  13.69  26.6   42  98 102  95
   2024 04 26 04:50  23 30 10.35    -21 49 53.1   176921 1.0056  53.7 Cm  15?  13.62  22.2   44  98 102  95
   2024 04 26 05:00  23 30 13.70    -21 47 44.9   176545 1.0056  53.7 Cm  15?  13.65  17.9   46  97 102  95
   ................
   2024 04 27 02:50  00 27 15.14    -09 42 38.1   112674 1.0059  36.3  m  14?  86.31  52.6    1  99 108  90
   2024 04 27 03:00  00 28 01.32    -09 33 46.7   111497 1.0059  36.0  m  14?  86.61  51.7    3  98 108  90
   2024 04 27 03:10  00 28 47.10    -09 24 43.1   110311 1.0059  35.8  m  14?  86.95  50.9    5  97 108  90
   2024 04 27 03:20  00 29 32.48    -09 15 26.7   109116 1.0060  35.6  m  14?  87.36  49.9    7  96 108  90
   2024 04 27 03:30  00 30 17.47    -09 05 56.8   107911 1.0060  35.3  m  14?  87.83  49.0    9  95 109  90
   2024 04 27 03:40  00 31 02.06    -08 56 12.7   106697 1.0060  35.1  m  14?  88.37  48.1   11  94 109  90
   2024 04 27 03:50  00 31 46.26    -08 46 13.8   105475 1.0060  34.8  m  14?  89.00  47.1   13  93 109  90
   2024 04 27 04:00  00 32 30.07    -08 35 59.3   104244 1.0060  34.6 Am  14?  89.71  46.1   15  92 109  90
   2024 04 27 04:10  00 33 13.52    -08 25 28.4   103005 1.0060  34.4 Am  14?  90.51  45.2   17  91 109  90
   2024 04 27 04:20  00 33 56.60    -08 14 40.3   101758 1.0060  34.1 Am  14?  91.41  44.1   19  90 109  90
   2024 04 27 04:30  00 34 39.34    -08 03 34.2   100503 1.0060  33.9 Nm  14?  92.42  43.1   21  89 110  90
   2024 04 27 04:40  00 35 21.75    -07 52 09.2    99241 1.0060  33.6 Nm  14?  93.54  42.1   24  88 110  90
   2024 04 27 04:50  00 36 03.85    -07 40 24.4    97970 1.0060  33.4 Cm  14?  94.78  41.1   26  87 110  90
   2024 04 27 05:00  00 36 45.66    -07 28 18.8    96693 1.0060  33.1 Cm  14?  96.15  40.1   28  85 110  90
   ................
   2024 04 27 23:10  21 48 32.09    -36 33 31.8    98210 1.0067  81.8  m  13?  96.75  82.5    0 129  53  84
   2024 04 27 23:20  21 49 50.11    -36 31 27.3    99133 1.0067  81.5  m  13?  92.87  82.3    2 128  53  84
   2024 04 27 23:30  21 51 04.92    -36 29 24.7   100041 1.0067  81.3  m  13?  89.11  82.1    3 128  53  84
   2024 04 27 23:40  21 52 16.60    -36 27 23.8   100934 1.0067  81.1  m  13?  85.45  81.8    5 127  53  84
   2024 04 27 23:50  21 53 25.26    -36 25 24.1   101814 1.0067  80.8  m  13?  81.90  81.6    7 126  53  84
   2024 04 28 00:00  21 54 30.96    -36 23 25.3   102680 1.0067  80.6  m  13?  78.45  81.3    8 125  54  84
   

MMS-3 (JPL-ID: -140484)

   Date (UTC) HH:MM   RA              Dec         delta   r     elong SM  mag  '/hr    PA   alt  az moo ill
   ---- -- -- -----  -------------   -----------  ------ ------ ----- --  --- ------ ------ --- --- --- ---
   2024 04 14 00:20  22 03 24.15    -34 54 11.0   113058 1.0027  65.8     14?  73.91  83.0    0 128 131  31
   2024 04 14 00:30  22 04 22.67    -34 52 43.5   113817 1.0027  65.6     14?  71.05  82.9    1 127 130  31
   2024 04 14 00:40  22 05 18.87    -34 51 17.9   114563 1.0027  65.4     14?  68.25  82.8    3 126 130  31
   2024 04 14 00:50  22 06 12.80    -34 49 53.9   115298 1.0027  65.3     14?  65.51  82.6    5 125 130  32
   2024 04 14 01:00  22 07 04.50    -34 48 31.0   116021 1.0027  65.1     14?  62.81  82.4    6 124 130  32
   2024 04 14 01:10  22 07 54.01    -34 47 09.1   116733 1.0027  65.0     14?  60.18  82.1    8 124 130  32
   2024 04 14 01:20  22 08 41.38    -34 45 47.6   117436 1.0027  64.8     14?  57.59  81.8   10 123 130  32
   2024 04 14 01:30  22 09 26.64    -34 44 26.4   118128 1.0027  64.7     14?  55.07  81.4   12 122 130  32
   2024 04 14 01:40  22 10 09.83    -34 43 04.9   118811 1.0027  64.6     14?  52.60  81.0   13 122 130  32
   2024 04 14 01:50  22 10 51.01    -34 41 43.0   119485 1.0027  64.4     14?  50.19  80.5   15 121 130  32
   2024 04 14 02:00  22 11 30.21    -34 40 20.1   120150 1.0027  64.3     14?  47.84  79.9   17 120 130  32
   2024 04 14 02:10  22 12 07.47    -34 38 56.1   120808 1.0027  64.2     14?  45.55  79.2   19 120 130  32
   2024 04 14 02:20  22 12 42.84    -34 37 30.5   121457 1.0027  64.1     14?  43.33  78.4   21 119 130  32
   2024 04 14 02:30  22 13 16.36    -34 36 03.0   122100 1.0027  64.0     14?  41.18  77.5   23 119 130  32
   2024 04 14 02:40  22 13 48.07    -34 34 33.3   122736 1.0027  63.9     14?  39.11  76.5   25 118 130  33
   2024 04 14 02:50  22 14 18.03    -34 33 01.0   123365 1.0027  63.8     14?  37.10  75.3   26 118 130  33
   2024 04 14 03:00  22 14 46.28    -34 31 25.9   123989 1.0027  63.7     14?  35.18  74.0   28 117 130  33
   2024 04 14 03:10  22 15 12.86    -34 29 47.6   124607 1.0027  63.6     14?  33.35  72.5   30 117 130  33
   2024 04 14 03:20  22 15 37.83    -34 28 05.7   125221 1.0027  63.5     14?  31.61  70.8   32 116 130  33
   2024 04 14 03:30  22 16 01.24    -34 26 20.1   125829 1.0027  63.5     14?  29.96  68.9   34 116 130  33
   2024 04 14 03:40  22 16 23.13    -34 24 30.5   126434 1.0027  63.4     14?  28.42  66.8   36 116 130  33
   2024 04 14 03:50  22 16 43.56    -34 22 36.4   127035 1.0027  63.3     14?  27.00  64.4   38 116 130  33
   2024 04 14 04:00  22 17 02.58    -34 20 37.7   127633 1.0027  63.3 A   14?  25.69  61.9   40 115 130  33
   2024 04 14 04:10  22 17 20.25    -34 18 34.2   128228 1.0026  63.2 A   14?  24.52  59.0   42 115 130  33
   2024 04 14 04:20  22 17 36.61    -34 16 25.5   128821 1.0026  63.1 N   14?  23.47  55.9   44 115 130  34
   2024 04 14 04:30  22 17 51.73    -34 14 11.4   129412 1.0026  63.1 N   14?  22.57  52.7   46 115 130  34
   2024 04 14 04:40  22 18 05.67    -34 11 51.8   130000 1.0026  63.0 N   14?  21.82  49.2   48 115 130  34
   2024 04 14 04:50  22 18 18.47    -34 09 26.3   130588 1.0026  63.0 C   14?  21.21  45.6   50 115 130  34
   2024 04 14 05:00  22 18 30.19    -34 06 54.9   131175 1.0026  62.9 C   14?  20.76  41.9   52 116 130  34
   ................
   2024 04 15 01:40  23 07 45.98    -25 53 20.5   184948 1.0025  50.2  r  15?  29.31  78.7    0 118 128  42
   2024 04 15 01:50  23 08 06.85    -25 52 23.5   184852 1.0025  50.2     15?  28.13  78.4    1 117 128  42
   2024 04 15 02:00  23 08 26.82    -25 51 27.1   184750 1.0025  50.1     15?  26.94  78.0    3 116 128  42
   2024 04 15 02:10  23 08 45.90    -25 50 31.1   184642 1.0025  50.1     15?  25.76  77.5    5 115 128  42
   2024 04 15 02:20  23 09 04.08    -25 49 35.3   184530 1.0025  50.0     15?  24.57  76.9    7 114 128  42
   2024 04 15 02:30  23 09 21.35    -25 48 39.5   184414 1.0025  49.9     15?  23.39  76.2    9 113 128  42
   2024 04 15 02:40  23 09 37.72    -25 47 43.4   184294 1.0025  49.9     15?  22.22  75.4   11 113 128  42
   2024 04 15 02:50  23 09 53.19    -25 46 46.8   184170 1.0025  49.8     15?  21.06  74.4   13 112 128  42
   2024 04 15 03:00  23 10 07.75    -25 45 49.5   184043 1.0025  49.8     15?  19.91  73.2   15 111 128  43
   2024 04 15 03:10  23 10 21.41    -25 44 51.3   183913 1.0025  49.8     15?  18.79  71.8   18 110 128  43
   2024 04 15 03:20  23 10 34.18    -25 43 52.0   183781 1.0025  49.7     15?  17.69  70.3   20 110 128  43
   2024 04 15 03:30  23 10 46.06    -25 42 51.3   183647 1.0025  49.7     15?  16.62  68.4   22 109 128  43
   2024 04 15 03:40  23 10 57.06    -25 41 49.0   183511 1.0025  49.6     15?  15.60  66.2   24 108 128  43
   2024 04 15 03:50  23 11 07.18    -25 40 45.0   183375 1.0025  49.6     15?  14.62  63.7   26 108 128  43
   2024 04 15 04:00  23 11 16.44    -25 39 38.9   183237 1.0025  49.6 A   15?  13.69  60.8   28 107 128  43
   2024 04 15 04:10  23 11 24.86    -25 38 30.6   183100 1.0025  49.5 A   15?  12.84  57.4   30 106 128  43
   2024 04 15 04:20  23 11 32.44    -25 37 19.9   182963 1.0025  49.5 N   15?  12.06  53.5   33 106 129  43
   2024 04 15 04:30  23 11 39.20    -25 36 06.5   182826 1.0025  49.5 N   15?  11.38  49.1   35 105 129  43
   2024 04 15 04:40  23 11 45.16    -25 34 50.3   182690 1.0025  49.5 N   15?  10.80  44.2   37 105 129  44
   2024 04 15 04:50  23 11 50.34    -25 33 31.1   182555 1.0025  49.4 C   15?  10.34  38.8   39 104 129  44
   2024 04 15 05:00  23 11 54.76    -25 32 08.6   182422 1.0025  49.4 C   15?  10.02  33.1   41 104 129  44
   ................
   2024 04 16 02:40  23 52 09.59    -17 31 48.1   159729 1.0027  37.9     15?  39.73  63.8    0 108 128  52
   2024 04 16 02:50  23 52 34.07    -17 28 51.4   159007 1.0027  37.8     15?  38.80  62.8    2 107 128  52
   2024 04 16 03:00  23 52 57.76    -17 25 53.2   158279 1.0027  37.7     15?  37.87  61.8    4 106 128  52
   2024 04 16 03:10  23 53 20.65    -17 22 53.3   157546 1.0027  37.6     15?  36.95  60.8    6 105 128  52
   2024 04 16 03:20  23 53 42.72    -17 19 51.4   156807 1.0028  37.5     15?  36.05  59.6    8 105 128  53
   2024 04 16 03:30  23 54 03.98    -17 16 47.3   156064 1.0028  37.5     15?  35.16  58.3   10 104 128  53
   2024 04 16 03:40  23 54 24.40    -17 13 40.8   155316 1.0028  37.4     15?  34.30  56.9   13 103 128  53
   2024 04 16 03:50  23 54 43.99    -17 10 31.8   154564 1.0028  37.3     15?  33.46  55.4   15 102 128  53
   2024 04 16 04:00  23 55 02.75    -17 07 19.9   153808 1.0028  37.2 A   15?  32.66  53.8   17 101 128  53
   2024 04 16 04:10  23 55 20.66    -17 04 05.0   153049 1.0028  37.1 A   15?  31.89  52.1   19 100 128  53
   2024 04 16 04:20  23 55 37.74    -17 00 46.8   152287 1.0028  37.0 N   15?  31.17  50.2   21  99 128  53
   2024 04 16 04:30  23 55 53.98    -16 57 25.2   151522 1.0028  37.0 N   15?  30.50  48.3   23  98 128  53
   2024 04 16 04:40  23 56 09.37    -16 53 59.8   150755 1.0028  36.9 N   15?  29.89  46.2   26  97 128  53
   2024 04 16 04:50  23 56 23.94    -16 50 30.6   149987 1.0028  36.8 C   15?  29.33  44.0   28  97 128  53
   2024 04 16 05:00  23 56 37.68    -16 46 57.1   149217 1.0028  36.7 C   15?  28.85  41.8   30  96 128  54
   ................
   2024 04 17 01:30  11 04 00.57    +12 06 52.0     7046 1.0039 134.9  r   8?  14719 132.7    5 285  31  61
   2024 04 17 01:40  12 59 52.07    -16 17 43.7     7071 1.0039 168.4      9?  12964 134.2   41 268  70  61
   2024 04 17 01:50  14 36 09.86    -34 48 18.5     8957 1.0039 152.6      9? 7716.7 125.4   61 239  98  61
   2024 04 17 02:00  15 49 51.04    -43 17 43.5    11536 1.0039 136.9      9? 4592.6 115.2   66 206 114  61
   2024 04 17 02:10  16 44 26.02    -47 01 29.1    14258 1.0039 126.8  e   9? 3005.6 106.6   66 185 123  61
   2024 04 17 02:20  17 25 09.03    -48 40 06.2    16950 1.0039 119.9  t  10? 2135.8 100.0   64 172 130  62
   2024 04 17 02:30  17 56 14.99    -49 20 47.2    19560 1.0039 114.9     10? 1612.6  94.7   62 165 134  62
   2024 04 17 02:40  18 20 39.10    -49 32 48.5    22076 1.0039 110.9     10? 1272.6  90.6   61 161 138  62
   2024 04 17 02:50  18 40 17.06    -49 29 52.5    24498 1.0039 107.8     10? 1038.1  87.2   60 158 140  62
   2024 04 17 03:00  18 56 25.74    -49 18 51.7    26832 1.0039 105.2     10? 868.58  84.3   60 156 143  62
   2024 04 17 03:10  19 09 57.25    -49 03 24.9    29085 1.0039 103.0     10? 741.40  81.9   60 155 144  62
   2024 04 17 03:20  19 21 27.88    -48 45 33.3    31264 1.0039 101.1     10? 643.11  79.8   60 154 146  62
   2024 04 17 03:30  19 31 23.53    -48 26 26.5    33375 1.0039  99.4     10? 565.30  77.8   60 154 147  62
   2024 04 17 03:40  19 40 03.18    -48 06 45.5    35423 1.0039  98.0     11? 502.46  76.1   61 154 148  62
   2024 04 17 03:50  19 47 40.99    -47 46 54.4    37415 1.0039  96.7     11? 450.85  74.5   61 154 149  62
   2024 04 17 04:00  19 54 27.78    -47 27 07.9    39355 1.0039  95.5 A   11? 407.86  72.9   62 154 150  62
   2024 04 17 04:10  20 00 31.95    -47 07 34.3    41246 1.0039  94.4 A   11? 371.63  71.5   62 155 151  63
   2024 04 17 04:20  20 06 00.14    -46 48 18.6    43093 1.0039  93.4 N   11? 340.78  70.1   63 156 152  63
   2024 04 17 04:30  20 10 57.65    -46 29 23.2    44899 1.0039  92.6 N   11? 314.28  68.8   64 158 152  63
   2024 04 17 04:40  20 15 28.78    -46 10 49.2    46666 1.0039  91.7 N   11? 291.34  67.5   65 159 153  63
   2024 04 17 04:50  20 19 37.07    -45 52 36.7    48399 1.0039  91.0 C   11? 271.36  66.3   65 161 153  63
   2024 04 17 05:00  20 23 25.44    -45 34 45.5    50098 1.0039  90.3 C   11? 253.85  65.1   66 163 154  63
   ................
   2024 04 18 01:00  22 43 23.03    -29 49 15.6   162815 1.0036  59.6     15?  36.53  81.7    0 122 162  70
   2024 04 18 01:10  22 43 50.27    -29 48 23.9   163059 1.0036  59.5     15?  35.05  81.6    2 121 162  70
   2024 04 18 01:20  22 44 16.36    -29 47 33.3   163296 1.0036  59.4     15?  33.57  81.3    4 120 162  70
   2024 04 18 01:30  22 44 41.31    -29 46 43.3   163527 1.0036  59.3     15?  32.10  81.1    6 119 162  70
   2024 04 18 01:40  22 45 05.12    -29 45 53.9   163752 1.0036  59.3     15?  30.63  80.7    8 118 162  70
   2024 04 18 01:50  22 45 27.79    -29 45 04.6   163972 1.0036  59.2     15?  29.18  80.2   10 117 161  70
   2024 04 18 02:00  22 45 49.33    -29 44 15.3   164186 1.0036  59.1     15?  27.73  79.7   12 117 161  70
   2024 04 18 02:10  22 46 09.74    -29 43 25.6   164395 1.0036  59.1     15?  26.31  79.0   14 116 161  70
   2024 04 18 02:20  22 46 29.03    -29 42 35.3   164601 1.0036  59.0     15?  24.90  78.2   16 115 161  71
   2024 04 18 02:30  22 46 47.21    -29 41 44.1   164802 1.0036  58.9     15?  23.52  77.3   18 115 161  71
   2024 04 18 02:40  22 47 04.30    -29 40 51.8   165000 1.0036  58.9     15?  22.16  76.2   20 114 161  71
   2024 04 18 02:50  22 47 20.29    -29 39 58.1   165194 1.0036  58.8     15?  20.84  74.8   22 113 161  71
   2024 04 18 03:00  22 47 35.21    -29 39 02.8   165386 1.0036  58.8     15?  19.56  73.3   24 113 161  71
   2024 04 18 03:10  22 47 49.07    -29 38 05.4   165576 1.0036  58.8     15?  18.32  71.4   26 112 161  71
   2024 04 18 03:20  22 48 01.90    -29 37 05.9   165764 1.0036  58.7     15?  17.13  69.3   28 112 161  71
   2024 04 18 03:30  22 48 13.70    -29 36 04.0   165950 1.0036  58.7     15?  16.01  66.7   30 111 161  71
   2024 04 18 03:40  22 48 24.50    -29 34 59.4   166136 1.0035  58.6     15?  14.96  63.8   32 111 162  71
   2024 04 18 03:50  22 48 34.33    -29 33 51.8   166320 1.0035  58.6     15?  13.99  60.4   34 110 162  71
   2024 04 18 04:00  22 48 43.20    -29 32 41.1   166505 1.0035  58.6 A   15?  13.11  56.5   36 110 162  71
   2024 04 18 04:10  22 48 51.15    -29 31 26.9   166689 1.0035  58.5 A   15?  12.35  52.1   39 109 162  71
   2024 04 18 04:20  22 48 58.20    -29 30 09.2   166874 1.0035  58.5 A   15?  11.71  47.2   41 109 162  71
   2024 04 18 04:30  22 49 04.37    -29 28 47.5   167060 1.0035  58.5 N   15?  11.21  41.8   43 109 162  72
   2024 04 18 04:40  22 49 09.70    -29 27 21.9   167247 1.0035  58.5 N   15?  10.85  36.1   45 108 162  72
   2024 04 18 04:50  22 49 14.23    -29 25 51.9   167435 1.0035  58.4 C   15?  10.65  30.2   47 108 162  72
   2024 04 18 05:00  22 49 17.98    -29 24 17.5   167626 1.0035  58.4 C   15?  10.60  24.4   49 108 162  72
   ................
   2024 04 19 01:50  23 27 32.81    -22 15 02.5   184274 1.0036  48.0  r  15?  29.68  72.9    0 114 163  78
   2024 04 19 02:00  23 27 52.85    -22 13 34.6   183900 1.0036  48.0     15?  28.60  72.2    1 113 163  79
   2024 04 19 02:10  23 28 12.07    -22 12 06.8   183522 1.0036  47.9     15?  27.53  71.5    3 112 163  79
   2024 04 19 02:20  23 28 30.47    -22 10 38.9   183139 1.0036  47.8     15?  26.45  70.7    5 111 163  79
   2024 04 19 02:30  23 28 48.04    -22 09 10.7   182750 1.0036  47.8     15?  25.37  69.8    7 110 163  79
   2024 04 19 02:40  23 29 04.77    -22 07 42.0   182358 1.0036  47.7     15?  24.31  68.7    9 109 163  79
   2024 04 19 02:50  23 29 20.67    -22 06 12.6   181962 1.0036  47.6     15?  23.26  67.5   11 109 163  79
   2024 04 19 03:00  23 29 35.72    -22 04 42.4   181563 1.0036  47.6     15?  22.22  66.1   13 108 163  79
   2024 04 19 03:10  23 29 49.93    -22 03 11.1   181161 1.0036  47.5     15?  21.21  64.5   16 107 163  79
   2024 04 19 03:20  23 30 03.29    -22 01 38.5   180756 1.0036  47.5     15?  20.22  62.7   18 106 163  79
   2024 04 19 03:30  23 30 15.81    -22 00 04.4   180349 1.0036  47.4     15?  19.27  60.7   20 105 163  79
   2024 04 19 03:40  23 30 27.49    -21 58 28.6   179941 1.0036  47.4     15?  18.36  58.5   22 105 163  79
   2024 04 19 03:50  23 30 38.35    -21 56 51.0   179531 1.0036  47.4     15?  17.50  56.0   24 104 163  79
   2024 04 19 04:00  23 30 48.37    -21 55 11.2   179120 1.0036  47.3 A   15?  16.69  53.1   26 103 163  79
   2024 04 19 04:10  23 30 57.58    -21 53 29.2   178709 1.0036  47.3 A   15?  15.96  50.0   29 102 163  79
   2024 04 19 04:20  23 31 05.98    -21 51 44.7   178298 1.0036  47.2 A   15?  15.30  46.6   31 102 163  79
   2024 04 19 04:30  23 31 13.58    -21 49 57.6   177887 1.0036  47.2 N   15?  14.72  42.9   33 101 163  79
   2024 04 19 04:40  23 31 20.40    -21 48 07.5   177477 1.0036  47.2 N   15?  14.24  38.9   35 100 163  80
   2024 04 19 04:50  23 31 26.45    -21 46 14.4   177068 1.0036  47.1 C   15?  13.86  34.7   38  99 163  80
   2024 04 19 05:00  23 31 31.75    -21 44 18.1   176660 1.0036  47.1 C   15?  13.58  30.3   40  99 164  80
   ................
   2024 04 20 03:20  00 30 57.34    -09 06 45.8   106936 1.0040  28.9     15?  95.55  52.4    0  99 161  86
   2024 04 20 03:30  00 31 48.32    -08 56 54.1   105699 1.0040  28.6     14?  96.20  51.6    2  98 161  86
   2024 04 20 03:40  00 32 39.05    -08 46 47.3   104452 1.0041  28.4     14?  96.92  50.8    4  97 161  86
   2024 04 20 03:50  00 33 29.55    -08 36 24.7   103194 1.0041  28.1     14?  97.72  49.9    6  96 161  86
   2024 04 20 04:00  00 34 19.82    -08 25 45.4   101926 1.0041  27.8 A   14?  98.61  49.0    8  95 161  86
   2024 04 20 04:10  00 35 09.88    -08 14 48.5   100648 1.0041  27.6 A   14?  99.60  48.2   10  94 160  86
   2024 04 20 04:20  00 35 59.74    -08 03 33.1    99360 1.0041  27.3 A   14? 100.69  47.3   13  93 160  86
   2024 04 20 04:30  00 36 49.41    -07 51 58.3    98063 1.0041  27.0 N   14? 101.89  46.3   15  92 160  86
   2024 04 20 04:40  00 37 38.91    -07 40 03.0    96756 1.0041  26.7 N   14? 103.22  45.4   17  90 160  86
   2024 04 20 04:50  00 38 28.28    -07 27 46.2    95439 1.0041  26.5 C   14? 104.68  44.5   19  89 160  87
   2024 04 20 05:00  00 39 17.53    -07 15 06.5    94114 1.0041  26.2 C   14? 106.28  43.6   21  88 160  87
   ................
   2024 04 20 23:50  21 58 03.72    -35 38 44.5   105890 1.0047  73.4  m  13?  82.17  82.4    0 128 137  91
   2024 04 21 00:00  21 59 09.06    -35 36 59.7   106723 1.0047  73.2  m  13?  78.92  82.3    2 127 137  91
   2024 04 21 00:10  22 00 11.74    -35 35 16.8   107543 1.0047  73.0  m  13?  75.74  82.1    4 126 137  91
   2024 04 21 00:20  22 01 11.82    -35 33 35.5   108350 1.0047  72.8  m  13?  72.64  81.8    5 126 137  91
   2024 04 21 00:30  22 02 09.36    -35 31 55.3   109145 1.0047  72.6  m  13?  69.61  81.6    7 125 138  91
   2024 04 21 00:40  22 03 04.42    -35 30 16.1   109928 1.0047  72.4  m  13?  66.65  81.3    9 124 138  91
   2024 04 21 00:50  22 03 57.05    -35 28 37.3   110700 1.0047  72.3  m  13?  63.78  80.9   10 123 138  91
   2024 04 21 01:00  22 04 47.31    -35 26 58.6   111460 1.0047  72.1  m  13?  60.97  80.5   12 123 138  91
   2024 04 21 01:10  22 05 35.26    -35 25 19.8   112211 1.0047  72.0  m  13?  58.24  80.0   14 122 138  91
   2024 04 21 01:20  22 06 20.95    -35 23 40.4   112951 1.0047  71.8  m  13?  55.58  79.4   16 121 138  91
   2024 04 21 01:30  22 07 04.43    -35 22 00.1   113682 1.0047  71.7  m  13?  53.00  78.8   18 121 138  91
   2024 04 21 01:40  22 07 45.77    -35 20 18.5   114404 1.0047  71.6  m  13?  50.50  78.1   19 120 138  91
   2024 04 21 01:50  22 08 25.01    -35 18 35.3   115118 1.0047  71.4  m  13?  48.08  77.3   21 120 138  91
   2024 04 21 02:00  22 09 02.21    -35 16 50.2   115823 1.0047  71.3  m  13?  45.74  76.3   23 119 138  91
   2024 04 21 02:10  22 09 37.42    -35 15 02.7   116521 1.0047  71.2  m  13?  43.49  75.3   25 119 138  92
   2024 04 21 02:20  22 10 10.71    -35 13 12.6   117212 1.0047  71.1  m  14?  41.33  74.1   27 118 138  92
   2024 04 21 02:30  22 10 42.12    -35 11 19.6   117897 1.0047  71.0  m  14?  39.27  72.8   29 118 138  92
   2024 04 21 02:40  22 11 11.72    -35 09 23.3   118575 1.0047  70.9  m  14?  37.30  71.3   31 118 138  92
   2024 04 21 02:50  22 11 39.56    -35 07 23.4   119247 1.0047  70.8  m  14?  35.43  69.6   33 117 138  92
   2024 04 21 03:00  22 12 05.69    -35 05 19.6   119914 1.0047  70.7  m  14?  33.68  67.8   35 117 138  92
   2024 04 21 03:10  22 12 30.19    -35 03 11.6   120577 1.0047  70.6     14?  32.04  65.7   37 117 138  92
   2024 04 21 03:20  22 12 53.10    -35 00 59.2   121235 1.0047  70.6     14?  30.52  63.5   39 116 138  92
   2024 04 21 03:30  22 13 14.49    -34 58 42.0   121889 1.0047  70.5     14?  29.13  61.0   41 116 138  92
   2024 04 21 03:40  22 13 34.41    -34 56 19.8   122539 1.0047  70.4     14?  27.87  58.4   43 116 138  92
   2024 04 21 03:50  22 13 52.94    -34 53 52.3   123187 1.0047  70.3     14?  26.76  55.5   45 116 138  92
   2024 04 21 04:00  22 14 10.12    -34 51 19.3   123831 1.0047  70.3 A   14?  25.79  52.5   47 116 138  92
   2024 04 21 04:10  22 14 26.03    -34 48 40.7   124474 1.0047  70.2 A   14?  24.97  49.3   49 116 138  92
   2024 04 21 04:20  22 14 40.73    -34 45 56.1   125114 1.0047  70.2 A   14?  24.31  46.0   51 116 138  92
   2024 04 21 04:30  22 14 54.27    -34 43 05.4   125753 1.0047  70.1 N   14?  23.79  42.6   53 117 138  92
   2024 04 21 04:40  22 15 06.73    -34 40 08.5   126391 1.0047  70.0 N   14?  23.42  39.3   55 117 138  92
   2024 04 21 04:50  22 15 18.18    -34 37 05.1   127028 1.0046  70.0 C   14?  23.20  35.9   57 118 138  92
   2024 04 21 05:00  22 15 28.66    -34 33 55.2   127664 1.0046  69.9 C   14?  23.10  32.7   59 118 138  92
   ................
   2024 04 22 01:10  23 06 11.73    -26 05 09.6   183831 1.0045  56.9  r  15?  29.71  78.3    0 118 143  96
   2024 04 22 01:20  23 06 32.87    -26 04 09.9   183763 1.0045  56.8  m  15?  28.52  78.0    1 117 143  96
   2024 04 22 01:30  23 06 53.11    -26 03 10.9   183689 1.0045  56.8  m  15?  27.32  77.6    3 116 143  96
   2024 04 22 01:40  23 07 12.45    -26 02 12.3   183610 1.0045  56.7  m  15?  26.12  77.1    5 115 143  96
   2024 04 22 01:50  23 07 30.87    -26 01 13.9   183526 1.0045  56.6  m  15?  24.92  76.5    7 114 143  96
   2024 04 22 02:00  23 07 48.38    -26 00 15.5   183438 1.0045  56.6  m  15?  23.73  75.7    9 114 143  96
   2024 04 22 02:10  23 08 04.97    -25 59 16.8   183346 1.0045  56.5  m  15?  22.55  74.9   11 113 143  96
   2024 04 22 02:20  23 08 20.65    -25 58 17.7   183250 1.0045  56.5  m  15?  21.38  73.9   13 112 143  96
   2024 04 22 02:30  23 08 35.42    -25 57 17.9   183151 1.0045  56.4  m  15?  20.22  72.7   15 111 143  96
   2024 04 22 02:40  23 08 49.27    -25 56 17.3   183049 1.0045  56.4  m  15?  19.09  71.3   17 111 143  96
   2024 04 22 02:50  23 09 02.23    -25 55 15.5   182944 1.0045  56.3  m  15?  17.99  69.7   20 110 143  96
   2024 04 22 03:00  23 09 14.28    -25 54 12.3   182838 1.0045  56.3  m  15?  16.92  67.8   22 109 143  96
   2024 04 22 03:10  23 09 25.45    -25 53 07.6   182730 1.0045  56.3  m  15?  15.89  65.7   24 108 143  96
   2024 04 22 03:20  23 09 35.73    -25 52 01.1   182621 1.0045  56.2  m  15?  14.90  63.1   26 108 143  96
   2024 04 22 03:30  23 09 45.15    -25 50 52.6   182511 1.0045  56.2  m  15?  13.98  60.2   28 107 143  96
   2024 04 22 03:40  23 09 53.71    -25 49 41.9   182401 1.0045  56.2  m  15?  13.12  56.9   30 107 142  96
   2024 04 22 03:50  23 10 01.42    -25 48 28.7   182291 1.0045  56.1  m  15?  12.35  53.0   32 106 142  96
   2024 04 22 04:00  23 10 08.32    -25 47 12.9   182182 1.0045  56.1 A   15?  11.67  48.7   35 105 142  96
   2024 04 22 04:10  23 10 14.40    -25 45 54.3   182073 1.0045  56.1 A   15?  11.09  43.9   37 105 142  96
   2024 04 22 04:20  23 10 19.70    -25 44 32.6   181965 1.0045  56.1 A   15?  10.63  38.6   39 104 142  96
   2024 04 22 04:30  23 10 24.23    -25 43 07.7   181860 1.0045  56.0 N   15?  10.30  33.0   41 104 142  96
   2024 04 22 04:40  23 10 28.01    -25 41 39.3   181755 1.0045  56.0 N   15?  10.11  27.2   43 103 142  96
   2024 04 22 04:50  23 10 31.07    -25 40 07.3   181654 1.0045  56.0 C   15?  10.06  21.4   46 103 142  96
   2024 04 22 05:00  23 10 33.44    -25 38 31.5   181555 1.0045  56.0 C   15?  10.13  15.7   48 102 142  96
   ................
   2024 04 23 02:10  23 50 06.52    -17 43 00.6   163000 1.0047  44.7  m  15?  38.30  63.8    0 109 144  99
   2024 04 23 02:20  23 50 30.22    -17 40 09.7   162314 1.0047  44.6  m  15?  37.36  62.8    2 108 144  99
   2024 04 23 02:30  23 50 53.12    -17 37 17.4   161623 1.0047  44.5  m  15?  36.42  61.8    4 107 144  99
   2024 04 23 02:40  23 51 15.22    -17 34 23.5   160926 1.0047  44.4  m  15?  35.50  60.7    6 106 144  99
   2024 04 23 02:50  23 51 36.50    -17 31 27.9   160224 1.0047  44.3  m  15?  34.58  59.5    8 105 144  99
   2024 04 23 03:00  23 51 56.96    -17 28 30.3   159517 1.0047  44.2  m  15?  33.69  58.2   10 104 145  99
   2024 04 23 03:10  23 52 16.60    -17 25 30.4   158806 1.0047  44.1  m  15?  32.81  56.7   13 103 145  99
   2024 04 23 03:20  23 52 35.40    -17 22 28.3   158091 1.0047  44.0  m  15?  31.97  55.2   15 102 145  99
   2024 04 23 03:30  23 52 53.37    -17 19 23.5   157372 1.0047  44.0  m  15?  31.16  53.5   17 101 145  99
   2024 04 23 03:40  23 53 10.50    -17 16 15.8   156651 1.0047  43.9  m  15?  30.38  51.8   19 100 145  99
   2024 04 23 03:50  23 53 26.79    -17 13 05.2   155926 1.0047  43.8  m  15?  29.65  49.9   21  99 145  99
   2024 04 23 04:00  23 53 42.24    -17 09 51.3   155200 1.0047  43.7 Am  15?  28.98  47.8   23  99 145  99
   2024 04 23 04:10  23 53 56.86    -17 06 34.0   154471 1.0047  43.6 Am  15?  28.35  45.7   26  98 145  99
   2024 04 23 04:20  23 54 10.66    -17 03 13.0   153741 1.0047  43.6 Am  15?  27.80  43.5   28  97 145  99
   2024 04 23 04:30  23 54 23.63    -16 59 48.2   153010 1.0047  43.5 Nm  15?  27.30  41.1   30  96 145  99
   2024 04 23 04:40  23 54 35.78    -16 56 19.2   152278 1.0047  43.4 Nm  15?  26.88  38.7   32  95 145  99
   2024 04 23 04:50  23 54 47.14    -16 52 45.9   151546 1.0047  43.4 C   15?  26.54  36.1   35  94 145  99
   2024 04 23 05:00  23 54 57.70    -16 49 08.2   150813 1.0047  43.3 C   15?  26.28  33.6   37  93 145  99
   ................
   2024 04 24 02:20  12 06 42.35    -06 14 43.7     8807 1.0058 149.5  r   9?  11168 135.4    9 267  30  99
   2024 04 24 02:30  13 29 15.20    -25 27 26.5     9744 1.0058 164.5  m  10? 8419.9 131.7   32 253  13  99
   2024 04 24 02:40  14 40 35.32    -37 24 44.3    11666 1.0058 154.3  m  10? 5626.6 123.8   46 239  23  99
   2024 04 24 02:50  15 39 40.69    -43 51 11.1    13999 1.0058 143.2  m  10? 3816.7 115.3   53 226  35  99
   2024 04 24 03:00  16 27 13.23    -47 10 43.9    16458 1.0058 134.9  m  10? 2724.4 107.7   57 215  43  99
   2024 04 24 03:10  17 05 07.18    -48 50 49.6    18925 1.0058 128.7  m  10? 2044.0 101.3   59 206  49  99
   2024 04 24 03:20  17 35 28.81    -49 37 28.1    21351 1.0058 123.9  m  10? 1597.8  96.1   61 199  54  99
   2024 04 24 03:30  18 00 05.85    -49 54 35.3    23717 1.0058 120.1  m  10? 1290.6  91.7   61 195  58  99
   2024 04 24 03:40  18 20 21.22    -49 54 56.7    26019 1.0058 116.9  m  10? 1070.1  88.1   62 191  61  99
   2024 04 24 03:50  18 37 16.26    -49 45 35.1    28256 1.0058 114.3  m  11? 906.12  85.0   62 189  63  99
   2024 04 24 04:00  18 51 35.93    -49 30 31.8    30430 1.0058 112.0 Am  11? 780.63  82.3   63 188  66  99
   2024 04 24 04:10  19 03 53.33    -49 12 08.6    32546 1.0058 110.0 Am  11? 682.24  79.9   63 187  68  99
   2024 04 24 04:20  19 14 33.11    -48 51 51.3    34607 1.0058 108.3 Am  11? 603.52  77.8   64 187  69  99
   2024 04 24 04:30  19 23 53.84    -48 30 32.5    36616 1.0058 106.8 Nm  11? 539.44  75.9   64 187  71  99
   2024 04 24 04:40  19 32 09.76    -48 08 45.2    38578 1.0058 105.4 Nm  11? 486.51  74.1   64 188  72  99
   2024 04 24 04:50  19 39 31.92    -47 46 49.9    40496 1.0058 104.2 Cm  11? 442.25  72.5   65 189  73  99
   2024 04 24 05:00  19 46 09.01    -47 24 59.6    42373 1.0058 103.0 Cm  11? 404.82  71.0   65 191  74  99
   ................
   2024 04 25 00:30  22 40 27.02    -30 15 03.4   159138 1.0056  66.6  m  14?  38.48  81.1    1 122 101  98
   2024 04 25 00:40  22 40 55.70    -30 14 04.9   159419 1.0056  66.5  m  14?  36.95  80.9    2 121 101  98
   2024 04 25 00:50  22 41 23.19    -30 13 07.4   159693 1.0056  66.4  m  14?  35.41  80.6    4 120 101  98
   2024 04 25 01:00  22 41 49.48    -30 12 10.7   159961 1.0056  66.3  m  14?  33.89  80.3    6 119 101  98
   2024 04 25 01:10  22 42 14.59    -30 11 14.4   160222 1.0056  66.3  m  14?  32.37  79.9    8 119 101  98
   2024 04 25 01:20  22 42 38.52    -30 10 18.4   160478 1.0056  66.2  m  14?  30.87  79.4   10 118 101  98
   2024 04 25 01:30  22 43 01.28    -30 09 22.3   160728 1.0056  66.1  m  14?  29.39  78.8   12 117 101  98
   2024 04 25 01:40  22 43 22.86    -30 08 25.9   160974 1.0056  66.1  m  14?  27.92  78.2   14 116 102  98
   2024 04 25 01:50  22 43 43.28    -30 07 28.8   161214 1.0056  66.0  m  14?  26.48  77.3   16 116 102  98
   2024 04 25 02:00  22 44 02.56    -30 06 30.9   161451 1.0056  65.9  m  14?  25.06  76.4   18 115 102  98
   2024 04 25 02:10  22 44 20.70    -30 05 31.8   161684 1.0056  65.9  m  14?  23.67  75.2   20 114 102  98
   2024 04 25 02:20  22 44 37.71    -30 04 31.3   161914 1.0056  65.8  m  14?  22.32  73.9   22 114 102  98
   2024 04 25 02:30  22 44 53.62    -30 03 29.0   162141 1.0056  65.8  m  14?  21.01  72.3   24 113 102  98
   2024 04 25 02:40  22 45 08.44    -30 02 24.8   162365 1.0056  65.7  m  14?  19.75  70.5   26 113 102  98
   2024 04 25 02:50  22 45 22.19    -30 01 18.4   162587 1.0056  65.7  m  14?  18.54  68.4   28 112 102  98
   2024 04 25 03:00  22 45 34.88    -30 00 09.4   162808 1.0056  65.6  m  14?  17.40  66.0   30 112 102  98
   2024 04 25 03:10  22 45 46.55    -29 58 57.7   163027 1.0056  65.6  m  14?  16.33  63.2   32 111 102  98
   2024 04 25 03:20  22 45 57.21    -29 57 43.0   163246 1.0056  65.6  m  14?  15.34  60.0   34 111 102  98
   2024 04 25 03:30  22 46 06.89    -29 56 25.1   163464 1.0056  65.5  m  14?  14.45  56.4   37 110 101  98
   2024 04 25 03:40  22 46 15.62    -29 55 03.7   163681 1.0056  65.5  m  14?  13.67  52.3   39 110 101  98
   2024 04 25 03:50  22 46 23.43    -29 53 38.6   163900 1.0056  65.5  m  14?  13.00  47.8   41 109 101  98
   2024 04 25 04:00  22 46 30.34    -29 52 09.6   164118 1.0056  65.4 Am  14?  12.47  42.9   43 109 101  98
   2024 04 25 04:10  22 46 36.38    -29 50 36.5   164338 1.0056  65.4 Am  14?  12.09  37.7   45 109 101  98
   2024 04 25 04:20  22 46 41.60    -29 48 59.0   164559 1.0056  65.4 Am  14?  11.84  32.3   47 109 101  98
   2024 04 25 04:30  22 46 46.03    -29 47 17.0   164782 1.0056  65.4 Nm  14?  11.74  27.0   49 109 101  98
   2024 04 25 04:40  22 46 49.69    -29 45 30.2   165007 1.0056  65.3 Nm  14?  11.78  21.7   52 108 101  98
   2024 04 25 04:50  22 46 52.63    -29 43 38.6   165234 1.0056  65.3 Cm  14?  11.95  16.8   54 108 101  98
   2024 04 25 05:00  22 46 54.89    -29 41 41.9   165464 1.0056  65.3 Cm  14?  12.23  12.2   56 108 101  98
   ................
   2024 04 26 01:30  23 26 20.39    -22 23 50.0   184465 1.0056  54.6  m  15?  28.94  72.0    1 113 102  95
   2024 04 26 01:40  23 26 39.81    -22 22 20.4   184113 1.0056  54.6  m  15?  27.86  71.3    3 112 102  95
   2024 04 26 01:50  23 26 58.40    -22 20 50.8   183755 1.0056  54.5  m  15?  26.78  70.4    5 111 102  95
   2024 04 26 02:00  23 27 16.16    -22 19 20.9   183393 1.0056  54.4  m  15?  25.70  69.5    7 110 102  95
   2024 04 26 02:10  23 27 33.08    -22 17 50.6   183027 1.0056  54.4  m  15?  24.64  68.5    9 110 102  95
   2024 04 26 02:20  23 27 49.16    -22 16 19.7   182657 1.0056  54.3  m  15?  23.59  67.2   11 109 102  95
   2024 04 26 02:30  23 28 04.39    -22 14 47.9   182283 1.0056  54.3  m  15?  22.55  65.9   13 108 102  95
   2024 04 26 02:40  23 28 18.78    -22 13 15.0   181907 1.0056  54.2  m  15?  21.54  64.3   15 107 102  95
   2024 04 26 02:50  23 28 32.32    -22 11 41.0   181528 1.0056  54.2  m  15?  20.55  62.6   18 106 102  95
   2024 04 26 03:00  23 28 45.03    -22 10 05.5   181147 1.0056  54.1  m  15?  19.60  60.6   20 106 102  95
   2024 04 26 03:10  23 28 56.89    -22 08 28.3   180764 1.0056  54.1  m  15?  18.69  58.4   22 105 102  95
   2024 04 26 03:20  23 29 07.92    -22 06 49.3   180380 1.0056  54.0  m  15?  17.82  55.9   24 104 102  95
   2024 04 26 03:30  23 29 18.12    -22 05 08.3   179995 1.0056  54.0  m  15?  17.02  53.2   26 103 102  95
   2024 04 26 03:40  23 29 27.51    -22 03 25.0   179609 1.0056  53.9  m  15?  16.28  50.2   28 103 102  95
   2024 04 26 03:50  23 29 36.08    -22 01 39.3   179224 1.0056  53.9  m  15?  15.61  46.8   31 102 102  95
   2024 04 26 04:00  23 29 43.86    -21 59 50.9   178839 1.0056  53.9 Am  15?  15.03  43.2   33 101 102  95
   2024 04 26 04:10  23 29 50.86    -21 57 59.7   178454 1.0056  53.8 Am  15?  14.54  39.3   35 100 102  95
   2024 04 26 04:20  23 29 57.09    -21 56 05.5   178071 1.0056  53.8 Am  15?  14.14  35.2   37 100 102  95
   2024 04 26 04:30  23 30 02.57    -21 54 08.1   177689 1.0056  53.8 Nm  15?  13.86  30.9   40  99 102  95
   2024 04 26 04:40  23 30 07.32    -21 52 07.3   177308 1.0056  53.7 Nm  15?  13.68  26.6   42  98 102  95
   2024 04 26 04:50  23 30 11.35    -21 50 03.0   176930 1.0056  53.7 Cm  15?  13.61  22.2   44  98 102  95
   2024 04 26 05:00  23 30 14.69    -21 47 54.9   176555 1.0056  53.7 Cm  15?  13.64  17.9   46  97 102  95
   ................
   2024 04 27 02:50  00 27 14.31    -09 43 07.6   112696 1.0059  36.3  m  14?  86.25  52.6    1  99 108  90
   2024 04 27 03:00  00 28 00.45    -09 34 16.6   111519 1.0059  36.0  m  14?  86.54  51.7    3  98 108  90
   2024 04 27 03:10  00 28 46.20    -09 25 13.5   110333 1.0059  35.8  m  14?  86.88  50.9    5  97 108  90
   2024 04 27 03:20  00 29 31.55    -09 15 57.5   109138 1.0060  35.6  m  14?  87.28  50.0    7  96 108  90
   2024 04 27 03:30  00 30 16.50    -09 06 28.1   107933 1.0060  35.3  m  14?  87.75  49.0    9  95 109  90
   2024 04 27 03:40  00 31 01.05    -08 56 44.5   106720 1.0060  35.1  m  14?  88.30  48.1   11  94 109  90
   2024 04 27 03:50  00 31 45.21    -08 46 46.1   105498 1.0060  34.9  m  14?  88.92  47.1   13  93 109  90
   2024 04 27 04:00  00 32 28.99    -08 36 32.1   104267 1.0060  34.6 Am  14?  89.62  46.1   15  92 109  90
   2024 04 27 04:10  00 33 12.39    -08 26 01.8   103028 1.0060  34.4 Am  14?  90.42  45.1   17  91 109  90
   2024 04 27 04:20  00 33 55.43    -08 15 14.3   101782 1.0060  34.1 Am  14?  91.32  44.1   19  90 109  90
   2024 04 27 04:30  00 34 38.12    -08 04 08.8   100527 1.0060  33.9 Nm  14?  92.33  43.1   21  89 110  90
   2024 04 27 04:40  00 35 20.49    -07 52 44.4    99264 1.0060  33.6 Nm  14?  93.45  42.1   24  88 110  90
   2024 04 27 04:50  00 36 02.54    -07 41 00.2    97995 1.0060  33.4 Cm  14?  94.69  41.1   26  87 110  90
   2024 04 27 05:00  00 36 44.31    -07 28 55.2    96717 1.0060  33.1 Cm  14?  96.06  40.1   28  85 110  90
   ................
   2024 04 27 23:10  21 48 35.13    -36 33 32.8    98196 1.0067  81.8  m  13?  96.75  82.5    0 129  53  84
   2024 04 27 23:20  21 49 53.15    -36 31 28.3    99119 1.0067  81.5  m  13?  92.87  82.3    2 128  53  84
   2024 04 27 23:30  21 51 07.95    -36 29 25.7   100027 1.0067  81.3  m  13?  89.11  82.1    3 128  53  84
   2024 04 27 23:40  21 52 19.64    -36 27 24.7   100921 1.0067  81.1  m  13?  85.45  81.8    5 127  53  84
   2024 04 27 23:50  21 53 28.29    -36 25 25.0   101801 1.0067  80.8  m  13?  81.90  81.6    7 126  53  84
   2024 04 28 00:00  21 54 33.99    -36 23 26.2   102667 1.0067  80.6  m  13?  78.45  81.2    8 125  54  84
   

MMS-4 (JPL-ID: -140485)

   Date (UTC) HH:MM   RA              Dec         delta   r     elong SM  mag  '/hr    PA   alt  az moo ill
   ---- -- -- -----  -------------   -----------  ------ ------ ----- --  --- ------ ------ --- --- --- ---
   2024 04 14 00:20  22 03 20.22    -34 54 37.0   113045 1.0027  65.8     14?  73.96  83.0    0 128 131  31
   2024 04 14 00:30  22 04 18.78    -34 53 09.4   113803 1.0027  65.6     14?  71.10  82.9    1 127 131  31
   2024 04 14 00:40  22 05 15.02    -34 51 43.7   114550 1.0027  65.4     14?  68.30  82.8    3 126 130  31
   2024 04 14 00:50  22 06 09.00    -34 50 19.6   115284 1.0027  65.3     14?  65.55  82.6    5 125 130  32
   2024 04 14 01:00  22 07 00.74    -34 48 56.6   116008 1.0027  65.1     14?  62.86  82.4    6 124 130  32
   2024 04 14 01:10  22 07 50.29    -34 47 34.5   116720 1.0027  65.0     14?  60.22  82.1    8 124 130  32
   2024 04 14 01:20  22 08 37.70    -34 46 13.0   117423 1.0027  64.8     14?  57.64  81.8   10 123 130  32
   2024 04 14 01:30  22 09 23.00    -34 44 51.6   118115 1.0027  64.7     14?  55.11  81.4   12 122 130  32
   2024 04 14 01:40  22 10 06.23    -34 43 30.0   118798 1.0027  64.6     14?  52.64  81.0   13 122 130  32
   2024 04 14 01:50  22 10 47.45    -34 42 07.9   119472 1.0027  64.4     14?  50.23  80.5   15 121 130  32
   2024 04 14 02:00  22 11 26.68    -34 40 45.0   120138 1.0027  64.3     14?  47.88  79.9   17 120 130  32
   2024 04 14 02:10  22 12 03.98    -34 39 20.8   120795 1.0027  64.2     14?  45.60  79.2   19 120 130  32
   2024 04 14 02:20  22 12 39.38    -34 37 55.1   121445 1.0027  64.1     14?  43.38  78.4   21 119 130  32
   2024 04 14 02:30  22 13 12.93    -34 36 27.4   122087 1.0027  64.0     14?  41.22  77.5   23 119 130  32
   2024 04 14 02:40  22 13 44.68    -34 34 57.6   122723 1.0027  63.9     14?  39.15  76.5   25 118 130  33
   2024 04 14 02:50  22 14 14.67    -34 33 25.2   123353 1.0027  63.8     14?  37.14  75.3   26 118 130  33
   2024 04 14 03:00  22 14 42.95    -34 31 49.9   123976 1.0027  63.7     14?  35.22  74.0   28 117 130  33
   2024 04 14 03:10  22 15 09.57    -34 30 11.4   124595 1.0027  63.6     14?  33.39  72.5   30 117 130  33
   2024 04 14 03:20  22 15 34.57    -34 28 29.4   125208 1.0027  63.6     14?  31.65  70.8   32 116 130  33
   2024 04 14 03:30  22 15 58.01    -34 26 43.7   125817 1.0027  63.5     14?  30.00  68.9   34 116 130  33
   2024 04 14 03:40  22 16 19.93    -34 24 53.8   126422 1.0027  63.4     14?  28.46  66.8   36 116 130  33
   2024 04 14 03:50  22 16 40.39    -34 22 59.6   127023 1.0027  63.3     14?  27.04  64.4   38 116 130  33
   2024 04 14 04:00  22 16 59.45    -34 21 00.8   127621 1.0027  63.3 A   14?  25.73  61.9   40 115 130  33
   2024 04 14 04:10  22 17 17.14    -34 18 57.0   128216 1.0026  63.2 A   14?  24.55  59.0   42 115 130  33
   2024 04 14 04:20  22 17 33.53    -34 16 48.2   128809 1.0026  63.1 N   14?  23.51  56.0   44 115 130  34
   2024 04 14 04:30  22 17 48.68    -34 14 33.9   129399 1.0026  63.1 N   14?  22.61  52.7   46 115 130  34
   2024 04 14 04:40  22 18 02.64    -34 12 14.1   129988 1.0026  63.0 N   14?  21.86  49.2   48 115 130  34
   2024 04 14 04:50  22 18 15.47    -34 09 48.5   130576 1.0026  63.0 C   14?  21.25  45.6   50 115 130  34
   2024 04 14 05:00  22 18 27.23    -34 07 16.9   131163 1.0026  62.9 C   14?  20.80  41.9   52 116 131  34
   ................
   2024 04 15 01:40  23 07 45.59    -25 53 24.9   184937 1.0025  50.2  r  15?  29.33  78.7    0 118 128  42
   2024 04 15 01:50  23 08 06.46    -25 52 27.8   184841 1.0025  50.2     15?  28.15  78.4    1 117 128  42
   2024 04 15 02:00  23 08 26.45    -25 51 31.3   184739 1.0025  50.1     15?  26.96  78.0    3 116 128  42
   2024 04 15 02:10  23 08 45.54    -25 50 35.2   184631 1.0025  50.1     15?  25.77  77.5    5 115 128  42
   2024 04 15 02:20  23 09 03.73    -25 49 39.2   184519 1.0025  50.0     15?  24.59  76.9    7 114 128  42
   2024 04 15 02:30  23 09 21.02    -25 48 43.3   184403 1.0025  49.9     15?  23.41  76.2    9 113 128  42
   2024 04 15 02:40  23 09 37.40    -25 47 47.0   184283 1.0025  49.9     15?  22.24  75.3   11 113 128  42
   2024 04 15 02:50  23 09 52.88    -25 46 50.3   184159 1.0025  49.8     15?  21.07  74.3   13 112 128  42
   2024 04 15 03:00  23 10 07.46    -25 45 53.0   184032 1.0025  49.8     15?  19.93  73.2   15 111 128  43
   2024 04 15 03:10  23 10 21.13    -25 44 54.7   183902 1.0025  49.8     15?  18.81  71.8   18 110 128  43
   2024 04 15 03:20  23 10 33.91    -25 43 55.2   183770 1.0025  49.7     15?  17.71  70.2   20 110 128  43
   2024 04 15 03:30  23 10 45.80    -25 42 54.4   183636 1.0025  49.7     15?  16.64  68.4   22 109 128  43
   2024 04 15 03:40  23 10 56.81    -25 41 52.0   183500 1.0025  49.6     15?  15.61  66.2   24 108 128  43
   2024 04 15 03:50  23 11 06.95    -25 40 47.9   183364 1.0025  49.6     15?  14.64  63.7   26 108 128  43
   2024 04 15 04:00  23 11 16.22    -25 39 41.7   183227 1.0025  49.6 A   15?  13.71  60.7   28 107 128  43
   2024 04 15 04:10  23 11 24.65    -25 38 33.3   183089 1.0025  49.5 A   15?  12.86  57.4   30 106 128  43
   2024 04 15 04:20  23 11 32.24    -25 37 22.5   182952 1.0025  49.5 N   15?  12.08  53.5   33 106 129  43
   2024 04 15 04:30  23 11 39.02    -25 36 09.0   182815 1.0025  49.5 N   15?  11.40  49.1   35 105 129  43
   2024 04 15 04:40  23 11 44.99    -25 34 52.6   182679 1.0025  49.5 N   15?  10.82  44.2   37 105 129  44
   2024 04 15 04:50  23 11 50.18    -25 33 33.3   182544 1.0025  49.4 C   15?  10.36  38.9   39 104 129  44
   2024 04 15 05:00  23 11 54.61    -25 32 10.6   182411 1.0025  49.4 C   15?  10.04  33.2   41 104 129  44
   ................
   2024 04 16 02:40  23 52 11.06    -17 31 31.0   159721 1.0027  37.9     15?  39.76  63.8    0 108 128  52
   2024 04 16 02:50  23 52 35.56    -17 28 34.1   158999 1.0027  37.8     15?  38.83  62.8    2 107 128  52
   2024 04 16 03:00  23 52 59.27    -17 25 35.7   158271 1.0027  37.7     15?  37.90  61.8    4 106 128  52
   2024 04 16 03:10  23 53 22.17    -17 22 35.6   157538 1.0027  37.6     15?  36.99  60.7    6 105 128  52
   2024 04 16 03:20  23 53 44.27    -17 19 33.4   156799 1.0028  37.5     15?  36.08  59.6    8 105 128  53
   2024 04 16 03:30  23 54 05.54    -17 16 29.1   156055 1.0028  37.5     15?  35.20  58.3   10 104 128  53
   2024 04 16 03:40  23 54 25.98    -17 13 22.4   155307 1.0028  37.4     15?  34.33  56.9   13 103 128  53
   2024 04 16 03:50  23 54 45.59    -17 10 13.2   154555 1.0028  37.3     15?  33.50  55.4   15 102 128  53
   2024 04 16 04:00  23 55 04.36    -17 07 01.1   153800 1.0028  37.2 A   15?  32.69  53.8   17 101 128  53
   2024 04 16 04:10  23 55 22.30    -17 03 45.9   153040 1.0028  37.1 A   15?  31.93  52.0   19 100 128  53
   2024 04 16 04:20  23 55 39.39    -17 00 27.5   152278 1.0028  37.0 N   15?  31.21  50.2   21  99 128  53
   2024 04 16 04:30  23 55 55.64    -16 57 05.6   151514 1.0028  36.9 N   15?  30.54  48.3   23  98 128  53
   2024 04 16 04:40  23 56 11.06    -16 53 40.1   150747 1.0028  36.9 N   15?  29.92  46.2   26  97 128  53
   2024 04 16 04:50  23 56 25.64    -16 50 10.5   149979 1.0028  36.8 C   15?  29.37  44.0   28  97 128  53
   2024 04 16 05:00  23 56 39.40    -16 46 36.9   149209 1.0028  36.7 C   15?  28.88  41.8   30  96 128  54
   ................
   2024 04 17 01:30  11 03 33.51    +12 14 27.1     7064 1.0039 134.7  r   8?  14675 132.7    5 285  31  61
   2024 04 17 01:40  12 59 13.35    -16 06 53.3     7078 1.0039 168.3      9?  12964 134.2   40 268  70  61
   2024 04 17 01:50  14 35 25.33    -34 40 27.5     8954 1.0039 152.8      9? 7735.3 125.5   61 239  97  61
   2024 04 17 02:00  15 49 06.96    -43 12 59.6    11527 1.0039 137.0      9? 4606.3 115.3   66 207 113  61
   2024 04 17 02:10  16 43 45.37    -46 58 40.9    14247 1.0039 127.0  e   9? 3014.5 106.7   66 185 123  61
   2024 04 17 02:20  17 24 32.43    -48 38 26.4    16937 1.0039 120.0  t  10? 2141.8 100.0   64 173 130  62
   2024 04 17 02:30  17 55 42.13    -49 19 49.4    19547 1.0039 114.9     10? 1616.8  94.8   62 165 134  62
   2024 04 17 02:40  18 20 09.45    -49 32 17.5    22062 1.0039 111.0     10? 1275.8  90.7   61 161 138  62
   2024 04 17 02:50  18 39 50.12    -49 29 39.4    24484 1.0039 107.9     10? 1040.5  87.3   60 158 140  62
   2024 04 17 03:00  18 56 01.06    -49 18 51.0    26818 1.0039 105.2     10? 870.50  84.4   60 156 143  62
   2024 04 17 03:10  19 09 34.48    -49 03 33.0    29071 1.0039 103.0     10? 742.97  82.0   60 155 144  62
   2024 04 17 03:20  19 21 06.73    -48 45 47.7    31249 1.0039 101.1     10? 644.43  79.8   60 154 146  62
   2024 04 17 03:30  19 31 03.77    -48 26 45.7    33360 1.0039  99.5     10? 566.42  77.9   60 154 147  62
   2024 04 17 03:40  19 39 44.62    -48 07 08.2    35409 1.0039  98.0     11? 503.42  76.1   61 154 148  62
   2024 04 17 03:50  19 47 23.49    -47 47 19.9    37401 1.0039  96.7     11? 451.69  74.5   61 154 149  62
   2024 04 17 04:00  19 54 11.21    -47 27 35.4    39340 1.0039  95.5 A   11? 408.60  73.0   62 155 150  62
   2024 04 17 04:10  20 00 16.21    -47 08 03.4    41232 1.0039  94.5 A   11? 372.29  71.6   62 155 151  63
   2024 04 17 04:20  20 05 45.13    -46 48 48.8    43078 1.0039  93.5 N   11? 341.37  70.2   63 156 152  63
   2024 04 17 04:30  20 10 43.31    -46 29 54.3    44884 1.0039  92.6 N   11? 314.82  68.8   64 158 152  63
   2024 04 17 04:40  20 15 15.04    -46 11 21.0    46652 1.0039  91.8 N   11? 291.83  67.6   65 159 153  63
   2024 04 17 04:50  20 19 23.88    -45 53 09.0    48385 1.0039  91.0 C   11? 271.81  66.3   65 161 153  63
   2024 04 17 05:00  20 23 12.75    -45 35 18.2    50084 1.0039  90.3 C   11? 254.27  65.1   66 163 154  63
   ................
   2024 04 18 01:00  22 43 21.38    -29 49 30.5   162802 1.0036  59.6     15?  36.56  81.7    0 122 162  70
   2024 04 18 01:10  22 43 48.63    -29 48 38.8   163046 1.0036  59.5     15?  35.08  81.6    2 121 162  70
   2024 04 18 01:20  22 44 14.74    -29 47 48.0   163283 1.0036  59.4     15?  33.60  81.3    4 120 162  70
   2024 04 18 01:30  22 44 39.71    -29 46 57.9   163514 1.0036  59.3     15?  32.12  81.0    6 119 162  70
   2024 04 18 01:40  22 45 03.54    -29 46 08.4   163739 1.0036  59.3     15?  30.65  80.7    8 118 162  70
   2024 04 18 01:50  22 45 26.23    -29 45 19.0   163959 1.0036  59.2     15?  29.20  80.2   10 117 161  70
   2024 04 18 02:00  22 45 47.78    -29 44 29.6   164173 1.0036  59.1     15?  27.75  79.7   12 117 161  70
   2024 04 18 02:10  22 46 08.21    -29 43 39.8   164383 1.0036  59.1     15?  26.33  79.0   14 116 161  70
   2024 04 18 02:20  22 46 27.52    -29 42 49.4   164588 1.0036  59.0     15?  24.92  78.2   16 115 161  71
   2024 04 18 02:30  22 46 45.71    -29 41 58.1   164789 1.0036  58.9     15?  23.54  77.3   18 115 161  71
   2024 04 18 02:40  22 47 02.81    -29 41 05.7   164987 1.0036  58.9     15?  22.18  76.1   20 114 161  71
   2024 04 18 02:50  22 47 18.82    -29 40 11.9   165182 1.0036  58.8     15?  20.86  74.8   22 113 161  71
   2024 04 18 03:00  22 47 33.76    -29 39 16.4   165374 1.0036  58.8     15?  19.58  73.2   24 113 161  71
   2024 04 18 03:10  22 47 47.64    -29 38 19.0   165564 1.0036  58.8     15?  18.34  71.4   26 112 161  71
   2024 04 18 03:20  22 48 00.47    -29 37 19.4   165751 1.0036  58.7     15?  17.15  69.2   28 112 161  71
   2024 04 18 03:30  22 48 12.29    -29 36 17.3   165938 1.0036  58.7     15?  16.03  66.7   30 111 161  71
   2024 04 18 03:40  22 48 23.11    -29 35 12.6   166123 1.0035  58.6     15?  14.98  63.8   32 111 162  71
   2024 04 18 03:50  22 48 32.95    -29 34 04.9   166308 1.0035  58.6     15?  14.01  60.4   34 110 162  71
   2024 04 18 04:00  22 48 41.84    -29 32 54.0   166492 1.0035  58.6 A   15?  13.14  56.5   36 110 162  71
   2024 04 18 04:10  22 48 49.80    -29 31 39.8   166677 1.0035  58.5 A   15?  12.37  52.1   39 109 162  71
   2024 04 18 04:20  22 48 56.86    -29 30 21.9   166862 1.0035  58.5 A   15?  11.73  47.2   41 109 162  71
   2024 04 18 04:30  22 49 03.05    -29 29 00.1   167048 1.0035  58.5 N   15?  11.23  41.8   43 109 162  72
   2024 04 18 04:40  22 49 08.40    -29 27 34.3   167235 1.0035  58.5 N   15?  10.87  36.2   45 108 162  72
   2024 04 18 04:50  22 49 12.94    -29 26 04.2   167423 1.0035  58.5 C   15?  10.67  30.3   47 108 162  72
   2024 04 18 05:00  22 49 16.70    -29 24 29.7   167614 1.0035  58.4 C   15?  10.62  24.4   49 108 162  72
   ................
   2024 04 19 01:50  23 27 33.27    -22 14 58.6   184264 1.0036  48.0  r  15?  29.70  72.8    0 114 163  78
   2024 04 19 02:00  23 27 53.32    -22 13 30.6   183891 1.0036  47.9     15?  28.62  72.2    1 113 163  79
   2024 04 19 02:10  23 28 12.55    -22 12 02.6   183512 1.0036  47.9     15?  27.55  71.5    3 112 163  79
   2024 04 19 02:20  23 28 30.97    -22 10 34.6   183129 1.0036  47.8     15?  26.47  70.7    5 111 163  79
   2024 04 19 02:30  23 28 48.55    -22 09 06.2   182741 1.0036  47.8     15?  25.40  69.7    7 110 163  79
   2024 04 19 02:40  23 29 05.30    -22 07 37.4   182349 1.0036  47.7     15?  24.33  68.7    9 109 163  79
   2024 04 19 02:50  23 29 21.20    -22 06 07.9   181953 1.0036  47.6     15?  23.28  67.4   11 109 163  79
   2024 04 19 03:00  23 29 36.26    -22 04 37.5   181553 1.0036  47.6     15?  22.24  66.1   13 108 163  79
   2024 04 19 03:10  23 29 50.48    -22 03 06.1   181151 1.0036  47.5     15?  21.23  64.5   16 107 163  79
   2024 04 19 03:20  23 30 03.86    -22 01 33.3   180746 1.0036  47.5     15?  20.24  62.7   18 106 163  79
   2024 04 19 03:30  23 30 16.40    -21 59 59.1   180340 1.0036  47.4     15?  19.29  60.7   20 105 163  79
   2024 04 19 03:40  23 30 28.09    -21 58 23.2   179931 1.0036  47.4     15?  18.38  58.5   22 105 163  79
   2024 04 19 03:50  23 30 38.96    -21 56 45.4   179521 1.0036  47.4     15?  17.52  55.9   24 104 163  79
   2024 04 19 04:00  23 30 48.99    -21 55 05.5   179111 1.0036  47.3 A   15?  16.72  53.1   26 103 163  79
   2024 04 19 04:10  23 30 58.21    -21 53 23.4   178700 1.0036  47.3 A   15?  15.98  50.0   29 102 163  79
   2024 04 19 04:20  23 31 06.62    -21 51 38.8   178288 1.0036  47.2 A   15?  15.32  46.6   31 102 163  79
   2024 04 19 04:30  23 31 14.24    -21 49 51.4   177877 1.0036  47.2 N   15?  14.74  42.9   33 101 163  79
   2024 04 19 04:40  23 31 21.07    -21 48 01.3   177467 1.0036  47.2 N   15?  14.26  38.9   35 100 163  80
   2024 04 19 04:50  23 31 27.14    -21 46 08.0   177058 1.0036  47.1 C   15?  13.88  34.7   38  99 163  80
   2024 04 19 05:00  23 31 32.45    -21 44 11.5   176651 1.0036  47.1 C   15?  13.60  30.3   40  99 164  80
   ................
   2024 04 20 03:20  00 31 00.20    -09 06 08.9   106933 1.0040  28.9     15?  95.62  52.4    0  99 161  86
   2024 04 20 03:30  00 31 51.21    -08 56 16.7   105696 1.0040  28.6     14?  96.27  51.6    2  98 161  86
   2024 04 20 03:40  00 32 41.98    -08 46 09.3   104449 1.0041  28.3     14?  97.00  50.8    4  97 161  86
   2024 04 20 03:50  00 33 32.52    -08 35 46.2   103191 1.0041  28.1     14?  97.80  49.9    6  96 161  86
   2024 04 20 04:00  00 34 22.83    -08 25 06.3   101923 1.0041  27.8 A   14?  98.69  49.0    8  95 161  86
   2024 04 20 04:10  00 35 12.93    -08 14 08.9   100645 1.0041  27.6 A   14?  99.68  48.2   10  94 160  86
   2024 04 20 04:20  00 36 02.82    -08 02 53.0    99357 1.0041  27.3 A   14? 100.77  47.3   12  93 160  86
   2024 04 20 04:30  00 36 52.53    -07 51 17.5    98060 1.0041  27.0 N   14? 101.98  46.3   15  92 160  86
   2024 04 20 04:40  00 37 42.08    -07 39 21.6    96753 1.0041  26.7 N   14? 103.31  45.4   17  90 160  86
   2024 04 20 04:50  00 38 31.49    -07 27 04.1    95436 1.0041  26.4 C   14? 104.77  44.5   19  89 160  87
   2024 04 20 05:00  00 39 20.78    -07 14 23.9    94111 1.0041  26.2 C   14? 106.37  43.6   21  88 160  87
   ................
   2024 04 20 23:40  21 56 51.05    -35 41 01.1   105026 1.0047  73.6  r  13?  85.57  82.5    0 129 137  91
   2024 04 20 23:50  21 57 59.18    -35 39 14.0   105873 1.0047  73.4  m  13?  82.23  82.4    1 128 137  91
   2024 04 21 00:00  21 59 04.58    -35 37 29.1   106706 1.0047  73.2  m  13?  78.98  82.3    2 127 137  91
   2024 04 21 00:10  22 00 07.31    -35 35 46.1   107526 1.0047  73.0  m  13?  75.80  82.1    4 126 137  91
   2024 04 21 00:20  22 01 07.45    -35 34 04.7   108333 1.0047  72.8  m  13?  72.69  81.8    5 126 137  91
   2024 04 21 00:30  22 02 05.04    -35 32 24.4   109128 1.0047  72.6  m  13?  69.67  81.6    7 125 138  91
   2024 04 21 00:40  22 03 00.15    -35 30 45.0   109911 1.0047  72.5  m  13?  66.71  81.3    9 124 138  91
   2024 04 21 00:50  22 03 52.83    -35 29 06.1   110683 1.0047  72.3  m  13?  63.83  80.9   11 123 138  91
   2024 04 21 01:00  22 04 43.14    -35 27 27.3   111444 1.0047  72.1  m  13?  61.02  80.5   12 123 138  91
   2024 04 21 01:10  22 05 31.13    -35 25 48.4   112194 1.0047  72.0  m  13?  58.29  80.0   14 122 138  91
   2024 04 21 01:20  22 06 16.87    -35 24 08.8   112935 1.0047  71.8  m  13?  55.63  79.4   16 121 138  91
   2024 04 21 01:30  22 07 00.40    -35 22 28.4   113666 1.0047  71.7  m  13?  53.05  78.8   18 121 138  91
   2024 04 21 01:40  22 07 41.77    -35 20 46.6   114388 1.0047  71.6  m  13?  50.55  78.1   19 120 138  91
   2024 04 21 01:50  22 08 21.06    -35 19 03.3   115102 1.0047  71.5  m  13?  48.13  77.3   21 120 138  91
   2024 04 21 02:00  22 08 58.30    -35 17 18.0   115807 1.0047  71.3  m  13?  45.79  76.3   23 119 138  91
   2024 04 21 02:10  22 09 33.55    -35 15 30.4   116505 1.0047  71.2  m  13?  43.54  75.3   25 119 138  92
   2024 04 21 02:20  22 10 06.88    -35 13 40.2   117196 1.0047  71.1  m  14?  41.38  74.1   27 118 138  92
   2024 04 21 02:30  22 10 38.33    -35 11 47.0   117881 1.0047  71.0  m  14?  39.31  72.8   29 118 138  92
   2024 04 21 02:40  22 11 07.97    -35 09 50.5   118559 1.0047  70.9  m  14?  37.34  71.3   31 118 138  92
   2024 04 21 02:50  22 11 35.84    -35 07 50.4   119231 1.0047  70.8  m  14?  35.48  69.6   33 117 138  92
   2024 04 21 03:00  22 12 02.02    -35 05 46.4   119899 1.0047  70.7  m  14?  33.72  67.8   35 117 138  92
   2024 04 21 03:10  22 12 26.55    -35 03 38.3   120561 1.0047  70.7     14?  32.08  65.7   37 117 138  92
   2024 04 21 03:20  22 12 49.50    -35 01 25.6   121219 1.0047  70.6     14?  30.56  63.5   39 116 138  92
   2024 04 21 03:30  22 13 10.92    -34 59 08.3   121873 1.0047  70.5     14?  29.17  61.0   41 116 138  92
   2024 04 21 03:40  22 13 30.88    -34 56 45.9   122524 1.0047  70.4     14?  27.92  58.4   43 116 138  92
   2024 04 21 03:50  22 13 49.44    -34 54 18.2   123171 1.0047  70.4     14?  26.80  55.5   45 116 138  92
   2024 04 21 04:00  22 14 06.66    -34 51 45.1   123816 1.0047  70.3 A   14?  25.83  52.5   47 116 138  92
   2024 04 21 04:10  22 14 22.60    -34 49 06.2   124459 1.0047  70.2 A   14?  25.02  49.3   49 116 138  92
   2024 04 21 04:20  22 14 37.33    -34 46 21.5   125099 1.0047  70.2 A   14?  24.35  46.0   51 116 138  92
   2024 04 21 04:30  22 14 50.91    -34 43 30.6   125738 1.0047  70.1 N   14?  23.83  42.7   53 117 138  92
   2024 04 21 04:40  22 15 03.40    -34 40 33.5   126376 1.0047  70.1 N   14?  23.46  39.3   55 117 138  92
   2024 04 21 04:50  22 15 14.87    -34 37 29.9   127013 1.0046  70.0 C   14?  23.23  36.0   57 118 138  92
   2024 04 21 05:00  22 15 25.39    -34 34 19.7   127649 1.0046  69.9 C   14?  23.14  32.7   59 118 138  92
   ................
   2024 04 22 01:10  23 06 11.20    -26 05 16.1   183819 1.0045  56.9  r  15?  29.73  78.3    0 118 143  96
   2024 04 22 01:20  23 06 32.36    -26 04 16.3   183751 1.0045  56.8  m  15?  28.53  78.0    1 117 143  96
   2024 04 22 01:30  23 06 52.61    -26 03 17.2   183677 1.0045  56.8  m  15?  27.33  77.6    3 116 143  96
   2024 04 22 01:40  23 07 11.96    -26 02 18.5   183598 1.0045  56.7  m  15?  26.14  77.0    5 115 143  96
   2024 04 22 01:50  23 07 30.39    -26 01 20.0   183515 1.0045  56.6  m  15?  24.94  76.4    7 114 143  96
   2024 04 22 02:00  23 07 47.92    -26 00 21.4   183426 1.0045  56.6  m  15?  23.75  75.7    9 114 143  96
   2024 04 22 02:10  23 08 04.52    -25 59 22.7   183334 1.0045  56.5  m  15?  22.56  74.9   11 113 143  96
   2024 04 22 02:20  23 08 20.21    -25 58 23.5   183238 1.0045  56.5  m  15?  21.39  73.8   13 112 143  96
   2024 04 22 02:30  23 08 34.99    -25 57 23.6   183139 1.0045  56.4  m  15?  20.24  72.7   15 111 143  96
   2024 04 22 02:40  23 08 48.86    -25 56 22.8   183037 1.0045  56.4  m  15?  19.11  71.3   17 111 143  96
   2024 04 22 02:50  23 09 01.83    -25 55 20.9   182933 1.0045  56.3  m  15?  18.01  69.7   20 110 143  96
   2024 04 22 03:00  23 09 13.90    -25 54 17.6   182827 1.0045  56.3  m  15?  16.94  67.8   22 109 143  96
   2024 04 22 03:10  23 09 25.07    -25 53 12.8   182719 1.0045  56.3  m  15?  15.91  65.7   24 108 143  96
   2024 04 22 03:20  23 09 35.37    -25 52 06.2   182610 1.0045  56.2  m  15?  14.92  63.1   26 108 143  96
   2024 04 22 03:30  23 09 44.80    -25 50 57.6   182500 1.0045  56.2  m  15?  14.00  60.2   28 107 143  96
   2024 04 22 03:40  23 09 53.37    -25 49 46.8   182390 1.0045  56.2  m  15?  13.14  56.8   30 107 142  96
   2024 04 22 03:50  23 10 01.10    -25 48 33.5   182280 1.0045  56.1  m  15?  12.37  53.0   32 106 142  96
   2024 04 22 04:00  23 10 08.00    -25 47 17.6   182170 1.0045  56.1 A   15?  11.69  48.7   35 105 142  96
   2024 04 22 04:10  23 10 14.10    -25 45 58.8   182062 1.0045  56.1 A   15?  11.11  43.9   37 105 142  96
   2024 04 22 04:20  23 10 19.41    -25 44 37.0   181954 1.0045  56.1 A   15?  10.65  38.6   39 104 142  96
   2024 04 22 04:30  23 10 23.95    -25 43 12.0   181848 1.0045  56.0 N   15?  10.32  33.0   41 104 142  96
   2024 04 22 04:40  23 10 27.74    -25 41 43.5   181744 1.0045  56.0 N   15?  10.13  27.2   43 103 142  96
   2024 04 22 04:50  23 10 30.82    -25 40 11.3   181643 1.0045  56.0 C   15?  10.07  21.4   46 103 142  96
   2024 04 22 05:00  23 10 33.20    -25 38 35.4   181544 1.0045  56.0 C   15?  10.15  15.8   48 102 142  96
   ................
   2024 04 23 02:10  23 50 07.85    -17 42 46.5   162993 1.0047  44.7  m  15?  38.33  63.7    0 109 144  99
   2024 04 23 02:20  23 50 31.56    -17 39 55.4   162307 1.0047  44.6  m  15?  37.39  62.8    2 108 144  99
   2024 04 23 02:30  23 50 54.48    -17 37 02.9   161616 1.0047  44.5  m  15?  36.45  61.8    4 107 144  99
   2024 04 23 02:40  23 51 16.59    -17 34 08.8   160919 1.0047  44.4  m  15?  35.53  60.7    6 106 144  99
   2024 04 23 02:50  23 51 37.89    -17 31 13.0   160217 1.0047  44.3  m  15?  34.61  59.5    8 105 144  99
   2024 04 23 03:00  23 51 58.37    -17 28 15.2   159510 1.0047  44.2  m  15?  33.72  58.2   10 104 145  99
   2024 04 23 03:10  23 52 18.02    -17 25 15.1   158799 1.0047  44.1  m  15?  32.84  56.7   13 103 145  99
   2024 04 23 03:20  23 52 36.84    -17 22 12.7   158084 1.0047  44.0  m  15?  32.00  55.2   15 102 145  99
   2024 04 23 03:30  23 52 54.82    -17 19 07.7   157365 1.0047  43.9  m  15?  31.19  53.5   17 101 145  99
   2024 04 23 03:40  23 53 11.97    -17 15 59.9   156644 1.0047  43.9  m  15?  30.41  51.8   19 100 145  99
   2024 04 23 03:50  23 53 28.28    -17 12 49.1   155920 1.0047  43.8  m  15?  29.69  49.9   21  99 145  99
   2024 04 23 04:00  23 53 43.75    -17 09 35.0   155193 1.0047  43.7 Am  15?  29.01  47.8   23  99 145  99
   2024 04 23 04:10  23 53 58.39    -17 06 17.5   154465 1.0047  43.6 Am  15?  28.39  45.7   26  98 145  99
   2024 04 23 04:20  23 54 12.20    -17 02 56.3   153735 1.0047  43.6 Am  15?  27.83  43.5   28  97 145  99
   2024 04 23 04:30  23 54 25.18    -16 59 31.2   153004 1.0047  43.5 Nm  15?  27.34  41.1   30  96 145  99
   2024 04 23 04:40  23 54 37.36    -16 56 02.0   152272 1.0047  43.4 Nm  15?  26.92  38.7   32  95 145  99
   2024 04 23 04:50  23 54 48.73    -16 52 28.5   151539 1.0047  43.4 C   15?  26.57  36.2   35  94 145  99
   2024 04 23 05:00  23 54 59.31    -16 48 50.5   150807 1.0047  43.3 C   15?  26.31  33.6   37  93 145  99
   ................
   2024 04 24 02:20  12 05 57.88    -06 01 38.9     8820 1.0058 149.3  r   9?  11160 135.3    9 267  30  99
   2024 04 24 02:30  13 28 25.99    -25 15 43.1     9743 1.0058 164.5  m  10? 8436.4 131.8   32 253  13  99
   2024 04 24 02:40  14 39 44.27    -37 16 28.8    11657 1.0058 154.5  m  10? 5644.9 123.9   46 239  23  99
   2024 04 24 02:50  15 38 51.11    -43 45 47.4    13984 1.0058 143.3  m  10? 3830.2 115.4   53 226  34  99
   2024 04 24 03:00  16 26 27.12    -47 07 15.7    16441 1.0058 135.0  m  10? 2733.8 107.8   57 215  43  99
   2024 04 24 03:10  17 04 25.19    -48 48 36.1    18906 1.0058 128.8  m  10? 2050.6 101.4   59 206  49  99
   2024 04 24 03:20  17 34 50.82    -49 36 03.5    21331 1.0058 124.0  m  10? 1602.7  96.2   61 200  54  99
   2024 04 24 03:30  17 59 31.45    -49 53 43.3    23697 1.0058 120.2  m  10? 1294.3  91.8   61 195  58  99
   2024 04 24 03:40  18 19 49.94    -49 54 27.2    25998 1.0058 117.0  m  10? 1073.0  88.2   62 192  61  99
   2024 04 24 03:50  18 36 47.65    -49 45 21.5    28235 1.0058 114.3  m  11? 908.46  85.1   62 189  63  99
   2024 04 24 04:00  18 51 09.61    -49 30 29.6    30410 1.0058 112.1 Am  11? 782.56  82.4   63 188  66  99
   2024 04 24 04:10  19 03 28.97    -49 12 14.8    32526 1.0058 110.1 Am  11? 683.85  80.0   63 187  67  99
   2024 04 24 04:20  19 14 10.44    -48 52 03.8    34586 1.0058 108.4 Am  11? 604.89  77.9   64 187  69  99
   2024 04 24 04:30  19 23 32.64    -48 30 49.7    36596 1.0058 106.8 Nm  11? 540.62  76.0   64 188  71  99
   2024 04 24 04:40  19 31 49.85    -48 09 06.0    38558 1.0058 105.5 Nm  11? 487.54  74.2   64 188  72  99
   2024 04 24 04:50  19 39 13.14    -47 47 13.5    40476 1.0058 104.2 Cm  11? 443.15  72.6   64 190  73  99
   2024 04 24 05:00  19 45 51.25    -47 25 25.4    42353 1.0058 103.1 Cm  11? 405.63  71.1   65 191  74  99
   ................
   2024 04 25 00:30  22 40 25.14    -30 15 20.8   159123 1.0056  66.6  m  14?  38.51  81.0    1 122 101  98
   2024 04 25 00:40  22 40 53.84    -30 14 22.2   159404 1.0056  66.5  m  14?  36.97  80.8    2 121 101  98
   2024 04 25 00:50  22 41 21.35    -30 13 24.6   159679 1.0056  66.4  m  14?  35.44  80.6    4 120 101  98
   2024 04 25 01:00  22 41 47.66    -30 12 27.8   159946 1.0056  66.4  m  14?  33.91  80.3    6 119 101  98
   2024 04 25 01:10  22 42 12.79    -30 11 31.5   160208 1.0056  66.3  m  14?  32.40  79.9    8 119 101  98
   2024 04 25 01:20  22 42 36.74    -30 10 35.3   160463 1.0056  66.2  m  14?  30.90  79.4   10 118 101  98
   2024 04 25 01:30  22 42 59.51    -30 09 39.1   160714 1.0056  66.1  m  14?  29.41  78.8   12 117 101  98
   2024 04 25 01:40  22 43 21.11    -30 08 42.6   160959 1.0056  66.1  m  14?  27.94  78.2   14 116 102  98
   2024 04 25 01:50  22 43 41.55    -30 07 45.4   161200 1.0056  66.0  m  14?  26.50  77.3   16 116 102  98
   2024 04 25 02:00  22 44 00.85    -30 06 47.4   161437 1.0056  65.9  m  14?  25.08  76.4   18 115 102  98
   2024 04 25 02:10  22 44 19.00    -30 05 48.2   161670 1.0056  65.9  m  14?  23.69  75.2   20 114 102  98
   2024 04 25 02:20  22 44 36.03    -30 04 47.5   161899 1.0056  65.8  m  14?  22.34  73.9   22 114 102  98
   2024 04 25 02:30  22 44 51.96    -30 03 45.2   162126 1.0056  65.8  m  14?  21.03  72.3   24 113 102  98
   2024 04 25 02:40  22 45 06.79    -30 02 40.8   162351 1.0056  65.7  m  14?  19.77  70.5   26 113 102  98
   2024 04 25 02:50  22 45 20.56    -30 01 34.3   162573 1.0056  65.7  m  14?  18.56  68.4   28 112 102  98
   2024 04 25 03:00  22 45 33.27    -30 00 25.2   162794 1.0056  65.6  m  14?  17.42  66.0   30 112 102  98
   2024 04 25 03:10  22 45 44.95    -29 59 13.4   163013 1.0056  65.6  m  14?  16.35  63.2   32 111 102  98
   2024 04 25 03:20  22 45 55.63    -29 57 58.6   163231 1.0056  65.6  m  14?  15.36  60.0   34 111 102  98
   2024 04 25 03:30  22 46 05.33    -29 56 40.6   163450 1.0056  65.5  m  14?  14.47  56.4   37 110 101  98
   2024 04 25 03:40  22 46 14.07    -29 55 19.0   163667 1.0056  65.5  m  14?  13.69  52.3   39 110 101  98
   2024 04 25 03:50  22 46 21.89    -29 53 53.8   163886 1.0056  65.5  m  14?  13.03  47.8   41 110 101  98
   2024 04 25 04:00  22 46 28.82    -29 52 24.7   164104 1.0056  65.4 Am  14?  12.50  42.9   43 109 101  98
   2024 04 25 04:10  22 46 34.88    -29 50 51.4   164324 1.0056  65.4 Am  14?  12.11  37.7   45 109 101  98
   2024 04 25 04:20  22 46 40.12    -29 49 13.8   164545 1.0056  65.4 Am  14?  11.86  32.4   47 109 101  98
   2024 04 25 04:30  22 46 44.56    -29 47 31.6   164768 1.0056  65.4 Nm  14?  11.76  27.0   49 109 101  98
   2024 04 25 04:40  22 46 48.24    -29 45 44.8   164993 1.0056  65.3 Nm  14?  11.80  21.8   52 108 101  98
   2024 04 25 04:50  22 46 51.19    -29 43 53.0   165220 1.0056  65.3 Cm  14?  11.97  16.8   54 108 101  98
   2024 04 25 05:00  22 46 53.47    -29 41 56.2   165450 1.0056  65.3 Cm  14?  12.25  12.3   56 108 101  98
   ................
   2024 04 26 01:30  23 26 20.73    -22 23 48.3   184456 1.0056  54.6  m  15?  28.96  72.0    1 113 102  95
   2024 04 26 01:40  23 26 40.16    -22 22 18.6   184103 1.0056  54.6  m  15?  27.88  71.3    3 112 102  95
   2024 04 26 01:50  23 26 58.77    -22 20 48.9   183746 1.0056  54.5  m  15?  26.80  70.4    5 111 102  95
   2024 04 26 02:00  23 27 16.54    -22 19 18.9   183384 1.0056  54.4  m  15?  25.72  69.5    7 110 102  95
   2024 04 26 02:10  23 27 33.47    -22 17 48.4   183017 1.0056  54.4  m  15?  24.66  68.4    9 110 102  95
   2024 04 26 02:20  23 27 49.56    -22 16 17.4   182647 1.0056  54.3  m  15?  23.61  67.2   11 109 102  95
   2024 04 26 02:30  23 28 04.81    -22 14 45.4   182274 1.0056  54.3  m  15?  22.57  65.9   13 108 102  95
   2024 04 26 02:40  23 28 19.21    -22 13 12.5   181897 1.0056  54.2  m  15?  21.56  64.3   15 107 102  95
   2024 04 26 02:50  23 28 32.77    -22 11 38.3   181518 1.0056  54.2  m  15?  20.57  62.6   18 106 102  95
   2024 04 26 03:00  23 28 45.48    -22 10 02.6   181137 1.0056  54.1  m  15?  19.62  60.6   20 106 102  95
   2024 04 26 03:10  23 28 57.36    -22 08 25.3   180755 1.0056  54.1  m  15?  18.71  58.4   22 105 102  95
   2024 04 26 03:20  23 29 08.40    -22 06 46.2   180371 1.0056  54.0  m  15?  17.85  55.9   24 104 102  95
   2024 04 26 03:30  23 29 18.62    -22 05 05.0   179986 1.0056  54.0  m  15?  17.04  53.2   26 103 102  95
   2024 04 26 03:40  23 29 28.01    -22 03 21.6   179600 1.0056  53.9  m  15?  16.30  50.2   28 103 102  95
   2024 04 26 03:50  23 29 36.60    -22 01 35.8   179215 1.0056  53.9  m  15?  15.63  46.8   31 102 102  95
   2024 04 26 04:00  23 29 44.40    -21 59 47.3   178830 1.0056  53.9 Am  15?  15.05  43.2   33 101 102  95
   2024 04 26 04:10  23 29 51.41    -21 57 55.9   178445 1.0056  53.8 Am  15?  14.56  39.3   35 100 102  95
   2024 04 26 04:20  23 29 57.65    -21 56 01.6   178062 1.0056  53.8 Am  15?  14.17  35.2   37 100 102  95
   2024 04 26 04:30  23 30 03.14    -21 54 04.1   177680 1.0056  53.8 Nm  15?  13.88  31.0   40  99 102  95
   2024 04 26 04:40  23 30 07.90    -21 52 03.1   177299 1.0056  53.7 Nm  15?  13.70  26.6   42  98 102  95
   2024 04 26 04:50  23 30 11.94    -21 49 58.7   176921 1.0056  53.7 Cm  15?  13.63  22.2   44  98 102  95
   2024 04 26 05:00  23 30 15.30    -21 47 50.4   176546 1.0056  53.7 Cm  15?  13.66  18.0   46  97 102  95
   ................
   2024 04 27 02:50  00 27 16.85    -09 42 36.3   112695 1.0059  36.3  m  14?  86.31  52.6    1  99 108  90
   2024 04 27 03:00  00 28 03.03    -09 33 45.0   111519 1.0059  36.0  m  14?  86.60  51.7    3  98 108  90
   2024 04 27 03:10  00 28 48.80    -09 24 41.4   110333 1.0059  35.8  m  14?  86.94  50.8    5  97 108  90
   2024 04 27 03:20  00 29 34.18    -09 15 25.0   109137 1.0060  35.6  m  14?  87.35  49.9    7  96 108  90
   2024 04 27 03:30  00 30 19.16    -09 05 55.1   107933 1.0060  35.3  m  14?  87.82  49.0    9  95 109  90
   2024 04 27 03:40  00 31 03.74    -08 56 11.1   106720 1.0060  35.1  m  14?  88.36  48.1   11  94 109  90
   2024 04 27 03:50  00 31 47.93    -08 46 12.2   105498 1.0060  34.8  m  14?  88.98  47.1   13  93 109  90
   2024 04 27 04:00  00 32 31.74    -08 35 57.8   104267 1.0060  34.6 Am  14?  89.69  46.1   15  92 109  90
   2024 04 27 04:10  00 33 15.18    -08 25 26.9   103028 1.0060  34.4 Am  14?  90.49  45.1   17  91 109  90
   2024 04 27 04:20  00 33 58.25    -08 14 38.9   101782 1.0060  34.1 Am  14?  91.39  44.1   19  90 109  90
   2024 04 27 04:30  00 34 40.98    -08 03 32.9   100527 1.0060  33.9 Nm  14?  92.40  43.1   21  89 110  90
   2024 04 27 04:40  00 35 23.38    -07 52 08.0    99265 1.0060  33.6 Nm  14?  93.52  42.1   24  88 110  90
   2024 04 27 04:50  00 36 05.47    -07 40 23.3    97995 1.0060  33.4 Cm  14?  94.76  41.1   26  87 110  90
   2024 04 27 05:00  00 36 47.28    -07 28 17.8    96718 1.0060  33.1 Cm  14?  96.13  40.1   28  85 110  90
   ................
   2024 04 27 23:10  21 48 29.74    -36 34 06.0    98175 1.0067  81.8  m  13?  96.84  82.5    0 129  53  84
   2024 04 27 23:20  21 49 47.83    -36 32 01.4    99098 1.0067  81.5  m  13?  92.95  82.3    2 128  53  84
   2024 04 27 23:30  21 51 02.71    -36 29 58.7   100006 1.0067  81.3  m  13?  89.18  82.1    4 128  53  84
   2024 04 27 23:40  21 52 14.47    -36 27 57.6   100900 1.0067  81.1  m  13?  85.52  81.8    5 127  53  84
   2024 04 27 23:50  21 53 23.19    -36 25 57.8   101779 1.0067  80.9  m  13?  81.97  81.6    7 126  53  84
   2024 04 28 00:00  21 54 28.96    -36 23 58.9   102646 1.0067  80.6  m  13?  78.52  81.2    8 125  54  84
   

Bill Grays ephemeris for selected ARTSATs for this station you'll find for the next 72 hours here.

Website generated with AmrumHtml. Date: 04-14-2024